<?xml version='1.0' encoding='UTF-8'?><gpx version="1.1" creator="JPX - https://github.com/jenetics/jpx" xmlns="http://www.topografix.com/GPX/1/1"><trk><trkseg><trkpt lat="43.18327297788901" lon="13.022275972524167"><ele>348.0</ele><time>2026-04-11T07:21:39.998Z</time></trkpt><trkpt lat="43.1834297620725" lon="13.021684884139368"><ele>348.0</ele><time>2026-04-11T07:21:40.998Z</time></trkpt><trkpt lat="43.18347330339325" lon="13.021766323472841"><ele>348.0</ele><time>2026-04-11T07:23:58Z</time></trkpt><trkpt lat="43.183514008971855" lon="13.02184978940939"><ele>348.0</ele><time>2026-04-11T07:24:00Z</time></trkpt><trkpt lat="43.183558048950836" lon="13.021923692431306"><ele>348.0</ele><time>2026-04-11T07:24:02Z</time></trkpt><trkpt lat="43.183600341002574" lon="13.022015448026892"><ele>348.0</ele><time>2026-04-11T07:24:04Z</time></trkpt><trkpt lat="43.183609665471025" lon="13.022113279760356"><ele>348.0</ele><time>2026-04-11T07:24:06Z</time></trkpt><trkpt lat="43.18353708040973" lon="13.022134211885335"><ele>348.0</ele><time>2026-04-11T07:24:08Z</time></trkpt><trkpt lat="43.18347500134156" lon="13.022052552072182"><ele>348.0</ele><time>2026-04-11T07:24:10Z</time></trkpt><trkpt lat="43.18346662499421" lon="13.021934351714895"><ele>348.0</ele><time>2026-04-11T07:24:12Z</time></trkpt><trkpt lat="43.18347617332435" lon="13.021824913402673"><ele>348.0</ele><time>2026-04-11T07:24:14Z</time></trkpt><trkpt lat="43.18344057953065" lon="13.021729122443741"><ele>348.0</ele><time>2026-04-11T07:24:16Z</time></trkpt><trkpt lat="43.183422819503" lon="13.021643092260135"><ele>348.0</ele><time>2026-04-11T07:24:19Z</time></trkpt><trkpt lat="43.18336599200267" lon="13.021720263864838"><ele>348.0</ele><time>2026-04-11T07:24:22Z</time></trkpt><trkpt lat="43.18343131370229" lon="13.021766167518049"><ele>348.0</ele><time>2026-04-11T07:24:25Z</time></trkpt><trkpt lat="43.18351586015531" lon="13.021814935083592"><ele>348.0</ele><time>2026-04-11T07:24:29Z</time></trkpt><trkpt lat="43.18357103567836" lon="13.02187061025192"><ele>348.0</ele><time>2026-04-11T07:24:31Z</time></trkpt><trkpt lat="43.18362357609022" lon="13.021945363985246"><ele>348.0</ele><time>2026-04-11T07:24:33Z</time></trkpt><trkpt lat="43.18367265131582" lon="13.022053112845766"><ele>348.0</ele><time>2026-04-11T07:24:35Z</time></trkpt><trkpt lat="43.18370877421724" lon="13.022175116266572"><ele>348.0</ele><time>2026-04-11T07:24:37Z</time></trkpt><trkpt lat="43.1837490322182" lon="13.022318130149369"><ele>348.0</ele><time>2026-04-11T07:24:39Z</time></trkpt><trkpt lat="43.18377427060068" lon="13.02242250162402"><ele>348.0</ele><time>2026-04-11T07:24:40Z</time></trkpt><trkpt lat="43.18376514913666" lon="13.02253450141755"><ele>348.0</ele><time>2026-04-11T07:24:41Z</time></trkpt><trkpt lat="43.1837985833269" lon="13.022645520061575"><ele>348.0</ele><time>2026-04-11T07:24:42Z</time></trkpt><trkpt lat="43.183825150689216" lon="13.022771825197937"><ele>348.0</ele><time>2026-04-11T07:24:43Z</time></trkpt><trkpt lat="43.18384701834259" lon="13.022892657119321"><ele>348.0</ele><time>2026-04-11T07:24:44Z</time></trkpt><trkpt lat="43.1838716435024" lon="13.023044149474186"><ele>347.5</ele><time>2026-04-11T07:24:45Z</time></trkpt><trkpt lat="43.183897765194914" lon="13.023200532171986"><ele>347.0</ele><time>2026-04-11T07:24:46Z</time></trkpt><trkpt lat="43.18392328583463" lon="13.023351311736652"><ele>346.5</ele><time>2026-04-11T07:24:47Z</time></trkpt><trkpt lat="43.18396298356374" lon="13.023501020680506"><ele>346.0</ele><time>2026-04-11T07:24:48Z</time></trkpt><trkpt lat="43.18399952471142" lon="13.023665190402006"><ele>345.5</ele><time>2026-04-11T07:24:49Z</time></trkpt><trkpt lat="43.18404049957833" lon="13.023832655186727"><ele>345.0</ele><time>2026-04-11T07:24:50Z</time></trkpt><trkpt lat="43.18409305658413" lon="13.023988788004738"><ele>344.5</ele><time>2026-04-11T07:24:51Z</time></trkpt><trkpt lat="43.18415761621933" lon="13.024147498706471"><ele>344.0</ele><time>2026-04-11T07:24:52Z</time></trkpt><trkpt lat="43.18422343874802" lon="13.024298489119257"><ele>343.5</ele><time>2026-04-11T07:24:53Z</time></trkpt><trkpt lat="43.1842882778606" lon="13.024444042684493"><ele>343.0</ele><time>2026-04-11T07:24:54Z</time></trkpt><trkpt lat="43.184339178965445" lon="13.024579416842911"><ele>342.5</ele><time>2026-04-11T07:24:55Z</time></trkpt><trkpt lat="43.184396057701456" lon="13.024720048251249"><ele>342.0</ele><time>2026-04-11T07:24:56Z</time></trkpt><trkpt lat="43.18445391354668" lon="13.024853901832913"><ele>342.0</ele><time>2026-04-11T07:24:57Z</time></trkpt><trkpt lat="43.18451302966892" lon="13.024988839707325"><ele>342.0</ele><time>2026-04-11T07:24:58Z</time></trkpt><trkpt lat="43.184570169661576" lon="13.025128968078011"><ele>342.0</ele><time>2026-04-11T07:24:59Z</time></trkpt><trkpt lat="43.18462923607599" lon="13.025262129242765"><ele>342.0</ele><time>2026-04-11T07:25:00Z</time></trkpt><trkpt lat="43.184691929316" lon="13.025400883182678"><ele>342.0</ele><time>2026-04-11T07:25:01Z</time></trkpt><trkpt lat="43.18475204054922" lon="13.025547063046433"><ele>342.0</ele><time>2026-04-11T07:25:02Z</time></trkpt><trkpt lat="43.184815335169986" lon="13.02568694482508"><ele>342.0</ele><time>2026-04-11T07:25:03Z</time></trkpt><trkpt lat="43.18488035172727" lon="13.02581754023607"><ele>342.0</ele><time>2026-04-11T07:25:04Z</time></trkpt><trkpt lat="43.18493860978651" lon="13.025946126277002"><ele>341.40000000000003</ele><time>2026-04-11T07:25:05Z</time></trkpt><trkpt lat="43.18499252373313" lon="13.026067404882657"><ele>340.8</ele><time>2026-04-11T07:25:06Z</time></trkpt><trkpt lat="43.185044543100936" lon="13.026181397573074"><ele>340.2</ele><time>2026-04-11T07:25:07Z</time></trkpt><trkpt lat="43.18509715669109" lon="13.026285916007325"><ele>339.6</ele><time>2026-04-11T07:25:08Z</time></trkpt><trkpt lat="43.18514917646706" lon="13.026389956579415"><ele>339.0</ele><time>2026-04-11T07:25:09Z</time></trkpt><trkpt lat="43.18519431448257" lon="13.026481782264197"><ele>339.0</ele><time>2026-04-11T07:25:10Z</time></trkpt><trkpt lat="43.18523894099251" lon="13.026573959802931"><ele>339.0</ele><time>2026-04-11T07:25:11Z</time></trkpt><trkpt lat="43.18528589902383" lon="13.026669788128878"><ele>339.0</ele><time>2026-04-11T07:25:12Z</time></trkpt><trkpt lat="43.18534010662074" lon="13.026787683880805"><ele>339.0</ele><time>2026-04-11T07:25:13Z</time></trkpt><trkpt lat="43.18539666066796" lon="13.026911864184182"><ele>339.0</ele><time>2026-04-11T07:25:14Z</time></trkpt><trkpt lat="43.185457991736016" lon="13.027039072720864"><ele>339.4</ele><time>2026-04-11T07:25:15Z</time></trkpt><trkpt lat="43.185516187925664" lon="13.027162224358783"><ele>339.79999999999995</ele><time>2026-04-11T07:25:16Z</time></trkpt><trkpt lat="43.185569094109596" lon="13.027263592444344"><ele>340.20000000000005</ele><time>2026-04-11T07:25:17Z</time></trkpt><trkpt lat="43.185626506490664" lon="13.027355257591882"><ele>340.6</ele><time>2026-04-11T07:25:17.999Z</time></trkpt><trkpt lat="43.18566822578782" lon="13.027429923925315"><ele>341.0</ele><time>2026-04-11T07:25:18.999Z</time></trkpt><trkpt lat="43.185875893635874" lon="13.027390671126959"><ele>341.0</ele><time>2026-04-11T07:25:20.999Z</time></trkpt><trkpt lat="43.18594829423804" lon="13.027308699436647"><ele>341.0</ele><time>2026-04-11T07:25:21.999Z</time></trkpt><trkpt lat="43.18603217110667" lon="13.027225882702554"><ele>341.0</ele><time>2026-04-11T07:25:22.999Z</time></trkpt><trkpt lat="43.18612524105208" lon="13.027153064021823"><ele>341.0</ele><time>2026-04-11T07:25:23.999Z</time></trkpt><trkpt lat="43.186209670415735" lon="13.027057296567657"><ele>341.0</ele><time>2026-04-11T07:25:24.999Z</time></trkpt><trkpt lat="43.18628973052091" lon="13.026968931932812"><ele>341.0</ele><time>2026-04-11T07:25:25.999Z</time></trkpt><trkpt lat="43.18635797648438" lon="13.026880596015165"><ele>341.0</ele><time>2026-04-11T07:25:26.999Z</time></trkpt><trkpt lat="43.186430151650995" lon="13.026833942587148"><ele>341.0</ele><time>2026-04-11T07:25:27.999Z</time></trkpt><trkpt lat="43.18648832278843" lon="13.026776644536726"><ele>341.0</ele><time>2026-04-11T07:25:28.999Z</time></trkpt><trkpt lat="43.18658706803919" lon="13.026679381242149"><ele>341.0</ele><time>2026-04-11T07:25:30.999Z</time></trkpt><trkpt lat="43.18664006231397" lon="13.026627182286607"><ele>341.0</ele><time>2026-04-11T07:25:31.999Z</time></trkpt><trkpt lat="43.186689495957786" lon="13.026559641625134"><ele>342.33333333333337</ele><time>2026-04-11T07:25:33.999Z</time></trkpt><trkpt lat="43.18670639643774" lon="13.026452621651947"><ele>343.6666666666667</ele><time>2026-04-11T07:25:36.999Z</time></trkpt><trkpt lat="43.186678132329845" lon="13.02634970323781"><ele>345.0</ele><time>2026-04-11T07:25:38.999Z</time></trkpt><trkpt lat="43.186665627949886" lon="13.026189806730262"><ele>346.3333333333333</ele><time>2026-04-11T07:25:40.999Z</time></trkpt><trkpt lat="43.18666137321172" lon="13.026097624629735"><ele>347.66666666666663</ele><time>2026-04-11T07:25:41.999Z</time></trkpt><trkpt lat="43.18664959427864" lon="13.025987801963861"><ele>349.0</ele><time>2026-04-11T07:25:42.999Z</time></trkpt><trkpt lat="43.18663752504747" lon="13.025890559679418"><ele>350.8333333333333</ele><time>2026-04-11T07:25:43.999Z</time></trkpt><trkpt lat="43.18662513777286" lon="13.02578715045926"><ele>352.66666666666663</ele><time>2026-04-11T07:25:44.999Z</time></trkpt><trkpt lat="43.18661544853261" lon="13.025674250848338"><ele>354.5</ele><time>2026-04-11T07:25:45.999Z</time></trkpt><trkpt lat="43.1866038391357" lon="13.025565138214597"><ele>356.3333333333333</ele><time>2026-04-11T07:25:46.999Z</time></trkpt><trkpt lat="43.18658956815417" lon="13.025465801708192"><ele>358.1666666666667</ele><time>2026-04-11T07:25:47.999Z</time></trkpt><trkpt lat="43.18657757104846" lon="13.025361092035002"><ele>360.0</ele><time>2026-04-11T07:25:48.999Z</time></trkpt><trkpt lat="43.18656422408104" lon="13.025249084034145"><ele>360.0</ele><time>2026-04-11T07:25:49.999Z</time></trkpt><trkpt lat="43.18654834904273" lon="13.025129131047082"><ele>360.0</ele><time>2026-04-11T07:25:50.999Z</time></trkpt><trkpt lat="43.18652960620821" lon="13.025011401990874"><ele>360.0</ele><time>2026-04-11T07:25:51.999Z</time></trkpt><trkpt lat="43.18651300330508" lon="13.024876778824833"><ele>360.0</ele><time>2026-04-11T07:25:52.999Z</time></trkpt><trkpt lat="43.18648817357194" lon="13.024741702234445"><ele>360.0</ele><time>2026-04-11T07:25:53.999Z</time></trkpt><trkpt lat="43.186464127055665" lon="13.02460309978016"><ele>360.4</ele><time>2026-04-11T07:25:55Z</time></trkpt><trkpt lat="43.18643616789993" lon="13.024469124239147"><ele>360.8</ele><time>2026-04-11T07:25:56Z</time></trkpt><trkpt lat="43.18640537311669" lon="13.024341947890468"><ele>361.20000000000005</ele><time>2026-04-11T07:25:57Z</time></trkpt><trkpt lat="43.18637198892909" lon="13.024210963193962"><ele>361.6</ele><time>2026-04-11T07:25:58Z</time></trkpt><trkpt lat="43.1863373227236" lon="13.024074988339974"><ele>362.0</ele><time>2026-04-11T07:25:59Z</time></trkpt><trkpt lat="43.18631052573487" lon="13.023944047228744"><ele>363.40000000000003</ele><time>2026-04-11T07:26:00Z</time></trkpt><trkpt lat="43.18629392321935" lon="13.023812337181706"><ele>364.8</ele><time>2026-04-11T07:26:01Z</time></trkpt><trkpt lat="43.186266902244625" lon="13.023661955228286"><ele>366.2</ele><time>2026-04-11T07:26:02Z</time></trkpt><trkpt lat="43.186259774362455" lon="13.023521789787015"><ele>367.6</ele><time>2026-04-11T07:26:03Z</time></trkpt><trkpt lat="43.186264110699874" lon="13.023374038418037"><ele>369.0</ele><time>2026-04-11T07:26:04Z</time></trkpt><trkpt lat="43.18628652562125" lon="13.023227116943625"><ele>371.25</ele><time>2026-04-11T07:26:05Z</time></trkpt><trkpt lat="43.18632875733966" lon="13.023081220566091"><ele>373.5</ele><time>2026-04-11T07:26:06Z</time></trkpt><trkpt lat="43.18637059590178" lon="13.022921705877074"><ele>375.75</ele><time>2026-04-11T07:26:07Z</time></trkpt><trkpt lat="43.18641689224544" lon="13.022755163828938"><ele>378.0</ele><time>2026-04-11T07:26:08Z</time></trkpt><trkpt lat="43.18646530736673" lon="13.022597172873276"><ele>380.0</ele><time>2026-04-11T07:26:09Z</time></trkpt><trkpt lat="43.18651369894764" lon="13.022435853836425"><ele>382.0</ele><time>2026-04-11T07:26:10Z</time></trkpt><trkpt lat="43.18654981984964" lon="13.022261097016099"><ele>384.0</ele><time>2026-04-11T07:26:11Z</time></trkpt><trkpt lat="43.186606294922505" lon="13.022123583776528"><ele>386.0</ele><time>2026-04-11T07:26:12Z</time></trkpt><trkpt lat="43.18665625410949" lon="13.021980197692914"><ele>386.0</ele><time>2026-04-11T07:26:13Z</time></trkpt><trkpt lat="43.18668638864707" lon="13.021854813887291"><ele>386.0</ele><time>2026-04-11T07:26:14Z</time></trkpt><trkpt lat="43.18669836549214" lon="13.021755838991695"><ele>386.0</ele><time>2026-04-11T07:26:15Z</time></trkpt><trkpt lat="43.1866883008493" lon="13.021625238031582"><ele>386.0</ele><time>2026-04-11T07:26:16Z</time></trkpt><trkpt lat="43.186640276877625" lon="13.02148972688265"><ele>386.0</ele><time>2026-04-11T07:26:17Z</time></trkpt><trkpt lat="43.18658569476379" lon="13.021384204391094"><ele>386.4</ele><time>2026-04-11T07:26:18Z</time></trkpt><trkpt lat="43.18654285032924" lon="13.021296905487274"><ele>386.8</ele><time>2026-04-11T07:26:19Z</time></trkpt><trkpt lat="43.18648520667292" lon="13.021170309730383"><ele>387.2</ele><time>2026-04-11T07:26:21Z</time></trkpt><trkpt lat="43.18652035168838" lon="13.02106947546914"><ele>387.59999999999997</ele><time>2026-04-11T07:26:23Z</time></trkpt><trkpt lat="43.186627275408895" lon="13.020967883709082"><ele>388.0</ele><time>2026-04-11T07:26:25Z</time></trkpt><trkpt lat="43.18664693342647" lon="13.020843983356787"><ele>388.79999999999995</ele><time>2026-04-11T07:26:26Z</time></trkpt><trkpt lat="43.1866404097579" lon="13.02071831860174"><ele>389.6</ele><time>2026-04-11T07:26:27Z</time></trkpt><trkpt lat="43.18665662438264" lon="13.020575953404336"><ele>390.4</ele><time>2026-04-11T07:26:28Z</time></trkpt><trkpt lat="43.186642172802664" lon="13.020434471937353"><ele>391.20000000000005</ele><time>2026-04-11T07:26:29Z</time></trkpt><trkpt lat="43.18662620717443" lon="13.020289482249005"><ele>392.0</ele><time>2026-04-11T07:26:30Z</time></trkpt><trkpt lat="43.18660987452478" lon="13.020130477340615"><ele>393.40000000000003</ele><time>2026-04-11T07:26:31Z</time></trkpt><trkpt lat="43.186604351200224" lon="13.019971510776097"><ele>394.8</ele><time>2026-04-11T07:26:32Z</time></trkpt><trkpt lat="43.18661995065615" lon="13.01981154687504"><ele>396.2</ele><time>2026-04-11T07:26:33Z</time></trkpt><trkpt lat="43.18667045213025" lon="13.019688679901426"><ele>397.6</ele><time>2026-04-11T07:26:34Z</time></trkpt><trkpt lat="43.186735145355144" lon="13.019605582904468"><ele>399.0</ele><time>2026-04-11T07:26:35Z</time></trkpt><trkpt lat="43.18680540390968" lon="13.019572289346634"><ele>399.0</ele><time>2026-04-11T07:26:36Z</time></trkpt><trkpt lat="43.186893259051146" lon="13.019528207866486"><ele>399.0</ele><time>2026-04-11T07:26:37Z</time></trkpt><trkpt lat="43.18699036018941" lon="13.019533069585153"><ele>399.0</ele><time>2026-04-11T07:26:38Z</time></trkpt><trkpt lat="43.18709037614817" lon="13.019517496837281"><ele>399.0</ele><time>2026-04-11T07:26:39Z</time></trkpt><trkpt lat="43.18719971928124" lon="13.019499666810768"><ele>399.0</ele><time>2026-04-11T07:26:40Z</time></trkpt><trkpt lat="43.18730458602693" lon="13.019484503133892"><ele>400.75</ele><time>2026-04-11T07:26:41Z</time></trkpt><trkpt lat="43.187415465458315" lon="13.019466561582055"><ele>402.5</ele><time>2026-04-11T07:26:42Z</time></trkpt><trkpt lat="43.187525510898354" lon="13.019447343604572"><ele>404.25</ele><time>2026-04-11T07:26:43Z</time></trkpt><trkpt lat="43.18763840050911" lon="13.01942997559461"><ele>406.0</ele><time>2026-04-11T07:26:44Z</time></trkpt><trkpt lat="43.187756034477786" lon="13.01941149500616"><ele>406.0</ele><time>2026-04-11T07:26:45Z</time></trkpt><trkpt lat="43.18786373992409" lon="13.019389997834775"><ele>406.0</ele><time>2026-04-11T07:26:46Z</time></trkpt><trkpt lat="43.18797940520039" lon="13.019365930132276"><ele>406.0</ele><time>2026-04-11T07:26:47Z</time></trkpt><trkpt lat="43.188091684473484" lon="13.019344618663997"><ele>406.0</ele><time>2026-04-11T07:26:48Z</time></trkpt><trkpt lat="43.188203745257596" lon="13.01932364447377"><ele>407.75</ele><time>2026-04-11T07:26:49Z</time></trkpt><trkpt lat="43.1883183353325" lon="13.019314467816528"><ele>409.5</ele><time>2026-04-11T07:26:50Z</time></trkpt><trkpt lat="43.18843248138113" lon="13.01928198295881"><ele>411.25</ele><time>2026-04-11T07:26:51Z</time></trkpt><trkpt lat="43.18853356049554" lon="13.019240704121165"><ele>413.0</ele><time>2026-04-11T07:26:52Z</time></trkpt><trkpt lat="43.18858270813331" lon="13.01909778542556"><ele>413.75</ele><time>2026-04-11T07:26:53Z</time></trkpt><trkpt lat="43.18864936897464" lon="13.018968694551514"><ele>414.5</ele><time>2026-04-11T07:26:54Z</time></trkpt><trkpt lat="43.18874715142538" lon="13.018874703086293"><ele>415.25</ele><time>2026-04-11T07:26:55Z</time></trkpt><trkpt lat="43.18884229689783" lon="13.01876024281623"><ele>416.0</ele><time>2026-04-11T07:26:56Z</time></trkpt><trkpt lat="43.18894030418486" lon="13.018648903353302"><ele>418.25</ele><time>2026-04-11T07:26:57Z</time></trkpt><trkpt lat="43.18903520239174" lon="13.018543789339086"><ele>420.5</ele><time>2026-04-11T07:26:58Z</time></trkpt><trkpt lat="43.18911601566916" lon="13.018429866421185"><ele>422.75</ele><time>2026-04-11T07:26:59Z</time></trkpt><trkpt lat="43.18915335873892" lon="13.018283332463689"><ele>425.0</ele><time>2026-04-11T07:27:00Z</time></trkpt><trkpt lat="43.18917858489112" lon="13.018131759324808"><ele>426.4</ele><time>2026-04-11T07:27:01Z</time></trkpt><trkpt lat="43.18922204547423" lon="13.017987192531145"><ele>427.8</ele><time>2026-04-11T07:27:02Z</time></trkpt><trkpt lat="43.18926003952885" lon="13.01784668921325"><ele>429.20000000000005</ele><time>2026-04-11T07:27:03Z</time></trkpt><trkpt lat="43.18931196670148" lon="13.017746283263122"><ele>430.6</ele><time>2026-04-11T07:27:04Z</time></trkpt><trkpt lat="43.189373554798344" lon="13.01768557887863"><ele>432.0</ele><time>2026-04-11T07:27:05Z</time></trkpt><trkpt lat="43.189446130567006" lon="13.01766364884798"><ele>432.0</ele><time>2026-04-11T07:27:06Z</time></trkpt><trkpt lat="43.18953082031601" lon="13.01764691914336"><ele>432.00000000000006</ele><time>2026-04-11T07:27:07Z</time></trkpt><trkpt lat="43.18963616472229" lon="13.017676636053276"><ele>432.00000000000006</ele><time>2026-04-11T07:27:08Z</time></trkpt><trkpt lat="43.189729121761474" lon="13.01768445467329"><ele>432.0</ele><time>2026-04-11T07:27:09Z</time></trkpt><trkpt lat="43.189816941275126" lon="13.017669195638693"><ele>432.0</ele><time>2026-04-11T07:27:10Z</time></trkpt><trkpt lat="43.1898928624048" lon="13.017645501193863"><ele>432.6</ele><time>2026-04-11T07:27:11Z</time></trkpt><trkpt lat="43.18994893171572" lon="13.017548246453789"><ele>433.20000000000005</ele><time>2026-04-11T07:27:12Z</time></trkpt><trkpt lat="43.18996092396201" lon="13.017412871631118"><ele>433.8</ele><time>2026-04-11T07:27:13Z</time></trkpt><trkpt lat="43.18994065810112" lon="13.017284246803037"><ele>434.4</ele><time>2026-04-11T07:27:14Z</time></trkpt><trkpt lat="43.189935773660046" lon="13.017152118661325"><ele>435.0</ele><time>2026-04-11T07:27:15Z</time></trkpt><trkpt lat="43.18993415103922" lon="13.01700861780815"><ele>437.0</ele><time>2026-04-11T07:27:16Z</time></trkpt><trkpt lat="43.189951866996424" lon="13.01686341096802"><ele>439.0</ele><time>2026-04-11T07:27:17Z</time></trkpt><trkpt lat="43.18998355398886" lon="13.016704524704219"><ele>441.0</ele><time>2026-04-11T07:27:18Z</time></trkpt><trkpt lat="43.190025378198975" lon="13.016531745156087"><ele>443.0</ele><time>2026-04-11T07:27:19Z</time></trkpt><trkpt lat="43.19007062051405" lon="13.016357222312111"><ele>444.66666666666663</ele><time>2026-04-11T07:27:19.999Z</time></trkpt><trkpt lat="43.19011647627695" lon="13.016169570717858"><ele>446.33333333333337</ele><time>2026-04-11T07:27:20.999Z</time></trkpt><trkpt lat="43.190163213935065" lon="13.015972854361756"><ele>448.0</ele><time>2026-04-11T07:27:21.999Z</time></trkpt><trkpt lat="43.190218423009256" lon="13.015768717502523"><ele>449.6666666666667</ele><time>2026-04-11T07:27:22.999Z</time></trkpt><trkpt lat="43.19027714851115" lon="13.015568613425616"><ele>451.33333333333337</ele><time>2026-04-11T07:27:23.999Z</time></trkpt><trkpt lat="43.190324568600225" lon="13.015363101718696"><ele>453.0</ele><time>2026-04-11T07:27:24.999Z</time></trkpt><trkpt lat="43.19035813567839" lon="13.015115829878377"><ele>456.0</ele><time>2026-04-11T07:27:25.999Z</time></trkpt><trkpt lat="43.190383436223186" lon="13.01487122253447"><ele>459.0</ele><time>2026-04-11T07:27:26.999Z</time></trkpt><trkpt lat="43.19040156962502" lon="13.014620101843168"><ele>462.0</ele><time>2026-04-11T07:27:27.999Z</time></trkpt><trkpt lat="43.190413595714126" lon="13.014386446825267"><ele>465.33333333333337</ele><time>2026-04-11T07:27:28.999Z</time></trkpt><trkpt lat="43.19042032427307" lon="13.014147666243693"><ele>468.6666666666667</ele><time>2026-04-11T07:27:29.999Z</time></trkpt><trkpt lat="43.19041851744216" lon="13.013910848465425"><ele>472.0</ele><time>2026-04-11T07:27:30.999Z</time></trkpt><trkpt lat="43.190408313870066" lon="13.013673367505556"><ele>472.0</ele><time>2026-04-11T07:27:31.999Z</time></trkpt><trkpt lat="43.190389483139725" lon="13.01346949353217"><ele>472.0</ele><time>2026-04-11T07:27:32.999Z</time></trkpt><trkpt lat="43.190362529542305" lon="13.01327768807068"><ele>472.0</ele><time>2026-04-11T07:27:33.999Z</time></trkpt><trkpt lat="43.19030731215746" lon="13.013110000559971"><ele>472.0</ele><time>2026-04-11T07:27:34.999Z</time></trkpt><trkpt lat="43.190268737795954" lon="13.01292264293493"><ele>474.75</ele><time>2026-04-11T07:27:35.998Z</time></trkpt><trkpt lat="43.19018876724649" lon="13.012780599389943"><ele>477.5</ele><time>2026-04-11T07:27:36.998Z</time></trkpt><trkpt lat="43.1900461870053" lon="13.012714439878104"><ele>480.25</ele><time>2026-04-11T07:27:37.998Z</time></trkpt><trkpt lat="43.189921998261106" lon="13.012616432005018"><ele>483.0</ele><time>2026-04-11T07:27:38.998Z</time></trkpt><trkpt lat="43.189799632389516" lon="13.012525182931856"><ele>485.4</ele><time>2026-04-11T07:27:39.998Z</time></trkpt><trkpt lat="43.189714606703895" lon="13.012429725112625"><ele>487.79999999999995</ele><time>2026-04-11T07:27:40.998Z</time></trkpt><trkpt lat="43.189657937853056" lon="13.01230488065835"><ele>490.2</ele><time>2026-04-11T07:27:41.998Z</time></trkpt><trkpt lat="43.189648054298495" lon="13.012179661249673"><ele>492.6</ele><time>2026-04-11T07:27:42.998Z</time></trkpt><trkpt lat="43.18961565003677" lon="13.012035908818337"><ele>495.0</ele><time>2026-04-11T07:27:43.998Z</time></trkpt><trkpt lat="43.1895811424929" lon="13.011886570301806"><ele>495.0</ele><time>2026-04-11T07:27:44.998Z</time></trkpt><trkpt lat="43.18954975741864" lon="13.011759082781213"><ele>495.0</ele><time>2026-04-11T07:27:45.998Z</time></trkpt><trkpt lat="43.18952578248095" lon="13.011651842223811"><ele>495.0</ele><time>2026-04-11T07:27:46.998Z</time></trkpt><trkpt lat="43.18951547029722" lon="13.011544268961305"><ele>495.0</ele><time>2026-04-11T07:27:47.998Z</time></trkpt><trkpt lat="43.18955414289558" lon="13.011396861808423"><ele>495.0</ele><time>2026-04-11T07:27:49.998Z</time></trkpt><trkpt lat="43.18958956691009" lon="13.01128725966961"><ele>497.75</ele><time>2026-04-11T07:27:51.998Z</time></trkpt><trkpt lat="43.18949503115874" lon="13.011125281183126"><ele>500.5</ele><time>2026-04-11T07:27:53.998Z</time></trkpt><trkpt lat="43.18938538860344" lon="13.011117222826645"><ele>503.25</ele><time>2026-04-11T07:27:54.998Z</time></trkpt><trkpt lat="43.18927960682841" lon="13.011060164779751"><ele>506.0</ele><time>2026-04-11T07:27:55.998Z</time></trkpt><trkpt lat="43.189172529621054" lon="13.011037842552636"><ele>505.99999999999994</ele><time>2026-04-11T07:27:56.998Z</time></trkpt><trkpt lat="43.18909527064671" lon="13.011084344362793"><ele>506.0</ele><time>2026-04-11T07:27:57.998Z</time></trkpt><trkpt lat="43.18903432434969" lon="13.011156420024049"><ele>506.0</ele><time>2026-04-11T07:27:58.998Z</time></trkpt><trkpt lat="43.18897104235796" lon="13.011187328709456"><ele>506.0</ele><time>2026-04-11T07:27:59.998Z</time></trkpt><trkpt lat="43.18885675909635" lon="13.01114797488344"><ele>505.99999999999994</ele><time>2026-04-11T07:28:02Z</time></trkpt><trkpt lat="43.188796184987886" lon="13.011114689847075"><ele>506.0</ele><time>2026-04-11T07:28:03Z</time></trkpt><trkpt lat="43.18871508176321" lon="13.011059062975349"><ele>504.6</ele><time>2026-04-11T07:28:04Z</time></trkpt><trkpt lat="43.188619836988984" lon="13.011020033400523"><ele>503.20000000000005</ele><time>2026-04-11T07:28:05Z</time></trkpt><trkpt lat="43.188508104851756" lon="13.011009665756326"><ele>501.79999999999995</ele><time>2026-04-11T07:28:06Z</time></trkpt><trkpt lat="43.18840699858538" lon="13.011060507950486"><ele>500.4</ele><time>2026-04-11T07:28:07Z</time></trkpt><trkpt lat="43.18832143648079" lon="13.011051744184618"><ele>499.0</ele><time>2026-04-11T07:28:08Z</time></trkpt><trkpt lat="43.18824608774965" lon="13.011043235701038"><ele>498.1666666666667</ele><time>2026-04-11T07:28:09Z</time></trkpt><trkpt lat="43.188173027231976" lon="13.011020471662444"><ele>497.33333333333337</ele><time>2026-04-11T07:28:10Z</time></trkpt><trkpt lat="43.18807705449798" lon="13.010988588483059"><ele>496.5</ele><time>2026-04-11T07:28:11Z</time></trkpt><trkpt lat="43.18797940155972" lon="13.010946071636223"><ele>495.66666666666663</ele><time>2026-04-11T07:28:12Z</time></trkpt><trkpt lat="43.18790666457568" lon="13.010898321762166"><ele>494.8333333333333</ele><time>2026-04-11T07:28:13Z</time></trkpt><trkpt lat="43.187821051810374" lon="13.010850533022301"><ele>494.0</ele><time>2026-04-11T07:28:14Z</time></trkpt><trkpt lat="43.18772874113789" lon="13.010840704117417"><ele>493.99999999999994</ele><time>2026-04-11T07:28:15Z</time></trkpt><trkpt lat="43.18764820333279" lon="13.010824290167934"><ele>494.0</ele><time>2026-04-11T07:28:16Z</time></trkpt><trkpt lat="43.1875514662047" lon="13.010833684083003"><ele>494.0</ele><time>2026-04-11T07:28:16.999Z</time></trkpt><trkpt lat="43.18745551202975" lon="13.010881353179373"><ele>494.0</ele><time>2026-04-11T07:28:17.999Z</time></trkpt><trkpt lat="43.18736546112032" lon="13.010905713021208"><ele>493.99999999999994</ele><time>2026-04-11T07:28:18.999Z</time></trkpt><trkpt lat="43.187293962002094" lon="13.010901310165373"><ele>494.0</ele><time>2026-04-11T07:28:19.999Z</time></trkpt><trkpt lat="43.18722741904943" lon="13.010847499131884"><ele>491.8333333333333</ele><time>2026-04-11T07:28:20.999Z</time></trkpt><trkpt lat="43.18717182709067" lon="13.010787029617752"><ele>489.66666666666663</ele><time>2026-04-11T07:28:21.999Z</time></trkpt><trkpt lat="43.18711059171755" lon="13.010733299998298"><ele>487.5</ele><time>2026-04-11T07:28:22.999Z</time></trkpt><trkpt lat="43.18705991311679" lon="13.010677509634782"><ele>485.33333333333337</ele><time>2026-04-11T07:28:23.999Z</time></trkpt><trkpt lat="43.18700009327747" lon="13.010641685366704"><ele>483.1666666666667</ele><time>2026-04-11T07:28:24.999Z</time></trkpt><trkpt lat="43.1869345538862" lon="13.010564534051724"><ele>481.0</ele><time>2026-04-11T07:28:27.999Z</time></trkpt><trkpt lat="43.18697477442369" lon="13.010414547138678"><ele>480.99999999999994</ele><time>2026-04-11T07:28:29.999Z</time></trkpt><trkpt lat="43.18700047521545" lon="13.010333098625614"><ele>481.0</ele><time>2026-04-11T07:28:30.999Z</time></trkpt><trkpt lat="43.187036814947454" lon="13.010257492571423"><ele>480.99999999999994</ele><time>2026-04-11T07:28:31.999Z</time></trkpt><trkpt lat="43.187067826573276" lon="13.010157663475383"><ele>480.99999999999994</ele><time>2026-04-11T07:28:32.999Z</time></trkpt><trkpt lat="43.18708281676062" lon="13.010067407570538"><ele>481.0</ele><time>2026-04-11T07:28:33.999Z</time></trkpt><trkpt lat="43.187110976509594" lon="13.009967009927918"><ele>480.99999999999994</ele><time>2026-04-11T07:28:34.999Z</time></trkpt><trkpt lat="43.18714869713616" lon="13.009862247170743"><ele>480.99999999999994</ele><time>2026-04-11T07:28:35.999Z</time></trkpt><trkpt lat="43.18716297925695" lon="13.009769182832613"><ele>482.8</ele><time>2026-04-11T07:28:36.999Z</time></trkpt><trkpt lat="43.1871045435459" lon="13.009676223531553"><ele>484.6</ele><time>2026-04-11T07:28:38.999Z</time></trkpt><trkpt lat="43.18700671808134" lon="13.009683126700171"><ele>486.4</ele><time>2026-04-11T07:28:41.999Z</time></trkpt><trkpt lat="43.18696167209343" lon="13.009801293478603"><ele>488.2</ele><time>2026-04-11T07:28:43.999Z</time></trkpt><trkpt lat="43.1868813844041" lon="13.009872540324608"><ele>490.0</ele><time>2026-04-11T07:28:45.999Z</time></trkpt><trkpt lat="43.186778779100045" lon="13.009918028686325"><ele>490.00000000000006</ele><time>2026-04-11T07:28:47.999Z</time></trkpt><trkpt lat="43.18667724486793" lon="13.009946922660417"><ele>490.0</ele><time>2026-04-11T07:28:49.999Z</time></trkpt><trkpt lat="43.18661962708815" lon="13.00984673588386"><ele>490.0</ele><time>2026-04-11T07:28:52.999Z</time></trkpt><trkpt lat="43.18657677616743" lon="13.00977297315525"><ele>490.0</ele><time>2026-04-11T07:28:53.999Z</time></trkpt><trkpt lat="43.18650099881267" lon="13.009713796815312"><ele>490.00000000000006</ele><time>2026-04-11T07:28:54.999Z</time></trkpt><trkpt lat="43.18644940027041" lon="13.009645017139901"><ele>490.0</ele><time>2026-04-11T07:28:55.999Z</time></trkpt><trkpt lat="43.18630420705155" lon="13.00960707689352"><ele>487.1666666666667</ele><time>2026-04-11T07:28:57.999Z</time></trkpt><trkpt lat="43.18621818217091" lon="13.009589992630593"><ele>484.33333333333337</ele><time>2026-04-11T07:28:58.999Z</time></trkpt><trkpt lat="43.186135489331306" lon="13.009546828840957"><ele>481.5</ele><time>2026-04-11T07:28:59.999Z</time></trkpt><trkpt lat="43.186049781735896" lon="13.009505679544963"><ele>478.66666666666663</ele><time>2026-04-11T07:29:00.999Z</time></trkpt><trkpt lat="43.18598307934954" lon="13.00949502125039"><ele>475.8333333333333</ele><time>2026-04-11T07:29:01.999Z</time></trkpt><trkpt lat="43.18589284539276" lon="13.009414430231898"><ele>473.0</ele><time>2026-04-11T07:29:03.999Z</time></trkpt><trkpt lat="43.18580359352041" lon="13.009350432806036"><ele>472.99999999999994</ele><time>2026-04-11T07:29:05.999Z</time></trkpt><trkpt lat="43.18569148578567" lon="13.00938735409231"><ele>473.0</ele><time>2026-04-11T07:29:07.999Z</time></trkpt><trkpt lat="43.18561513880547" lon="13.009372710857562"><ele>473.0</ele><time>2026-04-11T07:29:08.999Z</time></trkpt><trkpt lat="43.185535082624746" lon="13.009333512666283"><ele>473.0</ele><time>2026-04-11T07:29:09.999Z</time></trkpt><trkpt lat="43.185462118484274" lon="13.009299992345477"><ele>472.99999999999994</ele><time>2026-04-11T07:29:10.999Z</time></trkpt><trkpt lat="43.185383486633754" lon="13.009247495865079"><ele>473.0</ele><time>2026-04-11T07:29:11.999Z</time></trkpt><trkpt lat="43.18530317036094" lon="13.009215636462292"><ele>474.99999999999994</ele><time>2026-04-11T07:29:12.999Z</time></trkpt><trkpt lat="43.18523411480199" lon="13.009202578279227"><ele>477.0</ele><time>2026-04-11T07:29:13.999Z</time></trkpt><trkpt lat="43.185168608186835" lon="13.009195419997761"><ele>479.0</ele><time>2026-04-11T07:29:14.999Z</time></trkpt><trkpt lat="43.18510269563215" lon="13.009170899529886"><ele>481.0</ele><time>2026-04-11T07:29:15.999Z</time></trkpt><trkpt lat="43.185035569108045" lon="13.009127055559224"><ele>482.99999999999994</ele><time>2026-04-11T07:29:16.999Z</time></trkpt><trkpt lat="43.184944225840454" lon="13.009079593389853"><ele>485.0</ele><time>2026-04-11T07:29:17.999Z</time></trkpt><trkpt lat="43.18486879058942" lon="13.009022658278779"><ele>483.8333333333333</ele><time>2026-04-11T07:29:18.999Z</time></trkpt><trkpt lat="43.18480327121059" lon="13.008974522455377"><ele>482.66666666666663</ele><time>2026-04-11T07:29:19.999Z</time></trkpt><trkpt lat="43.18474509731869" lon="13.008922924063434"><ele>481.5</ele><time>2026-04-11T07:29:20.999Z</time></trkpt><trkpt lat="43.184617741780656" lon="13.008874081974847"><ele>480.33333333333337</ele><time>2026-04-11T07:29:22.999Z</time></trkpt><trkpt lat="43.18454708633328" lon="13.0088503550894"><ele>479.1666666666667</ele><time>2026-04-11T07:29:23.999Z</time></trkpt><trkpt lat="43.18446631836996" lon="13.008833041624928"><ele>478.0</ele><time>2026-04-11T07:29:24.999Z</time></trkpt><trkpt lat="43.184380721306006" lon="13.008808199161441"><ele>478.0</ele><time>2026-04-11T07:29:25.999Z</time></trkpt><trkpt lat="43.18428754574448" lon="13.008778366525632"><ele>477.99999999999994</ele><time>2026-04-11T07:29:26.999Z</time></trkpt><trkpt lat="43.184207741089025" lon="13.008742629555462"><ele>477.99999999999994</ele><time>2026-04-11T07:29:27.999Z</time></trkpt><trkpt lat="43.184116908137014" lon="13.008752838602613"><ele>478.0</ele><time>2026-04-11T07:29:28.999Z</time></trkpt><trkpt lat="43.18401965472387" lon="13.008796466632296"><ele>478.0</ele><time>2026-04-11T07:29:29.999Z</time></trkpt><trkpt lat="43.18391650929837" lon="13.008849611185585"><ele>478.59999999999997</ele><time>2026-04-11T07:29:30.999Z</time></trkpt><trkpt lat="43.18382844230958" lon="13.008895686338088"><ele>479.19999999999993</ele><time>2026-04-11T07:29:31.999Z</time></trkpt><trkpt lat="43.183734202308706" lon="13.008940538687291"><ele>479.8</ele><time>2026-04-11T07:29:32.999Z</time></trkpt><trkpt lat="43.1836357666575" lon="13.0089341309662"><ele>480.4</ele><time>2026-04-11T07:29:33.999Z</time></trkpt><trkpt lat="43.18354223619522" lon="13.008889303714254"><ele>481.0</ele><time>2026-04-11T07:29:34.999Z</time></trkpt><trkpt lat="43.18346310807034" lon="13.008827179439834"><ele>481.0</ele><time>2026-04-11T07:29:35.999Z</time></trkpt><trkpt lat="43.18339501844176" lon="13.008805962420448"><ele>481.0</ele><time>2026-04-11T07:29:36.999Z</time></trkpt><trkpt lat="43.18329216369669" lon="13.00882751193965"><ele>481.0</ele><time>2026-04-11T07:29:37.999Z</time></trkpt><trkpt lat="43.18318937085352" lon="13.00882135777052"><ele>481.0</ele><time>2026-04-11T07:29:38.999Z</time></trkpt><trkpt lat="43.183102333467644" lon="13.008758606755888"><ele>481.0</ele><time>2026-04-11T07:29:39.999Z</time></trkpt><trkpt lat="43.18299054825837" lon="13.008695920992585"><ele>478.83333333333337</ele><time>2026-04-11T07:29:40.999Z</time></trkpt><trkpt lat="43.18290986536559" lon="13.008640189088627"><ele>476.6666666666667</ele><time>2026-04-11T07:29:41.999Z</time></trkpt><trkpt lat="43.182848608951616" lon="13.008563142360236"><ele>474.5</ele><time>2026-04-11T07:29:42.999Z</time></trkpt><trkpt lat="43.182770124972066" lon="13.008544165331116"><ele>472.33333333333337</ele><time>2026-04-11T07:29:44.999Z</time></trkpt><trkpt lat="43.1826849970537" lon="13.00850710026082"><ele>470.1666666666667</ele><time>2026-04-11T07:29:45.998Z</time></trkpt><trkpt lat="43.18260351266488" lon="13.008464143992938"><ele>468.0</ele><time>2026-04-11T07:29:46.998Z</time></trkpt><trkpt lat="43.182523573158214" lon="13.008420349529391"><ele>468.0</ele><time>2026-04-11T07:29:47.998Z</time></trkpt><trkpt lat="43.182443067389286" lon="13.008378185954353"><ele>467.99999999999994</ele><time>2026-04-11T07:29:48.998Z</time></trkpt><trkpt lat="43.18233429711549" lon="13.008342428608648"><ele>467.99999999999994</ele><time>2026-04-11T07:29:49.998Z</time></trkpt><trkpt lat="43.182228114594864" lon="13.008309209460746"><ele>468.0</ele><time>2026-04-11T07:29:50.998Z</time></trkpt><trkpt lat="43.18211722085901" lon="13.008282609616355"><ele>468.0</ele><time>2026-04-11T07:29:51.998Z</time></trkpt><trkpt lat="43.18202289971101" lon="13.008246557115845"><ele>467.59999999999997</ele><time>2026-04-11T07:29:52.998Z</time></trkpt><trkpt lat="43.18193036563223" lon="13.008187382336546"><ele>467.19999999999993</ele><time>2026-04-11T07:29:53.998Z</time></trkpt><trkpt lat="43.18183918246893" lon="13.008094214115923"><ele>466.8</ele><time>2026-04-11T07:29:54.998Z</time></trkpt><trkpt lat="43.18176421436234" lon="13.007979048894715"><ele>466.4</ele><time>2026-04-11T07:29:55.998Z</time></trkpt><trkpt lat="43.181703526912464" lon="13.007865618462027"><ele>466.0</ele><time>2026-04-11T07:29:56.998Z</time></trkpt><trkpt lat="43.18164848902995" lon="13.007791375718037"><ele>466.0</ele><time>2026-04-11T07:29:57.998Z</time></trkpt><trkpt lat="43.181553996743" lon="13.007753583344856"><ele>466.0</ele><time>2026-04-11T07:29:58.998Z</time></trkpt><trkpt lat="43.18145251491051" lon="13.00770272462383"><ele>466.0</ele><time>2026-04-11T07:29:59.998Z</time></trkpt><trkpt lat="43.18136231946711" lon="13.00764736193726"><ele>466.0</ele><time>2026-04-11T07:30:00.998Z</time></trkpt><trkpt lat="43.181279643188574" lon="13.007567780639999"><ele>466.0</ele><time>2026-04-11T07:30:01.998Z</time></trkpt><trkpt lat="43.181192916944525" lon="13.007453311118969"><ele>463.83333333333337</ele><time>2026-04-11T07:30:02.998Z</time></trkpt><trkpt lat="43.181128501551555" lon="13.00734621241192"><ele>461.6666666666667</ele><time>2026-04-11T07:30:03.998Z</time></trkpt><trkpt lat="43.181086581623326" lon="13.007245026199218"><ele>459.5</ele><time>2026-04-11T07:30:05.998Z</time></trkpt><trkpt lat="43.181174184273424" lon="13.007232188354942"><ele>457.33333333333337</ele><time>2026-04-11T07:30:11Z</time></trkpt><trkpt lat="43.181246407612164" lon="13.007211755221595"><ele>455.1666666666667</ele><time>2026-04-11T07:30:14Z</time></trkpt><trkpt lat="43.181335153696935" lon="13.007193494128147"><ele>453.0</ele><time>2026-04-11T07:30:16Z</time></trkpt><trkpt lat="43.18141247906072" lon="13.00718210859081"><ele>453.0</ele><time>2026-04-11T07:30:17Z</time></trkpt><trkpt lat="43.181474711360515" lon="13.00719570796762"><ele>453.0</ele><time>2026-04-11T07:30:18Z</time></trkpt><trkpt lat="43.18154028397215" lon="13.007222797023484"><ele>453.0</ele><time>2026-04-11T07:30:19Z</time></trkpt><trkpt lat="43.181680481847174" lon="13.007217787206477"><ele>453.0</ele><time>2026-04-11T07:30:21Z</time></trkpt><trkpt lat="43.181764536495635" lon="13.007199718808476"><ele>453.0</ele><time>2026-04-11T07:30:22Z</time></trkpt><trkpt lat="43.18182939953076" lon="13.007183841285627"><ele>453.0</ele><time>2026-04-11T07:30:23Z</time></trkpt><trkpt lat="43.181910474133254" lon="13.007168544620264"><ele>455.1666666666667</ele><time>2026-04-11T07:30:24Z</time></trkpt><trkpt lat="43.1819723652953" lon="13.007197583583888"><ele>457.33333333333337</ele><time>2026-04-11T07:30:25Z</time></trkpt><trkpt lat="43.18202319245862" lon="13.007260051926504"><ele>459.5</ele><time>2026-04-11T07:30:26Z</time></trkpt><trkpt lat="43.182105707857154" lon="13.00738812715865"><ele>461.6666666666667</ele><time>2026-04-11T07:30:28Z</time></trkpt><trkpt lat="43.18217040387498" lon="13.007447542861154"><ele>463.83333333333337</ele><time>2026-04-11T07:30:29Z</time></trkpt><trkpt lat="43.18226163006588" lon="13.0074985674305"><ele>466.0</ele><time>2026-04-11T07:30:30Z</time></trkpt><trkpt lat="43.18233677812508" lon="13.007574091201038"><ele>469.6</ele><time>2026-04-11T07:30:31Z</time></trkpt><trkpt lat="43.18239742398037" lon="13.007633909934883"><ele>473.20000000000005</ele><time>2026-04-11T07:30:31.999Z</time></trkpt><trkpt lat="43.18246874632201" lon="13.007639541444284"><ele>476.79999999999995</ele><time>2026-04-11T07:30:32.999Z</time></trkpt><trkpt lat="43.18256953322336" lon="13.007529823583976"><ele>480.4</ele><time>2026-04-11T07:30:34.999Z</time></trkpt><trkpt lat="43.18262635216777" lon="13.007376835069639"><ele>484.0</ele><time>2026-04-11T07:30:36.999Z</time></trkpt><trkpt lat="43.182666659123555" lon="13.007289379069407"><ele>484.83333333333337</ele><time>2026-04-11T07:30:37.999Z</time></trkpt><trkpt lat="43.18270115082982" lon="13.007216897556976"><ele>485.6666666666667</ele><time>2026-04-11T07:30:38.999Z</time></trkpt><trkpt lat="43.18273868075496" lon="13.00710788754141"><ele>486.5</ele><time>2026-04-11T07:30:39.999Z</time></trkpt><trkpt lat="43.18277267591353" lon="13.006966198295723"><ele>487.33333333333337</ele><time>2026-04-11T07:30:40.999Z</time></trkpt><trkpt lat="43.182796176092126" lon="13.006847259021542"><ele>488.1666666666667</ele><time>2026-04-11T07:30:41.999Z</time></trkpt><trkpt lat="43.18283749066608" lon="13.006723713640215"><ele>489.0</ele><time>2026-04-11T07:30:42.999Z</time></trkpt><trkpt lat="43.18287817031811" lon="13.006622831304366"><ele>489.0</ele><time>2026-04-11T07:30:43.999Z</time></trkpt><trkpt lat="43.182942895606146" lon="13.006575837908473"><ele>489.0</ele><time>2026-04-11T07:30:45.999Z</time></trkpt><trkpt lat="43.18305593776557" lon="13.00669653941629"><ele>489.0</ele><time>2026-04-11T07:30:47.999Z</time></trkpt><trkpt lat="43.18314381116133" lon="13.006761560050641"><ele>489.0</ele><time>2026-04-11T07:30:48.999Z</time></trkpt><trkpt lat="43.18323274451866" lon="13.006790994405902"><ele>489.0</ele><time>2026-04-11T07:30:49.999Z</time></trkpt><trkpt lat="43.18333425778141" lon="13.006783046221388"><ele>491.2</ele><time>2026-04-11T07:30:50.999Z</time></trkpt><trkpt lat="43.18342460672617" lon="13.00678573789354"><ele>493.4</ele><time>2026-04-11T07:30:51.999Z</time></trkpt><trkpt lat="43.183507698251" lon="13.00680873218668"><ele>495.6</ele><time>2026-04-11T07:30:52.999Z</time></trkpt><trkpt lat="43.18360521932584" lon="13.006854521037907"><ele>497.8</ele><time>2026-04-11T07:30:54.999Z</time></trkpt><trkpt lat="43.18372987754911" lon="13.00687487839345"><ele>500.0</ele><time>2026-04-11T07:30:56.999Z</time></trkpt><trkpt lat="43.18380231211675" lon="13.00689094508466"><ele>500.0</ele><time>2026-04-11T07:30:57.999Z</time></trkpt><trkpt lat="43.18387226476632" lon="13.006897829631146"><ele>500.0</ele><time>2026-04-11T07:30:58.999Z</time></trkpt><trkpt lat="43.18394302800549" lon="13.006882155864627"><ele>500.0</ele><time>2026-04-11T07:30:59.999Z</time></trkpt><trkpt lat="43.18400752871849" lon="13.006869035792798"><ele>500.0</ele><time>2026-04-11T07:31:00.999Z</time></trkpt><trkpt lat="43.184084835799716" lon="13.006865991979629"><ele>500.0</ele><time>2026-04-11T07:31:01.999Z</time></trkpt><trkpt lat="43.184154259422286" lon="13.006854666614972"><ele>500.0</ele><time>2026-04-11T07:31:02.999Z</time></trkpt><trkpt lat="43.184222115574535" lon="13.006800102207492"><ele>500.0</ele><time>2026-04-11T07:31:03.999Z</time></trkpt><trkpt lat="43.184290583435214" lon="13.006742808839835"><ele>502.3333333333333</ele><time>2026-04-11T07:31:04.999Z</time></trkpt><trkpt lat="43.18436002576967" lon="13.006683244405544"><ele>504.66666666666663</ele><time>2026-04-11T07:31:05.999Z</time></trkpt><trkpt lat="43.18443421066823" lon="13.006655929822042"><ele>507.0</ele><time>2026-04-11T07:31:06.999Z</time></trkpt><trkpt lat="43.184524396073805" lon="13.006663650676058"><ele>509.33333333333337</ele><time>2026-04-11T07:31:07.999Z</time></trkpt><trkpt lat="43.18461059835485" lon="13.006681726646141"><ele>511.6666666666667</ele><time>2026-04-11T07:31:08.999Z</time></trkpt><trkpt lat="43.18471368735261" lon="13.006670735120347"><ele>514.0</ele><time>2026-04-11T07:31:09.999Z</time></trkpt><trkpt lat="43.18480293481878" lon="13.00663450355015"><ele>518.0</ele><time>2026-04-11T07:31:10.999Z</time></trkpt><trkpt lat="43.18488742702463" lon="13.006613640556157"><ele>522.0</ele><time>2026-04-11T07:31:11.999Z</time></trkpt><trkpt lat="43.184970271695" lon="13.006575620424409"><ele>526.0</ele><time>2026-04-11T07:31:12.999Z</time></trkpt><trkpt lat="43.18504039372519" lon="13.006506125895047"><ele>530.0</ele><time>2026-04-11T07:31:13.999Z</time></trkpt><trkpt lat="43.185113702840425" lon="13.006454192946126"><ele>534.0</ele><time>2026-04-11T07:31:14.999Z</time></trkpt><trkpt lat="43.185212182169614" lon="13.006434370527936"><ele>538.0</ele><time>2026-04-11T07:31:15.999Z</time></trkpt><trkpt lat="43.185311606195725" lon="13.006411206625218"><ele>538.0</ele><time>2026-04-11T07:31:16.999Z</time></trkpt><trkpt lat="43.18540690125784" lon="13.006367021064571"><ele>538.0</ele><time>2026-04-11T07:31:17.999Z</time></trkpt><trkpt lat="43.18548535147375" lon="13.006336409036955"><ele>538.0</ele><time>2026-04-11T07:31:18.999Z</time></trkpt><trkpt lat="43.18558176316267" lon="13.006331933288088"><ele>538.0</ele><time>2026-04-11T07:31:19.999Z</time></trkpt><trkpt lat="43.18568888879444" lon="13.00633188171915"><ele>538.0</ele><time>2026-04-11T07:31:20.999Z</time></trkpt><trkpt lat="43.185774192784756" lon="13.0063284993804"><ele>539.1666666666667</ele><time>2026-04-11T07:31:21.999Z</time></trkpt><trkpt lat="43.18587294977565" lon="13.006348721362947"><ele>540.3333333333334</ele><time>2026-04-11T07:31:22.999Z</time></trkpt><trkpt lat="43.185965667620344" lon="13.006374453014304"><ele>541.5</ele><time>2026-04-11T07:31:23.999Z</time></trkpt><trkpt lat="43.18603959466686" lon="13.006400265766795"><ele>542.6666666666666</ele><time>2026-04-11T07:31:24.999Z</time></trkpt><trkpt lat="43.186126288530126" lon="13.006417910623288"><ele>543.8333333333333</ele><time>2026-04-11T07:31:25.999Z</time></trkpt><trkpt lat="43.18619735274356" lon="13.006451420824511"><ele>545.0</ele><time>2026-04-11T07:31:26.999Z</time></trkpt><trkpt lat="43.18626394003288" lon="13.006484853479911"><ele>545.0</ele><time>2026-04-11T07:31:27.999Z</time></trkpt><trkpt lat="43.18633732834933" lon="13.006531699422359"><ele>545.0</ele><time>2026-04-11T07:31:28.999Z</time></trkpt><trkpt lat="43.18641499565052" lon="13.006541117664888"><ele>545.0</ele><time>2026-04-11T07:31:29.999Z</time></trkpt><trkpt lat="43.18651740505239" lon="13.006539442179045"><ele>545.0</ele><time>2026-04-11T07:31:30.999Z</time></trkpt><trkpt lat="43.18662406907033" lon="13.006544572608247"><ele>545.0</ele><time>2026-04-11T07:31:31.999Z</time></trkpt><trkpt lat="43.18672348666601" lon="13.006562300153119"><ele>544.6666666666666</ele><time>2026-04-11T07:31:32.999Z</time></trkpt><trkpt lat="43.18680509393439" lon="13.006603474139848"><ele>544.3333333333333</ele><time>2026-04-11T07:31:33.999Z</time></trkpt><trkpt lat="43.186884471098296" lon="13.00663514825315"><ele>544.0</ele><time>2026-04-11T07:31:34.999Z</time></trkpt><trkpt lat="43.18696564599574" lon="13.006705651999516"><ele>543.6666666666666</ele><time>2026-04-11T07:31:35.999Z</time></trkpt><trkpt lat="43.187019766183084" lon="13.006799987201449"><ele>543.3333333333334</ele><time>2026-04-11T07:31:36.999Z</time></trkpt><trkpt lat="43.187076586697486" lon="13.006904394971894"><ele>543.0</ele><time>2026-04-11T07:31:37.999Z</time></trkpt><trkpt lat="43.18714275518971" lon="13.006989765530987"><ele>543.0</ele><time>2026-04-11T07:31:38.999Z</time></trkpt><trkpt lat="43.18722314003563" lon="13.007056682984672"><ele>543.0</ele><time>2026-04-11T07:31:39.999Z</time></trkpt><trkpt lat="43.18730432913895" lon="13.007101880825278"><ele>543.0</ele><time>2026-04-11T07:31:40.999Z</time></trkpt><trkpt lat="43.187388004926134" lon="13.007088432524013"><ele>543.0</ele><time>2026-04-11T07:31:41.999Z</time></trkpt><trkpt lat="43.1875033237686" lon="13.007065277585905"><ele>543.0</ele><time>2026-04-11T07:31:42.999Z</time></trkpt><trkpt lat="43.187603433461106" lon="13.00707044922609"><ele>546.1666666666666</ele><time>2026-04-11T07:31:43.999Z</time></trkpt><trkpt lat="43.187698333405415" lon="13.007081868188555"><ele>549.3333333333334</ele><time>2026-04-11T07:31:44.999Z</time></trkpt><trkpt lat="43.187776620733324" lon="13.007071344044682"><ele>552.5</ele><time>2026-04-11T07:31:45.999Z</time></trkpt><trkpt lat="43.187837530186" lon="13.00704698051281"><ele>555.6666666666667</ele><time>2026-04-11T07:31:46.999Z</time></trkpt><trkpt lat="43.18791723874724" lon="13.00698328503262"><ele>558.8333333333334</ele><time>2026-04-11T07:31:47.999Z</time></trkpt><trkpt lat="43.187985686145865" lon="13.00693372977564"><ele>562.0</ele><time>2026-04-11T07:31:48.999Z</time></trkpt><trkpt lat="43.18806738442274" lon="13.006907309995665"><ele>562.0</ele><time>2026-04-11T07:31:49.999Z</time></trkpt><trkpt lat="43.188156648512084" lon="13.006917418070632"><ele>562.0</ele><time>2026-04-11T07:31:50.999Z</time></trkpt><trkpt lat="43.18824329408558" lon="13.006926339857628"><ele>562.0</ele><time>2026-04-11T07:31:51.999Z</time></trkpt><trkpt lat="43.18830730928698" lon="13.006952204147359"><ele>562.0</ele><time>2026-04-11T07:31:52.999Z</time></trkpt><trkpt lat="43.18838205730936" lon="13.00694513366591"><ele>562.0</ele><time>2026-04-11T07:31:54.999Z</time></trkpt><trkpt lat="43.18843001915616" lon="13.006877965265643"><ele>562.0</ele><time>2026-04-11T07:31:55.999Z</time></trkpt><trkpt lat="43.18850073590262" lon="13.006811946204547"><ele>564.3333333333334</ele><time>2026-04-11T07:31:56.999Z</time></trkpt><trkpt lat="43.18856990239692" lon="13.006753406436431"><ele>566.6666666666667</ele><time>2026-04-11T07:31:57.999Z</time></trkpt><trkpt lat="43.188629418522716" lon="13.006638932034543"><ele>569.0</ele><time>2026-04-11T07:31:59.999Z</time></trkpt><trkpt lat="43.188636943857205" lon="13.00651064530068"><ele>571.3333333333334</ele><time>2026-04-11T07:32:01.999Z</time></trkpt><trkpt lat="43.188671741923336" lon="13.006425435191687"><ele>573.6666666666666</ele><time>2026-04-11T07:32:02.998Z</time></trkpt><trkpt lat="43.188736557101834" lon="13.006347298434"><ele>576.0</ele><time>2026-04-11T07:32:05.998Z</time></trkpt><trkpt lat="43.188807094721064" lon="13.006224872859452"><ele>580.4</ele><time>2026-04-11T07:32:07.998Z</time></trkpt><trkpt lat="43.18892555437613" lon="13.006244845351036"><ele>584.8</ele><time>2026-04-11T07:32:09.998Z</time></trkpt><trkpt lat="43.18903162387253" lon="13.006228256574476"><ele>589.1999999999999</ele><time>2026-04-11T07:32:12Z</time></trkpt><trkpt lat="43.1890826972014" lon="13.006168958121886"><ele>593.6</ele><time>2026-04-11T07:32:13Z</time></trkpt><trkpt lat="43.189075371451146" lon="13.006065802963944"><ele>598.0</ele><time>2026-04-11T07:32:16Z</time></trkpt><trkpt lat="43.18899927551847" lon="13.0060214913126"><ele>598.0</ele><time>2026-04-11T07:32:18Z</time></trkpt><trkpt lat="43.18891043881245" lon="13.005982751631686"><ele>598.0</ele><time>2026-04-11T07:32:20Z</time></trkpt><trkpt lat="43.188812624200104" lon="13.005936252158104"><ele>598.0</ele><time>2026-04-11T07:32:22Z</time></trkpt><trkpt lat="43.188741763484906" lon="13.005889037495818"><ele>598.0</ele><time>2026-04-11T07:32:24Z</time></trkpt><trkpt lat="43.18864472509412" lon="13.005844914395698"><ele>598.0</ele><time>2026-04-11T07:32:27Z</time></trkpt><trkpt lat="43.18858744796404" lon="13.005809034544983"><ele>598.0</ele><time>2026-04-11T07:32:29Z</time></trkpt><trkpt lat="43.18849819098565" lon="13.005770094503037"><ele>599.6</ele><time>2026-04-11T07:32:31Z</time></trkpt><trkpt lat="43.188399853618144" lon="13.005693803581465"><ele>601.1999999999999</ele><time>2026-04-11T07:32:33Z</time></trkpt><trkpt lat="43.18829109735505" lon="13.005586563444426"><ele>602.8</ele><time>2026-04-11T07:32:35Z</time></trkpt><trkpt lat="43.18822545050272" lon="13.005504887219944"><ele>604.4</ele><time>2026-04-11T07:32:36Z</time></trkpt><trkpt lat="43.18815712269814" lon="13.00541505485176"><ele>606.0</ele><time>2026-04-11T07:32:37Z</time></trkpt><trkpt lat="43.18808718714494" lon="13.005323592736538"><ele>606.0</ele><time>2026-04-11T07:32:38Z</time></trkpt><trkpt lat="43.18801611346402" lon="13.005215096241718"><ele>606.0</ele><time>2026-04-11T07:32:39Z</time></trkpt><trkpt lat="43.18794229850917" lon="13.00510161588237"><ele>606.0</ele><time>2026-04-11T07:32:40Z</time></trkpt><trkpt lat="43.18786476148761" lon="13.004978628859218"><ele>606.0</ele><time>2026-04-11T07:32:41Z</time></trkpt><trkpt lat="43.18778430535737" lon="13.004858546915555"><ele>609.0</ele><time>2026-04-11T07:32:42Z</time></trkpt><trkpt lat="43.18770741537572" lon="13.004758769336874"><ele>612.0</ele><time>2026-04-11T07:32:43Z</time></trkpt><trkpt lat="43.18763947375353" lon="13.004682186671587"><ele>615.0</ele><time>2026-04-11T07:32:43.999Z</time></trkpt><trkpt lat="43.18761158458589" lon="13.004579205144912"><ele>618.0</ele><time>2026-04-11T07:32:45.999Z</time></trkpt><trkpt lat="43.18770258821491" lon="13.00451868084776"><ele>621.0</ele><time>2026-04-11T07:32:47.999Z</time></trkpt><trkpt lat="43.18778239348506" lon="13.004509306544142"><ele>621.0</ele><time>2026-04-11T07:32:48.999Z</time></trkpt><trkpt lat="43.18787528577606" lon="13.00450814670288"><ele>621.0</ele><time>2026-04-11T07:32:49.999Z</time></trkpt><trkpt lat="43.18797744691063" lon="13.004498310058576"><ele>621.0</ele><time>2026-04-11T07:32:50.999Z</time></trkpt><trkpt lat="43.18808912227629" lon="13.004486527017797"><ele>621.0</ele><time>2026-04-11T07:32:51.999Z</time></trkpt><trkpt lat="43.188199568775914" lon="13.004477319851375"><ele>621.0</ele><time>2026-04-11T07:32:52.999Z</time></trkpt><trkpt lat="43.18830752818981" lon="13.00446460242786"><ele>623.5</ele><time>2026-04-11T07:32:53.999Z</time></trkpt><trkpt lat="43.18841506586354" lon="13.00444681285964"><ele>626.0</ele><time>2026-04-11T07:32:54.999Z</time></trkpt><trkpt lat="43.18852637242904" lon="13.004433274683016"><ele>628.5</ele><time>2026-04-11T07:32:55.999Z</time></trkpt><trkpt lat="43.188644345924196" lon="13.004414925011035"><ele>631.0</ele><time>2026-04-11T07:32:56.999Z</time></trkpt><trkpt lat="43.18875859120271" lon="13.004398329014169"><ele>631.0</ele><time>2026-04-11T07:32:57.999Z</time></trkpt><trkpt lat="43.18887709622383" lon="13.004392305943249"><ele>631.0</ele><time>2026-04-11T07:32:58.999Z</time></trkpt><trkpt lat="43.18900044508252" lon="13.004405717369291"><ele>631.0</ele><time>2026-04-11T07:32:59.999Z</time></trkpt><trkpt lat="43.18910579205291" lon="13.00443815575799"><ele>631.0</ele><time>2026-04-11T07:33:00.999Z</time></trkpt><trkpt lat="43.18921479354383" lon="13.0044753559233"><ele>632.0</ele><time>2026-04-11T07:33:01.999Z</time></trkpt><trkpt lat="43.18932647810936" lon="13.00452755182838"><ele>633.0</ele><time>2026-04-11T07:33:02.999Z</time></trkpt><trkpt lat="43.18942142368777" lon="13.004586111427978"><ele>634.0</ele><time>2026-04-11T07:33:03.999Z</time></trkpt><trkpt lat="43.18949867667987" lon="13.004627954632497"><ele>635.0</ele><time>2026-04-11T07:33:04.999Z</time></trkpt><trkpt lat="43.18956293764534" lon="13.00465215159829"><ele>636.0</ele><time>2026-04-11T07:33:05.999Z</time></trkpt><trkpt lat="43.189605469912856" lon="13.004567308006708"><ele>637.0</ele><time>2026-04-11T07:33:07.999Z</time></trkpt><trkpt lat="43.189583959211404" lon="13.004398565067032"><ele>637.0</ele><time>2026-04-11T07:33:09.999Z</time></trkpt><trkpt lat="43.18956802453045" lon="13.004300193010373"><ele>637.0</ele><time>2026-04-11T07:33:10.999Z</time></trkpt><trkpt lat="43.18954782131997" lon="13.004186972872027"><ele>637.0</ele><time>2026-04-11T07:33:11.999Z</time></trkpt><trkpt lat="43.18951127811891" lon="13.004063174382296"><ele>637.0</ele><time>2026-04-11T07:33:12.999Z</time></trkpt><trkpt lat="43.189457708083566" lon="13.003930127104253"><ele>637.0</ele><time>2026-04-11T07:33:13.999Z</time></trkpt><trkpt lat="43.18941008365073" lon="13.00382609447964"><ele>640.6666666666667</ele><time>2026-04-11T07:33:14.999Z</time></trkpt><trkpt lat="43.18936281387904" lon="13.00375812119599"><ele>644.3333333333334</ele><time>2026-04-11T07:33:15.999Z</time></trkpt><trkpt lat="43.189326643394914" lon="13.003685669297404"><ele>648.0</ele><time>2026-04-11T07:33:16.999Z</time></trkpt><trkpt lat="43.18934348274912" lon="13.003513038043344"><ele>651.6666666666666</ele><time>2026-04-11T07:33:18.999Z</time></trkpt><trkpt lat="43.189352479136964" lon="13.003425179841043"><ele>655.3333333333333</ele><time>2026-04-11T07:33:19.999Z</time></trkpt><trkpt lat="43.18924384192719" lon="13.003392981544987"><ele>659.0</ele><time>2026-04-11T07:33:21.999Z</time></trkpt><trkpt lat="43.18914953678123" lon="13.003346384048797"><ele>662.8333333333333</ele><time>2026-04-11T07:33:22.999Z</time></trkpt><trkpt lat="43.18906181050828" lon="13.003283603982723"><ele>666.6666666666666</ele><time>2026-04-11T07:33:23.999Z</time></trkpt><trkpt lat="43.18897117310683" lon="13.003235416232112"><ele>670.5</ele><time>2026-04-11T07:33:24.999Z</time></trkpt><trkpt lat="43.18889466046784" lon="13.00320840689713"><ele>674.3333333333334</ele><time>2026-04-11T07:33:25.999Z</time></trkpt><trkpt lat="43.18882330380248" lon="13.00316321937768"><ele>678.1666666666667</ele><time>2026-04-11T07:33:26.999Z</time></trkpt><trkpt lat="43.18875431695362" lon="13.003108178060993"><ele>682.0</ele><time>2026-04-11T07:33:27.999Z</time></trkpt><trkpt lat="43.18869743483874" lon="13.003044061844472"><ele>682.0</ele><time>2026-04-11T07:33:28.999Z</time></trkpt><trkpt lat="43.18863968945063" lon="13.002958117011731"><ele>682.0</ele><time>2026-04-11T07:33:29.999Z</time></trkpt><trkpt lat="43.18857579998878" lon="13.002885366291888"><ele>682.0</ele><time>2026-04-11T07:33:30.999Z</time></trkpt><trkpt lat="43.18848735570943" lon="13.002815085567255"><ele>682.0</ele><time>2026-04-11T07:33:31.999Z</time></trkpt><trkpt lat="43.18844708095901" lon="13.00272770135024"><ele>682.0</ele><time>2026-04-11T07:33:32.999Z</time></trkpt><trkpt lat="43.1883829403226" lon="13.002617275902525"><ele>682.0</ele><time>2026-04-11T07:33:33.999Z</time></trkpt><trkpt lat="43.18831721828287" lon="13.002529440026398"><ele>680.5</ele><time>2026-04-11T07:33:34.999Z</time></trkpt><trkpt lat="43.18824231895951" lon="13.002467612934645"><ele>679.0</ele><time>2026-04-11T07:33:35.999Z</time></trkpt><trkpt lat="43.18821380240127" lon="13.00237820597068"><ele>677.5</ele><time>2026-04-11T07:33:36.999Z</time></trkpt><trkpt lat="43.188198431165354" lon="13.002257837140945"><ele>676.0</ele><time>2026-04-11T07:33:37.999Z</time></trkpt><trkpt lat="43.188172108621366" lon="13.002113307099991"><ele>674.5</ele><time>2026-04-11T07:33:38.999Z</time></trkpt><trkpt lat="43.18813650442817" lon="13.002004606814543"><ele>673.0</ele><time>2026-04-11T07:33:39.999Z</time></trkpt><trkpt lat="43.188130060571645" lon="13.00189522963372"><ele>673.0</ele><time>2026-04-11T07:33:40.999Z</time></trkpt><trkpt lat="43.18814737225684" lon="13.001787391082198"><ele>673.0</ele><time>2026-04-11T07:33:41.999Z</time></trkpt><trkpt lat="43.18816554101874" lon="13.001697337225323"><ele>673.0</ele><time>2026-04-11T07:33:42.999Z</time></trkpt><trkpt lat="43.18821346534915" lon="13.00158527205017"><ele>673.0</ele><time>2026-04-11T07:33:44.999Z</time></trkpt><trkpt lat="43.1882759371505" lon="13.001509936710828"><ele>673.0</ele><time>2026-04-11T07:33:47.999Z</time></trkpt><trkpt lat="43.18833903010201" lon="13.001423080287429"><ele>673.0</ele><time>2026-04-11T07:33:53.999Z</time></trkpt><trkpt lat="43.18843159256945" lon="13.001352253241135"><ele>679.3333333333334</ele><time>2026-04-11T07:33:55.999Z</time></trkpt><trkpt lat="43.188528159359095" lon="13.00130846286219"><ele>685.6666666666667</ele><time>2026-04-11T07:33:57.999Z</time></trkpt><trkpt lat="43.18858382684804" lon="13.001262124045256"><ele>692.0</ele><time>2026-04-11T07:33:59.999Z</time></trkpt><trkpt lat="43.18864141117946" lon="13.001202594634982"><ele>698.3333333333334</ele><time>2026-04-11T07:34:01.999Z</time></trkpt><trkpt lat="43.18870156324669" lon="13.001174131804051"><ele>704.6666666666666</ele><time>2026-04-11T07:34:02.999Z</time></trkpt><trkpt lat="43.18876787629168" lon="13.001153650059337"><ele>711.0</ele><time>2026-04-11T07:34:03.999Z</time></trkpt><trkpt lat="43.188842229495556" lon="13.001090447614565"><ele>711.0</ele><time>2026-04-11T07:34:06.999Z</time></trkpt><trkpt lat="43.18892472856945" lon="13.001018025683846"><ele>711.0</ele><time>2026-04-11T07:34:08.999Z</time></trkpt><trkpt lat="43.18898024543434" lon="13.000902788385037"><ele>711.0</ele><time>2026-04-11T07:34:10.998Z</time></trkpt><trkpt lat="43.18902419990613" lon="13.000787534347971"><ele>711.0</ele><time>2026-04-11T07:34:12.998Z</time></trkpt><trkpt lat="43.18909961095116" lon="13.000697797982951"><ele>711.0</ele><time>2026-04-11T07:34:14.998Z</time></trkpt><trkpt lat="43.18918094784362" lon="13.000613408075601"><ele>716.5</ele><time>2026-04-11T07:34:16.998Z</time></trkpt><trkpt lat="43.18925753771666" lon="13.000484287580482"><ele>722.0</ele><time>2026-04-11T07:34:19Z</time></trkpt><trkpt lat="43.18929640128118" lon="13.000401802795519"><ele>727.5</ele><time>2026-04-11T07:34:20Z</time></trkpt><trkpt lat="43.18934532115346" lon="13.000327377217797"><ele>733.0</ele><time>2026-04-11T07:34:21Z</time></trkpt><trkpt lat="43.18939861234953" lon="13.000264115368102"><ele>738.5</ele><time>2026-04-11T07:34:22Z</time></trkpt><trkpt lat="43.18944916717743" lon="13.000179657646196"><ele>744.0</ele><time>2026-04-11T07:34:23Z</time></trkpt><trkpt lat="43.18948991338082" lon="13.00008847611639"><ele>744.0</ele><time>2026-04-11T07:34:24Z</time></trkpt><trkpt lat="43.18953155718715" lon="12.999997187104537"><ele>744.0</ele><time>2026-04-11T07:34:25Z</time></trkpt><trkpt lat="43.18957880652304" lon="12.999906554598914"><ele>744.0</ele><time>2026-04-11T07:34:26Z</time></trkpt><trkpt lat="43.18964173183523" lon="12.99982652972917"><ele>744.0</ele><time>2026-04-11T07:34:27Z</time></trkpt><trkpt lat="43.18971044530786" lon="12.999743870464929"><ele>744.0</ele><time>2026-04-11T07:34:28Z</time></trkpt><trkpt lat="43.18977082546274" lon="12.999673168593574"><ele>744.0</ele><time>2026-04-11T07:34:29Z</time></trkpt><trkpt lat="43.18984847988168" lon="12.99961521141787"><ele>743.8333333333334</ele><time>2026-04-11T07:34:30Z</time></trkpt><trkpt lat="43.18992674827686" lon="12.999574853708468"><ele>743.6666666666666</ele><time>2026-04-11T07:34:31Z</time></trkpt><trkpt lat="43.19000540644905" lon="12.999549375590728"><ele>743.5</ele><time>2026-04-11T07:34:32Z</time></trkpt><trkpt lat="43.1900934363786" lon="12.999504382921023"><ele>743.3333333333333</ele><time>2026-04-11T07:34:33Z</time></trkpt><trkpt lat="43.19016627643032" lon="12.999455019897846"><ele>743.1666666666666</ele><time>2026-04-11T07:34:34Z</time></trkpt><trkpt lat="43.19020974644071" lon="12.999364158535617"><ele>743.0</ele><time>2026-04-11T07:34:36Z</time></trkpt><trkpt lat="43.190296342164025" lon="12.99928117149253"><ele>743.0</ele><time>2026-04-11T07:34:39Z</time></trkpt><trkpt lat="43.190411580539255" lon="12.999175322893798"><ele>743.0</ele><time>2026-04-11T07:34:41Z</time></trkpt><trkpt lat="43.19047961517923" lon="12.999120309049754"><ele>743.0</ele><time>2026-04-11T07:34:42Z</time></trkpt><trkpt lat="43.19058270786307" lon="12.999047877442027"><ele>743.0</ele><time>2026-04-11T07:34:44Z</time></trkpt><trkpt lat="43.19069619739693" lon="12.998983434411914"><ele>747.1666666666666</ele><time>2026-04-11T07:34:46Z</time></trkpt><trkpt lat="43.190765413443515" lon="12.998957053658538"><ele>751.3333333333333</ele><time>2026-04-11T07:34:49Z</time></trkpt><trkpt lat="43.19084945933518" lon="12.998966580009094"><ele>755.5</ele><time>2026-04-11T07:34:54Z</time></trkpt><trkpt lat="43.19092731289196" lon="12.99898867059528"><ele>759.6666666666666</ele><time>2026-04-11T07:34:55.999Z</time></trkpt><trkpt lat="43.190987705548714" lon="12.998904012289223"><ele>763.8333333333334</ele><time>2026-04-11T07:34:57.999Z</time></trkpt><trkpt lat="43.191046440652684" lon="12.998820806290723"><ele>768.0</ele><time>2026-04-11T07:34:59.999Z</time></trkpt><trkpt lat="43.1911288829574" lon="12.99876676816223"><ele>768.0</ele><time>2026-04-11T07:35:01.999Z</time></trkpt><trkpt lat="43.19120332595769" lon="12.998765332959149"><ele>768.0</ele><time>2026-04-11T07:35:03.999Z</time></trkpt><trkpt lat="43.19127367408371" lon="12.998684552105539"><ele>768.0</ele><time>2026-04-11T07:35:05.999Z</time></trkpt><trkpt lat="43.191375542738484" lon="12.998670020149572"><ele>768.0</ele><time>2026-04-11T07:35:07.999Z</time></trkpt><trkpt lat="43.19147217633852" lon="12.998621597047324"><ele>768.0</ele><time>2026-04-11T07:35:09.999Z</time></trkpt><trkpt lat="43.19151795669727" lon="12.998558747770812"><ele>768.0</ele><time>2026-04-11T07:35:10.999Z</time></trkpt><trkpt lat="43.191578335657574" lon="12.998515442041702"><ele>767.5999999999999</ele><time>2026-04-11T07:35:11.999Z</time></trkpt><trkpt lat="43.191696771188575" lon="12.998461590203199"><ele>767.1999999999999</ele><time>2026-04-11T07:35:13.999Z</time></trkpt><trkpt lat="43.191752674664734" lon="12.998393895855237"><ele>766.8</ele><time>2026-04-11T07:35:19.999Z</time></trkpt><trkpt lat="43.191795085347586" lon="12.998324613854532"><ele>766.4</ele><time>2026-04-11T07:35:26.999Z</time></trkpt><trkpt lat="43.19186543765006" lon="12.998235757535175"><ele>766.0</ele><time>2026-04-11T07:35:30.999Z</time></trkpt><trkpt lat="43.19195569590399" lon="12.998211242770733"><ele>768.7142857142857</ele><time>2026-04-11T07:35:32.999Z</time></trkpt><trkpt lat="43.19202082455508" lon="12.99819760203642"><ele>771.4285714285713</ele><time>2026-04-11T07:35:33.999Z</time></trkpt><trkpt lat="43.19208748958874" lon="12.998153819310511"><ele>774.1428571428571</ele><time>2026-04-11T07:35:34.999Z</time></trkpt><trkpt lat="43.19214567730613" lon="12.998113873994098"><ele>776.8571428571429</ele><time>2026-04-11T07:35:35.999Z</time></trkpt><trkpt lat="43.1922151571004" lon="12.998066586899665"><ele>779.5714285714286</ele><time>2026-04-11T07:35:36.999Z</time></trkpt><trkpt lat="43.192293604930875" lon="12.99799448752372"><ele>782.2857142857143</ele><time>2026-04-11T07:35:37.999Z</time></trkpt><trkpt lat="43.19235144678797" lon="12.99794350197953"><ele>785.0</ele><time>2026-04-11T07:35:38.999Z</time></trkpt><trkpt lat="43.19243252149079" lon="12.99782606180899"><ele>785.0</ele><time>2026-04-11T07:35:40.999Z</time></trkpt><trkpt lat="43.19245667540197" lon="12.997718184555062"><ele>785.0</ele><time>2026-04-11T07:35:41.999Z</time></trkpt><trkpt lat="43.19247119237132" lon="12.99760469136849"><ele>785.0</ele><time>2026-04-11T07:35:42.999Z</time></trkpt><trkpt lat="43.192490756208365" lon="12.997505324136178"><ele>785.0</ele><time>2026-04-11T07:35:43.999Z</time></trkpt><trkpt lat="43.19256684627604" lon="12.997433739911589"><ele>785.0</ele><time>2026-04-11T07:35:45.999Z</time></trkpt><trkpt lat="43.19265282716416" lon="12.997317688480466"><ele>789.5000000000001</ele><time>2026-04-11T07:35:47.999Z</time></trkpt><trkpt lat="43.19269984330069" lon="12.99724976167781"><ele>794.0</ele><time>2026-04-11T07:35:48.999Z</time></trkpt><trkpt lat="43.19278274333464" lon="12.997163879622283"><ele>798.5</ele><time>2026-04-11T07:35:50.999Z</time></trkpt><trkpt lat="43.19284321682471" lon="12.99712230983858"><ele>803.0</ele><time>2026-04-11T07:35:51.999Z</time></trkpt><trkpt lat="43.19293487468623" lon="12.99705876104388"><ele>807.5000000000001</ele><time>2026-04-11T07:35:53.999Z</time></trkpt><trkpt lat="43.19298426931691" lon="12.997002488292464"><ele>812.0</ele><time>2026-04-11T07:35:54.999Z</time></trkpt><trkpt lat="43.19305078970798" lon="12.996902603098704"><ele>812.0</ele><time>2026-04-11T07:35:56.999Z</time></trkpt><trkpt lat="43.19315663693073" lon="12.99682264139213"><ele>812.0</ele><time>2026-04-11T07:35:58.999Z</time></trkpt><trkpt lat="43.19326771513775" lon="12.996779182320738"><ele>812.0</ele><time>2026-04-11T07:36:00.999Z</time></trkpt><trkpt lat="43.19334179449525" lon="12.996746579571129"><ele>812.0</ele><time>2026-04-11T07:36:01.999Z</time></trkpt><trkpt lat="43.1934125517974" lon="12.99670069789151"><ele>812.0</ele><time>2026-04-11T07:36:02.999Z</time></trkpt><trkpt lat="43.19348560299133" lon="12.996648859523255"><ele>812.2</ele><time>2026-04-11T07:36:03.999Z</time></trkpt><trkpt lat="43.193553218444265" lon="12.996604946791887"><ele>812.4000000000001</ele><time>2026-04-11T07:36:04.999Z</time></trkpt><trkpt lat="43.19365153219919" lon="12.99651668268777"><ele>812.5999999999999</ele><time>2026-04-11T07:36:06.999Z</time></trkpt><trkpt lat="43.193684512979566" lon="12.996427561726954"><ele>812.8</ele><time>2026-04-11T07:36:07.999Z</time></trkpt><trkpt lat="43.19371757928624" lon="12.996280078561519"><ele>813.0</ele><time>2026-04-11T07:36:09.999Z</time></trkpt><trkpt lat="43.19377039348397" lon="12.996181476295217"><ele>813.0</ele><time>2026-04-11T07:36:11.999Z</time></trkpt><trkpt lat="43.19385287209681" lon="12.996091572923369"><ele>813.0</ele><time>2026-04-11T07:36:13.999Z</time></trkpt><trkpt lat="43.19390444295345" lon="12.996024561617265"><ele>813.0</ele><time>2026-04-11T07:36:14.999Z</time></trkpt><trkpt lat="43.193952154091285" lon="12.995947381506177"><ele>813.0</ele><time>2026-04-11T07:36:15.999Z</time></trkpt><trkpt lat="43.19400952830422" lon="12.995886650656484"><ele>813.0</ele><time>2026-04-11T07:36:16.999Z</time></trkpt><trkpt lat="43.194065981122776" lon="12.99581783352587"><ele>813.0</ele><time>2026-04-11T07:36:17.999Z</time></trkpt><trkpt lat="43.194186972649796" lon="12.995708984687917"><ele>813.6666666666666</ele><time>2026-04-11T07:36:19.999Z</time></trkpt><trkpt lat="43.19424510968509" lon="12.995648464990648"><ele>814.3333333333333</ele><time>2026-04-11T07:36:20.999Z</time></trkpt><trkpt lat="43.194295880623166" lon="12.995572105376263"><ele>815.0</ele><time>2026-04-11T07:36:21.998Z</time></trkpt><trkpt lat="43.19434112936026" lon="12.995507882351585"><ele>815.6666666666666</ele><time>2026-04-11T07:36:22.998Z</time></trkpt><trkpt lat="43.19439547090241" lon="12.995443042219339"><ele>816.3333333333333</ele><time>2026-04-11T07:36:27Z</time></trkpt><trkpt lat="43.19449672784097" lon="12.99540183559008"><ele>817.0</ele><time>2026-04-11T07:37:21.999Z</time></trkpt><trkpt lat="43.19456995654773" lon="12.99537480408534"><ele>817.0</ele><time>2026-04-11T07:37:26.999Z</time></trkpt><trkpt lat="43.19462974711904" lon="12.99530528579684"><ele>817.0</ele><time>2026-04-11T07:37:29.999Z</time></trkpt><trkpt lat="43.19469151960354" lon="12.995237695860968"><ele>817.0</ele><time>2026-04-11T07:37:31.999Z</time></trkpt><trkpt lat="43.1948132193482" lon="12.995248954893096"><ele>817.0</ele><time>2026-04-11T07:37:33.999Z</time></trkpt><trkpt lat="43.194885097235726" lon="12.995237337212432"><ele>817.0</ele><time>2026-04-11T07:37:34.999Z</time></trkpt><trkpt lat="43.19494387698858" lon="12.995096780842612"><ele>814.6</ele><time>2026-04-11T07:37:36.999Z</time></trkpt><trkpt lat="43.19504987399036" lon="12.994967043328119"><ele>812.2</ele><time>2026-04-11T07:37:38.999Z</time></trkpt><trkpt lat="43.19514554263647" lon="12.994835591639518"><ele>809.8</ele><time>2026-04-11T07:37:40.999Z</time></trkpt><trkpt lat="43.19520058130499" lon="12.994767013829483"><ele>807.4</ele><time>2026-04-11T07:37:41.999Z</time></trkpt><trkpt lat="43.19524610599109" lon="12.99468083346712"><ele>805.0</ele><time>2026-04-11T07:37:42.999Z</time></trkpt><trkpt lat="43.19530100202085" lon="12.994621083534614"><ele>804.9999999999999</ele><time>2026-04-11T07:37:43.999Z</time></trkpt><trkpt lat="43.19536100537148" lon="12.994571984555972"><ele>805.0</ele><time>2026-04-11T07:37:44.999Z</time></trkpt><trkpt lat="43.19547115948069" lon="12.994528676242396"><ele>805.0</ele><time>2026-04-11T07:37:46.999Z</time></trkpt><trkpt lat="43.19556830892909" lon="12.994575692726688"><ele>805.0</ele><time>2026-04-11T07:37:48.999Z</time></trkpt><trkpt lat="43.19563549032848" lon="12.994611067729812"><ele>804.9999999999999</ele><time>2026-04-11T07:37:49.999Z</time></trkpt><trkpt lat="43.1957052078885" lon="12.994602805434704"><ele>805.0</ele><time>2026-04-11T07:37:50.999Z</time></trkpt><trkpt lat="43.19574995421462" lon="12.9945289472624"><ele>799.6</ele><time>2026-04-11T07:37:51.999Z</time></trkpt><trkpt lat="43.1958171253382" lon="12.994401594996061"><ele>794.2</ele><time>2026-04-11T07:37:53.999Z</time></trkpt><trkpt lat="43.19587636274066" lon="12.99434334434027"><ele>788.8</ele><time>2026-04-11T07:37:55.999Z</time></trkpt><trkpt lat="43.19595051181455" lon="12.994239236914922"><ele>783.4</ele><time>2026-04-11T07:37:57.999Z</time></trkpt><trkpt lat="43.19604754665241" lon="12.994112802985063"><ele>778.0</ele><time>2026-04-11T07:37:59.999Z</time></trkpt><trkpt lat="43.19615323074014" lon="12.994040084857648"><ele>778.0</ele><time>2026-04-11T07:38:01.999Z</time></trkpt><trkpt lat="43.19622433047764" lon="12.99400493600843"><ele>778.0</ele><time>2026-04-11T07:38:02.999Z</time></trkpt><trkpt lat="43.19630822976474" lon="12.993953069310866"><ele>778.0</ele><time>2026-04-11T07:38:03.999Z</time></trkpt><trkpt lat="43.196365585400414" lon="12.993895472669816"><ele>778.0</ele><time>2026-04-11T07:38:04.999Z</time></trkpt><trkpt lat="43.19646020261585" lon="12.993810813289768"><ele>778.0</ele><time>2026-04-11T07:38:06.999Z</time></trkpt><trkpt lat="43.196551177262364" lon="12.993757648836036"><ele>771.1666666666666</ele><time>2026-04-11T07:38:08.999Z</time></trkpt><trkpt lat="43.19661377831983" lon="12.993621864582169"><ele>764.3333333333333</ele><time>2026-04-11T07:38:10.999Z</time></trkpt><trkpt lat="43.19667632619334" lon="12.993561600182245"><ele>757.5</ele><time>2026-04-11T07:38:11.999Z</time></trkpt><trkpt lat="43.196774116827854" lon="12.993525953177"><ele>750.6666666666666</ele><time>2026-04-11T07:38:12.999Z</time></trkpt><trkpt lat="43.19683830955862" lon="12.993504152954984"><ele>743.8333333333333</ele><time>2026-04-11T07:38:13.999Z</time></trkpt><trkpt lat="43.19690368604323" lon="12.99349841935883"><ele>737.0</ele><time>2026-04-11T07:38:14.999Z</time></trkpt><trkpt lat="43.19696666527619" lon="12.993485521373325"><ele>737.0</ele><time>2026-04-11T07:38:15.999Z</time></trkpt><trkpt lat="43.1970282186072" lon="12.993518639639653"><ele>737.0</ele><time>2026-04-11T07:38:16.999Z</time></trkpt><trkpt lat="43.19710211026496" lon="12.993528828286122"><ele>737.0</ele><time>2026-04-11T07:38:17.999Z</time></trkpt><trkpt lat="43.19722543653358" lon="12.993517678566082"><ele>737.0</ele><time>2026-04-11T07:38:19.999Z</time></trkpt><trkpt lat="43.197350152704814" lon="12.993469984670913"><ele>737.0</ele><time>2026-04-11T07:38:21.999Z</time></trkpt><trkpt lat="43.1974274543266" lon="12.99345677997856"><ele>735.3333333333333</ele><time>2026-04-11T07:38:22.999Z</time></trkpt><trkpt lat="43.19749344473808" lon="12.993444925073188"><ele>733.6666666666666</ele><time>2026-04-11T07:38:23.999Z</time></trkpt><trkpt lat="43.197603494735105" lon="12.9934110514341"><ele>732.0</ele><time>2026-04-11T07:38:25.999Z</time></trkpt><trkpt lat="43.19771413521546" lon="12.9933831729814"><ele>730.3333333333334</ele><time>2026-04-11T07:38:27.999Z</time></trkpt><trkpt lat="43.19778873898596" lon="12.993380568072023"><ele>728.6666666666667</ele><time>2026-04-11T07:38:31Z</time></trkpt><trkpt lat="43.19786465667639" lon="12.993392307204141"><ele>727.0</ele><time>2026-04-11T07:38:33Z</time></trkpt><trkpt lat="43.19792968786138" lon="12.993331862991797"><ele>727.0</ele><time>2026-04-11T07:38:37Z</time></trkpt><trkpt lat="43.19799932738743" lon="12.993297974111055"><ele>727.0</ele><time>2026-04-11T07:38:40Z</time></trkpt><trkpt lat="43.19805462532872" lon="12.993227670781321"><ele>727.0</ele><time>2026-04-11T07:38:43Z</time></trkpt><trkpt lat="43.19810046497728" lon="12.99314799422555"><ele>727.0</ele><time>2026-04-11T07:38:46Z</time></trkpt><trkpt lat="43.19818309152838" lon="12.993107719153247"><ele>727.0</ele><time>2026-04-11T07:38:48Z</time></trkpt><trkpt lat="43.198249629459475" lon="12.993072707109398"><ele>727.0</ele><time>2026-04-11T07:38:50Z</time></trkpt><trkpt lat="43.198330284647994" lon="12.992996612471202"><ele>728.0</ele><time>2026-04-11T07:38:52Z</time></trkpt><trkpt lat="43.198448134037164" lon="12.99285647440036"><ele>729.0</ele><time>2026-04-11T07:38:53Z</time></trkpt><trkpt lat="43.198491592701586" lon="12.992789815938982"><ele>730.0</ele><time>2026-04-11T07:38:54Z</time></trkpt><trkpt lat="43.1985691810097" lon="12.992697319743156"><ele>731.0</ele><time>2026-04-11T07:38:55Z</time></trkpt><trkpt lat="43.19866074089583" lon="12.992584506535568"><ele>732.0</ele><time>2026-04-11T07:38:56Z</time></trkpt><trkpt lat="43.19875536174102" lon="12.992471958348398"><ele>732.0</ele><time>2026-04-11T07:38:57Z</time></trkpt><trkpt lat="43.198851877819536" lon="12.992338896168077"><ele>732.0</ele><time>2026-04-11T07:38:58Z</time></trkpt><trkpt lat="43.19893596347734" lon="12.992212072070851"><ele>732.0</ele><time>2026-04-11T07:38:59Z</time></trkpt><trkpt lat="43.1990091086736" lon="12.99210497234916"><ele>732.0</ele><time>2026-04-11T07:39:00Z</time></trkpt><trkpt lat="43.199089254286584" lon="12.991977382143554"><ele>730.8</ele><time>2026-04-11T07:39:01Z</time></trkpt><trkpt lat="43.1991680818859" lon="12.991860093449564"><ele>729.6</ele><time>2026-04-11T07:39:02Z</time></trkpt><trkpt lat="43.199216249494306" lon="12.991736615544973"><ele>728.4</ele><time>2026-04-11T07:39:03Z</time></trkpt><trkpt lat="43.19927278008388" lon="12.99163661777236"><ele>727.1999999999999</ele><time>2026-04-11T07:39:04Z</time></trkpt><trkpt lat="43.19932077459477" lon="12.991528980007923"><ele>726.0</ele><time>2026-04-11T07:39:05Z</time></trkpt><trkpt lat="43.19935586354542" lon="12.991408983835326"><ele>726.0</ele><time>2026-04-11T07:39:06Z</time></trkpt><trkpt lat="43.19938019866207" lon="12.991277645558725"><ele>726.0</ele><time>2026-04-11T07:39:07Z</time></trkpt><trkpt lat="43.199398282372464" lon="12.991133666836172"><ele>726.0</ele><time>2026-04-11T07:39:08Z</time></trkpt><trkpt lat="43.19940268210897" lon="12.990983770713054"><ele>726.0</ele><time>2026-04-11T07:39:09Z</time></trkpt><trkpt lat="43.19942000846001" lon="12.990842437654564"><ele>726.0</ele><time>2026-04-11T07:39:10Z</time></trkpt><trkpt lat="43.199435186356" lon="12.990728549373944"><ele>731.0</ele><time>2026-04-11T07:39:11Z</time></trkpt><trkpt lat="43.19947981993653" lon="12.990598102384993"><ele>736.0</ele><time>2026-04-11T07:39:12Z</time></trkpt><trkpt lat="43.19955647774923" lon="12.9904813119486"><ele>741.0</ele><time>2026-04-11T07:39:13Z</time></trkpt><trkpt lat="43.199624155917554" lon="12.990383456821233"><ele>746.0</ele><time>2026-04-11T07:39:14Z</time></trkpt><trkpt lat="43.19969903769439" lon="12.990330258664107"><ele>751.0</ele><time>2026-04-11T07:39:14.999Z</time></trkpt><trkpt lat="43.19977623883741" lon="12.990287889421163"><ele>749.1999999999999</ele><time>2026-04-11T07:39:15.999Z</time></trkpt><trkpt lat="43.19986268990001" lon="12.99023390412327"><ele>747.4</ele><time>2026-04-11T07:39:16.999Z</time></trkpt><trkpt lat="43.19993370856859" lon="12.990177355330461"><ele>745.6</ele><time>2026-04-11T07:39:17.999Z</time></trkpt><trkpt lat="43.20000224315739" lon="12.990091759540947"><ele>743.8</ele><time>2026-04-11T07:39:18.999Z</time></trkpt><trkpt lat="43.20006065150691" lon="12.9900023788644"><ele>742.0</ele><time>2026-04-11T07:39:19.999Z</time></trkpt><trkpt lat="43.200112231519824" lon="12.989890739676072"><ele>742.0</ele><time>2026-04-11T07:39:20.999Z</time></trkpt><trkpt lat="43.20016156168742" lon="12.989766156612395"><ele>742.0</ele><time>2026-04-11T07:39:21.999Z</time></trkpt><trkpt lat="43.200224614818644" lon="12.989632114659827"><ele>742.0</ele><time>2026-04-11T07:39:22.999Z</time></trkpt><trkpt lat="43.200280995964015" lon="12.989494723575659"><ele>742.0</ele><time>2026-04-11T07:39:23.999Z</time></trkpt><trkpt lat="43.200336526099775" lon="12.989359605072318"><ele>742.0</ele><time>2026-04-11T07:39:24.999Z</time></trkpt><trkpt lat="43.20038187317208" lon="12.989257387381157"><ele>741.5</ele><time>2026-04-11T07:39:25.999Z</time></trkpt><trkpt lat="43.20044150356805" lon="12.989161918201019"><ele>741.0</ele><time>2026-04-11T07:39:26.999Z</time></trkpt><trkpt lat="43.20051924314311" lon="12.989085876745484"><ele>740.5</ele><time>2026-04-11T07:39:27.999Z</time></trkpt><trkpt lat="43.200592950907776" lon="12.989024098714298"><ele>740.0</ele><time>2026-04-11T07:39:28.999Z</time></trkpt><trkpt lat="43.20066736817906" lon="12.988965310784874"><ele>739.5</ele><time>2026-04-11T07:39:29.999Z</time></trkpt><trkpt lat="43.20073694034381" lon="12.98890806506563"><ele>739.0</ele><time>2026-04-11T07:39:30.999Z</time></trkpt><trkpt lat="43.20081905957012" lon="12.988856051233972"><ele>739.0</ele><time>2026-04-11T07:39:31.999Z</time></trkpt><trkpt lat="43.200904819090354" lon="12.988799549788585"><ele>739.0</ele><time>2026-04-11T07:39:32.999Z</time></trkpt><trkpt lat="43.20100145045603" lon="12.988749563180653"><ele>739.0</ele><time>2026-04-11T07:39:33.999Z</time></trkpt><trkpt lat="43.201094292538684" lon="12.98869668460061"><ele>739.0</ele><time>2026-04-11T07:39:34.999Z</time></trkpt><trkpt lat="43.20121511319242" lon="12.988638818910829"><ele>739.0</ele><time>2026-04-11T07:39:35.999Z</time></trkpt><trkpt lat="43.20134975457865" lon="12.988584387633278"><ele>739.0</ele><time>2026-04-11T07:39:36.999Z</time></trkpt><trkpt lat="43.20147337858727" lon="12.988530441585434"><ele>739.0</ele><time>2026-04-11T07:39:37.999Z</time></trkpt><trkpt lat="43.20157928183508" lon="12.988469036185299"><ele>739.0</ele><time>2026-04-11T07:39:38.999Z</time></trkpt><trkpt lat="43.20166595868398" lon="12.9883905468921"><ele>739.0</ele><time>2026-04-11T07:39:39.999Z</time></trkpt><trkpt lat="43.20172895540473" lon="12.988291091572835"><ele>739.0</ele><time>2026-04-11T07:39:40.999Z</time></trkpt><trkpt lat="43.20178634471582" lon="12.988162496615894"><ele>747.6666666666667</ele><time>2026-04-11T07:39:41.999Z</time></trkpt><trkpt lat="43.20186658050026" lon="12.98799165447093"><ele>756.3333333333334</ele><time>2026-04-11T07:39:42.999Z</time></trkpt><trkpt lat="43.201954930914724" lon="12.987811407038116"><ele>765.0</ele><time>2026-04-11T07:39:43.999Z</time></trkpt><trkpt lat="43.20204935121316" lon="12.98764696478095"><ele>765.0</ele><time>2026-04-11T07:39:44.999Z</time></trkpt><trkpt lat="43.20212465062089" lon="12.98751764093294"><ele>765.0</ele><time>2026-04-11T07:39:45.999Z</time></trkpt><trkpt lat="43.20220528732371" lon="12.9873754222457"><ele>765.0</ele><time>2026-04-11T07:39:46.999Z</time></trkpt><trkpt lat="43.202275418521566" lon="12.987249002611529"><ele>765.0</ele><time>2026-04-11T07:39:47.999Z</time></trkpt><trkpt lat="43.202334448103635" lon="12.987091241689484"><ele>766.75</ele><time>2026-04-11T07:39:48.999Z</time></trkpt><trkpt lat="43.20239378344548" lon="12.98687614466459"><ele>768.5</ele><time>2026-04-11T07:39:49.999Z</time></trkpt><trkpt lat="43.20248716326723" lon="12.986728735649557"><ele>770.25</ele><time>2026-04-11T07:39:50.999Z</time></trkpt><trkpt lat="43.20256040027773" lon="12.986598448446008"><ele>772.0</ele><time>2026-04-11T07:39:51.999Z</time></trkpt><trkpt lat="43.202631770080814" lon="12.98648357433291"><ele>775.9999999999999</ele><time>2026-04-11T07:39:52.999Z</time></trkpt><trkpt lat="43.202697613914275" lon="12.98637642955868"><ele>780.0</ele><time>2026-04-11T07:39:53.999Z</time></trkpt><trkpt lat="43.20274072771356" lon="12.98626875062303"><ele>784.0</ele><time>2026-04-11T07:39:54.999Z</time></trkpt><trkpt lat="43.20275473063" lon="12.986173978488779"><ele>788.0</ele><time>2026-04-11T07:39:55.999Z</time></trkpt><trkpt lat="43.202762238371164" lon="12.986060238026923"><ele>791.9999999999999</ele><time>2026-04-11T07:39:56.999Z</time></trkpt><trkpt lat="43.20277590620618" lon="12.985941982200732"><ele>796.0</ele><time>2026-04-11T07:39:57.999Z</time></trkpt><trkpt lat="43.20279805831683" lon="12.985811583232413"><ele>801.5999999999999</ele><time>2026-04-11T07:39:58.999Z</time></trkpt><trkpt lat="43.20283627013041" lon="12.985709834971878"><ele>807.2</ele><time>2026-04-11T07:39:59.999Z</time></trkpt><trkpt lat="43.20288325575101" lon="12.985574196751449"><ele>812.8</ele><time>2026-04-11T07:40:01.999Z</time></trkpt><trkpt lat="43.20295253281818" lon="12.985498113844386"><ele>818.4000000000001</ele><time>2026-04-11T07:40:04.999Z</time></trkpt><trkpt lat="43.203035888209705" lon="12.985389830218267"><ele>824.0</ele><time>2026-04-11T07:40:06.999Z</time></trkpt><trkpt lat="43.20310131022562" lon="12.985318208858102"><ele>825.6</ele><time>2026-04-11T07:40:07.999Z</time></trkpt><trkpt lat="43.203173521363695" lon="12.985244907546127"><ele>827.2</ele><time>2026-04-11T07:40:08.999Z</time></trkpt><trkpt lat="43.203239890762156" lon="12.985144328197869"><ele>828.8000000000001</ele><time>2026-04-11T07:40:09.999Z</time></trkpt><trkpt lat="43.203351149873555" lon="12.985086241826384"><ele>830.4000000000001</ele><time>2026-04-11T07:40:11.999Z</time></trkpt><trkpt lat="43.20341253488274" lon="12.985053162646516"><ele>832.0</ele><time>2026-04-11T07:40:12.999Z</time></trkpt><trkpt lat="43.20350324605746" lon="12.984935149599332"><ele>832.0</ele><time>2026-04-11T07:40:14.999Z</time></trkpt><trkpt lat="43.2035962256289" lon="12.984876650087383"><ele>832.0</ele><time>2026-04-11T07:40:16.999Z</time></trkpt><trkpt lat="43.20369835779285" lon="12.984813283339818"><ele>832.0</ele><time>2026-04-11T07:40:18.999Z</time></trkpt><trkpt lat="43.2038234719461" lon="12.984869101752505"><ele>832.0</ele><time>2026-04-11T07:40:20.999Z</time></trkpt><trkpt lat="43.20390615797378" lon="12.984849451030357"><ele>832.0</ele><time>2026-04-11T07:40:22.999Z</time></trkpt><trkpt lat="43.203982324598115" lon="12.98483718846827"><ele>832.6</ele><time>2026-04-11T07:40:24.999Z</time></trkpt><trkpt lat="43.20406717285439" lon="12.984798696323546"><ele>833.2</ele><time>2026-04-11T07:40:26.999Z</time></trkpt><trkpt lat="43.204136702067196" lon="12.984775051217675"><ele>833.8</ele><time>2026-04-11T07:40:27.999Z</time></trkpt><trkpt lat="43.20424263889726" lon="12.984753564624487"><ele>834.4</ele><time>2026-04-11T07:40:29.999Z</time></trkpt><trkpt lat="43.20434300600672" lon="12.984719707294492"><ele>835.0</ele><time>2026-04-11T07:40:31.999Z</time></trkpt><trkpt lat="43.20444180484802" lon="12.984696348739064"><ele>835.0</ele><time>2026-04-11T07:40:33.999Z</time></trkpt><trkpt lat="43.204537261279114" lon="12.984674952229115"><ele>835.0</ele><time>2026-04-11T07:40:36Z</time></trkpt><trkpt lat="43.20463761250845" lon="12.984722646779055"><ele>835.0</ele><time>2026-04-11T07:40:38Z</time></trkpt><trkpt lat="43.20473837443647" lon="12.984787312235898"><ele>835.0</ele><time>2026-04-11T07:40:40Z</time></trkpt><trkpt lat="43.20483989859434" lon="12.98477679076268"><ele>835.0</ele><time>2026-04-11T07:40:42Z</time></trkpt><trkpt lat="43.20491901962971" lon="12.984824739069921"><ele>834.6</ele><time>2026-04-11T07:40:44Z</time></trkpt><trkpt lat="43.20503616123397" lon="12.984904438861202"><ele>834.2</ele><time>2026-04-11T07:40:46Z</time></trkpt><trkpt lat="43.205084132156294" lon="12.984961362823295"><ele>833.8</ele><time>2026-04-11T07:40:47Z</time></trkpt><trkpt lat="43.20514577964064" lon="12.985028684898703"><ele>833.4</ele><time>2026-04-11T07:40:49Z</time></trkpt><trkpt lat="43.20523864333132" lon="12.985076126227172"><ele>833.0</ele><time>2026-04-11T07:40:51Z</time></trkpt><trkpt lat="43.20531905557983" lon="12.985095769762859"><ele>833.0</ele><time>2026-04-11T07:40:53Z</time></trkpt><trkpt lat="43.20538347572734" lon="12.985023465927295"><ele>833.0</ele><time>2026-04-11T07:40:55Z</time></trkpt><trkpt lat="43.20542406542303" lon="12.98490142723125"><ele>833.0</ele><time>2026-04-11T07:40:57Z</time></trkpt><trkpt lat="43.20542002204293" lon="12.984788121665884"><ele>833.0</ele><time>2026-04-11T07:40:59Z</time></trkpt><trkpt lat="43.20539189271476" lon="12.98459622488353"><ele>833.0</ele><time>2026-04-11T07:41:01Z</time></trkpt><trkpt lat="43.20537655096281" lon="12.98450603696836"><ele>837.5999999999999</ele><time>2026-04-11T07:41:02Z</time></trkpt><trkpt lat="43.20534510426735" lon="12.98435592884382"><ele>842.1999999999999</ele><time>2026-04-11T07:41:04Z</time></trkpt><trkpt lat="43.20531911901155" lon="12.98419182678978"><ele>846.8</ele><time>2026-04-11T07:41:06Z</time></trkpt><trkpt lat="43.20530705509073" lon="12.984010266141613"><ele>851.4</ele><time>2026-04-11T07:41:08Z</time></trkpt><trkpt lat="43.20531080193395" lon="12.983909256947372"><ele>856.0</ele><time>2026-04-11T07:41:09Z</time></trkpt><trkpt lat="43.205307978267534" lon="12.983811977698512"><ele>858.8</ele><time>2026-04-11T07:41:10Z</time></trkpt><trkpt lat="43.20529197766142" lon="12.983654864196028"><ele>861.5999999999999</ele><time>2026-04-11T07:41:12Z</time></trkpt><trkpt lat="43.20527816814347" lon="12.983507067570187"><ele>864.4</ele><time>2026-04-11T07:41:14Z</time></trkpt><trkpt lat="43.20525836151187" lon="12.98331051187181"><ele>867.2</ele><time>2026-04-11T07:41:16Z</time></trkpt><trkpt lat="43.2052634909322" lon="12.98321305977463"><ele>870.0</ele><time>2026-04-11T07:41:17Z</time></trkpt><trkpt lat="43.20526856079245" lon="12.983111460427978"><ele>873.5</ele><time>2026-04-11T07:41:18Z</time></trkpt><trkpt lat="43.205240903188695" lon="12.983012786077378"><ele>877.0</ele><time>2026-04-11T07:41:20Z</time></trkpt><trkpt lat="43.20519504789509" lon="12.982925286577679"><ele>880.5</ele><time>2026-04-11T07:41:22Z</time></trkpt><trkpt lat="43.20514200425287" lon="12.982807962783012"><ele>884.0</ele><time>2026-04-11T07:41:24Z</time></trkpt><trkpt lat="43.205095006848815" lon="12.9827138921114"><ele>887.5</ele><time>2026-04-11T07:41:24.999Z</time></trkpt><trkpt lat="43.205051468051266" lon="12.982623791658627"><ele>891.0</ele><time>2026-04-11T07:41:25.999Z</time></trkpt><trkpt lat="43.20500384103504" lon="12.98253361945325"><ele>893.1666666666666</ele><time>2026-04-11T07:41:26.999Z</time></trkpt><trkpt lat="43.20496058984048" lon="12.982427734056163"><ele>895.3333333333333</ele><time>2026-04-11T07:41:27.999Z</time></trkpt><trkpt lat="43.20495505379149" lon="12.982340369566678"><ele>897.5</ele><time>2026-04-11T07:41:28.999Z</time></trkpt><trkpt lat="43.20495594383187" lon="12.982213399478367"><ele>899.6666666666666</ele><time>2026-04-11T07:41:29.999Z</time></trkpt><trkpt lat="43.20495805114359" lon="12.982083203637805"><ele>901.8333333333333</ele><time>2026-04-11T07:41:30.999Z</time></trkpt><trkpt lat="43.20496086180432" lon="12.981964886690145"><ele>904.0</ele><time>2026-04-11T07:41:31.999Z</time></trkpt><trkpt lat="43.204973791474096" lon="12.981835050682294"><ele>904.0</ele><time>2026-04-11T07:41:32.999Z</time></trkpt><trkpt lat="43.20497469624061" lon="12.981693665359261"><ele>904.0000000000001</ele><time>2026-04-11T07:41:33.999Z</time></trkpt><trkpt lat="43.20496284368889" lon="12.98154437130555"><ele>904.0000000000001</ele><time>2026-04-11T07:41:34.999Z</time></trkpt><trkpt lat="43.204957054330535" lon="12.981403478176624"><ele>904.0</ele><time>2026-04-11T07:41:35.999Z</time></trkpt><trkpt lat="43.20496027018957" lon="12.981303865146268"><ele>904.0</ele><time>2026-04-11T07:41:36.999Z</time></trkpt><trkpt lat="43.20496155395035" lon="12.981186954472387"><ele>905.2</ele><time>2026-04-11T07:41:37.999Z</time></trkpt><trkpt lat="43.20494954723379" lon="12.98102709238236"><ele>906.4000000000001</ele><time>2026-04-11T07:41:39.999Z</time></trkpt><trkpt lat="43.204846159460054" lon="12.980894151746424"><ele>907.6</ele><time>2026-04-11T07:41:41.999Z</time></trkpt><trkpt lat="43.204791631888185" lon="12.980837701382"><ele>908.8</ele><time>2026-04-11T07:41:42.999Z</time></trkpt><trkpt lat="43.204741529775376" lon="12.98076892148554"><ele>910.0</ele><time>2026-04-11T07:41:43.999Z</time></trkpt><trkpt lat="43.20471175531483" lon="12.980692363652652"><ele>915.4999999999999</ele><time>2026-04-11T07:41:44.999Z</time></trkpt><trkpt lat="43.20469993683964" lon="12.980596574635895"><ele>921.0</ele><time>2026-04-11T07:41:45.999Z</time></trkpt><trkpt lat="43.204713058642675" lon="12.980503190731415"><ele>926.5</ele><time>2026-04-11T07:41:46.999Z</time></trkpt><trkpt lat="43.20473753708424" lon="12.980395118641116"><ele>932.0</ele><time>2026-04-11T07:41:47.999Z</time></trkpt><trkpt lat="43.204757276557295" lon="12.980278477546442"><ele>937.4999999999999</ele><time>2026-04-11T07:41:48.999Z</time></trkpt><trkpt lat="43.20479064200469" lon="12.980147268989773"><ele>943.0</ele><time>2026-04-11T07:41:49.999Z</time></trkpt><trkpt lat="43.204822562032284" lon="12.980018821273276"><ele>936.8</ele><time>2026-04-11T07:41:50.999Z</time></trkpt><trkpt lat="43.2048555686734" lon="12.979885306433093"><ele>930.5999999999999</ele><time>2026-04-11T07:41:51.999Z</time></trkpt><trkpt lat="43.20487519394121" lon="12.979762026888627"><ele>924.4000000000001</ele><time>2026-04-11T07:41:52.999Z</time></trkpt><trkpt lat="43.204906710560614" lon="12.979624310296446"><ele>918.2</ele><time>2026-04-11T07:41:53.999Z</time></trkpt><trkpt lat="43.20493659833319" lon="12.979480393293366"><ele>912.0</ele><time>2026-04-11T07:41:54.999Z</time></trkpt><trkpt lat="43.20495018378327" lon="12.979368052203649"><ele>912.0</ele><time>2026-04-11T07:41:55.999Z</time></trkpt><trkpt lat="43.204972220196154" lon="12.979245457529547"><ele>912.0</ele><time>2026-04-11T07:41:56.999Z</time></trkpt><trkpt lat="43.204985684194746" lon="12.979147412924053"><ele>912.0</ele><time>2026-04-11T07:41:57.999Z</time></trkpt><trkpt lat="43.20498771956929" lon="12.979044454776751"><ele>912.0</ele><time>2026-04-11T07:41:58.999Z</time></trkpt><trkpt lat="43.20500422991179" lon="12.978919447807199"><ele>912.0</ele><time>2026-04-11T07:41:59.999Z</time></trkpt><trkpt lat="43.205042596730465" lon="12.97883567248327"><ele>912.0</ele><time>2026-04-11T07:42:00.999Z</time></trkpt><trkpt lat="43.20507800096735" lon="12.978761769723654"><ele>914.6666666666666</ele><time>2026-04-11T07:42:01.999Z</time></trkpt><trkpt lat="43.20513259043585" lon="12.978675662015473"><ele>917.3333333333333</ele><time>2026-04-11T07:42:02.999Z</time></trkpt><trkpt lat="43.20519500015715" lon="12.978589713598872"><ele>920.0</ele><time>2026-04-11T07:42:03.999Z</time></trkpt><trkpt lat="43.205235223494064" lon="12.978498150034104"><ele>922.6666666666666</ele><time>2026-04-11T07:42:04.999Z</time></trkpt><trkpt lat="43.205282475992426" lon="12.978392016930082"><ele>925.3333333333333</ele><time>2026-04-11T07:42:05.999Z</time></trkpt><trkpt lat="43.20532490455934" lon="12.97828073452699"><ele>928.0</ele><time>2026-04-11T07:42:06.999Z</time></trkpt><trkpt lat="43.20536987784664" lon="12.97817823306957"><ele>924.9999999999999</ele><time>2026-04-11T07:42:07.999Z</time></trkpt><trkpt lat="43.205419687532256" lon="12.978063009486903"><ele>922.0</ele><time>2026-04-11T07:42:08.999Z</time></trkpt><trkpt lat="43.2054674322377" lon="12.977970005544515"><ele>919.0</ele><time>2026-04-11T07:42:09.999Z</time></trkpt><trkpt lat="43.20552182225521" lon="12.97788362720776"><ele>916.0</ele><time>2026-04-11T07:42:10.999Z</time></trkpt><trkpt lat="43.20558291538036" lon="12.977801533233642"><ele>912.9999999999999</ele><time>2026-04-11T07:42:11.999Z</time></trkpt><trkpt lat="43.205639903523384" lon="12.977697346041026"><ele>910.0</ele><time>2026-04-11T07:42:12.999Z</time></trkpt><trkpt lat="43.205696881742305" lon="12.977602728127838"><ele>912.4999999999999</ele><time>2026-04-11T07:42:13.999Z</time></trkpt><trkpt lat="43.20576101086668" lon="12.977516441888712"><ele>915.0</ele><time>2026-04-11T07:42:14.999Z</time></trkpt><trkpt lat="43.20579557689216" lon="12.977436078545614"><ele>917.5</ele><time>2026-04-11T07:42:15.999Z</time></trkpt><trkpt lat="43.20582467590645" lon="12.977330725850651"><ele>920.0</ele><time>2026-04-11T07:42:16.999Z</time></trkpt><trkpt lat="43.2058349397353" lon="12.977232009412212"><ele>922.4999999999999</ele><time>2026-04-11T07:42:17.999Z</time></trkpt><trkpt lat="43.2058595727209" lon="12.97712755996106"><ele>925.0</ele><time>2026-04-11T07:42:18.999Z</time></trkpt><trkpt lat="43.20589396875172" lon="12.977049208054583"><ele>925.0</ele><time>2026-04-11T07:42:19.999Z</time></trkpt><trkpt lat="43.20590332023437" lon="12.97696292833723"><ele>925.0</ele><time>2026-04-11T07:42:21.999Z</time></trkpt><trkpt lat="43.20597882138304" lon="12.976898460712608"><ele>925.0</ele><time>2026-04-11T07:42:27.999Z</time></trkpt><trkpt lat="43.20604228900839" lon="12.976843169100766"><ele>925.0</ele><time>2026-04-11T07:42:29.999Z</time></trkpt><trkpt lat="43.206176244183546" lon="12.976772963840267"><ele>925.0</ele><time>2026-04-11T07:42:32.999Z</time></trkpt><trkpt lat="43.20625415659709" lon="12.976713415359491"><ele>924.9999999999999</ele><time>2026-04-11T07:42:34.999Z</time></trkpt><trkpt lat="43.206316014611346" lon="12.976690800536884"><ele>925.0</ele><time>2026-04-11T07:42:35.999Z</time></trkpt><trkpt lat="43.20641508455799" lon="12.976658601484488"><ele>925.0</ele><time>2026-04-11T07:42:37.999Z</time></trkpt><trkpt lat="43.20649915176214" lon="12.976557704571556"><ele>925.0</ele><time>2026-04-11T07:42:39.999Z</time></trkpt><trkpt lat="43.20655302777602" lon="12.976509314042808"><ele>924.9999999999999</ele><time>2026-04-11T07:42:41Z</time></trkpt><trkpt lat="43.20660841757379" lon="12.976452302245225"><ele>925.0</ele><time>2026-04-11T07:42:42Z</time></trkpt><trkpt lat="43.206719337506655" lon="12.976373642273288"><ele>921.3333333333333</ele><time>2026-04-11T07:42:44Z</time></trkpt><trkpt lat="43.206790502495565" lon="12.976320265301492"><ele>917.6666666666666</ele><time>2026-04-11T07:42:46Z</time></trkpt><trkpt lat="43.206824147522674" lon="12.976193541667206"><ele>914.0</ele><time>2026-04-11T07:42:48Z</time></trkpt><trkpt lat="43.206886070454" lon="12.97606510002818"><ele>910.3333333333333</ele><time>2026-04-11T07:42:50Z</time></trkpt><trkpt lat="43.2069412913477" lon="12.976002421444331"><ele>906.6666666666666</ele><time>2026-04-11T07:42:52Z</time></trkpt><trkpt lat="43.207009345460854" lon="12.975952630998847"><ele>903.0</ele><time>2026-04-11T07:42:54Z</time></trkpt><trkpt lat="43.2071048320482" lon="12.975913815366729"><ele>903.0</ele><time>2026-04-11T07:42:56Z</time></trkpt><trkpt lat="43.20719781835695" lon="12.975866100972997"><ele>903.0</ele><time>2026-04-11T07:42:58Z</time></trkpt><trkpt lat="43.207223496055384" lon="12.975780307230819"><ele>903.0</ele><time>2026-04-11T07:43:03Z</time></trkpt><trkpt lat="43.20726181095395" lon="12.975697913433162"><ele>903.0</ele><time>2026-04-11T07:43:05Z</time></trkpt><trkpt lat="43.20737954665503" lon="12.975647994795125"><ele>903.0</ele><time>2026-04-11T07:43:07Z</time></trkpt><trkpt lat="43.2074493770422" lon="12.975571539557913"><ele>895.8</ele><time>2026-04-11T07:43:08Z</time></trkpt><trkpt lat="43.20752978430898" lon="12.97545755558493"><ele>888.5999999999999</ele><time>2026-04-11T07:43:09Z</time></trkpt><trkpt lat="43.207618494407086" lon="12.975423964808034"><ele>881.4000000000001</ele><time>2026-04-11T07:43:10Z</time></trkpt><trkpt lat="43.20769873507608" lon="12.97538474413035"><ele>874.2</ele><time>2026-04-11T07:43:11Z</time></trkpt><trkpt lat="43.20774012553053" lon="12.975314179934047"><ele>867.0</ele><time>2026-04-11T07:43:12Z</time></trkpt><trkpt lat="43.20788767262854" lon="12.97524978157178"><ele>867.0</ele><time>2026-04-11T07:43:14Z</time></trkpt><trkpt lat="43.20800216278409" lon="12.97521836608151"><ele>867.0</ele><time>2026-04-11T07:43:15Z</time></trkpt><trkpt lat="43.20806284686611" lon="12.975144969328316"><ele>867.0</ele><time>2026-04-11T07:43:16Z</time></trkpt><trkpt lat="43.20809724985926" lon="12.975059878256724"><ele>867.0</ele><time>2026-04-11T07:43:17Z</time></trkpt><trkpt lat="43.20815338158197" lon="12.974967610712289"><ele>867.0</ele><time>2026-04-11T07:43:18Z</time></trkpt><trkpt lat="43.20827609036454" lon="12.974984097175913"><ele>858.6</ele><time>2026-04-11T07:43:20Z</time></trkpt><trkpt lat="43.208365234393405" lon="12.975047907774261"><ele>850.2</ele><time>2026-04-11T07:43:23Z</time></trkpt><trkpt lat="43.20844276111374" lon="12.97518189344514"><ele>841.8</ele><time>2026-04-11T07:43:25Z</time></trkpt><trkpt lat="43.20855120716729" lon="12.975196222939173"><ele>833.4</ele><time>2026-04-11T07:43:27Z</time></trkpt><trkpt lat="43.20863361398822" lon="12.975249088045686"><ele>825.0</ele><time>2026-04-11T07:43:29Z</time></trkpt><trkpt lat="43.20859344209974" lon="12.975317233863185"><ele>825.0</ele><time>2026-04-11T07:43:30Z</time></trkpt><trkpt lat="43.20850924535165" lon="12.975392479527969"><ele>825.0</ele><time>2026-04-11T07:43:32Z</time></trkpt><trkpt lat="43.20845995013117" lon="12.97546267437729"><ele>825.0</ele><time>2026-04-11T07:43:34Z</time></trkpt><trkpt lat="43.20853398503084" lon="12.975525389301147"><ele>825.0</ele><time>2026-04-11T07:43:35.999Z</time></trkpt><trkpt lat="43.208669801228176" lon="12.975503321313198"><ele>825.0</ele><time>2026-04-11T07:43:37.999Z</time></trkpt><trkpt lat="43.20874770070239" lon="12.9754942716958"><ele>825.0</ele><time>2026-04-11T07:43:38.999Z</time></trkpt><trkpt lat="43.208835641211685" lon="12.975495271617408"><ele>825.0</ele><time>2026-04-11T07:43:39.999Z</time></trkpt><trkpt lat="43.20891626707542" lon="12.975487494882834"><ele>825.0</ele><time>2026-04-11T07:43:40.999Z</time></trkpt><trkpt lat="43.208986289311355" lon="12.975443662878074"><ele>825.0</ele><time>2026-04-11T07:43:41.999Z</time></trkpt><trkpt lat="43.20906705932777" lon="12.975372730650296"><ele>825.0</ele><time>2026-04-11T07:43:42.999Z</time></trkpt><trkpt lat="43.20914815409421" lon="12.9753047045064"><ele>825.0</ele><time>2026-04-11T07:43:43.999Z</time></trkpt><trkpt lat="43.20922033661342" lon="12.975255542925611"><ele>821.0</ele><time>2026-04-11T07:43:44.999Z</time></trkpt><trkpt lat="43.209283358219125" lon="12.975236797564488"><ele>817.0</ele><time>2026-04-11T07:43:45.999Z</time></trkpt><trkpt lat="43.20934932493529" lon="12.975245003760195"><ele>813.0</ele><time>2026-04-11T07:43:46.999Z</time></trkpt><trkpt lat="43.209459417040435" lon="12.975257017849726"><ele>809.0</ele><time>2026-04-11T07:43:48.999Z</time></trkpt><trkpt lat="43.20951477889694" lon="12.975211769896298"><ele>805.0</ele><time>2026-04-11T07:43:55.999Z</time></trkpt><trkpt lat="43.20961511280719" lon="12.975141002842529"><ele>801.0</ele><time>2026-04-11T07:43:57.999Z</time></trkpt><trkpt lat="43.20968409868322" lon="12.975088777877728"><ele>801.0</ele><time>2026-04-11T07:43:58.999Z</time></trkpt><trkpt lat="43.20977258911608" lon="12.975033794611617"><ele>801.0</ele><time>2026-04-11T07:43:59.999Z</time></trkpt><trkpt lat="43.20986580008156" lon="12.975020895332332"><ele>801.0</ele><time>2026-04-11T07:44:00.999Z</time></trkpt><trkpt lat="43.20996756876535" lon="12.975025340252964"><ele>801.0</ele><time>2026-04-11T07:44:01.999Z</time></trkpt><trkpt lat="43.21005869340802" lon="12.975026618599864"><ele>801.0</ele><time>2026-04-11T07:44:02.999Z</time></trkpt><trkpt lat="43.21013909662172" lon="12.97500485763784"><ele>806.8</ele><time>2026-04-11T07:44:03.999Z</time></trkpt><trkpt lat="43.2102403336733" lon="12.974990140301117"><ele>812.5999999999999</ele><time>2026-04-11T07:44:04.999Z</time></trkpt><trkpt lat="43.210337894481015" lon="12.974964416599168"><ele>818.4</ele><time>2026-04-11T07:44:05.999Z</time></trkpt><trkpt lat="43.21042267818043" lon="12.974933377237427"><ele>824.2</ele><time>2026-04-11T07:44:06.999Z</time></trkpt><trkpt lat="43.210527367009185" lon="12.97492267616827"><ele>830.0</ele><time>2026-04-11T07:44:07.999Z</time></trkpt><trkpt lat="43.21063658552974" lon="12.974905737368665"><ele>830.1666666666667</ele><time>2026-04-11T07:44:08.999Z</time></trkpt><trkpt lat="43.2107223370629" lon="12.97490784211367"><ele>830.3333333333334</ele><time>2026-04-11T07:44:09.999Z</time></trkpt><trkpt lat="43.21081532437531" lon="12.974893218087198"><ele>830.5</ele><time>2026-04-11T07:44:10.999Z</time></trkpt><trkpt lat="43.21090799616535" lon="12.974859522424412"><ele>830.6666666666667</ele><time>2026-04-11T07:44:11.999Z</time></trkpt><trkpt lat="43.210990691696246" lon="12.97481619832578"><ele>830.8333333333334</ele><time>2026-04-11T07:44:12.999Z</time></trkpt><trkpt lat="43.211048803519866" lon="12.974758911535773"><ele>831.0</ele><time>2026-04-11T07:44:13.999Z</time></trkpt><trkpt lat="43.211100009017905" lon="12.97469403542452"><ele>831.0</ele><time>2026-04-11T07:44:14.999Z</time></trkpt><trkpt lat="43.211148919151185" lon="12.97459947160031"><ele>831.0</ele><time>2026-04-11T07:44:15.999Z</time></trkpt><trkpt lat="43.21119900538673" lon="12.974535103941772"><ele>831.0</ele><time>2026-04-11T07:44:16.999Z</time></trkpt><trkpt lat="43.211297283296965" lon="12.974518408087595"><ele>831.0</ele><time>2026-04-11T07:44:18.999Z</time></trkpt><trkpt lat="43.21135509789866" lon="12.97455667811586"><ele>831.0</ele><time>2026-04-11T07:44:19.999Z</time></trkpt><trkpt lat="43.21142205107911" lon="12.974601067305915"><ele>831.0</ele><time>2026-04-11T07:44:20.999Z</time></trkpt><trkpt lat="43.21151194756229" lon="12.974686089171668"><ele>831.0</ele><time>2026-04-11T07:44:22.999Z</time></trkpt><trkpt lat="43.21154058045917" lon="12.974608958107556"><ele>831.0</ele><time>2026-04-11T07:44:24.999Z</time></trkpt><trkpt lat="43.21154653953144" lon="12.974469458529969"><ele>831.0</ele><time>2026-04-11T07:44:26.999Z</time></trkpt><trkpt lat="43.21148251797774" lon="12.974280739468838"><ele>831.0</ele><time>2026-04-11T07:44:28.999Z</time></trkpt><trkpt lat="43.211456989850035" lon="12.974183594724241"><ele>831.0</ele><time>2026-04-11T07:44:29.999Z</time></trkpt><trkpt lat="43.21144913091526" lon="12.974073813462137"><ele>830.5999999999999</ele><time>2026-04-11T07:44:30.999Z</time></trkpt><trkpt lat="43.21146115227284" lon="12.97397201600872"><ele>830.2</ele><time>2026-04-11T07:44:31.999Z</time></trkpt><trkpt lat="43.211488858688455" lon="12.973779170183505"><ele>829.8</ele><time>2026-04-11T07:44:33.999Z</time></trkpt><trkpt lat="43.21150917659087" lon="12.973673618754098"><ele>829.4000000000001</ele><time>2026-04-11T07:44:34.999Z</time></trkpt><trkpt lat="43.21150110358487" lon="12.973567898576759"><ele>829.0</ele><time>2026-04-11T07:44:35.999Z</time></trkpt><trkpt lat="43.21145453951286" lon="12.973426853716012"><ele>828.8000000000001</ele><time>2026-04-11T07:44:36.999Z</time></trkpt><trkpt lat="43.21143137414038" lon="12.973289415474254"><ele>828.6</ele><time>2026-04-11T07:44:37.999Z</time></trkpt><trkpt lat="43.211454265233996" lon="12.97316159054723"><ele>828.4</ele><time>2026-04-11T07:44:38.999Z</time></trkpt><trkpt lat="43.21148240173269" lon="12.973027541850742"><ele>828.2</ele><time>2026-04-11T07:44:39.999Z</time></trkpt><trkpt lat="43.211521788057624" lon="12.97291381193177"><ele>828.0</ele><time>2026-04-11T07:44:40.999Z</time></trkpt><trkpt lat="43.21153844945024" lon="12.972808939565091"><ele>828.0</ele><time>2026-04-11T07:44:41.999Z</time></trkpt><trkpt lat="43.21157639057681" lon="12.972667798205702"><ele>828.0</ele><time>2026-04-11T07:44:43.999Z</time></trkpt><trkpt lat="43.21165690917378" lon="12.97262215686573"><ele>828.0</ele><time>2026-04-11T07:44:44.999Z</time></trkpt><trkpt lat="43.21172436598188" lon="12.972579796048047"><ele>828.0</ele><time>2026-04-11T07:44:45.999Z</time></trkpt><trkpt lat="43.21180116838231" lon="12.972509219225135"><ele>828.0</ele><time>2026-04-11T07:44:47Z</time></trkpt><trkpt lat="43.21187249108319" lon="12.972526820702088"><ele>828.0</ele><time>2026-04-11T07:44:48Z</time></trkpt><trkpt lat="43.211935559911616" lon="12.972551657093504"><ele>828.8333333333334</ele><time>2026-04-11T07:44:49Z</time></trkpt><trkpt lat="43.21193961767021" lon="12.972451038567195"><ele>829.6666666666667</ele><time>2026-04-11T07:44:51Z</time></trkpt><trkpt lat="43.21190283784137" lon="12.97233755564081"><ele>830.5</ele><time>2026-04-11T07:44:53Z</time></trkpt><trkpt lat="43.21188158931083" lon="12.972246047391911"><ele>831.3333333333334</ele><time>2026-04-11T07:44:55Z</time></trkpt><trkpt lat="43.21186013703502" lon="12.972142554290773"><ele>832.1666666666667</ele><time>2026-04-11T07:44:57Z</time></trkpt><trkpt lat="43.21186423938832" lon="12.972005627661908"><ele>833.0</ele><time>2026-04-11T07:44:59Z</time></trkpt><trkpt lat="43.21187847982874" lon="12.97189116238683"><ele>833.0</ele><time>2026-04-11T07:45:00Z</time></trkpt><trkpt lat="43.21193212988215" lon="12.971763145733071"><ele>833.0</ele><time>2026-04-11T07:45:02Z</time></trkpt><trkpt lat="43.21199088261732" lon="12.971664054388206"><ele>833.0</ele><time>2026-04-11T07:45:04Z</time></trkpt><trkpt lat="43.212070380199236" lon="12.97157629263155"><ele>833.0</ele><time>2026-04-11T07:45:06Z</time></trkpt><trkpt lat="43.2120887678824" lon="12.971466953686893"><ele>833.0</ele><time>2026-04-11T07:45:08Z</time></trkpt><trkpt lat="43.2120971783193" lon="12.971371368634012"><ele>834.3333333333334</ele><time>2026-04-11T07:45:09Z</time></trkpt><trkpt lat="43.21212688639568" lon="12.971239447760471"><ele>835.6666666666667</ele><time>2026-04-11T07:45:11Z</time></trkpt><trkpt lat="43.21216025009001" lon="12.971153017711986"><ele>837.0</ele><time>2026-04-11T07:45:13Z</time></trkpt><trkpt lat="43.21218175101636" lon="12.97104249811195"><ele>838.3333333333333</ele><time>2026-04-11T07:45:16Z</time></trkpt><trkpt lat="43.21226237387596" lon="12.971000091064647"><ele>839.6666666666666</ele><time>2026-04-11T07:45:18Z</time></trkpt><trkpt lat="43.21231266329292" lon="12.970927325850125"><ele>841.0</ele><time>2026-04-11T07:45:20Z</time></trkpt><trkpt lat="43.21237414739023" lon="12.970888846787"><ele>838.1666666666666</ele><time>2026-04-11T07:45:22Z</time></trkpt><trkpt lat="43.21241204920765" lon="12.970816199886864"><ele>835.3333333333333</ele><time>2026-04-11T07:45:24Z</time></trkpt><trkpt lat="43.21248683862888" lon="12.970811969017161"><ele>832.5</ele><time>2026-04-11T07:45:26Z</time></trkpt><trkpt lat="43.21254709152974" lon="12.970758251147481"><ele>829.6666666666667</ele><time>2026-04-11T07:45:28Z</time></trkpt><trkpt lat="43.21258413593632" lon="12.970684311360515"><ele>826.8333333333334</ele><time>2026-04-11T07:45:30Z</time></trkpt><trkpt lat="43.21265068747399" lon="12.970566433415897"><ele>824.0</ele><time>2026-04-11T07:45:32Z</time></trkpt><trkpt lat="43.2127239786051" lon="12.970492299083048"><ele>824.0</ele><time>2026-04-11T07:45:33Z</time></trkpt><trkpt lat="43.212873120434544" lon="12.970429506629452"><ele>824.0</ele><time>2026-04-11T07:45:35Z</time></trkpt><trkpt lat="43.21295364261115" lon="12.97040100826109"><ele>824.0</ele><time>2026-04-11T07:45:36Z</time></trkpt><trkpt lat="43.213066302208674" lon="12.970353275980969"><ele>824.0</ele><time>2026-04-11T07:45:38Z</time></trkpt><trkpt lat="43.21321192681852" lon="12.970215027321176"><ele>825.1666666666667</ele><time>2026-04-11T07:45:40Z</time></trkpt><trkpt lat="43.21329204519783" lon="12.970184235645835"><ele>826.3333333333334</ele><time>2026-04-11T07:45:41Z</time></trkpt><trkpt lat="43.213380239024886" lon="12.970164325774807"><ele>827.5</ele><time>2026-04-11T07:45:42Z</time></trkpt><trkpt lat="43.213446800470415" lon="12.970118525352126"><ele>828.6666666666667</ele><time>2026-04-11T07:45:43Z</time></trkpt><trkpt lat="43.213495127003355" lon="12.970057277533716"><ele>829.8333333333334</ele><time>2026-04-11T07:45:44Z</time></trkpt><trkpt lat="43.21355988060855" lon="12.970026155427375"><ele>831.0</ele><time>2026-04-11T07:45:45Z</time></trkpt><trkpt lat="43.21367388056112" lon="12.969963137525326"><ele>831.0</ele><time>2026-04-11T07:45:47Z</time></trkpt><trkpt lat="43.21373606150192" lon="12.96992441666525"><ele>831.0</ele><time>2026-04-11T07:45:48Z</time></trkpt><trkpt lat="43.21380588999569" lon="12.969830174126168"><ele>831.0</ele><time>2026-04-11T07:45:50Z</time></trkpt><trkpt lat="43.213874673483346" lon="12.969707262180732"><ele>831.0</ele><time>2026-04-11T07:45:51.999Z</time></trkpt><trkpt lat="43.21389995101765" lon="12.969613041102917"><ele>831.0</ele><time>2026-04-11T07:45:52.999Z</time></trkpt><trkpt lat="43.21392626165504" lon="12.969514278001002"><ele>831.0</ele><time>2026-04-11T07:45:53.999Z</time></trkpt><trkpt lat="43.213983383092646" lon="12.969396301743698"><ele>824.1999999999999</ele><time>2026-04-11T07:45:55.999Z</time></trkpt><trkpt lat="43.214040345583705" lon="12.969348631541912"><ele>817.4</ele><time>2026-04-11T07:45:59.999Z</time></trkpt><trkpt lat="43.21415890253503" lon="12.969300194011439"><ele>810.6</ele><time>2026-04-11T07:46:17.999Z</time></trkpt><trkpt lat="43.21422467683575" lon="12.969295086454615"><ele>803.8</ele><time>2026-04-11T07:46:18.999Z</time></trkpt><trkpt lat="43.214312172678994" lon="12.96927971087661"><ele>797.0</ele><time>2026-04-11T07:46:19.999Z</time></trkpt><trkpt lat="43.214439289816845" lon="12.969331464976428"><ele>797.0000000000001</ele><time>2026-04-11T07:46:20.999Z</time></trkpt><trkpt lat="43.21453793425071" lon="12.969260477787572"><ele>797.0</ele><time>2026-04-11T07:46:21.999Z</time></trkpt><trkpt lat="43.21461133257755" lon="12.969185238010146"><ele>797.0</ele><time>2026-04-11T07:46:22.999Z</time></trkpt><trkpt lat="43.214629902025244" lon="12.969062617486113"><ele>797.0</ele><time>2026-04-11T07:46:24.999Z</time></trkpt><trkpt lat="43.214706410738856" lon="12.969049194715048"><ele>797.0000000000001</ele><time>2026-04-11T07:46:26.999Z</time></trkpt><trkpt lat="43.2147599997533" lon="12.968985085049773"><ele>797.0</ele><time>2026-04-11T07:46:28.999Z</time></trkpt><trkpt lat="43.21482689291084" lon="12.96894129541674"><ele>798.8</ele><time>2026-04-11T07:46:53Z</time></trkpt><trkpt lat="43.21491360500962" lon="12.968923318953157"><ele>800.6</ele><time>2026-04-11T07:46:56Z</time></trkpt><trkpt lat="43.214995817540185" lon="12.968895157773062"><ele>802.4</ele><time>2026-04-11T07:46:57Z</time></trkpt><trkpt lat="43.215081530453126" lon="12.968869366030853"><ele>804.1999999999999</ele><time>2026-04-11T07:46:58Z</time></trkpt><trkpt lat="43.21517737118186" lon="12.968886918148502"><ele>806.0</ele><time>2026-04-11T07:46:59Z</time></trkpt><trkpt lat="43.215273844512105" lon="12.968886646958486"><ele>806.0</ele><time>2026-04-11T07:47:00Z</time></trkpt><trkpt lat="43.21537373420652" lon="12.968896722472593"><ele>806.0</ele><time>2026-04-11T07:47:01Z</time></trkpt><trkpt lat="43.21547128380646" lon="12.968889763968772"><ele>806.0</ele><time>2026-04-11T07:47:02Z</time></trkpt><trkpt lat="43.215572984885064" lon="12.968878879073074"><ele>806.0</ele><time>2026-04-11T07:47:03Z</time></trkpt><trkpt lat="43.2156657525889" lon="12.968884073180307"><ele>806.0</ele><time>2026-04-11T07:47:04Z</time></trkpt><trkpt lat="43.21575195886759" lon="12.968911568716482"><ele>805.0000000000001</ele><time>2026-04-11T07:47:05Z</time></trkpt><trkpt lat="43.2158243507712" lon="12.968913994041587"><ele>804.0</ele><time>2026-04-11T07:47:06Z</time></trkpt><trkpt lat="43.21591929088965" lon="12.968877041297096"><ele>803.0</ele><time>2026-04-11T07:47:07Z</time></trkpt><trkpt lat="43.21599218766383" lon="12.968839298621697"><ele>802.0</ele><time>2026-04-11T07:47:08Z</time></trkpt><trkpt lat="43.21605855172229" lon="12.96879205159521"><ele>801.0000000000001</ele><time>2026-04-11T07:47:09Z</time></trkpt><trkpt lat="43.21616338901265" lon="12.968728148715869"><ele>800.0</ele><time>2026-04-11T07:47:11Z</time></trkpt><trkpt lat="43.21623558142008" lon="12.968555842208918"><ele>800.0</ele><time>2026-04-11T07:47:13Z</time></trkpt><trkpt lat="43.216361451105016" lon="12.968513318936909"><ele>800.0</ele><time>2026-04-11T07:47:15Z</time></trkpt><trkpt lat="43.21644704215484" lon="12.968522916255353"><ele>800.0</ele><time>2026-04-11T07:47:16Z</time></trkpt><trkpt lat="43.21652969309948" lon="12.96848535936805"><ele>800.0</ele><time>2026-04-11T07:47:17Z</time></trkpt><trkpt lat="43.21662659397916" lon="12.96845096243225"><ele>800.0</ele><time>2026-04-11T07:47:18Z</time></trkpt><trkpt lat="43.21669035019254" lon="12.968424539203667"><ele>801.0</ele><time>2026-04-11T07:47:19Z</time></trkpt><trkpt lat="43.216775845013785" lon="12.968309936418459"><ele>802.0</ele><time>2026-04-11T07:47:21Z</time></trkpt><trkpt lat="43.21681669548128" lon="12.968225232291925"><ele>803.0</ele><time>2026-04-11T07:47:22Z</time></trkpt><trkpt lat="43.216872748611834" lon="12.968161925015503"><ele>804.0</ele><time>2026-04-11T07:47:23Z</time></trkpt><trkpt lat="43.21694247631134" lon="12.968094915358881"><ele>805.0</ele><time>2026-04-11T07:47:24Z</time></trkpt><trkpt lat="43.21703977535071" lon="12.967999595537263"><ele>805.0</ele><time>2026-04-11T07:47:26Z</time></trkpt><trkpt lat="43.217095970249126" lon="12.967896337424925"><ele>805.0</ele><time>2026-04-11T07:47:28Z</time></trkpt><trkpt lat="43.21719078975229" lon="12.967781992475633"><ele>805.0</ele><time>2026-04-11T07:47:30Z</time></trkpt><trkpt lat="43.217241547200544" lon="12.96772458633824"><ele>805.0</ele><time>2026-04-11T07:47:31Z</time></trkpt><trkpt lat="43.21734375224019" lon="12.967628747932665"><ele>805.0</ele><time>2026-04-11T07:47:33Z</time></trkpt><trkpt lat="43.21740137947956" lon="12.967589049874853"><ele>803.4999999999999</ele><time>2026-04-11T07:47:34Z</time></trkpt><trkpt lat="43.217448913779286" lon="12.96752404411476"><ele>802.0</ele><time>2026-04-11T07:47:35Z</time></trkpt><trkpt lat="43.21749764367448" lon="12.967438850872874"><ele>800.5</ele><time>2026-04-11T07:47:36Z</time></trkpt><trkpt lat="43.21757697646947" lon="12.967364454431609"><ele>799.0</ele><time>2026-04-11T07:47:37Z</time></trkpt><trkpt lat="43.217643995516056" lon="12.967274104463122"><ele>797.4999999999999</ele><time>2026-04-11T07:47:38Z</time></trkpt><trkpt lat="43.21770800457296" lon="12.967190372736559"><ele>796.0</ele><time>2026-04-11T07:47:39Z</time></trkpt><trkpt lat="43.217762350634096" lon="12.967135506498577"><ele>795.9999999999999</ele><time>2026-04-11T07:47:40Z</time></trkpt><trkpt lat="43.2178134563821" lon="12.967037713377822"><ele>796.0</ele><time>2026-04-11T07:47:41Z</time></trkpt><trkpt lat="43.21785865428431" lon="12.966958516802173"><ele>796.0</ele><time>2026-04-11T07:47:42Z</time></trkpt><trkpt lat="43.21795269991405" lon="12.96682758027597"><ele>796.0</ele><time>2026-04-11T07:47:44Z</time></trkpt><trkpt lat="43.218001983500564" lon="12.966743363764047"><ele>795.9999999999999</ele><time>2026-04-11T07:47:45Z</time></trkpt><trkpt lat="43.218042733253135" lon="12.966674041719536"><ele>796.0</ele><time>2026-04-11T07:47:46Z</time></trkpt><trkpt lat="43.21810683563583" lon="12.966652029148465"><ele>791.0</ele><time>2026-04-11T07:47:47Z</time></trkpt><trkpt lat="43.21817211984099" lon="12.966631227584724"><ele>786.0</ele><time>2026-04-11T07:47:48Z</time></trkpt><trkpt lat="43.21825346333871" lon="12.966589026159184"><ele>781.0</ele><time>2026-04-11T07:47:50Z</time></trkpt><trkpt lat="43.218358183712766" lon="12.9665672811665"><ele>776.0</ele><time>2026-04-11T07:47:52Z</time></trkpt><trkpt lat="43.21845684607452" lon="12.966531614014416"><ele>771.0</ele><time>2026-04-11T07:47:54Z</time></trkpt><trkpt lat="43.21854787108656" lon="12.966494301288039"><ele>771.0</ele><time>2026-04-11T07:47:55.999Z</time></trkpt><trkpt lat="43.218617340395035" lon="12.966479541681945"><ele>771.0</ele><time>2026-04-11T07:47:57.999Z</time></trkpt><trkpt lat="43.2187065072086" lon="12.96647042081114"><ele>771.0</ele><time>2026-04-11T07:48:03.999Z</time></trkpt><trkpt lat="43.21883695949684" lon="12.966470864204043"><ele>771.0</ele><time>2026-04-11T07:48:05.999Z</time></trkpt><trkpt lat="43.218941252829325" lon="12.96650964124467"><ele>771.0</ele><time>2026-04-11T07:48:07.999Z</time></trkpt><trkpt lat="43.219012582993145" lon="12.966545094601505"><ele>768.5999999999999</ele><time>2026-04-11T07:48:08.999Z</time></trkpt><trkpt lat="43.21907796463706" lon="12.966578553761522"><ele>766.2</ele><time>2026-04-11T07:48:09.999Z</time></trkpt><trkpt lat="43.21916276156834" lon="12.966621666258995"><ele>763.8</ele><time>2026-04-11T07:48:10.999Z</time></trkpt><trkpt lat="43.219257536445106" lon="12.966671333561443"><ele>761.4000000000001</ele><time>2026-04-11T07:48:11.999Z</time></trkpt><trkpt lat="43.21936068186819" lon="12.96670978955814"><ele>759.0</ele><time>2026-04-11T07:48:12.999Z</time></trkpt><trkpt lat="43.21947664227219" lon="12.966762730476697"><ele>752.3333333333334</ele><time>2026-04-11T07:48:13.999Z</time></trkpt><trkpt lat="43.2195562553353" lon="12.966803687866285"><ele>745.6666666666666</ele><time>2026-04-11T07:48:14.999Z</time></trkpt><trkpt lat="43.21963770455964" lon="12.966836955754806"><ele>739.0</ele><time>2026-04-11T07:48:15.999Z</time></trkpt><trkpt lat="43.21970172244377" lon="12.96683739926087"><ele>732.3333333333333</ele><time>2026-04-11T07:48:16.999Z</time></trkpt><trkpt lat="43.21976417624678" lon="12.966821711643854"><ele>725.6666666666666</ele><time>2026-04-11T07:48:17.999Z</time></trkpt><trkpt lat="43.21985142392988" lon="12.966769719459556"><ele>719.0</ele><time>2026-04-11T07:48:18.999Z</time></trkpt><trkpt lat="43.21998525618118" lon="12.966700629410198"><ele>726.5</ele><time>2026-04-11T07:48:20.999Z</time></trkpt><trkpt lat="43.22008930254943" lon="12.966638933108335"><ele>734.0</ele><time>2026-04-11T07:48:22.999Z</time></trkpt><trkpt lat="43.22025526420388" lon="12.966602058583147"><ele>741.5</ele><time>2026-04-11T07:48:24.999Z</time></trkpt><trkpt lat="43.220330038636924" lon="12.96653559566936"><ele>749.0</ele><time>2026-04-11T07:48:25.999Z</time></trkpt><trkpt lat="43.220402672609545" lon="12.96647539479922"><ele>749.0</ele><time>2026-04-11T07:48:26.999Z</time></trkpt><trkpt lat="43.22048069532259" lon="12.96643588279089"><ele>749.0</ele><time>2026-04-11T07:48:28.999Z</time></trkpt><trkpt lat="43.22059172099971" lon="12.96641176580019"><ele>749.0</ele><time>2026-04-11T07:48:30.999Z</time></trkpt><trkpt lat="43.22072646298404" lon="12.966421777456304"><ele>749.0</ele><time>2026-04-11T07:48:32.999Z</time></trkpt><trkpt lat="43.220824980431125" lon="12.966395051930414"><ele>749.0</ele><time>2026-04-11T07:48:33.999Z</time></trkpt><trkpt lat="43.22091861616364" lon="12.966359182983625"><ele>743.5</ele><time>2026-04-11T07:48:34.999Z</time></trkpt><trkpt lat="43.221030365349314" lon="12.966307956628699"><ele>738.0</ele><time>2026-04-11T07:48:35.999Z</time></trkpt><trkpt lat="43.221163806241464" lon="12.966272866314135"><ele>732.5</ele><time>2026-04-11T07:48:36.999Z</time></trkpt><trkpt lat="43.22128457527522" lon="12.966257964160308"><ele>727.0</ele><time>2026-04-11T07:48:37.999Z</time></trkpt><trkpt lat="43.221392503625424" lon="12.966239696128559"><ele>726.0</ele><time>2026-04-11T07:48:38.999Z</time></trkpt><trkpt lat="43.22148222817221" lon="12.966221149896734"><ele>725.0</ele><time>2026-04-11T07:48:39.999Z</time></trkpt><trkpt lat="43.22155605868092" lon="12.966200683216746"><ele>724.0</ele><time>2026-04-11T07:48:40.999Z</time></trkpt><trkpt lat="43.2216472090523" lon="12.966234937269853"><ele>723.0</ele><time>2026-04-11T07:48:43.999Z</time></trkpt><trkpt lat="43.22172582480039" lon="12.966244169019838"><ele>722.0</ele><time>2026-04-11T07:48:47.999Z</time></trkpt><trkpt lat="43.221825647076535" lon="12.966224120217026"><ele>721.0</ele><time>2026-04-11T07:48:49.999Z</time></trkpt><trkpt lat="43.22197895611228" lon="12.966197466799697"><ele>721.0</ele><time>2026-04-11T07:48:51.999Z</time></trkpt><trkpt lat="43.2220989433671" lon="12.966117974859758"><ele>721.0</ele><time>2026-04-11T07:48:52.999Z</time></trkpt><trkpt lat="43.222216006389935" lon="12.966012502871656"><ele>721.0</ele><time>2026-04-11T07:48:53.999Z</time></trkpt><trkpt lat="43.222305277329895" lon="12.965940121452501"><ele>721.0</ele><time>2026-04-11T07:48:54.999Z</time></trkpt><trkpt lat="43.22239598105552" lon="12.965875923932366"><ele>721.8</ele><time>2026-04-11T07:48:55.999Z</time></trkpt><trkpt lat="43.22249312901138" lon="12.965854983867668"><ele>722.5999999999999</ele><time>2026-04-11T07:48:56.999Z</time></trkpt><trkpt lat="43.222565190114636" lon="12.965807092509747"><ele>723.4</ele><time>2026-04-11T07:48:57.999Z</time></trkpt><trkpt lat="43.22266190822253" lon="12.965753232932734"><ele>724.2</ele><time>2026-04-11T07:48:59Z</time></trkpt><trkpt lat="43.22274104246527" lon="12.965689457266826"><ele>725.0</ele><time>2026-04-11T07:49:00Z</time></trkpt><trkpt lat="43.22283769091563" lon="12.9656354666933"><ele>725.0</ele><time>2026-04-11T07:49:01Z</time></trkpt><trkpt lat="43.22293587613697" lon="12.965596026815138"><ele>725.0</ele><time>2026-04-11T07:49:02Z</time></trkpt><trkpt lat="43.2230166495427" lon="12.965580148381772"><ele>725.0</ele><time>2026-04-11T07:49:03Z</time></trkpt><trkpt lat="43.223084308581875" lon="12.965529639248597"><ele>725.0</ele><time>2026-04-11T07:49:04Z</time></trkpt><trkpt lat="43.22315173738014" lon="12.965447717533179"><ele>725.0</ele><time>2026-04-11T07:49:05Z</time></trkpt><trkpt lat="43.223236427128455" lon="12.96541107578836"><ele>725.0</ele><time>2026-04-11T07:49:06Z</time></trkpt><trkpt lat="43.22331705042718" lon="12.965401740404541"><ele>720.4285714285714</ele><time>2026-04-11T07:49:07Z</time></trkpt><trkpt lat="43.22338602836562" lon="12.965367814282093"><ele>715.8571428571429</ele><time>2026-04-11T07:49:08Z</time></trkpt><trkpt lat="43.22344450312732" lon="12.965326840729425"><ele>711.2857142857142</ele><time>2026-04-11T07:49:09Z</time></trkpt><trkpt lat="43.22349644597583" lon="12.965263128461604"><ele>706.7142857142858</ele><time>2026-04-11T07:49:10Z</time></trkpt><trkpt lat="43.22356072813782" lon="12.965199336176475"><ele>702.1428571428571</ele><time>2026-04-11T07:49:11Z</time></trkpt><trkpt lat="43.22362753177664" lon="12.965192078528329"><ele>697.5714285714286</ele><time>2026-04-11T07:49:12Z</time></trkpt><trkpt lat="43.22371411668299" lon="12.96518298433373"><ele>693.0</ele><time>2026-04-11T07:49:13Z</time></trkpt><trkpt lat="43.223797515978376" lon="12.965173679679902"><ele>693.0</ele><time>2026-04-11T07:49:14Z</time></trkpt><trkpt lat="43.223882755646144" lon="12.965174128415558"><ele>693.0</ele><time>2026-04-11T07:49:15Z</time></trkpt><trkpt lat="43.223944686144314" lon="12.965195642252686"><ele>693.0</ele><time>2026-04-11T07:49:16Z</time></trkpt><trkpt lat="43.22402522670388" lon="12.96518853629615"><ele>693.0</ele><time>2026-04-11T07:49:17Z</time></trkpt><trkpt lat="43.22411567699032" lon="12.965179902516894"><ele>693.0</ele><time>2026-04-11T07:49:18Z</time></trkpt><trkpt lat="43.22420882609511" lon="12.965166505848387"><ele>693.0</ele><time>2026-04-11T07:49:19Z</time></trkpt><trkpt lat="43.22430161286637" lon="12.965121559463077"><ele>688.1666666666666</ele><time>2026-04-11T07:49:20Z</time></trkpt><trkpt lat="43.22437501715126" lon="12.965066314819651"><ele>683.3333333333334</ele><time>2026-04-11T07:49:21Z</time></trkpt><trkpt lat="43.224439068328174" lon="12.965051234172513"><ele>678.5</ele><time>2026-04-11T07:49:22Z</time></trkpt><trkpt lat="43.22450957551802" lon="12.96506363030736"><ele>673.6666666666667</ele><time>2026-04-11T07:49:23Z</time></trkpt><trkpt lat="43.2245940551497" lon="12.965109738849122"><ele>668.8333333333334</ele><time>2026-04-11T07:49:24Z</time></trkpt><trkpt lat="43.22467497301147" lon="12.965138613909858"><ele>664.0</ele><time>2026-04-11T07:49:25Z</time></trkpt><trkpt lat="43.22475993679687" lon="12.965169540693953"><ele>661.6</ele><time>2026-04-11T07:49:26Z</time></trkpt><trkpt lat="43.224844733935576" lon="12.965191565573052"><ele>659.2</ele><time>2026-04-11T07:49:27Z</time></trkpt><trkpt lat="43.224945022600686" lon="12.965216966646953"><ele>656.8000000000001</ele><time>2026-04-11T07:49:28Z</time></trkpt><trkpt lat="43.22506095327651" lon="12.965229675563165"><ele>654.4000000000001</ele><time>2026-04-11T07:49:29Z</time></trkpt><trkpt lat="43.225189546878426" lon="12.965252293546477"><ele>652.0</ele><time>2026-04-11T07:49:30Z</time></trkpt><trkpt lat="43.22530235222927" lon="12.965262667089599"><ele>652.0</ele><time>2026-04-11T07:49:31Z</time></trkpt><trkpt lat="43.2254159328108" lon="12.965268293230384"><ele>652.0</ele><time>2026-04-11T07:49:32Z</time></trkpt><trkpt lat="43.22554429304593" lon="12.965271320278502"><ele>652.0</ele><time>2026-04-11T07:49:33Z</time></trkpt><trkpt lat="43.225679706768744" lon="12.965272875087072"><ele>652.0</ele><time>2026-04-11T07:49:34Z</time></trkpt><trkpt lat="43.225801401368315" lon="12.965272669004781"><ele>649.5</ele><time>2026-04-11T07:49:35Z</time></trkpt><trkpt lat="43.22593495573976" lon="12.96530277035089"><ele>647.0</ele><time>2026-04-11T07:49:36Z</time></trkpt><trkpt lat="43.22605961730506" lon="12.965333700467717"><ele>644.5</ele><time>2026-04-11T07:49:37Z</time></trkpt><trkpt lat="43.22617706850561" lon="12.965352134093667"><ele>642.0</ele><time>2026-04-11T07:49:38Z</time></trkpt><trkpt lat="43.22630383454661" lon="12.965369280917903"><ele>642.0</ele><time>2026-04-11T07:49:39Z</time></trkpt><trkpt lat="43.226424401845364" lon="12.965388403050556"><ele>642.0</ele><time>2026-04-11T07:49:40Z</time></trkpt><trkpt lat="43.22654698000192" lon="12.965405543529132"><ele>642.0</ele><time>2026-04-11T07:49:41Z</time></trkpt><trkpt lat="43.22665791887691" lon="12.965412607369444"><ele>642.0</ele><time>2026-04-11T07:49:42Z</time></trkpt><trkpt lat="43.22677232002633" lon="12.965419519929574"><ele>640.2</ele><time>2026-04-11T07:49:43Z</time></trkpt><trkpt lat="43.22689153084309" lon="12.965419646622358"><ele>638.4000000000001</ele><time>2026-04-11T07:49:44Z</time></trkpt><trkpt lat="43.22699343700989" lon="12.965421490088916"><ele>636.5999999999999</ele><time>2026-04-11T07:49:45Z</time></trkpt><trkpt lat="43.227080960600574" lon="12.965406983431722"><ele>634.8</ele><time>2026-04-11T07:49:46Z</time></trkpt><trkpt lat="43.22715498414558" lon="12.965403357473637"><ele>633.0</ele><time>2026-04-11T07:49:47Z</time></trkpt><trkpt lat="43.227292889571615" lon="12.965404567785056"><ele>630.1999999999999</ele><time>2026-04-11T07:49:49Z</time></trkpt><trkpt lat="43.22737580463311" lon="12.965396579909852"><ele>627.4</ele><time>2026-04-11T07:49:50Z</time></trkpt><trkpt lat="43.22746986007564" lon="12.965365772052513"><ele>624.5999999999999</ele><time>2026-04-11T07:49:51Z</time></trkpt><trkpt lat="43.227576460804386" lon="12.965324129564697"><ele>621.8</ele><time>2026-04-11T07:49:52Z</time></trkpt><trkpt lat="43.2276690461357" lon="12.965283963065218"><ele>619.0</ele><time>2026-04-11T07:49:53Z</time></trkpt><trkpt lat="43.22776146237154" lon="12.965259286247939"><ele>619.0</ele><time>2026-04-11T07:49:54Z</time></trkpt><trkpt lat="43.2278756252029" lon="12.965259439329241"><ele>619.0</ele><time>2026-04-11T07:49:55Z</time></trkpt><trkpt lat="43.22799549527304" lon="12.96524232283089"><ele>619.0</ele><time>2026-04-11T07:49:56Z</time></trkpt><trkpt lat="43.228099964095726" lon="12.965193296079182"><ele>619.0</ele><time>2026-04-11T07:49:57Z</time></trkpt><trkpt lat="43.2281922529848" lon="12.965161609253771"><ele>619.0</ele><time>2026-04-11T07:49:58Z</time></trkpt><trkpt lat="43.2282757043791" lon="12.965127320797475"><ele>621.0</ele><time>2026-04-11T07:49:59Z</time></trkpt><trkpt lat="43.22834678333744" lon="12.96506929827943"><ele>623.0</ele><time>2026-04-11T07:50:00Z</time></trkpt><trkpt lat="43.228401685853584" lon="12.964983127611019"><ele>625.0</ele><time>2026-04-11T07:50:01Z</time></trkpt><trkpt lat="43.228457673246396" lon="12.964925891551477"><ele>627.0</ele><time>2026-04-11T07:50:02Z</time></trkpt><trkpt lat="43.22854092139255" lon="12.96490339856235"><ele>629.0</ele><time>2026-04-11T07:50:03Z</time></trkpt><trkpt lat="43.22859791697849" lon="12.964953140332254"><ele>631.0</ele><time>2026-04-11T07:50:04Z</time></trkpt><trkpt lat="43.22865865891023" lon="12.965029228433483"><ele>625.8333333333334</ele><time>2026-04-11T07:50:05Z</time></trkpt><trkpt lat="43.228715624249254" lon="12.965072785683901"><ele>620.6666666666667</ele><time>2026-04-11T07:50:06Z</time></trkpt><trkpt lat="43.22880692277014" lon="12.965080165389352"><ele>615.5</ele><time>2026-04-11T07:50:07Z</time></trkpt><trkpt lat="43.228885899068025" lon="12.965074414837309"><ele>610.3333333333334</ele><time>2026-04-11T07:50:08Z</time></trkpt><trkpt lat="43.228979026150554" lon="12.965077977753749"><ele>605.1666666666666</ele><time>2026-04-11T07:50:09Z</time></trkpt><trkpt lat="43.2290852617535" lon="12.965081525838373"><ele>600.0</ele><time>2026-04-11T07:50:09.999Z</time></trkpt><trkpt lat="43.22918276730945" lon="12.965064366798522"><ele>601.6666666666666</ele><time>2026-04-11T07:50:10.999Z</time></trkpt><trkpt lat="43.22929546807485" lon="12.965084700865594"><ele>603.3333333333334</ele><time>2026-04-11T07:50:11.999Z</time></trkpt><trkpt lat="43.22938756057487" lon="12.965096908222582"><ele>605.0</ele><time>2026-04-11T07:50:12.999Z</time></trkpt><trkpt lat="43.22946888200955" lon="12.965102869570188"><ele>606.6666666666667</ele><time>2026-04-11T07:50:13.999Z</time></trkpt><trkpt lat="43.22954148744644" lon="12.96509749450109"><ele>608.3333333333334</ele><time>2026-04-11T07:50:14.999Z</time></trkpt><trkpt lat="43.22960875201827" lon="12.965054259299771"><ele>610.0</ele><time>2026-04-11T07:50:15.999Z</time></trkpt><trkpt lat="43.22967036165715" lon="12.96499643053083"><ele>610.0</ele><time>2026-04-11T07:50:16.999Z</time></trkpt><trkpt lat="43.229765698910384" lon="12.964969017313146"><ele>610.0</ele><time>2026-04-11T07:50:17.999Z</time></trkpt><trkpt lat="43.22984632460108" lon="12.964944467405187"><ele>610.0</ele><time>2026-04-11T07:50:18.999Z</time></trkpt><trkpt lat="43.2298967538468" lon="12.96487170863014"><ele>610.0</ele><time>2026-04-11T07:50:19.999Z</time></trkpt><trkpt lat="43.22991229189506" lon="12.964778363498041"><ele>610.0</ele><time>2026-04-11T07:50:20.999Z</time></trkpt><trkpt lat="43.229942874489225" lon="12.964687972647793"><ele>610.0</ele><time>2026-04-11T07:50:21.999Z</time></trkpt><trkpt lat="43.22997747067232" lon="12.964612839803124"><ele>606.3333333333334</ele><time>2026-04-11T07:50:22.999Z</time></trkpt><trkpt lat="43.23001863432112" lon="12.964532493605043"><ele>602.6666666666667</ele><time>2026-04-11T07:50:23.999Z</time></trkpt><trkpt lat="43.230056306337424" lon="12.964461830716283"><ele>599.0</ele><time>2026-04-11T07:50:24.999Z</time></trkpt><trkpt lat="43.230123571075296" lon="12.96439137732354"><ele>595.3333333333334</ele><time>2026-04-11T07:50:26.999Z</time></trkpt><trkpt lat="43.230176830395465" lon="12.964331881163725"><ele>591.6666666666666</ele><time>2026-04-11T07:50:27.999Z</time></trkpt><trkpt lat="43.230234144418546" lon="12.964266566038003"><ele>588.0</ele><time>2026-04-11T07:50:28.999Z</time></trkpt><trkpt lat="43.23033759256238" lon="12.964322589919727"><ele>588.0</ele><time>2026-04-11T07:50:30.999Z</time></trkpt><trkpt lat="43.23040999436773" lon="12.964393654573373"><ele>588.0</ele><time>2026-04-11T07:50:31.999Z</time></trkpt><trkpt lat="43.230490573353656" lon="12.96441712252975"><ele>588.0</ele><time>2026-04-11T07:50:32.999Z</time></trkpt><trkpt lat="43.230573035946705" lon="12.964435449254431"><ele>588.0</ele><time>2026-04-11T07:50:33.999Z</time></trkpt><trkpt lat="43.23069373269793" lon="12.964467752162882"><ele>588.0</ele><time>2026-04-11T07:50:34.999Z</time></trkpt><trkpt lat="43.230785592461174" lon="12.964490523274529"><ele>583.0</ele><time>2026-04-11T07:50:35.999Z</time></trkpt><trkpt lat="43.23087496901339" lon="12.964507599799829"><ele>578.0</ele><time>2026-04-11T07:50:36.999Z</time></trkpt><trkpt lat="43.230980500559745" lon="12.964493580827746"><ele>573.0</ele><time>2026-04-11T07:50:37.999Z</time></trkpt><trkpt lat="43.23107756550463" lon="12.964475616986183"><ele>568.0</ele><time>2026-04-11T07:50:38.999Z</time></trkpt><trkpt lat="43.231166801428394" lon="12.964442665461776"><ele>563.0</ele><time>2026-04-11T07:50:39.999Z</time></trkpt><trkpt lat="43.23125755293097" lon="12.964427724111287"><ele>563.0</ele><time>2026-04-11T07:50:40.999Z</time></trkpt><trkpt lat="43.23133769818953" lon="12.96440445783974"><ele>563.0</ele><time>2026-04-11T07:50:41.999Z</time></trkpt><trkpt lat="43.23140135221044" lon="12.964286676573977"><ele>563.0</ele><time>2026-04-11T07:50:43.999Z</time></trkpt><trkpt lat="43.23146183677848" lon="12.964255200667656"><ele>563.0</ele><time>2026-04-11T07:50:45.999Z</time></trkpt><trkpt lat="43.23157678347325" lon="12.964247235789125"><ele>563.0</ele><time>2026-04-11T07:50:48.999Z</time></trkpt><trkpt lat="43.23170581839199" lon="12.964319052590975"><ele>560.8</ele><time>2026-04-11T07:50:50.999Z</time></trkpt><trkpt lat="43.231773968125474" lon="12.96435035940622"><ele>558.5999999999999</ele><time>2026-04-11T07:50:51.999Z</time></trkpt><trkpt lat="43.231945025748274" lon="12.964389556846992"><ele>556.4000000000001</ele><time>2026-04-11T07:50:52.999Z</time></trkpt><trkpt lat="43.23204983850481" lon="12.964401836755574"><ele>554.2</ele><time>2026-04-11T07:50:53.999Z</time></trkpt><trkpt lat="43.232125816778634" lon="12.964390573290258"><ele>552.0</ele><time>2026-04-11T07:50:54.999Z</time></trkpt><trkpt lat="43.23224599269413" lon="12.96430358490514"><ele>550.6</ele><time>2026-04-11T07:50:56.999Z</time></trkpt><trkpt lat="43.23233279231414" lon="12.964198647076458"><ele>549.2</ele><time>2026-04-11T07:50:57.999Z</time></trkpt><trkpt lat="43.23242864773026" lon="12.964153400521406"><ele>547.8</ele><time>2026-04-11T07:50:58.999Z</time></trkpt><trkpt lat="43.232516834799696" lon="12.964130884238875"><ele>546.4</ele><time>2026-04-11T07:50:59.999Z</time></trkpt><trkpt lat="43.23262415266888" lon="12.964124973949986"><ele>545.0</ele><time>2026-04-11T07:51:00.999Z</time></trkpt><trkpt lat="43.2327249614305" lon="12.964095400061646"><ele>545.0</ele><time>2026-04-11T07:51:01.999Z</time></trkpt><trkpt lat="43.23282092612254" lon="12.964081621993158"><ele>545.0</ele><time>2026-04-11T07:51:02.999Z</time></trkpt><trkpt lat="43.23289608262597" lon="12.964087450076342"><ele>545.0</ele><time>2026-04-11T07:51:03.999Z</time></trkpt><trkpt lat="43.23295416723313" lon="12.964131625674895"><ele>545.0</ele><time>2026-04-11T07:51:05Z</time></trkpt><trkpt lat="43.23303804402949" lon="12.964261362071692"><ele>545.0</ele><time>2026-04-11T07:51:07Z</time></trkpt><trkpt lat="43.23308690685051" lon="12.964370271766693"><ele>539.5</ele><time>2026-04-11T07:51:09Z</time></trkpt><trkpt lat="43.233166835111625" lon="12.964387119399223"><ele>534.0</ele><time>2026-04-11T07:51:12Z</time></trkpt><trkpt lat="43.23324296107505" lon="12.964400441818576"><ele>528.5</ele><time>2026-04-11T07:51:14Z</time></trkpt><trkpt lat="43.233346467990245" lon="12.964391378610516"><ele>523.0</ele><time>2026-04-11T07:51:19Z</time></trkpt><trkpt lat="43.23342143440905" lon="12.964396786395266"><ele>517.5</ele><time>2026-04-11T07:51:20Z</time></trkpt><trkpt lat="43.233491836602276" lon="12.964401416826362"><ele>512.0</ele><time>2026-04-11T07:51:21Z</time></trkpt><trkpt lat="43.233562542818554" lon="12.964410227619348"><ele>511.99999999999994</ele><time>2026-04-11T07:51:22Z</time></trkpt><trkpt lat="43.23363482452478" lon="12.96441697462415"><ele>512.0</ele><time>2026-04-11T07:51:23Z</time></trkpt><trkpt lat="43.23368896217263" lon="12.96435759471169"><ele>512.0</ele><time>2026-04-11T07:51:24Z</time></trkpt><trkpt lat="43.23375322759819" lon="12.96427421245709"><ele>512.0</ele><time>2026-04-11T07:51:25Z</time></trkpt><trkpt lat="43.23382404414044" lon="12.964177868175813"><ele>511.99999999999994</ele><time>2026-04-11T07:51:26Z</time></trkpt><trkpt lat="43.233881104473525" lon="12.964117154744192"><ele>512.0</ele><time>2026-04-11T07:51:27Z</time></trkpt><trkpt lat="43.23395092553324" lon="12.964073744016149"><ele>513.0</ele><time>2026-04-11T07:51:28Z</time></trkpt><trkpt lat="43.234028478100974" lon="12.964059581704895"><ele>514.0</ele><time>2026-04-11T07:51:29Z</time></trkpt><trkpt lat="43.234111831220716" lon="12.964068623397493"><ele>515.0</ele><time>2026-04-11T07:51:30Z</time></trkpt><trkpt lat="43.234202409394086" lon="12.964083048123403"><ele>516.0</ele><time>2026-04-11T07:51:31Z</time></trkpt><trkpt lat="43.234299008754775" lon="12.964094471125334"><ele>517.0</ele><time>2026-04-11T07:51:32Z</time></trkpt><trkpt lat="43.23440956685186" lon="12.964107687835092"><ele>517.0</ele><time>2026-04-11T07:51:33Z</time></trkpt><trkpt lat="43.23451923251133" lon="12.964128514407747"><ele>517.0</ele><time>2026-04-11T07:51:34Z</time></trkpt><trkpt lat="43.23463138620788" lon="12.964153128673402"><ele>517.0</ele><time>2026-04-11T07:51:35Z</time></trkpt><trkpt lat="43.23474138469362" lon="12.964173024617581"><ele>517.0</ele><time>2026-04-11T07:51:36Z</time></trkpt><trkpt lat="43.23482747371452" lon="12.96418899788554"><ele>517.0</ele><time>2026-04-11T07:51:37Z</time></trkpt><trkpt lat="43.2348911201362" lon="12.964191254558363"><ele>517.6</ele><time>2026-04-11T07:51:38Z</time></trkpt><trkpt lat="43.23501476302615" lon="12.964153349484928"><ele>518.2</ele><time>2026-04-11T07:51:40Z</time></trkpt><trkpt lat="43.23507115635014" lon="12.964112013034152"><ele>518.8</ele><time>2026-04-11T07:51:41Z</time></trkpt><trkpt lat="43.23514776482273" lon="12.963997941768564"><ele>519.4</ele><time>2026-04-11T07:51:43Z</time></trkpt><trkpt lat="43.235214672979154" lon="12.963888502642346"><ele>520.0</ele><time>2026-04-11T07:51:45Z</time></trkpt><trkpt lat="43.235254368400625" lon="12.96382129183932"><ele>520.0</ele><time>2026-04-11T07:51:46Z</time></trkpt><trkpt lat="43.23531286303684" lon="12.963678615371235"><ele>520.0</ele><time>2026-04-11T07:51:48Z</time></trkpt><trkpt lat="43.23540113380328" lon="12.963582514447472"><ele>520.0</ele><time>2026-04-11T07:51:50Z</time></trkpt><trkpt lat="43.23548188757863" lon="12.96350586961725"><ele>520.0</ele><time>2026-04-11T07:51:52Z</time></trkpt><trkpt lat="43.235505775798075" lon="12.96337387639228"><ele>520.0</ele><time>2026-04-11T07:51:54Z</time></trkpt><trkpt lat="43.23549496449812" lon="12.963277852615931"><ele>520.6</ele><time>2026-04-11T07:51:55Z</time></trkpt><trkpt lat="43.23547852308143" lon="12.963170771135202"><ele>521.2</ele><time>2026-04-11T07:51:56Z</time></trkpt><trkpt lat="43.23545364017554" lon="12.963037832911883"><ele>521.8</ele><time>2026-04-11T07:51:57Z</time></trkpt><trkpt lat="43.23542813802319" lon="12.962866049751227"><ele>522.4</ele><time>2026-04-11T07:51:58Z</time></trkpt><trkpt lat="43.23539854014212" lon="12.962688746817564"><ele>523.0</ele><time>2026-04-11T07:51:59Z</time></trkpt><trkpt lat="43.23538880430797" lon="12.962476050729862"><ele>523.0</ele><time>2026-04-11T07:52:00Z</time></trkpt><trkpt lat="43.2353600622257" lon="12.962253396081808"><ele>523.0</ele><time>2026-04-11T07:52:01Z</time></trkpt><trkpt lat="43.23533025611963" lon="12.962036697110044"><ele>523.0</ele><time>2026-04-11T07:52:02Z</time></trkpt><trkpt lat="43.23531246990363" lon="12.961837894362645"><ele>522.4</ele><time>2026-04-11T07:52:03Z</time></trkpt><trkpt lat="43.23528917202151" lon="12.96166295569629"><ele>521.8</ele><time>2026-04-11T07:52:04Z</time></trkpt><trkpt lat="43.23527508455957" lon="12.9614972503864"><ele>521.2</ele><time>2026-04-11T07:52:05Z</time></trkpt><trkpt lat="43.235268356763676" lon="12.961346137861018"><ele>520.6</ele><time>2026-04-11T07:52:06Z</time></trkpt><trkpt lat="43.23527931407275" lon="12.961236123032476"><ele>520.0</ele><time>2026-04-11T07:52:07Z</time></trkpt><trkpt lat="43.235300525305746" lon="12.961103811129536"><ele>520.0</ele><time>2026-04-11T07:52:08Z</time></trkpt><trkpt lat="43.235330267827145" lon="12.960985299396189"><ele>520.0</ele><time>2026-04-11T07:52:09Z</time></trkpt><trkpt lat="43.23536077358264" lon="12.960795337412293"><ele>520.0</ele><time>2026-04-11T07:52:11Z</time></trkpt><trkpt lat="43.23536500611655" lon="12.960668801355048"><ele>520.0</ele><time>2026-04-11T07:52:12Z</time></trkpt><trkpt lat="43.23528509375385" lon="12.96048395081459"><ele>518.25</ele><time>2026-04-11T07:52:14Z</time></trkpt><trkpt lat="43.23519679261675" lon="12.960358227933668"><ele>516.5</ele><time>2026-04-11T07:52:15Z</time></trkpt><trkpt lat="43.235080893957196" lon="12.960218962330806"><ele>514.75</ele><time>2026-04-11T07:52:16Z</time></trkpt><trkpt lat="43.234979662877834" lon="12.960079347116357"><ele>513.0</ele><time>2026-04-11T07:52:17Z</time></trkpt><trkpt lat="43.23490168625659" lon="12.959963939830885"><ele>510.2</ele><time>2026-04-11T07:52:17.999Z</time></trkpt><trkpt lat="43.234853108265824" lon="12.959841725569088"><ele>507.4</ele><time>2026-04-11T07:52:18.999Z</time></trkpt><trkpt lat="43.23484167140205" lon="12.95972041591674"><ele>504.59999999999997</ele><time>2026-04-11T07:52:19.999Z</time></trkpt><trkpt lat="43.23487564880535" lon="12.959588538670099"><ele>501.79999999999995</ele><time>2026-04-11T07:52:20.999Z</time></trkpt><trkpt lat="43.23491034996815" lon="12.959407835659386"><ele>499.0</ele><time>2026-04-11T07:52:21.999Z</time></trkpt><trkpt lat="43.23494187546761" lon="12.959232517660748"><ele>494.75</ele><time>2026-04-11T07:52:22.999Z</time></trkpt><trkpt lat="43.23495710103649" lon="12.959080221844632"><ele>490.5</ele><time>2026-04-11T07:52:23.999Z</time></trkpt><trkpt lat="43.23495480796678" lon="12.958915504533087"><ele>486.25</ele><time>2026-04-11T07:52:24.999Z</time></trkpt><trkpt lat="43.234921145850315" lon="12.9587410170057"><ele>482.0</ele><time>2026-04-11T07:52:25.999Z</time></trkpt><trkpt lat="43.23490293484221" lon="12.958586373631197"><ele>482.0</ele><time>2026-04-11T07:52:26.999Z</time></trkpt><trkpt lat="43.234867363344215" lon="12.958429117740584"><ele>482.0</ele><time>2026-04-11T07:52:27.999Z</time></trkpt><trkpt lat="43.234825427711534" lon="12.958247057662986"><ele>482.0</ele><time>2026-04-11T07:52:28.999Z</time></trkpt><trkpt lat="43.23481864824851" lon="12.958123492153785"><ele>482.0</ele><time>2026-04-11T07:52:29.999Z</time></trkpt><trkpt lat="43.2348102550162" lon="12.957950424537874"><ele>480.0</ele><time>2026-04-11T07:52:30.999Z</time></trkpt><trkpt lat="43.234804702321426" lon="12.957797253961775"><ele>478.0</ele><time>2026-04-11T07:52:31.999Z</time></trkpt><trkpt lat="43.23481124279577" lon="12.957615473576476"><ele>476.0</ele><time>2026-04-11T07:52:32.999Z</time></trkpt><trkpt lat="43.23481342879479" lon="12.957441473797648"><ele>474.0</ele><time>2026-04-11T07:52:33.999Z</time></trkpt><trkpt lat="43.23482590472524" lon="12.957263010503663"><ele>471.75</ele><time>2026-04-11T07:52:34.999Z</time></trkpt><trkpt lat="43.23482794016784" lon="12.957092150218317"><ele>469.5</ele><time>2026-04-11T07:52:35.999Z</time></trkpt><trkpt lat="43.23482034284843" lon="12.956912774310254"><ele>467.25</ele><time>2026-04-11T07:52:36.999Z</time></trkpt><trkpt lat="43.234809873323314" lon="12.956747993377167"><ele>465.0</ele><time>2026-04-11T07:52:37.999Z</time></trkpt><trkpt lat="43.23479152698586" lon="12.956641659675208"><ele>463.8333333333333</ele><time>2026-04-11T07:52:38.999Z</time></trkpt><trkpt lat="43.234782097587974" lon="12.956539666304668"><ele>462.66666666666663</ele><time>2026-04-11T07:52:39.999Z</time></trkpt><trkpt lat="43.2348445868936" lon="12.95648337232929"><ele>461.5</ele><time>2026-04-11T08:01:13.999Z</time></trkpt><trkpt lat="43.23494833276144" lon="12.956467125269961"><ele>460.3333333333333</ele><time>2026-04-11T08:01:15.999Z</time></trkpt><trkpt lat="43.23502397737945" lon="12.956438468329045"><ele>459.16666666666663</ele><time>2026-04-11T08:01:16.999Z</time></trkpt><trkpt lat="43.235124237721756" lon="12.956411743586468"><ele>458.0</ele><time>2026-04-11T08:01:17.999Z</time></trkpt><trkpt lat="43.235230860100856" lon="12.95638461104492"><ele>458.0</ele><time>2026-04-11T08:01:18.999Z</time></trkpt><trkpt lat="43.23535085876262" lon="12.95641878875047"><ele>457.99999999999994</ele><time>2026-04-11T08:01:19.999Z</time></trkpt><trkpt lat="43.235429728486025" lon="12.956453624530706"><ele>457.99999999999994</ele><time>2026-04-11T08:01:20.999Z</time></trkpt><trkpt lat="43.235523876991515" lon="12.956493580424219"><ele>458.0</ele><time>2026-04-11T08:01:21.999Z</time></trkpt><trkpt lat="43.235601191168286" lon="12.956560750352493"><ele>458.0</ele><time>2026-04-11T08:01:22.999Z</time></trkpt><trkpt lat="43.235677951448714" lon="12.956612447543622"><ele>458.16666666666663</ele><time>2026-04-11T08:01:23.999Z</time></trkpt><trkpt lat="43.23574797209249" lon="12.956656214830652"><ele>458.3333333333333</ele><time>2026-04-11T08:01:24.999Z</time></trkpt><trkpt lat="43.23581186516371" lon="12.956692406808664"><ele>458.5</ele><time>2026-04-11T08:01:25.999Z</time></trkpt><trkpt lat="43.23587282110559" lon="12.956715003419808"><ele>458.66666666666663</ele><time>2026-04-11T08:01:26.999Z</time></trkpt><trkpt lat="43.23594871299118" lon="12.956730911049286"><ele>458.8333333333333</ele><time>2026-04-11T08:01:27.999Z</time></trkpt><trkpt lat="43.23603201183375" lon="12.956807707601083"><ele>459.0</ele><time>2026-04-11T08:01:28.999Z</time></trkpt><trkpt lat="43.23613920985596" lon="12.956863113700923"><ele>459.25</ele><time>2026-04-11T08:01:29.999Z</time></trkpt><trkpt lat="43.23624647701458" lon="12.956918555510688"><ele>459.5</ele><time>2026-04-11T08:01:30.998Z</time></trkpt><trkpt lat="43.23636160514894" lon="12.956978060323175"><ele>459.75</ele><time>2026-04-11T08:01:31.998Z</time></trkpt><trkpt lat="43.23648606495405" lon="12.957041846410357"><ele>460.0</ele><time>2026-04-11T08:01:32.998Z</time></trkpt><trkpt lat="43.2366026652454" lon="12.957104430622394"><ele>460.0</ele><time>2026-04-11T08:01:33.998Z</time></trkpt><trkpt lat="43.23671417037394" lon="12.957167208511757"><ele>460.0</ele><time>2026-04-11T08:01:34.999Z</time></trkpt><trkpt lat="43.23681811698715" lon="12.957220272890938"><ele>460.0</ele><time>2026-04-11T08:01:35.999Z</time></trkpt><trkpt lat="43.23692885012842" lon="12.957274263520492"><ele>460.0</ele><time>2026-04-11T08:01:36.999Z</time></trkpt><trkpt lat="43.23704504501827" lon="12.957312732762153"><ele>460.0</ele><time>2026-04-11T08:01:37.999Z</time></trkpt><trkpt lat="43.23714643257162" lon="12.957399145857188"><ele>460.0</ele><time>2026-04-11T08:01:38.999Z</time></trkpt><trkpt lat="43.23725012915116" lon="12.957471465153377"><ele>460.0</ele><time>2026-04-11T08:01:39.999Z</time></trkpt><trkpt lat="43.23736142541257" lon="12.95752969409522"><ele>460.0</ele><time>2026-04-11T08:01:40.999Z</time></trkpt><trkpt lat="43.23746727078624" lon="12.957621126010498"><ele>459.25</ele><time>2026-04-11T08:01:41.999Z</time></trkpt><trkpt lat="43.237574208628224" lon="12.9577152055131"><ele>458.5</ele><time>2026-04-11T08:01:42.999Z</time></trkpt><trkpt lat="43.23768101976759" lon="12.957802545660497"><ele>457.75</ele><time>2026-04-11T08:01:43.999Z</time></trkpt><trkpt lat="43.23778384854852" lon="12.95789908741089"><ele>457.0</ele><time>2026-04-11T08:01:44.999Z</time></trkpt><trkpt lat="43.23787894466458" lon="12.957991954974672"><ele>457.0</ele><time>2026-04-11T08:01:45.999Z</time></trkpt><trkpt lat="43.23797552529153" lon="12.958081187942579"><ele>457.00000000000006</ele><time>2026-04-11T08:01:46.999Z</time></trkpt><trkpt lat="43.23807327212252" lon="12.958162786429668"><ele>457.00000000000006</ele><time>2026-04-11T08:01:47.999Z</time></trkpt><trkpt lat="43.23817204659468" lon="12.95823439454192"><ele>457.0</ele><time>2026-04-11T08:01:48.999Z</time></trkpt><trkpt lat="43.23826772140046" lon="12.958288839848489"><ele>457.0</ele><time>2026-04-11T08:01:49.999Z</time></trkpt><trkpt lat="43.23836824273385" lon="12.958336622847193"><ele>455.6</ele><time>2026-04-11T08:01:50.999Z</time></trkpt><trkpt lat="43.238464494732646" lon="12.958379447321695"><ele>454.20000000000005</ele><time>2026-04-11T08:01:51.999Z</time></trkpt><trkpt lat="43.238555814125995" lon="12.95845604981323"><ele>452.8</ele><time>2026-04-11T08:01:52.999Z</time></trkpt><trkpt lat="43.238640227610055" lon="12.958512681970406"><ele>451.4</ele><time>2026-04-11T08:01:53.999Z</time></trkpt><trkpt lat="43.238728718761784" lon="12.958565912779147"><ele>450.0</ele><time>2026-04-11T08:01:54.999Z</time></trkpt><trkpt lat="43.238812592986626" lon="12.958633026167174"><ele>450.0</ele><time>2026-04-11T08:01:55.999Z</time></trkpt><trkpt lat="43.23889763524761" lon="12.958700149856698"><ele>450.0</ele><time>2026-04-11T08:01:56.999Z</time></trkpt><trkpt lat="43.23898433539443" lon="12.95877457447683"><ele>450.0</ele><time>2026-04-11T08:01:57.999Z</time></trkpt><trkpt lat="43.23906924127431" lon="12.958846018352254"><ele>450.0</ele><time>2026-04-11T08:01:58.999Z</time></trkpt><trkpt lat="43.23914918285684" lon="12.958915785257558"><ele>450.0</ele><time>2026-04-11T08:01:59.999Z</time></trkpt><trkpt lat="43.23921660343117" lon="12.958972584024735"><ele>451.8</ele><time>2026-04-11T08:02:00.999Z</time></trkpt><trkpt lat="43.23928332544769" lon="12.959024366349379"><ele>453.6</ele><time>2026-04-11T08:02:01.999Z</time></trkpt><trkpt lat="43.239386729089766" lon="12.959109281102686"><ele>455.4</ele><time>2026-04-11T08:02:03.999Z</time></trkpt><trkpt lat="43.23945057772161" lon="12.959169993193159"><ele>457.2</ele><time>2026-04-11T08:02:05.999Z</time></trkpt><trkpt lat="43.23936716671167" lon="12.959098069273406"><ele>459.0</ele><time>2026-04-11T08:02:13.999Z</time></trkpt><trkpt lat="43.23935791489938" lon="12.958960825964155"><ele>459.0</ele><time>2026-04-11T08:02:14.999Z</time></trkpt><trkpt lat="43.239263728338" lon="12.958904037377492"><ele>459.0</ele><time>2026-04-11T08:02:16.999Z</time></trkpt><trkpt lat="43.23923881150937" lon="12.958775658466804"><ele>459.0</ele><time>2026-04-11T08:02:18.999Z</time></trkpt><trkpt lat="43.23924241115611" lon="12.958638423791262"><ele>459.0</ele><time>2026-04-11T08:02:20.999Z</time></trkpt><trkpt lat="43.23919332719296" lon="12.95856498091646"><ele>459.0</ele><time>2026-04-11T08:02:21.999Z</time></trkpt><trkpt lat="43.23913283672403" lon="12.958486204513877"><ele>459.0</ele><time>2026-04-11T08:02:23.999Z</time></trkpt><trkpt lat="43.2391069840041" lon="12.958377683476922"><ele>459.0</ele><time>2026-04-11T08:02:25.999Z</time></trkpt><trkpt lat="43.239065770534545" lon="12.958250365557548"><ele>459.0</ele><time>2026-04-11T08:02:27.999Z</time></trkpt><trkpt lat="43.239009840692134" lon="12.958181815061925"><ele>459.0</ele><time>2026-04-11T08:02:29.999Z</time></trkpt><trkpt lat="43.23905661412914" lon="12.958090874830516"><ele>459.0</ele><time>2026-04-11T08:02:31.999Z</time></trkpt><trkpt lat="43.23913182177799" lon="12.95799939778507"><ele>459.0</ele><time>2026-04-11T08:02:33.999Z</time></trkpt><trkpt lat="43.239196388176985" lon="12.957906872305342"><ele>461.5</ele><time>2026-04-11T08:02:35.999Z</time></trkpt><trkpt lat="43.239235946696205" lon="12.957829171146027"><ele>464.0</ele><time>2026-04-11T08:02:37.999Z</time></trkpt><trkpt lat="43.23926310616372" lon="12.957714241373779"><ele>466.5</ele><time>2026-04-11T08:02:51.999Z</time></trkpt><trkpt lat="43.23929005407298" lon="12.957612564728604"><ele>469.0</ele><time>2026-04-11T08:02:56.999Z</time></trkpt><trkpt lat="43.23931587356148" lon="12.957471381887222"><ele>471.5</ele><time>2026-04-11T08:02:58.999Z</time></trkpt><trkpt lat="43.23932918611735" lon="12.957370143112692"><ele>474.0</ele><time>2026-04-11T08:02:59.999Z</time></trkpt><trkpt lat="43.23934151036017" lon="12.957250260917611"><ele>477.8333333333333</ele><time>2026-04-11T08:03:00.999Z</time></trkpt><trkpt lat="43.2393615106184" lon="12.957131035949772"><ele>481.66666666666663</ele><time>2026-04-11T08:03:01.999Z</time></trkpt><trkpt lat="43.239383273605625" lon="12.957046864516105"><ele>485.5</ele><time>2026-04-11T08:03:02.999Z</time></trkpt><trkpt lat="43.23940452501349" lon="12.956950803282998"><ele>489.3333333333333</ele><time>2026-04-11T08:03:03.999Z</time></trkpt><trkpt lat="43.239436702497244" lon="12.95681224765322"><ele>493.16666666666663</ele><time>2026-04-11T08:03:05.999Z</time></trkpt><trkpt lat="43.239466676888384" lon="12.956683968338556"><ele>497.0</ele><time>2026-04-11T08:03:06.999Z</time></trkpt><trkpt lat="43.23951137858508" lon="12.95653929605119"><ele>499.3333333333333</ele><time>2026-04-11T08:03:07.999Z</time></trkpt><trkpt lat="43.239558207898" lon="12.956442865102353"><ele>501.66666666666663</ele><time>2026-04-11T08:03:08.999Z</time></trkpt><trkpt lat="43.239578009485555" lon="12.956351763850904"><ele>504.0</ele><time>2026-04-11T08:03:09.999Z</time></trkpt><trkpt lat="43.239600079382285" lon="12.95623099199099"><ele>506.33333333333337</ele><time>2026-04-11T08:03:10.999Z</time></trkpt><trkpt lat="43.2396116193819" lon="12.956126328069827"><ele>508.6666666666667</ele><time>2026-04-11T08:03:11.998Z</time></trkpt><trkpt lat="43.23961282601898" lon="12.956029727529994"><ele>511.0</ele><time>2026-04-11T08:03:12.998Z</time></trkpt><trkpt lat="43.239625891925186" lon="12.955886594742505"><ele>513.3333333333334</ele><time>2026-04-11T08:03:14.998Z</time></trkpt><trkpt lat="43.239633462606115" lon="12.95579792805967"><ele>515.6666666666667</ele><time>2026-04-11T08:03:17.998Z</time></trkpt><trkpt lat="43.23967096594519" lon="12.955695908211911"><ele>518.0</ele><time>2026-04-11T08:03:29.998Z</time></trkpt><trkpt lat="43.239679764584345" lon="12.955605603129214"><ele>520.3333333333334</ele><time>2026-04-11T08:03:32.998Z</time></trkpt><trkpt lat="43.23971817187862" lon="12.95545365613353"><ele>522.6666666666666</ele><time>2026-04-11T08:03:35.998Z</time></trkpt><trkpt lat="43.23972878632291" lon="12.95535504709101"><ele>525.0</ele><time>2026-04-11T08:03:36.998Z</time></trkpt><trkpt lat="43.23973307217353" lon="12.955259994309355"><ele>525.0</ele><time>2026-04-11T08:03:37.998Z</time></trkpt><trkpt lat="43.23972007035945" lon="12.955137959184617"><ele>525.0</ele><time>2026-04-11T08:03:38.998Z</time></trkpt><trkpt lat="43.23972361995429" lon="12.955039462279426"><ele>525.0</ele><time>2026-04-11T08:03:39.998Z</time></trkpt><trkpt lat="43.23974246293023" lon="12.95489222317126"><ele>525.0</ele><time>2026-04-11T08:03:42Z</time></trkpt><trkpt lat="43.23975893608987" lon="12.954765535669251"><ele>525.0</ele><time>2026-04-11T08:03:44Z</time></trkpt><trkpt lat="43.239755903126344" lon="12.954646240150465"><ele>527.6</ele><time>2026-04-11T08:03:46Z</time></trkpt><trkpt lat="43.23975224537084" lon="12.954505015542217"><ele>530.2</ele><time>2026-04-11T08:03:48Z</time></trkpt><trkpt lat="43.239737383901065" lon="12.954331178869424"><ele>532.8</ele><time>2026-04-11T08:03:49.999Z</time></trkpt><trkpt lat="43.23971581704663" lon="12.954230009394783"><ele>535.4</ele><time>2026-04-11T08:03:50.999Z</time></trkpt><trkpt lat="43.23968573011574" lon="12.954131311933738"><ele>538.0</ele><time>2026-04-11T08:03:51.999Z</time></trkpt><trkpt lat="43.23963757382728" lon="12.954012897342059"><ele>538.1666666666667</ele><time>2026-04-11T08:03:52.999Z</time></trkpt><trkpt lat="43.23959683397864" lon="12.953907199321675"><ele>538.3333333333334</ele><time>2026-04-11T08:03:53.999Z</time></trkpt><trkpt lat="43.23956206404181" lon="12.953808041706097"><ele>538.5</ele><time>2026-04-11T08:03:54.999Z</time></trkpt><trkpt lat="43.23953544145724" lon="12.953723320517563"><ele>538.6666666666666</ele><time>2026-04-11T08:03:55.999Z</time></trkpt><trkpt lat="43.23951901066193" lon="12.953628271696509"><ele>538.8333333333333</ele><time>2026-04-11T08:03:56.999Z</time></trkpt><trkpt lat="43.23950155796737" lon="12.953525974390057"><ele>539.0</ele><time>2026-04-11T08:03:57.999Z</time></trkpt><trkpt lat="43.239479290513366" lon="12.953426770616371"><ele>539.0</ele><time>2026-04-11T08:03:58.999Z</time></trkpt><trkpt lat="43.23947116895459" lon="12.953312587922085"><ele>539.0</ele><time>2026-04-11T08:03:59.999Z</time></trkpt><trkpt lat="43.23947185721255" lon="12.953207264945753"><ele>539.0</ele><time>2026-04-11T08:04:00.999Z</time></trkpt><trkpt lat="43.23947037530238" lon="12.953096056446629"><ele>539.0</ele><time>2026-04-11T08:04:01.999Z</time></trkpt><trkpt lat="43.239485241539604" lon="12.952970278363782"><ele>539.0</ele><time>2026-04-11T08:04:02.999Z</time></trkpt><trkpt lat="43.239495604012134" lon="12.952846945740388"><ele>539.0</ele><time>2026-04-11T08:04:03.999Z</time></trkpt><trkpt lat="43.23949482928122" lon="12.952728390257539"><ele>539.0</ele><time>2026-04-11T08:04:04.999Z</time></trkpt><trkpt lat="43.23950874225321" lon="12.952610522360043"><ele>539.0</ele><time>2026-04-11T08:04:05.999Z</time></trkpt><trkpt lat="43.239513368032796" lon="12.952521864641843"><ele>539.0</ele><time>2026-04-11T08:04:06.999Z</time></trkpt><trkpt lat="43.23948854439933" lon="12.952365124578245"><ele>539.0</ele><time>2026-04-11T08:04:09.999Z</time></trkpt><trkpt lat="43.2394785022093" lon="12.952266283256327"><ele>539.0</ele><time>2026-04-11T08:04:10.999Z</time></trkpt><trkpt lat="43.23944487509184" lon="12.952172370266553"><ele>539.0</ele><time>2026-04-11T08:04:11.999Z</time></trkpt><trkpt lat="43.23944186626361" lon="12.952052587704102"><ele>540.6</ele><time>2026-04-11T08:04:12.999Z</time></trkpt><trkpt lat="43.239481467483415" lon="12.951865600050786"><ele>542.2</ele><time>2026-04-11T08:04:14.999Z</time></trkpt><trkpt lat="43.23947758726215" lon="12.951765198371385"><ele>543.8000000000001</ele><time>2026-04-11T08:04:15.999Z</time></trkpt><trkpt lat="43.23949276989534" lon="12.951661744977272"><ele>545.4</ele><time>2026-04-11T08:04:16.999Z</time></trkpt><trkpt lat="43.239532134437745" lon="12.951541000606206"><ele>547.0</ele><time>2026-04-11T08:04:17.999Z</time></trkpt><trkpt lat="43.239569574988344" lon="12.951456937626363"><ele>549.8000000000001</ele><time>2026-04-11T08:04:18.999Z</time></trkpt><trkpt lat="43.23959397119262" lon="12.951351459259905"><ele>552.6</ele><time>2026-04-11T08:04:19.999Z</time></trkpt><trkpt lat="43.23957582858641" lon="12.951228509618918"><ele>555.4000000000001</ele><time>2026-04-11T08:04:20.999Z</time></trkpt><trkpt lat="43.23957630935725" lon="12.95107887515171"><ele>558.2</ele><time>2026-04-11T08:04:21.999Z</time></trkpt><trkpt lat="43.23961037732201" lon="12.950947621070164"><ele>561.0</ele><time>2026-04-11T08:04:22.999Z</time></trkpt><trkpt lat="43.23963813347001" lon="12.950827339230774"><ele>563.5</ele><time>2026-04-11T08:04:23.999Z</time></trkpt><trkpt lat="43.23964512364781" lon="12.950674763645498"><ele>566.0</ele><time>2026-04-11T08:04:24.999Z</time></trkpt><trkpt lat="43.23965093239123" lon="12.950537135054084"><ele>568.5</ele><time>2026-04-11T08:04:25.999Z</time></trkpt><trkpt lat="43.23966543031078" lon="12.950420888754255"><ele>571.0</ele><time>2026-04-11T08:04:26.999Z</time></trkpt><trkpt lat="43.23968652172563" lon="12.950331719052004"><ele>573.5</ele><time>2026-04-11T08:04:27.999Z</time></trkpt><trkpt lat="43.23971041646254" lon="12.950247655859808"><ele>576.0</ele><time>2026-04-11T08:04:28.999Z</time></trkpt><trkpt lat="43.239724961472824" lon="12.950125636576354"><ele>578.8333333333334</ele><time>2026-04-11T08:04:29.999Z</time></trkpt><trkpt lat="43.23976845360992" lon="12.949970025014713"><ele>581.6666666666666</ele><time>2026-04-11T08:04:31.999Z</time></trkpt><trkpt lat="43.23978709841535" lon="12.949856446753042"><ele>584.5</ele><time>2026-04-11T08:04:33.999Z</time></trkpt><trkpt lat="43.239712757771805" lon="12.949829812765381"><ele>587.3333333333333</ele><time>2026-04-11T08:04:35.999Z</time></trkpt><trkpt lat="43.239643356081295" lon="12.949765706274722"><ele>590.1666666666666</ele><time>2026-04-11T08:04:38.999Z</time></trkpt><trkpt lat="43.23965649081377" lon="12.949661619405783"><ele>593.0</ele><time>2026-04-11T08:04:39.999Z</time></trkpt><trkpt lat="43.239677573068256" lon="12.949559616377968"><ele>593.0</ele><time>2026-04-11T08:04:40.999Z</time></trkpt><trkpt lat="43.239685319771034" lon="12.949449797480812"><ele>593.0</ele><time>2026-04-11T08:04:41.999Z</time></trkpt><trkpt lat="43.239640885878934" lon="12.94931447150109"><ele>593.0</ele><time>2026-04-11T08:04:43.999Z</time></trkpt><trkpt lat="43.23960221514682" lon="12.94923336352896"><ele>593.0</ele><time>2026-04-11T08:04:44.999Z</time></trkpt><trkpt lat="43.23960865193642" lon="12.949086536221033"><ele>593.0</ele><time>2026-04-11T08:04:46.999Z</time></trkpt><trkpt lat="43.239585369544805" lon="12.948917906476899"><ele>596.5</ele><time>2026-04-11T08:04:48.999Z</time></trkpt><trkpt lat="43.2395504597466" lon="12.94882633645849"><ele>600.0</ele><time>2026-04-11T08:04:49.999Z</time></trkpt><trkpt lat="43.23951753960788" lon="12.94874222460875"><ele>603.5</ele><time>2026-04-11T08:04:50.999Z</time></trkpt><trkpt lat="43.23949417526796" lon="12.94864348463514"><ele>607.0</ele><time>2026-04-11T08:04:51.999Z</time></trkpt><trkpt lat="43.2394461849182" lon="12.94848438986151"><ele>610.5</ele><time>2026-04-11T08:04:53.999Z</time></trkpt><trkpt lat="43.239440080183954" lon="12.94834718351525"><ele>614.0</ele><time>2026-04-11T08:04:55.999Z</time></trkpt><trkpt lat="43.239426674253004" lon="12.94826215076816"><ele>616.8333333333333</ele><time>2026-04-11T08:04:57.999Z</time></trkpt><trkpt lat="43.239375083539" lon="12.948133260941983"><ele>619.6666666666666</ele><time>2026-04-11T08:05:40.998Z</time></trkpt><trkpt lat="43.239357528950315" lon="12.948018411538513"><ele>622.5</ele><time>2026-04-11T08:05:43.998Z</time></trkpt><trkpt lat="43.23935221324819" lon="12.94790774687263"><ele>625.3333333333334</ele><time>2026-04-11T08:05:45.998Z</time></trkpt><trkpt lat="43.23933287842785" lon="12.947807215472602"><ele>628.1666666666667</ele><time>2026-04-11T08:05:48Z</time></trkpt><trkpt lat="43.239290954962385" lon="12.94770382945416"><ele>631.0</ele><time>2026-04-11T08:05:50Z</time></trkpt><trkpt lat="43.239260797594845" lon="12.947614465352103"><ele>633.8</ele><time>2026-04-11T08:05:52Z</time></trkpt><trkpt lat="43.23922209393546" lon="12.947522124952197"><ele>636.6</ele><time>2026-04-11T08:05:54Z</time></trkpt><trkpt lat="43.23918823176415" lon="12.947422028986514"><ele>639.4</ele><time>2026-04-11T08:05:56Z</time></trkpt><trkpt lat="43.239151494580625" lon="12.947292635613667"><ele>642.2</ele><time>2026-04-11T08:05:58Z</time></trkpt><trkpt lat="43.23912619034278" lon="12.947166750552167"><ele>645.0</ele><time>2026-04-11T08:06:00Z</time></trkpt><trkpt lat="43.23910755925111" lon="12.947034417018605"><ele>645.0</ele><time>2026-04-11T08:06:02Z</time></trkpt><trkpt lat="43.23908374198271" lon="12.946875453105116"><ele>645.0</ele><time>2026-04-11T08:06:04Z</time></trkpt><trkpt lat="43.23905617307235" lon="12.94668153075563"><ele>645.0</ele><time>2026-04-11T08:06:06Z</time></trkpt><trkpt lat="43.23905183078431" lon="12.94656286997818"><ele>645.0</ele><time>2026-04-11T08:06:07Z</time></trkpt><trkpt lat="43.2390588634053" lon="12.946440467253955"><ele>645.0</ele><time>2026-04-11T08:06:08Z</time></trkpt><trkpt lat="43.239052077023445" lon="12.946331336786757"><ele>646.0</ele><time>2026-04-11T08:06:09Z</time></trkpt><trkpt lat="43.239034087923045" lon="12.946201955489878"><ele>647.0</ele><time>2026-04-11T08:06:10Z</time></trkpt><trkpt lat="43.23902415853177" lon="12.946064659118461"><ele>648.0</ele><time>2026-04-11T08:06:11Z</time></trkpt><trkpt lat="43.23901380614613" lon="12.945944075214042"><ele>649.0</ele><time>2026-04-11T08:06:12Z</time></trkpt><trkpt lat="43.239002829307225" lon="12.945851899109242"><ele>650.0</ele><time>2026-04-11T08:06:13Z</time></trkpt><trkpt lat="43.23899459946763" lon="12.945753024890001"><ele>651.0</ele><time>2026-04-11T08:06:14Z</time></trkpt><trkpt lat="43.23898931417163" lon="12.945658510041932"><ele>651.5999999999999</ele><time>2026-04-11T08:06:15Z</time></trkpt><trkpt lat="43.23897619732511" lon="12.945554293528245"><ele>652.2</ele><time>2026-04-11T08:06:16Z</time></trkpt><trkpt lat="43.23895432023851" lon="12.945436335391955"><ele>652.8</ele><time>2026-04-11T08:06:17Z</time></trkpt><trkpt lat="43.2389390253989" lon="12.945297004796094"><ele>653.4000000000001</ele><time>2026-04-11T08:06:18Z</time></trkpt><trkpt lat="43.238906871981996" lon="12.945154979246238"><ele>654.0</ele><time>2026-04-11T08:06:19Z</time></trkpt><trkpt lat="43.238871478904" lon="12.945004975367615"><ele>664.6</ele><time>2026-04-11T08:06:20Z</time></trkpt><trkpt lat="43.23885092947368" lon="12.944865154772053"><ele>675.2</ele><time>2026-04-11T08:06:21Z</time></trkpt><trkpt lat="43.238818261173776" lon="12.944723327320505"><ele>685.8000000000001</ele><time>2026-04-11T08:06:22Z</time></trkpt><trkpt lat="43.238792572363984" lon="12.944585957430697"><ele>696.4000000000001</ele><time>2026-04-11T08:06:22.999Z</time></trkpt><trkpt lat="43.23876414414872" lon="12.944475358744835"><ele>707.0</ele><time>2026-04-11T08:06:23.999Z</time></trkpt><trkpt lat="43.23874029163663" lon="12.944360837632713"><ele>707.0</ele><time>2026-04-11T08:06:25.999Z</time></trkpt><trkpt lat="43.238725912462584" lon="12.94427271439822"><ele>707.0</ele><time>2026-04-11T08:06:27.999Z</time></trkpt><trkpt lat="43.238725557808685" lon="12.944173077566523"><ele>707.0</ele><time>2026-04-11T08:06:28.999Z</time></trkpt><trkpt lat="43.2387325469244" lon="12.94404365015977"><ele>707.0</ele><time>2026-04-11T08:06:29.999Z</time></trkpt><trkpt lat="43.23872755966524" lon="12.943947942806476"><ele>707.0</ele><time>2026-04-11T08:06:30.999Z</time></trkpt><trkpt lat="43.238724468500145" lon="12.943844460835086"><ele>707.0</ele><time>2026-04-11T08:06:31.999Z</time></trkpt><trkpt lat="43.2387061029648" lon="12.943704106931438"><ele>706.6</ele><time>2026-04-11T08:06:32.999Z</time></trkpt><trkpt lat="43.23870318818693" lon="12.943549964098793"><ele>706.2</ele><time>2026-04-11T08:06:33.999Z</time></trkpt><trkpt lat="43.238713632070954" lon="12.943420112476497"><ele>705.8</ele><time>2026-04-11T08:06:34.999Z</time></trkpt><trkpt lat="43.23872210197848" lon="12.943317483468938"><ele>705.4</ele><time>2026-04-11T08:06:35.999Z</time></trkpt><trkpt lat="43.23872600048088" lon="12.943219782744917"><ele>705.0</ele><time>2026-04-11T08:06:36.999Z</time></trkpt><trkpt lat="43.23872760421517" lon="12.943056071079727"><ele>704.1666666666666</ele><time>2026-04-11T08:06:38.999Z</time></trkpt><trkpt lat="43.23873283561297" lon="12.942959063976645"><ele>703.3333333333334</ele><time>2026-04-11T08:06:39.999Z</time></trkpt><trkpt lat="43.238745175415126" lon="12.942863065220788"><ele>702.5</ele><time>2026-04-11T08:06:40.999Z</time></trkpt><trkpt lat="43.23877446588333" lon="12.942691055294162"><ele>701.6666666666667</ele><time>2026-04-11T08:06:42.999Z</time></trkpt><trkpt lat="43.238793845808" lon="12.942594274219264"><ele>700.8333333333334</ele><time>2026-04-11T08:06:43.999Z</time></trkpt><trkpt lat="43.23882178325264" lon="12.942503214545422"><ele>700.0</ele><time>2026-04-11T08:06:44.999Z</time></trkpt><trkpt lat="43.2388671208201" lon="12.942421039002244"><ele>700.0</ele><time>2026-04-11T08:06:45.999Z</time></trkpt><trkpt lat="43.238958501204124" lon="12.942313243844561"><ele>700.0</ele><time>2026-04-11T08:06:47.999Z</time></trkpt><trkpt lat="43.23901227280435" lon="12.942208162915925"><ele>700.0</ele><time>2026-04-11T08:06:49.999Z</time></trkpt><trkpt lat="43.23905813551004" lon="12.942076661737788"><ele>700.0</ele><time>2026-04-11T08:06:51.999Z</time></trkpt><trkpt lat="43.23908563737698" lon="12.941989137106935"><ele>700.0</ele><time>2026-04-11T08:06:52.999Z</time></trkpt><trkpt lat="43.239119567115964" lon="12.94188115578625"><ele>696.8</ele><time>2026-04-11T08:06:53.999Z</time></trkpt><trkpt lat="43.239107770089056" lon="12.94173258437089"><ele>693.6</ele><time>2026-04-11T08:06:54.999Z</time></trkpt><trkpt lat="43.23916301596406" lon="12.941646416294322"><ele>690.4000000000001</ele><time>2026-04-11T08:06:55.999Z</time></trkpt><trkpt lat="43.239209982600016" lon="12.94152733381213"><ele>687.2</ele><time>2026-04-11T08:06:56.999Z</time></trkpt><trkpt lat="43.239276319358886" lon="12.941423194995119"><ele>684.0</ele><time>2026-04-11T08:06:57.999Z</time></trkpt><trkpt lat="43.2393468343241" lon="12.941331011616386"><ele>684.0</ele><time>2026-04-11T08:06:58.999Z</time></trkpt><trkpt lat="43.239423912055564" lon="12.94123953044713"><ele>684.0</ele><time>2026-04-11T08:06:59.999Z</time></trkpt><trkpt lat="43.23949700178449" lon="12.941134910943328"><ele>684.0</ele><time>2026-04-11T08:07:00.999Z</time></trkpt><trkpt lat="43.239571425541534" lon="12.941042026202963"><ele>684.0</ele><time>2026-04-11T08:07:01.999Z</time></trkpt><trkpt lat="43.23963788446195" lon="12.94098253850491"><ele>684.0</ele><time>2026-04-11T08:07:02.999Z</time></trkpt><trkpt lat="43.239721819938175" lon="12.940917086560196"><ele>685.6</ele><time>2026-04-11T08:07:03.999Z</time></trkpt><trkpt lat="43.23979231362611" lon="12.940841873260819"><ele>687.2</ele><time>2026-04-11T08:07:04.999Z</time></trkpt><trkpt lat="43.23986368533278" lon="12.940760756237925"><ele>688.8000000000001</ele><time>2026-04-11T08:07:05.999Z</time></trkpt><trkpt lat="43.23995352661509" lon="12.940683968220704"><ele>690.4000000000001</ele><time>2026-04-11T08:07:06.999Z</time></trkpt><trkpt lat="43.24006940274444" lon="12.940622875115668"><ele>692.0</ele><time>2026-04-11T08:07:07.999Z</time></trkpt><trkpt lat="43.24019174841206" lon="12.940586215052079"><ele>692.0</ele><time>2026-04-11T08:07:08.999Z</time></trkpt><trkpt lat="43.24029651841574" lon="12.940549895870816"><ele>692.0</ele><time>2026-04-11T08:07:09.999Z</time></trkpt><trkpt lat="43.24038998312066" lon="12.940511548655959"><ele>692.0</ele><time>2026-04-11T08:07:10.999Z</time></trkpt><trkpt lat="43.2404996681793" lon="12.940453102783133"><ele>692.0</ele><time>2026-04-11T08:07:11.999Z</time></trkpt><trkpt lat="43.240587741827596" lon="12.940407726574355"><ele>692.0</ele><time>2026-04-11T08:07:12.999Z</time></trkpt><trkpt lat="43.24068223719046" lon="12.94038432627305"><ele>689.6</ele><time>2026-04-11T08:07:13.999Z</time></trkpt><trkpt lat="43.240763412821174" lon="12.940314819853873"><ele>687.2</ele><time>2026-04-11T08:07:14.999Z</time></trkpt><trkpt lat="43.24086804846959" lon="12.940219254964392"><ele>684.8</ele><time>2026-04-11T08:07:15.999Z</time></trkpt><trkpt lat="43.24095918341427" lon="12.94014231773077"><ele>682.4</ele><time>2026-04-11T08:07:16.999Z</time></trkpt><trkpt lat="43.24102691772851" lon="12.940090521104564"><ele>680.0</ele><time>2026-04-11T08:07:17.999Z</time></trkpt><trkpt lat="43.241138117679405" lon="12.940077305430028"><ele>685.0</ele><time>2026-04-11T08:07:18.999Z</time></trkpt><trkpt lat="43.24123195101059" lon="12.940042588865609"><ele>690.0</ele><time>2026-04-11T08:07:19.999Z</time></trkpt><trkpt lat="43.241339300850136" lon="12.939955290086534"><ele>695.0</ele><time>2026-04-11T08:07:20.999Z</time></trkpt><trkpt lat="43.24144927108739" lon="12.939850168375436"><ele>700.0</ele><time>2026-04-11T08:07:21.999Z</time></trkpt><trkpt lat="43.241562771617275" lon="12.939753191567164"><ele>700.0</ele><time>2026-04-11T08:07:22.999Z</time></trkpt><trkpt lat="43.24169634388939" lon="12.939673234932087"><ele>700.0</ele><time>2026-04-11T08:07:23.999Z</time></trkpt><trkpt lat="43.24182635508368" lon="12.939574182838198"><ele>700.0</ele><time>2026-04-11T08:07:24.999Z</time></trkpt><trkpt lat="43.241937380571486" lon="12.939484087598757"><ele>700.0</ele><time>2026-04-11T08:07:25.999Z</time></trkpt><trkpt lat="43.24204079353753" lon="12.939425704995088"><ele>700.0</ele><time>2026-04-11T08:07:26.999Z</time></trkpt><trkpt lat="43.24215024191048" lon="12.9393757208935"><ele>700.0</ele><time>2026-04-11T08:07:27.999Z</time></trkpt><trkpt lat="43.242237705753084" lon="12.93930939260272"><ele>700.0</ele><time>2026-04-11T08:07:28.999Z</time></trkpt><trkpt lat="43.24229657526762" lon="12.939256878543143"><ele>700.0</ele><time>2026-04-11T08:07:29.999Z</time></trkpt><trkpt lat="43.24237773117221" lon="12.939211700170656"><ele>700.0</ele><time>2026-04-11T08:07:31.999Z</time></trkpt><trkpt lat="43.242471294058454" lon="12.93923061144102"><ele>702.8</ele><time>2026-04-11T08:07:33.999Z</time></trkpt><trkpt lat="43.24254126738921" lon="12.93920695533583"><ele>705.6</ele><time>2026-04-11T08:07:34.999Z</time></trkpt><trkpt lat="43.242604337734335" lon="12.939190663647775"><ele>708.4000000000001</ele><time>2026-04-11T08:07:35.999Z</time></trkpt><trkpt lat="43.24270356661527" lon="12.939135315450695"><ele>711.2</ele><time>2026-04-11T08:07:37.999Z</time></trkpt><trkpt lat="43.24275912251847" lon="12.939011873500693"><ele>714.0</ele><time>2026-04-11T08:07:39.999Z</time></trkpt><trkpt lat="43.2427567514829" lon="12.93887347124298"><ele>714.0</ele><time>2026-04-11T08:07:41.999Z</time></trkpt><trkpt lat="43.24271154364237" lon="12.938759007522942"><ele>714.0</ele><time>2026-04-11T08:07:43.999Z</time></trkpt><trkpt lat="43.242730612066545" lon="12.938651993664154"><ele>714.0</ele><time>2026-04-11T08:07:46.999Z</time></trkpt><trkpt lat="43.24276762029647" lon="12.93852816994697"><ele>714.0</ele><time>2026-04-11T08:07:48.999Z</time></trkpt><trkpt lat="43.242783940176686" lon="12.93835716112143"><ele>714.0</ele><time>2026-04-11T08:07:50.999Z</time></trkpt><trkpt lat="43.242799461790256" lon="12.938244105529417"><ele>719.0</ele><time>2026-04-11T08:07:51.999Z</time></trkpt><trkpt lat="43.2428296447082" lon="12.938150644044676"><ele>724.0</ele><time>2026-04-11T08:07:53Z</time></trkpt><trkpt lat="43.24285917374107" lon="12.93802331534435"><ele>729.0</ele><time>2026-04-11T08:07:55Z</time></trkpt><trkpt lat="43.242813595466984" lon="12.93791129278188"><ele>734.0</ele><time>2026-04-11T08:07:57Z</time></trkpt><trkpt lat="43.24273075073853" lon="12.937790365754996"><ele>739.0</ele><time>2026-04-11T08:07:59Z</time></trkpt><trkpt lat="43.24267151952693" lon="12.93771625646456"><ele>739.0</ele><time>2026-04-11T08:08:00Z</time></trkpt><trkpt lat="43.24261965151084" lon="12.937659294933233"><ele>739.0</ele><time>2026-04-11T08:08:01Z</time></trkpt><trkpt lat="43.24258637482735" lon="12.937581774325917"><ele>739.0</ele><time>2026-04-11T08:08:02Z</time></trkpt><trkpt lat="43.2425538185777" lon="12.937507723224714"><ele>739.0</ele><time>2026-04-11T08:08:03Z</time></trkpt><trkpt lat="43.2425207066259" lon="12.937362526077926"><ele>739.0</ele><time>2026-04-11T08:08:05Z</time></trkpt><trkpt lat="43.24244738141435" lon="12.937231031477102"><ele>739.0</ele><time>2026-04-11T08:08:07Z</time></trkpt><trkpt lat="43.242390919902995" lon="12.937136104158458"><ele>738.2</ele><time>2026-04-11T08:08:08Z</time></trkpt><trkpt lat="43.2423380347765" lon="12.937064276161244"><ele>737.4000000000001</ele><time>2026-04-11T08:08:09Z</time></trkpt><trkpt lat="43.242294463863765" lon="12.936916469903814"><ele>736.6</ele><time>2026-04-11T08:08:11Z</time></trkpt><trkpt lat="43.242245511469406" lon="12.936754998572775"><ele>735.8</ele><time>2026-04-11T08:08:13Z</time></trkpt><trkpt lat="43.242171033904306" lon="12.936671717859197"><ele>735.0</ele><time>2026-04-11T08:08:14Z</time></trkpt><trkpt lat="43.242106689963805" lon="12.93657773746185"><ele>738.8333333333334</ele><time>2026-04-11T08:08:15Z</time></trkpt><trkpt lat="43.242066894038786" lon="12.936476789534275"><ele>742.6666666666666</ele><time>2026-04-11T08:08:16Z</time></trkpt><trkpt lat="43.242022453505676" lon="12.93640926216092"><ele>746.5</ele><time>2026-04-11T08:08:17Z</time></trkpt><trkpt lat="43.24190517119312" lon="12.936317210919553"><ele>750.3333333333333</ele><time>2026-04-11T08:08:19Z</time></trkpt><trkpt lat="43.241843730071274" lon="12.936255584004801"><ele>754.1666666666666</ele><time>2026-04-11T08:08:20Z</time></trkpt><trkpt lat="43.24178368668895" lon="12.936167189872418"><ele>758.0</ele><time>2026-04-11T08:08:21Z</time></trkpt><trkpt lat="43.24170743199957" lon="12.93607849279059"><ele>758.0</ele><time>2026-04-11T08:08:22Z</time></trkpt><trkpt lat="43.2416313149175" lon="12.93601914366646"><ele>758.0</ele><time>2026-04-11T08:08:23Z</time></trkpt><trkpt lat="43.241545895977914" lon="12.935955722120873"><ele>758.0</ele><time>2026-04-11T08:08:24Z</time></trkpt><trkpt lat="43.24145893832757" lon="12.93590522898213"><ele>758.0</ele><time>2026-04-11T08:08:25Z</time></trkpt><trkpt lat="43.24138297383921" lon="12.93583148348781"><ele>758.0</ele><time>2026-04-11T08:08:26Z</time></trkpt><trkpt lat="43.241328032491865" lon="12.935745696118639"><ele>758.5</ele><time>2026-04-11T08:08:27Z</time></trkpt><trkpt lat="43.24126536202536" lon="12.935672948125157"><ele>759.0</ele><time>2026-04-11T08:08:28Z</time></trkpt><trkpt lat="43.24119165380756" lon="12.935633702740617"><ele>759.5</ele><time>2026-04-11T08:08:29Z</time></trkpt><trkpt lat="43.2411124323946" lon="12.935590418277126"><ele>760.0</ele><time>2026-04-11T08:08:30Z</time></trkpt><trkpt lat="43.24105130238113" lon="12.935503636617371"><ele>760.5</ele><time>2026-04-11T08:08:31.999Z</time></trkpt><trkpt lat="43.240959216137" lon="12.935444650395722"><ele>761.0</ele><time>2026-04-11T08:08:32.999Z</time></trkpt><trkpt lat="43.24089270339325" lon="12.935391293374533"><ele>761.0</ele><time>2026-04-11T08:08:33.999Z</time></trkpt><trkpt lat="43.240826471333705" lon="12.935326261098004"><ele>761.0</ele><time>2026-04-11T08:08:34.999Z</time></trkpt><trkpt lat="43.2407582366578" lon="12.935287474801775"><ele>761.0</ele><time>2026-04-11T08:08:35.999Z</time></trkpt><trkpt lat="43.24068953084386" lon="12.93525860341958"><ele>761.0</ele><time>2026-04-11T08:08:36.999Z</time></trkpt><trkpt lat="43.24062487169273" lon="12.935203272670677"><ele>761.0</ele><time>2026-04-11T08:08:37.999Z</time></trkpt><trkpt lat="43.24054922321674" lon="12.935155402983936"><ele>761.0</ele><time>2026-04-11T08:08:38.999Z</time></trkpt><trkpt lat="43.240459886209386" lon="12.935094978636988"><ele>761.4</ele><time>2026-04-11T08:08:39.999Z</time></trkpt><trkpt lat="43.24037061568441" lon="12.935036324663137"><ele>761.8</ele><time>2026-04-11T08:08:40.999Z</time></trkpt><trkpt lat="43.2402950661937" lon="12.934961537500564"><ele>762.1999999999999</ele><time>2026-04-11T08:08:41.999Z</time></trkpt><trkpt lat="43.2402082876573" lon="12.934910731973734"><ele>762.5999999999999</ele><time>2026-04-11T08:08:42.999Z</time></trkpt><trkpt lat="43.2401229948651" lon="12.934850693871239"><ele>763.0</ele><time>2026-04-11T08:08:43.999Z</time></trkpt><trkpt lat="43.24003138457466" lon="12.934790383724147"><ele>763.0</ele><time>2026-04-11T08:08:44.999Z</time></trkpt><trkpt lat="43.23993644574468" lon="12.934739619498332"><ele>763.0</ele><time>2026-04-11T08:08:45.999Z</time></trkpt><trkpt lat="43.23984469034288" lon="12.934669809303093"><ele>763.0</ele><time>2026-04-11T08:08:46.999Z</time></trkpt><trkpt lat="43.23977955935658" lon="12.934572576965598"><ele>763.0</ele><time>2026-04-11T08:08:47.999Z</time></trkpt><trkpt lat="43.23974308290901" lon="12.934494182300313"><ele>763.0</ele><time>2026-04-11T08:08:48.999Z</time></trkpt><trkpt lat="43.239677289210476" lon="12.9344013918398"><ele>762.8333333333334</ele><time>2026-04-11T08:08:50.999Z</time></trkpt><trkpt lat="43.23960952119375" lon="12.934331540447152"><ele>762.6666666666667</ele><time>2026-04-11T08:08:51.999Z</time></trkpt><trkpt lat="43.239544728363924" lon="12.934262903811891"><ele>762.5</ele><time>2026-04-11T08:08:52.999Z</time></trkpt><trkpt lat="43.23948070504936" lon="12.934203695270321"><ele>762.3333333333334</ele><time>2026-04-11T08:08:53.999Z</time></trkpt><trkpt lat="43.23940488196549" lon="12.934148279998505"><ele>762.1666666666666</ele><time>2026-04-11T08:08:54.999Z</time></trkpt><trkpt lat="43.23934310821931" lon="12.9341095253076"><ele>762.0</ele><time>2026-04-11T08:08:55.999Z</time></trkpt><trkpt lat="43.2392819331794" lon="12.934045969925206"><ele>762.0</ele><time>2026-04-11T08:08:56.999Z</time></trkpt><trkpt lat="43.239224659811725" lon="12.933984686522095"><ele>762.0</ele><time>2026-04-11T08:08:57.999Z</time></trkpt><trkpt lat="43.23914076535889" lon="12.933926636304639"><ele>762.0</ele><time>2026-04-11T08:08:59.999Z</time></trkpt><trkpt lat="43.23908542375322" lon="12.9338589172692"><ele>762.0</ele><time>2026-04-11T08:09:02.999Z</time></trkpt><trkpt lat="43.23903755502239" lon="12.933792777030321"><ele>762.0</ele><time>2026-04-11T08:09:04.999Z</time></trkpt><trkpt lat="43.23898652679699" lon="12.933733539637316"><ele>762.0</ele><time>2026-04-11T08:09:05.999Z</time></trkpt><trkpt lat="43.23890821701198" lon="12.933589093517286"><ele>762.0</ele><time>2026-04-11T08:09:07.999Z</time></trkpt><trkpt lat="43.23880252961626" lon="12.933459585398479"><ele>762.0</ele><time>2026-04-11T08:09:09.999Z</time></trkpt><trkpt lat="43.23874216649041" lon="12.933396557454742"><ele>762.0</ele><time>2026-04-11T08:09:10.999Z</time></trkpt><trkpt lat="43.23867063539072" lon="12.93330118180427"><ele>762.0</ele><time>2026-04-11T08:09:11.999Z</time></trkpt><trkpt lat="43.238600610020285" lon="12.933219301353649"><ele>762.0</ele><time>2026-04-11T08:09:12.999Z</time></trkpt><trkpt lat="43.238544114551935" lon="12.933147773467688"><ele>762.0</ele><time>2026-04-11T08:09:13.999Z</time></trkpt><trkpt lat="43.23848949846214" lon="12.93305119534929"><ele>762.0</ele><time>2026-04-11T08:09:14.999Z</time></trkpt><trkpt lat="43.238433649182326" lon="12.932970416725249"><ele>762.0</ele><time>2026-04-11T08:09:15.999Z</time></trkpt><trkpt lat="43.23836829375654" lon="12.932894723030998"><ele>762.0</ele><time>2026-04-11T08:09:16.999Z</time></trkpt><trkpt lat="43.238323110824545" lon="12.932817541370465"><ele>762.0</ele><time>2026-04-11T08:09:17.999Z</time></trkpt><trkpt lat="43.23826820734457" lon="12.932738652056107"><ele>762.0</ele><time>2026-04-11T08:09:18.999Z</time></trkpt><trkpt lat="43.23820911069647" lon="12.932669106170767"><ele>762.0</ele><time>2026-04-11T08:09:19.999Z</time></trkpt><trkpt lat="43.238152581660934" lon="12.932608022088234"><ele>762.0</ele><time>2026-04-11T08:09:20.999Z</time></trkpt><trkpt lat="43.238096604829906" lon="12.93253499786459"><ele>762.0</ele><time>2026-04-11T08:09:21.999Z</time></trkpt><trkpt lat="43.23804485866619" lon="12.93246566501685"><ele>762.0</ele><time>2026-04-11T08:09:22.999Z</time></trkpt><trkpt lat="43.23799711695757" lon="12.932402508689137"><ele>762.0</ele><time>2026-04-11T08:09:23.999Z</time></trkpt><trkpt lat="43.23795164312562" lon="12.93234122699805"><ele>762.0</ele><time>2026-04-11T08:09:24.999Z</time></trkpt><trkpt lat="43.23786870236928" lon="12.932204608596667"><ele>760.8571428571428</ele><time>2026-04-11T08:09:26.999Z</time></trkpt><trkpt lat="43.237821337699394" lon="12.932135070201674"><ele>759.7142857142858</ele><time>2026-04-11T08:09:27.999Z</time></trkpt><trkpt lat="43.23776402405653" lon="12.93207736430076"><ele>758.5714285714286</ele><time>2026-04-11T08:09:28.999Z</time></trkpt><trkpt lat="43.23769813264773" lon="12.932016520101573"><ele>757.4285714285713</ele><time>2026-04-11T08:09:29.999Z</time></trkpt><trkpt lat="43.23763998891756" lon="12.931967513519801"><ele>756.2857142857142</ele><time>2026-04-11T08:09:30.999Z</time></trkpt><trkpt lat="43.23758231162046" lon="12.93192129336239"><ele>755.1428571428571</ele><time>2026-04-11T08:09:31.999Z</time></trkpt><trkpt lat="43.23752457786987" lon="12.931868106142046"><ele>754.0</ele><time>2026-04-11T08:09:32.999Z</time></trkpt><trkpt lat="43.237462987203685" lon="12.931815527864169"><ele>754.0</ele><time>2026-04-11T08:09:33.999Z</time></trkpt><trkpt lat="43.23740021669786" lon="12.931772684326958"><ele>754.0</ele><time>2026-04-11T08:09:34.999Z</time></trkpt><trkpt lat="43.23728389675236" lon="12.931747596794608"><ele>754.0</ele><time>2026-04-11T08:09:36.999Z</time></trkpt><trkpt lat="43.23721810021564" lon="12.931754448889027"><ele>754.0</ele><time>2026-04-11T08:09:37.999Z</time></trkpt><trkpt lat="43.23715575601039" lon="12.931770357519493"><ele>754.0</ele><time>2026-04-11T08:09:38.999Z</time></trkpt><trkpt lat="43.23705677872184" lon="12.931834233404553"><ele>754.0</ele><time>2026-04-11T08:09:40.999Z</time></trkpt><trkpt lat="43.236961939663445" lon="12.931964808189004"><ele>754.3333333333334</ele><time>2026-04-11T08:09:42.999Z</time></trkpt><trkpt lat="43.236915687754795" lon="12.932043487625108"><ele>754.6666666666667</ele><time>2026-04-11T08:09:43.999Z</time></trkpt><trkpt lat="43.23685595562706" lon="12.932122558772882"><ele>755.0</ele><time>2026-04-11T08:09:44.999Z</time></trkpt><trkpt lat="43.2367865428403" lon="12.93215282650715"><ele>755.3333333333334</ele><time>2026-04-11T08:09:45.999Z</time></trkpt><trkpt lat="43.236722632038514" lon="12.932134291455442"><ele>755.6666666666666</ele><time>2026-04-11T08:09:46.999Z</time></trkpt><trkpt lat="43.23662083137065" lon="12.932102193689792"><ele>756.0</ele><time>2026-04-11T08:09:48.999Z</time></trkpt><trkpt lat="43.23650309513171" lon="12.932080883941769"><ele>759.1666666666666</ele><time>2026-04-11T08:09:50.999Z</time></trkpt><trkpt lat="43.236431301237175" lon="12.932065117047117"><ele>762.3333333333333</ele><time>2026-04-11T08:09:51.999Z</time></trkpt><trkpt lat="43.23636130986744" lon="12.932059112018766"><ele>765.5</ele><time>2026-04-11T08:09:52.999Z</time></trkpt><trkpt lat="43.236278348187355" lon="12.932047374968857"><ele>768.6666666666666</ele><time>2026-04-11T08:09:53.999Z</time></trkpt><trkpt lat="43.236245208711296" lon="12.93195957847898"><ele>771.8333333333333</ele><time>2026-04-11T08:09:56.998Z</time></trkpt><trkpt lat="43.23624827411046" lon="12.931861151116854"><ele>775.0</ele><time>2026-04-11T08:10:01Z</time></trkpt><trkpt lat="43.23625179874945" lon="12.93173543829509"><ele>770.9999999999999</ele><time>2026-04-11T08:10:05Z</time></trkpt><trkpt lat="43.23626151332152" lon="12.931646618200766"><ele>767.0</ele><time>2026-04-11T08:10:07Z</time></trkpt><trkpt lat="43.23625515205701" lon="12.931533258943924"><ele>763.0</ele><time>2026-04-11T08:10:09Z</time></trkpt><trkpt lat="43.23625143452593" lon="12.931411906019079"><ele>759.0</ele><time>2026-04-11T08:10:11Z</time></trkpt><trkpt lat="43.236252817463956" lon="12.931269363184528"><ele>755.0</ele><time>2026-04-11T08:10:13Z</time></trkpt><trkpt lat="43.236247344897066" lon="12.931170949971312"><ele>751.0</ele><time>2026-04-11T08:10:15Z</time></trkpt><trkpt lat="43.236293472908834" lon="12.931098170578402"><ele>751.0</ele><time>2026-04-11T08:10:18Z</time></trkpt><trkpt lat="43.23635680500338" lon="12.93106676558434"><ele>751.0</ele><time>2026-04-11T08:10:20Z</time></trkpt><trkpt lat="43.2364671591469" lon="12.931090892194524"><ele>751.0</ele><time>2026-04-11T08:10:22Z</time></trkpt><trkpt lat="43.23653412319912" lon="12.931112868971658"><ele>751.0</ele><time>2026-04-11T08:10:23Z</time></trkpt><trkpt lat="43.23663409880862" lon="12.9311553337183"><ele>751.0</ele><time>2026-04-11T08:10:25Z</time></trkpt><trkpt lat="43.23670127595787" lon="12.931135091181565"><ele>751.0</ele><time>2026-04-11T08:10:29Z</time></trkpt><trkpt lat="43.236726054122094" lon="12.931049325337742"><ele>747.3333333333334</ele><time>2026-04-11T08:10:32Z</time></trkpt><trkpt lat="43.236692739147216" lon="12.930938241286222"><ele>743.6666666666667</ele><time>2026-04-11T08:10:35Z</time></trkpt><trkpt lat="43.23666290492008" lon="12.930839664787523"><ele>740.0</ele><time>2026-04-11T08:10:39Z</time></trkpt><trkpt lat="43.236646443375136" lon="12.930724593418107"><ele>736.3333333333334</ele><time>2026-04-11T08:10:42Z</time></trkpt><trkpt lat="43.236629367425465" lon="12.93063669507341"><ele>732.6666666666666</ele><time>2026-04-11T08:10:44Z</time></trkpt><trkpt lat="43.23661060755262" lon="12.930549025952363"><ele>729.0</ele><time>2026-04-11T08:10:48.999Z</time></trkpt><trkpt lat="43.236583345134996" lon="12.930440085854853"><ele>728.2</ele><time>2026-04-11T08:10:50.999Z</time></trkpt><trkpt lat="43.23656592428236" lon="12.930302831917757"><ele>727.4000000000001</ele><time>2026-04-11T08:10:52.999Z</time></trkpt><trkpt lat="43.23650503488943" lon="12.930200888064252"><ele>726.6</ele><time>2026-04-11T08:10:55.999Z</time></trkpt><trkpt lat="43.236467296284474" lon="12.93009964540357"><ele>725.8</ele><time>2026-04-11T08:10:56.999Z</time></trkpt><trkpt lat="43.23641843874475" lon="12.929958346093951"><ele>725.0</ele><time>2026-04-11T08:10:58.999Z</time></trkpt><trkpt lat="43.23636714999731" lon="12.929848989704732"><ele>720.4</ele><time>2026-04-11T08:11:01.999Z</time></trkpt><trkpt lat="43.23633182711355" lon="12.929730363592041"><ele>715.8</ele><time>2026-04-11T08:11:03.999Z</time></trkpt><trkpt lat="43.236269430113396" lon="12.929610558468386"><ele>711.2</ele><time>2026-04-11T08:11:05.999Z</time></trkpt><trkpt lat="43.236234839718875" lon="12.929535864369756"><ele>706.6</ele><time>2026-04-11T08:11:06.999Z</time></trkpt><trkpt lat="43.236167433045104" lon="12.929407768641838"><ele>702.0</ele><time>2026-04-11T08:11:08.999Z</time></trkpt><trkpt lat="43.23609134059057" lon="12.929314652132351"><ele>694.8</ele><time>2026-04-11T08:11:10.999Z</time></trkpt><trkpt lat="43.23599997718504" lon="12.929169946187125"><ele>687.6</ele><time>2026-04-11T08:11:12.999Z</time></trkpt><trkpt lat="43.23595745917612" lon="12.929104816434556"><ele>680.4</ele><time>2026-04-11T08:11:13.999Z</time></trkpt><trkpt lat="43.235876143398805" lon="12.929019023410985"><ele>673.1999999999999</ele><time>2026-04-11T08:11:15.999Z</time></trkpt><trkpt lat="43.23578445418644" lon="12.928929930737509"><ele>666.0</ele><time>2026-04-11T08:11:17.999Z</time></trkpt><trkpt lat="43.235655279812974" lon="12.928862809086626"><ele>666.0</ele><time>2026-04-11T08:11:19.999Z</time></trkpt><trkpt lat="43.23560377250924" lon="12.928799595079955"><ele>666.0</ele><time>2026-04-11T08:11:20.999Z</time></trkpt><trkpt lat="43.23555500546542" lon="12.928729784887505"><ele>666.0</ele><time>2026-04-11T08:11:21.999Z</time></trkpt><trkpt lat="43.23551584735357" lon="12.92865155966992"><ele>666.0</ele><time>2026-04-11T08:11:22.999Z</time></trkpt><trkpt lat="43.23547803902396" lon="12.928571223255952"><ele>666.0</ele><time>2026-04-11T08:11:23.999Z</time></trkpt><trkpt lat="43.23544432308938" lon="12.92845489114912"><ele>666.0</ele><time>2026-04-11T08:11:24.999Z</time></trkpt><trkpt lat="43.235406289295966" lon="12.92834075912401"><ele>666.0</ele><time>2026-04-11T08:11:26.999Z</time></trkpt><trkpt lat="43.235321948510304" lon="12.928225182980585"><ele>666.0</ele><time>2026-04-11T08:11:28.999Z</time></trkpt><trkpt lat="43.23524097785685" lon="12.928145871030855"><ele>666.0</ele><time>2026-04-11T08:11:30.999Z</time></trkpt><trkpt lat="43.23517719847288" lon="12.928108146841609"><ele>666.0</ele><time>2026-04-11T08:11:32.999Z</time></trkpt><trkpt lat="43.23514832570392" lon="12.927986474145838"><ele>666.0</ele><time>2026-04-11T08:11:34.999Z</time></trkpt><trkpt lat="43.23515419028219" lon="12.927841769378608"><ele>666.0</ele><time>2026-04-11T08:11:36.999Z</time></trkpt><trkpt lat="43.235127416371824" lon="12.927690108102977"><ele>666.0</ele><time>2026-04-11T08:11:38.999Z</time></trkpt><trkpt lat="43.235079246781694" lon="12.927562170883485"><ele>666.0</ele><time>2026-04-11T08:11:40.999Z</time></trkpt><trkpt lat="43.23501933088803" lon="12.92746382002072"><ele>666.0</ele><time>2026-04-11T08:11:42.999Z</time></trkpt><trkpt lat="43.234964448465966" lon="12.927378875430584"><ele>666.0</ele><time>2026-04-11T08:11:44.999Z</time></trkpt><trkpt lat="43.23489370767421" lon="12.927333001637221"><ele>667.1999999999999</ele><time>2026-04-11T08:11:47.999Z</time></trkpt><trkpt lat="43.23477323187378" lon="12.927277725713965"><ele>668.4</ele><time>2026-04-11T08:11:49.999Z</time></trkpt><trkpt lat="43.23470728191529" lon="12.927256209576043"><ele>669.6</ele><time>2026-04-11T08:11:50.999Z</time></trkpt><trkpt lat="43.234629091770415" lon="12.927174385773075"><ele>670.8</ele><time>2026-04-11T08:11:52.999Z</time></trkpt><trkpt lat="43.23450650206482" lon="12.927084201935946"><ele>672.0</ele><time>2026-04-11T08:11:54.999Z</time></trkpt><trkpt lat="43.234421223916144" lon="12.926985479355983"><ele>672.0</ele><time>2026-04-11T08:11:56.999Z</time></trkpt><trkpt lat="43.23441583738067" lon="12.926896256249947"><ele>672.0</ele><time>2026-04-11T08:11:57.999Z</time></trkpt><trkpt lat="43.23443636121279" lon="12.926797183183034"><ele>672.0</ele><time>2026-04-11T08:11:59.999Z</time></trkpt><trkpt lat="43.23448447894383" lon="12.926627408840972"><ele>672.0</ele><time>2026-04-11T08:12:01.999Z</time></trkpt><trkpt lat="43.23451044706169" lon="12.926537641179042"><ele>672.0</ele><time>2026-04-11T08:12:02.999Z</time></trkpt><trkpt lat="43.23453464643946" lon="12.926437482822227"><ele>672.0</ele><time>2026-04-11T08:12:03.999Z</time></trkpt><trkpt lat="43.23455417115873" lon="12.926343804686052"><ele>668.2</ele><time>2026-04-11T08:12:05Z</time></trkpt><trkpt lat="43.23456816578387" lon="12.926190369665024"><ele>664.4000000000001</ele><time>2026-04-11T08:12:07Z</time></trkpt><trkpt lat="43.23455057046702" lon="12.925993129743992"><ele>660.5999999999999</ele><time>2026-04-11T08:12:09Z</time></trkpt><trkpt lat="43.23451635734217" lon="12.925867929768579"><ele>656.8</ele><time>2026-04-11T08:12:11Z</time></trkpt><trkpt lat="43.234463330006896" lon="12.92577884330728"><ele>653.0</ele><time>2026-04-11T08:12:13Z</time></trkpt><trkpt lat="43.234409429385344" lon="12.925675844989842"><ele>650.0</ele><time>2026-04-11T08:12:15Z</time></trkpt><trkpt lat="43.23437650799954" lon="12.925527804739687"><ele>647.0</ele><time>2026-04-11T08:12:17Z</time></trkpt><trkpt lat="43.234343001539855" lon="12.925435193266694"><ele>644.0</ele><time>2026-04-11T08:12:18Z</time></trkpt><trkpt lat="43.23429656348447" lon="12.925348992989726"><ele>641.0</ele><time>2026-04-11T08:12:19Z</time></trkpt><trkpt lat="43.23426127011817" lon="12.925187841248498"><ele>638.0</ele><time>2026-04-11T08:12:21Z</time></trkpt><trkpt lat="43.23424773600854" lon="12.925069564695427"><ele>634.4</ele><time>2026-04-11T08:12:22Z</time></trkpt><trkpt lat="43.23423696004963" lon="12.92494789894537"><ele>630.8</ele><time>2026-04-11T08:12:23Z</time></trkpt><trkpt lat="43.23420267352172" lon="12.924848434382687"><ele>627.2</ele><time>2026-04-11T08:12:24Z</time></trkpt><trkpt lat="43.23415380159172" lon="12.924745269622541"><ele>623.6</ele><time>2026-04-11T08:12:25Z</time></trkpt><trkpt lat="43.23411513552912" lon="12.924658579832562"><ele>620.0</ele><time>2026-04-11T08:12:26Z</time></trkpt><trkpt lat="43.23405626426995" lon="12.924503001770189"><ele>620.0</ele><time>2026-04-11T08:12:28Z</time></trkpt><trkpt lat="43.234013857856766" lon="12.924409816849314"><ele>620.0</ele><time>2026-04-11T08:12:29Z</time></trkpt><trkpt lat="43.23396962701276" lon="12.924286989069282"><ele>620.0</ele><time>2026-04-11T08:12:30Z</time></trkpt><trkpt lat="43.233945647149035" lon="12.924198432356281"><ele>620.0</ele><time>2026-04-11T08:12:31Z</time></trkpt><trkpt lat="43.233941249181626" lon="12.924054764897903"><ele>620.0</ele><time>2026-04-11T08:12:33Z</time></trkpt><trkpt lat="43.233936357316104" lon="12.923965967251684"><ele>620.0</ele><time>2026-04-11T08:12:34Z</time></trkpt><trkpt lat="43.2339192785666" lon="12.923846563815886"><ele>620.8</ele><time>2026-04-11T08:12:36Z</time></trkpt><trkpt lat="43.23391639065323" lon="12.923689482925118"><ele>621.6</ele><time>2026-04-11T08:12:38Z</time></trkpt><trkpt lat="43.23391210090853" lon="12.923588474191508"><ele>622.4</ele><time>2026-04-11T08:12:39Z</time></trkpt><trkpt lat="43.23390220270929" lon="12.92350053729363"><ele>623.2</ele><time>2026-04-11T08:12:40Z</time></trkpt><trkpt lat="43.2338789130677" lon="12.92334194981474"><ele>624.0</ele><time>2026-04-11T08:12:42Z</time></trkpt><trkpt lat="43.23381824000936" lon="12.923178885511625"><ele>624.0</ele><time>2026-04-11T08:12:44Z</time></trkpt><trkpt lat="43.233805663020554" lon="12.923083927540075"><ele>624.0</ele><time>2026-04-11T08:12:45Z</time></trkpt><trkpt lat="43.23378358491957" lon="12.922996244838185"><ele>624.0</ele><time>2026-04-11T08:12:46Z</time></trkpt><trkpt lat="43.233746818339206" lon="12.922920314244777"><ele>624.0</ele><time>2026-04-11T08:12:47Z</time></trkpt><trkpt lat="43.23370685674484" lon="12.922851924143728"><ele>624.0</ele><time>2026-04-11T08:12:48Z</time></trkpt><trkpt lat="43.23366095653956" lon="12.922765449499654"><ele>624.0</ele><time>2026-04-11T08:12:49Z</time></trkpt><trkpt lat="43.233609561775374" lon="12.922685264944494"><ele>624.0</ele><time>2026-04-11T08:12:50Z</time></trkpt><trkpt lat="43.23355271405761" lon="12.92260524090611"><ele>619.3333333333334</ele><time>2026-04-11T08:12:51Z</time></trkpt><trkpt lat="43.2335098549087" lon="12.922507867360498"><ele>614.6666666666666</ele><time>2026-04-11T08:12:52Z</time></trkpt><trkpt lat="43.233468699420484" lon="12.92242169477308"><ele>610.0</ele><time>2026-04-11T08:12:52.999Z</time></trkpt><trkpt lat="43.23343284638853" lon="12.922334189836182"><ele>605.3333333333333</ele><time>2026-04-11T08:12:53.999Z</time></trkpt><trkpt lat="43.233392687539265" lon="12.92223673406811"><ele>600.6666666666666</ele><time>2026-04-11T08:12:54.999Z</time></trkpt><trkpt lat="43.23337415379115" lon="12.922117513501263"><ele>596.0</ele><time>2026-04-11T08:12:55.999Z</time></trkpt><trkpt lat="43.23334764950598" lon="12.922019745093346"><ele>596.0</ele><time>2026-04-11T08:12:56.999Z</time></trkpt><trkpt lat="43.233313384706555" lon="12.921931596628927"><ele>596.0</ele><time>2026-04-11T08:12:57.999Z</time></trkpt><trkpt lat="43.233278261073856" lon="12.92183362802544"><ele>596.0</ele><time>2026-04-11T08:12:58.999Z</time></trkpt><trkpt lat="43.23327051929999" lon="12.921742362731592"><ele>596.0</ele><time>2026-04-11T08:12:59.999Z</time></trkpt><trkpt lat="43.233236696530895" lon="12.921660073089281"><ele>596.0</ele><time>2026-04-11T08:13:00.999Z</time></trkpt><trkpt lat="43.2331929547493" lon="12.921569137946008"><ele>596.0</ele><time>2026-04-11T08:13:01.999Z</time></trkpt><trkpt lat="43.233161019481926" lon="12.921493984314953"><ele>596.0</ele><time>2026-04-11T08:13:02.999Z</time></trkpt><trkpt lat="43.23312522756677" lon="12.921407007954537"><ele>597.5</ele><time>2026-04-11T08:13:28.999Z</time></trkpt><trkpt lat="43.233138546000134" lon="12.921294279587487"><ele>599.0</ele><time>2026-04-11T08:13:30.999Z</time></trkpt><trkpt lat="43.23315495286956" lon="12.921204594733997"><ele>600.5</ele><time>2026-04-11T08:13:32.999Z</time></trkpt><trkpt lat="43.2332213659248" lon="12.92115992132066"><ele>602.0</ele><time>2026-04-11T08:13:36.999Z</time></trkpt><trkpt lat="43.23326091180652" lon="12.921262385322233"><ele>603.5</ele><time>2026-04-11T08:13:38.999Z</time></trkpt><trkpt lat="43.233307234620824" lon="12.921343329638129"><ele>605.0</ele><time>2026-04-11T08:13:39.999Z</time></trkpt><trkpt lat="43.233373190081274" lon="12.921370529187332"><ele>599.6666666666666</ele><time>2026-04-11T08:13:41.999Z</time></trkpt><trkpt lat="43.23342949335158" lon="12.921309666651405"><ele>594.3333333333333</ele><time>2026-04-11T08:13:48.999Z</time></trkpt><trkpt lat="43.23344688915961" lon="12.92120051105384"><ele>589.0</ele><time>2026-04-11T08:13:50.999Z</time></trkpt><trkpt lat="43.23343911680206" lon="12.921068889408964"><ele>583.6666666666666</ele><time>2026-04-11T08:13:52.999Z</time></trkpt><trkpt lat="43.233464619594365" lon="12.920947312865453"><ele>578.3333333333334</ele><time>2026-04-11T08:13:54.999Z</time></trkpt><trkpt lat="43.23347201087241" lon="12.920825051774646"><ele>573.0</ele><time>2026-04-11T08:13:56.999Z</time></trkpt><trkpt lat="43.2334928722363" lon="12.920697091816455"><ele>568.6</ele><time>2026-04-11T08:13:58.999Z</time></trkpt><trkpt lat="43.23345629425205" lon="12.92058372560519"><ele>564.1999999999999</ele><time>2026-04-11T08:14:01.999Z</time></trkpt><trkpt lat="43.233439298176314" lon="12.92043453945258"><ele>559.8</ele><time>2026-04-11T08:14:03.999Z</time></trkpt><trkpt lat="43.23346108626434" lon="12.920346108535199"><ele>555.4</ele><time>2026-04-11T08:14:05.999Z</time></trkpt><trkpt lat="43.23337947986428" lon="12.920431935794058"><ele>551.0</ele><time>2026-04-11T08:19:00Z</time></trkpt><trkpt lat="43.23331008525991" lon="12.920500174292616"><ele>551.0</ele><time>2026-04-11T08:19:01Z</time></trkpt><trkpt lat="43.23324883651983" lon="12.920559739758728"><ele>551.0</ele><time>2026-04-11T08:19:02Z</time></trkpt><trkpt lat="43.23318188892767" lon="12.92058218547912"><ele>551.0</ele><time>2026-04-11T08:19:03Z</time></trkpt><trkpt lat="43.23306663141793" lon="12.920531817359201"><ele>551.0</ele><time>2026-04-11T08:19:05Z</time></trkpt><trkpt lat="43.23295271956526" lon="12.920485094539384"><ele>551.0</ele><time>2026-04-11T08:19:07Z</time></trkpt><trkpt lat="43.23286030328991" lon="12.920455123898776"><ele>553.8333333333333</ele><time>2026-04-11T08:19:09Z</time></trkpt><trkpt lat="43.23276067951705" lon="12.920445062044324"><ele>556.6666666666666</ele><time>2026-04-11T08:19:11Z</time></trkpt><trkpt lat="43.232696110965186" lon="12.920442821014891"><ele>559.5</ele><time>2026-04-11T08:19:12Z</time></trkpt><trkpt lat="43.232605423023486" lon="12.920411123232926"><ele>562.3333333333334</ele><time>2026-04-11T08:19:14Z</time></trkpt><trkpt lat="43.23254134375305" lon="12.920381113922867"><ele>565.1666666666667</ele><time>2026-04-11T08:19:16Z</time></trkpt><trkpt lat="43.2324694663424" lon="12.920292866914833"><ele>568.0</ele><time>2026-04-11T08:19:18Z</time></trkpt><trkpt lat="43.232412093429254" lon="12.920228238284317"><ele>568.0</ele><time>2026-04-11T08:19:20Z</time></trkpt><trkpt lat="43.23238131865975" lon="12.920142786204535"><ele>568.0</ele><time>2026-04-11T08:19:24.999Z</time></trkpt><trkpt lat="43.232422997532346" lon="12.920063638042109"><ele>568.0</ele><time>2026-04-11T08:19:28.999Z</time></trkpt><trkpt lat="43.2324175232249" lon="12.919968618744875"><ele>568.0</ele><time>2026-04-11T08:19:30.999Z</time></trkpt><trkpt lat="43.23237738954038" lon="12.91989319225781"><ele>568.0</ele><time>2026-04-11T08:19:31.999Z</time></trkpt><trkpt lat="43.23236408409033" lon="12.919761976618894"><ele>568.0</ele><time>2026-04-11T08:19:33.999Z</time></trkpt><trkpt lat="43.23242764287699" lon="12.919765224940061"><ele>568.0</ele><time>2026-04-11T08:19:36.999Z</time></trkpt><trkpt lat="43.23253597780687" lon="12.919881190562515"><ele>564.5</ele><time>2026-04-11T08:19:38.999Z</time></trkpt><trkpt lat="43.232610861125366" lon="12.919933221759502"><ele>561.0</ele><time>2026-04-11T08:19:39.999Z</time></trkpt><trkpt lat="43.23267722198105" lon="12.91994300598015"><ele>557.5</ele><time>2026-04-11T08:19:40.999Z</time></trkpt><trkpt lat="43.232739801706124" lon="12.91993267353119"><ele>554.0</ele><time>2026-04-11T08:19:41.999Z</time></trkpt><trkpt lat="43.232796414955295" lon="12.919806677271753"><ele>550.5</ele><time>2026-04-11T08:19:43.999Z</time></trkpt><trkpt lat="43.232804337880225" lon="12.91970590493165"><ele>547.0</ele><time>2026-04-11T08:19:44.999Z</time></trkpt><trkpt lat="43.23278198040806" lon="12.919597064743195"><ele>547.0</ele><time>2026-04-11T08:19:45.999Z</time></trkpt><trkpt lat="43.23276165575081" lon="12.919501455757223"><ele>547.0</ele><time>2026-04-11T08:19:46.999Z</time></trkpt><trkpt lat="43.232892539434765" lon="12.919322666735058"><ele>547.0</ele><time>2026-04-11T08:19:48.999Z</time></trkpt><trkpt lat="43.23301964695432" lon="12.919250632234993"><ele>547.0</ele><time>2026-04-11T08:19:49.999Z</time></trkpt><trkpt lat="43.23314778165795" lon="12.919216610021746"><ele>551.6</ele><time>2026-04-11T08:19:50.999Z</time></trkpt><trkpt lat="43.2332717426387" lon="12.919222922077408"><ele>556.2</ele><time>2026-04-11T08:19:51.999Z</time></trkpt><trkpt lat="43.23336844610407" lon="12.919199616928042"><ele>560.8</ele><time>2026-04-11T08:19:52.999Z</time></trkpt><trkpt lat="43.23345392020497" lon="12.919207453303772"><ele>565.4</ele><time>2026-04-11T08:19:53.999Z</time></trkpt><trkpt lat="43.2335284938553" lon="12.919169285325314"><ele>570.0</ele><time>2026-04-11T08:19:54.999Z</time></trkpt><trkpt lat="43.233587698693604" lon="12.919116238392764"><ele>570.0</ele><time>2026-04-11T08:19:55.999Z</time></trkpt><trkpt lat="43.233639539931225" lon="12.919052291496383"><ele>570.0</ele><time>2026-04-11T08:19:56.999Z</time></trkpt><trkpt lat="43.23374112204503" lon="12.918939829997726"><ele>570.0</ele><time>2026-04-11T08:19:58.999Z</time></trkpt><trkpt lat="43.233788481107204" lon="12.918857503169496"><ele>570.0</ele><time>2026-04-11T08:19:59.999Z</time></trkpt><trkpt lat="43.233821913448395" lon="12.918757268278814"><ele>570.0</ele><time>2026-04-11T08:20:00.999Z</time></trkpt><trkpt lat="43.2338274428745" lon="12.91862940787202"><ele>570.0</ele><time>2026-04-11T08:20:01.999Z</time></trkpt><trkpt lat="43.233831045093446" lon="12.918495835809809"><ele>570.0</ele><time>2026-04-11T08:20:02.999Z</time></trkpt><trkpt lat="43.233859566892505" lon="12.918376917967052"><ele>570.0</ele><time>2026-04-11T08:20:03.999Z</time></trkpt><trkpt lat="43.2338937848222" lon="12.918256426708757"><ele>570.0</ele><time>2026-04-11T08:20:04.999Z</time></trkpt><trkpt lat="43.2339332293693" lon="12.918094325509669"><ele>570.0</ele><time>2026-04-11T08:20:05.999Z</time></trkpt><trkpt lat="43.23398026549752" lon="12.917972757210794"><ele>570.8333333333334</ele><time>2026-04-11T08:20:06.999Z</time></trkpt><trkpt lat="43.23401417716143" lon="12.917871153713158"><ele>571.6666666666666</ele><time>2026-04-11T08:20:07.999Z</time></trkpt><trkpt lat="43.234045398770704" lon="12.917759781985394"><ele>572.5</ele><time>2026-04-11T08:20:08.999Z</time></trkpt><trkpt lat="43.23407865127743" lon="12.917666130116434"><ele>573.3333333333333</ele><time>2026-04-11T08:20:09.999Z</time></trkpt><trkpt lat="43.23410446724697" lon="12.917559523453495"><ele>574.1666666666666</ele><time>2026-04-11T08:20:10.999Z</time></trkpt><trkpt lat="43.23410965285711" lon="12.917448273466691"><ele>575.0</ele><time>2026-04-11T08:20:11.999Z</time></trkpt><trkpt lat="43.23410409399896" lon="12.917306504807689"><ele>577.75</ele><time>2026-04-11T08:20:12.999Z</time></trkpt><trkpt lat="43.23410739414651" lon="12.917154652734403"><ele>580.5</ele><time>2026-04-11T08:20:13.999Z</time></trkpt><trkpt lat="43.234120643454794" lon="12.91699928427885"><ele>583.25</ele><time>2026-04-11T08:20:14.999Z</time></trkpt><trkpt lat="43.23413281846945" lon="12.916835408165337"><ele>586.0</ele><time>2026-04-11T08:20:15.999Z</time></trkpt><trkpt lat="43.234137138167746" lon="12.916672318725373"><ele>588.8</ele><time>2026-04-11T08:20:16.999Z</time></trkpt><trkpt lat="43.234141254245564" lon="12.916504968207732"><ele>591.6</ele><time>2026-04-11T08:20:17.999Z</time></trkpt><trkpt lat="43.23415690674977" lon="12.916368618454527"><ele>594.4</ele><time>2026-04-11T08:20:18.999Z</time></trkpt><trkpt lat="43.234188499690255" lon="12.916232288493317"><ele>597.2</ele><time>2026-04-11T08:20:19.999Z</time></trkpt><trkpt lat="43.234243890280936" lon="12.9161115633557"><ele>600.0</ele><time>2026-04-11T08:20:20.999Z</time></trkpt><trkpt lat="43.234330130834095" lon="12.916011431086382"><ele>600.0</ele><time>2026-04-11T08:20:21.999Z</time></trkpt><trkpt lat="43.234391438528775" lon="12.91592332910039"><ele>600.0</ele><time>2026-04-11T08:20:22.999Z</time></trkpt><trkpt lat="43.234408428042066" lon="12.915827934525572"><ele>600.0</ele><time>2026-04-11T08:20:23.999Z</time></trkpt><trkpt lat="43.23441396202263" lon="12.915704632887623"><ele>600.0</ele><time>2026-04-11T08:20:24.999Z</time></trkpt><trkpt lat="43.23440375467399" lon="12.915560732018479"><ele>600.0</ele><time>2026-04-11T08:20:25.999Z</time></trkpt><trkpt lat="43.23437039916738" lon="12.91536812056969"><ele>603.75</ele><time>2026-04-11T08:20:26.999Z</time></trkpt><trkpt lat="43.234336897842034" lon="12.915149199113376"><ele>607.5</ele><time>2026-04-11T08:20:27.999Z</time></trkpt><trkpt lat="43.23434486328599" lon="12.914968937160964"><ele>611.25</ele><time>2026-04-11T08:20:29Z</time></trkpt><trkpt lat="43.23436156327563" lon="12.914781182521034"><ele>615.0</ele><time>2026-04-11T08:20:30Z</time></trkpt><trkpt lat="43.23438343785965" lon="12.914596733339609"><ele>618.6</ele><time>2026-04-11T08:20:31Z</time></trkpt><trkpt lat="43.234417250721606" lon="12.914425401028053"><ele>622.2</ele><time>2026-04-11T08:20:32Z</time></trkpt><trkpt lat="43.234459366075896" lon="12.91427076636757"><ele>625.8</ele><time>2026-04-11T08:20:33Z</time></trkpt><trkpt lat="43.23448682022848" lon="12.91412572002848"><ele>629.4</ele><time>2026-04-11T08:20:34Z</time></trkpt><trkpt lat="43.2345177595688" lon="12.914016459199024"><ele>633.0</ele><time>2026-04-11T08:20:35Z</time></trkpt><trkpt lat="43.234599304122696" lon="12.91387944966028"><ele>634.6666666666666</ele><time>2026-04-11T08:20:37Z</time></trkpt><trkpt lat="43.23466117718958" lon="12.913849372774102"><ele>636.3333333333334</ele><time>2026-04-11T08:20:38Z</time></trkpt><trkpt lat="43.23473372583711" lon="12.913840060517467"><ele>638.0</ele><time>2026-04-11T08:20:39Z</time></trkpt><trkpt lat="43.23479146898712" lon="12.913725796676829"><ele>639.6666666666667</ele><time>2026-04-11T08:20:41Z</time></trkpt><trkpt lat="43.234795727568475" lon="12.913594816894976"><ele>641.3333333333334</ele><time>2026-04-11T08:20:43Z</time></trkpt><trkpt lat="43.234797407515515" lon="12.9134616130058"><ele>643.0</ele><time>2026-04-11T08:20:45Z</time></trkpt><trkpt lat="43.234785531581736" lon="12.913373557888624"><ele>644.8</ele><time>2026-04-11T08:20:46Z</time></trkpt><trkpt lat="43.23474619260446" lon="12.913237781027187"><ele>646.5999999999999</ele><time>2026-04-11T08:20:48Z</time></trkpt><trkpt lat="43.234749805258915" lon="12.913055201729918"><ele>648.4000000000001</ele><time>2026-04-11T08:20:50Z</time></trkpt><trkpt lat="43.23473782110148" lon="12.912932616419782"><ele>650.2</ele><time>2026-04-11T08:20:51Z</time></trkpt><trkpt lat="43.234729091503745" lon="12.912810935097749"><ele>652.0</ele><time>2026-04-11T08:20:52Z</time></trkpt><trkpt lat="43.23470941003875" lon="12.912706438643697"><ele>652.0</ele><time>2026-04-11T08:20:53Z</time></trkpt><trkpt lat="43.23469978368547" lon="12.912608181088942"><ele>652.0</ele><time>2026-04-11T08:20:54Z</time></trkpt><trkpt lat="43.23468325195517" lon="12.912468237807081"><ele>652.0</ele><time>2026-04-11T08:20:55Z</time></trkpt><trkpt lat="43.23465465625169" lon="12.912348147737159"><ele>652.0</ele><time>2026-04-11T08:20:56Z</time></trkpt><trkpt lat="43.23464099730557" lon="12.912234741003934"><ele>652.0</ele><time>2026-04-11T08:20:57Z</time></trkpt><trkpt lat="43.23465083667363" lon="12.912146398275327"><ele>652.0</ele><time>2026-04-11T08:20:58Z</time></trkpt><trkpt lat="43.23467233733799" lon="12.912034670810188"><ele>654.0</ele><time>2026-04-11T08:20:59Z</time></trkpt><trkpt lat="43.23469905217281" lon="12.911921084719783"><ele>656.0</ele><time>2026-04-11T08:21:00Z</time></trkpt><trkpt lat="43.2347316736821" lon="12.911804931354155"><ele>658.0</ele><time>2026-04-11T08:21:01Z</time></trkpt><trkpt lat="43.234783000928765" lon="12.91168720262505"><ele>660.0</ele><time>2026-04-11T08:21:02Z</time></trkpt><trkpt lat="43.23483380909098" lon="12.911551955459775"><ele>662.0</ele><time>2026-04-11T08:21:03Z</time></trkpt><trkpt lat="43.23486870073784" lon="12.911419488144194"><ele>662.1666666666666</ele><time>2026-04-11T08:21:04Z</time></trkpt><trkpt lat="43.234873150446234" lon="12.911313962577223"><ele>662.3333333333333</ele><time>2026-04-11T08:21:06Z</time></trkpt><trkpt lat="43.23475512232501" lon="12.911291218555387"><ele>662.5</ele><time>2026-04-11T08:21:22Z</time></trkpt><trkpt lat="43.234690828212145" lon="12.91132092401862"><ele>662.6666666666666</ele><time>2026-04-11T08:21:23Z</time></trkpt><trkpt lat="43.23459223519207" lon="12.911286532930953"><ele>662.8333333333334</ele><time>2026-04-11T08:21:25Z</time></trkpt><trkpt lat="43.234530374980885" lon="12.911214746796045"><ele>663.0</ele><time>2026-04-11T08:21:26Z</time></trkpt><trkpt lat="43.23448971129765" lon="12.911081473802845"><ele>664.5999999999999</ele><time>2026-04-11T08:21:27Z</time></trkpt><trkpt lat="43.23444023711426" lon="12.910936531933391"><ele>666.1999999999999</ele><time>2026-04-11T08:21:28Z</time></trkpt><trkpt lat="43.234390780968056" lon="12.910777358226285"><ele>667.8</ele><time>2026-04-11T08:21:29Z</time></trkpt><trkpt lat="43.2343431990612" lon="12.910643301018009"><ele>669.4</ele><time>2026-04-11T08:21:30Z</time></trkpt><trkpt lat="43.234333600767094" lon="12.910514519522003"><ele>671.0</ele><time>2026-04-11T08:21:30.999Z</time></trkpt><trkpt lat="43.23434462334409" lon="12.910356774148877"><ele>672.8</ele><time>2026-04-11T08:21:31.999Z</time></trkpt><trkpt lat="43.23431705344021" lon="12.910199602998645"><ele>674.5999999999999</ele><time>2026-04-11T08:21:32.999Z</time></trkpt><trkpt lat="43.23427716232715" lon="12.910101247691673"><ele>676.4</ele><time>2026-04-11T08:21:33.999Z</time></trkpt><trkpt lat="43.23425543253927" lon="12.91001494431201"><ele>678.2</ele><time>2026-04-11T08:21:34.999Z</time></trkpt><trkpt lat="43.234280375261555" lon="12.909887705394052"><ele>680.0</ele><time>2026-04-11T08:21:35.999Z</time></trkpt><trkpt lat="43.23434076576498" lon="12.909742236270889"><ele>682.0</ele><time>2026-04-11T08:21:36.999Z</time></trkpt><trkpt lat="43.23441660143804" lon="12.909601491633339"><ele>684.0</ele><time>2026-04-11T08:21:37.999Z</time></trkpt><trkpt lat="43.23448703875076" lon="12.909456073707641"><ele>686.0</ele><time>2026-04-11T08:21:38.999Z</time></trkpt><trkpt lat="43.23455600442625" lon="12.909287713945346"><ele>688.0</ele><time>2026-04-11T08:21:39.999Z</time></trkpt><trkpt lat="43.23461056422884" lon="12.909129285803907"><ele>691.75</ele><time>2026-04-11T08:21:40.999Z</time></trkpt><trkpt lat="43.234664407570826" lon="12.908956199101215"><ele>695.5</ele><time>2026-04-11T08:21:41.999Z</time></trkpt><trkpt lat="43.23472709900866" lon="12.908774145023878"><ele>699.25</ele><time>2026-04-11T08:21:42.999Z</time></trkpt><trkpt lat="43.234753659972064" lon="12.908622601851466"><ele>703.0</ele><time>2026-04-11T08:21:43.999Z</time></trkpt><trkpt lat="43.23476228263032" lon="12.908499763196945"><ele>707.5</ele><time>2026-04-11T08:21:44.999Z</time></trkpt><trkpt lat="43.23474551410891" lon="12.908388411972952"><ele>712.0</ele><time>2026-04-11T08:21:45.999Z</time></trkpt><trkpt lat="43.23470459265265" lon="12.90831421840348"><ele>716.5</ele><time>2026-04-11T08:21:46.999Z</time></trkpt><trkpt lat="43.23463119931312" lon="12.90824123841375"><ele>721.0</ele><time>2026-04-11T08:21:47.999Z</time></trkpt><trkpt lat="43.234544040363865" lon="12.908164797574743"><ele>725.5</ele><time>2026-04-11T08:21:48.999Z</time></trkpt><trkpt lat="43.23450211401188" lon="12.908088822106563"><ele>730.0</ele><time>2026-04-11T08:21:49.999Z</time></trkpt><trkpt lat="43.23446061000637" lon="12.908009075819226"><ele>730.0</ele><time>2026-04-11T08:21:50.999Z</time></trkpt><trkpt lat="43.234360713099264" lon="12.907978629350257"><ele>730.0</ele><time>2026-04-11T08:21:51.999Z</time></trkpt><trkpt lat="43.234240719022516" lon="12.907970222077454"><ele>730.0</ele><time>2026-04-11T08:21:52.999Z</time></trkpt><trkpt lat="43.234146368169604" lon="12.907894169569502"><ele>730.0</ele><time>2026-04-11T08:21:53.999Z</time></trkpt><trkpt lat="43.23408070867447" lon="12.907802646236432"><ele>730.0</ele><time>2026-04-11T08:21:54.999Z</time></trkpt><trkpt lat="43.23400029642703" lon="12.907683760141204"><ele>731.25</ele><time>2026-04-11T08:21:55.999Z</time></trkpt><trkpt lat="43.233895874024846" lon="12.907600252006322"><ele>732.5</ele><time>2026-04-11T08:21:56.999Z</time></trkpt><trkpt lat="43.23378769336998" lon="12.90756352830208"><ele>733.75</ele><time>2026-04-11T08:21:57.999Z</time></trkpt><trkpt lat="43.233683912973234" lon="12.907581792621393"><ele>735.0</ele><time>2026-04-11T08:21:58.999Z</time></trkpt><trkpt lat="43.23356074262778" lon="12.907555717741037"><ele>740.3333333333334</ele><time>2026-04-11T08:21:59.999Z</time></trkpt><trkpt lat="43.233454621182084" lon="12.907509698959425"><ele>745.6666666666666</ele><time>2026-04-11T08:22:00.999Z</time></trkpt><trkpt lat="43.2333823491604" lon="12.907477262919736"><ele>751.0</ele><time>2026-04-11T08:22:01.999Z</time></trkpt><trkpt lat="43.23329330903803" lon="12.907388397670443"><ele>756.3333333333333</ele><time>2026-04-11T08:22:03.999Z</time></trkpt><trkpt lat="43.233325335785224" lon="12.90731279215969"><ele>761.6666666666666</ele><time>2026-04-11T08:22:05.999Z</time></trkpt><trkpt lat="43.23338352176465" lon="12.907245679918383"><ele>767.0</ele><time>2026-04-11T08:22:07.999Z</time></trkpt><trkpt lat="43.23344344339379" lon="12.907139846247524"><ele>767.0</ele><time>2026-04-11T08:22:09.999Z</time></trkpt><trkpt lat="43.23341897981453" lon="12.90705683388345"><ele>767.0</ele><time>2026-04-11T08:22:11.999Z</time></trkpt><trkpt lat="43.23341911620873" lon="12.906911809713574"><ele>767.0</ele><time>2026-04-11T08:22:13.999Z</time></trkpt><trkpt lat="43.23347189583084" lon="12.906835425352789"><ele>767.0</ele><time>2026-04-11T08:22:15.999Z</time></trkpt><trkpt lat="43.23352700323937" lon="12.906729484945709"><ele>767.0</ele><time>2026-04-11T08:22:17.999Z</time></trkpt><trkpt lat="43.23361123927639" lon="12.906615152291224"><ele>777.6666666666666</ele><time>2026-04-11T08:22:19.999Z</time></trkpt><trkpt lat="43.233834648064764" lon="12.906326589455812"><ele>788.3333333333333</ele><time>2026-04-11T08:22:21.999Z</time></trkpt><trkpt lat="43.23391832894239" lon="12.906219622807372"><ele>799.0</ele><time>2026-04-11T08:22:22.999Z</time></trkpt><trkpt lat="43.23401983811967" lon="12.906082320111826"><ele>799.0</ele><time>2026-04-11T08:22:23.999Z</time></trkpt><trkpt lat="43.234117837303195" lon="12.905987200845372"><ele>799.0</ele><time>2026-04-11T08:22:24.999Z</time></trkpt><trkpt lat="43.23422746155863" lon="12.905922766788251"><ele>799.0</ele><time>2026-04-11T08:22:25.999Z</time></trkpt><trkpt lat="43.23434436308855" lon="12.905881198904227"><ele>799.0</ele><time>2026-04-11T08:22:26.999Z</time></trkpt><trkpt lat="43.23443938566926" lon="12.905818731771163"><ele>806.5</ele><time>2026-04-11T08:22:27.999Z</time></trkpt><trkpt lat="43.234516508271845" lon="12.90574395301507"><ele>814.0</ele><time>2026-04-11T08:22:28.999Z</time></trkpt><trkpt lat="43.23462359527488" lon="12.905649502632848"><ele>821.5</ele><time>2026-04-11T08:22:29.999Z</time></trkpt><trkpt lat="43.234737673000566" lon="12.905616761989382"><ele>829.0</ele><time>2026-04-11T08:22:30.999Z</time></trkpt><trkpt lat="43.23485234541192" lon="12.905582697742998"><ele>829.0</ele><time>2026-04-11T08:22:31.999Z</time></trkpt><trkpt lat="43.23496265985209" lon="12.905544096623064"><ele>829.0</ele><time>2026-04-11T08:22:32.999Z</time></trkpt><trkpt lat="43.23506740286974" lon="12.90549012232408"><ele>829.0</ele><time>2026-04-11T08:22:33.999Z</time></trkpt><trkpt lat="43.235188841235484" lon="12.905472863301997"><ele>829.0</ele><time>2026-04-11T08:22:35Z</time></trkpt><trkpt lat="43.23531585135718" lon="12.905470978973433"><ele>829.0</ele><time>2026-04-11T08:22:36Z</time></trkpt><trkpt lat="43.23543698487938" lon="12.905467523672145"><ele>829.0</ele><time>2026-04-11T08:22:37Z</time></trkpt><trkpt lat="43.23553959420333" lon="12.905500023990356"><ele>829.0</ele><time>2026-04-11T08:22:38Z</time></trkpt><trkpt lat="43.23565357077078" lon="12.905587975200836"><ele>829.0</ele><time>2026-04-11T08:22:39Z</time></trkpt><trkpt lat="43.2357743147482" lon="12.905684226003162"><ele>830.0</ele><time>2026-04-11T08:22:40Z</time></trkpt><trkpt lat="43.23590731581714" lon="12.90576214280772"><ele>831.0</ele><time>2026-04-11T08:22:41Z</time></trkpt><trkpt lat="43.23605696323604" lon="12.905834478643426"><ele>832.0</ele><time>2026-04-11T08:22:42Z</time></trkpt><trkpt lat="43.23615954483712" lon="12.905827121035042"><ele>833.0</ele><time>2026-04-11T08:22:43Z</time></trkpt><trkpt lat="43.2362775769439" lon="12.905812812396459"><ele>833.0</ele><time>2026-04-11T08:22:44Z</time></trkpt><trkpt lat="43.23643653522081" lon="12.905810908394695"><ele>833.0</ele><time>2026-04-11T08:22:45Z</time></trkpt><trkpt lat="43.23655112523747" lon="12.905845614765912"><ele>833.0</ele><time>2026-04-11T08:22:46Z</time></trkpt><trkpt lat="43.23663701638131" lon="12.905901461199242"><ele>833.0</ele><time>2026-04-11T08:22:47Z</time></trkpt><trkpt lat="43.236704505486614" lon="12.905972225900586"><ele>832.6666666666667</ele><time>2026-04-11T08:22:48Z</time></trkpt><trkpt lat="43.23677818304064" lon="12.906069316481133"><ele>832.3333333333334</ele><time>2026-04-11T08:22:49Z</time></trkpt><trkpt lat="43.23684152072958" lon="12.906110349330602"><ele>832.0</ele><time>2026-04-11T08:22:50Z</time></trkpt><trkpt lat="43.23692190403442" lon="12.906172114498128"><ele>831.6666666666667</ele><time>2026-04-11T08:22:51Z</time></trkpt><trkpt lat="43.23700003526432" lon="12.906183440070492"><ele>831.3333333333334</ele><time>2026-04-11T08:22:53Z</time></trkpt><trkpt lat="43.23706954616471" lon="12.906246099281375"><ele>831.0</ele><time>2026-04-11T08:23:21Z</time></trkpt><trkpt lat="43.23710536685958" lon="12.906323680608649"><ele>831.0</ele><time>2026-04-11T08:23:23Z</time></trkpt><trkpt lat="43.23712897854642" lon="12.906412348259352"><ele>831.0</ele><time>2026-04-11T08:23:25Z</time></trkpt><trkpt lat="43.23716230308152" lon="12.906495996320027"><ele>831.0</ele><time>2026-04-11T08:23:26Z</time></trkpt><trkpt lat="43.23722076193118" lon="12.90655633500738"><ele>831.0</ele><time>2026-04-11T08:23:27Z</time></trkpt><trkpt lat="43.2372890977307" lon="12.906627025493941"><ele>831.0</ele><time>2026-04-11T08:23:28Z</time></trkpt><trkpt lat="43.23734138698999" lon="12.90667741858836"><ele>831.0</ele><time>2026-04-11T08:23:29Z</time></trkpt><trkpt lat="43.23740813900982" lon="12.906759346242287"><ele>833.7142857142857</ele><time>2026-04-11T08:23:30Z</time></trkpt><trkpt lat="43.237457514258026" lon="12.906820226297873"><ele>836.4285714285714</ele><time>2026-04-11T08:23:31Z</time></trkpt><trkpt lat="43.23751325721184" lon="12.906885681367912"><ele>839.1428571428571</ele><time>2026-04-11T08:23:32Z</time></trkpt><trkpt lat="43.23756007229107" lon="12.906948812890583"><ele>841.8571428571429</ele><time>2026-04-11T08:23:33Z</time></trkpt><trkpt lat="43.237604930642064" lon="12.907012050835545"><ele>844.5714285714286</ele><time>2026-04-11T08:23:34Z</time></trkpt><trkpt lat="43.237649325734786" lon="12.907075357564047"><ele>847.2857142857142</ele><time>2026-04-11T08:23:35Z</time></trkpt><trkpt lat="43.237692373813104" lon="12.90714572598097"><ele>850.0</ele><time>2026-04-11T08:23:36Z</time></trkpt><trkpt lat="43.23773747726457" lon="12.907218899789337"><ele>850.0</ele><time>2026-04-11T08:23:37Z</time></trkpt><trkpt lat="43.23777656230048" lon="12.907306189458227"><ele>850.0</ele><time>2026-04-11T08:23:38Z</time></trkpt><trkpt lat="43.2378117255245" lon="12.907409173982652"><ele>850.0</ele><time>2026-04-11T08:23:38.999Z</time></trkpt><trkpt lat="43.23785044193523" lon="12.907532036356967"><ele>850.0</ele><time>2026-04-11T08:23:39.999Z</time></trkpt><trkpt lat="43.237892728209026" lon="12.907660308698906"><ele>850.0</ele><time>2026-04-11T08:23:40.999Z</time></trkpt><trkpt lat="43.23793037158737" lon="12.907776043080945"><ele>846.9999999999999</ele><time>2026-04-11T08:23:41.999Z</time></trkpt><trkpt lat="43.23796522316283" lon="12.90786339566034"><ele>844.0</ele><time>2026-04-11T08:23:42.999Z</time></trkpt><trkpt lat="43.23802546490222" lon="12.90800219865803"><ele>841.0</ele><time>2026-04-11T08:23:44.999Z</time></trkpt><trkpt lat="43.23806283932476" lon="12.908094331220706"><ele>838.0</ele><time>2026-04-11T08:23:45.999Z</time></trkpt><trkpt lat="43.23808297872534" lon="12.908178159510395"><ele>834.9999999999999</ele><time>2026-04-11T08:23:46.999Z</time></trkpt><trkpt lat="43.238116270982474" lon="12.908305740597886"><ele>832.0</ele><time>2026-04-11T08:23:47.999Z</time></trkpt><trkpt lat="43.238159833264284" lon="12.908453350257101"><ele>832.0</ele><time>2026-04-11T08:23:48.999Z</time></trkpt><trkpt lat="43.23821052529054" lon="12.908584724896688"><ele>832.0</ele><time>2026-04-11T08:23:49.999Z</time></trkpt><trkpt lat="43.23826031925237" lon="12.90868285213388"><ele>832.0</ele><time>2026-04-11T08:23:50.999Z</time></trkpt><trkpt lat="43.23831457815286" lon="12.908788978319823"><ele>832.0</ele><time>2026-04-11T08:23:51.999Z</time></trkpt><trkpt lat="43.238381580181" lon="12.908883620954857"><ele>832.0</ele><time>2026-04-11T08:23:52.999Z</time></trkpt><trkpt lat="43.23843742135061" lon="12.908980820178174"><ele>832.0</ele><time>2026-04-11T08:23:53.999Z</time></trkpt><trkpt lat="43.238495912387556" lon="12.909098760253476"><ele>832.0</ele><time>2026-04-11T08:23:54.999Z</time></trkpt><trkpt lat="43.23857601523126" lon="12.909205356062856"><ele>832.0</ele><time>2026-04-11T08:23:55.999Z</time></trkpt><trkpt lat="43.23865682847362" lon="12.909312005945619"><ele>832.0</ele><time>2026-04-11T08:23:56.999Z</time></trkpt><trkpt lat="43.238739879932716" lon="12.909433221017448"><ele>832.0</ele><time>2026-04-11T08:23:57.999Z</time></trkpt><trkpt lat="43.238792349346824" lon="12.909548336788363"><ele>830.5</ele><time>2026-04-11T08:23:58.999Z</time></trkpt><trkpt lat="43.23885555405152" lon="12.909660886056418"><ele>829.0</ele><time>2026-04-11T08:23:59.999Z</time></trkpt><trkpt lat="43.238927130457455" lon="12.90975655022719"><ele>827.5</ele><time>2026-04-11T08:24:00.999Z</time></trkpt><trkpt lat="43.239028076797375" lon="12.909864132898988"><ele>826.0</ele><time>2026-04-11T08:24:01.999Z</time></trkpt><trkpt lat="43.2391385215245" lon="12.909982651942334"><ele>822.3333333333333</ele><time>2026-04-11T08:24:02.999Z</time></trkpt><trkpt lat="43.239254336617414" lon="12.910118562378653"><ele>818.6666666666667</ele><time>2026-04-11T08:24:03.999Z</time></trkpt><trkpt lat="43.2393654920027" lon="12.910270467075671"><ele>815.0</ele><time>2026-04-11T08:24:04.999Z</time></trkpt><trkpt lat="43.2394756723364" lon="12.910440570568774"><ele>815.0</ele><time>2026-04-11T08:24:05.999Z</time></trkpt><trkpt lat="43.23957457366969" lon="12.910585097346036"><ele>815.0</ele><time>2026-04-11T08:24:06.999Z</time></trkpt><trkpt lat="43.239664081838185" lon="12.91071971601344"><ele>815.0</ele><time>2026-04-11T08:24:07.999Z</time></trkpt><trkpt lat="43.23974147793906" lon="12.910854437511848"><ele>815.0</ele><time>2026-04-11T08:24:08.999Z</time></trkpt><trkpt lat="43.23981958488502" lon="12.910990832903739"><ele>818.6666666666667</ele><time>2026-04-11T08:24:09.999Z</time></trkpt><trkpt lat="43.23990273743745" lon="12.911145600744128"><ele>822.3333333333333</ele><time>2026-04-11T08:24:10.999Z</time></trkpt><trkpt lat="43.23998714502199" lon="12.911331633943355"><ele>826.0</ele><time>2026-04-11T08:24:11.999Z</time></trkpt><trkpt lat="43.24007132243784" lon="12.911519232562718"><ele>826.0</ele><time>2026-04-11T08:24:12.999Z</time></trkpt><trkpt lat="43.240165219093214" lon="12.911682309951852"><ele>826.0</ele><time>2026-04-11T08:24:13.999Z</time></trkpt><trkpt lat="43.24026057038642" lon="12.911843850586873"><ele>826.0</ele><time>2026-04-11T08:24:14.999Z</time></trkpt><trkpt lat="43.240331907625716" lon="12.911999678591808"><ele>826.0</ele><time>2026-04-11T08:24:15.999Z</time></trkpt><trkpt lat="43.24038266095408" lon="12.912143377886364"><ele>827.5</ele><time>2026-04-11T08:24:16.999Z</time></trkpt><trkpt lat="43.24044030049603" lon="12.912284581327764"><ele>829.0</ele><time>2026-04-11T08:24:17.999Z</time></trkpt><trkpt lat="43.240522978977474" lon="12.912453295195101"><ele>830.5</ele><time>2026-04-11T08:24:18.999Z</time></trkpt><trkpt lat="43.240582379636706" lon="12.912617116760382"><ele>832.0</ele><time>2026-04-11T08:24:19.999Z</time></trkpt><trkpt lat="43.24064578168053" lon="12.912792002974175"><ele>839.75</ele><time>2026-04-11T08:24:20.999Z</time></trkpt><trkpt lat="43.240719222000486" lon="12.912956621750139"><ele>847.5</ele><time>2026-04-11T08:24:21.999Z</time></trkpt><trkpt lat="43.24078464179557" lon="12.913130395954784"><ele>855.25</ele><time>2026-04-11T08:24:22.999Z</time></trkpt><trkpt lat="43.24085802012205" lon="12.913312293679862"><ele>863.0</ele><time>2026-04-11T08:24:23.999Z</time></trkpt><trkpt lat="43.240920248111735" lon="12.913502431854585"><ele>865.75</ele><time>2026-04-11T08:24:24.999Z</time></trkpt><trkpt lat="43.24098684030882" lon="12.913655587951444"><ele>868.5</ele><time>2026-04-11T08:24:25.999Z</time></trkpt><trkpt lat="43.24103586121135" lon="12.913784982250665"><ele>871.25</ele><time>2026-04-11T08:24:26.999Z</time></trkpt><trkpt lat="43.24108593968019" lon="12.913927056963377"><ele>874.0</ele><time>2026-04-11T08:24:27.999Z</time></trkpt><trkpt lat="43.24114367688724" lon="12.914053664621143"><ele>873.9999999999999</ele><time>2026-04-11T08:24:28.999Z</time></trkpt><trkpt lat="43.24118755794928" lon="12.91416081878766"><ele>874.0</ele><time>2026-04-11T08:24:29.999Z</time></trkpt><trkpt lat="43.24123161023866" lon="12.914265387620306"><ele>874.0</ele><time>2026-04-11T08:24:30.999Z</time></trkpt><trkpt lat="43.2412581016881" lon="12.914359992239447"><ele>874.0</ele><time>2026-04-11T08:24:31.999Z</time></trkpt><trkpt lat="43.2412739525593" lon="12.914451543891431"><ele>873.9999999999999</ele><time>2026-04-11T08:24:32.999Z</time></trkpt><trkpt lat="43.24128747798274" lon="12.914540881043695"><ele>874.0</ele><time>2026-04-11T08:24:33.999Z</time></trkpt><trkpt lat="43.24131333817422" lon="12.914643066688013"><ele>874.1666666666666</ele><time>2026-04-11T08:24:34.999Z</time></trkpt><trkpt lat="43.24132556769954" lon="12.914741046897152"><ele>874.3333333333333</ele><time>2026-04-11T08:24:35.999Z</time></trkpt><trkpt lat="43.24132938945515" lon="12.914871003500297"><ele>874.5</ele><time>2026-04-11T08:24:36.999Z</time></trkpt><trkpt lat="43.24131641261231" lon="12.914972028054938"><ele>874.6666666666667</ele><time>2026-04-11T08:24:37.999Z</time></trkpt><trkpt lat="43.24132240756975" lon="12.915094071960961"><ele>874.8333333333334</ele><time>2026-04-11T08:24:38.999Z</time></trkpt><trkpt lat="43.24132874120101" lon="12.915211186722017"><ele>875.0</ele><time>2026-04-11T08:24:39.999Z</time></trkpt><trkpt lat="43.241332375683335" lon="12.915324164016075"><ele>875.0</ele><time>2026-04-11T08:24:41Z</time></trkpt><trkpt lat="43.241342256740154" lon="12.915453332515522"><ele>875.0</ele><time>2026-04-11T08:24:42Z</time></trkpt><trkpt lat="43.24137092761021" lon="12.915610436273438"><ele>875.0</ele><time>2026-04-11T08:24:43Z</time></trkpt><trkpt lat="43.2413905216438" lon="12.91576651441511"><ele>875.0</ele><time>2026-04-11T08:24:44Z</time></trkpt><trkpt lat="43.24140312954395" lon="12.915910495292446"><ele>875.0</ele><time>2026-04-11T08:24:45Z</time></trkpt><trkpt lat="43.241414187669456" lon="12.916051407449725"><ele>873.0</ele><time>2026-04-11T08:24:46Z</time></trkpt><trkpt lat="43.241437143239956" lon="12.916199143339908"><ele>871.0</ele><time>2026-04-11T08:24:47Z</time></trkpt><trkpt lat="43.24147372524551" lon="12.916336318074718"><ele>869.0</ele><time>2026-04-11T08:24:48Z</time></trkpt><trkpt lat="43.24151821569242" lon="12.916455119510527"><ele>867.0</ele><time>2026-04-11T08:24:49Z</time></trkpt><trkpt lat="43.24158545593196" lon="12.91656159288634"><ele>865.0</ele><time>2026-04-11T08:24:50Z</time></trkpt><trkpt lat="43.24166350030772" lon="12.91667124008104"><ele>870.0</ele><time>2026-04-11T08:24:51Z</time></trkpt><trkpt lat="43.24171875093324" lon="12.916786422668254"><ele>875.0</ele><time>2026-04-11T08:24:52Z</time></trkpt><trkpt lat="43.24178299575993" lon="12.916932927608288"><ele>880.0</ele><time>2026-04-11T08:24:53Z</time></trkpt><trkpt lat="43.24184275226853" lon="12.91707750492888"><ele>885.0</ele><time>2026-04-11T08:24:54Z</time></trkpt><trkpt lat="43.24190285521933" lon="12.9172269902153"><ele>885.0</ele><time>2026-04-11T08:24:55Z</time></trkpt><trkpt lat="43.24196910729046" lon="12.917377859768903"><ele>885.0</ele><time>2026-04-11T08:24:56Z</time></trkpt><trkpt lat="43.24203710072368" lon="12.917542081093849"><ele>885.0</ele><time>2026-04-11T08:24:57Z</time></trkpt><trkpt lat="43.24210605364133" lon="12.91769602588559"><ele>885.0</ele><time>2026-04-11T08:24:58Z</time></trkpt><trkpt lat="43.24217254487723" lon="12.917843649537973"><ele>886.2</ele><time>2026-04-11T08:24:59Z</time></trkpt><trkpt lat="43.24224444349335" lon="12.917982332366059"><ele>887.4</ele><time>2026-04-11T08:25:00Z</time></trkpt><trkpt lat="43.242316636430374" lon="12.918082195336599"><ele>888.5999999999999</ele><time>2026-04-11T08:25:01Z</time></trkpt><trkpt lat="43.24241041339781" lon="12.918160135708906"><ele>889.8</ele><time>2026-04-11T08:25:02Z</time></trkpt><trkpt lat="43.2425019369307" lon="12.918187869240773"><ele>891.0</ele><time>2026-04-11T08:25:03Z</time></trkpt><trkpt lat="43.24260375413441" lon="12.918206589247118"><ele>891.0</ele><time>2026-04-11T08:25:04Z</time></trkpt><trkpt lat="43.242707090173234" lon="12.918260442874884"><ele>891.0</ele><time>2026-04-11T08:25:05Z</time></trkpt><trkpt lat="43.24282571044178" lon="12.918300889906968"><ele>891.0</ele><time>2026-04-11T08:25:06Z</time></trkpt><trkpt lat="43.24294125626665" lon="12.918322882701782"><ele>891.0</ele><time>2026-04-11T08:25:07Z</time></trkpt><trkpt lat="43.24304119700741" lon="12.918342267262451"><ele>891.25</ele><time>2026-04-11T08:25:08Z</time></trkpt><trkpt lat="43.243162855381634" lon="12.918378515883603"><ele>891.5</ele><time>2026-04-11T08:25:09Z</time></trkpt><trkpt lat="43.24327627673172" lon="12.91841918915513"><ele>891.75</ele><time>2026-04-11T08:25:10Z</time></trkpt><trkpt lat="43.243397939925686" lon="12.91846159526518"><ele>892.0</ele><time>2026-04-11T08:25:11Z</time></trkpt><trkpt lat="43.24349511995965" lon="12.91851444895056"><ele>892.0</ele><time>2026-04-11T08:25:12Z</time></trkpt><trkpt lat="43.24360495416907" lon="12.91853956369134"><ele>892.0</ele><time>2026-04-11T08:25:13Z</time></trkpt><trkpt lat="43.24371253093185" lon="12.918574540015532"><ele>892.0</ele><time>2026-04-11T08:25:14Z</time></trkpt><trkpt lat="43.24383843611865" lon="12.918614630715648"><ele>892.0</ele><time>2026-04-11T08:25:15Z</time></trkpt><trkpt lat="43.243955307722324" lon="12.918655647265814"><ele>894.2</ele><time>2026-04-11T08:25:16Z</time></trkpt><trkpt lat="43.24406652024188" lon="12.918685625258352"><ele>896.4000000000001</ele><time>2026-04-11T08:25:17Z</time></trkpt><trkpt lat="43.244171293826916" lon="12.918711399062568"><ele>898.5999999999999</ele><time>2026-04-11T08:25:18Z</time></trkpt><trkpt lat="43.244281809638544" lon="12.91874145046958"><ele>900.8</ele><time>2026-04-11T08:25:19Z</time></trkpt><trkpt lat="43.24437834309759" lon="12.918766391774469"><ele>903.0</ele><time>2026-04-11T08:25:20Z</time></trkpt><trkpt lat="43.2444759860027" lon="12.91880469124546"><ele>903.0</ele><time>2026-04-11T08:25:21Z</time></trkpt><trkpt lat="43.244582825767395" lon="12.91885561012591"><ele>903.0</ele><time>2026-04-11T08:25:22Z</time></trkpt><trkpt lat="43.24469206551491" lon="12.918905694645003"><ele>903.0</ele><time>2026-04-11T08:25:23Z</time></trkpt><trkpt lat="43.244795354465566" lon="12.918959730662905"><ele>903.0</ele><time>2026-04-11T08:25:24Z</time></trkpt><trkpt lat="43.244906446539524" lon="12.919013106035901"><ele>903.5</ele><time>2026-04-11T08:25:25Z</time></trkpt><trkpt lat="43.24501927194898" lon="12.91907625854448"><ele>904.0</ele><time>2026-04-11T08:25:26Z</time></trkpt><trkpt lat="43.24512377825396" lon="12.919160505068673"><ele>904.5</ele><time>2026-04-11T08:25:27Z</time></trkpt><trkpt lat="43.24520874320443" lon="12.919244538559834"><ele>905.0</ele><time>2026-04-11T08:25:28Z</time></trkpt><trkpt lat="43.24529238990231" lon="12.91933610134325"><ele>905.0</ele><time>2026-04-11T08:25:29Z</time></trkpt><trkpt lat="43.24538122277708" lon="12.91943395945945"><ele>905.0</ele><time>2026-04-11T08:25:30Z</time></trkpt><trkpt lat="43.245511476921884" lon="12.919526315022804"><ele>905.0</ele><time>2026-04-11T08:25:31Z</time></trkpt><trkpt lat="43.245646977091546" lon="12.919607541552981"><ele>905.0</ele><time>2026-04-11T08:25:32Z</time></trkpt><trkpt lat="43.245758121683586" lon="12.919706930022436"><ele>908.0</ele><time>2026-04-11T08:25:33Z</time></trkpt><trkpt lat="43.24584734990635" lon="12.919765099348947"><ele>911.0</ele><time>2026-04-11T08:25:34Z</time></trkpt><trkpt lat="43.245929417441495" lon="12.919836561121844"><ele>914.0</ele><time>2026-04-11T08:25:35Z</time></trkpt><trkpt lat="43.2460120524728" lon="12.919906700082919"><ele>917.0</ele><time>2026-04-11T08:25:36Z</time></trkpt><trkpt lat="43.24609706307125" lon="12.919980127131584"><ele>920.0</ele><time>2026-04-11T08:25:37Z</time></trkpt><trkpt lat="43.24618887152123" lon="12.920060880598797"><ele>920.0</ele><time>2026-04-11T08:25:38Z</time></trkpt><trkpt lat="43.24628467689198" lon="12.920139303688696"><ele>920.0</ele><time>2026-04-11T08:25:39Z</time></trkpt><trkpt lat="43.246389238881015" lon="12.920229570024905"><ele>920.0</ele><time>2026-04-11T08:25:40Z</time></trkpt><trkpt lat="43.24648767298711" lon="12.920308086780217"><ele>920.0</ele><time>2026-04-11T08:25:41Z</time></trkpt><trkpt lat="43.24657636071616" lon="12.920383235184975"><ele>920.0000000000001</ele><time>2026-04-11T08:25:42Z</time></trkpt><trkpt lat="43.24665940759169" lon="12.920449388891736"><ele>920.0</ele><time>2026-04-11T08:25:43Z</time></trkpt><trkpt lat="43.24673245644217" lon="12.92051331376026"><ele>920.0</ele><time>2026-04-11T08:25:44Z</time></trkpt><trkpt lat="43.246793273257396" lon="12.920578331754701"><ele>920.0</ele><time>2026-04-11T08:25:45Z</time></trkpt><trkpt lat="43.246850153789744" lon="12.920629141251794"><ele>920.0000000000001</ele><time>2026-04-11T08:25:46Z</time></trkpt><trkpt lat="43.246908227583035" lon="12.920675157552687"><ele>920.0</ele><time>2026-04-11T08:26:13.999Z</time></trkpt><trkpt lat="43.246994135966254" lon="12.920764611430453"><ele>920.0000000000001</ele><time>2026-04-11T08:26:15.999Z</time></trkpt><trkpt lat="43.247039616959114" lon="12.920829777623462"><ele>920.0</ele><time>2026-04-11T08:26:16.999Z</time></trkpt><trkpt lat="43.247080570118925" lon="12.920895528590444"><ele>920.0</ele><time>2026-04-11T08:26:17.999Z</time></trkpt><trkpt lat="43.247152396475336" lon="12.921017301860243"><ele>920.0</ele><time>2026-04-11T08:26:19.999Z</time></trkpt><trkpt lat="43.247238017247746" lon="12.921125680400108"><ele>920.0000000000001</ele><time>2026-04-11T08:26:21.999Z</time></trkpt><trkpt lat="43.24728496054979" lon="12.921204111797573"><ele>920.0</ele><time>2026-04-11T08:26:22.999Z</time></trkpt><trkpt lat="43.24733317616763" lon="12.921303249727515"><ele>919.6</ele><time>2026-04-11T08:26:23.999Z</time></trkpt><trkpt lat="43.247381701033206" lon="12.921410470549153"><ele>919.2</ele><time>2026-04-11T08:26:24.999Z</time></trkpt><trkpt lat="43.24741051250551" lon="12.921509311180214"><ele>918.8</ele><time>2026-04-11T08:26:25.999Z</time></trkpt><trkpt lat="43.24744178973909" lon="12.921621738495121"><ele>918.4</ele><time>2026-04-11T08:26:26.999Z</time></trkpt><trkpt lat="43.24746359649477" lon="12.921746289847562"><ele>918.0</ele><time>2026-04-11T08:26:27.999Z</time></trkpt><trkpt lat="43.2474824073082" lon="12.921913458031778"><ele>918.0</ele><time>2026-04-11T08:26:28.999Z</time></trkpt><trkpt lat="43.247531130709646" lon="12.922035430631126"><ele>918.0</ele><time>2026-04-11T08:26:29.999Z</time></trkpt><trkpt lat="43.24758799023441" lon="12.922121838935187"><ele>918.0</ele><time>2026-04-11T08:26:30.999Z</time></trkpt><trkpt lat="43.24765931486706" lon="12.922211187714153"><ele>918.0</ele><time>2026-04-11T08:26:31.999Z</time></trkpt><trkpt lat="43.24774221347649" lon="12.922313056089562"><ele>918.0</ele><time>2026-04-11T08:26:32.999Z</time></trkpt><trkpt lat="43.24780608651529" lon="12.922380235405713"><ele>918.0</ele><time>2026-04-11T08:26:33.999Z</time></trkpt><trkpt lat="43.24787076483564" lon="12.922464861496202"><ele>918.0</ele><time>2026-04-11T08:26:34.999Z</time></trkpt><trkpt lat="43.247939007211386" lon="12.922567516764477"><ele>918.0</ele><time>2026-04-11T08:26:35.999Z</time></trkpt><trkpt lat="43.24802085506046" lon="12.922670584511776"><ele>918.0</ele><time>2026-04-11T08:26:36.999Z</time></trkpt><trkpt lat="43.24809636456316" lon="12.922754777486418"><ele>918.0</ele><time>2026-04-11T08:26:37.999Z</time></trkpt><trkpt lat="43.248161124623536" lon="12.922847548343306"><ele>918.0</ele><time>2026-04-11T08:26:38.999Z</time></trkpt><trkpt lat="43.24822381832883" lon="12.922945728640963"><ele>918.0</ele><time>2026-04-11T08:26:39.999Z</time></trkpt><trkpt lat="43.24829135443023" lon="12.923037014093577"><ele>918.0</ele><time>2026-04-11T08:26:40.999Z</time></trkpt><trkpt lat="43.24835832596531" lon="12.923131286670447"><ele>918.0</ele><time>2026-04-11T08:26:41.999Z</time></trkpt><trkpt lat="43.248420174473516" lon="12.923237970804767"><ele>918.0</ele><time>2026-04-11T08:26:42.999Z</time></trkpt><trkpt lat="43.248476829105634" lon="12.923357150974189"><ele>920.3333333333334</ele><time>2026-04-11T08:26:43.999Z</time></trkpt><trkpt lat="43.24853046987486" lon="12.923444533591141"><ele>922.6666666666667</ele><time>2026-04-11T08:26:44.999Z</time></trkpt><trkpt lat="43.248583906803056" lon="12.923546929205745"><ele>925.0</ele><time>2026-04-11T08:26:45.999Z</time></trkpt><trkpt lat="43.24863354809452" lon="12.923625096458178"><ele>927.3333333333334</ele><time>2026-04-11T08:26:47Z</time></trkpt><trkpt lat="43.24869433831929" lon="12.92370993390173"><ele>929.6666666666667</ele><time>2026-04-11T08:26:48Z</time></trkpt><trkpt lat="43.248746191573424" lon="12.923817578265366"><ele>932.0</ele><time>2026-04-11T08:26:49Z</time></trkpt><trkpt lat="43.248805480404734" lon="12.923915972439135"><ele>932.0</ele><time>2026-04-11T08:26:50Z</time></trkpt><trkpt lat="43.248853855456346" lon="12.924010165737176"><ele>932.0</ele><time>2026-04-11T08:26:51Z</time></trkpt><trkpt lat="43.24889050053386" lon="12.924083762680844"><ele>932.0</ele><time>2026-04-11T08:26:52Z</time></trkpt><trkpt lat="43.248940679802956" lon="12.924205968962594"><ele>932.0</ele><time>2026-04-11T08:26:54Z</time></trkpt><trkpt lat="43.2490284909704" lon="12.924359330156953"><ele>932.0</ele><time>2026-04-11T08:26:56Z</time></trkpt><trkpt lat="43.24905856358875" lon="12.924440993794326"><ele>929.8333333333334</ele><time>2026-04-11T08:26:57Z</time></trkpt><trkpt lat="43.24911265963097" lon="12.92457374061423"><ele>927.6666666666667</ele><time>2026-04-11T08:26:59Z</time></trkpt><trkpt lat="43.24916801365231" lon="12.924636243257734"><ele>925.5</ele><time>2026-04-11T08:27:00Z</time></trkpt><trkpt lat="43.249215167171556" lon="12.924710427999273"><ele>923.3333333333333</ele><time>2026-04-11T08:27:01Z</time></trkpt><trkpt lat="43.249271671027884" lon="12.924797564442045"><ele>921.1666666666666</ele><time>2026-04-11T08:27:02Z</time></trkpt><trkpt lat="43.24931603143307" lon="12.924862475515704"><ele>919.0</ele><time>2026-04-11T08:27:03Z</time></trkpt><trkpt lat="43.24936326943316" lon="12.924922243397674"><ele>918.9999999999999</ele><time>2026-04-11T08:27:04Z</time></trkpt><trkpt lat="43.2494207280749" lon="12.924979616285459"><ele>919.0</ele><time>2026-04-11T08:27:05Z</time></trkpt><trkpt lat="43.249480469653264" lon="12.925054989711084"><ele>919.0</ele><time>2026-04-11T08:27:06Z</time></trkpt><trkpt lat="43.249540645208725" lon="12.92513790775904"><ele>919.0</ele><time>2026-04-11T08:27:07Z</time></trkpt><trkpt lat="43.24961105770743" lon="12.925195135002125"><ele>918.9999999999999</ele><time>2026-04-11T08:27:08Z</time></trkpt><trkpt lat="43.24966497546441" lon="12.925270209749964"><ele>919.0</ele><time>2026-04-11T08:27:09Z</time></trkpt><trkpt lat="43.249743163132045" lon="12.925338012063584"><ele>917.8000000000001</ele><time>2026-04-11T08:27:10Z</time></trkpt><trkpt lat="43.24982310883768" lon="12.925438525984735"><ele>916.6000000000001</ele><time>2026-04-11T08:27:11Z</time></trkpt><trkpt lat="43.24987455003662" lon="12.92555545608412"><ele>915.4</ele><time>2026-04-11T08:27:12Z</time></trkpt><trkpt lat="43.24993217010999" lon="12.925659084830041"><ele>914.2</ele><time>2026-04-11T08:27:13Z</time></trkpt><trkpt lat="43.249991843380855" lon="12.925739141079498"><ele>913.0</ele><time>2026-04-11T08:27:14Z</time></trkpt><trkpt lat="43.25005532642996" lon="12.925797146151638"><ele>913.0</ele><time>2026-04-11T08:27:15Z</time></trkpt><trkpt lat="43.25011930178118" lon="12.925875122068065"><ele>913.0</ele><time>2026-04-11T08:27:16Z</time></trkpt><trkpt lat="43.250174431057914" lon="12.925928209119565"><ele>913.0</ele><time>2026-04-11T08:27:17Z</time></trkpt><trkpt lat="43.25022744951548" lon="12.925977932270186"><ele>913.0</ele><time>2026-04-11T08:27:19Z</time></trkpt><trkpt lat="43.25034894371583" lon="12.925981665686576"><ele>913.0</ele><time>2026-04-11T08:27:22Z</time></trkpt><trkpt lat="43.2504616554117" lon="12.926060483759667"><ele>913.4</ele><time>2026-04-11T08:27:24Z</time></trkpt><trkpt lat="43.25055223197293" lon="12.926074342628823"><ele>913.8</ele><time>2026-04-11T08:27:26Z</time></trkpt><trkpt lat="43.250690229863714" lon="12.926144673053566"><ele>914.2</ele><time>2026-04-11T08:27:28Z</time></trkpt><trkpt lat="43.25077849263835" lon="12.926220599309337"><ele>914.6</ele><time>2026-04-11T08:27:29Z</time></trkpt><trkpt lat="43.250878185246975" lon="12.926247001787646"><ele>915.0</ele><time>2026-04-11T08:27:30Z</time></trkpt><trkpt lat="43.25098420398096" lon="12.92626174812654"><ele>911.75</ele><time>2026-04-11T08:27:31Z</time></trkpt><trkpt lat="43.25109788558853" lon="12.926289799482168"><ele>908.5</ele><time>2026-04-11T08:27:32Z</time></trkpt><trkpt lat="43.25120987860327" lon="12.926325502739852"><ele>905.25</ele><time>2026-04-11T08:27:33Z</time></trkpt><trkpt lat="43.251336348582946" lon="12.926358942736805"><ele>902.0</ele><time>2026-04-11T08:27:34Z</time></trkpt><trkpt lat="43.2514556159124" lon="12.926369549292588"><ele>899.0000000000001</ele><time>2026-04-11T08:27:35Z</time></trkpt><trkpt lat="43.25157130359245" lon="12.926391849166057"><ele>896.0</ele><time>2026-04-11T08:27:36Z</time></trkpt><trkpt lat="43.25165179082207" lon="12.926430425249139"><ele>893.0</ele><time>2026-04-11T08:27:37Z</time></trkpt><trkpt lat="43.25172301777021" lon="12.926466062055685"><ele>890.0</ele><time>2026-04-11T08:27:38Z</time></trkpt><trkpt lat="43.25179969901944" lon="12.926511265792332"><ele>887.0000000000001</ele><time>2026-04-11T08:27:39Z</time></trkpt><trkpt lat="43.251870636945746" lon="12.92656027743094"><ele>884.0</ele><time>2026-04-11T08:27:40Z</time></trkpt><trkpt lat="43.25194486542758" lon="12.926587270142809"><ele>884.0000000000001</ele><time>2026-04-11T08:27:41Z</time></trkpt><trkpt lat="43.25202892975652" lon="12.926595625143433"><ele>884.0</ele><time>2026-04-11T08:27:42Z</time></trkpt><trkpt lat="43.25210302333245" lon="12.92656952113906"><ele>884.0</ele><time>2026-04-11T08:27:43Z</time></trkpt><trkpt lat="43.25218247749667" lon="12.926589630563251"><ele>884.0</ele><time>2026-04-11T08:27:45Z</time></trkpt><trkpt lat="43.25225451722722" lon="12.926553602923825"><ele>884.0000000000001</ele><time>2026-04-11T08:27:50Z</time></trkpt><trkpt lat="43.252298424184815" lon="12.926467970866705"><ele>884.0</ele><time>2026-04-11T08:27:52Z</time></trkpt><trkpt lat="43.252343564078046" lon="12.926354465068247"><ele>880.8333333333334</ele><time>2026-04-11T08:27:54Z</time></trkpt><trkpt lat="43.252340606221345" lon="12.926252130025755"><ele>877.6666666666667</ele><time>2026-04-11T08:27:56Z</time></trkpt><trkpt lat="43.252347228327515" lon="12.92614758216632"><ele>874.5</ele><time>2026-04-11T08:27:59Z</time></trkpt><trkpt lat="43.25236903574478" lon="12.926041207287572"><ele>871.3333333333333</ele><time>2026-04-11T08:28:00.999Z</time></trkpt><trkpt lat="43.252416036557065" lon="12.925939110130054"><ele>868.1666666666666</ele><time>2026-04-11T08:28:02.999Z</time></trkpt><trkpt lat="43.252446984368994" lon="12.925847018140702"><ele>865.0</ele><time>2026-04-11T08:28:04.999Z</time></trkpt><trkpt lat="43.252572920730366" lon="12.925824491364159"><ele>864.9999999999999</ele><time>2026-04-11T08:28:06.999Z</time></trkpt><trkpt lat="43.25268246445162" lon="12.925845509477119"><ele>865.0</ele><time>2026-04-11T08:28:07.999Z</time></trkpt><trkpt lat="43.25274228880015" lon="12.925890897911435"><ele>865.0</ele><time>2026-04-11T08:28:08.999Z</time></trkpt><trkpt lat="43.25280389791399" lon="12.925931516464056"><ele>865.0</ele><time>2026-04-11T08:28:09.999Z</time></trkpt><trkpt lat="43.25283757511959" lon="12.92606656537209"><ele>864.9999999999999</ele><time>2026-04-11T08:28:11.999Z</time></trkpt><trkpt lat="43.25281349080926" lon="12.92614776204118"><ele>865.0</ele><time>2026-04-11T08:28:12.999Z</time></trkpt><trkpt lat="43.25281120170695" lon="12.926311355466474"><ele>865.0</ele><time>2026-04-11T08:28:14.999Z</time></trkpt><trkpt lat="43.25279208174941" lon="12.926408698667728"><ele>865.0</ele><time>2026-04-11T08:28:15.999Z</time></trkpt><trkpt lat="43.25273570364483" lon="12.926534937883048"><ele>865.0</ele><time>2026-04-11T08:28:17.999Z</time></trkpt><trkpt lat="43.252700648115315" lon="12.926729659034411"><ele>865.0</ele><time>2026-04-11T08:28:19.999Z</time></trkpt><trkpt lat="43.25265643849399" lon="12.926809878587832"><ele>865.0</ele><time>2026-04-11T08:28:20.999Z</time></trkpt><trkpt lat="43.252613764812345" lon="12.926889633973557"><ele>866.1666666666666</ele><time>2026-04-11T08:28:21.999Z</time></trkpt><trkpt lat="43.252607502470944" lon="12.926982106985289"><ele>867.3333333333333</ele><time>2026-04-11T08:28:22.999Z</time></trkpt><trkpt lat="43.2526524264846" lon="12.92706133923809"><ele>868.5</ele><time>2026-04-11T08:28:23.999Z</time></trkpt><trkpt lat="43.25270618135171" lon="12.927127361636815"><ele>869.6666666666667</ele><time>2026-04-11T08:28:24.999Z</time></trkpt><trkpt lat="43.252737060781826" lon="12.927209187273318"><ele>870.8333333333334</ele><time>2026-04-11T08:28:25.999Z</time></trkpt><trkpt lat="43.252780480180725" lon="12.927356033903324"><ele>872.0</ele><time>2026-04-11T08:28:26.999Z</time></trkpt><trkpt lat="43.25283582613152" lon="12.927475267039656"><ele>875.8</ele><time>2026-04-11T08:28:27.999Z</time></trkpt><trkpt lat="43.25288819960557" lon="12.92761420351812"><ele>879.6</ele><time>2026-04-11T08:28:28.999Z</time></trkpt><trkpt lat="43.252952184884556" lon="12.927738019858682"><ele>883.3999999999999</ele><time>2026-04-11T08:28:29.999Z</time></trkpt><trkpt lat="43.2530121899241" lon="12.927792219223667"><ele>887.1999999999999</ele><time>2026-04-11T08:28:31.999Z</time></trkpt><trkpt lat="43.25308350983473" lon="12.927890427534294"><ele>891.0</ele><time>2026-04-11T08:28:34.999Z</time></trkpt><trkpt lat="43.25312230197111" lon="12.927976693404334"><ele>888.5</ele><time>2026-04-11T08:28:35.999Z</time></trkpt><trkpt lat="43.253177292284334" lon="12.928070758508472"><ele>886.0</ele><time>2026-04-11T08:28:36.999Z</time></trkpt><trkpt lat="43.25322356301965" lon="12.92816237272263"><ele>883.5</ele><time>2026-04-11T08:28:37.999Z</time></trkpt><trkpt lat="43.25328681970937" lon="12.928262256960364"><ele>881.0</ele><time>2026-04-11T08:28:38.999Z</time></trkpt><trkpt lat="43.25332922288331" lon="12.928345809715912"><ele>878.5</ele><time>2026-04-11T08:28:39.999Z</time></trkpt><trkpt lat="43.25339312822363" lon="12.92846418423152"><ele>876.0</ele><time>2026-04-11T08:28:41.999Z</time></trkpt><trkpt lat="43.25346490470094" lon="12.928545034443246"><ele>876.0</ele><time>2026-04-11T08:28:43.999Z</time></trkpt><trkpt lat="43.25355511453722" lon="12.92862670664221"><ele>876.0</ele><time>2026-04-11T08:28:45.999Z</time></trkpt><trkpt lat="43.25363665181123" lon="12.928717478732175"><ele>876.0</ele><time>2026-04-11T08:28:47.999Z</time></trkpt><trkpt lat="43.253690076728084" lon="12.92879422767258"><ele>876.0</ele><time>2026-04-11T08:28:48.999Z</time></trkpt><trkpt lat="43.2537444453329" lon="12.928874827863464"><ele>876.0</ele><time>2026-04-11T08:28:49.999Z</time></trkpt><trkpt lat="43.25379537389559" lon="12.928937553365456"><ele>876.0</ele><time>2026-04-11T08:28:50.999Z</time></trkpt><trkpt lat="43.2538404342386" lon="12.929003977284106"><ele>876.0</ele><time>2026-04-11T08:29:14Z</time></trkpt><trkpt lat="43.25387017186949" lon="12.928907192523917"><ele>876.0</ele><time>2026-04-11T08:29:28Z</time></trkpt><trkpt lat="43.25385209919103" lon="12.928797506415368"><ele>876.0</ele><time>2026-04-11T08:29:29Z</time></trkpt><trkpt lat="43.25383800993248" lon="12.92869958003445"><ele>876.0</ele><time>2026-04-11T08:29:30Z</time></trkpt><trkpt lat="43.25382417674519" lon="12.928597257606762"><ele>876.0</ele><time>2026-04-11T08:29:31Z</time></trkpt><trkpt lat="43.25378794540531" lon="12.928432864853848"><ele>876.0</ele><time>2026-04-11T08:29:33Z</time></trkpt><trkpt lat="43.25375291587349" lon="12.928324491711441"><ele>873.1666666666666</ele><time>2026-04-11T08:29:34Z</time></trkpt><trkpt lat="43.25371772207144" lon="12.928200655227936"><ele>870.3333333333333</ele><time>2026-04-11T08:29:35Z</time></trkpt><trkpt lat="43.253702343954316" lon="12.928084263222905"><ele>867.5</ele><time>2026-04-11T08:29:36Z</time></trkpt><trkpt lat="43.25369366810314" lon="12.927971448690752"><ele>864.6666666666666</ele><time>2026-04-11T08:29:37Z</time></trkpt><trkpt lat="43.25368014789698" lon="12.927871633947298"><ele>861.8333333333333</ele><time>2026-04-11T08:29:38Z</time></trkpt><trkpt lat="43.25364189991117" lon="12.927751810439236"><ele>859.0</ele><time>2026-04-11T08:29:40Z</time></trkpt><trkpt lat="43.253631608719616" lon="12.927647535257568"><ele>858.9999999999999</ele><time>2026-04-11T08:29:42Z</time></trkpt><trkpt lat="43.25363297398086" lon="12.92750438345995"><ele>859.0</ele><time>2026-04-11T08:29:44Z</time></trkpt><trkpt lat="43.25369992926183" lon="12.927427579139207"><ele>859.0</ele><time>2026-04-11T08:29:46Z</time></trkpt><trkpt lat="43.25373809646568" lon="12.927525450668119"><ele>859.0</ele><time>2026-04-11T08:29:48Z</time></trkpt><trkpt lat="43.25380281751454" lon="12.927582572278363"><ele>858.9999999999999</ele><time>2026-04-11T08:29:50Z</time></trkpt><trkpt lat="43.25386727394458" lon="12.927593868977413"><ele>859.0</ele><time>2026-04-11T08:29:51Z</time></trkpt><trkpt lat="43.25391738930546" lon="12.927741421459336"><ele>858.9999999999999</ele><time>2026-04-11T08:29:53Z</time></trkpt><trkpt lat="43.2539547009973" lon="12.92782774296383"><ele>859.0</ele><time>2026-04-11T08:29:54Z</time></trkpt><trkpt lat="43.25402189531998" lon="12.927909757035401"><ele>859.0</ele><time>2026-04-11T08:29:56Z</time></trkpt><trkpt lat="43.25411858886422" lon="12.927946694160037"><ele>859.0</ele><time>2026-04-11T08:29:59Z</time></trkpt><trkpt lat="43.25420186458523" lon="12.927918099953688"><ele>858.9999999999999</ele><time>2026-04-11T08:30:03Z</time></trkpt><trkpt lat="43.25426482033155" lon="12.927965712208998"><ele>859.0</ele><time>2026-04-11T08:30:04Z</time></trkpt><trkpt lat="43.25431730792366" lon="12.928013870093194"><ele>856.6666666666666</ele><time>2026-04-11T08:30:05Z</time></trkpt><trkpt lat="43.254364673659396" lon="12.92809019898087"><ele>854.3333333333333</ele><time>2026-04-11T08:30:07Z</time></trkpt><trkpt lat="43.2544610419214" lon="12.928111120862594"><ele>852.0</ele><time>2026-04-11T08:30:09Z</time></trkpt><trkpt lat="43.2545197840902" lon="12.928169091495262"><ele>849.6666666666667</ele><time>2026-04-11T08:30:11Z</time></trkpt><trkpt lat="43.25457113478119" lon="12.928282008182295"><ele>847.3333333333334</ele><time>2026-04-11T08:30:13Z</time></trkpt><trkpt lat="43.25465382555244" lon="12.928316114809533"><ele>845.0</ele><time>2026-04-11T08:30:15Z</time></trkpt><trkpt lat="43.25471302128006" lon="12.928404328453983"><ele>839.1666666666667</ele><time>2026-04-11T08:30:16.999Z</time></trkpt><trkpt lat="43.254827027435994" lon="12.92846531841754"><ele>833.3333333333334</ele><time>2026-04-11T08:30:18.999Z</time></trkpt><trkpt lat="43.25487925393762" lon="12.928523510793646"><ele>827.5</ele><time>2026-04-11T08:30:20.999Z</time></trkpt><trkpt lat="43.254942856601055" lon="12.928616052609703"><ele>821.6666666666667</ele><time>2026-04-11T08:30:22.999Z</time></trkpt><trkpt lat="43.2550281802153" lon="12.928614500695796"><ele>815.8333333333334</ele><time>2026-04-11T08:30:24.999Z</time></trkpt><trkpt lat="43.25508886338473" lon="12.928558226761801"><ele>810.0</ele><time>2026-04-11T08:30:26.999Z</time></trkpt><trkpt lat="43.25516268069706" lon="12.928511224022063"><ele>810.0</ele><time>2026-04-11T08:30:31.999Z</time></trkpt><trkpt lat="43.255249310949736" lon="12.928557630933199"><ele>810.0</ele><time>2026-04-11T08:30:33.999Z</time></trkpt><trkpt lat="43.255279859973776" lon="12.928469127199916"><ele>810.0</ele><time>2026-04-11T08:30:36.999Z</time></trkpt><trkpt lat="43.25532407916967" lon="12.928400066687333"><ele>810.0</ele><time>2026-04-11T08:30:39.999Z</time></trkpt><trkpt lat="43.255382458836614" lon="12.928361774782884"><ele>810.0</ele><time>2026-04-11T08:30:47.999Z</time></trkpt><trkpt lat="43.25545999196951" lon="12.928371915592196"><ele>810.0</ele><time>2026-04-11T08:31:16Z</time></trkpt><trkpt lat="43.25554592997852" lon="12.928392108275442"><ele>801.4</ele><time>2026-04-11T08:31:19Z</time></trkpt><trkpt lat="43.2556212893721" lon="12.928318793849058"><ele>792.8</ele><time>2026-04-11T08:31:22Z</time></trkpt><trkpt lat="43.255687505045046" lon="12.928344313193767"><ele>784.2</ele><time>2026-04-11T08:31:25Z</time></trkpt><trkpt lat="43.255770657559914" lon="12.928360232686373"><ele>775.6</ele><time>2026-04-11T08:31:27Z</time></trkpt><trkpt lat="43.25585355378171" lon="12.92827630665014"><ele>767.0</ele><time>2026-04-11T08:31:30Z</time></trkpt><trkpt lat="43.25591698031634" lon="12.928120669684759"><ele>767.0</ele><time>2026-04-11T08:31:32Z</time></trkpt><trkpt lat="43.25594504129044" lon="12.928036326189472"><ele>767.0</ele><time>2026-04-11T08:31:33Z</time></trkpt><trkpt lat="43.255999712147776" lon="12.927901842851835"><ele>767.0</ele><time>2026-04-11T08:31:35Z</time></trkpt><trkpt lat="43.25603433419186" lon="12.927817858770336"><ele>767.0</ele><time>2026-04-11T08:31:36Z</time></trkpt><trkpt lat="43.25605570180856" lon="12.927709692894942"><ele>767.0</ele><time>2026-04-11T08:31:37Z</time></trkpt><trkpt lat="43.25610747839154" lon="12.927598202484909"><ele>767.0</ele><time>2026-04-11T08:31:39Z</time></trkpt><trkpt lat="43.256150694678354" lon="12.927458069568223"><ele>766.8333333333333</ele><time>2026-04-11T08:31:42Z</time></trkpt><trkpt lat="43.25618815286684" lon="12.927376608661836"><ele>766.6666666666666</ele><time>2026-04-11T08:31:43Z</time></trkpt><trkpt lat="43.256249204450704" lon="12.927319175902568"><ele>766.5</ele><time>2026-04-11T08:31:45Z</time></trkpt><trkpt lat="43.25627877545971" lon="12.927207372086569"><ele>766.3333333333334</ele><time>2026-04-11T08:31:48Z</time></trkpt><trkpt lat="43.25630096357191" lon="12.927097661530235"><ele>766.1666666666667</ele><time>2026-04-11T08:31:51Z</time></trkpt><trkpt lat="43.25633052014144" lon="12.92702039920194"><ele>766.0</ele><time>2026-04-11T08:31:53Z</time></trkpt><trkpt lat="43.256346627894416" lon="12.926903340991135"><ele>765.3333333333334</ele><time>2026-04-11T08:31:55Z</time></trkpt><trkpt lat="43.256335221153186" lon="12.926723687095334"><ele>764.6666666666667</ele><time>2026-04-11T08:31:57Z</time></trkpt><trkpt lat="43.2563385751933" lon="12.926633460802503"><ele>764.0</ele><time>2026-04-11T08:31:58Z</time></trkpt><trkpt lat="43.25634058130035" lon="12.92654386682181"><ele>763.3333333333334</ele><time>2026-04-11T08:31:59Z</time></trkpt><trkpt lat="43.25633740277926" lon="12.926426757184142"><ele>762.6666666666666</ele><time>2026-04-11T08:32:00Z</time></trkpt><trkpt lat="43.2563070564433" lon="12.926322219459625"><ele>762.0</ele><time>2026-04-11T08:32:01Z</time></trkpt><trkpt lat="43.25628694967192" lon="12.926233822747788"><ele>762.0</ele><time>2026-04-11T08:32:02Z</time></trkpt><trkpt lat="43.25628002464626" lon="12.926116634702371"><ele>762.0</ele><time>2026-04-11T08:32:04Z</time></trkpt><trkpt lat="43.256245048376115" lon="12.926042654614076"><ele>762.0</ele><time>2026-04-11T08:32:06Z</time></trkpt><trkpt lat="43.25623109035019" lon="12.925942512784783"><ele>762.0</ele><time>2026-04-11T08:32:07Z</time></trkpt><trkpt lat="43.25620690837364" lon="12.92582503680657"><ele>762.0</ele><time>2026-04-11T08:32:08Z</time></trkpt><trkpt lat="43.25618879399188" lon="12.92573874306925"><ele>762.0</ele><time>2026-04-11T08:32:09Z</time></trkpt><trkpt lat="43.25617501344833" lon="12.925647878503838"><ele>762.0</ele><time>2026-04-11T08:32:10Z</time></trkpt><trkpt lat="43.2561492356602" lon="12.92552175992345"><ele>760.1666666666666</ele><time>2026-04-11T08:32:11Z</time></trkpt><trkpt lat="43.25612638145626" lon="12.925427101207385"><ele>758.3333333333334</ele><time>2026-04-11T08:32:12Z</time></trkpt><trkpt lat="43.25608955313029" lon="12.925292116069826"><ele>756.5</ele><time>2026-04-11T08:32:14Z</time></trkpt><trkpt lat="43.2560524991615" lon="12.925208817634514"><ele>754.6666666666667</ele><time>2026-04-11T08:32:15Z</time></trkpt><trkpt lat="43.25600661494496" lon="12.925119167902253"><ele>752.8333333333334</ele><time>2026-04-11T08:32:16Z</time></trkpt><trkpt lat="43.25598644789715" lon="12.925024425282823"><ele>751.0</ele><time>2026-04-11T08:32:17Z</time></trkpt><trkpt lat="43.25597374042654" lon="12.924934022409559"><ele>749.5</ele><time>2026-04-11T08:32:18Z</time></trkpt><trkpt lat="43.25593520505751" lon="12.924842047574073"><ele>748.0</ele><time>2026-04-11T08:32:19Z</time></trkpt><trkpt lat="43.25590480567564" lon="12.924728116322594"><ele>746.5</ele><time>2026-04-11T08:32:21Z</time></trkpt><trkpt lat="43.25598711140363" lon="12.924701656931807"><ele>745.0</ele><time>2026-04-11T08:32:29.999Z</time></trkpt><trkpt lat="43.256089540178635" lon="12.92474596636386"><ele>743.5</ele><time>2026-04-11T08:32:31.999Z</time></trkpt><trkpt lat="43.25613809338541" lon="12.924834724905281"><ele>742.0</ele><time>2026-04-11T08:32:34.999Z</time></trkpt><trkpt lat="43.25623116862195" lon="12.924883703156087"><ele>742.0</ele><time>2026-04-11T08:32:36.999Z</time></trkpt><trkpt lat="43.25632775366831" lon="12.924944421077452"><ele>742.0</ele><time>2026-04-11T08:32:37.999Z</time></trkpt><trkpt lat="43.25643086760008" lon="12.924996669716128"><ele>742.0</ele><time>2026-04-11T08:32:38.999Z</time></trkpt><trkpt lat="43.25650135862671" lon="12.925055453894656"><ele>742.0</ele><time>2026-04-11T08:32:39.999Z</time></trkpt><trkpt lat="43.25656692240051" lon="12.925119017974815"><ele>742.0</ele><time>2026-04-11T08:32:40.999Z</time></trkpt><trkpt lat="43.25665386712283" lon="12.925169204899795"><ele>738.3333333333334</ele><time>2026-04-11T08:32:41.999Z</time></trkpt><trkpt lat="43.25674995814117" lon="12.925211357852543"><ele>734.6666666666667</ele><time>2026-04-11T08:32:42.999Z</time></trkpt><trkpt lat="43.25683774907632" lon="12.925238873440666"><ele>731.0</ele><time>2026-04-11T08:32:43.999Z</time></trkpt><trkpt lat="43.256917234442355" lon="12.925264813927987"><ele>727.3333333333334</ele><time>2026-04-11T08:32:44.999Z</time></trkpt><trkpt lat="43.25698032607972" lon="12.92528068298715"><ele>723.6666666666666</ele><time>2026-04-11T08:32:46.999Z</time></trkpt><trkpt lat="43.2570382890261" lon="12.92523476332654"><ele>720.0</ele><time>2026-04-11T08:32:49.999Z</time></trkpt><trkpt lat="43.257114441604685" lon="12.925131403428441"><ele>722.0</ele><time>2026-04-11T08:32:51.999Z</time></trkpt><trkpt lat="43.257163066274074" lon="12.925035986902614"><ele>724.0</ele><time>2026-04-11T08:32:52.999Z</time></trkpt><trkpt lat="43.25720292899422" lon="12.924941370514786"><ele>726.0</ele><time>2026-04-11T08:32:53.999Z</time></trkpt><trkpt lat="43.2572597423924" lon="12.924898127927626"><ele>728.0</ele><time>2026-04-11T08:32:56.999Z</time></trkpt><trkpt lat="43.25730588642168" lon="12.924825256048054"><ele>730.0</ele><time>2026-04-11T08:33:00.999Z</time></trkpt><trkpt lat="43.257271410419335" lon="12.92474843883183"><ele>732.0</ele><time>2026-04-11T08:33:05Z</time></trkpt><trkpt lat="43.257232583730385" lon="12.924674856104852"><ele>734.0</ele><time>2026-04-11T08:33:14Z</time></trkpt><trkpt lat="43.25722101963389" lon="12.924564227483652"><ele>734.0</ele><time>2026-04-11T08:33:18Z</time></trkpt><trkpt lat="43.25725699056124" lon="12.924458577770636"><ele>734.0</ele><time>2026-04-11T08:33:21Z</time></trkpt><trkpt lat="43.257215256365114" lon="12.924382075001574"><ele>734.0</ele><time>2026-04-11T08:33:25Z</time></trkpt><trkpt lat="43.25721558807035" lon="12.92427991773441"><ele>734.0</ele><time>2026-04-11T08:33:30Z</time></trkpt><trkpt lat="43.257248590903046" lon="12.924184145660265"><ele>734.0</ele><time>2026-04-11T08:33:33Z</time></trkpt><trkpt lat="43.257301596493114" lon="12.924077720991555"><ele>734.0</ele><time>2026-04-11T08:33:36Z</time></trkpt><trkpt lat="43.257315311336555" lon="12.923984426135283"><ele>737.4285714285714</ele><time>2026-04-11T08:33:39Z</time></trkpt><trkpt lat="43.257269681213636" lon="12.923919087673598"><ele>740.8571428571429</ele><time>2026-04-11T08:33:41Z</time></trkpt><trkpt lat="43.25725693487446" lon="12.923830770334964"><ele>744.2857142857143</ele><time>2026-04-11T08:33:44Z</time></trkpt><trkpt lat="43.25722586221386" lon="12.923747690872435"><ele>747.7142857142858</ele><time>2026-04-11T08:33:47Z</time></trkpt><trkpt lat="43.257195817504574" lon="12.923670012182205"><ele>751.1428571428571</ele><time>2026-04-11T08:33:50Z</time></trkpt><trkpt lat="43.25719056889909" lon="12.923550241409728"><ele>754.5714285714287</ele><time>2026-04-11T08:33:53Z</time></trkpt><trkpt lat="43.25712689344829" lon="12.923502175368824"><ele>758.0</ele><time>2026-04-11T08:33:56Z</time></trkpt><trkpt lat="43.257140280184245" lon="12.923413522150367"><ele>762.0</ele><time>2026-04-11T08:33:58Z</time></trkpt><trkpt lat="43.25717333648775" lon="12.923329525850228"><ele>766.0</ele><time>2026-04-11T08:34:00Z</time></trkpt><trkpt lat="43.257101819487204" lon="12.923283860975262"><ele>770.0</ele><time>2026-04-11T08:34:02Z</time></trkpt><trkpt lat="43.257100632948955" lon="12.923170330769777"><ele>774.0</ele><time>2026-04-11T08:34:05Z</time></trkpt><trkpt lat="43.25707610560507" lon="12.923067184077334"><ele>778.0000000000001</ele><time>2026-04-11T08:34:08Z</time></trkpt><trkpt lat="43.257023127620066" lon="12.922959701149619"><ele>782.0</ele><time>2026-04-11T08:34:12Z</time></trkpt><trkpt lat="43.257031091844034" lon="12.922849631717929"><ele>782.0000000000001</ele><time>2026-04-11T08:34:15Z</time></trkpt><trkpt lat="43.25702221809292" lon="12.922732821589547"><ele>782.0</ele><time>2026-04-11T08:34:21Z</time></trkpt><trkpt lat="43.25694836889344" lon="12.92269726693149"><ele>782.0</ele><time>2026-04-11T08:34:28Z</time></trkpt><trkpt lat="43.25697303306919" lon="12.922595080099757"><ele>782.0</ele><time>2026-04-11T08:34:31Z</time></trkpt><trkpt lat="43.25698625665175" lon="12.922499528030535"><ele>782.0000000000001</ele><time>2026-04-11T08:34:33Z</time></trkpt><trkpt lat="43.25689920279239" lon="12.922368244822788"><ele>782.0</ele><time>2026-04-11T08:34:35Z</time></trkpt><trkpt lat="43.25682934252033" lon="12.922283771470058"><ele>783.3333333333334</ele><time>2026-04-11T08:34:37Z</time></trkpt><trkpt lat="43.256744650764134" lon="12.922225734292535"><ele>784.6666666666667</ele><time>2026-04-11T08:34:38Z</time></trkpt><trkpt lat="43.25667062224926" lon="12.922166487913742"><ele>786.0</ele><time>2026-04-11T08:34:38.999Z</time></trkpt><trkpt lat="43.25662256390975" lon="12.922092885638683"><ele>787.3333333333333</ele><time>2026-04-11T08:34:43.999Z</time></trkpt><trkpt lat="43.25660926543997" lon="12.921968372646278"><ele>788.6666666666666</ele><time>2026-04-11T08:36:20.999Z</time></trkpt><trkpt lat="43.25668516216536" lon="12.921938298866761"><ele>790.0</ele><time>2026-04-11T08:36:38.999Z</time></trkpt><trkpt lat="43.256756241212344" lon="12.92199191932005"><ele>789.9999999999999</ele><time>2026-04-11T08:36:40.999Z</time></trkpt><trkpt lat="43.256853195663886" lon="12.922019744121377"><ele>790.0</ele><time>2026-04-11T08:36:43.999Z</time></trkpt><trkpt lat="43.25689619775277" lon="12.922106166510357"><ele>790.0</ele><time>2026-04-11T08:36:46.999Z</time></trkpt><trkpt lat="43.2569678068896" lon="12.922187219958943"><ele>790.0</ele><time>2026-04-11T08:36:48.999Z</time></trkpt><trkpt lat="43.25701831797079" lon="12.92224804998695"><ele>789.9999999999999</ele><time>2026-04-11T08:36:51.999Z</time></trkpt><trkpt lat="43.25707411222607" lon="12.922325384072103"><ele>790.0</ele><time>2026-04-11T08:36:53.999Z</time></trkpt><trkpt lat="43.25713818532924" lon="12.92243224780898"><ele>789.9999999999999</ele><time>2026-04-11T08:36:55.998Z</time></trkpt><trkpt lat="43.25720623063878" lon="12.92248873665062"><ele>790.0</ele><time>2026-04-11T08:36:57.998Z</time></trkpt><trkpt lat="43.257259989663766" lon="12.922571205792762"><ele>790.0</ele><time>2026-04-11T08:36:59.998Z</time></trkpt><trkpt lat="43.25731120154943" lon="12.922632221632757"><ele>790.0</ele><time>2026-04-11T08:37:01.998Z</time></trkpt><trkpt lat="43.257380756617295" lon="12.922688132530299"><ele>789.9999999999999</ele><time>2026-04-11T08:37:04.998Z</time></trkpt><trkpt lat="43.25745178400796" lon="12.922752535643687"><ele>790.0</ele><time>2026-04-11T08:37:06.998Z</time></trkpt><trkpt lat="43.257507021785074" lon="12.922823545919062"><ele>786.9999999999999</ele><time>2026-04-11T08:37:08.998Z</time></trkpt><trkpt lat="43.25758060961517" lon="12.922891766158237"><ele>784.0</ele><time>2026-04-11T08:37:12.998Z</time></trkpt><trkpt lat="43.257639596444236" lon="12.922967912387582"><ele>781.0</ele><time>2026-04-11T08:37:15.998Z</time></trkpt><trkpt lat="43.257703263422236" lon="12.923046851202326"><ele>778.0</ele><time>2026-04-11T08:37:18Z</time></trkpt><trkpt lat="43.257751328874825" lon="12.923114357165838"><ele>774.9999999999999</ele><time>2026-04-11T08:37:20Z</time></trkpt><trkpt lat="43.25781234702284" lon="12.923185694749204"><ele>772.0</ele><time>2026-04-11T08:37:23Z</time></trkpt><trkpt lat="43.25787799144774" lon="12.92328289006547"><ele>774.8</ele><time>2026-04-11T08:37:25Z</time></trkpt><trkpt lat="43.25792583697471" lon="12.923400532367955"><ele>777.6</ele><time>2026-04-11T08:37:27Z</time></trkpt><trkpt lat="43.25799420041021" lon="12.923499958923953"><ele>780.4</ele><time>2026-04-11T08:37:30Z</time></trkpt><trkpt lat="43.258051461952896" lon="12.923585878208803"><ele>783.1999999999999</ele><time>2026-04-11T08:37:32Z</time></trkpt><trkpt lat="43.25809205782039" lon="12.923681167140275"><ele>786.0</ele><time>2026-04-11T08:37:34Z</time></trkpt><trkpt lat="43.25815113966588" lon="12.923793828122525"><ele>786.0</ele><time>2026-04-11T08:37:37Z</time></trkpt><trkpt lat="43.25821926982895" lon="12.923889421328406"><ele>786.0</ele><time>2026-04-11T08:37:39Z</time></trkpt><trkpt lat="43.258280128533535" lon="12.924005698397306"><ele>786.0</ele><time>2026-04-11T08:37:40.999Z</time></trkpt><trkpt lat="43.258328715992654" lon="12.924097777363947"><ele>786.0</ele><time>2026-04-11T08:37:42.999Z</time></trkpt><trkpt lat="43.25837463121635" lon="12.924201024758482"><ele>786.0</ele><time>2026-04-11T08:37:44.999Z</time></trkpt><trkpt lat="43.258456317453096" lon="12.924299874378793"><ele>782.4</ele><time>2026-04-11T08:37:46.999Z</time></trkpt><trkpt lat="43.2584947338114" lon="12.92438311023585"><ele>778.8</ele><time>2026-04-11T08:37:48.999Z</time></trkpt><trkpt lat="43.25854637328438" lon="12.92445680759151"><ele>775.1999999999999</ele><time>2026-04-11T08:37:52.999Z</time></trkpt><trkpt lat="43.25860363724708" lon="12.924549889284346"><ele>771.5999999999999</ele><time>2026-04-11T08:37:55.999Z</time></trkpt><trkpt lat="43.258666857986505" lon="12.924665311144816"><ele>768.0</ele><time>2026-04-11T08:37:58.999Z</time></trkpt><trkpt lat="43.258738397557224" lon="12.924788140372808"><ele>768.0</ele><time>2026-04-11T08:38:00.999Z</time></trkpt><trkpt lat="43.258784869427025" lon="12.924889636381158"><ele>768.0</ele><time>2026-04-11T08:38:02.999Z</time></trkpt><trkpt lat="43.2588489044999" lon="12.924980687502345"><ele>768.0</ele><time>2026-04-11T08:38:04.999Z</time></trkpt><trkpt lat="43.258851613072515" lon="12.925077288326408"><ele>768.0</ele><time>2026-04-11T08:38:07.999Z</time></trkpt><trkpt lat="43.25889917022637" lon="12.925143166513703"><ele>768.0</ele><time>2026-04-11T08:38:09.999Z</time></trkpt><trkpt lat="43.25895958043581" lon="12.925233635314727"><ele>768.0</ele><time>2026-04-11T08:38:11.999Z</time></trkpt><trkpt lat="43.25901490222013" lon="12.925360006615032"><ele>769.6666666666666</ele><time>2026-04-11T08:38:13.999Z</time></trkpt><trkpt lat="43.25908686184531" lon="12.92540759843868"><ele>771.3333333333333</ele><time>2026-04-11T08:38:15.999Z</time></trkpt><trkpt lat="43.259149339198714" lon="12.925506299416996"><ele>773.0</ele><time>2026-04-11T08:38:17.999Z</time></trkpt><trkpt lat="43.25922370562235" lon="12.925587438991075"><ele>774.6666666666666</ele><time>2026-04-11T08:38:19.999Z</time></trkpt><trkpt lat="43.25930972432523" lon="12.925579184966354"><ele>776.3333333333333</ele><time>2026-04-11T08:38:21.999Z</time></trkpt><trkpt lat="43.259370937392305" lon="12.9256130963383"><ele>778.0</ele><time>2026-04-11T08:38:22.999Z</time></trkpt><trkpt lat="43.25943676556302" lon="12.925686798739566"><ele>778.0</ele><time>2026-04-11T08:38:23.999Z</time></trkpt><trkpt lat="43.259539606061985" lon="12.925734790712369"><ele>778.0</ele><time>2026-04-11T08:38:25.999Z</time></trkpt><trkpt lat="43.25964761437856" lon="12.925772516780409"><ele>778.0</ele><time>2026-04-11T08:38:27.999Z</time></trkpt><trkpt lat="43.25977000028589" lon="12.925801080678564"><ele>778.0</ele><time>2026-04-11T08:38:29.999Z</time></trkpt><trkpt lat="43.25987545636179" lon="12.925795884960968"><ele>780.6666666666666</ele><time>2026-04-11T08:38:31.999Z</time></trkpt><trkpt lat="43.259945642104654" lon="12.925761181716354"><ele>783.3333333333333</ele><time>2026-04-11T08:38:33.999Z</time></trkpt><trkpt lat="43.260012275755194" lon="12.92575047194561"><ele>786.0</ele><time>2026-04-11T08:38:35.999Z</time></trkpt><trkpt lat="43.26008568107447" lon="12.925713101631695"><ele>788.6666666666667</ele><time>2026-04-11T08:38:37.999Z</time></trkpt><trkpt lat="43.26015101243005" lon="12.925713619519035"><ele>791.3333333333334</ele><time>2026-04-11T08:38:39.999Z</time></trkpt><trkpt lat="43.26022702361435" lon="12.925698713983005"><ele>794.0</ele><time>2026-04-11T08:38:41.999Z</time></trkpt><trkpt lat="43.2603208054871" lon="12.925645923072343"><ele>794.0000000000001</ele><time>2026-04-11T08:38:43.999Z</time></trkpt><trkpt lat="43.26038230874234" lon="12.92561686204947"><ele>794.0</ele><time>2026-04-11T08:38:45.999Z</time></trkpt><trkpt lat="43.26044348711446" lon="12.925589445754392"><ele>794.0</ele><time>2026-04-11T08:38:47.999Z</time></trkpt><trkpt lat="43.26053047409685" lon="12.925506089422637"><ele>794.0</ele><time>2026-04-11T08:39:05.999Z</time></trkpt><trkpt lat="43.26060298414347" lon="12.925424721240645"><ele>794.0000000000001</ele><time>2026-04-11T08:39:07.998Z</time></trkpt><trkpt lat="43.26064330461297" lon="12.925291045831472"><ele>794.0</ele><time>2026-04-11T08:39:09.998Z</time></trkpt><trkpt lat="43.26071086383822" lon="12.925154672499058"><ele>796.1666666666667</ele><time>2026-04-11T08:39:11.998Z</time></trkpt><trkpt lat="43.26076369822858" lon="12.925056481101576"><ele>798.3333333333334</ele><time>2026-04-11T08:39:13.998Z</time></trkpt><trkpt lat="43.26084414788345" lon="12.924978542163501"><ele>800.5</ele><time>2026-04-11T08:39:15.998Z</time></trkpt><trkpt lat="43.26089077466287" lon="12.924898689608685"><ele>802.6666666666667</ele><time>2026-04-11T08:39:19.998Z</time></trkpt><trkpt lat="43.26092485533755" lon="12.924823207001921"><ele>804.8333333333334</ele><time>2026-04-11T08:39:41Z</time></trkpt><trkpt lat="43.260839719746244" lon="12.92485099150038"><ele>807.0</ele><time>2026-04-11T08:39:45Z</time></trkpt><trkpt lat="43.26077208149676" lon="12.92488757628983"><ele>807.0</ele><time>2026-04-11T08:39:46Z</time></trkpt><trkpt lat="43.26070513673473" lon="12.924902202741883"><ele>807.0</ele><time>2026-04-11T08:39:47Z</time></trkpt><trkpt lat="43.26060367069684" lon="12.9248916439179"><ele>807.0</ele><time>2026-04-11T08:39:48.999Z</time></trkpt><trkpt lat="43.26053684680959" lon="12.924837771794348"><ele>807.0</ele><time>2026-04-11T08:39:51.999Z</time></trkpt><trkpt lat="43.260560826275764" lon="12.924756945588362"><ele>807.0</ele><time>2026-04-11T08:39:54.999Z</time></trkpt><trkpt lat="43.26060489043561" lon="12.924679139483915"><ele>807.0</ele><time>2026-04-11T08:40:15.999Z</time></trkpt><trkpt lat="43.26068242409851" lon="12.924612798762578"><ele>807.0000000000001</ele><time>2026-04-11T08:40:20.999Z</time></trkpt><trkpt lat="43.26066044589612" lon="12.924531544084678"><ele>807.0</ele><time>2026-04-11T08:40:28.999Z</time></trkpt><trkpt lat="43.26058324317777" lon="12.924526422164694"><ele>807.0</ele><time>2026-04-11T08:40:31.999Z</time></trkpt><trkpt lat="43.260519629390735" lon="12.924528677442225"><ele>807.0</ele><time>2026-04-11T08:40:35.999Z</time></trkpt><trkpt lat="43.26044941677634" lon="12.924512585486209"><ele>807.0</ele><time>2026-04-11T08:40:38.999Z</time></trkpt><trkpt lat="43.260474307733624" lon="12.92442748317421"><ele>807.0000000000001</ele><time>2026-04-11T08:40:42.999Z</time></trkpt><trkpt lat="43.26053768813288" lon="12.924400428486308"><ele>807.0</ele><time>2026-04-11T08:40:44.999Z</time></trkpt><trkpt lat="43.26059543559676" lon="12.924355842118189"><ele>807.0</ele><time>2026-04-11T08:40:47.999Z</time></trkpt><trkpt lat="43.260651685985586" lon="12.92427659959657"><ele>807.0</ele><time>2026-04-11T08:40:51.999Z</time></trkpt><trkpt lat="43.26062322775937" lon="12.924193986768474"><ele>807.0</ele><time>2026-04-11T08:40:55.999Z</time></trkpt><trkpt lat="43.26057130383458" lon="12.92412251308729"><ele>807.0</ele><time>2026-04-11T08:40:59.999Z</time></trkpt><trkpt lat="43.260524406662014" lon="12.924047462481314"><ele>807.0</ele><time>2026-04-11T08:41:03.999Z</time></trkpt><trkpt lat="43.26047121440966" lon="12.923970138560378"><ele>807.0</ele><time>2026-04-11T08:41:07.999Z</time></trkpt><trkpt lat="43.26042486861243" lon="12.923861573138371"><ele>812.6666666666666</ele><time>2026-04-11T08:41:10.999Z</time></trkpt><trkpt lat="43.26036597577219" lon="12.923777599631638"><ele>818.3333333333333</ele><time>2026-04-11T08:41:13.998Z</time></trkpt><trkpt lat="43.26029676303737" lon="12.923709439014472"><ele>824.0</ele><time>2026-04-11T08:41:16.998Z</time></trkpt><trkpt lat="43.260263500213554" lon="12.923578324087236"><ele>829.6666666666666</ele><time>2026-04-11T08:41:18.998Z</time></trkpt><trkpt lat="43.260249472924585" lon="12.923473573594492"><ele>835.3333333333333</ele><time>2026-04-11T08:41:20.998Z</time></trkpt><trkpt lat="43.260201308387124" lon="12.923407800991802"><ele>841.0</ele><time>2026-04-11T08:41:22.998Z</time></trkpt><trkpt lat="43.26013794539749" lon="12.923306559157083"><ele>843.9999999999999</ele><time>2026-04-11T08:41:24.998Z</time></trkpt><trkpt lat="43.26009662030799" lon="12.923236472977715"><ele>847.0</ele><time>2026-04-11T08:41:26.998Z</time></trkpt><trkpt lat="43.260045310267024" lon="12.923151069224765"><ele>850.0</ele><time>2026-04-11T08:41:29Z</time></trkpt><trkpt lat="43.25999177683631" lon="12.923048148230006"><ele>853.0</ele><time>2026-04-11T08:42:33.999Z</time></trkpt><trkpt lat="43.259907403702414" lon="12.922936531264748"><ele>855.9999999999999</ele><time>2026-04-11T08:42:35.999Z</time></trkpt><trkpt lat="43.25986020496771" lon="12.922868545679892"><ele>859.0</ele><time>2026-04-11T08:42:36.999Z</time></trkpt><trkpt lat="43.259815770908716" lon="12.922792134623561"><ele>859.3333333333333</ele><time>2026-04-11T08:42:37.999Z</time></trkpt><trkpt lat="43.25977915278586" lon="12.922708295283936"><ele>859.6666666666666</ele><time>2026-04-11T08:42:38.999Z</time></trkpt><trkpt lat="43.25973412475026" lon="12.922600602081628"><ele>860.0</ele><time>2026-04-11T08:42:39.999Z</time></trkpt><trkpt lat="43.25970101745381" lon="12.922522049308078"><ele>860.3333333333333</ele><time>2026-04-11T08:42:40.999Z</time></trkpt><trkpt lat="43.259651477822466" lon="12.92241126312829"><ele>860.6666666666666</ele><time>2026-04-11T08:42:42.999Z</time></trkpt><trkpt lat="43.25960097731709" lon="12.922264862137215"><ele>861.0</ele><time>2026-04-11T08:42:44.999Z</time></trkpt><trkpt lat="43.25957825787228" lon="12.922115723805849"><ele>861.0</ele><time>2026-04-11T08:42:46.999Z</time></trkpt><trkpt lat="43.25958206873738" lon="12.922011914724523"><ele>861.0</ele><time>2026-04-11T08:42:52.999Z</time></trkpt><trkpt lat="43.25951631032872" lon="12.921969299464514"><ele>861.0</ele><time>2026-04-11T08:54:53Z</time></trkpt><trkpt lat="43.259454680480346" lon="12.921950440272223"><ele>861.0</ele><time>2026-04-11T08:55:04Z</time></trkpt><trkpt lat="43.259397734286146" lon="12.92188690266526"><ele>861.0</ele><time>2026-04-11T08:55:42.999Z</time></trkpt><trkpt lat="43.25934580852183" lon="12.921825460026543"><ele>861.0</ele><time>2026-04-11T08:55:48.999Z</time></trkpt><trkpt lat="43.25928747061417" lon="12.921786203960028"><ele>861.0</ele><time>2026-04-11T08:55:51.999Z</time></trkpt><trkpt lat="43.259210829169064" lon="12.921732950811014"><ele>860.5</ele><time>2026-04-11T08:55:54.999Z</time></trkpt><trkpt lat="43.25911242831999" lon="12.921696016149214"><ele>860.0</ele><time>2026-04-11T08:55:56.999Z</time></trkpt><trkpt lat="43.25902143061529" lon="12.921660412855857"><ele>859.5</ele><time>2026-04-11T08:55:58.999Z</time></trkpt><trkpt lat="43.25895385196983" lon="12.921634899881393"><ele>859.0</ele><time>2026-04-11T08:56:04.999Z</time></trkpt><trkpt lat="43.25888917593623" lon="12.921645462667975"><ele>858.5</ele><time>2026-04-11T08:56:14Z</time></trkpt><trkpt lat="43.2588241162386" lon="12.92159843448268"><ele>858.0</ele><time>2026-04-11T08:57:16Z</time></trkpt><trkpt lat="43.25875251964539" lon="12.921557067339261"><ele>855.1666666666666</ele><time>2026-04-11T08:57:20Z</time></trkpt><trkpt lat="43.25868517801028" lon="12.921590246786668"><ele>852.3333333333333</ele><time>2026-04-11T08:57:22Z</time></trkpt><trkpt lat="43.25860046383007" lon="12.921581674052929"><ele>849.5</ele><time>2026-04-11T08:57:25Z</time></trkpt><trkpt lat="43.258536743886054" lon="12.92154592731116"><ele>846.6666666666666</ele><time>2026-04-11T08:57:27Z</time></trkpt><trkpt lat="43.2584721295203" lon="12.921506901946984"><ele>843.8333333333333</ele><time>2026-04-11T08:57:30Z</time></trkpt><trkpt lat="43.25840689920678" lon="12.921524542138208"><ele>841.0</ele><time>2026-04-11T08:57:39Z</time></trkpt><trkpt lat="43.25832280268096" lon="12.921470182264818"><ele>840.9999999999999</ele><time>2026-04-11T08:57:42Z</time></trkpt><trkpt lat="43.25825129187337" lon="12.921443413879425"><ele>841.0</ele><time>2026-04-11T08:57:44Z</time></trkpt><trkpt lat="43.25817641411781" lon="12.921408008038599"><ele>841.0</ele><time>2026-04-11T08:57:46Z</time></trkpt><trkpt lat="43.25808503908792" lon="12.921372360034972"><ele>841.0</ele><time>2026-04-11T08:57:49.999Z</time></trkpt><trkpt lat="43.25802687143279" lon="12.921310259083658"><ele>840.9999999999999</ele><time>2026-04-11T08:57:51.999Z</time></trkpt><trkpt lat="43.25796052191696" lon="12.921299556545627"><ele>841.0</ele><time>2026-04-11T08:57:55.999Z</time></trkpt><trkpt lat="43.25789844597682" lon="12.921280436330226"><ele>837.2857142857143</ele><time>2026-04-11T08:57:58.999Z</time></trkpt><trkpt lat="43.2578359658899" lon="12.921264539690048"><ele>833.5714285714286</ele><time>2026-04-11T08:58:02.999Z</time></trkpt><trkpt lat="43.25776308400472" lon="12.921252376864503"><ele>829.8571428571429</ele><time>2026-04-11T08:58:05.999Z</time></trkpt><trkpt lat="43.2576872889256" lon="12.921260093974116"><ele>826.1428571428571</ele><time>2026-04-11T08:58:08.999Z</time></trkpt><trkpt lat="43.257616222776065" lon="12.92125558652098"><ele>822.4285714285713</ele><time>2026-04-11T08:58:34Z</time></trkpt><trkpt lat="43.25755395052673" lon="12.921228459867612"><ele>818.7142857142857</ele><time>2026-04-11T08:58:41Z</time></trkpt><trkpt lat="43.25749041875506" lon="12.921185122903681"><ele>815.0</ele><time>2026-04-11T08:58:44Z</time></trkpt><trkpt lat="43.25741139671096" lon="12.921178932490575"><ele>815.0000000000001</ele><time>2026-04-11T08:58:47Z</time></trkpt><trkpt lat="43.25736011089388" lon="12.921101279670332"><ele>815.0</ele><time>2026-04-11T08:58:52Z</time></trkpt><trkpt lat="43.257286193829316" lon="12.92108670913578"><ele>815.0</ele><time>2026-04-11T08:58:54Z</time></trkpt><trkpt lat="43.25721007958657" lon="12.921132045597528"><ele>815.0</ele><time>2026-04-11T08:58:57Z</time></trkpt><trkpt lat="43.257152172065574" lon="12.921092942568155"><ele>815.0000000000001</ele><time>2026-04-11T08:58:59Z</time></trkpt><trkpt lat="43.25708119057076" lon="12.921016246502912"><ele>815.0</ele><time>2026-04-11T08:59:01Z</time></trkpt><trkpt lat="43.2569925590719" lon="12.920975600429312"><ele>812.0</ele><time>2026-04-11T08:59:36Z</time></trkpt><trkpt lat="43.25688686620343" lon="12.920943716905201"><ele>809.0</ele><time>2026-04-11T08:59:38Z</time></trkpt><trkpt lat="43.25681353943674" lon="12.920914394017426"><ele>806.0</ele><time>2026-04-11T08:59:39Z</time></trkpt><trkpt lat="43.256745496050016" lon="12.920870231404004"><ele>803.0</ele><time>2026-04-11T08:59:40Z</time></trkpt><trkpt lat="43.256655525022616" lon="12.920784316822132"><ele>800.0</ele><time>2026-04-11T08:59:42Z</time></trkpt><trkpt lat="43.25655250695417" lon="12.920762596756413"><ele>800.0000000000001</ele><time>2026-04-11T08:59:44Z</time></trkpt><trkpt lat="43.25648147850023" lon="12.920779766469694"><ele>800.0</ele><time>2026-04-11T08:59:45Z</time></trkpt><trkpt lat="43.256416203511456" lon="12.920813076397957"><ele>800.0</ele><time>2026-04-11T08:59:46Z</time></trkpt><trkpt lat="43.25635298186536" lon="12.920829197964606"><ele>800.0</ele><time>2026-04-11T08:59:47Z</time></trkpt><trkpt lat="43.256245333951924" lon="12.92078618900509"><ele>800.0000000000001</ele><time>2026-04-11T08:59:49Z</time></trkpt><trkpt lat="43.256168773753316" lon="12.920795007606714"><ele>800.0</ele><time>2026-04-11T08:59:50Z</time></trkpt><trkpt lat="43.25609695929967" lon="12.92074804041575"><ele>800.0</ele><time>2026-04-11T08:59:51Z</time></trkpt><trkpt lat="43.255997190115835" lon="12.920708974018043"><ele>800.0</ele><time>2026-04-11T08:59:52Z</time></trkpt><trkpt lat="43.25589231834334" lon="12.920657627977041"><ele>800.0</ele><time>2026-04-11T08:59:53Z</time></trkpt><trkpt lat="43.25581921844951" lon="12.920656807903327"><ele>800.0</ele><time>2026-04-11T08:59:54Z</time></trkpt><trkpt lat="43.255738444572216" lon="12.92067158747962"><ele>800.0</ele><time>2026-04-11T08:59:55Z</time></trkpt><trkpt lat="43.2556194567071" lon="12.920671199471306"><ele>801.8571428571429</ele><time>2026-04-11T08:59:57Z</time></trkpt><trkpt lat="43.25555332585203" lon="12.920659678910402"><ele>803.7142857142858</ele><time>2026-04-11T08:59:59Z</time></trkpt><trkpt lat="43.25547533853177" lon="12.920666023258716"><ele>805.5714285714287</ele><time>2026-04-11T09:00:04.999Z</time></trkpt><trkpt lat="43.25540942709203" lon="12.920586553546293"><ele>807.4285714285714</ele><time>2026-04-11T09:00:07.999Z</time></trkpt><trkpt lat="43.255385110633156" lon="12.920501159460962"><ele>809.2857142857142</ele><time>2026-04-11T09:00:09.999Z</time></trkpt><trkpt lat="43.255408532052925" lon="12.920414285195259"><ele>811.1428571428572</ele><time>2026-04-11T09:00:11.999Z</time></trkpt><trkpt lat="43.255472601137896" lon="12.920401822253007"><ele>813.0</ele><time>2026-04-11T09:00:13.999Z</time></trkpt><trkpt lat="43.25555189010662" lon="12.920345002472375"><ele>813.0</ele><time>2026-04-11T09:00:15.999Z</time></trkpt><trkpt lat="43.25556271319846" lon="12.920256586856596"><ele>813.0</ele><time>2026-04-11T09:00:17.999Z</time></trkpt><trkpt lat="43.25548058515701" lon="12.920160295019024"><ele>813.0</ele><time>2026-04-11T09:00:19.999Z</time></trkpt><trkpt lat="43.25543036276686" lon="12.920086760434627"><ele>813.0</ele><time>2026-04-11T09:00:21Z</time></trkpt><trkpt lat="43.255387263261625" lon="12.919969604115517"><ele>813.0</ele><time>2026-04-11T09:00:22Z</time></trkpt><trkpt lat="43.25535926037" lon="12.919842977186901"><ele>813.0</ele><time>2026-04-11T09:00:23Z</time></trkpt><trkpt lat="43.25533097980373" lon="12.919698855352431"><ele>810.5714285714286</ele><time>2026-04-11T09:00:24Z</time></trkpt><trkpt lat="43.255317048460206" lon="12.919599992149077"><ele>808.1428571428571</ele><time>2026-04-11T09:00:25Z</time></trkpt><trkpt lat="43.25526863687027" lon="12.919520150773083"><ele>805.7142857142857</ele><time>2026-04-11T09:00:29Z</time></trkpt><trkpt lat="43.25528893863579" lon="12.919426898528373"><ele>803.2857142857142</ele><time>2026-04-11T09:00:35Z</time></trkpt><trkpt lat="43.255356189139654" lon="12.91939475518397"><ele>800.8571428571429</ele><time>2026-04-11T09:00:38Z</time></trkpt><trkpt lat="43.25542680881435" lon="12.91943803312931"><ele>798.4285714285713</ele><time>2026-04-11T09:00:40Z</time></trkpt><trkpt lat="43.255500233396056" lon="12.91941891349721"><ele>796.0</ele><time>2026-04-11T09:00:42Z</time></trkpt><trkpt lat="43.255601998798745" lon="12.919380563321084"><ele>793.5714285714286</ele><time>2026-04-11T09:00:44Z</time></trkpt><trkpt lat="43.255663795413284" lon="12.919356828839392"><ele>791.1428571428571</ele><time>2026-04-11T09:00:46Z</time></trkpt><trkpt lat="43.255713696653956" lon="12.91928374313536"><ele>788.7142857142858</ele><time>2026-04-11T09:00:48Z</time></trkpt><trkpt lat="43.25574320788333" lon="12.919178933471041"><ele>786.2857142857142</ele><time>2026-04-11T09:00:50Z</time></trkpt><trkpt lat="43.25577428021771" lon="12.919102148810694"><ele>783.8571428571429</ele><time>2026-04-11T09:00:52Z</time></trkpt><trkpt lat="43.25584752806883" lon="12.91903209083092"><ele>781.4285714285714</ele><time>2026-04-11T09:00:54Z</time></trkpt><trkpt lat="43.25592155206352" lon="12.919009350458621"><ele>779.0</ele><time>2026-04-11T09:00:57Z</time></trkpt><trkpt lat="43.2559912892397" lon="12.91899152599081"><ele>775.5000000000001</ele><time>2026-04-11T09:00:59Z</time></trkpt><trkpt lat="43.256044708231656" lon="12.918940721558219"><ele>772.0</ele><time>2026-04-11T09:01:03Z</time></trkpt><trkpt lat="43.2561107161661" lon="12.91890523517294"><ele>768.5</ele><time>2026-04-11T09:01:07Z</time></trkpt><trkpt lat="43.256181268950286" lon="12.918925710125785"><ele>765.0</ele><time>2026-04-11T09:01:09Z</time></trkpt><trkpt lat="43.256253382184795" lon="12.918927294236411"><ele>761.5</ele><time>2026-04-11T09:01:11Z</time></trkpt><trkpt lat="43.25635595261392" lon="12.918959382738226"><ele>758.0</ele><time>2026-04-11T09:01:13Z</time></trkpt><trkpt lat="43.25641941467133" lon="12.918945351797802"><ele>754.4</ele><time>2026-04-11T09:01:14Z</time></trkpt><trkpt lat="43.25648608645601" lon="12.918929119320529"><ele>750.8</ele><time>2026-04-11T09:01:15Z</time></trkpt><trkpt lat="43.25659180335459" lon="12.918879626560098"><ele>747.2</ele><time>2026-04-11T09:01:17Z</time></trkpt><trkpt lat="43.25670681439954" lon="12.918835673654467"><ele>743.6</ele><time>2026-04-11T09:01:19Z</time></trkpt><trkpt lat="43.25677812319848" lon="12.918794120707998"><ele>740.0</ele><time>2026-04-11T09:01:20Z</time></trkpt><trkpt lat="43.25684818339238" lon="12.918747108001257"><ele>740.0</ele><time>2026-04-11T09:01:21Z</time></trkpt><trkpt lat="43.25691147180878" lon="12.918696974772349"><ele>740.0</ele><time>2026-04-11T09:01:22Z</time></trkpt><trkpt lat="43.25698150161952" lon="12.918642004432114"><ele>740.0</ele><time>2026-04-11T09:01:24Z</time></trkpt><trkpt lat="43.25706116425921" lon="12.918647489245743"><ele>740.0</ele><time>2026-04-11T09:01:26Z</time></trkpt><trkpt lat="43.25714788935911" lon="12.9186290198544"><ele>740.0</ele><time>2026-04-11T09:01:28Z</time></trkpt><trkpt lat="43.25722782442076" lon="12.918613649932807"><ele>740.0</ele><time>2026-04-11T09:01:30Z</time></trkpt><trkpt lat="43.25729378279769" lon="12.918618705079494"><ele>738.8</ele><time>2026-04-11T09:01:33Z</time></trkpt><trkpt lat="43.25736409465764" lon="12.918590745045641"><ele>737.6</ele><time>2026-04-11T09:01:53Z</time></trkpt><trkpt lat="43.25745032288937" lon="12.918553880878832"><ele>736.4000000000001</ele><time>2026-04-11T09:01:55Z</time></trkpt><trkpt lat="43.2575232570913" lon="12.918500925040005"><ele>735.2</ele><time>2026-04-11T09:01:56Z</time></trkpt><trkpt lat="43.257624212217195" lon="12.918404534537244"><ele>734.0</ele><time>2026-04-11T09:01:57Z</time></trkpt><trkpt lat="43.25773853256053" lon="12.918310526209112"><ele>730.2</ele><time>2026-04-11T09:01:58Z</time></trkpt><trkpt lat="43.25785075734799" lon="12.918219697002112"><ele>726.4000000000001</ele><time>2026-04-11T09:01:59Z</time></trkpt><trkpt lat="43.25794568933914" lon="12.918134832626727"><ele>722.6</ele><time>2026-04-11T09:02:00Z</time></trkpt><trkpt lat="43.258019367239335" lon="12.918046274374953"><ele>718.8</ele><time>2026-04-11T09:02:01Z</time></trkpt><trkpt lat="43.2580817028511" lon="12.917959998889193"><ele>715.0</ele><time>2026-04-11T09:02:02Z</time></trkpt><trkpt lat="43.258136272548604" lon="12.91786839706208"><ele>714.0</ele><time>2026-04-11T09:02:02.999Z</time></trkpt><trkpt lat="43.258220768269595" lon="12.917769116171653"><ele>713.0</ele><time>2026-04-11T09:02:03.999Z</time></trkpt><trkpt lat="43.25830781891918" lon="12.917692762715971"><ele>712.0</ele><time>2026-04-11T09:02:04.999Z</time></trkpt><trkpt lat="43.25839610166873" lon="12.917614303609064"><ele>711.0</ele><time>2026-04-11T09:02:05.999Z</time></trkpt><trkpt lat="43.25846742579768" lon="12.917518104826843"><ele>710.0</ele><time>2026-04-11T09:02:06.999Z</time></trkpt><trkpt lat="43.25850021507865" lon="12.917434925043027"><ele>708.0</ele><time>2026-04-11T09:02:07.999Z</time></trkpt><trkpt lat="43.25856643606336" lon="12.917298732055924"><ele>706.0</ele><time>2026-04-11T09:02:09.999Z</time></trkpt><trkpt lat="43.25863433031203" lon="12.917202257475415"><ele>704.0</ele><time>2026-04-11T09:02:10.999Z</time></trkpt><trkpt lat="43.25871508487472" lon="12.91708739586086"><ele>702.0</ele><time>2026-04-11T09:02:11.999Z</time></trkpt><trkpt lat="43.258795459090976" lon="12.916988594878553"><ele>700.0</ele><time>2026-04-11T09:02:12.999Z</time></trkpt><trkpt lat="43.25885224005989" lon="12.916946516089709"><ele>700.0</ele><time>2026-04-11T09:02:13.999Z</time></trkpt><trkpt lat="43.25892390504288" lon="12.91692376806087"><ele>700.0</ele><time>2026-04-11T09:02:16.999Z</time></trkpt><trkpt lat="43.25898707769149" lon="12.916828003145934"><ele>700.0</ele><time>2026-04-11T09:02:18.999Z</time></trkpt><trkpt lat="43.25903781069469" lon="12.916740531456364"><ele>700.0</ele><time>2026-04-11T09:02:20.999Z</time></trkpt><trkpt lat="43.259125239324526" lon="12.916637194763384"><ele>700.0</ele><time>2026-04-11T09:02:24.999Z</time></trkpt><trkpt lat="43.25917840288354" lon="12.916582075305028"><ele>700.0</ele><time>2026-04-11T09:02:26Z</time></trkpt><trkpt lat="43.25925686274235" lon="12.916525096833707"><ele>697.5</ele><time>2026-04-11T09:02:27Z</time></trkpt><trkpt lat="43.259333521617435" lon="12.916466133291983"><ele>695.0</ele><time>2026-04-11T09:02:28Z</time></trkpt><trkpt lat="43.25939644799748" lon="12.916428700473688"><ele>692.5</ele><time>2026-04-11T09:02:29Z</time></trkpt><trkpt lat="43.25947332204988" lon="12.91636965669734"><ele>690.0</ele><time>2026-04-11T09:02:30Z</time></trkpt><trkpt lat="43.25955195467914" lon="12.916303634296643"><ele>687.5</ele><time>2026-04-11T09:02:31Z</time></trkpt><trkpt lat="43.259608874857086" lon="12.916263290781295"><ele>685.0</ele><time>2026-04-11T09:02:32Z</time></trkpt><trkpt lat="43.25966355465938" lon="12.91620685063432"><ele>685.0</ele><time>2026-04-11T09:02:33Z</time></trkpt><trkpt lat="43.25971990137644" lon="12.916138559881858"><ele>685.0</ele><time>2026-04-11T09:02:34Z</time></trkpt><trkpt lat="43.25979365065226" lon="12.916005649265513"><ele>685.0</ele><time>2026-04-11T09:02:36Z</time></trkpt><trkpt lat="43.25988114932711" lon="12.915825419151426"><ele>685.0</ele><time>2026-04-11T09:02:38Z</time></trkpt><trkpt lat="43.25998359443209" lon="12.915708552876813"><ele>680.5</ele><time>2026-04-11T09:02:39Z</time></trkpt><trkpt lat="43.26010737537882" lon="12.91560471588358"><ele>676.0</ele><time>2026-04-11T09:02:40Z</time></trkpt><trkpt lat="43.26023593806012" lon="12.915513234740036"><ele>671.5</ele><time>2026-04-11T09:02:41Z</time></trkpt><trkpt lat="43.26036602045344" lon="12.915450955077077"><ele>667.0</ele><time>2026-04-11T09:02:42Z</time></trkpt><trkpt lat="43.26049288942741" lon="12.915399368938424"><ele>661.8</ele><time>2026-04-11T09:02:43Z</time></trkpt><trkpt lat="43.26062347288126" lon="12.915349568306631"><ele>656.6</ele><time>2026-04-11T09:02:44Z</time></trkpt><trkpt lat="43.260746454089016" lon="12.915323112125341"><ele>651.4</ele><time>2026-04-11T09:02:45Z</time></trkpt><trkpt lat="43.26083906811627" lon="12.915317804222578"><ele>646.1999999999999</ele><time>2026-04-11T09:02:46Z</time></trkpt><trkpt lat="43.26090350435436" lon="12.915309447152598"><ele>641.0</ele><time>2026-04-11T09:02:47Z</time></trkpt><trkpt lat="43.2609446903534" lon="12.915377878767428"><ele>641.0</ele><time>2026-04-11T09:02:49Z</time></trkpt><trkpt lat="43.26088828465626" lon="12.915499891833427"><ele>641.0</ele><time>2026-04-11T09:02:51Z</time></trkpt><trkpt lat="43.26085537995899" lon="12.91560324293268"><ele>641.0</ele><time>2026-04-11T09:02:52Z</time></trkpt><trkpt lat="43.26083097463017" lon="12.915710494254348"><ele>641.0</ele><time>2026-04-11T09:02:53Z</time></trkpt><trkpt lat="43.260899133020736" lon="12.915865563396045"><ele>641.0</ele><time>2026-04-11T09:02:55Z</time></trkpt><trkpt lat="43.26096938555108" lon="12.915917071997406"><ele>647.0</ele><time>2026-04-11T09:02:56Z</time></trkpt><trkpt lat="43.26108334014646" lon="12.915946569345289"><ele>653.0</ele><time>2026-04-11T09:02:57Z</time></trkpt><trkpt lat="43.26122780452062" lon="12.915953967609326"><ele>659.0</ele><time>2026-04-11T09:02:58Z</time></trkpt><trkpt lat="43.26134859096447" lon="12.915983087085111"><ele>665.0</ele><time>2026-04-11T09:02:59Z</time></trkpt><trkpt lat="43.26144327289866" lon="12.916035683290762"><ele>660.8</ele><time>2026-04-11T09:03:00Z</time></trkpt><trkpt lat="43.261540776377096" lon="12.916072137950904"><ele>656.6</ele><time>2026-04-11T09:03:01Z</time></trkpt><trkpt lat="43.26166004064672" lon="12.916067606421871"><ele>652.4000000000001</ele><time>2026-04-11T09:03:02Z</time></trkpt><trkpt lat="43.261765641610914" lon="12.91606214313749"><ele>648.2</ele><time>2026-04-11T09:03:03Z</time></trkpt><trkpt lat="43.26186119344375" lon="12.916072850069128"><ele>644.0</ele><time>2026-04-11T09:03:05Z</time></trkpt><trkpt lat="43.26189475773877" lon="12.915995445515737"><ele>639.0</ele><time>2026-04-11T09:03:07Z</time></trkpt><trkpt lat="43.26182985272898" lon="12.915863791309237"><ele>634.0</ele><time>2026-04-11T09:03:09Z</time></trkpt><trkpt lat="43.261749707613845" lon="12.915783416277518"><ele>629.0</ele><time>2026-04-11T09:03:10Z</time></trkpt><trkpt lat="43.261711108767635" lon="12.915710955514784"><ele>624.0</ele><time>2026-04-11T09:03:11Z</time></trkpt><trkpt lat="43.261729723397536" lon="12.915626458327969"><ele>619.0</ele><time>2026-04-11T09:03:12Z</time></trkpt><trkpt lat="43.2617924300807" lon="12.91560972421781"><ele>614.0</ele><time>2026-04-11T09:03:13Z</time></trkpt><trkpt lat="43.261870328396036" lon="12.915631631774483"><ele>614.0</ele><time>2026-04-11T09:03:14Z</time></trkpt><trkpt lat="43.261968061687625" lon="12.915673285935258"><ele>614.0</ele><time>2026-04-11T09:03:15Z</time></trkpt><trkpt lat="43.26205635229738" lon="12.915747762381542"><ele>614.0</ele><time>2026-04-11T09:03:16Z</time></trkpt><trkpt lat="43.262108026384965" lon="12.915803484148116"><ele>614.0</ele><time>2026-04-11T09:03:17Z</time></trkpt><trkpt lat="43.26215754707749" lon="12.915744918352376"><ele>614.0</ele><time>2026-04-11T09:03:19Z</time></trkpt><trkpt lat="43.262127133705" lon="12.915619238832225"><ele>614.0</ele><time>2026-04-11T09:03:21Z</time></trkpt><trkpt lat="43.26206633991316" lon="12.915520184694035"><ele>614.0</ele><time>2026-04-11T09:03:22Z</time></trkpt><trkpt lat="43.26209412296829" lon="12.915412898189707"><ele>614.0</ele><time>2026-04-11T09:03:24Z</time></trkpt><trkpt lat="43.26221188787859" lon="12.91547192078482"><ele>614.0</ele><time>2026-04-11T09:03:26Z</time></trkpt><trkpt lat="43.262297146447615" lon="12.915547179309838"><ele>614.0</ele><time>2026-04-11T09:03:27Z</time></trkpt><trkpt lat="43.26234514145958" lon="12.91560973626398"><ele>614.0</ele><time>2026-04-11T09:03:28Z</time></trkpt><trkpt lat="43.262428834511326" lon="12.915507332352066"><ele>610.2</ele><time>2026-04-11T09:03:30Z</time></trkpt><trkpt lat="43.26243767181958" lon="12.915344878958217"><ele>606.4</ele><time>2026-04-11T09:03:32Z</time></trkpt><trkpt lat="43.262412227632296" lon="12.915250510708908"><ele>602.6</ele><time>2026-04-11T09:03:33Z</time></trkpt><trkpt lat="43.26243146340665" lon="12.915159757248325"><ele>598.8</ele><time>2026-04-11T09:03:34Z</time></trkpt><trkpt lat="43.2625162096164" lon="12.9150788530149"><ele>595.0</ele><time>2026-04-11T09:03:35Z</time></trkpt><trkpt lat="43.2625992774517" lon="12.914974002571192"><ele>592.3333333333334</ele><time>2026-04-11T09:03:36Z</time></trkpt><trkpt lat="43.262637429774806" lon="12.914870117030228"><ele>589.6666666666667</ele><time>2026-04-11T09:03:37Z</time></trkpt><trkpt lat="43.26266197662" lon="12.914745479391057"><ele>587.0</ele><time>2026-04-11T09:03:38Z</time></trkpt><trkpt lat="43.26270528559471" lon="12.914671934693049"><ele>584.3333333333334</ele><time>2026-04-11T09:03:39Z</time></trkpt><trkpt lat="43.26278514059487" lon="12.914673378053111"><ele>581.6666666666666</ele><time>2026-04-11T09:03:41Z</time></trkpt><trkpt lat="43.26285984392683" lon="12.914713943468277"><ele>579.0</ele><time>2026-04-11T09:03:42Z</time></trkpt><trkpt lat="43.26294617186464" lon="12.914812566962459"><ele>579.0</ele><time>2026-04-11T09:03:43Z</time></trkpt><trkpt lat="43.263014496961645" lon="12.914896947928707"><ele>579.0</ele><time>2026-04-11T09:03:44Z</time></trkpt><trkpt lat="43.26313420898822" lon="12.914829586905338"><ele>579.0</ele><time>2026-04-11T09:03:46Z</time></trkpt><trkpt lat="43.26318505594225" lon="12.914728406510685"><ele>579.0</ele><time>2026-04-11T09:03:47Z</time></trkpt><trkpt lat="43.263224405049556" lon="12.914583624700482"><ele>579.0</ele><time>2026-04-11T09:03:48Z</time></trkpt><trkpt lat="43.263261351226646" lon="12.914429483120877"><ele>575.5</ele><time>2026-04-11T09:03:49Z</time></trkpt><trkpt lat="43.263296032858705" lon="12.914316478077655"><ele>572.0</ele><time>2026-04-11T09:03:50Z</time></trkpt><trkpt lat="43.26336014126568" lon="12.914265255318515"><ele>568.5</ele><time>2026-04-11T09:03:51Z</time></trkpt><trkpt lat="43.26345442110206" lon="12.914245204293172"><ele>565.0</ele><time>2026-04-11T09:03:52Z</time></trkpt><trkpt lat="43.26353023234389" lon="12.914251648712959"><ele>561.5</ele><time>2026-04-11T09:03:53Z</time></trkpt><trkpt lat="43.26359127828058" lon="12.914227854131248"><ele>558.0</ele><time>2026-04-11T09:03:55Z</time></trkpt><trkpt lat="43.263655774474366" lon="12.914222992981964"><ele>558.0</ele><time>2026-04-11T09:03:59Z</time></trkpt><trkpt lat="43.26373338813331" lon="12.914222596867841"><ele>558.0</ele><time>2026-04-11T09:04:17Z</time></trkpt><trkpt lat="43.26381389706732" lon="12.914245984443417"><ele>558.0</ele><time>2026-04-11T09:04:19Z</time></trkpt><trkpt lat="43.26388201222241" lon="12.914164251444102"><ele>558.0</ele><time>2026-04-11T09:04:21Z</time></trkpt><trkpt lat="43.26393283931194" lon="12.914109822362413"><ele>558.0</ele><time>2026-04-11T09:04:22Z</time></trkpt><trkpt lat="43.264008033445414" lon="12.914029940304413"><ele>558.0</ele><time>2026-04-11T09:04:23.999Z</time></trkpt><trkpt lat="43.264084463737284" lon="12.91391215113187"><ele>554.0</ele><time>2026-04-11T09:04:25.999Z</time></trkpt><trkpt lat="43.26415732873238" lon="12.913778492469332"><ele>550.0</ele><time>2026-04-11T09:04:27.999Z</time></trkpt><trkpt lat="43.26417479673471" lon="12.913694175595715"><ele>546.0</ele><time>2026-04-11T09:04:28.999Z</time></trkpt><trkpt lat="43.26417616731968" lon="12.913547199674385"><ele>542.0</ele><time>2026-04-11T09:04:30.999Z</time></trkpt><trkpt lat="43.26414753953071" lon="12.913441552923885"><ele>538.0</ele><time>2026-04-11T09:04:33Z</time></trkpt><trkpt lat="43.264152346979635" lon="12.913340934917075"><ele>534.0</ele><time>2026-04-11T09:05:05Z</time></trkpt><trkpt lat="43.26415944791439" lon="12.913177893670401"><ele>534.2</ele><time>2026-04-11T09:05:07Z</time></trkpt><trkpt lat="43.264164531402045" lon="12.913071137418314"><ele>534.4</ele><time>2026-04-11T09:05:08Z</time></trkpt><trkpt lat="43.26416687135147" lon="12.912960609199759"><ele>534.6</ele><time>2026-04-11T09:05:09Z</time></trkpt><trkpt lat="43.26416725744218" lon="12.912820413910664"><ele>534.8</ele><time>2026-04-11T09:05:10Z</time></trkpt><trkpt lat="43.26417264960896" lon="12.912638086816486"><ele>535.0</ele><time>2026-04-11T09:05:11Z</time></trkpt><trkpt lat="43.26418149641546" lon="12.912422433328858"><ele>535.0</ele><time>2026-04-11T09:05:12Z</time></trkpt><trkpt lat="43.26418557036653" lon="12.912191580158334"><ele>535.0</ele><time>2026-04-11T09:05:13Z</time></trkpt><trkpt lat="43.26417568223051" lon="12.91196861840029"><ele>535.0</ele><time>2026-04-11T09:05:14Z</time></trkpt><trkpt lat="43.264151051774554" lon="12.911764950715426"><ele>536.25</ele><time>2026-04-11T09:05:15Z</time></trkpt><trkpt lat="43.26416166412259" lon="12.91155739832474"><ele>537.5</ele><time>2026-04-11T09:05:16Z</time></trkpt><trkpt lat="43.264191379742435" lon="12.911375888113545"><ele>538.75</ele><time>2026-04-11T09:05:17Z</time></trkpt><trkpt lat="43.264212615278396" lon="12.911254314534583"><ele>540.0</ele><time>2026-04-11T09:05:18Z</time></trkpt><trkpt lat="43.264212795942136" lon="12.91113103070494"><ele>540.0</ele><time>2026-04-11T09:05:19Z</time></trkpt><trkpt lat="43.26420449127247" lon="12.911002484465413"><ele>540.0</ele><time>2026-04-11T09:05:20Z</time></trkpt><trkpt lat="43.264203636724694" lon="12.910851830207628"><ele>540.0</ele><time>2026-04-11T09:05:21Z</time></trkpt><trkpt lat="43.26420734116205" lon="12.910702041707639"><ele>540.0</ele><time>2026-04-11T09:05:22Z</time></trkpt><trkpt lat="43.26420738302999" lon="12.910553403814294"><ele>540.0</ele><time>2026-04-11T09:05:23Z</time></trkpt><trkpt lat="43.2642030316646" lon="12.910409055697182"><ele>540.2</ele><time>2026-04-11T09:05:24Z</time></trkpt><trkpt lat="43.264190342095176" lon="12.910268110928225"><ele>540.4</ele><time>2026-04-11T09:05:25Z</time></trkpt><trkpt lat="43.26416262371737" lon="12.910133880518778"><ele>540.6</ele><time>2026-04-11T09:05:26Z</time></trkpt><trkpt lat="43.26412615794279" lon="12.910007185635841"><ele>540.8</ele><time>2026-04-11T09:05:27Z</time></trkpt><trkpt lat="43.26406186219111" lon="12.909899820329084"><ele>541.0</ele><time>2026-04-11T09:05:28Z</time></trkpt><trkpt lat="43.2639751199978" lon="12.909779800237342"><ele>547.5</ele><time>2026-04-11T09:05:29Z</time></trkpt><trkpt lat="43.26388439326056" lon="12.909624436666975"><ele>554.0</ele><time>2026-04-11T09:05:30Z</time></trkpt><trkpt lat="43.263821208452576" lon="12.909427449789744"><ele>560.5</ele><time>2026-04-11T09:05:31Z</time></trkpt><trkpt lat="43.26377044590385" lon="12.909253914805626"><ele>567.0</ele><time>2026-04-11T09:05:32Z</time></trkpt><trkpt lat="43.26370202746328" lon="12.909077033581529"><ele>567.0</ele><time>2026-04-11T09:05:33Z</time></trkpt><trkpt lat="43.26360158497671" lon="12.908922507028896"><ele>567.0</ele><time>2026-04-11T09:05:34Z</time></trkpt><trkpt lat="43.26352851299596" lon="12.908832399271386"><ele>567.0</ele><time>2026-04-11T09:05:35Z</time></trkpt><trkpt lat="43.26342783500937" lon="12.908753867028143"><ele>567.0</ele><time>2026-04-11T09:05:36Z</time></trkpt><trkpt lat="43.26332634363375" lon="12.908632699216739"><ele>567.0</ele><time>2026-04-11T09:05:37Z</time></trkpt><trkpt lat="43.263271555039566" lon="12.908543837847246"><ele>567.0</ele><time>2026-04-11T09:05:38Z</time></trkpt><trkpt lat="43.26320451518285" lon="12.908442556305731"><ele>567.0</ele><time>2026-04-11T09:05:40Z</time></trkpt><trkpt lat="43.26315198563709" lon="12.908363094727989"><ele>567.0</ele><time>2026-04-11T09:05:42Z</time></trkpt><trkpt lat="43.26312298572085" lon="12.908244030039425"><ele>567.0</ele><time>2026-04-11T09:05:44Z</time></trkpt><trkpt lat="43.26311518763628" lon="12.908157508367138"><ele>567.0</ele><time>2026-04-11T09:05:45Z</time></trkpt><trkpt lat="43.26313676838487" lon="12.908016755781201"><ele>563.8000000000001</ele><time>2026-04-11T09:05:47Z</time></trkpt><trkpt lat="43.26315171853427" lon="12.907917260874846"><ele>560.6</ele><time>2026-04-11T09:05:49Z</time></trkpt><trkpt lat="43.26315700905336" lon="12.907772776993507"><ele>557.4000000000001</ele><time>2026-04-11T09:05:51Z</time></trkpt><trkpt lat="43.263202566267736" lon="12.907630376553847"><ele>554.2</ele><time>2026-04-11T09:05:53Z</time></trkpt><trkpt lat="43.26328370305631" lon="12.90748838342158"><ele>551.0</ele><time>2026-04-11T09:05:55Z</time></trkpt><trkpt lat="43.2633415894738" lon="12.90740478825091"><ele>550.0</ele><time>2026-04-11T09:05:56Z</time></trkpt><trkpt lat="43.2633939931315" lon="12.907322019475888"><ele>549.0</ele><time>2026-04-11T09:05:57Z</time></trkpt><trkpt lat="43.26345692983946" lon="12.907227084070428"><ele>548.0</ele><time>2026-04-11T09:05:58Z</time></trkpt><trkpt lat="43.26351529676012" lon="12.907134946561476"><ele>547.0</ele><time>2026-04-11T09:05:59Z</time></trkpt><trkpt lat="43.263585852003885" lon="12.907029427728325"><ele>546.0</ele><time>2026-04-11T09:06:00Z</time></trkpt><trkpt lat="43.26365297534622" lon="12.906937323324454"><ele>546.0</ele><time>2026-04-11T09:06:01Z</time></trkpt><trkpt lat="43.26372373097831" lon="12.906833577006918"><ele>546.0</ele><time>2026-04-11T09:06:02Z</time></trkpt><trkpt lat="43.26381708398852" lon="12.906710154645813"><ele>546.0</ele><time>2026-04-11T09:06:03Z</time></trkpt><trkpt lat="43.263919057342314" lon="12.906581859161287"><ele>546.0</ele><time>2026-04-11T09:06:03.999Z</time></trkpt><trkpt lat="43.26405422293448" lon="12.90642523865011"><ele>550.3333333333334</ele><time>2026-04-11T09:06:04.999Z</time></trkpt><trkpt lat="43.26417233290096" lon="12.906290819974544"><ele>554.6666666666667</ele><time>2026-04-11T09:06:05.999Z</time></trkpt><trkpt lat="43.26429119666316" lon="12.906165015034999"><ele>559.0</ele><time>2026-04-11T09:06:06.999Z</time></trkpt><trkpt lat="43.2644046899277" lon="12.90603527257807"><ele>559.0</ele><time>2026-04-11T09:06:07.999Z</time></trkpt><trkpt lat="43.264517533578555" lon="12.905920251926291"><ele>559.0</ele><time>2026-04-11T09:06:08.999Z</time></trkpt><trkpt lat="43.26461929804941" lon="12.905806712905155"><ele>559.0</ele><time>2026-04-11T09:06:09.999Z</time></trkpt><trkpt lat="43.26472561567873" lon="12.905683593150835"><ele>559.0</ele><time>2026-04-11T09:06:10.999Z</time></trkpt><trkpt lat="43.26482441652563" lon="12.90557170475805"><ele>560.75</ele><time>2026-04-11T09:06:11.999Z</time></trkpt><trkpt lat="43.26491928978936" lon="12.905454314163446"><ele>562.5</ele><time>2026-04-11T09:06:12.999Z</time></trkpt><trkpt lat="43.26501005718857" lon="12.905358484139033"><ele>564.25</ele><time>2026-04-11T09:06:13.999Z</time></trkpt><trkpt lat="43.26510014904928" lon="12.905257076253251"><ele>566.0</ele><time>2026-04-11T09:06:14.999Z</time></trkpt><trkpt lat="43.26518944185504" lon="12.905154104373297"><ele>565.75</ele><time>2026-04-11T09:06:15.999Z</time></trkpt><trkpt lat="43.26528171693146" lon="12.905051910829672"><ele>565.5</ele><time>2026-04-11T09:06:16.999Z</time></trkpt><trkpt lat="43.26537825019942" lon="12.904941397956541"><ele>565.25</ele><time>2026-04-11T09:06:17.999Z</time></trkpt><trkpt lat="43.265476967051285" lon="12.904836831049662"><ele>565.0</ele><time>2026-04-11T09:06:18.999Z</time></trkpt><trkpt lat="43.26556321559775" lon="12.904714814629624"><ele>566.5</ele><time>2026-04-11T09:06:19.999Z</time></trkpt><trkpt lat="43.26564912862047" lon="12.904581308979154"><ele>568.0</ele><time>2026-04-11T09:06:20.999Z</time></trkpt><trkpt lat="43.265727212736564" lon="12.904450716340179"><ele>569.5</ele><time>2026-04-11T09:06:21.999Z</time></trkpt><trkpt lat="43.2658127551611" lon="12.90431974319557"><ele>571.0</ele><time>2026-04-11T09:06:22.999Z</time></trkpt><trkpt lat="43.26590140772548" lon="12.904195888172644"><ele>571.0</ele><time>2026-04-11T09:06:23.999Z</time></trkpt><trkpt lat="43.26598871235565" lon="12.904072795722385"><ele>571.0</ele><time>2026-04-11T09:06:24.999Z</time></trkpt><trkpt lat="43.26607932282977" lon="12.903956243633884"><ele>571.0</ele><time>2026-04-11T09:06:25.999Z</time></trkpt><trkpt lat="43.26616600225983" lon="12.903843297168041"><ele>571.0</ele><time>2026-04-11T09:06:26.999Z</time></trkpt><trkpt lat="43.266255016476435" lon="12.903715663697678"><ele>571.0</ele><time>2026-04-11T09:06:27.999Z</time></trkpt><trkpt lat="43.266347629626814" lon="12.90360391219741"><ele>571.0</ele><time>2026-04-11T09:06:28.999Z</time></trkpt><trkpt lat="43.266445578632776" lon="12.903484365482472"><ele>571.0</ele><time>2026-04-11T09:06:29.999Z</time></trkpt><trkpt lat="43.266544283115756" lon="12.903364477403745"><ele>571.0</ele><time>2026-04-11T09:06:30.999Z</time></trkpt><trkpt lat="43.266647246509365" lon="12.903249977691805"><ele>573.75</ele><time>2026-04-11T09:06:31.999Z</time></trkpt><trkpt lat="43.26675628214048" lon="12.903149695422648"><ele>576.5</ele><time>2026-04-11T09:06:32.999Z</time></trkpt><trkpt lat="43.26687249484977" lon="12.903053792112306"><ele>579.25</ele><time>2026-04-11T09:06:33.999Z</time></trkpt><trkpt lat="43.266987972842145" lon="12.90293576507014"><ele>582.0</ele><time>2026-04-11T09:06:34.999Z</time></trkpt><trkpt lat="43.267104961963874" lon="12.902807064579775"><ele>582.0</ele><time>2026-04-11T09:06:35.999Z</time></trkpt><trkpt lat="43.267236505307146" lon="12.90267176933952"><ele>582.0</ele><time>2026-04-11T09:06:36.999Z</time></trkpt><trkpt lat="43.267359363660184" lon="12.90255285176192"><ele>582.0</ele><time>2026-04-11T09:06:38Z</time></trkpt><trkpt lat="43.26748372451475" lon="12.902426275197236"><ele>585.0</ele><time>2026-04-11T09:06:39Z</time></trkpt><trkpt lat="43.26761653270638" lon="12.902293118426096"><ele>588.0</ele><time>2026-04-11T09:06:40Z</time></trkpt><trkpt lat="43.267731330131674" lon="12.902168637511137"><ele>591.0</ele><time>2026-04-11T09:06:41Z</time></trkpt><trkpt lat="43.26786331629565" lon="12.902033271559686"><ele>591.0</ele><time>2026-04-11T09:06:42Z</time></trkpt><trkpt lat="43.26797799644469" lon="12.90192705586218"><ele>591.0</ele><time>2026-04-11T09:06:43Z</time></trkpt><trkpt lat="43.268084150222464" lon="12.901832326143756"><ele>591.0</ele><time>2026-04-11T09:06:44Z</time></trkpt><trkpt lat="43.26816573109423" lon="12.901752720743659"><ele>591.0</ele><time>2026-04-11T09:06:45Z</time></trkpt><trkpt lat="43.26822807928941" lon="12.901666001592368"><ele>591.8333333333334</ele><time>2026-04-11T09:06:46Z</time></trkpt><trkpt lat="43.268258233651814" lon="12.901569171638288"><ele>592.6666666666666</ele><time>2026-04-11T09:06:47Z</time></trkpt><trkpt lat="43.26825967076376" lon="12.901462740750576"><ele>593.5</ele><time>2026-04-11T09:06:48Z</time></trkpt><trkpt lat="43.26823115697296" lon="12.901359552618603"><ele>594.3333333333333</ele><time>2026-04-11T09:06:49Z</time></trkpt><trkpt lat="43.26817598431657" lon="12.901236871781522"><ele>595.1666666666666</ele><time>2026-04-11T09:06:50Z</time></trkpt><trkpt lat="43.26812445626795" lon="12.901104191258481"><ele>596.0</ele><time>2026-04-11T09:06:51Z</time></trkpt><trkpt lat="43.26810341175847" lon="12.900936766371483"><ele>599.0</ele><time>2026-04-11T09:06:52Z</time></trkpt><trkpt lat="43.26808580003789" lon="12.90076563890386"><ele>602.0</ele><time>2026-04-11T09:06:53Z</time></trkpt><trkpt lat="43.268078013279926" lon="12.900631243654763"><ele>605.0</ele><time>2026-04-11T09:06:54Z</time></trkpt><trkpt lat="43.26806208101006" lon="12.900494531494912"><ele>608.0</ele><time>2026-04-11T09:06:55Z</time></trkpt><trkpt lat="43.26804934660248" lon="12.900351854707552"><ele>611.0</ele><time>2026-04-11T09:06:55.999Z</time></trkpt><trkpt lat="43.268028846250274" lon="12.900193285838524"><ele>612.25</ele><time>2026-04-11T09:06:56.999Z</time></trkpt><trkpt lat="43.26800532000576" lon="12.900022037645265"><ele>613.5</ele><time>2026-04-11T09:06:57.999Z</time></trkpt><trkpt lat="43.267971546834175" lon="12.899868715828669"><ele>614.75</ele><time>2026-04-11T09:06:58.999Z</time></trkpt><trkpt lat="43.26791909670232" lon="12.899699476875242"><ele>616.0</ele><time>2026-04-11T09:06:59.999Z</time></trkpt><trkpt lat="43.267854269760996" lon="12.899518530371656"><ele>616.0</ele><time>2026-04-11T09:07:00.999Z</time></trkpt><trkpt lat="43.26781150153869" lon="12.899332024189707"><ele>616.0</ele><time>2026-04-11T09:07:01.999Z</time></trkpt><trkpt lat="43.26778449613398" lon="12.89912750639742"><ele>616.0</ele><time>2026-04-11T09:07:02.999Z</time></trkpt><trkpt lat="43.267773461703634" lon="12.898963988121192"><ele>616.0</ele><time>2026-04-11T09:07:03.999Z</time></trkpt><trkpt lat="43.267774591464075" lon="12.898797917424256"><ele>617.2</ele><time>2026-04-11T09:07:04.999Z</time></trkpt><trkpt lat="43.26776888670448" lon="12.898646805338744"><ele>618.4000000000001</ele><time>2026-04-11T09:07:05.999Z</time></trkpt><trkpt lat="43.26777153103976" lon="12.898500458461704"><ele>619.6</ele><time>2026-04-11T09:07:06.999Z</time></trkpt><trkpt lat="43.267786449516585" lon="12.898351721375406"><ele>620.8000000000001</ele><time>2026-04-11T09:07:07.999Z</time></trkpt><trkpt lat="43.26780818637147" lon="12.898204469102923"><ele>622.0</ele><time>2026-04-11T09:07:08.999Z</time></trkpt><trkpt lat="43.26781976018476" lon="12.898050211418234"><ele>623.6</ele><time>2026-04-11T09:07:09.999Z</time></trkpt><trkpt lat="43.26780696340499" lon="12.897900531391082"><ele>625.2</ele><time>2026-04-11T09:07:10.999Z</time></trkpt><trkpt lat="43.26777816212324" lon="12.89774387001367"><ele>626.8</ele><time>2026-04-11T09:07:11.999Z</time></trkpt><trkpt lat="43.267744430067694" lon="12.897620935673975"><ele>628.4</ele><time>2026-04-11T09:07:12.999Z</time></trkpt><trkpt lat="43.26770493710413" lon="12.897503972066204"><ele>630.0</ele><time>2026-04-11T09:07:13.999Z</time></trkpt><trkpt lat="43.26767633066865" lon="12.897397684052516"><ele>631.6666666666666</ele><time>2026-04-11T09:07:14.999Z</time></trkpt><trkpt lat="43.26765497781128" lon="12.897303866410214"><ele>633.3333333333334</ele><time>2026-04-11T09:07:15.999Z</time></trkpt><trkpt lat="43.267637070076326" lon="12.897218688994089"><ele>635.0</ele><time>2026-04-11T09:07:16.999Z</time></trkpt><trkpt lat="43.267600744973414" lon="12.897116980528093"><ele>636.6666666666667</ele><time>2026-04-11T09:07:17.999Z</time></trkpt><trkpt lat="43.267542573888186" lon="12.897018053979284"><ele>638.3333333333334</ele><time>2026-04-11T09:07:19.999Z</time></trkpt><trkpt lat="43.26748969386968" lon="12.89696564895516"><ele>640.0</ele><time>2026-04-11T09:07:20.999Z</time></trkpt><trkpt lat="43.267414286778255" lon="12.896881338232982"><ele>640.0</ele><time>2026-04-11T09:07:21.999Z</time></trkpt><trkpt lat="43.26732148978375" lon="12.89680066575472"><ele>640.0</ele><time>2026-04-11T09:07:22.999Z</time></trkpt><trkpt lat="43.26719542459938" lon="12.89673343002277"><ele>640.0</ele><time>2026-04-11T09:07:23.999Z</time></trkpt><trkpt lat="43.26707914302281" lon="12.896683824793888"><ele>640.0</ele><time>2026-04-11T09:07:24.999Z</time></trkpt><trkpt lat="43.26698399941766" lon="12.896627862164623"><ele>644.2</ele><time>2026-04-11T09:07:25.999Z</time></trkpt><trkpt lat="43.26691496718105" lon="12.896543015007788"><ele>648.4</ele><time>2026-04-11T09:07:26.999Z</time></trkpt><trkpt lat="43.266852376834066" lon="12.896407869154004"><ele>652.5999999999999</ele><time>2026-04-11T09:07:27.999Z</time></trkpt><trkpt lat="43.26680724003387" lon="12.896259159629437"><ele>656.8</ele><time>2026-04-11T09:07:28.999Z</time></trkpt><trkpt lat="43.26681227911502" lon="12.89616473607413"><ele>661.0</ele><time>2026-04-11T09:07:29.999Z</time></trkpt><trkpt lat="43.26685688783222" lon="12.89609690932194"><ele>661.0</ele><time>2026-04-11T09:07:30.999Z</time></trkpt><trkpt lat="43.26693980395158" lon="12.896012075741574"><ele>661.0</ele><time>2026-04-11T09:07:31.999Z</time></trkpt><trkpt lat="43.267059777272365" lon="12.895930222030188"><ele>661.0</ele><time>2026-04-11T09:07:32.999Z</time></trkpt><trkpt lat="43.26718660612682" lon="12.895839366751872"><ele>661.0</ele><time>2026-04-11T09:07:33.999Z</time></trkpt><trkpt lat="43.267282770621655" lon="12.895713910756067"><ele>666.5</ele><time>2026-04-11T09:07:34.999Z</time></trkpt><trkpt lat="43.267356048107516" lon="12.895569821914613"><ele>672.0</ele><time>2026-04-11T09:07:35.999Z</time></trkpt><trkpt lat="43.26743096775774" lon="12.895421299438809"><ele>677.5</ele><time>2026-04-11T09:07:36.999Z</time></trkpt><trkpt lat="43.26751085879715" lon="12.895274334990232"><ele>683.0</ele><time>2026-04-11T09:07:37.999Z</time></trkpt><trkpt lat="43.26760379060038" lon="12.895115641728118"><ele>683.1666666666666</ele><time>2026-04-11T09:07:38.999Z</time></trkpt><trkpt lat="43.267680805734074" lon="12.894982199924154"><ele>683.3333333333333</ele><time>2026-04-11T09:07:39.999Z</time></trkpt><trkpt lat="43.2677254626999" lon="12.894881065360893"><ele>683.5</ele><time>2026-04-11T09:07:40.999Z</time></trkpt><trkpt lat="43.267723404256635" lon="12.894792127730273"><ele>683.6666666666666</ele><time>2026-04-11T09:07:41.999Z</time></trkpt><trkpt lat="43.26767158944979" lon="12.894736347333417"><ele>683.8333333333334</ele><time>2026-04-11T09:07:42.999Z</time></trkpt><trkpt lat="43.26759611324913" lon="12.894714731931828"><ele>684.0</ele><time>2026-04-11T09:07:43.999Z</time></trkpt><trkpt lat="43.26750370441073" lon="12.894738949250504"><ele>684.0</ele><time>2026-04-11T09:07:44.999Z</time></trkpt><trkpt lat="43.26741016418371" lon="12.894820466588149"><ele>684.0</ele><time>2026-04-11T09:07:45.999Z</time></trkpt><trkpt lat="43.26731438538932" lon="12.894943140268953"><ele>684.0</ele><time>2026-04-11T09:07:46.999Z</time></trkpt><trkpt lat="43.26722537400963" lon="12.895039175176777"><ele>684.0</ele><time>2026-04-11T09:07:47.999Z</time></trkpt><trkpt lat="43.26716331970641" lon="12.895100321270306"><ele>684.0</ele><time>2026-04-11T09:07:48.999Z</time></trkpt><trkpt lat="43.267106982360495" lon="12.895146761506146"><ele>683.8333333333334</ele><time>2026-04-11T09:07:49.999Z</time></trkpt><trkpt lat="43.26700323398591" lon="12.895238412528673"><ele>683.6666666666666</ele><time>2026-04-11T09:07:51.999Z</time></trkpt><trkpt lat="43.26694148677699" lon="12.895280540317763"><ele>683.5</ele><time>2026-04-11T09:07:52.999Z</time></trkpt><trkpt lat="43.266881394880734" lon="12.895309119523603"><ele>683.3333333333333</ele><time>2026-04-11T09:07:53.999Z</time></trkpt><trkpt lat="43.26681341741363" lon="12.895363793428839"><ele>683.1666666666666</ele><time>2026-04-11T09:07:54.999Z</time></trkpt><trkpt lat="43.266734549425784" lon="12.89540889474689"><ele>683.0</ele><time>2026-04-11T09:07:55.999Z</time></trkpt><trkpt lat="43.26664595420193" lon="12.895444747565632"><ele>683.0</ele><time>2026-04-11T09:07:56.999Z</time></trkpt><trkpt lat="43.266557500808005" lon="12.89548909667126"><ele>683.0</ele><time>2026-04-11T09:07:57.999Z</time></trkpt><trkpt lat="43.266477905694714" lon="12.895553774121511"><ele>683.0</ele><time>2026-04-11T09:07:58.999Z</time></trkpt><trkpt lat="43.266408208406396" lon="12.89561152375744"><ele>683.0</ele><time>2026-04-11T09:07:59.999Z</time></trkpt><trkpt lat="43.26633802215625" lon="12.895688621877865"><ele>683.0</ele><time>2026-04-11T09:08:00.999Z</time></trkpt><trkpt lat="43.26627242394685" lon="12.895774812690544"><ele>683.0</ele><time>2026-04-11T09:08:01.999Z</time></trkpt><trkpt lat="43.266212700485426" lon="12.89586058845057"><ele>687.5999999999999</ele><time>2026-04-11T09:08:02.999Z</time></trkpt><trkpt lat="43.2661558667437" lon="12.895954185148376"><ele>692.1999999999999</ele><time>2026-04-11T09:08:03.999Z</time></trkpt><trkpt lat="43.2661030162491" lon="12.896054754957353"><ele>696.8</ele><time>2026-04-11T09:08:04.999Z</time></trkpt><trkpt lat="43.26604864191317" lon="12.89616795541768"><ele>701.4</ele><time>2026-04-11T09:08:05.999Z</time></trkpt><trkpt lat="43.26599774966113" lon="12.896281633563568"><ele>706.0</ele><time>2026-04-11T09:08:06.999Z</time></trkpt><trkpt lat="43.265942097659384" lon="12.89640314988785"><ele>706.0</ele><time>2026-04-11T09:08:07.999Z</time></trkpt><trkpt lat="43.26589056749295" lon="12.896502863390596"><ele>706.0</ele><time>2026-04-11T09:08:08.999Z</time></trkpt><trkpt lat="43.26582741299679" lon="12.896615564460744"><ele>706.0</ele><time>2026-04-11T09:08:09.999Z</time></trkpt><trkpt lat="43.2657743776556" lon="12.896734908664106"><ele>706.0</ele><time>2026-04-11T09:08:10.999Z</time></trkpt><trkpt lat="43.26571891927163" lon="12.896858643355463"><ele>706.0</ele><time>2026-04-11T09:08:11.999Z</time></trkpt><trkpt lat="43.265660327140324" lon="12.8969790737533"><ele>711.1999999999999</ele><time>2026-04-11T09:08:12.999Z</time></trkpt><trkpt lat="43.26560923308712" lon="12.897099044037262"><ele>716.4</ele><time>2026-04-11T09:08:13.999Z</time></trkpt><trkpt lat="43.26557091745804" lon="12.897192407675815"><ele>721.6</ele><time>2026-04-11T09:08:14.999Z</time></trkpt><trkpt lat="43.26551588532377" lon="12.897303864167375"><ele>726.8</ele><time>2026-04-11T09:08:16.999Z</time></trkpt><trkpt lat="43.265413316367464" lon="12.8973900301848"><ele>732.0</ele><time>2026-04-11T09:08:18.999Z</time></trkpt><trkpt lat="43.265345667225176" lon="12.897443001138901"><ele>732.0</ele><time>2026-04-11T09:08:19.999Z</time></trkpt><trkpt lat="43.26528435704073" lon="12.897483661038455"><ele>732.0</ele><time>2026-04-11T09:08:20.999Z</time></trkpt><trkpt lat="43.26516937023942" lon="12.897502303555834"><ele>732.0</ele><time>2026-04-11T09:08:22.999Z</time></trkpt><trkpt lat="43.26509787804977" lon="12.89753446778123"><ele>732.0</ele><time>2026-04-11T09:08:23.999Z</time></trkpt><trkpt lat="43.26503994531934" lon="12.897582907771836"><ele>732.0</ele><time>2026-04-11T09:08:24.999Z</time></trkpt><trkpt lat="43.26496300367563" lon="12.897730391237937"><ele>732.8333333333334</ele><time>2026-04-11T09:08:26.999Z</time></trkpt><trkpt lat="43.26489991503829" lon="12.897798924142732"><ele>733.6666666666666</ele><time>2026-04-11T09:08:27.999Z</time></trkpt><trkpt lat="43.264831284757626" lon="12.897851315937002"><ele>734.5</ele><time>2026-04-11T09:08:28.999Z</time></trkpt><trkpt lat="43.26476597653789" lon="12.89790347750372"><ele>735.3333333333333</ele><time>2026-04-11T09:08:29.999Z</time></trkpt><trkpt lat="43.26468990117771" lon="12.897962860691255"><ele>736.1666666666666</ele><time>2026-04-11T09:08:30.999Z</time></trkpt><trkpt lat="43.26462853522047" lon="12.897982654448601"><ele>737.0</ele><time>2026-04-11T09:08:31.999Z</time></trkpt><trkpt lat="43.26456287061072" lon="12.89801914469574"><ele>741.4000000000001</ele><time>2026-04-11T09:08:32.999Z</time></trkpt><trkpt lat="43.2644828091876" lon="12.898175538817606"><ele>745.8000000000001</ele><time>2026-04-11T09:08:34.999Z</time></trkpt><trkpt lat="43.26442370914673" lon="12.89823207967408"><ele>750.2</ele><time>2026-04-11T09:08:36.999Z</time></trkpt><trkpt lat="43.26443391869315" lon="12.898362321267932"><ele>754.6</ele><time>2026-04-11T09:08:38.999Z</time></trkpt><trkpt lat="43.26441450136197" lon="12.89846380250952"><ele>759.0</ele><time>2026-04-11T09:08:39.999Z</time></trkpt><trkpt lat="43.264368454243076" lon="12.898539354415126"><ele>760.1428571428571</ele><time>2026-04-11T09:08:40.999Z</time></trkpt><trkpt lat="43.264317825721484" lon="12.898612214213102"><ele>761.2857142857142</ele><time>2026-04-11T09:08:41.999Z</time></trkpt><trkpt lat="43.26426279516555" lon="12.898687425825418"><ele>762.4285714285714</ele><time>2026-04-11T09:08:42.999Z</time></trkpt><trkpt lat="43.264207086613204" lon="12.898750501264137"><ele>763.5714285714286</ele><time>2026-04-11T09:08:44Z</time></trkpt><trkpt lat="43.26416297546928" lon="12.898826358897258"><ele>764.7142857142858</ele><time>2026-04-11T09:08:45Z</time></trkpt><trkpt lat="43.264142755523466" lon="12.898934026956207"><ele>765.8571428571429</ele><time>2026-04-11T09:08:46Z</time></trkpt><trkpt lat="43.26414787286736" lon="12.89903039667634"><ele>767.0</ele><time>2026-04-11T09:08:47Z</time></trkpt><trkpt lat="43.26414517484509" lon="12.899208648525745"><ele>769.8</ele><time>2026-04-11T09:08:49Z</time></trkpt><trkpt lat="43.264105001927426" lon="12.899371278067797"><ele>772.6</ele><time>2026-04-11T09:08:51Z</time></trkpt><trkpt lat="43.264080835949386" lon="12.899513819183204"><ele>775.4</ele><time>2026-04-11T09:08:53Z</time></trkpt><trkpt lat="43.264119728826685" lon="12.899621106508643"><ele>778.1999999999999</ele><time>2026-04-11T09:08:54Z</time></trkpt><trkpt lat="43.2641439685792" lon="12.899728285861034"><ele>781.0</ele><time>2026-04-11T09:08:55Z</time></trkpt><trkpt lat="43.26416591606642" lon="12.899857019193176"><ele>781.0</ele><time>2026-04-11T09:08:56Z</time></trkpt><trkpt lat="43.26416845364151" lon="12.899947844470457"><ele>781.0</ele><time>2026-04-11T09:08:57Z</time></trkpt><trkpt lat="43.26418303349504" lon="12.900120786300802"><ele>781.0</ele><time>2026-04-11T09:08:59Z</time></trkpt><trkpt lat="43.26422054502941" lon="12.900207170919591"><ele>781.0</ele><time>2026-04-11T09:09:00Z</time></trkpt><trkpt lat="43.26429665794232" lon="12.900317001094775"><ele>781.0</ele><time>2026-04-11T09:09:02Z</time></trkpt><trkpt lat="43.26426280605896" lon="12.900445943736205"><ele>780.8</ele><time>2026-04-11T09:09:04Z</time></trkpt><trkpt lat="43.26415742726572" lon="12.900487155868218"><ele>780.5999999999999</ele><time>2026-04-11T09:09:06Z</time></trkpt><trkpt lat="43.26408478505049" lon="12.900538277643742"><ele>780.4</ele><time>2026-04-11T09:09:07Z</time></trkpt><trkpt lat="43.264011519844246" lon="12.900641128425333"><ele>780.2</ele><time>2026-04-11T09:09:08Z</time></trkpt><trkpt lat="43.26395106862543" lon="12.900722374364701"><ele>780.0</ele><time>2026-04-11T09:09:09Z</time></trkpt><trkpt lat="43.26388155037497" lon="12.900755126604087"><ele>784.4</ele><time>2026-04-11T09:09:10Z</time></trkpt><trkpt lat="43.263806268550745" lon="12.900824281148772"><ele>788.8</ele><time>2026-04-11T09:09:12Z</time></trkpt><trkpt lat="43.26374499892392" lon="12.900752434481376"><ele>793.2</ele><time>2026-04-11T09:09:15Z</time></trkpt><trkpt lat="43.26362074394855" lon="12.900748740464671"><ele>797.6</ele><time>2026-04-11T09:09:17Z</time></trkpt><trkpt lat="43.263517718058544" lon="12.900812448887642"><ele>802.0</ele><time>2026-04-11T09:09:18Z</time></trkpt><trkpt lat="43.26342139755914" lon="12.900846458962405"><ele>802.0</ele><time>2026-04-11T09:09:19Z</time></trkpt><trkpt lat="43.263338685610684" lon="12.900859152555713"><ele>802.0</ele><time>2026-04-11T09:09:19.999Z</time></trkpt><trkpt lat="43.26323612397487" lon="12.900865713037309"><ele>802.0</ele><time>2026-04-11T09:09:20.999Z</time></trkpt><trkpt lat="43.263130809521" lon="12.900888220515657"><ele>802.0</ele><time>2026-04-11T09:09:21.999Z</time></trkpt><trkpt lat="43.26299920115534" lon="12.900920492468119"><ele>802.0</ele><time>2026-04-11T09:09:22.999Z</time></trkpt><trkpt lat="43.26290852550824" lon="12.900957818272458"><ele>802.6666666666666</ele><time>2026-04-11T09:09:23.999Z</time></trkpt><trkpt lat="43.26281477759679" lon="12.901004969403608"><ele>803.3333333333333</ele><time>2026-04-11T09:09:24.999Z</time></trkpt><trkpt lat="43.26271896742668" lon="12.901024740599082"><ele>804.0</ele><time>2026-04-11T09:09:25.999Z</time></trkpt><trkpt lat="43.26263769597143" lon="12.900974397410275"><ele>804.6666666666667</ele><time>2026-04-11T09:09:26.999Z</time></trkpt><trkpt lat="43.26258694396689" lon="12.900889996227557"><ele>805.3333333333334</ele><time>2026-04-11T09:09:27.999Z</time></trkpt><trkpt lat="43.26252493150637" lon="12.900853021471624"><ele>806.0</ele><time>2026-04-11T09:09:28.999Z</time></trkpt><trkpt lat="43.26243948024629" lon="12.900798763997495"><ele>807.5000000000001</ele><time>2026-04-11T09:09:29.999Z</time></trkpt><trkpt lat="43.26237920096084" lon="12.900725168996468"><ele>809.0</ele><time>2026-04-11T09:09:30.999Z</time></trkpt><trkpt lat="43.26227120083207" lon="12.900662350410142"><ele>810.5</ele><time>2026-04-11T09:09:32.999Z</time></trkpt><trkpt lat="43.26222900104047" lon="12.900571645832217"><ele>812.0</ele><time>2026-04-11T09:09:34.999Z</time></trkpt><trkpt lat="43.26219313931376" lon="12.900497704507192"><ele>813.5000000000001</ele><time>2026-04-11T09:09:35.999Z</time></trkpt><trkpt lat="43.26212648675824" lon="12.900416818466544"><ele>815.0</ele><time>2026-04-11T09:09:36.999Z</time></trkpt><trkpt lat="43.26205266458642" lon="12.900377215107959"><ele>815.0000000000001</ele><time>2026-04-11T09:09:37.999Z</time></trkpt><trkpt lat="43.26198023325419" lon="12.900344960784897"><ele>815.0</ele><time>2026-04-11T09:09:38.999Z</time></trkpt><trkpt lat="43.26192554986696" lon="12.90027268442151"><ele>815.0</ele><time>2026-04-11T09:09:39.999Z</time></trkpt><trkpt lat="43.261902130716756" lon="12.900149199272011"><ele>815.0</ele><time>2026-04-11T09:09:40.999Z</time></trkpt><trkpt lat="43.26187213241545" lon="12.900048528880673"><ele>815.0000000000001</ele><time>2026-04-11T09:09:41.999Z</time></trkpt><trkpt lat="43.26184976109374" lon="12.899944627161489"><ele>815.0</ele><time>2026-04-11T09:09:42.999Z</time></trkpt><trkpt lat="43.261852115117264" lon="12.89984952119298"><ele>816.6666666666667</ele><time>2026-04-11T09:09:43.999Z</time></trkpt><trkpt lat="43.26185596816212" lon="12.89975576947969"><ele>818.3333333333334</ele><time>2026-04-11T09:09:44.999Z</time></trkpt><trkpt lat="43.26191619756351" lon="12.899660568639431"><ele>820.0</ele><time>2026-04-11T09:09:46.999Z</time></trkpt><trkpt lat="43.2619690677446" lon="12.89955643843166"><ele>821.6666666666667</ele><time>2026-04-11T09:09:48.999Z</time></trkpt><trkpt lat="43.26201037130136" lon="12.899458678471992"><ele>823.3333333333334</ele><time>2026-04-11T09:09:50.999Z</time></trkpt><trkpt lat="43.26206230979194" lon="12.899339773520373"><ele>825.0</ele><time>2026-04-11T09:09:52.999Z</time></trkpt><trkpt lat="43.26208625492542" lon="12.899256150743062"><ele>825.2</ele><time>2026-04-11T09:09:54.999Z</time></trkpt><trkpt lat="43.26212586092756" lon="12.89918046032432"><ele>825.4</ele><time>2026-04-11T09:09:56.999Z</time></trkpt><trkpt lat="43.26219960840002" lon="12.899114173111052"><ele>825.5999999999999</ele><time>2026-04-11T09:09:59.999Z</time></trkpt><trkpt lat="43.26229509691711" lon="12.899033037008945"><ele>825.8</ele><time>2026-04-11T09:10:01.999Z</time></trkpt><trkpt lat="43.26235872211133" lon="12.898933272412227"><ele>826.0</ele><time>2026-04-11T09:10:02.999Z</time></trkpt><trkpt lat="43.262442149480584" lon="12.898820591993148"><ele>823.8</ele><time>2026-04-11T09:10:03.999Z</time></trkpt><trkpt lat="43.26252461187197" lon="12.898714582774927"><ele>821.5999999999999</ele><time>2026-04-11T09:10:04.999Z</time></trkpt><trkpt lat="43.26260021388719" lon="12.898630138962876"><ele>819.4</ele><time>2026-04-11T09:10:05.999Z</time></trkpt><trkpt lat="43.262681959561306" lon="12.898560947694586"><ele>817.2</ele><time>2026-04-11T09:10:06.999Z</time></trkpt><trkpt lat="43.26275031425439" lon="12.898477476521997"><ele>815.0</ele><time>2026-04-11T09:10:07.999Z</time></trkpt><trkpt lat="43.262813970910294" lon="12.89841487436659"><ele>814.25</ele><time>2026-04-11T09:10:08.999Z</time></trkpt><trkpt lat="43.26287959906379" lon="12.898376046646085"><ele>813.5</ele><time>2026-04-11T09:10:09.999Z</time></trkpt><trkpt lat="43.26295498866856" lon="12.898250215096494"><ele>812.75</ele><time>2026-04-11T09:10:11.999Z</time></trkpt><trkpt lat="43.263021594579605" lon="12.898116479275336"><ele>812.0</ele><time>2026-04-11T09:10:12.999Z</time></trkpt><trkpt lat="43.26312037159775" lon="12.897965426246122"><ele>810.8</ele><time>2026-04-11T09:10:13.999Z</time></trkpt><trkpt lat="43.26319655085065" lon="12.897829132267143"><ele>809.6</ele><time>2026-04-11T09:10:14.999Z</time></trkpt><trkpt lat="43.26324724020787" lon="12.89773016566857"><ele>808.4</ele><time>2026-04-11T09:10:15.999Z</time></trkpt><trkpt lat="43.263279612363114" lon="12.897626729557922"><ele>807.1999999999999</ele><time>2026-04-11T09:10:16.999Z</time></trkpt><trkpt lat="43.263300329969276" lon="12.897478957888735"><ele>806.0</ele><time>2026-04-11T09:10:17.999Z</time></trkpt><trkpt lat="43.26331465790366" lon="12.897365861946916"><ele>806.0</ele><time>2026-04-11T09:10:18.999Z</time></trkpt><trkpt lat="43.26334879486815" lon="12.897223558502866"><ele>806.0</ele><time>2026-04-11T09:10:19.999Z</time></trkpt><trkpt lat="43.26338963497895" lon="12.89712019380389"><ele>806.0</ele><time>2026-04-11T09:10:20.999Z</time></trkpt><trkpt lat="43.26343215961103" lon="12.896967853986089"><ele>806.0</ele><time>2026-04-11T09:10:22.999Z</time></trkpt><trkpt lat="43.26344505958452" lon="12.896864752572153"><ele>806.0</ele><time>2026-04-11T09:10:46.999Z</time></trkpt><trkpt lat="43.263455960939844" lon="12.896733300744486"><ele>806.1999999999999</ele><time>2026-04-11T09:10:48.999Z</time></trkpt><trkpt lat="43.26349965989527" lon="12.896582914461424"><ele>806.4</ele><time>2026-04-11T09:10:51Z</time></trkpt><trkpt lat="43.26358760397265" lon="12.896468724901359"><ele>806.6</ele><time>2026-04-11T09:10:53Z</time></trkpt><trkpt lat="43.26364032206682" lon="12.896418743012037"><ele>806.8</ele><time>2026-04-11T09:10:54Z</time></trkpt><trkpt lat="43.26370056423939" lon="12.896380951907538"><ele>807.0</ele><time>2026-04-11T09:10:55Z</time></trkpt><trkpt lat="43.26377933983562" lon="12.896350714778166"><ele>807.0</ele><time>2026-04-11T09:10:56Z</time></trkpt><trkpt lat="43.26384794686372" lon="12.896288589585673"><ele>807.0</ele><time>2026-04-11T09:10:57Z</time></trkpt><trkpt lat="43.263900719704345" lon="12.896204618037062"><ele>807.0</ele><time>2026-04-11T09:10:58Z</time></trkpt><trkpt lat="43.263939789380544" lon="12.896126842835502"><ele>807.0</ele><time>2026-04-11T09:10:59Z</time></trkpt><trkpt lat="43.26395740429778" lon="12.896041512612403"><ele>807.0</ele><time>2026-04-11T09:11:00Z</time></trkpt><trkpt lat="43.26399231315685" lon="12.895861763049847"><ele>807.0</ele><time>2026-04-11T09:11:02Z</time></trkpt><trkpt lat="43.26402058029316" lon="12.89578151584369"><ele>805.0</ele><time>2026-04-11T09:11:03Z</time></trkpt><trkpt lat="43.26404273896597" lon="12.895688806609511"><ele>803.0</ele><time>2026-04-11T09:11:04Z</time></trkpt><trkpt lat="43.26409793302543" lon="12.895630744006379"><ele>801.0</ele><time>2026-04-11T09:11:05Z</time></trkpt><trkpt lat="43.26419569158511" lon="12.895535633219307"><ele>799.0</ele><time>2026-04-11T09:11:07Z</time></trkpt><trkpt lat="43.26420073903085" lon="12.895381616658666"><ele>797.0</ele><time>2026-04-11T09:11:09Z</time></trkpt><trkpt lat="43.264235984191004" lon="12.895295929445524"><ele>795.0</ele><time>2026-04-11T09:11:11Z</time></trkpt><trkpt lat="43.26425256936334" lon="12.895170190438455"><ele>793.4</ele><time>2026-04-11T09:11:14Z</time></trkpt><trkpt lat="43.26428481584367" lon="12.895052166387957"><ele>791.8</ele><time>2026-04-11T09:11:15Z</time></trkpt><trkpt lat="43.264337292386394" lon="12.894911087554991"><ele>790.2</ele><time>2026-04-11T09:11:16Z</time></trkpt><trkpt lat="43.264383575729894" lon="12.894838732910143"><ele>788.6</ele><time>2026-04-11T09:11:17Z</time></trkpt><trkpt lat="43.264440612085785" lon="12.894627258964254"><ele>787.0</ele><time>2026-04-11T09:11:19Z</time></trkpt><trkpt lat="43.264450255981274" lon="12.894444873302104"><ele>786.9999999999999</ele><time>2026-04-11T09:11:20Z</time></trkpt><trkpt lat="43.264453868552636" lon="12.894315283723996"><ele>787.0</ele><time>2026-04-11T09:11:21Z</time></trkpt><trkpt lat="43.26447380039453" lon="12.894221444386954"><ele>787.0</ele><time>2026-04-11T09:11:22Z</time></trkpt><trkpt lat="43.26452346004313" lon="12.894149680120165"><ele>787.0</ele><time>2026-04-11T09:11:23Z</time></trkpt><trkpt lat="43.26459192684261" lon="12.894084048320893"><ele>786.9999999999999</ele><time>2026-04-11T09:11:24Z</time></trkpt><trkpt lat="43.26469997439371" lon="12.894011427032586"><ele>787.0</ele><time>2026-04-11T09:11:25Z</time></trkpt><trkpt lat="43.26477799449867" lon="12.893935428434155"><ele>787.1666666666666</ele><time>2026-04-11T09:11:26Z</time></trkpt><trkpt lat="43.26489301324297" lon="12.893891631292785"><ele>787.3333333333333</ele><time>2026-04-11T09:11:28Z</time></trkpt><trkpt lat="43.264977742024286" lon="12.893879297575397"><ele>787.5</ele><time>2026-04-11T09:11:29Z</time></trkpt><trkpt lat="43.26503313241667" lon="12.89381187498571"><ele>787.6666666666667</ele><time>2026-04-11T09:11:30Z</time></trkpt><trkpt lat="43.265069123188624" lon="12.893702034878228"><ele>787.8333333333334</ele><time>2026-04-11T09:11:31Z</time></trkpt><trkpt lat="43.265059935229914" lon="12.89359163913896"><ele>788.0</ele><time>2026-04-11T09:11:32Z</time></trkpt><trkpt lat="43.26500569973958" lon="12.893518596186675"><ele>787.5999999999999</ele><time>2026-04-11T09:11:34Z</time></trkpt><trkpt lat="43.26507537319003" lon="12.893402334834487"><ele>787.1999999999999</ele><time>2026-04-11T09:11:35.999Z</time></trkpt><trkpt lat="43.26511835076703" lon="12.89330427550992"><ele>786.8</ele><time>2026-04-11T09:11:36.999Z</time></trkpt><trkpt lat="43.26516845493235" lon="12.893218678668399"><ele>786.4</ele><time>2026-04-11T09:11:38.999Z</time></trkpt><trkpt lat="43.26527213653013" lon="12.893171488047392"><ele>786.0</ele><time>2026-04-11T09:11:40.999Z</time></trkpt><trkpt lat="43.26535990489707" lon="12.893107645444335"><ele>786.0</ele><time>2026-04-11T09:11:42.999Z</time></trkpt><trkpt lat="43.26543520258835" lon="12.893100341654467"><ele>786.0</ele><time>2026-04-11T09:11:43.999Z</time></trkpt><trkpt lat="43.265527940006" lon="12.893092762253117"><ele>786.0</ele><time>2026-04-11T09:11:44.999Z</time></trkpt><trkpt lat="43.26562597354661" lon="12.893058318541852"><ele>786.0</ele><time>2026-04-11T09:11:45.999Z</time></trkpt><trkpt lat="43.26572606533404" lon="12.892990934504052"><ele>786.0</ele><time>2026-04-11T09:11:46.999Z</time></trkpt><trkpt lat="43.265793417873006" lon="12.892932235452378"><ele>787.5</ele><time>2026-04-11T09:11:47.999Z</time></trkpt><trkpt lat="43.26588125518173" lon="12.892911984067398"><ele>789.0</ele><time>2026-04-11T09:11:48.999Z</time></trkpt><trkpt lat="43.26596567846778" lon="12.89293062031313"><ele>790.5</ele><time>2026-04-11T09:11:49.999Z</time></trkpt><trkpt lat="43.26599225801095" lon="12.892848844303872"><ele>792.0</ele><time>2026-04-11T09:11:51.999Z</time></trkpt><trkpt lat="43.26597348525925" lon="12.892727842091379"><ele>793.5</ele><time>2026-04-11T09:11:53.999Z</time></trkpt><trkpt lat="43.265970360444186" lon="12.892608181158202"><ele>795.0</ele><time>2026-04-11T09:12:06.999Z</time></trkpt><trkpt lat="43.265989659597544" lon="12.892522516233806"><ele>795.8</ele><time>2026-04-11T09:12:07.999Z</time></trkpt><trkpt lat="43.266005879079295" lon="12.892437322005389"><ele>796.6</ele><time>2026-04-11T09:12:08.999Z</time></trkpt><trkpt lat="43.265992360300885" lon="12.89225386162104"><ele>797.4000000000001</ele><time>2026-04-11T09:12:10.999Z</time></trkpt><trkpt lat="43.265950167781845" lon="12.892170734938658"><ele>798.2</ele><time>2026-04-11T09:12:11.999Z</time></trkpt><trkpt lat="43.26589144929759" lon="12.892084060134016"><ele>799.0</ele><time>2026-04-11T09:12:12.999Z</time></trkpt><trkpt lat="43.26582375341217" lon="12.891992243649122"><ele>799.0</ele><time>2026-04-11T09:12:13.999Z</time></trkpt><trkpt lat="43.26578060434257" lon="12.891894510143354"><ele>799.0</ele><time>2026-04-11T09:12:14.999Z</time></trkpt><trkpt lat="43.26575920984872" lon="12.891785063399613"><ele>799.0</ele><time>2026-04-11T09:12:15.999Z</time></trkpt><trkpt lat="43.26574461029297" lon="12.89161796280441"><ele>799.0</ele><time>2026-04-11T09:12:16.999Z</time></trkpt><trkpt lat="43.26575236309415" lon="12.891476418418108"><ele>799.0</ele><time>2026-04-11T09:12:17.999Z</time></trkpt><trkpt lat="43.265814113347425" lon="12.891423533347332"><ele>802.8333333333333</ele><time>2026-04-11T09:12:18.999Z</time></trkpt><trkpt lat="43.26589078881347" lon="12.89140360451902"><ele>806.6666666666666</ele><time>2026-04-11T09:12:19.999Z</time></trkpt><trkpt lat="43.265906136984164" lon="12.891311270461847"><ele>810.5</ele><time>2026-04-11T09:12:21.999Z</time></trkpt><trkpt lat="43.265847515282026" lon="12.891270230076973"><ele>814.3333333333333</ele><time>2026-04-11T09:12:22.999Z</time></trkpt><trkpt lat="43.2657641077573" lon="12.891302439759725"><ele>818.1666666666666</ele><time>2026-04-11T09:12:23.999Z</time></trkpt><trkpt lat="43.265671793473764" lon="12.891353688978999"><ele>822.0</ele><time>2026-04-11T09:12:24.999Z</time></trkpt><trkpt lat="43.26556452383267" lon="12.891310328573029"><ele>822.0</ele><time>2026-04-11T09:12:26.999Z</time></trkpt><trkpt lat="43.265501932001726" lon="12.891265500007199"><ele>822.0</ele><time>2026-04-11T09:12:27.999Z</time></trkpt><trkpt lat="43.26543286665994" lon="12.89123007380911"><ele>822.0</ele><time>2026-04-11T09:12:28.999Z</time></trkpt><trkpt lat="43.265349200914926" lon="12.891260899731785"><ele>822.0</ele><time>2026-04-11T09:12:30.999Z</time></trkpt><trkpt lat="43.265269370814806" lon="12.891139480243101"><ele>822.0</ele><time>2026-04-11T09:12:32.999Z</time></trkpt><trkpt lat="43.26523639904336" lon="12.891036012142981"><ele>822.0</ele><time>2026-04-11T09:12:33.999Z</time></trkpt><trkpt lat="43.26523221223936" lon="12.890924012378306"><ele>827.5</ele><time>2026-04-11T09:12:34.999Z</time></trkpt><trkpt lat="43.26526287217805" lon="12.890831323240551"><ele>833.0</ele><time>2026-04-11T09:12:35.999Z</time></trkpt><trkpt lat="43.2652536211179" lon="12.890736064839938"><ele>838.5</ele><time>2026-04-11T09:12:36.999Z</time></trkpt><trkpt lat="43.26524675801341" lon="12.89064322539782"><ele>844.0</ele><time>2026-04-11T09:12:38.999Z</time></trkpt><trkpt lat="43.265308317119505" lon="12.890517622456983"><ele>849.5</ele><time>2026-04-11T09:12:40.999Z</time></trkpt><trkpt lat="43.26533778504528" lon="12.890416150644969"><ele>855.0</ele><time>2026-04-11T09:12:41.999Z</time></trkpt><trkpt lat="43.265381339893324" lon="12.890294706245585"><ele>855.0</ele><time>2026-04-11T09:12:42.999Z</time></trkpt><trkpt lat="43.26541727658912" lon="12.890200025771541"><ele>855.0</ele><time>2026-04-11T09:12:43.999Z</time></trkpt><trkpt lat="43.26544875839686" lon="12.890074634874646"><ele>855.0</ele><time>2026-04-11T09:12:44.999Z</time></trkpt><trkpt lat="43.265498786210465" lon="12.889967299936897"><ele>855.0</ele><time>2026-04-11T09:12:45.999Z</time></trkpt><trkpt lat="43.26553099339495" lon="12.889863074327625"><ele>855.0</ele><time>2026-04-11T09:12:46.999Z</time></trkpt><trkpt lat="43.26557709643184" lon="12.889768650516546"><ele>855.0</ele><time>2026-04-11T09:12:47.999Z</time></trkpt><trkpt lat="43.26562054913108" lon="12.889692381709215"><ele>859.8</ele><time>2026-04-11T09:12:48.999Z</time></trkpt><trkpt lat="43.26566751078288" lon="12.889610734068166"><ele>864.6</ele><time>2026-04-11T09:12:49.999Z</time></trkpt><trkpt lat="43.26572099483225" lon="12.889478756195633"><ele>869.4000000000001</ele><time>2026-04-11T09:12:50.999Z</time></trkpt><trkpt lat="43.26576017302167" lon="12.889333736340864"><ele>874.2</ele><time>2026-04-11T09:12:51.999Z</time></trkpt><trkpt lat="43.26580321032067" lon="12.889241520699548"><ele>879.0</ele><time>2026-04-11T09:12:52.999Z</time></trkpt><trkpt lat="43.265864997991216" lon="12.889165377331205"><ele>882.5</ele><time>2026-04-11T09:12:53.999Z</time></trkpt><trkpt lat="43.265921125664015" lon="12.889097405522085"><ele>886.0</ele><time>2026-04-11T09:12:54.999Z</time></trkpt><trkpt lat="43.265990939908754" lon="12.889023001744956"><ele>889.5</ele><time>2026-04-11T09:12:56Z</time></trkpt><trkpt lat="43.26604447188816" lon="12.888940091161166"><ele>893.0</ele><time>2026-04-11T09:12:57Z</time></trkpt><trkpt lat="43.26609694697071" lon="12.888836920434802"><ele>896.5</ele><time>2026-04-11T09:12:58Z</time></trkpt><trkpt lat="43.26613085857714" lon="12.888713033341784"><ele>900.0</ele><time>2026-04-11T09:12:59Z</time></trkpt><trkpt lat="43.26614803655851" lon="12.888600429001224"><ele>900.0</ele><time>2026-04-11T09:13:00Z</time></trkpt><trkpt lat="43.26616691299602" lon="12.888493445491104"><ele>900.0</ele><time>2026-04-11T09:13:01Z</time></trkpt><trkpt lat="43.26618642760047" lon="12.88836572671619"><ele>900.0</ele><time>2026-04-11T09:13:02Z</time></trkpt><trkpt lat="43.26622503231643" lon="12.888211619693353"><ele>900.0</ele><time>2026-04-11T09:13:03Z</time></trkpt><trkpt lat="43.26624886996708" lon="12.888073397244666"><ele>900.0</ele><time>2026-04-11T09:13:04Z</time></trkpt><trkpt lat="43.26626823040615" lon="12.887970507496247"><ele>902.6</ele><time>2026-04-11T09:13:05Z</time></trkpt><trkpt lat="43.26627632959383" lon="12.8878019893703"><ele>905.2</ele><time>2026-04-11T09:13:07Z</time></trkpt><trkpt lat="43.266275598508884" lon="12.887673238223984"><ele>907.8</ele><time>2026-04-11T09:13:09Z</time></trkpt><trkpt lat="43.26624206651746" lon="12.887529480943106"><ele>910.4</ele><time>2026-04-11T09:13:11Z</time></trkpt><trkpt lat="43.26621974830075" lon="12.887443548899096"><ele>913.0</ele><time>2026-04-11T09:13:12Z</time></trkpt><trkpt lat="43.26621420326689" lon="12.887356367912968"><ele>914.5</ele><time>2026-04-11T09:13:13Z</time></trkpt><trkpt lat="43.26623079775507" lon="12.887214204279339"><ele>916.0</ele><time>2026-04-11T09:13:15Z</time></trkpt><trkpt lat="43.26627028591818" lon="12.887063134796133"><ele>917.5</ele><time>2026-04-11T09:13:17Z</time></trkpt><trkpt lat="43.26627619690743" lon="12.88689743490622"><ele>919.0</ele><time>2026-04-11T09:13:19Z</time></trkpt><trkpt lat="43.266255026837904" lon="12.886726075240691"><ele>919.4999999999999</ele><time>2026-04-11T09:13:21Z</time></trkpt><trkpt lat="43.26623209604317" lon="12.886612019625677"><ele>920.0</ele><time>2026-04-11T09:13:22Z</time></trkpt><trkpt lat="43.2662168764484" lon="12.886504934152832"><ele>920.5</ele><time>2026-04-11T09:13:23Z</time></trkpt><trkpt lat="43.2662008281842" lon="12.886415701990915"><ele>921.0</ele><time>2026-04-11T09:13:24Z</time></trkpt><trkpt lat="43.26618933569628" lon="12.886311898473778"><ele>921.4999999999999</ele><time>2026-04-11T09:13:25Z</time></trkpt><trkpt lat="43.266182736918395" lon="12.886199733776444"><ele>922.0</ele><time>2026-04-11T09:13:26Z</time></trkpt><trkpt lat="43.26618160275783" lon="12.8860900449011"><ele>921.9999999999999</ele><time>2026-04-11T09:13:27Z</time></trkpt><trkpt lat="43.2661829220468" lon="12.885972396910898"><ele>922.0</ele><time>2026-04-11T09:13:28Z</time></trkpt><trkpt lat="43.266186709101746" lon="12.88585486128049"><ele>922.0</ele><time>2026-04-11T09:13:29Z</time></trkpt><trkpt lat="43.266189199304115" lon="12.885736999177539"><ele>922.0</ele><time>2026-04-11T09:13:30Z</time></trkpt><trkpt lat="43.2662024264564" lon="12.88562080363671"><ele>921.9999999999999</ele><time>2026-04-11T09:13:31Z</time></trkpt><trkpt lat="43.266222588821094" lon="12.885508343088938"><ele>922.0</ele><time>2026-04-11T09:13:32Z</time></trkpt><trkpt lat="43.266272843839175" lon="12.885374509729212"><ele>922.8</ele><time>2026-04-11T09:13:33Z</time></trkpt><trkpt lat="43.26634679782294" lon="12.885310647541594"><ele>923.6</ele><time>2026-04-11T09:13:34Z</time></trkpt><trkpt lat="43.26643452408911" lon="12.885276722251385"><ele>924.3999999999999</ele><time>2026-04-11T09:13:35Z</time></trkpt><trkpt lat="43.26653035662835" lon="12.885251503842108"><ele>925.1999999999999</ele><time>2026-04-11T09:13:36Z</time></trkpt><trkpt lat="43.26662059883805" lon="12.885238173416491"><ele>926.0</ele><time>2026-04-11T09:13:37Z</time></trkpt><trkpt lat="43.26671670770344" lon="12.885225493464961"><ele>923.8</ele><time>2026-04-11T09:13:38Z</time></trkpt><trkpt lat="43.266805087702856" lon="12.88521373697098"><ele>921.5999999999999</ele><time>2026-04-11T09:13:39Z</time></trkpt><trkpt lat="43.26687981729843" lon="12.88519158954427"><ele>919.4</ele><time>2026-04-11T09:13:40Z</time></trkpt><trkpt lat="43.266981076873066" lon="12.885182105511172"><ele>917.2</ele><time>2026-04-11T09:13:41Z</time></trkpt><trkpt lat="43.267071358152634" lon="12.885173097076565"><ele>915.0</ele><time>2026-04-11T09:13:42Z</time></trkpt><trkpt lat="43.26718039918752" lon="12.885151621231381"><ele>913.0</ele><time>2026-04-11T09:13:43Z</time></trkpt><trkpt lat="43.2672835647384" lon="12.885106865620042"><ele>911.0</ele><time>2026-04-11T09:13:44Z</time></trkpt><trkpt lat="43.26740328772537" lon="12.885031344286704"><ele>909.0</ele><time>2026-04-11T09:13:45Z</time></trkpt><trkpt lat="43.26751052186673" lon="12.884999769114573"><ele>907.0</ele><time>2026-04-11T09:13:46Z</time></trkpt><trkpt lat="43.26759422047411" lon="12.88497529059898"><ele>905.0</ele><time>2026-04-11T09:13:47Z</time></trkpt><trkpt lat="43.26766918979578" lon="12.884952908954299"><ele>904.2</ele><time>2026-04-11T09:13:47.999Z</time></trkpt><trkpt lat="43.26775499597788" lon="12.884915450807407"><ele>903.4</ele><time>2026-04-11T09:13:48.999Z</time></trkpt><trkpt lat="43.26785795772129" lon="12.884864981034037"><ele>902.5999999999999</ele><time>2026-04-11T09:13:49.999Z</time></trkpt><trkpt lat="43.26795327746832" lon="12.884826852649361"><ele>901.8</ele><time>2026-04-11T09:13:50.999Z</time></trkpt><trkpt lat="43.26805331210948" lon="12.884774706149125"><ele>901.0</ele><time>2026-04-11T09:13:51.999Z</time></trkpt><trkpt lat="43.26815927149405" lon="12.884704907146995"><ele>897.75</ele><time>2026-04-11T09:13:52.999Z</time></trkpt><trkpt lat="43.26826234121705" lon="12.884641112669645"><ele>894.5</ele><time>2026-04-11T09:13:53.999Z</time></trkpt><trkpt lat="43.26837176327491" lon="12.88457187522394"><ele>891.25</ele><time>2026-04-11T09:13:54.999Z</time></trkpt><trkpt lat="43.26848346701373" lon="12.884513812612571"><ele>888.0</ele><time>2026-04-11T09:13:55.999Z</time></trkpt><trkpt lat="43.26859468521967" lon="12.884444306088753"><ele>888.0</ele><time>2026-04-11T09:13:56.999Z</time></trkpt><trkpt lat="43.26869294232991" lon="12.884370514528564"><ele>888.0</ele><time>2026-04-11T09:13:57.999Z</time></trkpt><trkpt lat="43.26877461763215" lon="12.884301492101752"><ele>888.0</ele><time>2026-04-11T09:13:58.999Z</time></trkpt><trkpt lat="43.26882751468896" lon="12.884247933181387"><ele>888.0</ele><time>2026-04-11T09:13:59.999Z</time></trkpt><trkpt lat="43.26889660913216" lon="12.884182709655967"><ele>888.0</ele><time>2026-04-11T09:14:00.999Z</time></trkpt><trkpt lat="43.268962915312294" lon="12.88415234489524"><ele>888.0</ele><time>2026-04-11T09:14:01.999Z</time></trkpt><trkpt lat="43.26907341982657" lon="12.88413966090443"><ele>884.75</ele><time>2026-04-11T09:14:03.999Z</time></trkpt><trkpt lat="43.26918130550498" lon="12.884126312525531"><ele>881.5</ele><time>2026-04-11T09:14:05.999Z</time></trkpt><trkpt lat="43.26925092179463" lon="12.88411130839186"><ele>878.25</ele><time>2026-04-11T09:14:06.999Z</time></trkpt><trkpt lat="43.269394647155366" lon="12.884023347834065"><ele>875.0</ele><time>2026-04-11T09:14:08.999Z</time></trkpt><trkpt lat="43.2695125577886" lon="12.88397934346859"><ele>875.0</ele><time>2026-04-11T09:14:10.999Z</time></trkpt><trkpt lat="43.26958433160266" lon="12.883946561370577"><ele>875.0</ele><time>2026-04-11T09:14:11.999Z</time></trkpt><trkpt lat="43.2696471815016" lon="12.883938629239909"><ele>875.0</ele><time>2026-04-11T09:14:12.999Z</time></trkpt><trkpt lat="43.26975747769936" lon="12.88396508185459"><ele>875.0</ele><time>2026-04-11T09:14:14.999Z</time></trkpt><trkpt lat="43.269888521285786" lon="12.88403305323348"><ele>875.0</ele><time>2026-04-11T09:14:16.999Z</time></trkpt><trkpt lat="43.2700128081379" lon="12.88409676172362"><ele>875.0</ele><time>2026-04-11T09:14:17.999Z</time></trkpt><trkpt lat="43.27014195524727" lon="12.88416459101882"><ele>875.0</ele><time>2026-04-11T09:14:18.999Z</time></trkpt><trkpt lat="43.27026865961844" lon="12.884233531898058"><ele>875.0</ele><time>2026-04-11T09:14:19.999Z</time></trkpt><trkpt lat="43.27037300216992" lon="12.884292902149106"><ele>875.0</ele><time>2026-04-11T09:14:20.999Z</time></trkpt><trkpt lat="43.27047231486898" lon="12.884352014003513"><ele>875.0</ele><time>2026-04-11T09:14:21.999Z</time></trkpt><trkpt lat="43.27057091663534" lon="12.884421151189583"><ele>875.0</ele><time>2026-04-11T09:14:22.999Z</time></trkpt><trkpt lat="43.270669191484345" lon="12.884499013812013"><ele>875.0</ele><time>2026-04-11T09:14:23.999Z</time></trkpt><trkpt lat="43.2707474190547" lon="12.884562195207215"><ele>875.0</ele><time>2026-04-11T09:14:24.999Z</time></trkpt><trkpt lat="43.27080884239621" lon="12.884609939607637"><ele>875.0</ele><time>2026-04-11T09:14:25.999Z</time></trkpt><trkpt lat="43.270921546245795" lon="12.884622531381183"><ele>875.0000000000001</ele><time>2026-04-11T09:14:27.999Z</time></trkpt><trkpt lat="43.27098234519493" lon="12.884593433191666"><ele>875.0</ele><time>2026-04-11T09:14:28.999Z</time></trkpt><trkpt lat="43.27103884997035" lon="12.884536646936345"><ele>875.0</ele><time>2026-04-11T09:14:29.999Z</time></trkpt><trkpt lat="43.27110400581194" lon="12.884433137223956"><ele>875.0</ele><time>2026-04-11T09:14:30.999Z</time></trkpt><trkpt lat="43.271137765019525" lon="12.884334067700735"><ele>875.0000000000001</ele><time>2026-04-11T09:14:31.999Z</time></trkpt><trkpt lat="43.2711615244438" lon="12.884223106138213"><ele>875.0</ele><time>2026-04-11T09:14:32.999Z</time></trkpt><trkpt lat="43.27118982659764" lon="12.88407272817721"><ele>878.75</ele><time>2026-04-11T09:14:33.999Z</time></trkpt><trkpt lat="43.27122962245082" lon="12.883943512776234"><ele>882.5</ele><time>2026-04-11T09:14:34.999Z</time></trkpt><trkpt lat="43.27130318930531" lon="12.883812664585886"><ele>886.25</ele><time>2026-04-11T09:14:35.999Z</time></trkpt><trkpt lat="43.271369909775224" lon="12.883659089496756"><ele>890.0</ele><time>2026-04-11T09:14:36.999Z</time></trkpt><trkpt lat="43.271418497654096" lon="12.883509822056578"><ele>895.0</ele><time>2026-04-11T09:14:37.999Z</time></trkpt><trkpt lat="43.271447472979794" lon="12.883386339721275"><ele>900.0</ele><time>2026-04-11T09:14:38.999Z</time></trkpt><trkpt lat="43.27149004676417" lon="12.883258173406608"><ele>905.0</ele><time>2026-04-11T09:14:39.999Z</time></trkpt><trkpt lat="43.27153986044693" lon="12.88311160980691"><ele>910.0</ele><time>2026-04-11T09:14:40.999Z</time></trkpt><trkpt lat="43.27156929397016" lon="12.882960835790714"><ele>915.0</ele><time>2026-04-11T09:14:41.999Z</time></trkpt><trkpt lat="43.271592870227536" lon="12.882793543096321"><ele>915.0</ele><time>2026-04-11T09:14:42.999Z</time></trkpt><trkpt lat="43.27160801364158" lon="12.882652563211474"><ele>915.0</ele><time>2026-04-11T09:14:43.999Z</time></trkpt><trkpt lat="43.271621902059366" lon="12.882546588456268"><ele>915.0</ele><time>2026-04-11T09:14:44.999Z</time></trkpt><trkpt lat="43.27165581579392" lon="12.88244530353388"><ele>915.0</ele><time>2026-04-11T09:14:45.999Z</time></trkpt><trkpt lat="43.27170930540214" lon="12.882335961052416"><ele>915.0</ele><time>2026-04-11T09:14:46.999Z</time></trkpt><trkpt lat="43.27175769601678" lon="12.882211770824632"><ele>918.6</ele><time>2026-04-11T09:14:47.999Z</time></trkpt><trkpt lat="43.27179241373124" lon="12.882076068014113"><ele>922.2</ele><time>2026-04-11T09:14:48.999Z</time></trkpt><trkpt lat="43.271810022281315" lon="12.881950105758289"><ele>925.8</ele><time>2026-04-11T09:14:49.999Z</time></trkpt><trkpt lat="43.27183968621384" lon="12.881773995095262"><ele>929.4</ele><time>2026-04-11T09:14:51.999Z</time></trkpt><trkpt lat="43.271874531878666" lon="12.881683071896514"><ele>933.0</ele><time>2026-04-11T09:14:52.999Z</time></trkpt><trkpt lat="43.27190859816877" lon="12.881568905765024"><ele>936.3333333333334</ele><time>2026-04-11T09:14:53.999Z</time></trkpt><trkpt lat="43.27194167168716" lon="12.88145269053967"><ele>939.6666666666667</ele><time>2026-04-11T09:14:54.999Z</time></trkpt><trkpt lat="43.2719772939531" lon="12.881338139644708"><ele>943.0</ele><time>2026-04-11T09:14:55.999Z</time></trkpt><trkpt lat="43.27201587692016" lon="12.881206376629242"><ele>946.3333333333334</ele><time>2026-04-11T09:14:56.999Z</time></trkpt><trkpt lat="43.27204710839586" lon="12.881115697366106"><ele>949.6666666666667</ele><time>2026-04-11T09:14:57.999Z</time></trkpt><trkpt lat="43.272073241735036" lon="12.881007751329884"><ele>953.0</ele><time>2026-04-11T09:14:58.999Z</time></trkpt><trkpt lat="43.272100895075596" lon="12.880918579732738"><ele>957.4</ele><time>2026-04-11T09:14:59.999Z</time></trkpt><trkpt lat="43.272179043907464" lon="12.880831036377648"><ele>961.8</ele><time>2026-04-11T09:15:02Z</time></trkpt><trkpt lat="43.272271763894835" lon="12.880774208975925"><ele>966.2</ele><time>2026-04-11T09:15:04Z</time></trkpt><trkpt lat="43.272371097725106" lon="12.880698558074634"><ele>970.6</ele><time>2026-04-11T09:15:07Z</time></trkpt><trkpt lat="43.27243384288195" lon="12.88065927127172"><ele>975.0</ele><time>2026-04-11T09:15:09Z</time></trkpt><trkpt lat="43.27251470408108" lon="12.880569668235177"><ele>975.0</ele><time>2026-04-11T09:15:35Z</time></trkpt><trkpt lat="43.272573116033115" lon="12.880509759891305"><ele>975.0</ele><time>2026-04-11T09:15:36Z</time></trkpt><trkpt lat="43.27264559311629" lon="12.880424586616979"><ele>975.0</ele><time>2026-04-11T09:15:37Z</time></trkpt><trkpt lat="43.27272163489034" lon="12.880298006807726"><ele>975.0</ele><time>2026-04-11T09:15:38Z</time></trkpt><trkpt lat="43.272815925831" lon="12.880170637547993"><ele>975.0</ele><time>2026-04-11T09:15:39Z</time></trkpt><trkpt lat="43.272884003559795" lon="12.88005490280898"><ele>978.4</ele><time>2026-04-11T09:15:40Z</time></trkpt><trkpt lat="43.272959846509636" lon="12.87998458771408"><ele>981.8</ele><time>2026-04-11T09:15:41Z</time></trkpt><trkpt lat="43.27306284310744" lon="12.879903372113176"><ele>985.2</ele><time>2026-04-11T09:15:42Z</time></trkpt><trkpt lat="43.27316667801565" lon="12.879835418258203"><ele>988.6</ele><time>2026-04-11T09:15:43Z</time></trkpt><trkpt lat="43.27324725987556" lon="12.879745790315152"><ele>992.0</ele><time>2026-04-11T09:15:44Z</time></trkpt><trkpt lat="43.27332225763299" lon="12.879669727565073"><ele>992.0</ele><time>2026-04-11T09:15:45Z</time></trkpt><trkpt lat="43.27338856229058" lon="12.879591251909392"><ele>992.0</ele><time>2026-04-11T09:15:46Z</time></trkpt><trkpt lat="43.273472962666986" lon="12.87952300201437"><ele>992.0</ele><time>2026-04-11T09:15:47Z</time></trkpt><trkpt lat="43.27353879947912" lon="12.879448603179364"><ele>992.0</ele><time>2026-04-11T09:15:48Z</time></trkpt><trkpt lat="43.27361743905061" lon="12.879353497091511"><ele>992.0</ele><time>2026-04-11T09:15:49Z</time></trkpt><trkpt lat="43.27367437146037" lon="12.879231606788192"><ele>994.6666666666667</ele><time>2026-04-11T09:15:50Z</time></trkpt><trkpt lat="43.27374480668167" lon="12.879121031536293"><ele>997.3333333333334</ele><time>2026-04-11T09:15:51Z</time></trkpt><trkpt lat="43.27380203534721" lon="12.879060752226337"><ele>1000.0</ele><time>2026-04-11T09:15:52Z</time></trkpt><trkpt lat="43.27386541381806" lon="12.879032909213999"><ele>1002.6666666666667</ele><time>2026-04-11T09:15:53Z</time></trkpt><trkpt lat="43.273956746811166" lon="12.879019434576813"><ele>1005.3333333333334</ele><time>2026-04-11T09:15:56Z</time></trkpt><trkpt lat="43.27402074345967" lon="12.878954711834353"><ele>1008.0</ele><time>2026-04-11T09:15:58.999Z</time></trkpt><trkpt lat="43.2740817735404" lon="12.878922617452176"><ele>1008.0</ele><time>2026-04-11T09:16:06.999Z</time></trkpt><trkpt lat="43.27417620269168" lon="12.878838162562394"><ele>1008.0</ele><time>2026-04-11T09:16:11.999Z</time></trkpt><trkpt lat="43.274232426140195" lon="12.878754144180037"><ele>1008.0</ele><time>2026-04-11T09:16:13.999Z</time></trkpt><trkpt lat="43.27429776556714" lon="12.878678344213817"><ele>1008.0</ele><time>2026-04-11T09:16:16.999Z</time></trkpt><trkpt lat="43.27436120420605" lon="12.878624877460586"><ele>1008.0</ele><time>2026-04-11T09:16:27.999Z</time></trkpt><trkpt lat="43.274312610977304" lon="12.878718196013532"><ele>1008.0</ele><time>2026-04-11T09:16:54.999Z</time></trkpt><trkpt lat="43.27424886404446" lon="12.87879112444373"><ele>1008.0</ele><time>2026-04-11T09:16:57.999Z</time></trkpt><trkpt lat="43.27418864903609" lon="12.878841176680885"><ele>1008.0</ele><time>2026-04-11T09:17:00.999Z</time></trkpt><trkpt lat="43.274121913132966" lon="12.87892456243564"><ele>1008.0</ele><time>2026-04-11T09:17:06.999Z</time></trkpt><trkpt lat="43.27405006310283" lon="12.87899818456834"><ele>1008.0</ele><time>2026-04-11T09:17:10Z</time></trkpt><trkpt lat="43.273980907034385" lon="12.879030967820283"><ele>1008.0</ele><time>2026-04-11T09:17:11Z</time></trkpt><trkpt lat="43.27391460730512" lon="12.879046742964467"><ele>1008.0</ele><time>2026-04-11T09:17:12Z</time></trkpt><trkpt lat="43.27382861959088" lon="12.879135602393472"><ele>1012.3333333333333</ele><time>2026-04-11T09:17:14Z</time></trkpt><trkpt lat="43.273784151872505" lon="12.879211858806137"><ele>1016.6666666666666</ele><time>2026-04-11T09:17:15Z</time></trkpt><trkpt lat="43.273635319151474" lon="12.879440503610837"><ele>1021.0</ele><time>2026-04-11T09:17:17Z</time></trkpt><trkpt lat="43.273503658236436" lon="12.879574607708102"><ele>1015.5</ele><time>2026-04-11T09:17:18Z</time></trkpt><trkpt lat="43.2733821878421" lon="12.879679894198473"><ele>1010.0</ele><time>2026-04-11T09:17:19Z</time></trkpt><trkpt lat="43.273253085817515" lon="12.879795244602178"><ele>1004.5</ele><time>2026-04-11T09:17:20Z</time></trkpt><trkpt lat="43.27314489202838" lon="12.879890722146945"><ele>999.0</ele><time>2026-04-11T09:17:21Z</time></trkpt><trkpt lat="43.273044055749914" lon="12.879984687765187"><ele>999.0</ele><time>2026-04-11T09:17:22Z</time></trkpt><trkpt lat="43.272943781253176" lon="12.880055973766874"><ele>999.0</ele><time>2026-04-11T09:17:23Z</time></trkpt><trkpt lat="43.27285944817546" lon="12.880122789227634"><ele>999.0</ele><time>2026-04-11T09:17:24Z</time></trkpt><trkpt lat="43.27279333544263" lon="12.880190679437616"><ele>999.0</ele><time>2026-04-11T09:17:25Z</time></trkpt><trkpt lat="43.27275365261053" lon="12.880274965578996"><ele>999.0</ele><time>2026-04-11T09:17:26Z</time></trkpt><trkpt lat="43.272704786529545" lon="12.880363481329681"><ele>999.0</ele><time>2026-04-11T09:17:27Z</time></trkpt><trkpt lat="43.272655659571775" lon="12.880441964799964"><ele>995.1666666666666</ele><time>2026-04-11T09:17:28Z</time></trkpt><trkpt lat="43.27256809163062" lon="12.880551818736233"><ele>991.3333333333333</ele><time>2026-04-11T09:17:30Z</time></trkpt><trkpt lat="43.272514453657955" lon="12.880601225238133"><ele>987.5</ele><time>2026-04-11T09:17:31Z</time></trkpt><trkpt lat="43.27246375263333" lon="12.880654726812482"><ele>983.6666666666666</ele><time>2026-04-11T09:17:32Z</time></trkpt><trkpt lat="43.272390360139006" lon="12.880703395623431"><ele>979.8333333333333</ele><time>2026-04-11T09:17:34Z</time></trkpt><trkpt lat="43.272303220625034" lon="12.880764504858188"><ele>976.0</ele><time>2026-04-11T09:17:36Z</time></trkpt><trkpt lat="43.272232012367716" lon="12.880816913650373"><ele>976.0</ele><time>2026-04-11T09:17:38Z</time></trkpt><trkpt lat="43.27215204470014" lon="12.880877481347628"><ele>975.9999999999999</ele><time>2026-04-11T09:17:40Z</time></trkpt><trkpt lat="43.27207756484913" lon="12.880925814480518"><ele>975.9999999999999</ele><time>2026-04-11T09:17:42Z</time></trkpt><trkpt lat="43.27200723056575" lon="12.880990019217963"><ele>976.0</ele><time>2026-04-11T09:17:44Z</time></trkpt><trkpt lat="43.27191664997723" lon="12.881045525196827"><ele>976.0</ele><time>2026-04-11T09:17:46Z</time></trkpt><trkpt lat="43.27181773045249" lon="12.881107205217736"><ele>972.1666666666666</ele><time>2026-04-11T09:17:48Z</time></trkpt><trkpt lat="43.2717534273541" lon="12.88111913654196"><ele>968.3333333333333</ele><time>2026-04-11T09:17:49Z</time></trkpt><trkpt lat="43.27168624556701" lon="12.881144704029348"><ele>964.5</ele><time>2026-04-11T09:17:50Z</time></trkpt><trkpt lat="43.2715922644813" lon="12.881187940763352"><ele>960.6666666666667</ele><time>2026-04-11T09:17:51Z</time></trkpt><trkpt lat="43.2715041351848" lon="12.881211404946024"><ele>956.8333333333334</ele><time>2026-04-11T09:17:52Z</time></trkpt><trkpt lat="43.27140399183262" lon="12.881247865595137"><ele>953.0</ele><time>2026-04-11T09:17:53Z</time></trkpt><trkpt lat="43.27130001958512" lon="12.881286499357168"><ele>952.2</ele><time>2026-04-11T09:17:54Z</time></trkpt><trkpt lat="43.271186133145164" lon="12.881321846011721"><ele>951.4</ele><time>2026-04-11T09:17:55Z</time></trkpt><trkpt lat="43.2710781044884" lon="12.881350686278385"><ele>950.6000000000001</ele><time>2026-04-11T09:17:56Z</time></trkpt><trkpt lat="43.27096741475787" lon="12.881375282412845"><ele>949.8000000000001</ele><time>2026-04-11T09:17:57Z</time></trkpt><trkpt lat="43.270864360138866" lon="12.881400351035495"><ele>949.0</ele><time>2026-04-11T09:17:58Z</time></trkpt><trkpt lat="43.27075484918366" lon="12.881423381033201"><ele>949.0</ele><time>2026-04-11T09:17:59Z</time></trkpt><trkpt lat="43.27062435011924" lon="12.881435542207964"><ele>949.0</ele><time>2026-04-11T09:18:00Z</time></trkpt><trkpt lat="43.27049840900277" lon="12.881446487505972"><ele>949.0</ele><time>2026-04-11T09:18:01Z</time></trkpt><trkpt lat="43.27036978690334" lon="12.881461678705099"><ele>949.0</ele><time>2026-04-11T09:18:01.999Z</time></trkpt><trkpt lat="43.27024991348261" lon="12.881490227986058"><ele>946.75</ele><time>2026-04-11T09:18:02.999Z</time></trkpt><trkpt lat="43.270124931517756" lon="12.881503649719908"><ele>944.5</ele><time>2026-04-11T09:18:03.999Z</time></trkpt><trkpt lat="43.270001662846475" lon="12.881512726952979"><ele>942.25</ele><time>2026-04-11T09:18:04.999Z</time></trkpt><trkpt lat="43.26988076477547" lon="12.88152444069345"><ele>940.0</ele><time>2026-04-11T09:18:05.999Z</time></trkpt><trkpt lat="43.26976206751059" lon="12.881535038306746"><ele>936.25</ele><time>2026-04-11T09:18:06.999Z</time></trkpt><trkpt lat="43.269663435885455" lon="12.88154858737943"><ele>932.5</ele><time>2026-04-11T09:18:07.999Z</time></trkpt><trkpt lat="43.26954739712393" lon="12.881539209384423"><ele>928.75</ele><time>2026-04-11T09:18:08.999Z</time></trkpt><trkpt lat="43.26942737892242" lon="12.88148921992753"><ele>925.0</ele><time>2026-04-11T09:18:09.999Z</time></trkpt><trkpt lat="43.26930065390729" lon="12.881411670079343"><ele>925.0</ele><time>2026-04-11T09:18:10.999Z</time></trkpt><trkpt lat="43.269164540115135" lon="12.881354130541315"><ele>925.0</ele><time>2026-04-11T09:18:11.999Z</time></trkpt><trkpt lat="43.26905963798558" lon="12.88132282866061"><ele>925.0</ele><time>2026-04-11T09:18:12.999Z</time></trkpt><trkpt lat="43.268952537203624" lon="12.881271760372671"><ele>925.0</ele><time>2026-04-11T09:18:13.999Z</time></trkpt><trkpt lat="43.26883769986184" lon="12.8812273287053"><ele>920.25</ele><time>2026-04-11T09:18:14.999Z</time></trkpt><trkpt lat="43.268720931454396" lon="12.881207294771114"><ele>915.5</ele><time>2026-04-11T09:18:15.999Z</time></trkpt><trkpt lat="43.268607989801744" lon="12.881207787282538"><ele>910.75</ele><time>2026-04-11T09:18:16.999Z</time></trkpt><trkpt lat="43.268494391020816" lon="12.881215321360818"><ele>906.0</ele><time>2026-04-11T09:18:17.999Z</time></trkpt><trkpt lat="43.26835956307444" lon="12.8811574776395"><ele>906.0</ele><time>2026-04-11T09:18:18.999Z</time></trkpt><trkpt lat="43.26823495655136" lon="12.881160595996652"><ele>906.0</ele><time>2026-04-11T09:18:19.999Z</time></trkpt><trkpt lat="43.26810822610268" lon="12.8811736826487"><ele>906.0</ele><time>2026-04-11T09:18:20.999Z</time></trkpt><trkpt lat="43.26798361449263" lon="12.88117307909186"><ele>906.0</ele><time>2026-04-11T09:18:21.999Z</time></trkpt><trkpt lat="43.267869213627336" lon="12.881146817142277"><ele>900.8</ele><time>2026-04-11T09:18:22.999Z</time></trkpt><trkpt lat="43.26776258286509" lon="12.881100131641837"><ele>895.5999999999999</ele><time>2026-04-11T09:18:23.999Z</time></trkpt><trkpt lat="43.26767214632224" lon="12.881069433683004"><ele>890.4</ele><time>2026-04-11T09:18:24.999Z</time></trkpt><trkpt lat="43.267585582026236" lon="12.881067910937494"><ele>885.2</ele><time>2026-04-11T09:18:25.999Z</time></trkpt><trkpt lat="43.26749269867315" lon="12.88108501292272"><ele>880.0</ele><time>2026-04-11T09:18:26.999Z</time></trkpt><trkpt lat="43.26739307570335" lon="12.881100682015948"><ele>880.0</ele><time>2026-04-11T09:18:27.999Z</time></trkpt><trkpt lat="43.267300202206314" lon="12.881072529440637"><ele>880.0</ele><time>2026-04-11T09:18:28.999Z</time></trkpt><trkpt lat="43.26721137946813" lon="12.881034352225747"><ele>880.0</ele><time>2026-04-11T09:18:29.999Z</time></trkpt><trkpt lat="43.26713788663126" lon="12.880981105907239"><ele>880.0</ele><time>2026-04-11T09:18:30.999Z</time></trkpt><trkpt lat="43.26706002141017" lon="12.880915808487716"><ele>880.0</ele><time>2026-04-11T09:18:31.999Z</time></trkpt><trkpt lat="43.26696963997265" lon="12.88086787298488"><ele>880.1666666666666</ele><time>2026-04-11T09:18:32.999Z</time></trkpt><trkpt lat="43.26688665894309" lon="12.880805379273442"><ele>880.3333333333333</ele><time>2026-04-11T09:18:33.999Z</time></trkpt><trkpt lat="43.26681764037098" lon="12.880736038666745"><ele>880.5</ele><time>2026-04-11T09:18:34.999Z</time></trkpt><trkpt lat="43.266747775132735" lon="12.880676198446288"><ele>880.6666666666667</ele><time>2026-04-11T09:18:35.999Z</time></trkpt><trkpt lat="43.266676634764856" lon="12.8806159507534"><ele>880.8333333333334</ele><time>2026-04-11T09:18:36.999Z</time></trkpt><trkpt lat="43.26659167285967" lon="12.880541093367864"><ele>881.0</ele><time>2026-04-11T09:18:38.999Z</time></trkpt><trkpt lat="43.266505288350196" lon="12.880477742738343"><ele>880.4</ele><time>2026-04-11T09:18:40.999Z</time></trkpt><trkpt lat="43.266408026575746" lon="12.88039228303135"><ele>879.8</ele><time>2026-04-11T09:18:42.999Z</time></trkpt><trkpt lat="43.26630477442274" lon="12.880290704890193"><ele>879.1999999999999</ele><time>2026-04-11T09:18:44.999Z</time></trkpt><trkpt lat="43.26624684174772" lon="12.880248025434003"><ele>878.5999999999999</ele><time>2026-04-11T09:18:45.999Z</time></trkpt><trkpt lat="43.266134160268145" lon="12.880142466733254"><ele>878.0</ele><time>2026-04-11T09:18:47.999Z</time></trkpt><trkpt lat="43.26606759450365" lon="12.880071862608284"><ele>878.0</ele><time>2026-04-11T09:18:48.999Z</time></trkpt><trkpt lat="43.26599803049807" lon="12.879998203727785"><ele>878.0</ele><time>2026-04-11T09:18:49.999Z</time></trkpt><trkpt lat="43.26593818772355" lon="12.87992610419448"><ele>878.0</ele><time>2026-04-11T09:18:50.999Z</time></trkpt><trkpt lat="43.265874427598085" lon="12.879839706243585"><ele>878.0</ele><time>2026-04-11T09:18:51.999Z</time></trkpt><trkpt lat="43.265811896451936" lon="12.879719678506921"><ele>878.0</ele><time>2026-04-11T09:18:52.999Z</time></trkpt><trkpt lat="43.26574932998942" lon="12.879608273613544"><ele>878.0</ele><time>2026-04-11T09:18:53.999Z</time></trkpt><trkpt lat="43.26567171913104" lon="12.879501772193647"><ele>878.0</ele><time>2026-04-11T09:18:54.999Z</time></trkpt><trkpt lat="43.26558400286948" lon="12.879437443842939"><ele>878.0</ele><time>2026-04-11T09:18:55.999Z</time></trkpt><trkpt lat="43.26549316200736" lon="12.879380614604205"><ele>878.0</ele><time>2026-04-11T09:18:56.999Z</time></trkpt><trkpt lat="43.26540595125846" lon="12.879297799167242"><ele>878.0</ele><time>2026-04-11T09:18:57.999Z</time></trkpt><trkpt lat="43.26532102668409" lon="12.879205734691038"><ele>877.4</ele><time>2026-04-11T09:18:58.999Z</time></trkpt><trkpt lat="43.265248359207696" lon="12.879125262361175"><ele>876.8</ele><time>2026-04-11T09:18:59.999Z</time></trkpt><trkpt lat="43.265153914323655" lon="12.879048407301868"><ele>876.2</ele><time>2026-04-11T09:19:00.999Z</time></trkpt><trkpt lat="43.265051052860684" lon="12.879023728281163"><ele>875.6</ele><time>2026-04-11T09:19:01.999Z</time></trkpt><trkpt lat="43.26493322970604" lon="12.879010393514394"><ele>875.0</ele><time>2026-04-11T09:19:02.999Z</time></trkpt><trkpt lat="43.264840566670024" lon="12.878988387913958"><ele>873.0</ele><time>2026-04-11T09:19:03.999Z</time></trkpt><trkpt lat="43.26475419975256" lon="12.878950792355713"><ele>871.0</ele><time>2026-04-11T09:19:04.999Z</time></trkpt><trkpt lat="43.26465533872431" lon="12.878904312806783"><ele>869.0</ele><time>2026-04-11T09:19:05.999Z</time></trkpt><trkpt lat="43.26456263913235" lon="12.87885719752488"><ele>867.0</ele><time>2026-04-11T09:19:06.999Z</time></trkpt><trkpt lat="43.26446973068105" lon="12.878811312865789"><ele>865.0</ele><time>2026-04-11T09:19:07.999Z</time></trkpt><trkpt lat="43.264361058952964" lon="12.8787661520802"><ele>865.0</ele><time>2026-04-11T09:19:08.999Z</time></trkpt><trkpt lat="43.26427087437077" lon="12.87874224426813"><ele>865.0</ele><time>2026-04-11T09:19:09.999Z</time></trkpt><trkpt lat="43.26417005479934" lon="12.878737604113326"><ele>865.0</ele><time>2026-04-11T09:19:10.999Z</time></trkpt><trkpt lat="43.26406167518317" lon="12.878751464838697"><ele>865.0</ele><time>2026-04-11T09:19:11.999Z</time></trkpt><trkpt lat="43.263963884683825" lon="12.878766776605318"><ele>865.0</ele><time>2026-04-11T09:19:12.999Z</time></trkpt><trkpt lat="43.2638603730312" lon="12.878787600890464"><ele>862.6</ele><time>2026-04-11T09:19:14Z</time></trkpt><trkpt lat="43.26375696664215" lon="12.878819232045757"><ele>860.2</ele><time>2026-04-11T09:19:15Z</time></trkpt><trkpt lat="43.263641758286575" lon="12.87883920873946"><ele>857.8</ele><time>2026-04-11T09:19:16Z</time></trkpt><trkpt lat="43.26353272935183" lon="12.878846740914932"><ele>855.4</ele><time>2026-04-11T09:19:17Z</time></trkpt><trkpt lat="43.26341899703942" lon="12.878828616147409"><ele>853.0</ele><time>2026-04-11T09:19:18Z</time></trkpt><trkpt lat="43.263330550461895" lon="12.878777342704854"><ele>853.0</ele><time>2026-04-11T09:19:19Z</time></trkpt><trkpt lat="43.26324275974441" lon="12.878702649691249"><ele>853.0</ele><time>2026-04-11T09:19:20Z</time></trkpt><trkpt lat="43.26317596147695" lon="12.87860098797275"><ele>853.0</ele><time>2026-04-11T09:19:21Z</time></trkpt><trkpt lat="43.263104171910236" lon="12.8784849001626"><ele>853.0</ele><time>2026-04-11T09:19:22Z</time></trkpt><trkpt lat="43.26302327715174" lon="12.87835857897845"><ele>853.0</ele><time>2026-04-11T09:19:23Z</time></trkpt><trkpt lat="43.26296012243865" lon="12.878236345393198"><ele>853.6666666666666</ele><time>2026-04-11T09:19:24Z</time></trkpt><trkpt lat="43.26291000229056" lon="12.878130003196311"><ele>854.3333333333333</ele><time>2026-04-11T09:19:25Z</time></trkpt><trkpt lat="43.26288333401163" lon="12.87803389249783"><ele>855.0</ele><time>2026-04-11T09:19:26Z</time></trkpt><trkpt lat="43.262860698101704" lon="12.877917434657054"><ele>855.6666666666667</ele><time>2026-04-11T09:19:27Z</time></trkpt><trkpt lat="43.262839046205904" lon="12.87779998319348"><ele>856.3333333333334</ele><time>2026-04-11T09:19:28Z</time></trkpt><trkpt lat="43.262819782427805" lon="12.877675538934476"><ele>857.0</ele><time>2026-04-11T09:19:29Z</time></trkpt><trkpt lat="43.262800395072496" lon="12.877537842908511"><ele>857.5000000000001</ele><time>2026-04-11T09:19:30Z</time></trkpt><trkpt lat="43.262806586489006" lon="12.877413854420025"><ele>858.0</ele><time>2026-04-11T09:19:31Z</time></trkpt><trkpt lat="43.262822530062884" lon="12.877282956411971"><ele>858.5</ele><time>2026-04-11T09:19:32Z</time></trkpt><trkpt lat="43.262840481468416" lon="12.87715909913485"><ele>859.0</ele><time>2026-04-11T09:19:33Z</time></trkpt><trkpt lat="43.26285098639046" lon="12.877060757358883"><ele>859.5000000000001</ele><time>2026-04-11T09:19:34Z</time></trkpt><trkpt lat="43.26285078225407" lon="12.876965716981015"><ele>860.0</ele><time>2026-04-11T09:19:35Z</time></trkpt><trkpt lat="43.26284711568204" lon="12.876874654716836"><ele>860.0000000000001</ele><time>2026-04-11T09:19:36Z</time></trkpt><trkpt lat="43.26284043039946" lon="12.87677866214407"><ele>860.0</ele><time>2026-04-11T09:19:37Z</time></trkpt><trkpt lat="43.262847571181275" lon="12.87665612288797"><ele>860.0</ele><time>2026-04-11T09:19:39Z</time></trkpt><trkpt lat="43.26289820741568" lon="12.876574708917977"><ele>860.0</ele><time>2026-04-11T09:19:41Z</time></trkpt><trkpt lat="43.262976023948994" lon="12.876425911923292"><ele>860.0000000000001</ele><time>2026-04-11T09:19:43Z</time></trkpt><trkpt lat="43.26301506604782" lon="12.876342726974482"><ele>860.0</ele><time>2026-04-11T09:19:44Z</time></trkpt><trkpt lat="43.263049981097154" lon="12.87624851882345"><ele>861.1666666666667</ele><time>2026-04-11T09:19:45Z</time></trkpt><trkpt lat="43.263079748788755" lon="12.876146669940416"><ele>862.3333333333334</ele><time>2026-04-11T09:19:46Z</time></trkpt><trkpt lat="43.26309683735026" lon="12.876048592876268"><ele>863.5</ele><time>2026-04-11T09:19:47Z</time></trkpt><trkpt lat="43.26313142475618" lon="12.87596818621276"><ele>864.6666666666667</ele><time>2026-04-11T09:19:48Z</time></trkpt><trkpt lat="43.26317875124524" lon="12.875897587547772"><ele>865.8333333333334</ele><time>2026-04-11T09:19:49Z</time></trkpt><trkpt lat="43.2632443708439" lon="12.87580828570809"><ele>867.0</ele><time>2026-04-11T09:19:50Z</time></trkpt><trkpt lat="43.26332841313409" lon="12.875710963861508"><ele>867.25</ele><time>2026-04-11T09:19:51Z</time></trkpt><trkpt lat="43.263406252111274" lon="12.8756016308661"><ele>867.5</ele><time>2026-04-11T09:19:52Z</time></trkpt><trkpt lat="43.26346860118594" lon="12.875482258416737"><ele>867.75</ele><time>2026-04-11T09:19:53Z</time></trkpt><trkpt lat="43.26354662939321" lon="12.875335660166375"><ele>868.0</ele><time>2026-04-11T09:19:54Z</time></trkpt><trkpt lat="43.26362010268426" lon="12.875196473725433"><ele>868.0</ele><time>2026-04-11T09:19:55Z</time></trkpt><trkpt lat="43.263689222780776" lon="12.875110672073061"><ele>868.0</ele><time>2026-04-11T09:19:56Z</time></trkpt><trkpt lat="43.26378646430048" lon="12.875107837406558"><ele>868.0</ele><time>2026-04-11T09:19:58Z</time></trkpt><trkpt lat="43.263889850331935" lon="12.874991900040337"><ele>868.0</ele><time>2026-04-11T09:20:00Z</time></trkpt><trkpt lat="43.26392478553684" lon="12.874887547031326"><ele>868.0</ele><time>2026-04-11T09:20:01Z</time></trkpt><trkpt lat="43.264001705624985" lon="12.87472627251349"><ele>868.8333333333333</ele><time>2026-04-11T09:20:03Z</time></trkpt><trkpt lat="43.26404696441511" lon="12.874644010714436"><ele>869.6666666666666</ele><time>2026-04-11T09:20:04Z</time></trkpt><trkpt lat="43.26409592433875" lon="12.874554564241443"><ele>870.5</ele><time>2026-04-11T09:20:05Z</time></trkpt><trkpt lat="43.26415863490144" lon="12.874444657400682"><ele>871.3333333333333</ele><time>2026-04-11T09:20:06Z</time></trkpt><trkpt lat="43.26421329725796" lon="12.874352708459675"><ele>872.1666666666666</ele><time>2026-04-11T09:20:07Z</time></trkpt><trkpt lat="43.26426110165639" lon="12.874255868947326"><ele>873.0</ele><time>2026-04-11T09:20:08Z</time></trkpt><trkpt lat="43.264308707331736" lon="12.87416742924438"><ele>873.0</ele><time>2026-04-11T09:20:09Z</time></trkpt><trkpt lat="43.26436312046331" lon="12.874072169151678"><ele>873.0</ele><time>2026-04-11T09:20:10Z</time></trkpt><trkpt lat="43.2644119132335" lon="12.873973749950563"><ele>873.0</ele><time>2026-04-11T09:20:11Z</time></trkpt><trkpt lat="43.26446039303816" lon="12.87389209507101"><ele>873.0</ele><time>2026-04-11T09:20:11.999Z</time></trkpt><trkpt lat="43.26452048735902" lon="12.873789955953296"><ele>873.0</ele><time>2026-04-11T09:20:12.999Z</time></trkpt><trkpt lat="43.264580084089" lon="12.873677183221501"><ele>873.0</ele><time>2026-04-11T09:20:13.999Z</time></trkpt><trkpt lat="43.264650312126044" lon="12.8735469919556"><ele>875.25</ele><time>2026-04-11T09:20:14.999Z</time></trkpt><trkpt lat="43.26472567298978" lon="12.873404252809964"><ele>877.5</ele><time>2026-04-11T09:20:15.999Z</time></trkpt><trkpt lat="43.26479285631335" lon="12.8732820456573"><ele>879.75</ele><time>2026-04-11T09:20:16.999Z</time></trkpt><trkpt lat="43.26486538899621" lon="12.87315357008478"><ele>882.0</ele><time>2026-04-11T09:20:17.999Z</time></trkpt><trkpt lat="43.26492587633967" lon="12.873040985360754"><ele>882.75</ele><time>2026-04-11T09:20:18.999Z</time></trkpt><trkpt lat="43.26498878842461" lon="12.87291248950341"><ele>883.5</ele><time>2026-04-11T09:20:19.999Z</time></trkpt><trkpt lat="43.26505552036715" lon="12.872792599356547"><ele>884.25</ele><time>2026-04-11T09:20:20.999Z</time></trkpt><trkpt lat="43.265125300963334" lon="12.87266227444158"><ele>885.0</ele><time>2026-04-11T09:20:21.999Z</time></trkpt><trkpt lat="43.26519974411239" lon="12.872528906656555"><ele>885.75</ele><time>2026-04-11T09:20:22.999Z</time></trkpt><trkpt lat="43.265268032745844" lon="12.872398700063494"><ele>886.5</ele><time>2026-04-11T09:20:23.999Z</time></trkpt><trkpt lat="43.26534199266167" lon="12.87226837524783"><ele>887.25</ele><time>2026-04-11T09:20:24.999Z</time></trkpt><trkpt lat="43.265412572019706" lon="12.872135544707874"><ele>888.0</ele><time>2026-04-11T09:20:25.999Z</time></trkpt><trkpt lat="43.26548837276518" lon="12.872000669955815"><ele>888.0</ele><time>2026-04-11T09:20:26.999Z</time></trkpt><trkpt lat="43.26556557828144" lon="12.871864409018821"><ele>888.0</ele><time>2026-04-11T09:20:27.999Z</time></trkpt><trkpt lat="43.26563897456297" lon="12.871729453071554"><ele>888.0</ele><time>2026-04-11T09:20:28.999Z</time></trkpt><trkpt lat="43.2657156411303" lon="12.871601166799387"><ele>888.0</ele><time>2026-04-11T09:20:29.999Z</time></trkpt><trkpt lat="43.26579524430579" lon="12.871482314604274"><ele>890.4</ele><time>2026-04-11T09:20:30.999Z</time></trkpt><trkpt lat="43.265879214456724" lon="12.871364027576272"><ele>892.8</ele><time>2026-04-11T09:20:31.999Z</time></trkpt><trkpt lat="43.26595990081934" lon="12.871254448508596"><ele>895.2</ele><time>2026-04-11T09:20:32.999Z</time></trkpt><trkpt lat="43.266033261227086" lon="12.871155245695581"><ele>897.6</ele><time>2026-04-11T09:20:33.999Z</time></trkpt><trkpt lat="43.26608496009775" lon="12.871062189749841"><ele>900.0</ele><time>2026-04-11T09:20:34.999Z</time></trkpt><trkpt lat="43.26610254673053" lon="12.870962829895266"><ele>900.6</ele><time>2026-04-11T09:20:35.999Z</time></trkpt><trkpt lat="43.266093815245775" lon="12.870806333896473"><ele>901.2</ele><time>2026-04-11T09:20:36.999Z</time></trkpt><trkpt lat="43.26610857742246" lon="12.870669326096843"><ele>901.8</ele><time>2026-04-11T09:20:37.999Z</time></trkpt><trkpt lat="43.26612455186753" lon="12.870560207168106"><ele>902.4</ele><time>2026-04-11T09:20:38.999Z</time></trkpt><trkpt lat="43.26611794445768" lon="12.870451099685157"><ele>903.0</ele><time>2026-04-11T09:20:39.999Z</time></trkpt><trkpt lat="43.266103411493496" lon="12.870340581484966"><ele>903.0</ele><time>2026-04-11T09:20:40.999Z</time></trkpt><trkpt lat="43.266090575835314" lon="12.870237819704567"><ele>903.0</ele><time>2026-04-11T09:20:41.999Z</time></trkpt><trkpt lat="43.26608375041554" lon="12.87010359053002"><ele>903.0</ele><time>2026-04-11T09:20:42.999Z</time></trkpt><trkpt lat="43.26610459332857" lon="12.869975703344554"><ele>903.0</ele><time>2026-04-11T09:20:43.999Z</time></trkpt><trkpt lat="43.26612923410983" lon="12.86980220616131"><ele>903.0</ele><time>2026-04-11T09:20:44.999Z</time></trkpt><trkpt lat="43.26615317909956" lon="12.86966448303597"><ele>904.8</ele><time>2026-04-11T09:20:45.999Z</time></trkpt><trkpt lat="43.26617828003281" lon="12.869547315323329"><ele>906.5999999999999</ele><time>2026-04-11T09:20:46.999Z</time></trkpt><trkpt lat="43.26619233685638" lon="12.86943926016805"><ele>908.4000000000001</ele><time>2026-04-11T09:20:47.999Z</time></trkpt><trkpt lat="43.266199438007185" lon="12.869303432066754"><ele>910.2</ele><time>2026-04-11T09:20:48.999Z</time></trkpt><trkpt lat="43.26620541792651" lon="12.869166845009874"><ele>912.0</ele><time>2026-04-11T09:20:49.999Z</time></trkpt><trkpt lat="43.26622002502414" lon="12.869015288390422"><ele>912.6</ele><time>2026-04-11T09:20:50.999Z</time></trkpt><trkpt lat="43.26621998600112" lon="12.868864173390497"><ele>913.2</ele><time>2026-04-11T09:20:51.999Z</time></trkpt><trkpt lat="43.26619438002478" lon="12.868718553100967"><ele>913.8</ele><time>2026-04-11T09:20:52.999Z</time></trkpt><trkpt lat="43.26614747863007" lon="12.86857565407848"><ele>914.4</ele><time>2026-04-11T09:20:53.999Z</time></trkpt><trkpt lat="43.26608051214434" lon="12.868459365044203"><ele>915.0</ele><time>2026-04-11T09:20:54.999Z</time></trkpt><trkpt lat="43.26599666455049" lon="12.86836337995906"><ele>915.0</ele><time>2026-04-11T09:20:55.999Z</time></trkpt><trkpt lat="43.265888205000124" lon="12.868282838766394"><ele>915.0</ele><time>2026-04-11T09:20:56.999Z</time></trkpt><trkpt lat="43.26577021975965" lon="12.868221952282928"><ele>915.0</ele><time>2026-04-11T09:20:57.999Z</time></trkpt><trkpt lat="43.26563593914891" lon="12.868173622453957"><ele>915.0</ele><time>2026-04-11T09:20:58.999Z</time></trkpt><trkpt lat="43.265505309192164" lon="12.868125035971705"><ele>917.25</ele><time>2026-04-11T09:20:59.999Z</time></trkpt><trkpt lat="43.26536919388135" lon="12.868068092997529"><ele>919.5</ele><time>2026-04-11T09:21:00.999Z</time></trkpt><trkpt lat="43.26522864748298" lon="12.868016891468706"><ele>921.75</ele><time>2026-04-11T09:21:01.999Z</time></trkpt><trkpt lat="43.26508210955748" lon="12.867977741220095"><ele>924.0</ele><time>2026-04-11T09:21:02.999Z</time></trkpt><trkpt lat="43.26491135404528" lon="12.867947898377738"><ele>929.3333333333333</ele><time>2026-04-11T09:21:03.999Z</time></trkpt><trkpt lat="43.26473606036765" lon="12.867912953994276"><ele>934.6666666666666</ele><time>2026-04-11T09:21:04.999Z</time></trkpt><trkpt lat="43.26458598721382" lon="12.867877205871059"><ele>940.0</ele><time>2026-04-11T09:21:05.999Z</time></trkpt><trkpt lat="43.26440580776865" lon="12.867833640628723"><ele>940.0</ele><time>2026-04-11T09:21:06.999Z</time></trkpt><trkpt lat="43.26423164068982" lon="12.867779909676237"><ele>940.0</ele><time>2026-04-11T09:21:07.999Z</time></trkpt><trkpt lat="43.26405797467287" lon="12.867733503978938"><ele>940.0</ele><time>2026-04-11T09:21:08.999Z</time></trkpt><trkpt lat="43.26387459064305" lon="12.867678833007615"><ele>944.6666666666666</ele><time>2026-04-11T09:21:09.999Z</time></trkpt><trkpt lat="43.26373071587665" lon="12.867616159303473"><ele>949.3333333333333</ele><time>2026-04-11T09:21:10.999Z</time></trkpt><trkpt lat="43.263585297166244" lon="12.867566366777247"><ele>954.0</ele><time>2026-04-11T09:21:11.999Z</time></trkpt><trkpt lat="43.26343877826077" lon="12.867516361821849"><ele>950.25</ele><time>2026-04-11T09:21:12.999Z</time></trkpt><trkpt lat="43.26330450687886" lon="12.867453195081259"><ele>946.5</ele><time>2026-04-11T09:21:13.999Z</time></trkpt><trkpt lat="43.263177102612275" lon="12.867394824640849"><ele>942.75</ele><time>2026-04-11T09:21:14.999Z</time></trkpt><trkpt lat="43.26304127094762" lon="12.867342838397853"><ele>939.0</ele><time>2026-04-11T09:21:15.999Z</time></trkpt><trkpt lat="43.262913618574835" lon="12.867313487392726"><ele>939.0</ele><time>2026-04-11T09:21:16.999Z</time></trkpt><trkpt lat="43.2627849208106" lon="12.86729632462457"><ele>939.0</ele><time>2026-04-11T09:21:17.999Z</time></trkpt><trkpt lat="43.26264188173832" lon="12.86726405153093"><ele>939.0</ele><time>2026-04-11T09:21:18.999Z</time></trkpt><trkpt lat="43.26251853519154" lon="12.867219556321704"><ele>939.0</ele><time>2026-04-11T09:21:20Z</time></trkpt><trkpt lat="43.262431603990464" lon="12.867119592972593"><ele>939.0</ele><time>2026-04-11T09:21:21Z</time></trkpt><trkpt lat="43.26237152737243" lon="12.866993669940495"><ele>939.0000000000001</ele><time>2026-04-11T09:21:22Z</time></trkpt><trkpt lat="43.262322008746935" lon="12.866875051183003"><ele>939.0000000000001</ele><time>2026-04-11T09:21:23Z</time></trkpt><trkpt lat="43.26221993179657" lon="12.866795321825819"><ele>939.0</ele><time>2026-04-11T09:21:24Z</time></trkpt><trkpt lat="43.262126541404385" lon="12.86674663665156"><ele>939.0</ele><time>2026-04-11T09:21:25Z</time></trkpt><trkpt lat="43.262054167141685" lon="12.86670228903306"><ele>939.2</ele><time>2026-04-11T09:21:26Z</time></trkpt><trkpt lat="43.26198065237275" lon="12.866630073651775"><ele>939.4000000000001</ele><time>2026-04-11T09:21:28Z</time></trkpt><trkpt lat="43.261941074932615" lon="12.866533097499"><ele>939.6</ele><time>2026-04-11T09:21:32Z</time></trkpt><trkpt lat="43.26189300763209" lon="12.866409124499828"><ele>939.8</ele><time>2026-04-11T09:21:35Z</time></trkpt><trkpt lat="43.26184512812244" lon="12.866295817426309"><ele>940.0</ele><time>2026-04-11T09:21:37Z</time></trkpt><trkpt lat="43.26176848759667" lon="12.86618545228425"><ele>939.9999999999999</ele><time>2026-04-11T09:21:39Z</time></trkpt><trkpt lat="43.26170288401984" lon="12.866133208462646"><ele>940.0</ele><time>2026-04-11T09:21:41Z</time></trkpt><trkpt lat="43.261634174751805" lon="12.866083580460291"><ele>940.0</ele><time>2026-04-11T09:21:43Z</time></trkpt><trkpt lat="43.26158228987352" lon="12.865965410545309"><ele>940.0</ele><time>2026-04-11T09:22:31.999Z</time></trkpt><trkpt lat="43.26165357376957" lon="12.866025778233247"><ele>939.9999999999999</ele><time>2026-04-11T09:22:34.999Z</time></trkpt><trkpt lat="43.26170939124587" lon="12.866107264168743"><ele>940.0</ele><time>2026-04-11T09:22:37.999Z</time></trkpt><trkpt lat="43.26175629990501" lon="12.86618545977836"><ele>939.9999999999999</ele><time>2026-04-11T09:22:40.999Z</time></trkpt><trkpt lat="43.26180556095015" lon="12.866276644180113"><ele>940.0</ele><time>2026-04-11T09:22:43.999Z</time></trkpt><trkpt lat="43.26184653060587" lon="12.866373275950401"><ele>940.0</ele><time>2026-04-11T09:22:47.999Z</time></trkpt><trkpt lat="43.2618870388422" lon="12.866446188599301"><ele>940.0</ele><time>2026-04-11T09:22:51.999Z</time></trkpt><trkpt lat="43.2619380197916" lon="12.866502871760206"><ele>939.9999999999999</ele><time>2026-04-11T09:23:28Z</time></trkpt><trkpt lat="43.26203962566711" lon="12.866603064702925"><ele>940.0</ele><time>2026-04-11T09:23:30Z</time></trkpt><trkpt lat="43.26209851346678" lon="12.866643951426346"><ele>940.0</ele><time>2026-04-11T09:23:31Z</time></trkpt><trkpt lat="43.26216028388354" lon="12.866691128091466"><ele>940.0</ele><time>2026-04-11T09:23:32Z</time></trkpt><trkpt lat="43.26225535476079" lon="12.866749382036282"><ele>940.0</ele><time>2026-04-11T09:23:33Z</time></trkpt><trkpt lat="43.26233968375177" lon="12.866823887094407"><ele>940.0</ele><time>2026-04-11T09:23:34Z</time></trkpt><trkpt lat="43.26241183980734" lon="12.866935889366905"><ele>940.0</ele><time>2026-04-11T09:23:35Z</time></trkpt><trkpt lat="43.2624757318254" lon="12.86704218755477"><ele>939.75</ele><time>2026-04-11T09:23:36Z</time></trkpt><trkpt lat="43.26256463264703" lon="12.86714552969821"><ele>939.5</ele><time>2026-04-11T09:23:37Z</time></trkpt><trkpt lat="43.262681927152826" lon="12.867213354778658"><ele>939.25</ele><time>2026-04-11T09:23:38Z</time></trkpt><trkpt lat="43.26281756918758" lon="12.86724179989622"><ele>939.0</ele><time>2026-04-11T09:23:39Z</time></trkpt><trkpt lat="43.262954958255655" lon="12.86724986907703"><ele>939.0</ele><time>2026-04-11T09:23:40Z</time></trkpt><trkpt lat="43.263074624371995" lon="12.867285396685306"><ele>939.0</ele><time>2026-04-11T09:23:41Z</time></trkpt><trkpt lat="43.263187564615485" lon="12.86732093445962"><ele>939.0</ele><time>2026-04-11T09:23:42Z</time></trkpt><trkpt lat="43.263316617656415" lon="12.867385617312912"><ele>939.0</ele><time>2026-04-11T09:23:43Z</time></trkpt><trkpt lat="43.26342878889445" lon="12.867444835245376"><ele>942.75</ele><time>2026-04-11T09:23:44Z</time></trkpt><trkpt lat="43.263552545302694" lon="12.867507847304964"><ele>946.5</ele><time>2026-04-11T09:23:45Z</time></trkpt><trkpt lat="43.26366014277202" lon="12.8675519612855"><ele>950.25</ele><time>2026-04-11T09:23:46Z</time></trkpt><trkpt lat="43.26378630615638" lon="12.867596477050325"><ele>954.0</ele><time>2026-04-11T09:23:47Z</time></trkpt><trkpt lat="43.26392125075514" lon="12.86764997445514"><ele>949.3333333333333</ele><time>2026-04-11T09:23:48Z</time></trkpt><trkpt lat="43.26406308686323" lon="12.86770513689813"><ele>944.6666666666666</ele><time>2026-04-11T09:23:49Z</time></trkpt><trkpt lat="43.26421519210431" lon="12.867748661479043"><ele>940.0</ele><time>2026-04-11T09:23:50Z</time></trkpt><trkpt lat="43.26440906669754" lon="12.867809661037976"><ele>940.0</ele><time>2026-04-11T09:23:51Z</time></trkpt><trkpt lat="43.26458978548232" lon="12.867865066835499"><ele>940.0</ele><time>2026-04-11T09:23:52Z</time></trkpt><trkpt lat="43.26478568711202" lon="12.867913432315929"><ele>940.0</ele><time>2026-04-11T09:23:53Z</time></trkpt><trkpt lat="43.26496541913806" lon="12.867947738305487"><ele>934.6666666666666</ele><time>2026-04-11T09:23:54Z</time></trkpt><trkpt lat="43.26511973809886" lon="12.86798905048691"><ele>929.3333333333333</ele><time>2026-04-11T09:23:55Z</time></trkpt><trkpt lat="43.26527406761629" lon="12.868020148541294"><ele>924.0</ele><time>2026-04-11T09:23:56Z</time></trkpt><trkpt lat="43.26541383596188" lon="12.86806368598597"><ele>924.0</ele><time>2026-04-11T09:23:57Z</time></trkpt><trkpt lat="43.265550306883675" lon="12.868127101139674"><ele>924.0</ele><time>2026-04-11T09:23:58Z</time></trkpt><trkpt lat="43.26568566100933" lon="12.868190958475145"><ele>924.0</ele><time>2026-04-11T09:23:59Z</time></trkpt><trkpt lat="43.265816511709886" lon="12.868252935814258"><ele>924.0</ele><time>2026-04-11T09:24:00Z</time></trkpt><trkpt lat="43.26593811357444" lon="12.86832114845537"><ele>922.4000000000001</ele><time>2026-04-11T09:24:01Z</time></trkpt><trkpt lat="43.266039167234496" lon="12.86840587872913"><ele>920.8000000000001</ele><time>2026-04-11T09:24:02Z</time></trkpt><trkpt lat="43.266116976016974" lon="12.868498920675613"><ele>919.1999999999999</ele><time>2026-04-11T09:24:03Z</time></trkpt><trkpt lat="43.2661736706552" lon="12.86860957964556"><ele>917.5999999999999</ele><time>2026-04-11T09:24:04Z</time></trkpt><trkpt lat="43.26621568596448" lon="12.868765353718155"><ele>916.0</ele><time>2026-04-11T09:24:05Z</time></trkpt><trkpt lat="43.26623340651611" lon="12.868928850862936"><ele>916.0</ele><time>2026-04-11T09:24:06Z</time></trkpt><trkpt lat="43.26623494443917" lon="12.869102416306761"><ele>916.0</ele><time>2026-04-11T09:24:07Z</time></trkpt><trkpt lat="43.266207001604734" lon="12.869310555030824"><ele>916.0</ele><time>2026-04-11T09:24:08Z</time></trkpt><trkpt lat="43.26617660122222" lon="12.869512350233906"><ele>916.0</ele><time>2026-04-11T09:24:09Z</time></trkpt><trkpt lat="43.26616120265042" lon="12.869687479484568"><ele>915.0</ele><time>2026-04-11T09:24:10Z</time></trkpt><trkpt lat="43.266145315311796" lon="12.86984200409777"><ele>914.0</ele><time>2026-04-11T09:24:11Z</time></trkpt><trkpt lat="43.266117244045965" lon="12.870006982838913"><ele>913.0</ele><time>2026-04-11T09:24:12Z</time></trkpt><trkpt lat="43.266112377315935" lon="12.870179410611389"><ele>912.0</ele><time>2026-04-11T09:24:13Z</time></trkpt><trkpt lat="43.26612307398927" lon="12.870383427233369"><ele>910.5</ele><time>2026-04-11T09:24:14Z</time></trkpt><trkpt lat="43.266141329044636" lon="12.87052643110833"><ele>909.0</ele><time>2026-04-11T09:24:15Z</time></trkpt><trkpt lat="43.266157345339785" lon="12.870668301489065"><ele>907.5</ele><time>2026-04-11T09:24:17Z</time></trkpt><trkpt lat="43.26618516396497" lon="12.870746222017985"><ele>906.0</ele><time>2026-04-11T09:24:20Z</time></trkpt><trkpt lat="43.26623626562118" lon="12.870829936916063"><ele>904.5</ele><time>2026-04-11T09:24:23Z</time></trkpt><trkpt lat="43.266314697355895" lon="12.870871493241555"><ele>903.0</ele><time>2026-04-11T09:24:26Z</time></trkpt><trkpt lat="43.26638136618747" lon="12.87085591110004"><ele>902.8</ele><time>2026-04-11T09:24:27Z</time></trkpt><trkpt lat="43.26644925983696" lon="12.870856937602467"><ele>902.5999999999999</ele><time>2026-04-11T09:24:28Z</time></trkpt><trkpt lat="43.26656501668326" lon="12.870846077096965"><ele>902.4000000000001</ele><time>2026-04-11T09:24:30Z</time></trkpt><trkpt lat="43.26663786152691" lon="12.870785781887482"><ele>902.2</ele><time>2026-04-11T09:24:32Z</time></trkpt><trkpt lat="43.26672361321839" lon="12.870687333659406"><ele>902.0</ele><time>2026-04-11T09:24:34Z</time></trkpt><trkpt lat="43.26678314624624" lon="12.870614950607138"><ele>902.0</ele><time>2026-04-11T09:24:35Z</time></trkpt><trkpt lat="43.26685163712775" lon="12.870540918177701"><ele>902.0</ele><time>2026-04-11T09:24:36Z</time></trkpt><trkpt lat="43.26693872133228" lon="12.870492026469666"><ele>902.0</ele><time>2026-04-11T09:24:37Z</time></trkpt><trkpt lat="43.26702333653525" lon="12.870433807125353"><ele>902.0</ele><time>2026-04-11T09:24:38Z</time></trkpt><trkpt lat="43.26710150570255" lon="12.870356885582517"><ele>902.0</ele><time>2026-04-11T09:24:39Z</time></trkpt><trkpt lat="43.26715906602927" lon="12.870241787771986"><ele>902.0000000000001</ele><time>2026-04-11T09:24:40Z</time></trkpt><trkpt lat="43.267203020673115" lon="12.870131814184852"><ele>902.0</ele><time>2026-04-11T09:24:41Z</time></trkpt><trkpt lat="43.26726276445445" lon="12.870045989612976"><ele>902.0</ele><time>2026-04-11T09:24:41.999Z</time></trkpt><trkpt lat="43.26732500497784" lon="12.869988522079765"><ele>902.0</ele><time>2026-04-11T09:24:42.999Z</time></trkpt><trkpt lat="43.26739805118517" lon="12.869935711909752"><ele>902.0000000000001</ele><time>2026-04-11T09:24:43.999Z</time></trkpt><trkpt lat="43.26746263401191" lon="12.869884358707546"><ele>902.0</ele><time>2026-04-11T09:24:44.999Z</time></trkpt><trkpt lat="43.267539358964626" lon="12.869811689129255"><ele>901.2</ele><time>2026-04-11T09:24:45.999Z</time></trkpt><trkpt lat="43.26761515200538" lon="12.869721660614383"><ele>900.4000000000001</ele><time>2026-04-11T09:24:46.999Z</time></trkpt><trkpt lat="43.26767757071783" lon="12.869622957713046"><ele>899.5999999999999</ele><time>2026-04-11T09:24:47.999Z</time></trkpt><trkpt lat="43.26774561012698" lon="12.869519207161092"><ele>898.8</ele><time>2026-04-11T09:24:48.999Z</time></trkpt><trkpt lat="43.26781658014721" lon="12.869441474935888"><ele>898.0</ele><time>2026-04-11T09:24:49.999Z</time></trkpt><trkpt lat="43.26787162594363" lon="12.869382187630904"><ele>898.0</ele><time>2026-04-11T09:24:50.999Z</time></trkpt><trkpt lat="43.26791612954941" lon="12.869315313133978"><ele>898.0</ele><time>2026-04-11T09:24:52.999Z</time></trkpt><trkpt lat="43.26800334525042" lon="12.869233539165926"><ele>898.0</ele><time>2026-04-11T09:24:55.999Z</time></trkpt><trkpt lat="43.26806111220836" lon="12.869166118063406"><ele>898.0</ele><time>2026-04-11T09:24:57.999Z</time></trkpt><trkpt lat="43.268145340492666" lon="12.869049244683405"><ele>898.0</ele><time>2026-04-11T09:24:59.999Z</time></trkpt><trkpt lat="43.26824062708537" lon="12.868980079642366"><ele>900.0</ele><time>2026-04-11T09:25:01.999Z</time></trkpt><trkpt lat="43.26832163543221" lon="12.86889721475207"><ele>902.0</ele><time>2026-04-11T09:25:03.999Z</time></trkpt><trkpt lat="43.26838046174194" lon="12.86883005843695"><ele>904.0</ele><time>2026-04-11T09:25:05.999Z</time></trkpt><trkpt lat="43.2684316794532" lon="12.868774407574897"><ele>906.0</ele><time>2026-04-11T09:25:06.999Z</time></trkpt><trkpt lat="43.26850183646769" lon="12.868663250381802"><ele>908.0</ele><time>2026-04-11T09:25:08.999Z</time></trkpt><trkpt lat="43.2685699488601" lon="12.868561835403849"><ele>908.0</ele><time>2026-04-11T09:25:10.999Z</time></trkpt><trkpt lat="43.2686256790117" lon="12.868472864050538"><ele>908.0000000000001</ele><time>2026-04-11T09:25:11.999Z</time></trkpt><trkpt lat="43.26868143394909" lon="12.868386997053642"><ele>908.0</ele><time>2026-04-11T09:25:12.999Z</time></trkpt><trkpt lat="43.26872552531917" lon="12.868312428087483"><ele>908.0</ele><time>2026-04-11T09:25:13.999Z</time></trkpt><trkpt lat="43.26876200659978" lon="12.868235196266857"><ele>908.0000000000001</ele><time>2026-04-11T09:25:14.999Z</time></trkpt><trkpt lat="43.26879764314495" lon="12.86816099405417"><ele>908.0</ele><time>2026-04-11T09:25:15.999Z</time></trkpt><trkpt lat="43.26883387759518" lon="12.868082538922453"><ele>908.0</ele><time>2026-04-11T09:25:16.999Z</time></trkpt><trkpt lat="43.268904843502895" lon="12.86796573585681"><ele>906.3333333333334</ele><time>2026-04-11T09:25:18.999Z</time></trkpt><trkpt lat="43.2689419369014" lon="12.867890520414258"><ele>904.6666666666667</ele><time>2026-04-11T09:25:19.999Z</time></trkpt><trkpt lat="43.26899772938439" lon="12.86775227053803"><ele>903.0</ele><time>2026-04-11T09:25:21.999Z</time></trkpt><trkpt lat="43.26906679882283" lon="12.867652680911414"><ele>901.3333333333333</ele><time>2026-04-11T09:25:23.999Z</time></trkpt><trkpt lat="43.26914393621251" lon="12.867572773150277"><ele>899.6666666666666</ele><time>2026-04-11T09:25:25.999Z</time></trkpt><trkpt lat="43.26919054910791" lon="12.867510002058195"><ele>898.0</ele><time>2026-04-11T09:25:28.999Z</time></trkpt><trkpt lat="43.26927236875505" lon="12.867463688115523"><ele>897.9999999999999</ele><time>2026-04-11T09:25:30.999Z</time></trkpt><trkpt lat="43.26933938077393" lon="12.867399739320716"><ele>898.0</ele><time>2026-04-11T09:25:33Z</time></trkpt><trkpt lat="43.26940393458675" lon="12.867348434246205"><ele>898.0</ele><time>2026-04-11T09:25:35Z</time></trkpt><trkpt lat="43.26947499943033" lon="12.867283963082551"><ele>898.0</ele><time>2026-04-11T09:25:37Z</time></trkpt><trkpt lat="43.2695363353759" lon="12.867212695570577"><ele>897.9999999999999</ele><time>2026-04-11T09:25:39Z</time></trkpt><trkpt lat="43.26961959501008" lon="12.86710542136147"><ele>898.0</ele><time>2026-04-11T09:25:41Z</time></trkpt><trkpt lat="43.26969486266734" lon="12.86703366442029"><ele>903.1666666666666</ele><time>2026-04-11T09:25:43Z</time></trkpt><trkpt lat="43.26979524563416" lon="12.867037744642436"><ele>908.3333333333333</ele><time>2026-04-11T09:25:45Z</time></trkpt><trkpt lat="43.26987001449307" lon="12.866999304843528"><ele>913.5</ele><time>2026-04-11T09:25:47Z</time></trkpt><trkpt lat="43.26995011100577" lon="12.866968395127163"><ele>918.6666666666667</ele><time>2026-04-11T09:25:49Z</time></trkpt><trkpt lat="43.270020029342476" lon="12.866953772673696"><ele>923.8333333333334</ele><time>2026-04-11T09:25:51Z</time></trkpt><trkpt lat="43.27008877667664" lon="12.866929758953997"><ele>929.0</ele><time>2026-04-11T09:25:54Z</time></trkpt><trkpt lat="43.27017208047042" lon="12.866938213402596"><ele>929.0</ele><time>2026-04-11T09:25:56Z</time></trkpt><trkpt lat="43.27026318240755" lon="12.866918121066696"><ele>929.0000000000001</ele><time>2026-04-11T09:25:58Z</time></trkpt><trkpt lat="43.27033230574976" lon="12.866905668362225"><ele>929.0</ele><time>2026-04-11T09:26:00Z</time></trkpt><trkpt lat="43.27040489720023" lon="12.866897280387057"><ele>929.0</ele><time>2026-04-11T09:26:02Z</time></trkpt><trkpt lat="43.27046952350289" lon="12.86690023595114"><ele>929.0000000000001</ele><time>2026-04-11T09:26:04Z</time></trkpt><trkpt lat="43.27054757216143" lon="12.86692473855746"><ele>929.0</ele><time>2026-04-11T09:26:07Z</time></trkpt><trkpt lat="43.27061159128603" lon="12.866908777366444"><ele>929.0</ele><time>2026-04-11T09:26:10Z</time></trkpt><trkpt lat="43.27069166246226" lon="12.866926703013446"><ele>930.0</ele><time>2026-04-11T09:26:12Z</time></trkpt><trkpt lat="43.27077630333532" lon="12.866926049130981"><ele>931.0000000000001</ele><time>2026-04-11T09:26:14Z</time></trkpt><trkpt lat="43.270868467508016" lon="12.866953589922263"><ele>932.0000000000001</ele><time>2026-04-11T09:26:16Z</time></trkpt><trkpt lat="43.270953744663004" lon="12.8669266583512"><ele>933.0</ele><time>2026-04-11T09:26:18Z</time></trkpt><trkpt lat="43.27102776373723" lon="12.866938920228117"><ele>934.0</ele><time>2026-04-11T09:26:20Z</time></trkpt><trkpt lat="43.271132008068086" lon="12.866984900619638"><ele>934.0</ele><time>2026-04-11T09:26:22Z</time></trkpt><trkpt lat="43.27123332105303" lon="12.867045888554095"><ele>934.0000000000001</ele><time>2026-04-11T09:26:24Z</time></trkpt><trkpt lat="43.27132359326994" lon="12.867049632467412"><ele>934.0000000000001</ele><time>2026-04-11T09:26:26Z</time></trkpt><trkpt lat="43.271409941865976" lon="12.867093436857028"><ele>934.0</ele><time>2026-04-11T09:26:29Z</time></trkpt><trkpt lat="43.27151415238312" lon="12.867113009970424"><ele>934.0</ele><time>2026-04-11T09:26:31Z</time></trkpt><trkpt lat="43.27157256973155" lon="12.867150248942131"><ele>932.0</ele><time>2026-04-11T09:26:32Z</time></trkpt><trkpt lat="43.271667931803606" lon="12.867231175170586"><ele>930.0000000000001</ele><time>2026-04-11T09:26:34Z</time></trkpt><trkpt lat="43.27176219257273" lon="12.867325551126498"><ele>928.0000000000001</ele><time>2026-04-11T09:26:36Z</time></trkpt><trkpt lat="43.2718813603861" lon="12.867389495189434"><ele>926.0</ele><time>2026-04-11T09:26:38Z</time></trkpt><trkpt lat="43.27194261060144" lon="12.867423904316773"><ele>924.0</ele><time>2026-04-11T09:26:39Z</time></trkpt><trkpt lat="43.27200258209625" lon="12.867467469063026"><ele>924.0</ele><time>2026-04-11T09:26:40Z</time></trkpt><trkpt lat="43.27205811764015" lon="12.86753583422796"><ele>924.0</ele><time>2026-04-11T09:26:41Z</time></trkpt><trkpt lat="43.272131388486955" lon="12.867548047691354"><ele>924.0</ele><time>2026-04-11T09:26:43Z</time></trkpt><trkpt lat="43.27220137199708" lon="12.867550349840426"><ele>924.0</ele><time>2026-04-11T09:26:45Z</time></trkpt><trkpt lat="43.272332588825506" lon="12.867544530615445"><ele>924.0</ele><time>2026-04-11T09:26:47Z</time></trkpt><trkpt lat="43.27239660618712" lon="12.867540994263388"><ele>924.0</ele><time>2026-04-11T09:26:48Z</time></trkpt><trkpt lat="43.27252954333114" lon="12.867540613797214"><ele>923.6666666666666</ele><time>2026-04-11T09:26:49.999Z</time></trkpt><trkpt lat="43.272613217270056" lon="12.86751178475315"><ele>923.3333333333333</ele><time>2026-04-11T09:26:51.999Z</time></trkpt><trkpt lat="43.27269202874512" lon="12.86749910882111"><ele>923.0</ele><time>2026-04-11T09:26:52.999Z</time></trkpt><trkpt lat="43.2727676095659" lon="12.867502450654158"><ele>922.6666666666666</ele><time>2026-04-11T09:26:53.999Z</time></trkpt><trkpt lat="43.272831678509704" lon="12.867523506448602"><ele>922.3333333333333</ele><time>2026-04-11T09:26:54.999Z</time></trkpt><trkpt lat="43.272933437955444" lon="12.867503108425398"><ele>922.0</ele><time>2026-04-11T09:26:56.999Z</time></trkpt><trkpt lat="43.27303150006126" lon="12.867465299684714"><ele>924.4999999999999</ele><time>2026-04-11T09:26:58.999Z</time></trkpt><trkpt lat="43.27310672350576" lon="12.867453674570791"><ele>927.0</ele><time>2026-04-11T09:27:00.999Z</time></trkpt><trkpt lat="43.27319325668699" lon="12.867400519398934"><ele>929.5</ele><time>2026-04-11T09:27:02.999Z</time></trkpt><trkpt lat="43.273260795124" lon="12.867393436384106"><ele>932.0</ele><time>2026-04-11T09:27:04.999Z</time></trkpt><trkpt lat="43.273372020551875" lon="12.867319725737007"><ele>934.4999999999999</ele><time>2026-04-11T09:27:06.999Z</time></trkpt><trkpt lat="43.273456752103826" lon="12.867296759551351"><ele>937.0</ele><time>2026-04-11T09:27:08.999Z</time></trkpt><trkpt lat="43.273546686165716" lon="12.867293043749108"><ele>936.9999999999999</ele><time>2026-04-11T09:27:11.999Z</time></trkpt><trkpt lat="43.27362517102669" lon="12.867291512935058"><ele>937.0</ele><time>2026-04-11T09:27:13.999Z</time></trkpt><trkpt lat="43.27370414474788" lon="12.867282730911695"><ele>937.0</ele><time>2026-04-11T09:27:16.999Z</time></trkpt><trkpt lat="43.27377672984341" lon="12.867250357313566"><ele>937.0</ele><time>2026-04-11T09:27:18.999Z</time></trkpt><trkpt lat="43.2738127019149" lon="12.867171018501324"><ele>936.9999999999999</ele><time>2026-04-11T09:27:21.999Z</time></trkpt><trkpt lat="43.27379517677607" lon="12.86706160614501"><ele>937.0</ele><time>2026-04-11T09:27:24.999Z</time></trkpt><trkpt lat="43.273780329880275" lon="12.866953316466288"><ele>937.0</ele><time>2026-04-11T09:27:41Z</time></trkpt><trkpt lat="43.2738357203797" lon="12.866849309797995"><ele>937.0</ele><time>2026-04-11T09:27:44Z</time></trkpt><trkpt lat="43.27388304243161" lon="12.866731423905788"><ele>937.0</ele><time>2026-04-11T09:27:46Z</time></trkpt><trkpt lat="43.27388751405332" lon="12.866614318913916"><ele>937.0</ele><time>2026-04-11T09:27:48Z</time></trkpt><trkpt lat="43.27392163467608" lon="12.866521436154315"><ele>937.0</ele><time>2026-04-11T09:27:50Z</time></trkpt><trkpt lat="43.27396030639129" lon="12.866380232149996"><ele>938.0</ele><time>2026-04-11T09:27:52Z</time></trkpt><trkpt lat="43.2739790362625" lon="12.86626188713145"><ele>939.0</ele><time>2026-04-11T09:27:54Z</time></trkpt><trkpt lat="43.274025242771465" lon="12.866149215385176"><ele>940.0</ele><time>2026-04-11T09:27:56Z</time></trkpt><trkpt lat="43.27411031811035" lon="12.866041442876998"><ele>941.0</ele><time>2026-04-11T09:27:58Z</time></trkpt><trkpt lat="43.27414758295155" lon="12.865942688012817"><ele>942.0</ele><time>2026-04-11T09:27:59Z</time></trkpt><trkpt lat="43.274188615563254" lon="12.86585576245778"><ele>942.0</ele><time>2026-04-11T09:28:00Z</time></trkpt><trkpt lat="43.274286766368725" lon="12.865771960041627"><ele>942.0</ele><time>2026-04-11T09:28:02Z</time></trkpt><trkpt lat="43.27439142911603" lon="12.865725192426806"><ele>942.0</ele><time>2026-04-11T09:28:04Z</time></trkpt><trkpt lat="43.274445593502634" lon="12.86567421072987"><ele>942.0</ele><time>2026-04-11T09:28:05Z</time></trkpt><trkpt lat="43.27452605690701" lon="12.865631986850003"><ele>942.0</ele><time>2026-04-11T09:28:07Z</time></trkpt><trkpt lat="43.27459200868439" lon="12.865548790846534"><ele>942.0</ele><time>2026-04-11T09:28:09Z</time></trkpt><trkpt lat="43.27464932844644" lon="12.86547822593254"><ele>942.0</ele><time>2026-04-11T09:28:10Z</time></trkpt><trkpt lat="43.27471233021907" lon="12.86542675818022"><ele>942.0</ele><time>2026-04-11T09:28:11Z</time></trkpt><trkpt lat="43.27477342597642" lon="12.865396916009544"><ele>942.0</ele><time>2026-04-11T09:28:12Z</time></trkpt><trkpt lat="43.27484061463287" lon="12.865356364397739"><ele>942.0</ele><time>2026-04-11T09:28:13Z</time></trkpt><trkpt lat="43.27495663900114" lon="12.865300875631043"><ele>942.0</ele><time>2026-04-11T09:28:15Z</time></trkpt><trkpt lat="43.27502012070616" lon="12.865261583618642"><ele>941.4000000000001</ele><time>2026-04-11T09:28:16Z</time></trkpt><trkpt lat="43.2750737462826" lon="12.865209952334805"><ele>940.8000000000001</ele><time>2026-04-11T09:28:17Z</time></trkpt><trkpt lat="43.27519803373869" lon="12.86519069665484"><ele>940.2</ele><time>2026-04-11T09:28:19Z</time></trkpt><trkpt lat="43.27527314099979" lon="12.865160613921702"><ele>939.6</ele><time>2026-04-11T09:28:20Z</time></trkpt><trkpt lat="43.275328693281786" lon="12.865119208357699"><ele>939.0</ele><time>2026-04-11T09:28:21Z</time></trkpt><trkpt lat="43.27539891841326" lon="12.864974150883496"><ele>939.0</ele><time>2026-04-11T09:28:23Z</time></trkpt><trkpt lat="43.27551577170038" lon="12.864885159848319"><ele>939.0000000000001</ele><time>2026-04-11T09:28:25Z</time></trkpt><trkpt lat="43.27557087275058" lon="12.864839048886726"><ele>939.0000000000001</ele><time>2026-04-11T09:28:26Z</time></trkpt><trkpt lat="43.275655159927474" lon="12.864759601197893"><ele>939.0</ele><time>2026-04-11T09:28:28Z</time></trkpt><trkpt lat="43.2757172168153" lon="12.864719901273753"><ele>939.0</ele><time>2026-04-11T09:28:30Z</time></trkpt><trkpt lat="43.27580126957298" lon="12.864611055043003"><ele>945.8000000000001</ele><time>2026-04-11T09:28:32Z</time></trkpt><trkpt lat="43.27586453504916" lon="12.864573574289201"><ele>952.6000000000001</ele><time>2026-04-11T09:28:33Z</time></trkpt><trkpt lat="43.275928541696366" lon="12.864532583678116"><ele>959.4</ele><time>2026-04-11T09:28:34Z</time></trkpt><trkpt lat="43.27603108119833" lon="12.864432337039178"><ele>966.2</ele><time>2026-04-11T09:28:36Z</time></trkpt><trkpt lat="43.27614870059443" lon="12.864364767135685"><ele>973.0</ele><time>2026-04-11T09:28:38Z</time></trkpt><trkpt lat="43.27622139180844" lon="12.864328594695644"><ele>972.9999999999999</ele><time>2026-04-11T09:28:39Z</time></trkpt><trkpt lat="43.27629353436984" lon="12.864305055531986"><ele>973.0</ele><time>2026-04-11T09:28:40Z</time></trkpt><trkpt lat="43.27635488137661" lon="12.864278311039193"><ele>973.0</ele><time>2026-04-11T09:28:41Z</time></trkpt><trkpt lat="43.276421473493556" lon="12.864247664323583"><ele>973.0</ele><time>2026-04-11T09:28:42Z</time></trkpt><trkpt lat="43.27651406939679" lon="12.86423429319305"><ele>972.9999999999999</ele><time>2026-04-11T09:28:44Z</time></trkpt><trkpt lat="43.27661202154361" lon="12.864218420953092"><ele>973.0</ele><time>2026-04-11T09:28:46Z</time></trkpt><trkpt lat="43.276716908332105" lon="12.864224315973505"><ele>973.5999999999999</ele><time>2026-04-11T09:28:48Z</time></trkpt><trkpt lat="43.27684344752932" lon="12.864159081930922"><ele>974.1999999999999</ele><time>2026-04-11T09:28:50Z</time></trkpt><trkpt lat="43.2769106571599" lon="12.864096816580835"><ele>974.8</ele><time>2026-04-11T09:28:51Z</time></trkpt><trkpt lat="43.27701156647307" lon="12.864023016903715"><ele>975.4</ele><time>2026-04-11T09:28:52Z</time></trkpt><trkpt lat="43.2770759857051" lon="12.8640052566998"><ele>976.0</ele><time>2026-04-11T09:28:53Z</time></trkpt><trkpt lat="43.27719239923171" lon="12.864039411241913"><ele>980.5999999999999</ele><time>2026-04-11T09:28:55Z</time></trkpt><trkpt lat="43.27731968449169" lon="12.864068741603605"><ele>985.1999999999999</ele><time>2026-04-11T09:28:57Z</time></trkpt><trkpt lat="43.27739315586643" lon="12.864072023372202"><ele>989.8000000000001</ele><time>2026-04-11T09:28:58Z</time></trkpt><trkpt lat="43.277456865805796" lon="12.864075908176284"><ele>994.4000000000001</ele><time>2026-04-11T09:28:58.999Z</time></trkpt><trkpt lat="43.27759666861423" lon="12.864068381373169"><ele>999.0</ele><time>2026-04-11T09:29:00.999Z</time></trkpt><trkpt lat="43.27768156265597" lon="12.864068284660506"><ele>999.0</ele><time>2026-04-11T09:29:01.999Z</time></trkpt><trkpt lat="43.27779119228487" lon="12.864047734099277"><ele>999.0</ele><time>2026-04-11T09:29:03.999Z</time></trkpt><trkpt lat="43.27785215977735" lon="12.864015929380907"><ele>999.0</ele><time>2026-04-11T09:29:04.999Z</time></trkpt><trkpt lat="43.277918216363396" lon="12.863976080320962"><ele>999.0</ele><time>2026-04-11T09:29:05.999Z</time></trkpt><trkpt lat="43.27799541873007" lon="12.863914060973178"><ele>999.0</ele><time>2026-04-11T09:29:07.999Z</time></trkpt><trkpt lat="43.27803867874958" lon="12.863847135884276"><ele>999.0</ele><time>2026-04-11T09:29:10.999Z</time></trkpt><trkpt lat="43.27810256056468" lon="12.863789947710016"><ele>997.8000000000001</ele><time>2026-04-11T09:29:13.999Z</time></trkpt><trkpt lat="43.27816279714043" lon="12.863721618291896"><ele>996.6000000000001</ele><time>2026-04-11T09:29:17.999Z</time></trkpt><trkpt lat="43.278237932857046" lon="12.863670870126297"><ele>995.4</ele><time>2026-04-11T09:29:38.999Z</time></trkpt><trkpt lat="43.27829590066263" lon="12.863517736701716"><ele>994.2</ele><time>2026-04-11T09:29:40.999Z</time></trkpt><trkpt lat="43.278300396975595" lon="12.863409639192527"><ele>993.0</ele><time>2026-04-11T09:29:41.999Z</time></trkpt><trkpt lat="43.27830811554825" lon="12.863294308908568"><ele>993.0</ele><time>2026-04-11T09:29:42.999Z</time></trkpt><trkpt lat="43.2783076391613" lon="12.863186991921127"><ele>993.0</ele><time>2026-04-11T09:29:44Z</time></trkpt><trkpt lat="43.27830812583613" lon="12.863072464066907"><ele>993.0</ele><time>2026-04-11T09:29:45Z</time></trkpt><trkpt lat="43.27831427905881" lon="12.862967491140626"><ele>993.0</ele><time>2026-04-11T09:29:46Z</time></trkpt><trkpt lat="43.278326834584" lon="12.862870088683005"><ele>993.0</ele><time>2026-04-11T09:29:47Z</time></trkpt><trkpt lat="43.278350064336145" lon="12.862787841855312"><ele>993.0</ele><time>2026-04-11T09:29:48Z</time></trkpt><trkpt lat="43.27839205970927" lon="12.862704443001093"><ele>993.0</ele><time>2026-04-11T09:29:49Z</time></trkpt><trkpt lat="43.278456802840076" lon="12.862620125281682"><ele>991.2</ele><time>2026-04-11T09:29:50Z</time></trkpt><trkpt lat="43.278531008535026" lon="12.862525538285459"><ele>989.4</ele><time>2026-04-11T09:29:51Z</time></trkpt><trkpt lat="43.27860549109495" lon="12.862408081185118"><ele>987.6000000000001</ele><time>2026-04-11T09:29:52Z</time></trkpt><trkpt lat="43.2786804342647" lon="12.862297196823219"><ele>985.8000000000001</ele><time>2026-04-11T09:29:53Z</time></trkpt><trkpt lat="43.27874480299883" lon="12.862198423440809"><ele>984.0</ele><time>2026-04-11T09:29:54Z</time></trkpt><trkpt lat="43.27881049816164" lon="12.862093439897954"><ele>984.0</ele><time>2026-04-11T09:29:55Z</time></trkpt><trkpt lat="43.278883362802034" lon="12.861980688446012"><ele>984.0000000000001</ele><time>2026-04-11T09:29:56Z</time></trkpt><trkpt lat="43.278963052059275" lon="12.86187179516085"><ele>984.0000000000001</ele><time>2026-04-11T09:29:57Z</time></trkpt><trkpt lat="43.279042916794374" lon="12.861777959862142"><ele>984.0</ele><time>2026-04-11T09:29:58Z</time></trkpt><trkpt lat="43.27913558501371" lon="12.861681165411822"><ele>984.0</ele><time>2026-04-11T09:29:59Z</time></trkpt><trkpt lat="43.27920862661267" lon="12.861621844539105"><ele>980.4000000000001</ele><time>2026-04-11T09:30:00Z</time></trkpt><trkpt lat="43.27928031825963" lon="12.861545834971453"><ele>976.8000000000001</ele><time>2026-04-11T09:30:01Z</time></trkpt><trkpt lat="43.27934438443876" lon="12.861457573856832"><ele>973.1999999999999</ele><time>2026-04-11T09:30:02Z</time></trkpt><trkpt lat="43.279419519627844" lon="12.861347041068736"><ele>969.5999999999999</ele><time>2026-04-11T09:30:03Z</time></trkpt><trkpt lat="43.27950821690472" lon="12.861253201926116"><ele>966.0</ele><time>2026-04-11T09:30:04Z</time></trkpt><trkpt lat="43.27960722465258" lon="12.861175435248"><ele>966.0</ele><time>2026-04-11T09:30:05Z</time></trkpt><trkpt lat="43.2797074511374" lon="12.861075908516035"><ele>966.0</ele><time>2026-04-11T09:30:06Z</time></trkpt><trkpt lat="43.2798085171904" lon="12.860967080819497"><ele>966.0</ele><time>2026-04-11T09:30:07Z</time></trkpt><trkpt lat="43.279909857826404" lon="12.86087386019926"><ele>966.0</ele><time>2026-04-11T09:30:08Z</time></trkpt><trkpt lat="43.28002601486925" lon="12.860776365422877"><ele>962.4</ele><time>2026-04-11T09:30:09Z</time></trkpt><trkpt lat="43.280122533070646" lon="12.860695400598724"><ele>958.8</ele><time>2026-04-11T09:30:10Z</time></trkpt><trkpt lat="43.28021851607096" lon="12.860618488749523"><ele>955.1999999999999</ele><time>2026-04-11T09:30:11Z</time></trkpt><trkpt lat="43.28030586262923" lon="12.860536594902403"><ele>951.5999999999999</ele><time>2026-04-11T09:30:12Z</time></trkpt><trkpt lat="43.28038966169887" lon="12.860458197235298"><ele>948.0</ele><time>2026-04-11T09:30:13Z</time></trkpt><trkpt lat="43.280470115079446" lon="12.860377734645"><ele>948.0</ele><time>2026-04-11T09:30:14Z</time></trkpt><trkpt lat="43.28054720148096" lon="12.860304652811472"><ele>948.0</ele><time>2026-04-11T09:30:15Z</time></trkpt><trkpt lat="43.28062722674462" lon="12.860226720513639"><ele>948.0</ele><time>2026-04-11T09:30:16Z</time></trkpt><trkpt lat="43.280704203456956" lon="12.860150329335436"><ele>948.0</ele><time>2026-04-11T09:30:17Z</time></trkpt><trkpt lat="43.28079061753373" lon="12.860071688239588"><ele>948.0</ele><time>2026-04-11T09:30:18Z</time></trkpt><trkpt lat="43.28089365842598" lon="12.859980045760432"><ele>945.0</ele><time>2026-04-11T09:30:19Z</time></trkpt><trkpt lat="43.28099302323046" lon="12.859890919523284"><ele>942.0</ele><time>2026-04-11T09:30:20Z</time></trkpt><trkpt lat="43.28107520271247" lon="12.859800473673163"><ele>939.0</ele><time>2026-04-11T09:30:21Z</time></trkpt><trkpt lat="43.281163051806836" lon="12.859723139632376"><ele>936.0</ele><time>2026-04-11T09:30:22Z</time></trkpt><trkpt lat="43.2812282888403" lon="12.859657278646818"><ele>933.0</ele><time>2026-04-11T09:30:23Z</time></trkpt><trkpt lat="43.281307918490526" lon="12.859615155161924"><ele>933.0</ele><time>2026-04-11T09:30:24Z</time></trkpt><trkpt lat="43.28137853391422" lon="12.859589970062471"><ele>933.0</ele><time>2026-04-11T09:30:25Z</time></trkpt><trkpt lat="43.2814613923515" lon="12.859558249223825"><ele>933.0</ele><time>2026-04-11T09:30:26Z</time></trkpt><trkpt lat="43.281546031818436" lon="12.859520428367444"><ele>933.0</ele><time>2026-04-11T09:30:27Z</time></trkpt><trkpt lat="43.281617384781924" lon="12.859478114622869"><ele>933.0</ele><time>2026-04-11T09:30:28Z</time></trkpt><trkpt lat="43.28169651034326" lon="12.85941575708157"><ele>933.0</ele><time>2026-04-11T09:30:29Z</time></trkpt><trkpt lat="43.28177331271277" lon="12.859367854152403"><ele>929.5999999999999</ele><time>2026-04-11T09:30:30Z</time></trkpt><trkpt lat="43.281848491133175" lon="12.859314914022631"><ele>926.1999999999999</ele><time>2026-04-11T09:30:31Z</time></trkpt><trkpt lat="43.281922949273856" lon="12.859234768664395"><ele>922.8</ele><time>2026-04-11T09:30:32Z</time></trkpt><trkpt lat="43.28200850883061" lon="12.859158816067811"><ele>919.4</ele><time>2026-04-11T09:30:33Z</time></trkpt><trkpt lat="43.28210383406361" lon="12.859087199726169"><ele>916.0</ele><time>2026-04-11T09:30:34Z</time></trkpt><trkpt lat="43.28220442423866" lon="12.858989771819461"><ele>914.0</ele><time>2026-04-11T09:30:35Z</time></trkpt><trkpt lat="43.28230061796069" lon="12.85887881433984"><ele>911.9999999999999</ele><time>2026-04-11T09:30:36Z</time></trkpt><trkpt lat="43.28239096225655" lon="12.858752998007398"><ele>909.9999999999999</ele><time>2026-04-11T09:30:37Z</time></trkpt><trkpt lat="43.28245929262409" lon="12.858643244465776"><ele>908.0</ele><time>2026-04-11T09:30:38Z</time></trkpt><trkpt lat="43.28248680092296" lon="12.858539609768075"><ele>906.0</ele><time>2026-04-11T09:30:39Z</time></trkpt><trkpt lat="43.28250035960518" lon="12.858402266093735"><ele>905.25</ele><time>2026-04-11T09:30:40Z</time></trkpt><trkpt lat="43.28250279056515" lon="12.85824053570693"><ele>904.5</ele><time>2026-04-11T09:30:41Z</time></trkpt><trkpt lat="43.28247933367945" lon="12.85808302274589"><ele>903.75</ele><time>2026-04-11T09:30:42Z</time></trkpt><trkpt lat="43.28246193643036" lon="12.857939661949832"><ele>903.0</ele><time>2026-04-11T09:30:43Z</time></trkpt><trkpt lat="43.28248666784504" lon="12.857777452292696"><ele>902.5</ele><time>2026-04-11T09:30:44Z</time></trkpt><trkpt lat="43.282538059857494" lon="12.857571602742516"><ele>902.0</ele><time>2026-04-11T09:30:45Z</time></trkpt><trkpt lat="43.28259551150017" lon="12.857395249567947"><ele>901.5</ele><time>2026-04-11T09:30:46Z</time></trkpt><trkpt lat="43.282658866716986" lon="12.857236623720542"><ele>901.0</ele><time>2026-04-11T09:30:47Z</time></trkpt><trkpt lat="43.28275398332348" lon="12.85707724105121"><ele>901.0</ele><time>2026-04-11T09:30:48Z</time></trkpt><trkpt lat="43.282893258853186" lon="12.856907160215869"><ele>901.0</ele><time>2026-04-11T09:30:49Z</time></trkpt><trkpt lat="43.28303346048696" lon="12.856731650301281"><ele>901.0</ele><time>2026-04-11T09:30:50Z</time></trkpt><trkpt lat="43.28316440686327" lon="12.856562446641812"><ele>899.6666666666666</ele><time>2026-04-11T09:30:51Z</time></trkpt><trkpt lat="43.28328695192321" lon="12.856426942830867"><ele>898.3333333333333</ele><time>2026-04-11T09:30:52Z</time></trkpt><trkpt lat="43.28341475535345" lon="12.856309019612539"><ele>897.0</ele><time>2026-04-11T09:30:53Z</time></trkpt><trkpt lat="43.28354392170392" lon="12.85621336301434"><ele>897.0</ele><time>2026-04-11T09:30:54Z</time></trkpt><trkpt lat="43.283702057977216" lon="12.85614345819903"><ele>897.0</ele><time>2026-04-11T09:30:55Z</time></trkpt><trkpt lat="43.28385840941143" lon="12.856091194550002"><ele>897.0</ele><time>2026-04-11T09:30:56Z</time></trkpt><trkpt lat="43.28403449260539" lon="12.856036312937519"><ele>896.3333333333333</ele><time>2026-04-11T09:30:57Z</time></trkpt><trkpt lat="43.28420879763885" lon="12.85599253260308"><ele>895.6666666666666</ele><time>2026-04-11T09:30:58Z</time></trkpt><trkpt lat="43.284372711362266" lon="12.855955370416634"><ele>895.0</ele><time>2026-04-11T09:30:59Z</time></trkpt><trkpt lat="43.28450361079338" lon="12.85593431719785"><ele>891.8</ele><time>2026-04-11T09:31:00Z</time></trkpt><trkpt lat="43.284632898560986" lon="12.855902970128257"><ele>888.6</ele><time>2026-04-11T09:31:01Z</time></trkpt><trkpt lat="43.28474430457271" lon="12.855874367360586"><ele>885.4000000000001</ele><time>2026-04-11T09:31:02Z</time></trkpt><trkpt lat="43.284832299369725" lon="12.855854681528015"><ele>882.2</ele><time>2026-04-11T09:31:03Z</time></trkpt><trkpt lat="43.28491056015861" lon="12.855845591440453"><ele>879.0</ele><time>2026-04-11T09:31:04Z</time></trkpt><trkpt lat="43.284976758153114" lon="12.855826519588673"><ele>878.6</ele><time>2026-04-11T09:31:05Z</time></trkpt><trkpt lat="43.285039392363366" lon="12.855813751842868"><ele>878.2</ele><time>2026-04-11T09:31:06Z</time></trkpt><trkpt lat="43.28515129523833" lon="12.855812958301552"><ele>877.8000000000001</ele><time>2026-04-11T09:31:08Z</time></trkpt><trkpt lat="43.28524956275955" lon="12.855765168518882"><ele>877.4000000000001</ele><time>2026-04-11T09:31:09Z</time></trkpt><trkpt lat="43.28535322457587" lon="12.855720265135428"><ele>877.0</ele><time>2026-04-11T09:31:10Z</time></trkpt><trkpt lat="43.28545808823346" lon="12.855704025510889"><ele>876.9999999999999</ele><time>2026-04-11T09:31:11Z</time></trkpt><trkpt lat="43.28555333353617" lon="12.855719205925968"><ele>877.0</ele><time>2026-04-11T09:31:12Z</time></trkpt><trkpt lat="43.28563147040956" lon="12.855732392666969"><ele>877.0</ele><time>2026-04-11T09:31:12.999Z</time></trkpt><trkpt lat="43.285709561617615" lon="12.85573035516508"><ele>877.0</ele><time>2026-04-11T09:31:13.999Z</time></trkpt><trkpt lat="43.28577845129982" lon="12.855684195954467"><ele>876.9999999999999</ele><time>2026-04-11T09:31:14.999Z</time></trkpt><trkpt lat="43.28583737382893" lon="12.855571284029983"><ele>877.0</ele><time>2026-04-11T09:31:16.999Z</time></trkpt><trkpt lat="43.285917412490456" lon="12.855449265305086"><ele>877.4000000000001</ele><time>2026-04-11T09:31:18.999Z</time></trkpt><trkpt lat="43.2859833459253" lon="12.855377539198898"><ele>877.8000000000001</ele><time>2026-04-11T09:31:19.999Z</time></trkpt><trkpt lat="43.28607046298599" lon="12.855269962402906"><ele>878.2</ele><time>2026-04-11T09:31:20.999Z</time></trkpt><trkpt lat="43.28615801420603" lon="12.85516716702797"><ele>878.6</ele><time>2026-04-11T09:31:21.999Z</time></trkpt><trkpt lat="43.286273754511484" lon="12.855081175423425"><ele>879.0</ele><time>2026-04-11T09:31:22.999Z</time></trkpt><trkpt lat="43.28639968822689" lon="12.85500579738439"><ele>874.75</ele><time>2026-04-11T09:31:23.999Z</time></trkpt><trkpt lat="43.28653226436536" lon="12.85491393258973"><ele>870.5</ele><time>2026-04-11T09:31:24.999Z</time></trkpt><trkpt lat="43.28667071966884" lon="12.854823132381947"><ele>866.25</ele><time>2026-04-11T09:31:25.999Z</time></trkpt><trkpt lat="43.2867973594829" lon="12.854726916499482"><ele>862.0</ele><time>2026-04-11T09:31:26.999Z</time></trkpt><trkpt lat="43.28690414585604" lon="12.854654890633965"><ele>862.0</ele><time>2026-04-11T09:31:27.999Z</time></trkpt><trkpt lat="43.28698004205461" lon="12.854616626835268"><ele>862.0</ele><time>2026-04-11T09:31:28.999Z</time></trkpt><trkpt lat="43.28703703384154" lon="12.8545667467011"><ele>862.0</ele><time>2026-04-11T09:31:29.999Z</time></trkpt><trkpt lat="43.28709221640917" lon="12.85444075592937"><ele>862.0</ele><time>2026-04-11T09:31:31.999Z</time></trkpt><trkpt lat="43.2871894247162" lon="12.854324597091768"><ele>862.0</ele><time>2026-04-11T09:31:33.999Z</time></trkpt><trkpt lat="43.287246398948234" lon="12.854267456556272"><ele>859.2</ele><time>2026-04-11T09:31:34.999Z</time></trkpt><trkpt lat="43.287320892313666" lon="12.854194775908987"><ele>856.4000000000001</ele><time>2026-04-11T09:31:35.999Z</time></trkpt><trkpt lat="43.28737725517393" lon="12.854125336384888"><ele>853.5999999999999</ele><time>2026-04-11T09:31:36.999Z</time></trkpt><trkpt lat="43.287456465" lon="12.854041487264944"><ele>850.8</ele><time>2026-04-11T09:31:37.999Z</time></trkpt><trkpt lat="43.28753224676555" lon="12.853953274675831"><ele>848.0</ele><time>2026-04-11T09:31:38.999Z</time></trkpt><trkpt lat="43.287627731436785" lon="12.853860185294712"><ele>848.0</ele><time>2026-04-11T09:31:39.999Z</time></trkpt><trkpt lat="43.287709815311906" lon="12.853736369743533"><ele>848.0</ele><time>2026-04-11T09:31:40.999Z</time></trkpt><trkpt lat="43.28779492943467" lon="12.853610260801464"><ele>848.0</ele><time>2026-04-11T09:31:41.999Z</time></trkpt><trkpt lat="43.287899332142196" lon="12.853493772372289"><ele>848.0</ele><time>2026-04-11T09:31:42.999Z</time></trkpt><trkpt lat="43.28799600224524" lon="12.853384253015667"><ele>844.2</ele><time>2026-04-11T09:31:43.999Z</time></trkpt><trkpt lat="43.28807992522347" lon="12.853286570121574"><ele>840.4</ele><time>2026-04-11T09:31:44.999Z</time></trkpt><trkpt lat="43.2881638506184" lon="12.853188552001205"><ele>836.6</ele><time>2026-04-11T09:31:45.999Z</time></trkpt><trkpt lat="43.2882401466096" lon="12.853109775602471"><ele>832.8000000000001</ele><time>2026-04-11T09:31:46.999Z</time></trkpt><trkpt lat="43.28831439869857" lon="12.853032373989578"><ele>829.0</ele><time>2026-04-11T09:31:47.999Z</time></trkpt><trkpt lat="43.28839404679072" lon="12.852941469155256"><ele>829.0</ele><time>2026-04-11T09:31:48.999Z</time></trkpt><trkpt lat="43.28848284591836" lon="12.85284235310209"><ele>829.0</ele><time>2026-04-11T09:31:50Z</time></trkpt><trkpt lat="43.28857013996824" lon="12.852742513434393"><ele>829.0</ele><time>2026-04-11T09:31:51Z</time></trkpt><trkpt lat="43.28865300156427" lon="12.85265866720989"><ele>829.0</ele><time>2026-04-11T09:31:52Z</time></trkpt><trkpt lat="43.28871643533225" lon="12.85260092796388"><ele>829.0</ele><time>2026-04-11T09:31:53Z</time></trkpt><trkpt lat="43.28878653981938" lon="12.852535770139642"><ele>826.2</ele><time>2026-04-11T09:31:54Z</time></trkpt><trkpt lat="43.2888827432276" lon="12.852477195871174"><ele>823.4000000000001</ele><time>2026-04-11T09:31:56Z</time></trkpt><trkpt lat="43.28896808601214" lon="12.852411720365874"><ele>820.6</ele><time>2026-04-11T09:31:58Z</time></trkpt><trkpt lat="43.28905288487373" lon="12.852358880379851"><ele>817.8</ele><time>2026-04-11T09:32:00Z</time></trkpt><trkpt lat="43.28912448975711" lon="12.85230156690222"><ele>815.0</ele><time>2026-04-11T09:32:02Z</time></trkpt><trkpt lat="43.28920766789349" lon="12.852247044002"><ele>815.0</ele><time>2026-04-11T09:32:04Z</time></trkpt><trkpt lat="43.2892844978661" lon="12.852193917399523"><ele>815.0</ele><time>2026-04-11T09:32:06Z</time></trkpt><trkpt lat="43.28936586601246" lon="12.852130633527892"><ele>815.0</ele><time>2026-04-11T09:32:08Z</time></trkpt><trkpt lat="43.28944755232463" lon="12.852073743365422"><ele>815.0</ele><time>2026-04-11T09:32:10Z</time></trkpt><trkpt lat="43.28955890215263" lon="12.852006339550925"><ele>815.0</ele><time>2026-04-11T09:32:12Z</time></trkpt><trkpt lat="43.28970325846875" lon="12.851924621342025"><ele>815.25</ele><time>2026-04-11T09:32:14Z</time></trkpt><trkpt lat="43.28981706027972" lon="12.85181318408976"><ele>815.5</ele><time>2026-04-11T09:32:15Z</time></trkpt><trkpt lat="43.28995333380871" lon="12.851722647484907"><ele>815.75</ele><time>2026-04-11T09:32:16Z</time></trkpt><trkpt lat="43.29006897761739" lon="12.851642283412616"><ele>816.0</ele><time>2026-04-11T09:32:17Z</time></trkpt><trkpt lat="43.29015549491364" lon="12.851588004806585"><ele>811.0</ele><time>2026-04-11T09:32:18Z</time></trkpt><trkpt lat="43.29024496191455" lon="12.851540067602887"><ele>806.0</ele><time>2026-04-11T09:32:19Z</time></trkpt><trkpt lat="43.29035449635099" lon="12.851443725762811"><ele>801.0</ele><time>2026-04-11T09:32:20Z</time></trkpt><trkpt lat="43.290478284124646" lon="12.851368650890342"><ele>796.0</ele><time>2026-04-11T09:32:21Z</time></trkpt><trkpt lat="43.290579804005205" lon="12.851305376380001"><ele>795.4</ele><time>2026-04-11T09:32:22Z</time></trkpt><trkpt lat="43.29067584052605" lon="12.851223672747718"><ele>794.8</ele><time>2026-04-11T09:32:23Z</time></trkpt><trkpt lat="43.29076518486319" lon="12.851156412728193"><ele>794.1999999999999</ele><time>2026-04-11T09:32:24Z</time></trkpt><trkpt lat="43.29085578860007" lon="12.851101198764088"><ele>793.5999999999999</ele><time>2026-04-11T09:32:25Z</time></trkpt><trkpt lat="43.290953605315266" lon="12.851063380964241"><ele>793.0</ele><time>2026-04-11T09:32:26Z</time></trkpt><trkpt lat="43.291055833968585" lon="12.85103351182604"><ele>792.9999999999999</ele><time>2026-04-11T09:32:27Z</time></trkpt><trkpt lat="43.29114487796776" lon="12.851005224307963"><ele>793.0</ele><time>2026-04-11T09:32:28Z</time></trkpt><trkpt lat="43.291225566147524" lon="12.85098167558202"><ele>793.0</ele><time>2026-04-11T09:32:29Z</time></trkpt><trkpt lat="43.291305826141304" lon="12.850951347523395"><ele>793.0</ele><time>2026-04-11T09:32:30Z</time></trkpt><trkpt lat="43.29137863188978" lon="12.850918424257118"><ele>792.9999999999999</ele><time>2026-04-11T09:32:31Z</time></trkpt><trkpt lat="43.29144827488307" lon="12.850890106998897"><ele>793.0</ele><time>2026-04-11T09:32:32Z</time></trkpt><trkpt lat="43.29153056104736" lon="12.850855609936822"><ele>790.4</ele><time>2026-04-11T09:32:33Z</time></trkpt><trkpt lat="43.291604347111345" lon="12.850819959581802"><ele>787.8</ele><time>2026-04-11T09:32:34Z</time></trkpt><trkpt lat="43.2917017028624" lon="12.85075421005709"><ele>785.2</ele><time>2026-04-11T09:32:35Z</time></trkpt><trkpt lat="43.29177267624548" lon="12.850724983561205"><ele>782.6</ele><time>2026-04-11T09:32:36Z</time></trkpt><trkpt lat="43.291857922832335" lon="12.850668354488505"><ele>780.0</ele><time>2026-04-11T09:32:37Z</time></trkpt><trkpt lat="43.29195372312019" lon="12.85062354415359"><ele>780.0</ele><time>2026-04-11T09:32:38Z</time></trkpt><trkpt lat="43.292043459125836" lon="12.850573897895247"><ele>780.0</ele><time>2026-04-11T09:32:39Z</time></trkpt><trkpt lat="43.29212774950888" lon="12.85052342283364"><ele>780.0</ele><time>2026-04-11T09:32:40Z</time></trkpt><trkpt lat="43.292232712929554" lon="12.850476594568581"><ele>780.0</ele><time>2026-04-11T09:32:41Z</time></trkpt><trkpt lat="43.29231243629072" lon="12.850445891696124"><ele>780.0</ele><time>2026-04-11T09:32:42Z</time></trkpt><trkpt lat="43.29239984410368" lon="12.85039928665801"><ele>778.8333333333334</ele><time>2026-04-11T09:32:43Z</time></trkpt><trkpt lat="43.29249451377817" lon="12.850378856008927"><ele>777.6666666666667</ele><time>2026-04-11T09:32:44Z</time></trkpt><trkpt lat="43.29257759038655" lon="12.850356988928318"><ele>776.5</ele><time>2026-04-11T09:32:45Z</time></trkpt><trkpt lat="43.29266215105877" lon="12.850323473008094"><ele>775.3333333333334</ele><time>2026-04-11T09:32:46Z</time></trkpt><trkpt lat="43.29274752345334" lon="12.850303984139448"><ele>774.1666666666667</ele><time>2026-04-11T09:32:47Z</time></trkpt><trkpt lat="43.29283350414273" lon="12.850281408939539"><ele>773.0</ele><time>2026-04-11T09:32:48Z</time></trkpt><trkpt lat="43.29290842818317" lon="12.850260086410783"><ele>773.0000000000001</ele><time>2026-04-11T09:32:49Z</time></trkpt><trkpt lat="43.29298431553775" lon="12.850249240982953"><ele>773.0</ele><time>2026-04-11T09:32:50Z</time></trkpt><trkpt lat="43.293063297040604" lon="12.850231033639883"><ele>773.0</ele><time>2026-04-11T09:32:51Z</time></trkpt><trkpt lat="43.293134071206666" lon="12.85020261725867"><ele>773.0</ele><time>2026-04-11T09:32:52Z</time></trkpt><trkpt lat="43.2932158911325" lon="12.850168714101335"><ele>773.0000000000001</ele><time>2026-04-11T09:32:53Z</time></trkpt><trkpt lat="43.293315462795945" lon="12.850151749150104"><ele>773.0</ele><time>2026-04-11T09:32:54Z</time></trkpt><trkpt lat="43.293416753849975" lon="12.850135532044785"><ele>770.0</ele><time>2026-04-11T09:32:55Z</time></trkpt><trkpt lat="43.293532292171705" lon="12.8501256982689"><ele>767.0</ele><time>2026-04-11T09:32:56Z</time></trkpt><trkpt lat="43.29365485782106" lon="12.850121910420913"><ele>764.0</ele><time>2026-04-11T09:32:57Z</time></trkpt><trkpt lat="43.29378719084807" lon="12.850138367175568"><ele>761.0</ele><time>2026-04-11T09:32:58Z</time></trkpt><trkpt lat="43.293909091571734" lon="12.850142005551092"><ele>757.5</ele><time>2026-04-11T09:32:59Z</time></trkpt><trkpt lat="43.29403171779081" lon="12.850134588045638"><ele>754.0</ele><time>2026-04-11T09:33:00Z</time></trkpt><trkpt lat="43.294147489046026" lon="12.850145986283433"><ele>750.5</ele><time>2026-04-11T09:33:01Z</time></trkpt><trkpt lat="43.29426176857509" lon="12.850154911170735"><ele>747.0</ele><time>2026-04-11T09:33:02Z</time></trkpt><trkpt lat="43.29436353384127" lon="12.850187969865466"><ele>747.0</ele><time>2026-04-11T09:33:03Z</time></trkpt><trkpt lat="43.29447873837219" lon="12.850211798861721"><ele>747.0</ele><time>2026-04-11T09:33:04Z</time></trkpt><trkpt lat="43.29457460037445" lon="12.850256977713686"><ele>747.0</ele><time>2026-04-11T09:33:05Z</time></trkpt><trkpt lat="43.29464900905226" lon="12.850276017422692"><ele>747.0</ele><time>2026-04-11T09:33:06Z</time></trkpt><trkpt lat="43.294746438568865" lon="12.85030693316206"><ele>747.0</ele><time>2026-04-11T09:33:07Z</time></trkpt><trkpt lat="43.29485445611469" lon="12.85036399262941"><ele>743.4000000000001</ele><time>2026-04-11T09:33:08Z</time></trkpt><trkpt lat="43.29495800276554" lon="12.850413671773689"><ele>739.8000000000001</ele><time>2026-04-11T09:33:09Z</time></trkpt><trkpt lat="43.29504113931544" lon="12.850436772634495"><ele>736.2</ele><time>2026-04-11T09:33:10Z</time></trkpt><trkpt lat="43.29512184525227" lon="12.850468461267548"><ele>732.6</ele><time>2026-04-11T09:33:11Z</time></trkpt><trkpt lat="43.29521177699652" lon="12.850530069284767"><ele>729.0</ele><time>2026-04-11T09:33:12Z</time></trkpt><trkpt lat="43.29529871654952" lon="12.850590087258968"><ele>729.0</ele><time>2026-04-11T09:33:13Z</time></trkpt><trkpt lat="43.295377874209635" lon="12.850643410694675"><ele>729.0</ele><time>2026-04-11T09:33:14Z</time></trkpt><trkpt lat="43.29545658281727" lon="12.85070581647927"><ele>729.0</ele><time>2026-04-11T09:33:15Z</time></trkpt><trkpt lat="43.29552190339449" lon="12.850775617331276"><ele>729.0</ele><time>2026-04-11T09:33:16Z</time></trkpt><trkpt lat="43.29562060253685" lon="12.850843562038472"><ele>729.0</ele><time>2026-04-11T09:33:17Z</time></trkpt><trkpt lat="43.295708575648426" lon="12.850912768513101"><ele>727.4000000000001</ele><time>2026-04-11T09:33:18Z</time></trkpt><trkpt lat="43.295762723516006" lon="12.850969095011019"><ele>725.8</ele><time>2026-04-11T09:33:19Z</time></trkpt><trkpt lat="43.29583784037416" lon="12.851019918716037"><ele>724.2</ele><time>2026-04-11T09:33:21Z</time></trkpt><trkpt lat="43.29587557882503" lon="12.850888130310919"><ele>722.5999999999999</ele><time>2026-04-11T09:33:24Z</time></trkpt><trkpt lat="43.29584884419037" lon="12.850777116974623"><ele>721.0</ele><time>2026-04-11T09:33:25Z</time></trkpt><trkpt lat="43.29581973139005" lon="12.850629504419787"><ele>718.1999999999999</ele><time>2026-04-11T09:33:26Z</time></trkpt><trkpt lat="43.2957956835482" lon="12.850502058954909"><ele>715.4</ele><time>2026-04-11T09:33:27Z</time></trkpt><trkpt lat="43.29578624868006" lon="12.850369840485556"><ele>712.6</ele><time>2026-04-11T09:33:27.999Z</time></trkpt><trkpt lat="43.29580611461895" lon="12.850232460303769"><ele>709.8</ele><time>2026-04-11T09:33:28.999Z</time></trkpt><trkpt lat="43.29581835476236" lon="12.850099473907814"><ele>707.0</ele><time>2026-04-11T09:33:29.999Z</time></trkpt><trkpt lat="43.295794575879576" lon="12.849961101255072"><ele>705.4000000000001</ele><time>2026-04-11T09:33:30.999Z</time></trkpt><trkpt lat="43.29579575812295" lon="12.849814352484037"><ele>703.8000000000001</ele><time>2026-04-11T09:33:31.999Z</time></trkpt><trkpt lat="43.29579593345694" lon="12.849663174197621"><ele>702.2</ele><time>2026-04-11T09:33:32.999Z</time></trkpt><trkpt lat="43.29579179613126" lon="12.849511620955639"><ele>700.6</ele><time>2026-04-11T09:33:33.999Z</time></trkpt><trkpt lat="43.29579043376947" lon="12.849389382732044"><ele>699.0</ele><time>2026-04-11T09:33:34.999Z</time></trkpt><trkpt lat="43.29578288222014" lon="12.849254714668005"><ele>696.6</ele><time>2026-04-11T09:33:35.999Z</time></trkpt><trkpt lat="43.29577379657629" lon="12.849111596203219"><ele>694.2</ele><time>2026-04-11T09:33:36.999Z</time></trkpt><trkpt lat="43.295759907268675" lon="12.848962497178865"><ele>691.8000000000001</ele><time>2026-04-11T09:33:37.999Z</time></trkpt><trkpt lat="43.29574947006949" lon="12.84884292375748"><ele>689.4000000000001</ele><time>2026-04-11T09:33:38.999Z</time></trkpt><trkpt lat="43.29573084050365" lon="12.84871662905115"><ele>687.0</ele><time>2026-04-11T09:33:39.999Z</time></trkpt><trkpt lat="43.295723668410446" lon="12.848579830078865"><ele>686.0</ele><time>2026-04-11T09:33:40.999Z</time></trkpt><trkpt lat="43.295712349680976" lon="12.84844212176752"><ele>685.0</ele><time>2026-04-11T09:33:42.999Z</time></trkpt><trkpt lat="43.295682034371175" lon="12.848359000498618"><ele>684.0</ele><time>2026-04-11T09:33:46.999Z</time></trkpt><trkpt lat="43.295567724622586" lon="12.848337115378174"><ele>683.0</ele><time>2026-04-11T09:33:49.999Z</time></trkpt><trkpt lat="43.2954869088903" lon="12.84826449678626"><ele>682.0</ele><time>2026-04-11T09:33:52.999Z</time></trkpt><trkpt lat="43.29546195347829" lon="12.848175985506675"><ele>682.0</ele><time>2026-04-11T09:33:54.999Z</time></trkpt><trkpt lat="43.29541356089236" lon="12.848066363065996"><ele>682.0</ele><time>2026-04-11T09:33:57.001Z</time></trkpt><trkpt lat="43.29535401878418" lon="12.84794587021618"><ele>682.0</ele><time>2026-04-11T09:33:59.001Z</time></trkpt><trkpt lat="43.29532654776301" lon="12.84785832381984"><ele>682.0</ele><time>2026-04-11T09:34:00.001Z</time></trkpt><trkpt lat="43.29519939481602" lon="12.847763180077544"><ele>682.0</ele><time>2026-04-11T09:34:02Z</time></trkpt><trkpt lat="43.295105577937505" lon="12.847734213163053"><ele>682.0</ele><time>2026-04-11T09:34:03.001Z</time></trkpt><trkpt lat="43.295029558779234" lon="12.847712590228259"><ele>682.0</ele><time>2026-04-11T09:34:04Z</time></trkpt><trkpt lat="43.294935824147" lon="12.847695897460236"><ele>682.0</ele><time>2026-04-11T09:34:05Z</time></trkpt><trkpt lat="43.29484512752465" lon="12.84767465678211"><ele>682.0</ele><time>2026-04-11T09:34:06Z</time></trkpt><trkpt lat="43.29472734728647" lon="12.847655534171269"><ele>682.0</ele><time>2026-04-11T09:34:07Z</time></trkpt><trkpt lat="43.294617689936274" lon="12.847612899554086"><ele>677.6</ele><time>2026-04-11T09:34:08Z</time></trkpt><trkpt lat="43.29450518422272" lon="12.847572219042702"><ele>673.2</ele><time>2026-04-11T09:34:09Z</time></trkpt><trkpt lat="43.29440516499531" lon="12.847528639785242"><ele>668.8</ele><time>2026-04-11T09:34:10Z</time></trkpt><trkpt lat="43.29428935797913" lon="12.847512491460371"><ele>664.4</ele><time>2026-04-11T09:34:11Z</time></trkpt><trkpt lat="43.294191977586884" lon="12.847503049693639"><ele>660.0</ele><time>2026-04-11T09:34:12Z</time></trkpt><trkpt lat="43.294099232417246" lon="12.847441352329913"><ele>660.0</ele><time>2026-04-11T09:34:13Z</time></trkpt><trkpt lat="43.294002975107716" lon="12.847361230337013"><ele>660.0</ele><time>2026-04-11T09:34:14Z</time></trkpt><trkpt lat="43.29392762485345" lon="12.847288810760798"><ele>660.0</ele><time>2026-04-11T09:34:15Z</time></trkpt><trkpt lat="43.293849912777915" lon="12.847202090861265"><ele>660.0</ele><time>2026-04-11T09:34:16Z</time></trkpt><trkpt lat="43.293769409688046" lon="12.847120142798246"><ele>660.0</ele><time>2026-04-11T09:34:17Z</time></trkpt><trkpt lat="43.293685756400116" lon="12.847029951856575"><ele>660.3333333333334</ele><time>2026-04-11T09:34:18Z</time></trkpt><trkpt lat="43.29361189525832" lon="12.846938626436875"><ele>660.6666666666666</ele><time>2026-04-11T09:34:19Z</time></trkpt><trkpt lat="43.2935351118855" lon="12.846840250462167"><ele>661.0</ele><time>2026-04-11T09:34:20Z</time></trkpt><trkpt lat="43.29347593799842" lon="12.846755190365318"><ele>661.3333333333333</ele><time>2026-04-11T09:34:21Z</time></trkpt><trkpt lat="43.2934197850057" lon="12.846698473701942"><ele>661.6666666666666</ele><time>2026-04-11T09:34:22Z</time></trkpt><trkpt lat="43.29335750202814" lon="12.846655406428829"><ele>662.0</ele><time>2026-04-11T09:34:23Z</time></trkpt><trkpt lat="43.29328377211474" lon="12.846639921041776"><ele>656.2</ele><time>2026-04-11T09:34:24Z</time></trkpt><trkpt lat="43.293147866746224" lon="12.846612161212253"><ele>650.4000000000001</ele><time>2026-04-11T09:34:25Z</time></trkpt><trkpt lat="43.29302489876464" lon="12.84661875999273"><ele>644.5999999999999</ele><time>2026-04-11T09:34:26Z</time></trkpt><trkpt lat="43.29292600779489" lon="12.846629085143027"><ele>638.8</ele><time>2026-04-11T09:34:27Z</time></trkpt><trkpt lat="43.292850681396445" lon="12.84665175109302"><ele>633.0</ele><time>2026-04-11T09:34:28Z</time></trkpt><trkpt lat="43.29275844042044" lon="12.846714846723991"><ele>632.4</ele><time>2026-04-11T09:34:30Z</time></trkpt><trkpt lat="43.29266455299842" lon="12.846698019605322"><ele>631.8</ele><time>2026-04-11T09:34:32Z</time></trkpt><trkpt lat="43.29255073034152" lon="12.846752028176981"><ele>631.2</ele><time>2026-04-11T09:34:34Z</time></trkpt><trkpt lat="43.2924872021211" lon="12.846793760041944"><ele>630.6</ele><time>2026-04-11T09:34:35Z</time></trkpt><trkpt lat="43.292405356124554" lon="12.84683497890808"><ele>630.0</ele><time>2026-04-11T09:34:36Z</time></trkpt><trkpt lat="43.29231479130444" lon="12.846858625889832"><ele>636.0</ele><time>2026-04-11T09:34:37Z</time></trkpt><trkpt lat="43.29221809004589" lon="12.846889261281019"><ele>642.0</ele><time>2026-04-11T09:34:38Z</time></trkpt><trkpt lat="43.29213119947122" lon="12.846907798609841"><ele>648.0</ele><time>2026-04-11T09:34:39Z</time></trkpt><trkpt lat="43.29202919242767" lon="12.846904863560798"><ele>654.0</ele><time>2026-04-11T09:34:40Z</time></trkpt><trkpt lat="43.291932633614735" lon="12.846897740504751"><ele>660.0</ele><time>2026-04-11T09:34:41Z</time></trkpt><trkpt lat="43.29184220017529" lon="12.846906054942506"><ele>660.0</ele><time>2026-04-11T09:34:42Z</time></trkpt><trkpt lat="43.2917377939799" lon="12.846905149775985"><ele>660.0</ele><time>2026-04-11T09:34:43Z</time></trkpt><trkpt lat="43.29163106676535" lon="12.84688627468632"><ele>660.0</ele><time>2026-04-11T09:34:44Z</time></trkpt><trkpt lat="43.291542930597316" lon="12.846894527904151"><ele>660.0</ele><time>2026-04-11T09:34:45Z</time></trkpt><trkpt lat="43.291441078557014" lon="12.846934676092667"><ele>660.0</ele><time>2026-04-11T09:34:46Z</time></trkpt><trkpt lat="43.29130802468547" lon="12.846967243240515"><ele>659.6</ele><time>2026-04-11T09:34:47Z</time></trkpt><trkpt lat="43.29119974802477" lon="12.846990824747522"><ele>659.2</ele><time>2026-04-11T09:34:48Z</time></trkpt><trkpt lat="43.29109621118946" lon="12.846997637532397"><ele>658.8</ele><time>2026-04-11T09:34:49Z</time></trkpt><trkpt lat="43.29098293254905" lon="12.846994645363473"><ele>658.4</ele><time>2026-04-11T09:34:50Z</time></trkpt><trkpt lat="43.290861294825106" lon="12.84699715989209"><ele>658.0</ele><time>2026-04-11T09:34:51Z</time></trkpt><trkpt lat="43.2907501155717" lon="12.84700065336314"><ele>658.0</ele><time>2026-04-11T09:34:52Z</time></trkpt><trkpt lat="43.29063514189782" lon="12.847027826310725"><ele>658.0</ele><time>2026-04-11T09:34:53Z</time></trkpt><trkpt lat="43.2905343096435" lon="12.84704052128649"><ele>658.0</ele><time>2026-04-11T09:34:54Z</time></trkpt><trkpt lat="43.29046188257151" lon="12.847041615451667"><ele>658.0</ele><time>2026-04-11T09:34:55Z</time></trkpt><trkpt lat="43.29035533205703" lon="12.847004093007671"><ele>658.0</ele><time>2026-04-11T09:34:57Z</time></trkpt><trkpt lat="43.29024445193659" lon="12.846966841500821"><ele>658.5</ele><time>2026-04-11T09:34:59Z</time></trkpt><trkpt lat="43.29012194329499" lon="12.846907742924213"><ele>659.0</ele><time>2026-04-11T09:35:01Z</time></trkpt><trkpt lat="43.2900175621424" lon="12.846860763749866"><ele>659.5</ele><time>2026-04-11T09:35:02Z</time></trkpt><trkpt lat="43.28990448649757" lon="12.846797098014607"><ele>660.0</ele><time>2026-04-11T09:35:03Z</time></trkpt><trkpt lat="43.28978687883417" lon="12.846746207444243"><ele>652.75</ele><time>2026-04-11T09:35:04Z</time></trkpt><trkpt lat="43.28968018837988" lon="12.846703101445623"><ele>645.5</ele><time>2026-04-11T09:35:05Z</time></trkpt><trkpt lat="43.28956743086287" lon="12.846659574308408"><ele>638.25</ele><time>2026-04-11T09:35:06Z</time></trkpt><trkpt lat="43.28944229621331" lon="12.846597470205378"><ele>631.0</ele><time>2026-04-11T09:35:07Z</time></trkpt><trkpt lat="43.28934083149871" lon="12.84649722723729"><ele>631.0</ele><time>2026-04-11T09:35:08Z</time></trkpt><trkpt lat="43.28923305181848" lon="12.846429246321105"><ele>631.0</ele><time>2026-04-11T09:35:09Z</time></trkpt><trkpt lat="43.28913356957952" lon="12.84636779585544"><ele>631.0</ele><time>2026-04-11T09:35:10Z</time></trkpt><trkpt lat="43.28904989180532" lon="12.84630248889092"><ele>631.0</ele><time>2026-04-11T09:35:11Z</time></trkpt><trkpt lat="43.28895180276043" lon="12.84624784159798"><ele>631.0</ele><time>2026-04-11T09:35:12Z</time></trkpt><trkpt lat="43.28887055021955" lon="12.84615885631381"><ele>630.6666666666667</ele><time>2026-04-11T09:35:13Z</time></trkpt><trkpt lat="43.288799359081665" lon="12.84609163984823"><ele>630.3333333333334</ele><time>2026-04-11T09:35:14Z</time></trkpt><trkpt lat="43.28872696155325" lon="12.84601649419674"><ele>630.0</ele><time>2026-04-11T09:35:15Z</time></trkpt><trkpt lat="43.288667758506" lon="12.845948832260204"><ele>629.6666666666666</ele><time>2026-04-11T09:35:16Z</time></trkpt><trkpt lat="43.28860746323714" lon="12.845883156907723"><ele>629.3333333333333</ele><time>2026-04-11T09:35:17Z</time></trkpt><trkpt lat="43.28856209694808" lon="12.845798553580003"><ele>629.0</ele><time>2026-04-11T09:35:18Z</time></trkpt><trkpt lat="43.288523828105674" lon="12.845725644486231"><ele>623.2</ele><time>2026-04-11T09:35:19Z</time></trkpt><trkpt lat="43.28846990550178" lon="12.845662193639699"><ele>617.4</ele><time>2026-04-11T09:35:20Z</time></trkpt><trkpt lat="43.28837447380675" lon="12.84561646153295"><ele>611.6</ele><time>2026-04-11T09:35:22Z</time></trkpt><trkpt lat="43.28829157801308" lon="12.845621050070015"><ele>605.8</ele><time>2026-04-11T09:35:51.999Z</time></trkpt><trkpt lat="43.28819468406015" lon="12.845649904765803"><ele>600.0</ele><time>2026-04-11T09:35:53.999Z</time></trkpt><trkpt lat="43.28807402699349" lon="12.84567493709979"><ele>595.2</ele><time>2026-04-11T09:35:55.999Z</time></trkpt><trkpt lat="43.28797526308409" lon="12.845667221265312"><ele>590.4</ele><time>2026-04-11T09:35:56.999Z</time></trkpt><trkpt lat="43.287874435712205" lon="12.845667387768207"><ele>585.6</ele><time>2026-04-11T09:35:57.999Z</time></trkpt><trkpt lat="43.28777303071329" lon="12.845715948667667"><ele>580.8</ele><time>2026-04-11T09:35:58.999Z</time></trkpt><trkpt lat="43.28768440923658" lon="12.845744259960775"><ele>576.0</ele><time>2026-04-11T09:35:59.999Z</time></trkpt><trkpt lat="43.28760380632171" lon="12.845757599215435"><ele>576.0</ele><time>2026-04-11T09:36:00.999Z</time></trkpt><trkpt lat="43.28754300987266" lon="12.845793893221048"><ele>576.0</ele><time>2026-04-11T09:36:02.001Z</time></trkpt><trkpt lat="43.28746820371273" lon="12.845853676754967"><ele>576.0</ele><time>2026-04-11T09:36:03.001Z</time></trkpt><trkpt lat="43.28739225616707" lon="12.845899766613678"><ele>576.0</ele><time>2026-04-11T09:36:04.001Z</time></trkpt><trkpt lat="43.287277680923474" lon="12.84591083985737"><ele>576.0</ele><time>2026-04-11T09:36:06.001Z</time></trkpt><trkpt lat="43.28720193801327" lon="12.845911500837907"><ele>576.0</ele><time>2026-04-11T09:36:07.001Z</time></trkpt><trkpt lat="43.287120540986756" lon="12.84590363510399"><ele>574.8333333333334</ele><time>2026-04-11T09:36:08.001Z</time></trkpt><trkpt lat="43.28703476707384" lon="12.84590292447294"><ele>573.6666666666666</ele><time>2026-04-11T09:36:09.001Z</time></trkpt><trkpt lat="43.2869664132917" lon="12.845918519354827"><ele>572.5</ele><time>2026-04-11T09:36:10.001Z</time></trkpt><trkpt lat="43.28688968226522" lon="12.84590565523864"><ele>571.3333333333333</ele><time>2026-04-11T09:36:11.001Z</time></trkpt><trkpt lat="43.28678403191888" lon="12.845888897861526"><ele>570.1666666666666</ele><time>2026-04-11T09:36:13.001Z</time></trkpt><trkpt lat="43.286679292607296" lon="12.845876607332738"><ele>569.0</ele><time>2026-04-11T09:36:15.001Z</time></trkpt><trkpt lat="43.28659097834252" lon="12.84596243423857"><ele>569.0</ele><time>2026-04-11T09:36:17.001Z</time></trkpt><trkpt lat="43.286527550919544" lon="12.846035996723288"><ele>569.0</ele><time>2026-04-11T09:36:18.001Z</time></trkpt><trkpt lat="43.28645938279537" lon="12.846115408856921"><ele>569.0</ele><time>2026-04-11T09:36:19.001Z</time></trkpt><trkpt lat="43.28639352135308" lon="12.846184055840748"><ele>569.0</ele><time>2026-04-11T09:36:20.001Z</time></trkpt><trkpt lat="43.28633530681334" lon="12.846261047760464"><ele>569.0</ele><time>2026-04-11T09:36:21Z</time></trkpt><trkpt lat="43.28626847407354" lon="12.846333603218122"><ele>569.0</ele><time>2026-04-11T09:36:22Z</time></trkpt><trkpt lat="43.28618204412845" lon="12.846377480277301"><ele>564.1666666666666</ele><time>2026-04-11T09:36:23Z</time></trkpt><trkpt lat="43.28612111762844" lon="12.846411482972881"><ele>559.3333333333333</ele><time>2026-04-11T09:36:24Z</time></trkpt><trkpt lat="43.286059265987596" lon="12.846445000101406"><ele>554.5</ele><time>2026-04-11T09:36:25Z</time></trkpt><trkpt lat="43.28597446633095" lon="12.846356287056745"><ele>549.6666666666666</ele><time>2026-04-11T09:36:27Z</time></trkpt><trkpt lat="43.285962203186614" lon="12.84624499611811"><ele>544.8333333333334</ele><time>2026-04-11T09:36:28Z</time></trkpt><trkpt lat="43.28594792180828" lon="12.846129887305919"><ele>540.0</ele><time>2026-04-11T09:36:29Z</time></trkpt><trkpt lat="43.28592411004874" lon="12.846006621342328"><ele>537.0</ele><time>2026-04-11T09:36:30Z</time></trkpt><trkpt lat="43.28591570452687" lon="12.845859462243496"><ele>534.0</ele><time>2026-04-11T09:36:31Z</time></trkpt><trkpt lat="43.2859154879271" lon="12.845741632968043"><ele>531.0</ele><time>2026-04-11T09:36:32Z</time></trkpt><trkpt lat="43.28594231351868" lon="12.845647586948141"><ele>528.0</ele><time>2026-04-11T09:36:33Z</time></trkpt><trkpt lat="43.28594784628963" lon="12.845538975964217"><ele>525.0</ele><time>2026-04-11T09:36:34Z</time></trkpt><trkpt lat="43.285971696524136" lon="12.845421471396616"><ele>522.0</ele><time>2026-04-11T09:36:35Z</time></trkpt><trkpt lat="43.28600031088328" lon="12.845305879027634"><ele>522.0</ele><time>2026-04-11T09:36:36Z</time></trkpt><trkpt lat="43.28601949042831" lon="12.845187268766058"><ele>522.0</ele><time>2026-04-11T09:36:37Z</time></trkpt><trkpt lat="43.28604091468229" lon="12.845068359031009"><ele>522.0</ele><time>2026-04-11T09:36:38Z</time></trkpt><trkpt lat="43.286068349023296" lon="12.844953530361549"><ele>522.0</ele><time>2026-04-11T09:36:39Z</time></trkpt><trkpt lat="43.28609280737515" lon="12.844823110518004"><ele>522.0</ele><time>2026-04-11T09:36:40Z</time></trkpt><trkpt lat="43.28611135036049" lon="12.844665420708527"><ele>518.75</ele><time>2026-04-11T09:36:41Z</time></trkpt><trkpt lat="43.286131101697634" lon="12.844485292113276"><ele>515.5</ele><time>2026-04-11T09:36:42Z</time></trkpt><trkpt lat="43.28615392963103" lon="12.844280877809556"><ele>512.25</ele><time>2026-04-11T09:36:43Z</time></trkpt><trkpt lat="43.28616541685168" lon="12.844130524113902"><ele>509.0</ele><time>2026-04-11T09:36:44Z</time></trkpt><trkpt lat="43.286167098971056" lon="12.844019292766177"><ele>506.79999999999995</ele><time>2026-04-11T09:36:45Z</time></trkpt><trkpt lat="43.28618077710511" lon="12.843933401102927"><ele>504.59999999999997</ele><time>2026-04-11T09:36:46Z</time></trkpt><trkpt lat="43.286197062230805" lon="12.843803171314429"><ele>502.4</ele><time>2026-04-11T09:36:48Z</time></trkpt><trkpt lat="43.28624237152161" lon="12.84362777433141"><ele>500.2</ele><time>2026-04-11T09:36:50Z</time></trkpt><trkpt lat="43.28628386965416" lon="12.843525178461594"><ele>498.0</ele><time>2026-04-11T09:36:51Z</time></trkpt><trkpt lat="43.286314380217284" lon="12.843421709256921"><ele>497.85714285714283</ele><time>2026-04-11T09:36:52Z</time></trkpt><trkpt lat="43.28634024408117" lon="12.843334937168553"><ele>497.71428571428567</ele><time>2026-04-11T09:36:53Z</time></trkpt><trkpt lat="43.286369486128024" lon="12.843234859863388"><ele>497.57142857142856</ele><time>2026-04-11T09:36:54Z</time></trkpt><trkpt lat="43.28639634434146" lon="12.843131685701838"><ele>497.42857142857144</ele><time>2026-04-11T09:36:55Z</time></trkpt><trkpt lat="43.28640125213558" lon="12.843036687310692"><ele>497.2857142857143</ele><time>2026-04-11T09:36:56Z</time></trkpt><trkpt lat="43.28643051333261" lon="12.842948625252513"><ele>497.1428571428571</ele><time>2026-04-11T09:36:57Z</time></trkpt><trkpt lat="43.28647997550146" lon="12.84286711402648"><ele>497.0</ele><time>2026-04-11T09:36:58Z</time></trkpt><trkpt lat="43.28651914266973" lon="12.842734810270716"><ele>492.0</ele><time>2026-04-11T09:37:00Z</time></trkpt><trkpt lat="43.28649127236746" lon="12.842621056663935"><ele>487.00000000000006</ele><time>2026-04-11T09:37:02Z</time></trkpt><trkpt lat="43.28649969619105" lon="12.842482717927583"><ele>482.00000000000006</ele><time>2026-04-11T09:37:04Z</time></trkpt><trkpt lat="43.28651492548158" lon="12.842318677726798"><ele>477.0</ele><time>2026-04-11T09:37:06Z</time></trkpt><trkpt lat="43.286474680376195" lon="12.842217172452703"><ele>472.0</ele><time>2026-04-11T09:37:08Z</time></trkpt><trkpt lat="43.286404256407494" lon="12.842279763686065"><ele>469.50000000000006</ele><time>2026-04-11T09:37:10Z</time></trkpt><trkpt lat="43.286323780560195" lon="12.842354095868949"><ele>467.0</ele><time>2026-04-11T09:37:12Z</time></trkpt><trkpt lat="43.2862109588928" lon="12.84235326957109"><ele>464.5</ele><time>2026-04-11T09:37:14Z</time></trkpt><trkpt lat="43.28612232423871" lon="12.84235122502092"><ele>462.0</ele><time>2026-04-11T09:37:16Z</time></trkpt><trkpt lat="43.28606990879185" lon="12.842406501368977"><ele>459.50000000000006</ele><time>2026-04-11T09:37:18Z</time></trkpt><trkpt lat="43.286008551215424" lon="12.842457928998932"><ele>457.0</ele><time>2026-04-11T09:37:55.998Z</time></trkpt><trkpt lat="43.285907394399366" lon="12.84253517121304"><ele>457.0</ele><time>2026-04-11T09:37:57.998Z</time></trkpt><trkpt lat="43.285838821550215" lon="12.842594504446646"><ele>457.00000000000006</ele><time>2026-04-11T09:37:58.998Z</time></trkpt><trkpt lat="43.28575853558495" lon="12.842672641930953"><ele>457.00000000000006</ele><time>2026-04-11T09:37:59.998Z</time></trkpt><trkpt lat="43.28566083060614" lon="12.842766931083531"><ele>457.0</ele><time>2026-04-11T09:38:00.998Z</time></trkpt><trkpt lat="43.2855702906803" lon="12.84284618498699"><ele>457.0</ele><time>2026-04-11T09:38:01.998Z</time></trkpt><trkpt lat="43.285461573922966" lon="12.842923605183826"><ele>457.25</ele><time>2026-04-11T09:38:02.998Z</time></trkpt><trkpt lat="43.28535385518975" lon="12.842997542159399"><ele>457.5</ele><time>2026-04-11T09:38:03.998Z</time></trkpt><trkpt lat="43.28524631661118" lon="12.843063754888881"><ele>457.75</ele><time>2026-04-11T09:38:04.998Z</time></trkpt><trkpt lat="43.28514078431593" lon="12.843131345360119"><ele>458.0</ele><time>2026-04-11T09:38:05.998Z</time></trkpt><trkpt lat="43.28502944191747" lon="12.843211916249642"><ele>458.0</ele><time>2026-04-11T09:38:06.998Z</time></trkpt><trkpt lat="43.28493003473567" lon="12.843287477447753"><ele>457.99999999999994</ele><time>2026-04-11T09:38:08Z</time></trkpt><trkpt lat="43.28483620446817" lon="12.84337010884105"><ele>457.99999999999994</ele><time>2026-04-11T09:38:09Z</time></trkpt><trkpt lat="43.284752977110706" lon="12.84346262642218"><ele>458.0</ele><time>2026-04-11T09:38:10Z</time></trkpt><trkpt lat="43.28468582327236" lon="12.843548370263111"><ele>458.0</ele><time>2026-04-11T09:38:11Z</time></trkpt><trkpt lat="43.284637155584015" lon="12.843624705071758"><ele>457.8333333333333</ele><time>2026-04-11T09:38:12Z</time></trkpt><trkpt lat="43.28457468755565" lon="12.843720490261587"><ele>457.66666666666663</ele><time>2026-04-11T09:38:14Z</time></trkpt><trkpt lat="43.28450614989129" lon="12.84378835347804"><ele>457.5</ele><time>2026-04-11T09:38:25Z</time></trkpt><trkpt lat="43.28446096491531" lon="12.843848751957127"><ele>457.33333333333337</ele><time>2026-04-11T09:38:27Z</time></trkpt><trkpt lat="43.284407259203704" lon="12.843961321390953"><ele>457.1666666666667</ele><time>2026-04-11T09:38:28.999Z</time></trkpt><trkpt lat="43.28436956298743" lon="12.84408149484625"><ele>457.0</ele><time>2026-04-11T09:38:30.999Z</time></trkpt><trkpt lat="43.284332519055944" lon="12.844226333578685"><ele>459.33333333333337</ele><time>2026-04-11T09:38:32.999Z</time></trkpt><trkpt lat="43.28430195106867" lon="12.844303845737986"><ele>461.6666666666667</ele><time>2026-04-11T09:38:33.999Z</time></trkpt><trkpt lat="43.28425936012992" lon="12.844392511103509"><ele>464.0</ele><time>2026-04-11T09:38:34.999Z</time></trkpt><trkpt lat="43.28421170816635" lon="12.844488396320013"><ele>466.33333333333337</ele><time>2026-04-11T09:38:35.999Z</time></trkpt><trkpt lat="43.28416603401749" lon="12.844585174896869"><ele>468.6666666666667</ele><time>2026-04-11T09:38:36.999Z</time></trkpt><trkpt lat="43.2841175011068" lon="12.84468805676001"><ele>471.0</ele><time>2026-04-11T09:38:37.999Z</time></trkpt><trkpt lat="43.28406679621238" lon="12.844797019633965"><ele>471.0</ele><time>2026-04-11T09:38:38.999Z</time></trkpt><trkpt lat="43.284014811109266" lon="12.84491133807751"><ele>471.0</ele><time>2026-04-11T09:38:39.999Z</time></trkpt><trkpt lat="43.28395345359069" lon="12.845019907134363"><ele>471.0</ele><time>2026-04-11T09:38:40.999Z</time></trkpt><trkpt lat="43.28388001818753" lon="12.84511414036817"><ele>471.0</ele><time>2026-04-11T09:38:41.999Z</time></trkpt><trkpt lat="43.28380155059712" lon="12.845202841927051"><ele>471.0</ele><time>2026-04-11T09:38:42.999Z</time></trkpt><trkpt lat="43.28371083949208" lon="12.845283017784391"><ele>471.8333333333333</ele><time>2026-04-11T09:38:43.999Z</time></trkpt><trkpt lat="43.283607469664304" lon="12.845347132423479"><ele>472.66666666666663</ele><time>2026-04-11T09:38:44.999Z</time></trkpt><trkpt lat="43.28351273644406" lon="12.845384551195421"><ele>473.5</ele><time>2026-04-11T09:38:45.999Z</time></trkpt><trkpt lat="43.283432529133805" lon="12.845403325656823"><ele>474.3333333333333</ele><time>2026-04-11T09:38:46.999Z</time></trkpt><trkpt lat="43.28335837435022" lon="12.845394360024144"><ele>475.16666666666663</ele><time>2026-04-11T09:38:47.999Z</time></trkpt><trkpt lat="43.28328554197711" lon="12.845358253654203"><ele>476.0</ele><time>2026-04-11T09:38:48.999Z</time></trkpt><trkpt lat="43.28319136693328" lon="12.845263268643865"><ele>476.0</ele><time>2026-04-11T09:38:50.999Z</time></trkpt><trkpt lat="43.283135878050096" lon="12.845159704732605"><ele>476.0</ele><time>2026-04-11T09:38:52.999Z</time></trkpt><trkpt lat="43.28308577272357" lon="12.845100735949993"><ele>476.0</ele><time>2026-04-11T09:38:54.999Z</time></trkpt><trkpt lat="43.28300544975013" lon="12.845012501038713"><ele>476.0</ele><time>2026-04-11T09:49:24.999Z</time></trkpt><trkpt lat="43.28292129082366" lon="12.8448975557828"><ele>476.0</ele><time>2026-04-11T09:49:26.999Z</time></trkpt><trkpt lat="43.28286647677862" lon="12.844830231196365"><ele>472.0</ele><time>2026-04-11T09:49:27.999Z</time></trkpt><trkpt lat="43.28280928476062" lon="12.844752112997407"><ele>468.0</ele><time>2026-04-11T09:49:28.999Z</time></trkpt><trkpt lat="43.28273294455624" lon="12.844656612194196"><ele>464.0</ele><time>2026-04-11T09:49:29.999Z</time></trkpt><trkpt lat="43.282645832844544" lon="12.844550753096623"><ele>460.0</ele><time>2026-04-11T09:49:30.999Z</time></trkpt><trkpt lat="43.28256990955118" lon="12.844441494833909"><ele>456.0</ele><time>2026-04-11T09:49:31.999Z</time></trkpt><trkpt lat="43.28247936292487" lon="12.844309077207495"><ele>458.0</ele><time>2026-04-11T09:49:32.999Z</time></trkpt><trkpt lat="43.28236273671197" lon="12.844150526300487"><ele>460.0</ele><time>2026-04-11T09:49:33.999Z</time></trkpt><trkpt lat="43.282246217104536" lon="12.843992863077974"><ele>462.0</ele><time>2026-04-11T09:49:34.999Z</time></trkpt><trkpt lat="43.28214007332198" lon="12.843844988931709"><ele>463.40000000000003</ele><time>2026-04-11T09:49:35.999Z</time></trkpt><trkpt lat="43.28205433531139" lon="12.843733786228375"><ele>464.80000000000007</ele><time>2026-04-11T09:49:36.999Z</time></trkpt><trkpt lat="43.28197446185281" lon="12.843667952508714"><ele>466.2</ele><time>2026-04-11T09:49:37.999Z</time></trkpt><trkpt lat="43.28190357226335" lon="12.84361562320587"><ele>467.6</ele><time>2026-04-11T09:49:38.999Z</time></trkpt><trkpt lat="43.2818119780192" lon="12.84363460883768"><ele>469.0</ele><time>2026-04-11T09:49:39.999Z</time></trkpt><trkpt lat="43.28174960798458" lon="12.843836317802243"><ele>469.0</ele><time>2026-04-11T09:49:40.999Z</time></trkpt><trkpt lat="43.281668181046484" lon="12.84395156219815"><ele>469.0</ele><time>2026-04-11T09:49:41.999Z</time></trkpt><trkpt lat="43.28160185544824" lon="12.844049998781149"><ele>469.0</ele><time>2026-04-11T09:49:42.999Z</time></trkpt><trkpt lat="43.28150328698248" lon="12.844091346857546"><ele>469.0</ele><time>2026-04-11T09:49:43.999Z</time></trkpt><trkpt lat="43.2814027635542" lon="12.844125421960285"><ele>469.0</ele><time>2026-04-11T09:49:44.999Z</time></trkpt><trkpt lat="43.28129315397778" lon="12.84415939692779"><ele>473.75</ele><time>2026-04-11T09:49:45.999Z</time></trkpt><trkpt lat="43.281175192366504" lon="12.844194950577274"><ele>478.5</ele><time>2026-04-11T09:49:46.999Z</time></trkpt><trkpt lat="43.281058597121884" lon="12.844227430262999"><ele>483.25</ele><time>2026-04-11T09:49:47.999Z</time></trkpt><trkpt lat="43.280937174794886" lon="12.844248764712093"><ele>488.0</ele><time>2026-04-11T09:49:48.999Z</time></trkpt><trkpt lat="43.28082036586583" lon="12.844249294699798"><ele>488.0</ele><time>2026-04-11T09:49:49.999Z</time></trkpt><trkpt lat="43.28069721217224" lon="12.844227209867128"><ele>488.0</ele><time>2026-04-11T09:49:50.999Z</time></trkpt><trkpt lat="43.280574029726125" lon="12.844200543182664"><ele>488.0</ele><time>2026-04-11T09:49:51.999Z</time></trkpt><trkpt lat="43.2804545327792" lon="12.844191465169784"><ele>488.0</ele><time>2026-04-11T09:49:52.999Z</time></trkpt><trkpt lat="43.28033667869393" lon="12.844164881321097"><ele>488.5</ele><time>2026-04-11T09:49:53.999Z</time></trkpt><trkpt lat="43.28021950667223" lon="12.844133868683521"><ele>489.0</ele><time>2026-04-11T09:49:54.999Z</time></trkpt><trkpt lat="43.28009083078759" lon="12.844107313154328"><ele>489.5</ele><time>2026-04-11T09:49:55.999Z</time></trkpt><trkpt lat="43.2799540879829" lon="12.84408102750772"><ele>490.0</ele><time>2026-04-11T09:49:56.999Z</time></trkpt><trkpt lat="43.2798146885248" lon="12.844055280877933"><ele>489.5</ele><time>2026-04-11T09:49:57.999Z</time></trkpt><trkpt lat="43.27967797178658" lon="12.844020956163337"><ele>489.0</ele><time>2026-04-11T09:49:58.999Z</time></trkpt><trkpt lat="43.279549343451485" lon="12.843976918875539"><ele>488.5</ele><time>2026-04-11T09:49:59.999Z</time></trkpt><trkpt lat="43.27942610023975" lon="12.843923610485298"><ele>488.0</ele><time>2026-04-11T09:50:00.999Z</time></trkpt><trkpt lat="43.27931120768583" lon="12.843868413888668"><ele>488.0</ele><time>2026-04-11T09:50:01.999Z</time></trkpt><trkpt lat="43.27920573745783" lon="12.843794159926759"><ele>487.99999999999994</ele><time>2026-04-11T09:50:02.999Z</time></trkpt><trkpt lat="43.27909687755668" lon="12.843759797838379"><ele>487.99999999999994</ele><time>2026-04-11T09:50:03.999Z</time></trkpt><trkpt lat="43.27900594915567" lon="12.843696028033003"><ele>488.0</ele><time>2026-04-11T09:50:04.999Z</time></trkpt><trkpt lat="43.278923246211164" lon="12.84366538539618"><ele>488.0</ele><time>2026-04-11T09:50:05.999Z</time></trkpt><trkpt lat="43.27888406099776" lon="12.843592896389538"><ele>488.0</ele><time>2026-04-11T09:50:06.999Z</time></trkpt><trkpt lat="43.27895773547287" lon="12.843467344354549"><ele>487.99999999999994</ele><time>2026-04-11T09:50:08.999Z</time></trkpt><trkpt lat="43.27902312272805" lon="12.843553506390311"><ele>487.99999999999994</ele><time>2026-04-11T09:50:09.999Z</time></trkpt><trkpt lat="43.27911426136295" lon="12.84359794695095"><ele>488.0</ele><time>2026-04-11T09:50:10.999Z</time></trkpt><trkpt lat="43.27920690734824" lon="12.843667051198683"><ele>488.0</ele><time>2026-04-11T09:50:11.999Z</time></trkpt><trkpt lat="43.279308070998646" lon="12.84373098255435"><ele>488.0</ele><time>2026-04-11T09:50:12.999Z</time></trkpt><trkpt lat="43.279426356285725" lon="12.843780796085746"><ele>488.0</ele><time>2026-04-11T09:50:13.999Z</time></trkpt><trkpt lat="43.279545658155776" lon="12.843803579310853"><ele>488.0</ele><time>2026-04-11T09:50:14.999Z</time></trkpt><trkpt lat="43.27967467337443" lon="12.8438069300666"><ele>488.0</ele><time>2026-04-11T09:50:15.999Z</time></trkpt><trkpt lat="43.27980996835781" lon="12.843819199104495"><ele>488.4</ele><time>2026-04-11T09:50:16.999Z</time></trkpt><trkpt lat="43.279940481782404" lon="12.843834706785032"><ele>488.79999999999995</ele><time>2026-04-11T09:50:17.999Z</time></trkpt><trkpt lat="43.28006333268769" lon="12.843847719344064"><ele>489.2</ele><time>2026-04-11T09:50:18.999Z</time></trkpt><trkpt lat="43.28016609099062" lon="12.843859865143372"><ele>489.6</ele><time>2026-04-11T09:50:19.999Z</time></trkpt><trkpt lat="43.28024199119723" lon="12.843856997956612"><ele>490.0</ele><time>2026-04-11T09:50:20.999Z</time></trkpt><trkpt lat="43.28028353286698" lon="12.843714516497748"><ele>490.00000000000006</ele><time>2026-04-11T09:50:22.999Z</time></trkpt><trkpt lat="43.28023226415583" lon="12.843645640619053"><ele>490.0</ele><time>2026-04-11T09:50:23.999Z</time></trkpt><trkpt lat="43.28014201593697" lon="12.843643386631525"><ele>490.0</ele><time>2026-04-11T09:50:24.999Z</time></trkpt><trkpt lat="43.28004958517149" lon="12.843630079501887"><ele>490.0</ele><time>2026-04-11T09:50:25.999Z</time></trkpt><trkpt lat="43.279960176534296" lon="12.843621927407984"><ele>490.00000000000006</ele><time>2026-04-11T09:50:26.999Z</time></trkpt><trkpt lat="43.27987573701227" lon="12.843610050134526"><ele>490.0</ele><time>2026-04-11T09:50:27.999Z</time></trkpt><trkpt lat="43.2797840308973" lon="12.84359715074014"><ele>489.6666666666667</ele><time>2026-04-11T09:50:28.999Z</time></trkpt><trkpt lat="43.27969617431732" lon="12.843584792825531"><ele>489.33333333333337</ele><time>2026-04-11T09:50:29.999Z</time></trkpt><trkpt lat="43.27960258883322" lon="12.843565945402394"><ele>489.0</ele><time>2026-04-11T09:50:30.999Z</time></trkpt><trkpt lat="43.27951623181836" lon="12.843570659323667"><ele>488.66666666666663</ele><time>2026-04-11T09:50:31.999Z</time></trkpt><trkpt lat="43.27944291908203" lon="12.843527485853537"><ele>488.3333333333333</ele><time>2026-04-11T09:50:32.999Z</time></trkpt><trkpt lat="43.27937793411902" lon="12.843462685569891"><ele>488.0</ele><time>2026-04-11T09:50:33.999Z</time></trkpt><trkpt lat="43.27934410769774" lon="12.84336152858327"><ele>492.49999999999994</ele><time>2026-04-11T09:50:34.999Z</time></trkpt><trkpt lat="43.27928728810552" lon="12.843283328276707"><ele>497.0</ele><time>2026-04-11T09:50:35.999Z</time></trkpt><trkpt lat="43.27925188477269" lon="12.84318249244086"><ele>501.5</ele><time>2026-04-11T09:50:36.999Z</time></trkpt><trkpt lat="43.27921086190486" lon="12.843082231587719"><ele>506.0</ele><time>2026-04-11T09:50:37.999Z</time></trkpt><trkpt lat="43.27915193834261" lon="12.842991936736787"><ele>510.49999999999994</ele><time>2026-04-11T09:50:38.999Z</time></trkpt><trkpt lat="43.279081941122506" lon="12.842926297875806"><ele>515.0</ele><time>2026-04-11T09:50:39.999Z</time></trkpt><trkpt lat="43.27899725933881" lon="12.842911692650485"><ele>516.4</ele><time>2026-04-11T09:50:40.999Z</time></trkpt><trkpt lat="43.2789039862674" lon="12.842917020220195"><ele>517.8</ele><time>2026-04-11T09:50:42Z</time></trkpt><trkpt lat="43.27880790135212" lon="12.842961471353863"><ele>519.2</ele><time>2026-04-11T09:50:43Z</time></trkpt><trkpt lat="43.27872172717419" lon="12.843017318705932"><ele>520.6</ele><time>2026-04-11T09:50:44Z</time></trkpt><trkpt lat="43.27864152435376" lon="12.843058911244023"><ele>522.0</ele><time>2026-04-11T09:50:45Z</time></trkpt><trkpt lat="43.27856358257622" lon="12.843088722396043"><ele>522.0</ele><time>2026-04-11T09:50:46Z</time></trkpt><trkpt lat="43.278477418133185" lon="12.843056193079217"><ele>522.0</ele><time>2026-04-11T09:50:48Z</time></trkpt><trkpt lat="43.278487992633565" lon="12.842945053397608"><ele>522.0</ele><time>2026-04-11T09:50:49Z</time></trkpt><trkpt lat="43.278549362861824" lon="12.842873315085159"><ele>522.0</ele><time>2026-04-11T09:50:50Z</time></trkpt><trkpt lat="43.278637839456714" lon="12.842879150779826"><ele>522.0</ele><time>2026-04-11T09:50:51Z</time></trkpt><trkpt lat="43.2787121070399" lon="12.842837834652432"><ele>522.0</ele><time>2026-04-11T09:50:52Z</time></trkpt><trkpt lat="43.278781463991265" lon="12.842817591359953"><ele>522.0</ele><time>2026-04-11T09:50:53Z</time></trkpt><trkpt lat="43.27885911695688" lon="12.842789247637201"><ele>522.0</ele><time>2026-04-11T09:50:54Z</time></trkpt><trkpt lat="43.27893573018881" lon="12.84276930214008"><ele>522.0</ele><time>2026-04-11T09:50:55Z</time></trkpt><trkpt lat="43.27901761197879" lon="12.842757358880785"><ele>522.0</ele><time>2026-04-11T09:50:56Z</time></trkpt><trkpt lat="43.27908968928119" lon="12.842753708990532"><ele>522.0</ele><time>2026-04-11T09:50:57Z</time></trkpt><trkpt lat="43.27916012157615" lon="12.84275794536496"><ele>522.0</ele><time>2026-04-11T09:50:58Z</time></trkpt><trkpt lat="43.27928214237545" lon="12.842805420339797"><ele>522.8000000000001</ele><time>2026-04-11T09:51:00Z</time></trkpt><trkpt lat="43.27939743304965" lon="12.842850255223821"><ele>523.6</ele><time>2026-04-11T09:51:02Z</time></trkpt><trkpt lat="43.27947218948546" lon="12.842763280000318"><ele>524.4000000000001</ele><time>2026-04-11T09:51:04Z</time></trkpt><trkpt lat="43.27948736660603" lon="12.842678951297183"><ele>525.2</ele><time>2026-04-11T09:51:05Z</time></trkpt><trkpt lat="43.27948104264939" lon="12.842524671767505"><ele>526.0</ele><time>2026-04-11T09:51:07Z</time></trkpt><trkpt lat="43.27942579786842" lon="12.842400423636693"><ele>526.0</ele><time>2026-04-11T09:51:09Z</time></trkpt><trkpt lat="43.27932476491183" lon="12.842309369539583"><ele>526.0</ele><time>2026-04-11T09:51:11Z</time></trkpt><trkpt lat="43.279213719265" lon="12.84225094838713"><ele>526.0</ele><time>2026-04-11T09:51:13Z</time></trkpt><trkpt lat="43.27912174258032" lon="12.842214787870377"><ele>526.0</ele><time>2026-04-11T09:51:15Z</time></trkpt><trkpt lat="43.27904734725721" lon="12.842090196318116"><ele>526.0</ele><time>2026-04-11T09:51:16.999Z</time></trkpt><trkpt lat="43.27897772017792" lon="12.842040763215453"><ele>526.0</ele><time>2026-04-11T09:51:17.999Z</time></trkpt><trkpt lat="43.27888559384457" lon="12.842013290172329"><ele>526.0</ele><time>2026-04-11T09:51:18.999Z</time></trkpt><trkpt lat="43.27880153407605" lon="12.841940507012975"><ele>526.0</ele><time>2026-04-11T09:51:19.999Z</time></trkpt><trkpt lat="43.278719787108884" lon="12.841887481422708"><ele>526.0</ele><time>2026-04-11T09:51:20.999Z</time></trkpt><trkpt lat="43.278656545384415" lon="12.841828562591083"><ele>526.0</ele><time>2026-04-11T09:51:21.999Z</time></trkpt><trkpt lat="43.27858994659955" lon="12.841750154304448"><ele>526.5</ele><time>2026-04-11T09:51:22.999Z</time></trkpt><trkpt lat="43.278542763663566" lon="12.841655037840663"><ele>527.0</ele><time>2026-04-11T09:51:23.999Z</time></trkpt><trkpt lat="43.27848732353902" lon="12.841533176890012"><ele>527.5</ele><time>2026-04-11T09:51:24.999Z</time></trkpt><trkpt lat="43.27842792706075" lon="12.841430534821827"><ele>528.0</ele><time>2026-04-11T09:51:25.999Z</time></trkpt><trkpt lat="43.278368161219305" lon="12.84134102575896"><ele>528.5</ele><time>2026-04-11T09:51:26.999Z</time></trkpt><trkpt lat="43.27832685887975" lon="12.841263134491127"><ele>529.0</ele><time>2026-04-11T09:51:27.999Z</time></trkpt><trkpt lat="43.27827132262427" lon="12.841195992315496"><ele>529.0</ele><time>2026-04-11T09:51:28.999Z</time></trkpt><trkpt lat="43.27832327056461" lon="12.841036742633097"><ele>529.0</ele><time>2026-04-11T09:51:29.999Z</time></trkpt><trkpt lat="43.27833324182457" lon="12.840911117362893"><ele>529.0</ele><time>2026-04-11T09:51:30.999Z</time></trkpt><trkpt lat="43.27835298694496" lon="12.840786888846088"><ele>529.0</ele><time>2026-04-11T09:51:31.999Z</time></trkpt><trkpt lat="43.27838873205759" lon="12.840663680958977"><ele>529.0</ele><time>2026-04-11T09:51:32.999Z</time></trkpt><trkpt lat="43.278417170081894" lon="12.840533830424157"><ele>528.4</ele><time>2026-04-11T09:51:33.999Z</time></trkpt><trkpt lat="43.2784240693192" lon="12.84041972083841"><ele>527.8</ele><time>2026-04-11T09:51:34.999Z</time></trkpt><trkpt lat="43.27843066162155" lon="12.840299905883827"><ele>527.2</ele><time>2026-04-11T09:51:35.999Z</time></trkpt><trkpt lat="43.278444814026166" lon="12.84016131078732"><ele>526.6</ele><time>2026-04-11T09:51:36.999Z</time></trkpt><trkpt lat="43.278449057775674" lon="12.840027651201881"><ele>526.0</ele><time>2026-04-11T09:51:37.999Z</time></trkpt><trkpt lat="43.278438856636754" lon="12.839897975648185"><ele>526.0</ele><time>2026-04-11T09:51:38.999Z</time></trkpt><trkpt lat="43.27841711028884" lon="12.839783617169877"><ele>526.0</ele><time>2026-04-11T09:51:39.999Z</time></trkpt><trkpt lat="43.27845360477671" lon="12.839623875042355"><ele>526.0</ele><time>2026-04-11T09:51:41.999Z</time></trkpt><trkpt lat="43.27847492022811" lon="12.839508702661167"><ele>526.0</ele><time>2026-04-11T09:51:42.999Z</time></trkpt><trkpt lat="43.27848199050472" lon="12.839370647376251"><ele>526.0</ele><time>2026-04-11T09:51:43.999Z</time></trkpt><trkpt lat="43.278482046713975" lon="12.839250465474926"><ele>526.5</ele><time>2026-04-11T09:51:44.999Z</time></trkpt><trkpt lat="43.27851495129053" lon="12.839158193801046"><ele>527.0</ele><time>2026-04-11T09:51:45.999Z</time></trkpt><trkpt lat="43.278582459165804" lon="12.83902192138515"><ele>527.5</ele><time>2026-04-11T09:51:47.999Z</time></trkpt><trkpt lat="43.278595886522204" lon="12.838932275045929"><ele>528.0</ele><time>2026-04-11T09:51:48.999Z</time></trkpt><trkpt lat="43.27861011984718" lon="12.83884121767008"><ele>528.5</ele><time>2026-04-11T09:51:49.999Z</time></trkpt><trkpt lat="43.27863034091324" lon="12.838752849763228"><ele>529.0</ele><time>2026-04-11T09:51:50.999Z</time></trkpt><trkpt lat="43.278650388959434" lon="12.838662846473552"><ele>529.0</ele><time>2026-04-11T09:51:51.999Z</time></trkpt><trkpt lat="43.278672833403924" lon="12.838568589387469"><ele>529.0</ele><time>2026-04-11T09:51:52.999Z</time></trkpt><trkpt lat="43.278695416147734" lon="12.838485308395223"><ele>529.0</ele><time>2026-04-11T09:51:53.999Z</time></trkpt><trkpt lat="43.27872593408124" lon="12.838371642700748"><ele>529.0</ele><time>2026-04-11T09:51:54.999Z</time></trkpt><trkpt lat="43.278746216158936" lon="12.838263484543855"><ele>529.0</ele><time>2026-04-11T09:51:55.999Z</time></trkpt><trkpt lat="43.278768025100916" lon="12.83814519836486"><ele>529.0</ele><time>2026-04-11T09:51:56.999Z</time></trkpt><trkpt lat="43.27880228874915" lon="12.838025130245464"><ele>529.8333333333334</ele><time>2026-04-11T09:51:57.999Z</time></trkpt><trkpt lat="43.27884052504084" lon="12.837909354192172"><ele>530.6666666666667</ele><time>2026-04-11T09:51:58.999Z</time></trkpt><trkpt lat="43.278872008636036" lon="12.837820986339038"><ele>531.5</ele><time>2026-04-11T09:51:59.999Z</time></trkpt><trkpt lat="43.27889634289581" lon="12.837726219048015"><ele>532.3333333333334</ele><time>2026-04-11T09:52:00.999Z</time></trkpt><trkpt lat="43.278895510510374" lon="12.837637728444435"><ele>533.1666666666666</ele><time>2026-04-11T09:52:01.999Z</time></trkpt><trkpt lat="43.27887098565054" lon="12.837540135150629"><ele>534.0</ele><time>2026-04-11T09:52:02.999Z</time></trkpt><trkpt lat="43.27882932267409" lon="12.837455160983707"><ele>534.1666666666666</ele><time>2026-04-11T09:52:03.999Z</time></trkpt><trkpt lat="43.278799733243915" lon="12.837372557138007"><ele>534.3333333333334</ele><time>2026-04-11T09:52:05.999Z</time></trkpt><trkpt lat="43.27872156287868" lon="12.837251898564014"><ele>534.5</ele><time>2026-04-11T09:52:08.999Z</time></trkpt><trkpt lat="43.27867918387843" lon="12.83717694534923"><ele>534.6666666666667</ele><time>2026-04-11T09:52:09.999Z</time></trkpt><trkpt lat="43.27863220234119" lon="12.837081922313043"><ele>534.8333333333334</ele><time>2026-04-11T09:52:10.999Z</time></trkpt><trkpt lat="43.27857529320249" lon="12.836955589008136"><ele>535.0</ele><time>2026-04-11T09:52:11.999Z</time></trkpt><trkpt lat="43.27854022445488" lon="12.836819586586577"><ele>534.6</ele><time>2026-04-11T09:52:12.999Z</time></trkpt><trkpt lat="43.278522201816834" lon="12.836699896584292"><ele>534.2</ele><time>2026-04-11T09:52:13.999Z</time></trkpt><trkpt lat="43.27848344747703" lon="12.836568522172456"><ele>533.8</ele><time>2026-04-11T09:52:14.999Z</time></trkpt><trkpt lat="43.27843296563736" lon="12.836464404983701"><ele>533.4</ele><time>2026-04-11T09:52:15.999Z</time></trkpt><trkpt lat="43.278378498174085" lon="12.836373458806312"><ele>533.0</ele><time>2026-04-11T09:52:16.999Z</time></trkpt><trkpt lat="43.27832540911742" lon="12.836276036189572"><ele>533.0</ele><time>2026-04-11T09:52:17.999Z</time></trkpt><trkpt lat="43.278272456056634" lon="12.836180088678317"><ele>533.0</ele><time>2026-04-11T09:52:18.999Z</time></trkpt><trkpt lat="43.27821420671631" lon="12.836084560324037"><ele>533.0</ele><time>2026-04-11T09:52:19.999Z</time></trkpt><trkpt lat="43.27815296726758" lon="12.835991061788757"><ele>533.0</ele><time>2026-04-11T09:52:20.999Z</time></trkpt><trkpt lat="43.27809754462873" lon="12.835910099493734"><ele>533.0</ele><time>2026-04-11T09:52:21.999Z</time></trkpt><trkpt lat="43.278059351909555" lon="12.835820148351855"><ele>533.0</ele><time>2026-04-11T09:52:22.999Z</time></trkpt><trkpt lat="43.278019500056374" lon="12.835711526515729"><ele>538.5</ele><time>2026-04-11T09:52:23.999Z</time></trkpt><trkpt lat="43.2779926223069" lon="12.835603601953292"><ele>544.0</ele><time>2026-04-11T09:52:24.999Z</time></trkpt><trkpt lat="43.277987616026536" lon="12.835482729583973"><ele>549.5</ele><time>2026-04-11T09:52:25.999Z</time></trkpt><trkpt lat="43.2779830520798" lon="12.835373031203117"><ele>555.0</ele><time>2026-04-11T09:52:26.999Z</time></trkpt><trkpt lat="43.277980877103325" lon="12.835251290493547"><ele>560.5</ele><time>2026-04-11T09:52:27.999Z</time></trkpt><trkpt lat="43.277968277190176" lon="12.83512214341951"><ele>566.0</ele><time>2026-04-11T09:52:28.999Z</time></trkpt><trkpt lat="43.277956350795186" lon="12.835001847527167"><ele>566.4</ele><time>2026-04-11T09:52:29.999Z</time></trkpt><trkpt lat="43.27794320073793" lon="12.834887938354512"><ele>566.8</ele><time>2026-04-11T09:52:30.999Z</time></trkpt><trkpt lat="43.27791542525547" lon="12.834760629465027"><ele>567.1999999999999</ele><time>2026-04-11T09:52:31.999Z</time></trkpt><trkpt lat="43.27789116178491" lon="12.834644923374766"><ele>567.6</ele><time>2026-04-11T09:52:32.999Z</time></trkpt><trkpt lat="43.27787137785051" lon="12.834518228974758"><ele>568.0</ele><time>2026-04-11T09:52:33.999Z</time></trkpt><trkpt lat="43.277847717040125" lon="12.83437115239894"><ele>566.8</ele><time>2026-04-11T09:52:34.999Z</time></trkpt><trkpt lat="43.27781336879874" lon="12.834237692450438"><ele>565.5999999999999</ele><time>2026-04-11T09:52:35.999Z</time></trkpt><trkpt lat="43.27776914222142" lon="12.834108818031336"><ele>564.4000000000001</ele><time>2026-04-11T09:52:36.999Z</time></trkpt><trkpt lat="43.27771496500648" lon="12.833973972006449"><ele>563.2</ele><time>2026-04-11T09:52:37.999Z</time></trkpt><trkpt lat="43.277666650576485" lon="12.833860859169667"><ele>562.0</ele><time>2026-04-11T09:52:38.999Z</time></trkpt><trkpt lat="43.27763042023437" lon="12.833771255096035"><ele>562.0</ele><time>2026-04-11T09:52:39.999Z</time></trkpt><trkpt lat="43.27757104371437" lon="12.833683089197914"><ele>562.0</ele><time>2026-04-11T09:52:40.999Z</time></trkpt><trkpt lat="43.27749165325771" lon="12.83358780152262"><ele>562.0</ele><time>2026-04-11T09:52:41.999Z</time></trkpt><trkpt lat="43.2774041861011" lon="12.833484647878848"><ele>562.0</ele><time>2026-04-11T09:52:42.999Z</time></trkpt><trkpt lat="43.27733263732668" lon="12.833392183154725"><ele>562.0</ele><time>2026-04-11T09:52:43.999Z</time></trkpt><trkpt lat="43.27728245166743" lon="12.833325611523758"><ele>570.2</ele><time>2026-04-11T09:52:44.999Z</time></trkpt><trkpt lat="43.27724944752282" lon="12.833235842882646"><ele>578.4000000000001</ele><time>2026-04-11T09:52:45.999Z</time></trkpt><trkpt lat="43.277231405992424" lon="12.83310867479374"><ele>586.5999999999999</ele><time>2026-04-11T09:52:46.999Z</time></trkpt><trkpt lat="43.27724231878941" lon="12.832964559371893"><ele>594.8</ele><time>2026-04-11T09:52:48Z</time></trkpt><trkpt lat="43.27723808616058" lon="12.832815447651262"><ele>603.0</ele><time>2026-04-11T09:52:49Z</time></trkpt><trkpt lat="43.27722115209674" lon="12.832693173226238"><ele>604.1999999999999</ele><time>2026-04-11T09:52:50Z</time></trkpt><trkpt lat="43.27719939441816" lon="12.8325618035582"><ele>605.4</ele><time>2026-04-11T09:52:51Z</time></trkpt><trkpt lat="43.27719577760178" lon="12.832433937042243"><ele>606.5999999999999</ele><time>2026-04-11T09:52:52Z</time></trkpt><trkpt lat="43.27719522029391" lon="12.83231778128253"><ele>607.8</ele><time>2026-04-11T09:52:53Z</time></trkpt><trkpt lat="43.27715787794414" lon="12.83220583511695"><ele>609.0</ele><time>2026-04-11T09:52:54Z</time></trkpt><trkpt lat="43.277091042594066" lon="12.832117029199713"><ele>609.0</ele><time>2026-04-11T09:52:55Z</time></trkpt><trkpt lat="43.27702793532797" lon="12.832017567038708"><ele>609.0</ele><time>2026-04-11T09:52:56Z</time></trkpt><trkpt lat="43.276976600821165" lon="12.831903417196598"><ele>609.0</ele><time>2026-04-11T09:52:57Z</time></trkpt><trkpt lat="43.27692058840592" lon="12.831766670375215"><ele>609.0</ele><time>2026-04-11T09:52:58Z</time></trkpt><trkpt lat="43.276871112622786" lon="12.831631247594864"><ele>609.0</ele><time>2026-04-11T09:52:59Z</time></trkpt><trkpt lat="43.276820703098046" lon="12.831509847993912"><ele>610.5</ele><time>2026-04-11T09:53:00Z</time></trkpt><trkpt lat="43.27677103358106" lon="12.83137364322326"><ele>612.0</ele><time>2026-04-11T09:53:01Z</time></trkpt><trkpt lat="43.276734650277305" lon="12.831224103995032"><ele>613.5</ele><time>2026-04-11T09:53:02Z</time></trkpt><trkpt lat="43.276717755277986" lon="12.831074194413056"><ele>615.0</ele><time>2026-04-11T09:53:03Z</time></trkpt><trkpt lat="43.2767040557707" lon="12.830900820118595"><ele>616.1666666666666</ele><time>2026-04-11T09:53:04Z</time></trkpt><trkpt lat="43.27670661169969" lon="12.830752479543227"><ele>617.3333333333334</ele><time>2026-04-11T09:53:05Z</time></trkpt><trkpt lat="43.27669492183327" lon="12.830666825954502"><ele>618.5</ele><time>2026-04-11T09:53:06Z</time></trkpt><trkpt lat="43.276695468590255" lon="12.830577713832831"><ele>619.6666666666667</ele><time>2026-04-11T09:53:07Z</time></trkpt><trkpt lat="43.276697033271596" lon="12.830470130700014"><ele>620.8333333333334</ele><time>2026-04-11T09:53:08Z</time></trkpt><trkpt lat="43.27670423491641" lon="12.830349973202196"><ele>622.0</ele><time>2026-04-11T09:53:09Z</time></trkpt><trkpt lat="43.27672157004443" lon="12.830233211609478"><ele>623.0</ele><time>2026-04-11T09:53:10Z</time></trkpt><trkpt lat="43.27672696810801" lon="12.830137084894458"><ele>624.0</ele><time>2026-04-11T09:53:11Z</time></trkpt><trkpt lat="43.27672749505226" lon="12.829982561432383"><ele>625.0</ele><time>2026-04-11T09:53:13Z</time></trkpt><trkpt lat="43.27672665887579" lon="12.829881111089096"><ele>626.0</ele><time>2026-04-11T09:53:14Z</time></trkpt><trkpt lat="43.276719710732216" lon="12.829748749249505"><ele>627.0</ele><time>2026-04-11T09:53:15Z</time></trkpt><trkpt lat="43.27671473084093" lon="12.829609195178683"><ele>627.0</ele><time>2026-04-11T09:53:16Z</time></trkpt><trkpt lat="43.27669601457105" lon="12.829455347959604"><ele>627.0</ele><time>2026-04-11T09:53:17Z</time></trkpt><trkpt lat="43.27667529167213" lon="12.829326020749319"><ele>627.0</ele><time>2026-04-11T09:53:18Z</time></trkpt><trkpt lat="43.27664408632198" lon="12.829205053980113"><ele>627.0</ele><time>2026-04-11T09:53:19Z</time></trkpt><trkpt lat="43.27661540327553" lon="12.829085811059677"><ele>627.0</ele><time>2026-04-11T09:53:20Z</time></trkpt><trkpt lat="43.27662813745353" lon="12.828962990632013"><ele>627.6666666666666</ele><time>2026-04-11T09:53:21Z</time></trkpt><trkpt lat="43.27667753976339" lon="12.82885306523952"><ele>628.3333333333334</ele><time>2026-04-11T09:53:22Z</time></trkpt><trkpt lat="43.27673948051486" lon="12.828758039173724"><ele>629.0</ele><time>2026-04-11T09:53:23Z</time></trkpt><trkpt lat="43.276787536721834" lon="12.828658847447937"><ele>629.6666666666667</ele><time>2026-04-11T09:53:24Z</time></trkpt><trkpt lat="43.2768128748398" lon="12.828541774335603"><ele>630.3333333333334</ele><time>2026-04-11T09:53:25Z</time></trkpt><trkpt lat="43.27683721825819" lon="12.828445537142223"><ele>631.0</ele><time>2026-04-11T09:53:26Z</time></trkpt><trkpt lat="43.276879856863445" lon="12.828294675897062"><ele>633.5</ele><time>2026-04-11T09:53:28Z</time></trkpt><trkpt lat="43.27687743113525" lon="12.828161941345325"><ele>636.0</ele><time>2026-04-11T09:53:29Z</time></trkpt><trkpt lat="43.27686236360597" lon="12.827991270553005"><ele>638.5</ele><time>2026-04-11T09:53:30Z</time></trkpt><trkpt lat="43.27683813988621" lon="12.827796289702516"><ele>641.0</ele><time>2026-04-11T09:53:30.999Z</time></trkpt><trkpt lat="43.27683681415206" lon="12.827617007109358"><ele>643.5999999999999</ele><time>2026-04-11T09:53:31.999Z</time></trkpt><trkpt lat="43.276831355957924" lon="12.827470170041934"><ele>646.2</ele><time>2026-04-11T09:53:32.999Z</time></trkpt><trkpt lat="43.276854543099425" lon="12.827366143197459"><ele>648.8</ele><time>2026-04-11T09:53:33.999Z</time></trkpt><trkpt lat="43.27692100019066" lon="12.827286402608461"><ele>651.4000000000001</ele><time>2026-04-11T09:53:34.999Z</time></trkpt><trkpt lat="43.27695219051664" lon="12.827183026131314"><ele>654.0</ele><time>2026-04-11T09:53:36.999Z</time></trkpt><trkpt lat="43.27692026747234" lon="12.827007344729715"><ele>654.0</ele><time>2026-04-11T09:53:38.999Z</time></trkpt><trkpt lat="43.27689548107553" lon="12.826853328197833"><ele>654.0</ele><time>2026-04-11T09:53:40.999Z</time></trkpt><trkpt lat="43.27685533685941" lon="12.826729959600923"><ele>654.0</ele><time>2026-04-11T09:53:41.999Z</time></trkpt><trkpt lat="43.27678178432772" lon="12.826624441789448"><ele>654.0</ele><time>2026-04-11T09:53:42.999Z</time></trkpt><trkpt lat="43.27674781877807" lon="12.826496963264967"><ele>654.0</ele><time>2026-04-11T09:53:44.999Z</time></trkpt><trkpt lat="43.27677729113321" lon="12.82638280717583"><ele>655.4000000000001</ele><time>2026-04-11T09:53:49.999Z</time></trkpt><trkpt lat="43.27680435575476" lon="12.826286504913954"><ele>656.8</ele><time>2026-04-11T09:53:51.999Z</time></trkpt><trkpt lat="43.27683309972045" lon="12.826189332011863"><ele>658.2</ele><time>2026-04-11T09:53:52.999Z</time></trkpt><trkpt lat="43.27687065867477" lon="12.82610972165818"><ele>659.5999999999999</ele><time>2026-04-11T09:53:53.999Z</time></trkpt><trkpt lat="43.276950610949946" lon="12.825976554654572"><ele>661.0</ele><time>2026-04-11T09:53:55.999Z</time></trkpt><trkpt lat="43.27707619994932" lon="12.825839200584744"><ele>662.0</ele><time>2026-04-11T09:53:57.999Z</time></trkpt><trkpt lat="43.277156147977365" lon="12.825777130937057"><ele>663.0</ele><time>2026-04-11T09:53:58.999Z</time></trkpt><trkpt lat="43.277222433352144" lon="12.825737571338964"><ele>664.0</ele><time>2026-04-11T09:53:59.999Z</time></trkpt><trkpt lat="43.27730112858592" lon="12.825751391464074"><ele>665.0</ele><time>2026-04-11T09:54:00.999Z</time></trkpt><trkpt lat="43.277425110714304" lon="12.825779538149506"><ele>666.0</ele><time>2026-04-11T09:54:01.999Z</time></trkpt><trkpt lat="43.27752741765963" lon="12.82577129026539"><ele>666.0</ele><time>2026-04-11T09:54:02.999Z</time></trkpt><trkpt lat="43.27761269413865" lon="12.825725364169598"><ele>666.0</ele><time>2026-04-11T09:54:03.999Z</time></trkpt><trkpt lat="43.27768184010911" lon="12.825673515328402"><ele>666.0</ele><time>2026-04-11T09:54:04.999Z</time></trkpt><trkpt lat="43.27771414008423" lon="12.825522839128544"><ele>666.0</ele><time>2026-04-11T09:54:06.999Z</time></trkpt><trkpt lat="43.27773029356615" lon="12.825436923225348"><ele>666.0</ele><time>2026-04-11T09:54:07.999Z</time></trkpt><trkpt lat="43.27776174068223" lon="12.82533109567442"><ele>666.0</ele><time>2026-04-11T09:54:08.999Z</time></trkpt><trkpt lat="43.27777411031231" lon="12.825203251176092"><ele>670.1666666666666</ele><time>2026-04-11T09:54:09.999Z</time></trkpt><trkpt lat="43.27779480597552" lon="12.825097721061885"><ele>674.3333333333334</ele><time>2026-04-11T09:54:10.999Z</time></trkpt><trkpt lat="43.27779240338982" lon="12.824992474403784"><ele>678.5</ele><time>2026-04-11T09:54:11.999Z</time></trkpt><trkpt lat="43.27782172494577" lon="12.824902038162001"><ele>682.6666666666667</ele><time>2026-04-11T09:54:12.999Z</time></trkpt><trkpt lat="43.277858180742356" lon="12.824817152153283"><ele>686.8333333333334</ele><time>2026-04-11T09:54:13.999Z</time></trkpt><trkpt lat="43.277902922472705" lon="12.824732064887257"><ele>691.0</ele><time>2026-04-11T09:54:14.999Z</time></trkpt><trkpt lat="43.277924790165905" lon="12.824610357548245"><ele>691.0</ele><time>2026-04-11T09:54:15.999Z</time></trkpt><trkpt lat="43.27795006153088" lon="12.82450449933795"><ele>691.0</ele><time>2026-04-11T09:54:16.999Z</time></trkpt><trkpt lat="43.27798436289815" lon="12.824409348663526"><ele>691.0</ele><time>2026-04-11T09:54:17.999Z</time></trkpt><trkpt lat="43.27803752068977" lon="12.824349114362361"><ele>691.0</ele><time>2026-04-11T09:54:19.999Z</time></trkpt><trkpt lat="43.2781022323906" lon="12.824273640181014"><ele>691.0</ele><time>2026-04-11T09:54:24.999Z</time></trkpt><trkpt lat="43.27814530364028" lon="12.824206162969384"><ele>691.0</ele><time>2026-04-11T09:54:28.999Z</time></trkpt><trkpt lat="43.27820446061671" lon="12.824118432213384"><ele>692.4</ele><time>2026-04-11T09:54:31.999Z</time></trkpt><trkpt lat="43.27824896566623" lon="12.824053349827414"><ele>693.8</ele><time>2026-04-11T09:54:32.999Z</time></trkpt><trkpt lat="43.27833250534842" lon="12.82392335365349"><ele>695.1999999999999</ele><time>2026-04-11T09:54:34.999Z</time></trkpt><trkpt lat="43.27838770353298" lon="12.823875955966434"><ele>696.5999999999999</ele><time>2026-04-11T09:54:35.999Z</time></trkpt><trkpt lat="43.27849329522144" lon="12.823836180652673"><ele>698.0</ele><time>2026-04-11T09:54:36.999Z</time></trkpt><trkpt lat="43.27858666433209" lon="12.823765889224713"><ele>698.0</ele><time>2026-04-11T09:54:37.999Z</time></trkpt><trkpt lat="43.27865214948687" lon="12.823669396701064"><ele>698.0</ele><time>2026-04-11T09:54:38.999Z</time></trkpt><trkpt lat="43.27870259580807" lon="12.823551894342275"><ele>698.0</ele><time>2026-04-11T09:54:39.999Z</time></trkpt><trkpt lat="43.2787436358218" lon="12.82346770978545"><ele>698.0</ele><time>2026-04-11T09:54:40.999Z</time></trkpt><trkpt lat="43.2787825015007" lon="12.823390776453538"><ele>698.0</ele><time>2026-04-11T09:54:41.999Z</time></trkpt><trkpt lat="43.27886583793331" lon="12.823330764162339"><ele>698.0</ele><time>2026-04-11T09:54:43.999Z</time></trkpt><trkpt lat="43.27890064469136" lon="12.823256111089036"><ele>701.0</ele><time>2026-04-11T09:54:44.999Z</time></trkpt><trkpt lat="43.278915362656036" lon="12.823142752579686"><ele>704.0</ele><time>2026-04-11T09:54:45.999Z</time></trkpt><trkpt lat="43.27892663079938" lon="12.823009553272303"><ele>707.0</ele><time>2026-04-11T09:54:46.999Z</time></trkpt><trkpt lat="43.27895435953618" lon="12.822892798127372"><ele>710.0</ele><time>2026-04-11T09:54:47.999Z</time></trkpt><trkpt lat="43.27900282804331" lon="12.822807859035338"><ele>713.0</ele><time>2026-04-11T09:54:48.999Z</time></trkpt><trkpt lat="43.27905567379627" lon="12.822683596585938"><ele>714.4</ele><time>2026-04-11T09:54:49.999Z</time></trkpt><trkpt lat="43.279111100348906" lon="12.82253610395514"><ele>715.8</ele><time>2026-04-11T09:54:50.999Z</time></trkpt><trkpt lat="43.279168197299406" lon="12.822454144505187"><ele>717.2</ele><time>2026-04-11T09:54:51.999Z</time></trkpt><trkpt lat="43.27922059898017" lon="12.822371752817906"><ele>718.6</ele><time>2026-04-11T09:54:52.999Z</time></trkpt><trkpt lat="43.27933715686359" lon="12.82234558993978"><ele>720.0</ele><time>2026-04-11T09:54:56Z</time></trkpt><trkpt lat="43.27939936058613" lon="12.822314661267443"><ele>720.0</ele><time>2026-04-11T09:54:57Z</time></trkpt><trkpt lat="43.27948112565065" lon="12.822344728839424"><ele>720.0</ele><time>2026-04-11T09:54:59Z</time></trkpt><trkpt lat="43.27948458868847" lon="12.82247969121918"><ele>720.0</ele><time>2026-04-11T09:55:01Z</time></trkpt><trkpt lat="43.27951711263008" lon="12.822600023500762"><ele>720.0</ele><time>2026-04-11T09:55:03Z</time></trkpt><trkpt lat="43.27958429150444" lon="12.822630007794844"><ele>720.0</ele><time>2026-04-11T09:55:06Z</time></trkpt><trkpt lat="43.27964536615141" lon="12.822565420538897"><ele>720.0</ele><time>2026-04-11T09:55:08Z</time></trkpt><trkpt lat="43.279708519445386" lon="12.822482017149104"><ele>726.2</ele><time>2026-04-11T09:55:10Z</time></trkpt><trkpt lat="43.27980299933866" lon="12.822438128006471"><ele>732.4</ele><time>2026-04-11T09:55:12Z</time></trkpt><trkpt lat="43.279848452415614" lon="12.822341742828431"><ele>738.5999999999999</ele><time>2026-04-11T09:55:14Z</time></trkpt><trkpt lat="43.279958103069134" lon="12.822339506869836"><ele>744.8</ele><time>2026-04-11T09:55:16Z</time></trkpt><trkpt lat="43.2800597303357" lon="12.822315709436744"><ele>751.0</ele><time>2026-04-11T09:55:18Z</time></trkpt><trkpt lat="43.28015955625742" lon="12.822294256129162"><ele>751.0</ele><time>2026-04-11T09:55:19Z</time></trkpt><trkpt lat="43.280230504681576" lon="12.822302756969789"><ele>751.0</ele><time>2026-04-11T09:55:21Z</time></trkpt><trkpt lat="43.28029208150486" lon="12.822224014467379"><ele>751.0</ele><time>2026-04-11T09:55:23Z</time></trkpt><trkpt lat="43.28038998619403" lon="12.822176954004329"><ele>751.0</ele><time>2026-04-11T09:55:25Z</time></trkpt><trkpt lat="43.280466764452456" lon="12.822099288882438"><ele>751.0</ele><time>2026-04-11T09:55:27Z</time></trkpt><trkpt lat="43.28056506334178" lon="12.822034178060015"><ele>756.1428571428572</ele><time>2026-04-11T09:55:29Z</time></trkpt><trkpt lat="43.28064724081108" lon="12.82202238375181"><ele>761.2857142857143</ele><time>2026-04-11T09:55:31Z</time></trkpt><trkpt lat="43.28072463598629" lon="12.821993043222815"><ele>766.4285714285714</ele><time>2026-04-11T09:55:33Z</time></trkpt><trkpt lat="43.28079576151037" lon="12.821960186011134"><ele>771.5714285714287</ele><time>2026-04-11T09:55:34Z</time></trkpt><trkpt lat="43.2808076496142" lon="12.821864978872556"><ele>776.7142857142857</ele><time>2026-04-11T09:55:37Z</time></trkpt><trkpt lat="43.28081527891174" lon="12.821774252318319"><ele>781.8571428571429</ele><time>2026-04-11T09:55:45Z</time></trkpt><trkpt lat="43.28079413509184" lon="12.821687508932982"><ele>787.0</ele><time>2026-04-11T09:56:52.999Z</time></trkpt><trkpt lat="43.280734694478596" lon="12.821615713126905"><ele>787.9999999999999</ele><time>2026-04-11T09:56:54.999Z</time></trkpt><trkpt lat="43.28067724692692" lon="12.821558375340492"><ele>789.0</ele><time>2026-04-11T09:56:55.999Z</time></trkpt><trkpt lat="43.2806018036168" lon="12.821505250407283"><ele>790.0</ele><time>2026-04-11T09:56:56.999Z</time></trkpt><trkpt lat="43.280532029613255" lon="12.821452433233636"><ele>791.0</ele><time>2026-04-11T09:56:57.999Z</time></trkpt><trkpt lat="43.280480050424416" lon="12.821400605394059"><ele>791.9999999999999</ele><time>2026-04-11T09:56:58.999Z</time></trkpt><trkpt lat="43.2804450456172" lon="12.821285760408909"><ele>793.0</ele><time>2026-04-11T09:57:01Z</time></trkpt><trkpt lat="43.2804421851214" lon="12.821116997869927"><ele>789.0000000000001</ele><time>2026-04-11T09:57:03Z</time></trkpt><trkpt lat="43.28046023211581" lon="12.821020973048311"><ele>785.0</ele><time>2026-04-11T09:57:04Z</time></trkpt><trkpt lat="43.28047964153237" lon="12.820915773918351"><ele>781.0</ele><time>2026-04-11T09:57:05Z</time></trkpt><trkpt lat="43.28048901254197" lon="12.820822600978204"><ele>777.0</ele><time>2026-04-11T09:57:06Z</time></trkpt><trkpt lat="43.280497737631805" lon="12.820714529794275"><ele>773.0</ele><time>2026-04-11T09:57:07Z</time></trkpt><trkpt lat="43.280515292616805" lon="12.820617079617945"><ele>769.0000000000001</ele><time>2026-04-11T09:57:08Z</time></trkpt><trkpt lat="43.2805422166231" lon="12.820530815438252"><ele>765.0</ele><time>2026-04-11T09:57:09Z</time></trkpt><trkpt lat="43.28057196980369" lon="12.82040805712714"><ele>765.0</ele><time>2026-04-11T09:57:10Z</time></trkpt><trkpt lat="43.280594843651805" lon="12.820280052358868"><ele>765.0</ele><time>2026-04-11T09:57:11Z</time></trkpt><trkpt lat="43.28062525959888" lon="12.820154461582606"><ele>765.0</ele><time>2026-04-11T09:57:12Z</time></trkpt><trkpt lat="43.280671389977826" lon="12.82005631486818"><ele>765.0</ele><time>2026-04-11T09:57:13Z</time></trkpt><trkpt lat="43.280726687697204" lon="12.819943189605747"><ele>765.0</ele><time>2026-04-11T09:57:14Z</time></trkpt><trkpt lat="43.28076969199527" lon="12.819820833204073"><ele>773.1666666666666</ele><time>2026-04-11T09:57:15Z</time></trkpt><trkpt lat="43.280804649432405" lon="12.8196970723529"><ele>781.3333333333333</ele><time>2026-04-11T09:57:16Z</time></trkpt><trkpt lat="43.2808346989243" lon="12.819578394256558"><ele>789.5</ele><time>2026-04-11T09:57:17Z</time></trkpt><trkpt lat="43.28083625790142" lon="12.819433204232835"><ele>797.6666666666666</ele><time>2026-04-11T09:57:19Z</time></trkpt><trkpt lat="43.28077924061012" lon="12.819388586123871"><ele>805.8333333333333</ele><time>2026-04-11T09:57:21Z</time></trkpt><trkpt lat="43.28072211349115" lon="12.819293042801778"><ele>814.0</ele><time>2026-04-11T09:57:23Z</time></trkpt><trkpt lat="43.280743345584334" lon="12.819171567414195"><ele>814.0</ele><time>2026-04-11T09:57:25Z</time></trkpt><trkpt lat="43.280748146599485" lon="12.819001911228705"><ele>814.0</ele><time>2026-04-11T09:57:27Z</time></trkpt><trkpt lat="43.28076540283698" lon="12.818878499311126"><ele>814.0</ele><time>2026-04-11T09:57:28Z</time></trkpt><trkpt lat="43.28076259886326" lon="12.818753899895054"><ele>814.0</ele><time>2026-04-11T09:57:29Z</time></trkpt><trkpt lat="43.28074246489255" lon="12.818648926588393"><ele>814.0</ele><time>2026-04-11T09:57:30Z</time></trkpt><trkpt lat="43.28074034734967" lon="12.818543421718205"><ele>814.2</ele><time>2026-04-11T09:57:31Z</time></trkpt><trkpt lat="43.28074238740666" lon="12.818439871744628"><ele>814.4000000000001</ele><time>2026-04-11T09:57:32Z</time></trkpt><trkpt lat="43.28075862624032" lon="12.818274072175301"><ele>814.6</ele><time>2026-04-11T09:57:34Z</time></trkpt><trkpt lat="43.280756055321994" lon="12.818183915765825"><ele>814.8</ele><time>2026-04-11T09:57:35Z</time></trkpt><trkpt lat="43.28074675741069" lon="12.818024776294656"><ele>815.0</ele><time>2026-04-11T09:57:37Z</time></trkpt><trkpt lat="43.28073151354019" lon="12.81789496300252"><ele>815.0</ele><time>2026-04-11T09:57:39Z</time></trkpt><trkpt lat="43.280655328161274" lon="12.817845314340888"><ele>815.0</ele><time>2026-04-11T09:57:41Z</time></trkpt><trkpt lat="43.28055628487181" lon="12.817836978094123"><ele>815.0</ele><time>2026-04-11T09:57:43Z</time></trkpt><trkpt lat="43.28049415183038" lon="12.817808573808069"><ele>815.0</ele><time>2026-04-11T09:57:46Z</time></trkpt><trkpt lat="43.28051181164749" lon="12.81769090941176"><ele>815.0</ele><time>2026-04-11T09:57:48Z</time></trkpt><trkpt lat="43.28053621557687" lon="12.817502070677042"><ele>816.5000000000001</ele><time>2026-04-11T09:57:50Z</time></trkpt><trkpt lat="43.2805024944081" lon="12.81735317551867"><ele>818.0</ele><time>2026-04-11T09:57:52Z</time></trkpt><trkpt lat="43.28043606320014" lon="12.817208536856185"><ele>819.5</ele><time>2026-04-11T09:57:54Z</time></trkpt><trkpt lat="43.28040538695856" lon="12.81713253704749"><ele>821.0</ele><time>2026-04-11T09:57:55Z</time></trkpt><trkpt lat="43.28036781161618" lon="12.817046419921208"><ele>822.5000000000001</ele><time>2026-04-11T09:57:56Z</time></trkpt><trkpt lat="43.28032049044638" lon="12.81698328906785"><ele>824.0</ele><time>2026-04-11T09:57:57Z</time></trkpt><trkpt lat="43.28026487536906" lon="12.816942008513454"><ele>824.0</ele><time>2026-04-11T09:57:58Z</time></trkpt><trkpt lat="43.28019838670002" lon="12.816913104123362"><ele>824.0</ele><time>2026-04-11T09:58:00Z</time></trkpt><trkpt lat="43.2800905968162" lon="12.816953416018112"><ele>824.0</ele><time>2026-04-11T09:58:02Z</time></trkpt><trkpt lat="43.27996821521525" lon="12.817003029503821"><ele>824.0</ele><time>2026-04-11T09:58:04Z</time></trkpt><trkpt lat="43.279875026356216" lon="12.816976098117928"><ele>824.0</ele><time>2026-04-11T09:58:06Z</time></trkpt><trkpt lat="43.27982565805847" lon="12.816844030693355"><ele>826.3333333333334</ele><time>2026-04-11T09:58:08Z</time></trkpt><trkpt lat="43.27982679415502" lon="12.816755207689223"><ele>828.6666666666667</ele><time>2026-04-11T09:58:10Z</time></trkpt><trkpt lat="43.27978076485172" lon="12.816597760466939"><ele>831.0</ele><time>2026-04-11T09:58:13Z</time></trkpt><trkpt lat="43.27977160671245" lon="12.816504660069016"><ele>833.3333333333333</ele><time>2026-04-11T09:58:14Z</time></trkpt><trkpt lat="43.279781096824124" lon="12.816405784368717"><ele>835.6666666666666</ele><time>2026-04-11T09:58:15Z</time></trkpt><trkpt lat="43.279802603334915" lon="12.816298455282501"><ele>838.0</ele><time>2026-04-11T09:58:16Z</time></trkpt><trkpt lat="43.27982099961198" lon="12.816181662425976"><ele>837.9999999999999</ele><time>2026-04-11T09:58:17Z</time></trkpt><trkpt lat="43.279833454973506" lon="12.816079249613162"><ele>838.0</ele><time>2026-04-11T09:58:18Z</time></trkpt><trkpt lat="43.279848257334194" lon="12.815975201505275"><ele>838.0</ele><time>2026-04-11T09:58:19Z</time></trkpt><trkpt lat="43.27987055030635" lon="12.815884863842813"><ele>838.0</ele><time>2026-04-11T09:58:19.999Z</time></trkpt><trkpt lat="43.27989373289421" lon="12.815799388776323"><ele>838.0</ele><time>2026-04-11T09:58:20.999Z</time></trkpt><trkpt lat="43.27991792183495" lon="12.815681584666002"><ele>837.9999999999999</ele><time>2026-04-11T09:58:22.999Z</time></trkpt><trkpt lat="43.279913139183904" lon="12.815593507773588"><ele>838.0</ele><time>2026-04-11T09:58:23.999Z</time></trkpt><trkpt lat="43.27991484958349" lon="12.815464143771749"><ele>839.6666666666666</ele><time>2026-04-11T09:58:25.999Z</time></trkpt><trkpt lat="43.27983267521968" lon="12.815403884364232"><ele>841.3333333333333</ele><time>2026-04-11T09:58:29.999Z</time></trkpt><trkpt lat="43.27973859136097" lon="12.815398034871922"><ele>843.0</ele><time>2026-04-11T09:58:31.999Z</time></trkpt><trkpt lat="43.27966813877338" lon="12.81541163102304"><ele>844.6666666666667</ele><time>2026-04-11T09:58:33.999Z</time></trkpt><trkpt lat="43.27960106888168" lon="12.815410484984833"><ele>846.3333333333334</ele><time>2026-04-11T09:58:44.999Z</time></trkpt><trkpt lat="43.279526287677875" lon="12.815496060090883"><ele>848.0</ele><time>2026-04-11T09:58:47.999Z</time></trkpt><trkpt lat="43.27943384156692" lon="12.815581909447838"><ele>849.0</ele><time>2026-04-11T09:58:49.999Z</time></trkpt><trkpt lat="43.27933889020154" lon="12.815670162565162"><ele>850.0</ele><time>2026-04-11T09:58:51.999Z</time></trkpt><trkpt lat="43.27927824565452" lon="12.815702096540136"><ele>851.0</ele><time>2026-04-11T09:58:52.999Z</time></trkpt><trkpt lat="43.27921743777971" lon="12.815742887091087"><ele>852.0</ele><time>2026-04-11T09:58:53.999Z</time></trkpt><trkpt lat="43.27916221686445" lon="12.815914226967331"><ele>853.0</ele><time>2026-04-11T09:58:55.999Z</time></trkpt><trkpt lat="43.27910451866335" lon="12.816014262867405"><ele>852.9999999999999</ele><time>2026-04-11T09:58:56.999Z</time></trkpt><trkpt lat="43.27905639454029" lon="12.816072270714825"><ele>853.0</ele><time>2026-04-11T09:58:57.999Z</time></trkpt><trkpt lat="43.27895727533651" lon="12.816182127772334"><ele>853.0</ele><time>2026-04-11T09:58:59.999Z</time></trkpt><trkpt lat="43.27888951163066" lon="12.816205488073223"><ele>853.0</ele><time>2026-04-11T09:59:00.999Z</time></trkpt><trkpt lat="43.278817032933866" lon="12.81620320950289"><ele>852.9999999999999</ele><time>2026-04-11T09:59:01.999Z</time></trkpt><trkpt lat="43.27872072124111" lon="12.816141956377193"><ele>853.0</ele><time>2026-04-11T09:59:03.999Z</time></trkpt><trkpt lat="43.27863577500094" lon="12.81615575419315"><ele>854.3333333333333</ele><time>2026-04-11T09:59:06Z</time></trkpt><trkpt lat="43.27858184920592" lon="12.81620781409477"><ele>855.6666666666666</ele><time>2026-04-11T09:59:07Z</time></trkpt><trkpt lat="43.27853352337555" lon="12.816272072110028"><ele>857.0</ele><time>2026-04-11T09:59:08Z</time></trkpt><trkpt lat="43.27843301555528" lon="12.816335812435058"><ele>858.3333333333333</ele><time>2026-04-11T09:59:10Z</time></trkpt><trkpt lat="43.278370108827" lon="12.816313184483931"><ele>859.6666666666666</ele><time>2026-04-11T09:59:11Z</time></trkpt><trkpt lat="43.27828478893437" lon="12.816209644183019"><ele>861.0</ele><time>2026-04-11T09:59:13Z</time></trkpt><trkpt lat="43.27822181502339" lon="12.816067308232244"><ele>860.8</ele><time>2026-04-11T09:59:15Z</time></trkpt><trkpt lat="43.27815514775714" lon="12.815918697117253"><ele>860.5999999999999</ele><time>2026-04-11T09:59:17Z</time></trkpt><trkpt lat="43.27810397998971" lon="12.81580155356057"><ele>860.4</ele><time>2026-04-11T09:59:19Z</time></trkpt><trkpt lat="43.278058263598716" lon="12.81573194731064"><ele>860.2</ele><time>2026-04-11T10:03:01Z</time></trkpt><trkpt lat="43.278085028476774" lon="12.81564757925352"><ele>860.0</ele><time>2026-04-11T10:03:03Z</time></trkpt><trkpt lat="43.27813468823544" lon="12.815533551166045"><ele>860.0000000000001</ele><time>2026-04-11T10:03:05Z</time></trkpt><trkpt lat="43.278186954548644" lon="12.815399173244588"><ele>860.0</ele><time>2026-04-11T10:03:07Z</time></trkpt><trkpt lat="43.27822803313154" lon="12.81531762017255"><ele>860.0</ele><time>2026-04-11T10:03:08Z</time></trkpt><trkpt lat="43.27827655015681" lon="12.815238315167809"><ele>860.0</ele><time>2026-04-11T10:03:09Z</time></trkpt><trkpt lat="43.27832243594184" lon="12.815154580635076"><ele>860.0000000000001</ele><time>2026-04-11T10:03:10Z</time></trkpt><trkpt lat="43.278366889185214" lon="12.81507009833759"><ele>860.0</ele><time>2026-04-11T10:03:11Z</time></trkpt><trkpt lat="43.27842145750775" lon="12.814972122712655"><ele>858.5000000000001</ele><time>2026-04-11T10:03:11.999Z</time></trkpt><trkpt lat="43.27847284908735" lon="12.814880794517547"><ele>857.0</ele><time>2026-04-11T10:03:12.999Z</time></trkpt><trkpt lat="43.278506488695854" lon="12.814785234758427"><ele>855.5</ele><time>2026-04-11T10:03:13.999Z</time></trkpt><trkpt lat="43.27855439531086" lon="12.814646262835463"><ele>854.0</ele><time>2026-04-11T10:03:15.999Z</time></trkpt><trkpt lat="43.27858175048729" lon="12.814563147089089"><ele>852.5000000000001</ele><time>2026-04-11T10:03:18.001Z</time></trkpt><trkpt lat="43.27862419232336" lon="12.814476366519635"><ele>851.0</ele><time>2026-04-11T10:03:21Z</time></trkpt><trkpt lat="43.27866687034955" lon="12.814385580439017"><ele>850.4285714285714</ele><time>2026-04-11T10:03:23Z</time></trkpt><trkpt lat="43.27872695349042" lon="12.814316557746919"><ele>849.8571428571429</ele><time>2026-04-11T10:03:26Z</time></trkpt><trkpt lat="43.278774767124915" lon="12.814247906565901"><ele>849.2857142857142</ele><time>2026-04-11T10:03:29Z</time></trkpt><trkpt lat="43.27882415029103" lon="12.814163062264575"><ele>848.7142857142858</ele><time>2026-04-11T10:03:33Z</time></trkpt><trkpt lat="43.278848500345035" lon="12.814075406449746"><ele>848.1428571428571</ele><time>2026-04-11T10:03:36Z</time></trkpt><trkpt lat="43.27889843967511" lon="12.814009397319674"><ele>847.5714285714286</ele><time>2026-04-11T10:03:40Z</time></trkpt><trkpt lat="43.27891379167589" lon="12.81391645058312"><ele>847.0</ele><time>2026-04-11T10:03:46Z</time></trkpt><trkpt lat="43.27891007047953" lon="12.813804802494614"><ele>846.9999999999999</ele><time>2026-04-11T10:04:32Z</time></trkpt><trkpt lat="43.278865560614896" lon="12.813727502334439"><ele>847.0</ele><time>2026-04-11T10:04:37Z</time></trkpt><trkpt lat="43.278836504023154" lon="12.813630822876618"><ele>847.0</ele><time>2026-04-11T10:06:23Z</time></trkpt><trkpt lat="43.278766821954264" lon="12.813579203638856"><ele>847.0</ele><time>2026-04-11T10:06:29Z</time></trkpt><trkpt lat="43.27871890162316" lon="12.813508827635268"><ele>846.9999999999999</ele><time>2026-04-11T10:06:43Z</time></trkpt><trkpt lat="43.27874798894374" lon="12.813399769638806"><ele>847.0</ele><time>2026-04-11T10:06:50Z</time></trkpt><trkpt lat="43.2788084431111" lon="12.813326382604885"><ele>847.6666666666666</ele><time>2026-04-11T10:06:53Z</time></trkpt><trkpt lat="43.27886688023446" lon="12.813274529210753"><ele>848.3333333333333</ele><time>2026-04-11T10:06:57Z</time></trkpt><trkpt lat="43.27892984256198" lon="12.813239348425931"><ele>849.0</ele><time>2026-04-11T10:07:03Z</time></trkpt><trkpt lat="43.279025294842015" lon="12.813192785424798"><ele>849.6666666666667</ele><time>2026-04-11T10:07:06Z</time></trkpt><trkpt lat="43.27909087526158" lon="12.813110283884814"><ele>850.3333333333334</ele><time>2026-04-11T10:07:08Z</time></trkpt><trkpt lat="43.27916838199105" lon="12.81303109692497"><ele>851.0</ele><time>2026-04-11T10:07:10Z</time></trkpt><trkpt lat="43.27922545443911" lon="12.81296918147079"><ele>847.7142857142858</ele><time>2026-04-11T10:07:12Z</time></trkpt><trkpt lat="43.27928808043355" lon="12.812910729214599"><ele>844.4285714285714</ele><time>2026-04-11T10:07:15Z</time></trkpt><trkpt lat="43.279355944294636" lon="12.81295908615897"><ele>841.1428571428571</ele><time>2026-04-11T10:07:20Z</time></trkpt><trkpt lat="43.27942604807476" lon="12.81295563542347"><ele>837.8571428571429</ele><time>2026-04-11T10:07:23Z</time></trkpt><trkpt lat="43.279495222908885" lon="12.812946174941692"><ele>834.5714285714286</ele><time>2026-04-11T10:07:28Z</time></trkpt><trkpt lat="43.27955819518681" lon="12.812913351999589"><ele>831.2857142857143</ele><time>2026-04-11T10:07:33Z</time></trkpt><trkpt lat="43.27961601295401" lon="12.812863979951848"><ele>828.0</ele><time>2026-04-11T10:07:37Z</time></trkpt><trkpt lat="43.27967241205019" lon="12.812810566678062"><ele>828.0</ele><time>2026-04-11T10:07:39Z</time></trkpt><trkpt lat="43.27974862929755" lon="12.812690055057578"><ele>828.0</ele><time>2026-04-11T10:07:41Z</time></trkpt><trkpt lat="43.27979380150926" lon="12.812620196870016"><ele>828.0</ele><time>2026-04-11T10:07:42Z</time></trkpt><trkpt lat="43.279849825482955" lon="12.812514845772611"><ele>828.0</ele><time>2026-04-11T10:07:44Z</time></trkpt><trkpt lat="43.27988625560465" lon="12.812393204727318"><ele>828.0</ele><time>2026-04-11T10:07:46Z</time></trkpt><trkpt lat="43.279932124011175" lon="12.812252219603668"><ele>825.8571428571429</ele><time>2026-04-11T10:07:49Z</time></trkpt><trkpt lat="43.27997238400434" lon="12.812163811690455"><ele>823.7142857142858</ele><time>2026-04-11T10:07:50Z</time></trkpt><trkpt lat="43.27999030870817" lon="12.812062928652237"><ele>821.5714285714287</ele><time>2026-04-11T10:07:54Z</time></trkpt><trkpt lat="43.28003223389837" lon="12.81197480597185"><ele>819.4285714285714</ele><time>2026-04-11T10:07:59Z</time></trkpt><trkpt lat="43.28004453670569" lon="12.811880311543003"><ele>817.2857142857142</ele><time>2026-04-11T10:08:03Z</time></trkpt><trkpt lat="43.28006461647636" lon="12.81178847694716"><ele>815.1428571428572</ele><time>2026-04-11T10:08:05Z</time></trkpt><trkpt lat="43.280095537485735" lon="12.811706948689162"><ele>813.0</ele><time>2026-04-11T10:08:07Z</time></trkpt><trkpt lat="43.28014953417969" lon="12.811610380502511"><ele>810.3333333333334</ele><time>2026-04-11T10:08:09Z</time></trkpt><trkpt lat="43.28016772055488" lon="12.811500894585027"><ele>807.6666666666667</ele><time>2026-04-11T10:08:11Z</time></trkpt><trkpt lat="43.28020491299499" lon="12.811391013785594"><ele>805.0</ele><time>2026-04-11T10:08:13Z</time></trkpt><trkpt lat="43.280239973842626" lon="12.811315625977098"><ele>802.3333333333334</ele><time>2026-04-11T10:08:15Z</time></trkpt><trkpt lat="43.28026745077225" lon="12.811201590539076"><ele>799.6666666666667</ele><time>2026-04-11T10:08:16.999Z</time></trkpt><trkpt lat="43.280289113208745" lon="12.811102471232916"><ele>797.0</ele><time>2026-04-11T10:08:18.999Z</time></trkpt><trkpt lat="43.28031395353931" lon="12.81100970627541"><ele>795.7142857142857</ele><time>2026-04-11T10:08:21.999Z</time></trkpt><trkpt lat="43.28035704200981" lon="12.810917304989276"><ele>794.4285714285714</ele><time>2026-04-11T10:08:24.999Z</time></trkpt><trkpt lat="43.28038850264493" lon="12.81084181085806"><ele>793.1428571428571</ele><time>2026-04-11T10:08:31.999Z</time></trkpt><trkpt lat="43.280421078668596" lon="12.810766459977456"><ele>791.8571428571429</ele><time>2026-04-11T10:08:45.999Z</time></trkpt><trkpt lat="43.28046063860889" lon="12.810683287074719"><ele>790.5714285714287</ele><time>2026-04-11T10:08:58.999Z</time></trkpt><trkpt lat="43.28050024800354" lon="12.810609095401656"><ele>789.2857142857143</ele><time>2026-04-11T10:09:07.999Z</time></trkpt><trkpt lat="43.280555734689486" lon="12.810533186804161"><ele>788.0</ele><time>2026-04-11T10:09:15.999Z</time></trkpt><trkpt lat="43.280572447946085" lon="12.810449384030509"><ele>788.0</ele><time>2026-04-11T10:09:16.999Z</time></trkpt><trkpt lat="43.2805598880886" lon="12.810338677726282"><ele>788.0</ele><time>2026-04-11T10:09:18.999Z</time></trkpt><trkpt lat="43.28053955467083" lon="12.810238870955255"><ele>788.0</ele><time>2026-04-11T10:09:20.999Z</time></trkpt><trkpt lat="43.280537716513834" lon="12.810130979221258"><ele>788.0</ele><time>2026-04-11T10:09:29.999Z</time></trkpt><trkpt lat="43.28052789643129" lon="12.810042703477349"><ele>788.0</ele><time>2026-04-11T10:09:39Z</time></trkpt><trkpt lat="43.28053013646843" lon="12.809954594273831"><ele>788.0</ele><time>2026-04-11T10:10:17Z</time></trkpt><trkpt lat="43.28051734160683" lon="12.809862995534125"><ele>788.0</ele><time>2026-04-11T10:10:23.999Z</time></trkpt><trkpt lat="43.28054106680748" lon="12.809740136012367"><ele>788.4285714285714</ele><time>2026-04-11T10:10:27.999Z</time></trkpt><trkpt lat="43.2805574392783" lon="12.809647735323802"><ele>788.8571428571429</ele><time>2026-04-11T10:10:31.999Z</time></trkpt><trkpt lat="43.280569088095696" lon="12.809560505515332"><ele>789.2857142857142</ele><time>2026-04-11T10:10:34.999Z</time></trkpt><trkpt lat="43.28057563540164" lon="12.8094634865488"><ele>789.7142857142858</ele><time>2026-04-11T10:10:37.999Z</time></trkpt><trkpt lat="43.28061353513276" lon="12.809376420632137"><ele>790.1428571428571</ele><time>2026-04-11T10:10:42.999Z</time></trkpt><trkpt lat="43.28068039211207" lon="12.809336388992644"><ele>790.5714285714286</ele><time>2026-04-11T10:10:46.999Z</time></trkpt><trkpt lat="43.28072933208968" lon="12.809234500116085"><ele>791.0</ele><time>2026-04-11T10:10:50.999Z</time></trkpt><trkpt lat="43.28074635929885" lon="12.809117052051265"><ele>785.0</ele><time>2026-04-11T10:10:53.999Z</time></trkpt><trkpt lat="43.28077924942628" lon="12.808980836821396"><ele>779.0</ele><time>2026-04-11T10:10:56.999Z</time></trkpt><trkpt lat="43.28082027169845" lon="12.808861744771132"><ele>773.0</ele><time>2026-04-11T10:10:58.999Z</time></trkpt><trkpt lat="43.28085402832372" lon="12.808769557770514"><ele>767.0</ele><time>2026-04-11T10:11:00.999Z</time></trkpt><trkpt lat="43.28088768421169" lon="12.808639813378006"><ele>761.0</ele><time>2026-04-11T10:11:02.999Z</time></trkpt><trkpt lat="43.280921672230306" lon="12.808529125291285"><ele>762.0</ele><time>2026-04-11T10:11:04.999Z</time></trkpt><trkpt lat="43.280983908222105" lon="12.808449695733207"><ele>763.0</ele><time>2026-04-11T10:11:07.999Z</time></trkpt><trkpt lat="43.281020060025824" lon="12.808340469061255"><ele>764.0</ele><time>2026-04-11T10:11:10.999Z</time></trkpt><trkpt lat="43.28106779045846" lon="12.808263145182638"><ele>765.0</ele><time>2026-04-11T10:11:14.999Z</time></trkpt><trkpt lat="43.28115372318471" lon="12.808215535039126"><ele>766.0</ele><time>2026-04-11T10:14:15Z</time></trkpt><trkpt lat="43.28121641627853" lon="12.808174362697779"><ele>767.0</ele><time>2026-04-11T10:14:17.999Z</time></trkpt><trkpt lat="43.28126166297834" lon="12.808108293646296"><ele>767.0</ele><time>2026-04-11T10:14:21.999Z</time></trkpt><trkpt lat="43.28130650553506" lon="12.80804109404042"><ele>767.0</ele><time>2026-04-11T10:14:28.999Z</time></trkpt><trkpt lat="43.28135621536741" lon="12.807965792098763"><ele>767.0</ele><time>2026-04-11T10:14:31.999Z</time></trkpt><trkpt lat="43.28142279309791" lon="12.807893644842228"><ele>767.0</ele><time>2026-04-11T10:14:34.999Z</time></trkpt><trkpt lat="43.28148643398785" lon="12.807827882814324"><ele>767.0</ele><time>2026-04-11T10:14:36.999Z</time></trkpt><trkpt lat="43.281557866137966" lon="12.80776959713594"><ele>767.0</ele><time>2026-04-11T10:14:39.999Z</time></trkpt><trkpt lat="43.28165250482807" lon="12.807664414229256"><ele>762.8</ele><time>2026-04-11T10:14:41.999Z</time></trkpt><trkpt lat="43.28170701211641" lon="12.80760338199242"><ele>758.6</ele><time>2026-04-11T10:14:42.999Z</time></trkpt><trkpt lat="43.28176041407313" lon="12.807513237411191"><ele>754.4</ele><time>2026-04-11T10:15:15.999Z</time></trkpt><trkpt lat="43.28184036262278" lon="12.807404265137164"><ele>750.1999999999999</ele><time>2026-04-11T10:15:18.999Z</time></trkpt><trkpt lat="43.28187657124762" lon="12.807305872138405"><ele>746.0</ele><time>2026-04-11T10:15:20.999Z</time></trkpt><trkpt lat="43.28187845748192" lon="12.80716535530691"><ele>746.0</ele><time>2026-04-11T10:15:22.999Z</time></trkpt><trkpt lat="43.281910330370394" lon="12.806987133844538"><ele>746.0</ele><time>2026-04-11T10:15:24.999Z</time></trkpt><trkpt lat="43.28192890994712" lon="12.806787864256702"><ele>746.0</ele><time>2026-04-11T10:15:25.999Z</time></trkpt><trkpt lat="43.2819658234422" lon="12.806616991983"><ele>746.0</ele><time>2026-04-11T10:15:26.999Z</time></trkpt><trkpt lat="43.281995737693336" lon="12.806489665599615"><ele>748.6666666666666</ele><time>2026-04-11T10:15:27.999Z</time></trkpt><trkpt lat="43.28199585544471" lon="12.806370116564644"><ele>751.3333333333333</ele><time>2026-04-11T10:15:28.999Z</time></trkpt><trkpt lat="43.28198670250875" lon="12.806261043660344"><ele>754.0</ele><time>2026-04-11T10:15:29.999Z</time></trkpt><trkpt lat="43.28197473551206" lon="12.806168201846615"><ele>756.6666666666666</ele><time>2026-04-11T10:15:30.999Z</time></trkpt><trkpt lat="43.28195252913611" lon="12.806072431599066"><ele>759.3333333333334</ele><time>2026-04-11T10:15:31.999Z</time></trkpt><trkpt lat="43.28194911227202" lon="12.805918518246244"><ele>762.0</ele><time>2026-04-11T10:15:33.999Z</time></trkpt><trkpt lat="43.28195871948852" lon="12.805802386496039"><ele>765.5</ele><time>2026-04-11T10:15:34.999Z</time></trkpt><trkpt lat="43.281989773093976" lon="12.80564420350738"><ele>769.0</ele><time>2026-04-11T10:15:35.999Z</time></trkpt><trkpt lat="43.282010391758035" lon="12.805447638075309"><ele>772.5</ele><time>2026-04-11T10:15:36.999Z</time></trkpt><trkpt lat="43.28200607228926" lon="12.80524593208104"><ele>776.0</ele><time>2026-04-11T10:15:37.999Z</time></trkpt><trkpt lat="43.28200985398955" lon="12.80506493086553"><ele>780.25</ele><time>2026-04-11T10:15:38.999Z</time></trkpt><trkpt lat="43.28203936738784" lon="12.804879741110677"><ele>784.5</ele><time>2026-04-11T10:15:39.999Z</time></trkpt><trkpt lat="43.2821012181565" lon="12.804705116468199"><ele>788.75</ele><time>2026-04-11T10:15:40.999Z</time></trkpt><trkpt lat="43.28219965065236" lon="12.804625884957861"><ele>793.0</ele><time>2026-04-11T10:15:41.999Z</time></trkpt><trkpt lat="43.282239364075416" lon="12.804551847824753"><ele>790.2</ele><time>2026-04-11T10:15:42.999Z</time></trkpt><trkpt lat="43.28228427730831" lon="12.804432224219799"><ele>787.4</ele><time>2026-04-11T10:15:44.999Z</time></trkpt><trkpt lat="43.28226135709286" lon="12.804319611093325"><ele>784.6</ele><time>2026-04-11T10:15:45.999Z</time></trkpt><trkpt lat="43.28222667877658" lon="12.80417177602933"><ele>781.8000000000001</ele><time>2026-04-11T10:15:46.999Z</time></trkpt><trkpt lat="43.28225115576161" lon="12.804076265216848"><ele>779.0</ele><time>2026-04-11T10:15:47.999Z</time></trkpt><trkpt lat="43.282296540025314" lon="12.803906040908828"><ele>779.0</ele><time>2026-04-11T10:15:48.999Z</time></trkpt><trkpt lat="43.282375634779605" lon="12.803793520330427"><ele>779.0</ele><time>2026-04-11T10:15:49.999Z</time></trkpt><trkpt lat="43.28239982054052" lon="12.803593775743895"><ele>779.0</ele><time>2026-04-11T10:15:50.999Z</time></trkpt><trkpt lat="43.28239913597645" lon="12.80341954450892"><ele>779.0</ele><time>2026-04-11T10:15:51.999Z</time></trkpt><trkpt lat="43.28243266256024" lon="12.803240624952721"><ele>782.6</ele><time>2026-04-11T10:15:52.999Z</time></trkpt><trkpt lat="43.28243005797707" lon="12.803089078731931"><ele>786.2</ele><time>2026-04-11T10:15:53.999Z</time></trkpt><trkpt lat="43.282436783932994" lon="12.802944349017706"><ele>789.8000000000001</ele><time>2026-04-11T10:15:54.999Z</time></trkpt><trkpt lat="43.28246361759431" lon="12.802798684248057"><ele>793.4000000000001</ele><time>2026-04-11T10:15:55.999Z</time></trkpt><trkpt lat="43.28248754604155" lon="12.802670228897004"><ele>797.0</ele><time>2026-04-11T10:15:56.999Z</time></trkpt><trkpt lat="43.28250808148469" lon="12.80255452566452"><ele>801.2</ele><time>2026-04-11T10:15:57.999Z</time></trkpt><trkpt lat="43.282522752171104" lon="12.80244893228316"><ele>805.4000000000001</ele><time>2026-04-11T10:15:58.999Z</time></trkpt><trkpt lat="43.2825450823846" lon="12.802274621111192"><ele>809.5999999999999</ele><time>2026-04-11T10:16:00.999Z</time></trkpt><trkpt lat="43.28257532234109" lon="12.802196737773993"><ele>813.8</ele><time>2026-04-11T10:16:01.999Z</time></trkpt><trkpt lat="43.282602695319035" lon="12.802054210264087"><ele>818.0</ele><time>2026-04-11T10:16:03.999Z</time></trkpt><trkpt lat="43.28258354957883" lon="12.801895529896797"><ele>822.0000000000001</ele><time>2026-04-11T10:16:05.999Z</time></trkpt><trkpt lat="43.28256439664199" lon="12.801780307928434"><ele>826.0</ele><time>2026-04-11T10:16:06.999Z</time></trkpt><trkpt lat="43.28256030327674" lon="12.801677787606614"><ele>830.0</ele><time>2026-04-11T10:16:07.999Z</time></trkpt><trkpt lat="43.28256319236555" lon="12.801590431970958"><ele>834.0</ele><time>2026-04-11T10:16:08.999Z</time></trkpt><trkpt lat="43.282619988677375" lon="12.801511707714205"><ele>838.0000000000001</ele><time>2026-04-11T10:16:10.999Z</time></trkpt><trkpt lat="43.282642818722" lon="12.801412373316944"><ele>842.0</ele><time>2026-04-11T10:16:13.999Z</time></trkpt><trkpt lat="43.28256909005998" lon="12.801428760742127"><ele>842.0000000000001</ele><time>2026-04-11T10:16:16.999Z</time></trkpt><trkpt lat="43.28246835393634" lon="12.80153393780318"><ele>842.0</ele><time>2026-04-11T10:16:18.999Z</time></trkpt><trkpt lat="43.28237834776684" lon="12.801591662479629"><ele>842.0</ele><time>2026-04-11T10:16:20.999Z</time></trkpt><trkpt lat="43.28235309433619" lon="12.801672491136967"><ele>842.0</ele><time>2026-04-11T10:16:22.999Z</time></trkpt><trkpt lat="43.28232077995647" lon="12.801748402754699"><ele>842.0000000000001</ele><time>2026-04-11T10:16:24.999Z</time></trkpt><trkpt lat="43.282267416547015" lon="12.801852135325127"><ele>842.0</ele><time>2026-04-11T10:16:26.999Z</time></trkpt><trkpt lat="43.28221445710065" lon="12.801912787758663"><ele>848.0</ele><time>2026-04-11T10:16:27.999Z</time></trkpt><trkpt lat="43.28215085387036" lon="12.801962714861094"><ele>854.0</ele><time>2026-04-11T10:16:28.999Z</time></trkpt><trkpt lat="43.282048743204506" lon="12.80206344223339"><ele>860.0</ele><time>2026-04-11T10:16:30.999Z</time></trkpt><trkpt lat="43.281994543807045" lon="12.802122197029188"><ele>866.0</ele><time>2026-04-11T10:16:31.999Z</time></trkpt><trkpt lat="43.281890273816224" lon="12.802247569700532"><ele>872.0</ele><time>2026-04-11T10:16:33.999Z</time></trkpt><trkpt lat="43.2818416602222" lon="12.802325865154245"><ele>872.0000000000001</ele><time>2026-04-11T10:16:34.999Z</time></trkpt><trkpt lat="43.281793277392495" lon="12.802390522795868"><ele>872.0</ele><time>2026-04-11T10:16:35.999Z</time></trkpt><trkpt lat="43.28174509492647" lon="12.802458550824362"><ele>872.0</ele><time>2026-04-11T10:16:36.999Z</time></trkpt><trkpt lat="43.28167614528308" lon="12.80251802358351"><ele>872.0</ele><time>2026-04-11T10:16:38.999Z</time></trkpt><trkpt lat="43.28161718589464" lon="12.802466667877999"><ele>872.0000000000001</ele><time>2026-04-11T10:16:40.999Z</time></trkpt><trkpt lat="43.28162746014744" lon="12.802352071494337"><ele>872.0</ele><time>2026-04-11T10:16:42.999Z</time></trkpt><trkpt lat="43.28163860934784" lon="12.802202314367479"><ele>872.0000000000001</ele><time>2026-04-11T10:16:44.999Z</time></trkpt><trkpt lat="43.281632144755655" lon="12.8021126607248"><ele>872.0</ele><time>2026-04-11T10:16:45.999Z</time></trkpt><trkpt lat="43.2816178404629" lon="12.802002847110455"><ele>872.0</ele><time>2026-04-11T10:16:46.999Z</time></trkpt><trkpt lat="43.281631608014315" lon="12.801873995282856"><ele>872.0</ele><time>2026-04-11T10:16:48.999Z</time></trkpt><trkpt lat="43.281650030351564" lon="12.801727827419588"><ele>872.0000000000001</ele><time>2026-04-11T10:16:50.999Z</time></trkpt><trkpt lat="43.281651344489624" lon="12.801626908251356"><ele>872.0</ele><time>2026-04-11T10:16:51.999Z</time></trkpt><trkpt lat="43.28166734633849" lon="12.801509995378728"><ele>876.2</ele><time>2026-04-11T10:16:52.999Z</time></trkpt><trkpt lat="43.281687026858634" lon="12.801388547663741"><ele>880.4000000000001</ele><time>2026-04-11T10:16:53.999Z</time></trkpt><trkpt lat="43.28170617532959" lon="12.801241168539441"><ele>884.5999999999999</ele><time>2026-04-11T10:16:54.999Z</time></trkpt><trkpt lat="43.281716473510365" lon="12.801116711833577"><ele>888.8</ele><time>2026-04-11T10:16:55.999Z</time></trkpt><trkpt lat="43.28173611509285" lon="12.800983620708713"><ele>893.0</ele><time>2026-04-11T10:16:56.999Z</time></trkpt><trkpt lat="43.2817776068576" lon="12.800848614662263"><ele>897.4</ele><time>2026-04-11T10:16:57.999Z</time></trkpt><trkpt lat="43.281807598853554" lon="12.800724057829372"><ele>901.8</ele><time>2026-04-11T10:16:58.999Z</time></trkpt><trkpt lat="43.28183221373296" lon="12.80058447560339"><ele>906.2</ele><time>2026-04-11T10:16:59.999Z</time></trkpt><trkpt lat="43.281880361427774" lon="12.800437342330513"><ele>910.6</ele><time>2026-04-11T10:17:00.999Z</time></trkpt><trkpt lat="43.28192055452177" lon="12.800292456132706"><ele>915.0</ele><time>2026-04-11T10:17:01.999Z</time></trkpt><trkpt lat="43.28196743330978" lon="12.800149142914893"><ele>919.4</ele><time>2026-04-11T10:17:02.999Z</time></trkpt><trkpt lat="43.282005077137015" lon="12.80001188548312"><ele>923.8</ele><time>2026-04-11T10:17:03.999Z</time></trkpt><trkpt lat="43.28203817844861" lon="12.799866995677748"><ele>928.2</ele><time>2026-04-11T10:17:04.999Z</time></trkpt><trkpt lat="43.282060343617616" lon="12.799731973054072"><ele>932.6</ele><time>2026-04-11T10:17:05.999Z</time></trkpt><trkpt lat="43.282081594881106" lon="12.79960207465438"><ele>937.0</ele><time>2026-04-11T10:17:06.999Z</time></trkpt><trkpt lat="43.28209286373856" lon="12.799470934164198"><ele>939.8</ele><time>2026-04-11T10:17:07.999Z</time></trkpt><trkpt lat="43.28210530879778" lon="12.799303563223631"><ele>942.6</ele><time>2026-04-11T10:17:08.999Z</time></trkpt><trkpt lat="43.282112934124704" lon="12.799161803931751"><ele>945.3999999999999</ele><time>2026-04-11T10:17:09.999Z</time></trkpt><trkpt lat="43.28211916753658" lon="12.799032406386772"><ele>948.1999999999999</ele><time>2026-04-11T10:17:10.999Z</time></trkpt><trkpt lat="43.28212406093655" lon="12.798929300645623"><ele>951.0</ele><time>2026-04-11T10:17:11.999Z</time></trkpt><trkpt lat="43.282119573250334" lon="12.798804993571874"><ele>951.0</ele><time>2026-04-11T10:17:13.999Z</time></trkpt><trkpt lat="43.282097275555124" lon="12.798697467126711"><ele>951.0</ele><time>2026-04-11T10:17:16.999Z</time></trkpt><trkpt lat="43.282150933351375" lon="12.798369198971216"><ele>951.0</ele><time>2026-04-11T10:17:29.999Z</time></trkpt><trkpt lat="43.282175808352655" lon="12.798271503842628"><ele>951.0</ele><time>2026-04-11T10:17:30.999Z</time></trkpt><trkpt lat="43.28220160819153" lon="12.798157415741466"><ele>953.4</ele><time>2026-04-11T10:17:31.999Z</time></trkpt><trkpt lat="43.28221861702008" lon="12.798046016460322"><ele>955.8</ele><time>2026-04-11T10:17:32.999Z</time></trkpt><trkpt lat="43.28220173612231" lon="12.797900259002956"><ele>958.1999999999999</ele><time>2026-04-11T10:17:34.999Z</time></trkpt><trkpt lat="43.282110987205115" lon="12.79778477754728"><ele>960.5999999999999</ele><time>2026-04-11T10:17:36.999Z</time></trkpt><trkpt lat="43.28205721158006" lon="12.797665282475112"><ele>963.0</ele><time>2026-04-11T10:17:37.999Z</time></trkpt><trkpt lat="43.28201064147113" lon="12.797514361518243"><ele>963.6666666666666</ele><time>2026-04-11T10:17:38.999Z</time></trkpt><trkpt lat="43.28197939510957" lon="12.797386864171127"><ele>964.3333333333333</ele><time>2026-04-11T10:17:39.999Z</time></trkpt><trkpt lat="43.28194921233229" lon="12.797276257157863"><ele>965.0</ele><time>2026-04-11T10:17:40.999Z</time></trkpt><trkpt lat="43.28192618275933" lon="12.797190952070597"><ele>965.6666666666666</ele><time>2026-04-11T10:17:41.999Z</time></trkpt><trkpt lat="43.28190026230245" lon="12.797070165479969"><ele>966.3333333333333</ele><time>2026-04-11T10:17:42.999Z</time></trkpt><trkpt lat="43.28187669695436" lon="12.796945969335866"><ele>967.0</ele><time>2026-04-11T10:17:43.999Z</time></trkpt><trkpt lat="43.28185058341936" lon="12.796826344547265"><ele>967.2</ele><time>2026-04-11T10:17:44.999Z</time></trkpt><trkpt lat="43.28182922209431" lon="12.796677783509027"><ele>967.4000000000001</ele><time>2026-04-11T10:17:46.999Z</time></trkpt><trkpt lat="43.28183084938814" lon="12.796512681371192"><ele>967.5999999999999</ele><time>2026-04-11T10:17:48.999Z</time></trkpt><trkpt lat="43.281833878604935" lon="12.796333784581728"><ele>967.8</ele><time>2026-04-11T10:17:50.999Z</time></trkpt><trkpt lat="43.281838821415924" lon="12.796247553069083"><ele>968.0</ele><time>2026-04-11T10:17:51.999Z</time></trkpt><trkpt lat="43.28184292868247" lon="12.79607799314423"><ele>968.0000000000001</ele><time>2026-04-11T10:17:53.999Z</time></trkpt><trkpt lat="43.28185061722219" lon="12.795965200907771"><ele>968.0</ele><time>2026-04-11T10:17:55.999Z</time></trkpt><trkpt lat="43.28185669462713" lon="12.795841295137986"><ele>968.0</ele><time>2026-04-11T10:17:57.999Z</time></trkpt><trkpt lat="43.28184770672294" lon="12.795718523719355"><ele>968.0</ele><time>2026-04-11T10:18:00Z</time></trkpt><trkpt lat="43.28184061900383" lon="12.795591677120159"><ele>968.0000000000001</ele><time>2026-04-11T10:18:02Z</time></trkpt><trkpt lat="43.281827570468316" lon="12.795477451722535"><ele>968.0</ele><time>2026-04-11T10:18:04Z</time></trkpt><trkpt lat="43.28180645579278" lon="12.795323458096043"><ele>968.0000000000001</ele><time>2026-04-11T10:18:06Z</time></trkpt><trkpt lat="43.281783168290104" lon="12.79517238357935"><ele>968.0</ele><time>2026-04-11T10:18:08Z</time></trkpt><trkpt lat="43.281769154509014" lon="12.795036564450777"><ele>968.0</ele><time>2026-04-11T10:18:10Z</time></trkpt><trkpt lat="43.28175909041696" lon="12.794944528726237"><ele>968.0</ele><time>2026-04-11T10:18:11Z</time></trkpt><trkpt lat="43.28174385416426" lon="12.794849697382238"><ele>968.0000000000001</ele><time>2026-04-11T10:18:12Z</time></trkpt><trkpt lat="43.28175038239187" lon="12.794736093503326"><ele>968.0</ele><time>2026-04-11T10:18:13Z</time></trkpt><trkpt lat="43.28173986582827" lon="12.794607065857432"><ele>967.8</ele><time>2026-04-11T10:18:14Z</time></trkpt><trkpt lat="43.28172731787545" lon="12.794466021327366"><ele>967.5999999999999</ele><time>2026-04-11T10:18:15Z</time></trkpt><trkpt lat="43.28170928764663" lon="12.794321640453981"><ele>967.4000000000001</ele><time>2026-04-11T10:18:16Z</time></trkpt><trkpt lat="43.28168880848044" lon="12.794203298017587"><ele>967.2</ele><time>2026-04-11T10:18:17Z</time></trkpt><trkpt lat="43.281682791486006" lon="12.7940829958632"><ele>967.0</ele><time>2026-04-11T10:18:18Z</time></trkpt><trkpt lat="43.281689899560696" lon="12.793976793367573"><ele>966.9999999999999</ele><time>2026-04-11T10:18:19Z</time></trkpt><trkpt lat="43.28168881324404" lon="12.793873843820803"><ele>967.0</ele><time>2026-04-11T10:18:20Z</time></trkpt><trkpt lat="43.28168039069512" lon="12.793782627845887"><ele>967.0</ele><time>2026-04-11T10:18:21Z</time></trkpt><trkpt lat="43.28166431754662" lon="12.793694180166202"><ele>967.0</ele><time>2026-04-11T10:18:22Z</time></trkpt><trkpt lat="43.28164231265837" lon="12.793510286217034"><ele>966.9999999999999</ele><time>2026-04-11T10:18:24Z</time></trkpt><trkpt lat="43.28163388725655" lon="12.793393666257373"><ele>967.0</ele><time>2026-04-11T10:18:25Z</time></trkpt><trkpt lat="43.281624801324895" lon="12.793259289397186"><ele>966.9999999999999</ele><time>2026-04-11T10:18:26Z</time></trkpt><trkpt lat="43.28162301434978" lon="12.793151921726608"><ele>967.0</ele><time>2026-04-11T10:18:27Z</time></trkpt><trkpt lat="43.28161535227719" lon="12.793050134230118"><ele>967.0</ele><time>2026-04-11T10:18:28Z</time></trkpt><trkpt lat="43.28161277845074" lon="12.792925680037863"><ele>967.0</ele><time>2026-04-11T10:18:29Z</time></trkpt><trkpt lat="43.28160916473129" lon="12.792821824842058"><ele>966.9999999999999</ele><time>2026-04-11T10:18:30Z</time></trkpt><trkpt lat="43.28160949860341" lon="12.792723375971269"><ele>967.0</ele><time>2026-04-11T10:18:31Z</time></trkpt><trkpt lat="43.28160996260289" lon="12.792634845137592"><ele>966.9999999999999</ele><time>2026-04-11T10:18:32Z</time></trkpt><trkpt lat="43.28161522085874" lon="12.79252871430715"><ele>967.0</ele><time>2026-04-11T10:18:32.999Z</time></trkpt><trkpt lat="43.28161799747541" lon="12.792435343590473"><ele>967.0</ele><time>2026-04-11T10:18:33.999Z</time></trkpt><trkpt lat="43.281655023552595" lon="12.792266186462493"><ele>967.0</ele><time>2026-04-11T10:18:35.999Z</time></trkpt><trkpt lat="43.28170508318543" lon="12.79218619077308"><ele>966.9999999999999</ele><time>2026-04-11T10:18:36.999Z</time></trkpt><trkpt lat="43.28177738214813" lon="12.792113569455278"><ele>967.0</ele><time>2026-04-11T10:18:37.999Z</time></trkpt><trkpt lat="43.28188688627253" lon="12.792063640443411"><ele>967.0</ele><time>2026-04-11T10:18:38.999Z</time></trkpt><trkpt lat="43.28200480386001" lon="12.792020296850778"><ele>967.0</ele><time>2026-04-11T10:18:39.999Z</time></trkpt><trkpt lat="43.282130718175516" lon="12.791993799374474"><ele>967.0</ele><time>2026-04-11T10:18:40.999Z</time></trkpt><trkpt lat="43.28228416555504" lon="12.791983811119563"><ele>967.0</ele><time>2026-04-11T10:18:41.999Z</time></trkpt><trkpt lat="43.282424080451165" lon="12.791998053563914"><ele>965.0</ele><time>2026-04-11T10:18:42.999Z</time></trkpt><trkpt lat="43.282584437282765" lon="12.792019857202861"><ele>963.0</ele><time>2026-04-11T10:18:43.999Z</time></trkpt><trkpt lat="43.28275048588066" lon="12.79204350053034"><ele>961.0</ele><time>2026-04-11T10:18:44.999Z</time></trkpt><trkpt lat="43.28288786043562" lon="12.79206361212628"><ele>961.0</ele><time>2026-04-11T10:18:45.999Z</time></trkpt><trkpt lat="43.283023142568126" lon="12.79206224858569"><ele>960.9999999999999</ele><time>2026-04-11T10:18:46.999Z</time></trkpt><trkpt lat="43.28309314545063" lon="12.792069208027133"><ele>960.9999999999999</ele><time>2026-04-11T10:18:47.999Z</time></trkpt><trkpt lat="43.28315393616625" lon="12.792001907675537"><ele>961.0</ele><time>2026-04-11T10:18:49.999Z</time></trkpt><trkpt lat="43.283164120889275" lon="12.791888861173105"><ele>961.0</ele><time>2026-04-11T10:18:51.999Z</time></trkpt><trkpt lat="43.28314723534385" lon="12.79169821069559"><ele>962.8</ele><time>2026-04-11T10:18:53.999Z</time></trkpt><trkpt lat="43.283150958954906" lon="12.791575215732998"><ele>964.5999999999999</ele><time>2026-04-11T10:18:54.999Z</time></trkpt><trkpt lat="43.28317452900054" lon="12.791461244565765"><ele>966.4</ele><time>2026-04-11T10:18:55.999Z</time></trkpt><trkpt lat="43.283188957485855" lon="12.791347220362551"><ele>968.2</ele><time>2026-04-11T10:18:56.999Z</time></trkpt><trkpt lat="43.283189200876336" lon="12.791235211485501"><ele>970.0</ele><time>2026-04-11T10:18:57.999Z</time></trkpt><trkpt lat="43.28325820360794" lon="12.79110736082225"><ele>970.0</ele><time>2026-04-11T10:18:59.999Z</time></trkpt><trkpt lat="43.28334093635146" lon="12.791047970947217"><ele>970.0</ele><time>2026-04-11T10:19:01.999Z</time></trkpt><trkpt lat="43.28333571631974" lon="12.790921112111961"><ele>970.0</ele><time>2026-04-11T10:19:14.999Z</time></trkpt><trkpt lat="43.283292582111834" lon="12.79075356507707"><ele>970.0</ele><time>2026-04-11T10:19:16.999Z</time></trkpt><trkpt lat="43.283268205255574" lon="12.790652868650321"><ele>970.0</ele><time>2026-04-11T10:19:17.999Z</time></trkpt><trkpt lat="43.28322716954497" lon="12.790525712400054"><ele>971.0</ele><time>2026-04-11T10:19:18.999Z</time></trkpt><trkpt lat="43.28316235695292" lon="12.790389247602564"><ele>972.0</ele><time>2026-04-11T10:19:19.999Z</time></trkpt><trkpt lat="43.283078453293555" lon="12.79025641077969"><ele>973.0</ele><time>2026-04-11T10:19:20.999Z</time></trkpt><trkpt lat="43.282970283799195" lon="12.79011528466617"><ele>974.0</ele><time>2026-04-11T10:19:21.999Z</time></trkpt><trkpt lat="43.28286361972125" lon="12.789955482258598"><ele>978.5</ele><time>2026-04-11T10:19:22.999Z</time></trkpt><trkpt lat="43.28276746757727" lon="12.789799682284054"><ele>983.0</ele><time>2026-04-11T10:19:23.999Z</time></trkpt><trkpt lat="43.28267889553625" lon="12.789668481822059"><ele>987.5</ele><time>2026-04-11T10:19:24.999Z</time></trkpt><trkpt lat="43.282595344599706" lon="12.789563851180889"><ele>992.0</ele><time>2026-04-11T10:19:25.999Z</time></trkpt><trkpt lat="43.282523149535244" lon="12.789472987754362"><ele>992.0</ele><time>2026-04-11T10:19:26.999Z</time></trkpt><trkpt lat="43.28246429852903" lon="12.78936525434796"><ele>992.0</ele><time>2026-04-11T10:19:27.999Z</time></trkpt><trkpt lat="43.2824373640173" lon="12.789237610534652"><ele>992.0</ele><time>2026-04-11T10:19:28.999Z</time></trkpt><trkpt lat="43.28243212155004" lon="12.789113644181125"><ele>992.0</ele><time>2026-04-11T10:19:29.999Z</time></trkpt><trkpt lat="43.282459697069264" lon="12.788999805451425"><ele>992.0</ele><time>2026-04-11T10:19:30.999Z</time></trkpt><trkpt lat="43.28250522283197" lon="12.78890927199512"><ele>992.0</ele><time>2026-04-11T10:19:31.999Z</time></trkpt><trkpt lat="43.28255730045983" lon="12.788808716485214"><ele>992.0</ele><time>2026-04-11T10:19:32.999Z</time></trkpt><trkpt lat="43.282604789814194" lon="12.788694193697303"><ele>992.0</ele><time>2026-04-11T10:19:33.999Z</time></trkpt><trkpt lat="43.28266078771147" lon="12.78856606271937"><ele>992.0</ele><time>2026-04-11T10:19:34.999Z</time></trkpt><trkpt lat="43.282699256858166" lon="12.788427131949277"><ele>992.0</ele><time>2026-04-11T10:19:35.999Z</time></trkpt><trkpt lat="43.282714644628" lon="12.788309710359188"><ele>992.0</ele><time>2026-04-11T10:19:36.999Z</time></trkpt><trkpt lat="43.282745266468446" lon="12.788170042858992"><ele>992.0</ele><time>2026-04-11T10:19:37.999Z</time></trkpt><trkpt lat="43.282791765625234" lon="12.788013558282934"><ele>992.0</ele><time>2026-04-11T10:19:38.999Z</time></trkpt><trkpt lat="43.28283668652563" lon="12.787836222296884"><ele>992.0</ele><time>2026-04-11T10:19:39.999Z</time></trkpt><trkpt lat="43.28286684994253" lon="12.787660717107112"><ele>993.8</ele><time>2026-04-11T10:19:40.999Z</time></trkpt><trkpt lat="43.28288888090851" lon="12.78746530028553"><ele>995.6</ele><time>2026-04-11T10:19:41.999Z</time></trkpt><trkpt lat="43.28291433821752" lon="12.787306790158494"><ele>997.3999999999999</ele><time>2026-04-11T10:19:42.999Z</time></trkpt><trkpt lat="43.28294996052374" lon="12.787191644983906"><ele>999.1999999999999</ele><time>2026-04-11T10:19:43.999Z</time></trkpt><trkpt lat="43.28296446178803" lon="12.787088936152982"><ele>1001.0</ele><time>2026-04-11T10:19:44.999Z</time></trkpt><trkpt lat="43.282953721759725" lon="12.786999958533187"><ele>1001.0</ele><time>2026-04-11T10:19:45.999Z</time></trkpt><trkpt lat="43.282863927995024" lon="12.786847523709445"><ele>1001.0</ele><time>2026-04-11T10:19:47.999Z</time></trkpt><trkpt lat="43.282761639785406" lon="12.786770789936776"><ele>1001.0</ele><time>2026-04-11T10:19:48.999Z</time></trkpt><trkpt lat="43.282647966994006" lon="12.786679067496728"><ele>1001.0</ele><time>2026-04-11T10:19:49.999Z</time></trkpt><trkpt lat="43.2825433019974" lon="12.786538237393145"><ele>1001.6666666666667</ele><time>2026-04-11T10:19:50.999Z</time></trkpt><trkpt lat="43.282447092716275" lon="12.786444522227217"><ele>1002.3333333333333</ele><time>2026-04-11T10:19:51.999Z</time></trkpt><trkpt lat="43.28230837451363" lon="12.786344561968182"><ele>1003.0</ele><time>2026-04-11T10:19:52.999Z</time></trkpt><trkpt lat="43.28214942734962" lon="12.786232818865654"><ele>1003.0</ele><time>2026-04-11T10:19:53.999Z</time></trkpt><trkpt lat="43.28202101668193" lon="12.786133673324194"><ele>1003.0</ele><time>2026-04-11T10:19:54.999Z</time></trkpt><trkpt lat="43.281901866256874" lon="12.786035790183034"><ele>1003.0</ele><time>2026-04-11T10:19:55.999Z</time></trkpt><trkpt lat="43.28180709526233" lon="12.785941253401269"><ele>1003.0</ele><time>2026-04-11T10:19:56.999Z</time></trkpt><trkpt lat="43.281707561435205" lon="12.7858384687536"><ele>1001.5</ele><time>2026-04-11T10:19:57.999Z</time></trkpt><trkpt lat="43.28161110763211" lon="12.785730972182552"><ele>1000.0</ele><time>2026-04-11T10:19:58.999Z</time></trkpt><trkpt lat="43.28150727656691" lon="12.785650444290331"><ele>998.5</ele><time>2026-04-11T10:19:59.999Z</time></trkpt><trkpt lat="43.28141308693147" lon="12.785568952405406"><ele>997.0</ele><time>2026-04-11T10:20:00.999Z</time></trkpt><trkpt lat="43.28130975388422" lon="12.785486585330759"><ele>997.0</ele><time>2026-04-11T10:20:01.999Z</time></trkpt><trkpt lat="43.28121020274791" lon="12.785398563546416"><ele>997.0</ele><time>2026-04-11T10:20:02.999Z</time></trkpt><trkpt lat="43.28109829749645" lon="12.78530715869447"><ele>997.0</ele><time>2026-04-11T10:20:04Z</time></trkpt><trkpt lat="43.280990072688994" lon="12.785207459026743"><ele>997.0</ele><time>2026-04-11T10:20:05Z</time></trkpt><trkpt lat="43.28088405821158" lon="12.785098603602442"><ele>996.75</ele><time>2026-04-11T10:20:06Z</time></trkpt><trkpt lat="43.28077139203036" lon="12.784985406682965"><ele>996.5</ele><time>2026-04-11T10:20:07Z</time></trkpt><trkpt lat="43.280653791227245" lon="12.784865064472985"><ele>996.25</ele><time>2026-04-11T10:20:08Z</time></trkpt><trkpt lat="43.28054587891985" lon="12.78475115214784"><ele>996.0</ele><time>2026-04-11T10:20:09Z</time></trkpt><trkpt lat="43.28044738847508" lon="12.784636894505882"><ele>996.0</ele><time>2026-04-11T10:20:10Z</time></trkpt><trkpt lat="43.280339006618476" lon="12.784518208527784"><ele>996.0</ele><time>2026-04-11T10:20:11Z</time></trkpt><trkpt lat="43.28022480075866" lon="12.784378328674924"><ele>996.0</ele><time>2026-04-11T10:20:12Z</time></trkpt><trkpt lat="43.2801135755552" lon="12.784252027970005"><ele>996.0</ele><time>2026-04-11T10:20:13Z</time></trkpt><trkpt lat="43.280003372032176" lon="12.78413313091572"><ele>992.5</ele><time>2026-04-11T10:20:14Z</time></trkpt><trkpt lat="43.27989871422327" lon="12.784031384683047"><ele>989.0</ele><time>2026-04-11T10:20:15Z</time></trkpt><trkpt lat="43.27980587358178" lon="12.783910755490277"><ele>985.5</ele><time>2026-04-11T10:20:16Z</time></trkpt><trkpt lat="43.27971653089722" lon="12.783784446540983"><ele>982.0</ele><time>2026-04-11T10:20:17Z</time></trkpt><trkpt lat="43.27963492000723" lon="12.78367919097705"><ele>981.9999999999999</ele><time>2026-04-11T10:20:18Z</time></trkpt><trkpt lat="43.27955857658492" lon="12.783576652652483"><ele>982.0</ele><time>2026-04-11T10:20:19Z</time></trkpt><trkpt lat="43.27949604853988" lon="12.783477907720194"><ele>982.0</ele><time>2026-04-11T10:20:20Z</time></trkpt><trkpt lat="43.2794292237596" lon="12.783399710597719"><ele>982.0</ele><time>2026-04-11T10:20:21Z</time></trkpt><trkpt lat="43.279374690924634" lon="12.783336433997865"><ele>981.9999999999999</ele><time>2026-04-11T10:20:22Z</time></trkpt><trkpt lat="43.27931419715962" lon="12.783255716587568"><ele>982.0</ele><time>2026-04-11T10:20:24Z</time></trkpt><trkpt lat="43.279264492195644" lon="12.783201871326895"><ele>986.6666666666666</ele><time>2026-04-11T10:20:26Z</time></trkpt><trkpt lat="43.27923979885773" lon="12.783118986270294"><ele>991.3333333333333</ele><time>2026-04-11T10:22:49Z</time></trkpt><trkpt lat="43.27926636940102" lon="12.782995728156543"><ele>996.0</ele><time>2026-04-11T10:22:51Z</time></trkpt><trkpt lat="43.27929035368225" lon="12.782899398901366"><ele>1000.6666666666667</ele><time>2026-04-11T10:22:52Z</time></trkpt><trkpt lat="43.279322530574724" lon="12.78276462821629"><ele>1005.3333333333334</ele><time>2026-04-11T10:22:53Z</time></trkpt><trkpt lat="43.27935340601357" lon="12.782621797436594"><ele>1010.0</ele><time>2026-04-11T10:22:54Z</time></trkpt><trkpt lat="43.27937059160397" lon="12.782444052244948"><ele>1010.5</ele><time>2026-04-11T10:22:55Z</time></trkpt><trkpt lat="43.279372863442255" lon="12.782233198093335"><ele>1011.0</ele><time>2026-04-11T10:22:56Z</time></trkpt><trkpt lat="43.27938973415436" lon="12.782038461164271"><ele>1011.5</ele><time>2026-04-11T10:22:57Z</time></trkpt><trkpt lat="43.27943139894845" lon="12.78184689269664"><ele>1012.0</ele><time>2026-04-11T10:22:58Z</time></trkpt><trkpt lat="43.279465780456896" lon="12.78169477183478"><ele>1010.0</ele><time>2026-04-11T10:22:59Z</time></trkpt><trkpt lat="43.2794981251731" lon="12.781576340651647"><ele>1008.0</ele><time>2026-04-11T10:23:00Z</time></trkpt><trkpt lat="43.27959725427186" lon="12.781445434535549"><ele>1006.0</ele><time>2026-04-11T10:23:02Z</time></trkpt><trkpt lat="43.27969865469217" lon="12.781390447827981"><ele>1004.0</ele><time>2026-04-11T10:23:03Z</time></trkpt><trkpt lat="43.279802375749185" lon="12.781312485100658"><ele>1004.8000000000001</ele><time>2026-04-11T10:23:04Z</time></trkpt><trkpt lat="43.279876415777515" lon="12.781247684666969"><ele>1005.6000000000001</ele><time>2026-04-11T10:23:05Z</time></trkpt><trkpt lat="43.27991676323533" lon="12.781120382766213"><ele>1006.4</ele><time>2026-04-11T10:23:07Z</time></trkpt><trkpt lat="43.27992945533673" lon="12.780949645910853"><ele>1007.2</ele><time>2026-04-11T10:23:09Z</time></trkpt><trkpt lat="43.27998057530611" lon="12.780856624190335"><ele>1008.0</ele><time>2026-04-11T10:23:10Z</time></trkpt><trkpt lat="43.28003540025008" lon="12.780756445277772"><ele>1008.0</ele><time>2026-04-11T10:23:11Z</time></trkpt><trkpt lat="43.28009403760637" lon="12.780639688690744"><ele>1008.0</ele><time>2026-04-11T10:23:12Z</time></trkpt><trkpt lat="43.280161848628936" lon="12.78050830887972"><ele>1008.0</ele><time>2026-04-11T10:23:13Z</time></trkpt><trkpt lat="43.28024320842629" lon="12.780375361454766"><ele>1008.0</ele><time>2026-04-11T10:23:14Z</time></trkpt><trkpt lat="43.28033056820123" lon="12.780259399497442"><ele>1005.75</ele><time>2026-04-11T10:23:15Z</time></trkpt><trkpt lat="43.280420132321886" lon="12.780149781000203"><ele>1003.5</ele><time>2026-04-11T10:23:16Z</time></trkpt><trkpt lat="43.28051089700294" lon="12.780035688515659"><ele>1001.25</ele><time>2026-04-11T10:23:17Z</time></trkpt><trkpt lat="43.28060765735675" lon="12.77991256705763"><ele>999.0</ele><time>2026-04-11T10:23:18Z</time></trkpt><trkpt lat="43.28070745957628" lon="12.779788094037553"><ele>999.0</ele><time>2026-04-11T10:23:19Z</time></trkpt><trkpt lat="43.28080603691086" lon="12.77966229906686"><ele>999.0</ele><time>2026-04-11T10:23:20Z</time></trkpt><trkpt lat="43.28091028831234" lon="12.77954419745904"><ele>999.0</ele><time>2026-04-11T10:23:21Z</time></trkpt><trkpt lat="43.281019593185526" lon="12.77942623479111"><ele>999.0</ele><time>2026-04-11T10:23:22Z</time></trkpt><trkpt lat="43.28113330118755" lon="12.779311592405463"><ele>995.75</ele><time>2026-04-11T10:23:22.999Z</time></trkpt><trkpt lat="43.28125040245202" lon="12.779200977418489"><ele>992.5</ele><time>2026-04-11T10:23:23.999Z</time></trkpt><trkpt lat="43.28136806369245" lon="12.779094219534011"><ele>989.25</ele><time>2026-04-11T10:23:24.999Z</time></trkpt><trkpt lat="43.28148426510054" lon="12.778988410289033"><ele>986.0</ele><time>2026-04-11T10:23:25.999Z</time></trkpt><trkpt lat="43.281598407317816" lon="12.778880112818513"><ele>986.0</ele><time>2026-04-11T10:23:26.999Z</time></trkpt><trkpt lat="43.28171490012415" lon="12.778766734517289"><ele>986.0</ele><time>2026-04-11T10:23:27.999Z</time></trkpt><trkpt lat="43.281828309022565" lon="12.77865435535283"><ele>986.0</ele><time>2026-04-11T10:23:28.999Z</time></trkpt><trkpt lat="43.28194155174673" lon="12.778539046173924"><ele>986.0</ele><time>2026-04-11T10:23:29.999Z</time></trkpt><trkpt lat="43.28205307816481" lon="12.778424653586566"><ele>982.25</ele><time>2026-04-11T10:23:30.999Z</time></trkpt><trkpt lat="43.28216834059613" lon="12.778308735453049"><ele>978.5</ele><time>2026-04-11T10:23:31.999Z</time></trkpt><trkpt lat="43.282287927070215" lon="12.77821913891911"><ele>974.75</ele><time>2026-04-11T10:23:32.999Z</time></trkpt><trkpt lat="43.28242422463949" lon="12.778153997070664"><ele>971.0</ele><time>2026-04-11T10:23:33.999Z</time></trkpt><trkpt lat="43.28256872967413" lon="12.778105071092334"><ele>971.0</ele><time>2026-04-11T10:23:34.999Z</time></trkpt><trkpt lat="43.28270686472697" lon="12.778066966038763"><ele>971.0</ele><time>2026-04-11T10:23:35.999Z</time></trkpt><trkpt lat="43.28284688470484" lon="12.778034930263242"><ele>971.0</ele><time>2026-04-11T10:23:36.999Z</time></trkpt><trkpt lat="43.28297746164738" lon="12.778008788995454"><ele>971.0</ele><time>2026-04-11T10:23:37.999Z</time></trkpt><trkpt lat="43.28309629288499" lon="12.777998228613038"><ele>970.4</ele><time>2026-04-11T10:23:38.999Z</time></trkpt><trkpt lat="43.2831879991998" lon="12.778006125488053"><ele>969.8</ele><time>2026-04-11T10:23:39.999Z</time></trkpt><trkpt lat="43.283259930330125" lon="12.77797925458864"><ele>969.1999999999999</ele><time>2026-04-11T10:23:40.999Z</time></trkpt><trkpt lat="43.28336340332099" lon="12.777951921028562"><ele>968.5999999999999</ele><time>2026-04-11T10:23:42.999Z</time></trkpt><trkpt lat="43.283463074850346" lon="12.778006768787211"><ele>968.0</ele><time>2026-04-11T10:23:44.999Z</time></trkpt><trkpt lat="43.28354588616966" lon="12.778046397138931"><ele>968.0000000000001</ele><time>2026-04-11T10:23:46.999Z</time></trkpt><trkpt lat="43.28362571419461" lon="12.778079368086743"><ele>968.0</ele><time>2026-04-11T10:23:48.999Z</time></trkpt><trkpt lat="43.283698497679886" lon="12.778118691777278"><ele>968.0</ele><time>2026-04-11T10:23:50.999Z</time></trkpt><trkpt lat="43.283764034915365" lon="12.778139236062481"><ele>968.0</ele><time>2026-04-11T10:24:01.999Z</time></trkpt><trkpt lat="43.283850683667" lon="12.778170370009402"><ele>968.0000000000001</ele><time>2026-04-11T10:24:03.999Z</time></trkpt><trkpt lat="43.28391306276419" lon="12.778195632256148"><ele>968.0</ele><time>2026-04-11T10:24:04.999Z</time></trkpt><trkpt lat="43.283992393444706" lon="12.778223147904606"><ele>966.4</ele><time>2026-04-11T10:24:05.999Z</time></trkpt><trkpt lat="43.28408263439142" lon="12.7782544125323"><ele>964.8</ele><time>2026-04-11T10:24:06.999Z</time></trkpt><trkpt lat="43.28417524034453" lon="12.77829539028722"><ele>963.2</ele><time>2026-04-11T10:24:07.999Z</time></trkpt><trkpt lat="43.28427689549326" lon="12.778329792687227"><ele>961.6</ele><time>2026-04-11T10:24:08.999Z</time></trkpt><trkpt lat="43.28438277011816" lon="12.778367118244088"><ele>960.0</ele><time>2026-04-11T10:24:09.999Z</time></trkpt><trkpt lat="43.28449229917414" lon="12.778389160745736"><ele>960.0</ele><time>2026-04-11T10:24:10.999Z</time></trkpt><trkpt lat="43.284600008670374" lon="12.778413911980692"><ele>960.0</ele><time>2026-04-11T10:24:11.999Z</time></trkpt><trkpt lat="43.28471072409872" lon="12.778482876142684"><ele>960.0</ele><time>2026-04-11T10:24:12.999Z</time></trkpt><trkpt lat="43.284826048532125" lon="12.778547116983306"><ele>960.0</ele><time>2026-04-11T10:24:13.999Z</time></trkpt><trkpt lat="43.28497280585766" lon="12.778576290588612"><ele>965.6666666666667</ele><time>2026-04-11T10:24:14.999Z</time></trkpt><trkpt lat="43.28512846660487" lon="12.778583073657549"><ele>971.3333333333334</ele><time>2026-04-11T10:24:16Z</time></trkpt><trkpt lat="43.28529431783272" lon="12.778597039766149"><ele>977.0</ele><time>2026-04-11T10:24:17Z</time></trkpt><trkpt lat="43.28544136511619" lon="12.778609293206163"><ele>977.0</ele><time>2026-04-11T10:24:18Z</time></trkpt><trkpt lat="43.28557925848259" lon="12.778605286021111"><ele>977.0</ele><time>2026-04-11T10:24:19Z</time></trkpt><trkpt lat="43.28573611372403" lon="12.778575609273457"><ele>977.0</ele><time>2026-04-11T10:24:20Z</time></trkpt><trkpt lat="43.28588652573438" lon="12.778521045288352"><ele>978.25</ele><time>2026-04-11T10:24:21Z</time></trkpt><trkpt lat="43.28601536471096" lon="12.778475360816492"><ele>979.5</ele><time>2026-04-11T10:24:22Z</time></trkpt><trkpt lat="43.28612608703622" lon="12.778460365603918"><ele>980.75</ele><time>2026-04-11T10:24:23Z</time></trkpt><trkpt lat="43.286259986895764" lon="12.77848887508005"><ele>982.0</ele><time>2026-04-11T10:24:24Z</time></trkpt><trkpt lat="43.28642088474935" lon="12.778523563951712"><ele>981.75</ele><time>2026-04-11T10:24:25Z</time></trkpt><trkpt lat="43.28656198387653" lon="12.778543639784948"><ele>981.5</ele><time>2026-04-11T10:24:26Z</time></trkpt><trkpt lat="43.286693612706024" lon="12.778556839230673"><ele>981.25</ele><time>2026-04-11T10:24:27Z</time></trkpt><trkpt lat="43.28681261073677" lon="12.778567610496353"><ele>981.0</ele><time>2026-04-11T10:24:28Z</time></trkpt><trkpt lat="43.28691165133433" lon="12.778540106845513"><ele>976.5999999999999</ele><time>2026-04-11T10:24:29Z</time></trkpt><trkpt lat="43.286996341372515" lon="12.778474009128555"><ele>972.1999999999999</ele><time>2026-04-11T10:24:30Z</time></trkpt><trkpt lat="43.28706229413015" lon="12.77841356286575"><ele>967.8000000000001</ele><time>2026-04-11T10:24:31Z</time></trkpt><trkpt lat="43.28713318085914" lon="12.778408709028929"><ele>963.4000000000001</ele><time>2026-04-11T10:24:32Z</time></trkpt><trkpt lat="43.28722929930423" lon="12.778433848219228"><ele>959.0</ele><time>2026-04-11T10:24:33Z</time></trkpt><trkpt lat="43.28734872064673" lon="12.778474206747154"><ele>964.6666666666667</ele><time>2026-04-11T10:24:34Z</time></trkpt><trkpt lat="43.287500319261014" lon="12.778523610770817"><ele>970.3333333333333</ele><time>2026-04-11T10:24:35Z</time></trkpt><trkpt lat="43.287666776442954" lon="12.778566274345765"><ele>976.0</ele><time>2026-04-11T10:24:36Z</time></trkpt><trkpt lat="43.28781449838528" lon="12.7785927887525"><ele>976.0</ele><time>2026-04-11T10:24:37Z</time></trkpt><trkpt lat="43.28794700303868" lon="12.778604776785262"><ele>976.0</ele><time>2026-04-11T10:24:38Z</time></trkpt><trkpt lat="43.28807888440818" lon="12.778605211846363"><ele>976.0</ele><time>2026-04-11T10:24:39Z</time></trkpt><trkpt lat="43.288211938780904" lon="12.778604512147298"><ele>976.0</ele><time>2026-04-11T10:24:40Z</time></trkpt><trkpt lat="43.288335599844686" lon="12.778610219202655"><ele>972.75</ele><time>2026-04-11T10:24:41Z</time></trkpt><trkpt lat="43.28846844447821" lon="12.77862460100186"><ele>969.5</ele><time>2026-04-11T10:24:42Z</time></trkpt><trkpt lat="43.28859245407871" lon="12.778607496354514"><ele>966.25</ele><time>2026-04-11T10:24:43Z</time></trkpt><trkpt lat="43.28869731256918" lon="12.778573986080676"><ele>963.0</ele><time>2026-04-11T10:24:44Z</time></trkpt><trkpt lat="43.288795876134955" lon="12.778574000875478"><ele>963.0</ele><time>2026-04-11T10:24:46Z</time></trkpt><trkpt lat="43.28884125246134" lon="12.778653616646551"><ele>963.0</ele><time>2026-04-11T10:24:47Z</time></trkpt><trkpt lat="43.28892794856979" lon="12.778742700321668"><ele>963.0</ele><time>2026-04-11T10:24:48Z</time></trkpt><trkpt lat="43.28900357764701" lon="12.778817529106112"><ele>963.0</ele><time>2026-04-11T10:24:49Z</time></trkpt><trkpt lat="43.28905989604241" lon="12.778868917179436"><ele>963.0</ele><time>2026-04-11T10:24:50Z</time></trkpt><trkpt lat="43.2891857613408" lon="12.778944377387159"><ele>963.0</ele><time>2026-04-11T10:24:52Z</time></trkpt><trkpt lat="43.2892714348954" lon="12.778990410903512"><ele>963.0</ele><time>2026-04-11T10:24:53Z</time></trkpt><trkpt lat="43.28933148544135" lon="12.779045100084506"><ele>963.0</ele><time>2026-04-11T10:24:54Z</time></trkpt><trkpt lat="43.28938422517995" lon="12.779131697363944"><ele>963.0</ele><time>2026-04-11T10:24:55Z</time></trkpt><trkpt lat="43.28944509748451" lon="12.779237461396749"><ele>963.0</ele><time>2026-04-11T10:24:56Z</time></trkpt><trkpt lat="43.2895066488942" lon="12.779319790327692"><ele>963.0</ele><time>2026-04-11T10:24:57Z</time></trkpt><trkpt lat="43.28957872503143" lon="12.779365838316647"><ele>963.0</ele><time>2026-04-11T10:24:58Z</time></trkpt><trkpt lat="43.28966499513998" lon="12.779407012186082"><ele>963.0</ele><time>2026-04-11T10:24:59Z</time></trkpt><trkpt lat="43.28975456277313" lon="12.779450958946244"><ele>963.0</ele><time>2026-04-11T10:25:00Z</time></trkpt><trkpt lat="43.28982207383148" lon="12.779515333548526"><ele>963.0</ele><time>2026-04-11T10:25:01Z</time></trkpt><trkpt lat="43.28988141892613" lon="12.779590293644995"><ele>963.0</ele><time>2026-04-11T10:25:02Z</time></trkpt><trkpt lat="43.28995560031986" lon="12.779707219646847"><ele>960.4</ele><time>2026-04-11T10:25:03Z</time></trkpt><trkpt lat="43.290046338705544" lon="12.779820718813772"><ele>957.8</ele><time>2026-04-11T10:25:04Z</time></trkpt><trkpt lat="43.29014084235575" lon="12.779916959378758"><ele>955.2</ele><time>2026-04-11T10:25:05Z</time></trkpt><trkpt lat="43.29021436581776" lon="12.7800076392618"><ele>952.6</ele><time>2026-04-11T10:25:06Z</time></trkpt><trkpt lat="43.29027237316451" lon="12.78012058372318"><ele>950.0</ele><time>2026-04-11T10:25:07Z</time></trkpt><trkpt lat="43.290318516368636" lon="12.780244694881235"><ele>950.0</ele><time>2026-04-11T10:25:08Z</time></trkpt><trkpt lat="43.29038489985511" lon="12.780359268873264"><ele>950.0</ele><time>2026-04-11T10:25:09Z</time></trkpt><trkpt lat="43.290480063107324" lon="12.780454701922656"><ele>950.0</ele><time>2026-04-11T10:25:10Z</time></trkpt><trkpt lat="43.290583540711594" lon="12.780524302565038"><ele>950.0</ele><time>2026-04-11T10:25:11Z</time></trkpt><trkpt lat="43.29069110016411" lon="12.780596539733816"><ele>944.0000000000001</ele><time>2026-04-11T10:25:12Z</time></trkpt><trkpt lat="43.290784751397695" lon="12.780685165026105"><ele>938.0</ele><time>2026-04-11T10:25:13Z</time></trkpt><trkpt lat="43.29083732552328" lon="12.7807669155943"><ele>932.0</ele><time>2026-04-11T10:25:14Z</time></trkpt><trkpt lat="43.29089038724669" lon="12.780829129987755"><ele>926.0</ele><time>2026-04-11T10:25:15Z</time></trkpt><trkpt lat="43.29099392544501" lon="12.78086761960084"><ele>920.0000000000001</ele><time>2026-04-11T10:25:17Z</time></trkpt><trkpt lat="43.29105500729909" lon="12.780836383008467"><ele>914.0</ele><time>2026-04-11T10:25:18Z</time></trkpt><trkpt lat="43.29111412929419" lon="12.780792569805234"><ele>914.0000000000001</ele><time>2026-04-11T10:25:19Z</time></trkpt><trkpt lat="43.29117600664637" lon="12.780750503049354"><ele>914.0</ele><time>2026-04-11T10:25:20Z</time></trkpt><trkpt lat="43.291240327424305" lon="12.780696908576417"><ele>914.0</ele><time>2026-04-11T10:25:21Z</time></trkpt><trkpt lat="43.29129380581732" lon="12.780633360478472"><ele>914.0</ele><time>2026-04-11T10:25:22Z</time></trkpt><trkpt lat="43.291344670437425" lon="12.780568286372745"><ele>914.0000000000001</ele><time>2026-04-11T10:25:23Z</time></trkpt><trkpt lat="43.29139925483305" lon="12.780516348551403"><ele>914.0</ele><time>2026-04-11T10:25:24Z</time></trkpt><trkpt lat="43.29148773482414" lon="12.780414647346259"><ele>912.6</ele><time>2026-04-11T10:25:26Z</time></trkpt><trkpt lat="43.29154892019686" lon="12.780279850993024"><ele>911.2</ele><time>2026-04-11T10:25:28Z</time></trkpt><trkpt lat="43.2915679155344" lon="12.780180418962543"><ele>909.8000000000001</ele><time>2026-04-11T10:25:29Z</time></trkpt><trkpt lat="43.29159160830198" lon="12.780034947887318"><ele>908.4000000000001</ele><time>2026-04-11T10:25:30Z</time></trkpt><trkpt lat="43.291621193169085" lon="12.779854122354648"><ele>907.0</ele><time>2026-04-11T10:25:31Z</time></trkpt><trkpt lat="43.29165620349677" lon="12.779674792080634"><ele>905.4000000000001</ele><time>2026-04-11T10:25:32Z</time></trkpt><trkpt lat="43.29168143581309" lon="12.779515178231025"><ele>903.8000000000001</ele><time>2026-04-11T10:25:33Z</time></trkpt><trkpt lat="43.29172118164251" lon="12.779380855652569"><ele>902.2</ele><time>2026-04-11T10:25:34Z</time></trkpt><trkpt lat="43.29178891831845" lon="12.779310905004198"><ele>900.6</ele><time>2026-04-11T10:25:35Z</time></trkpt><trkpt lat="43.29190944910407" lon="12.779256047581736"><ele>899.0</ele><time>2026-04-11T10:25:36Z</time></trkpt><trkpt lat="43.292058081767365" lon="12.779240431218556"><ele>896.5</ele><time>2026-04-11T10:25:37Z</time></trkpt><trkpt lat="43.29221713372308" lon="12.77922975420656"><ele>894.0</ele><time>2026-04-11T10:25:38Z</time></trkpt><trkpt lat="43.292346219202216" lon="12.779242725601932"><ele>891.5</ele><time>2026-04-11T10:25:39Z</time></trkpt><trkpt lat="43.29248391332124" lon="12.779282518215998"><ele>889.0</ele><time>2026-04-11T10:25:40Z</time></trkpt><trkpt lat="43.29261632824357" lon="12.779319671448201"><ele>887.8000000000001</ele><time>2026-04-11T10:25:41Z</time></trkpt><trkpt lat="43.292738243113064" lon="12.77936228512413"><ele>886.6000000000001</ele><time>2026-04-11T10:25:42Z</time></trkpt><trkpt lat="43.2928478728541" lon="12.779400744286367"><ele>885.4</ele><time>2026-04-11T10:25:42.999Z</time></trkpt><trkpt lat="43.292950588962874" lon="12.77943908871489"><ele>884.2</ele><time>2026-04-11T10:25:43.999Z</time></trkpt><trkpt lat="43.29304087997965" lon="12.77947436783251"><ele>883.0</ele><time>2026-04-11T10:25:44.999Z</time></trkpt><trkpt lat="43.29313867151497" lon="12.77951873497716"><ele>881.8333333333333</ele><time>2026-04-11T10:25:45.999Z</time></trkpt><trkpt lat="43.29321484293094" lon="12.779533075328038"><ele>880.6666666666666</ele><time>2026-04-11T10:25:46.999Z</time></trkpt><trkpt lat="43.29331182573531" lon="12.7795552702071"><ele>879.5</ele><time>2026-04-11T10:25:47.999Z</time></trkpt><trkpt lat="43.29339373221056" lon="12.779556891864637"><ele>878.3333333333333</ele><time>2026-04-11T10:25:48.999Z</time></trkpt><trkpt lat="43.29346621755756" lon="12.779544525802061"><ele>877.1666666666666</ele><time>2026-04-11T10:25:49.999Z</time></trkpt><trkpt lat="43.29354778942346" lon="12.779464273568443"><ele>876.0</ele><time>2026-04-11T10:25:51.999Z</time></trkpt><trkpt lat="43.29358023712249" lon="12.779364492279354"><ele>877.4</ele><time>2026-04-11T10:25:52.999Z</time></trkpt><trkpt lat="43.29361748474113" lon="12.779237352939672"><ele>878.8</ele><time>2026-04-11T10:25:53.999Z</time></trkpt><trkpt lat="43.29364478161534" lon="12.779088348706498"><ele>880.1999999999999</ele><time>2026-04-11T10:25:54.999Z</time></trkpt><trkpt lat="43.293660573727344" lon="12.778943917854608"><ele>881.5999999999999</ele><time>2026-04-11T10:25:55.999Z</time></trkpt><trkpt lat="43.29368599819355" lon="12.778782191063117"><ele>883.0</ele><time>2026-04-11T10:25:56.999Z</time></trkpt><trkpt lat="43.29371817893999" lon="12.778610057907818"><ele>884.5</ele><time>2026-04-11T10:25:57.999Z</time></trkpt><trkpt lat="43.293778798685736" lon="12.778430034337887"><ele>886.0</ele><time>2026-04-11T10:25:58.999Z</time></trkpt><trkpt lat="43.29384033302623" lon="12.778261560462292"><ele>887.5</ele><time>2026-04-11T10:25:59.999Z</time></trkpt><trkpt lat="43.293901243385974" lon="12.778127045347759"><ele>889.0</ele><time>2026-04-11T10:26:00.999Z</time></trkpt><trkpt lat="43.29396007702216" lon="12.778014825036013"><ele>882.2</ele><time>2026-04-11T10:26:01.999Z</time></trkpt><trkpt lat="43.29403146215972" lon="12.777917177896681"><ele>875.4000000000001</ele><time>2026-04-11T10:26:02.999Z</time></trkpt><trkpt lat="43.29409460418731" lon="12.777829806367034"><ele>868.6</ele><time>2026-04-11T10:26:03.999Z</time></trkpt><trkpt lat="43.29415009291149" lon="12.777734382906106"><ele>861.8</ele><time>2026-04-11T10:26:04.999Z</time></trkpt><trkpt lat="43.29421525022767" lon="12.777590518026422"><ele>855.0</ele><time>2026-04-11T10:26:05.999Z</time></trkpt><trkpt lat="43.294278945832914" lon="12.777413935554959"><ele>854.8</ele><time>2026-04-11T10:26:06.999Z</time></trkpt><trkpt lat="43.294329082156516" lon="12.777258314455585"><ele>854.6</ele><time>2026-04-11T10:26:07.999Z</time></trkpt><trkpt lat="43.29438752846967" lon="12.777114387902731"><ele>854.4000000000001</ele><time>2026-04-11T10:26:08.999Z</time></trkpt><trkpt lat="43.29445060238281" lon="12.776988652881728"><ele>854.2</ele><time>2026-04-11T10:26:09.999Z</time></trkpt><trkpt lat="43.29446612899066" lon="12.776882166154863"><ele>854.0</ele><time>2026-04-11T10:26:10.999Z</time></trkpt><trkpt lat="43.2944974025647" lon="12.776715400385312"><ele>853.6666666666667</ele><time>2026-04-11T10:26:11.999Z</time></trkpt><trkpt lat="43.29453370179825" lon="12.776586875221295"><ele>853.3333333333334</ele><time>2026-04-11T10:26:12.999Z</time></trkpt><trkpt lat="43.29457346174262" lon="12.776486958479136"><ele>853.0</ele><time>2026-04-11T10:26:13.999Z</time></trkpt><trkpt lat="43.29462302526608" lon="12.776403111231144"><ele>852.6666666666667</ele><time>2026-04-11T10:26:14.999Z</time></trkpt><trkpt lat="43.294693448535796" lon="12.776309766601136"><ele>852.3333333333334</ele><time>2026-04-11T10:26:16.999Z</time></trkpt><trkpt lat="43.2947579935419" lon="12.776331572169713"><ele>852.0</ele><time>2026-04-11T10:26:19.999Z</time></trkpt><trkpt lat="43.294836933027185" lon="12.77638481281258"><ele>847.2</ele><time>2026-04-11T10:26:22Z</time></trkpt><trkpt lat="43.29490851155002" lon="12.776436038720657"><ele>842.4000000000001</ele><time>2026-04-11T10:26:23Z</time></trkpt><trkpt lat="43.294983350016366" lon="12.776509138608235"><ele>837.5999999999999</ele><time>2026-04-11T10:26:24Z</time></trkpt><trkpt lat="43.29506118373427" lon="12.776603529844802"><ele>832.8</ele><time>2026-04-11T10:26:25Z</time></trkpt><trkpt lat="43.29513541081171" lon="12.776709821355904"><ele>828.0</ele><time>2026-04-11T10:26:26Z</time></trkpt><trkpt lat="43.295214702103365" lon="12.776815166143658"><ele>828.8</ele><time>2026-04-11T10:26:27Z</time></trkpt><trkpt lat="43.29529402358149" lon="12.776904231065991"><ele>829.5999999999999</ele><time>2026-04-11T10:26:28Z</time></trkpt><trkpt lat="43.29538259539742" lon="12.776972121341828"><ele>830.4000000000001</ele><time>2026-04-11T10:26:29Z</time></trkpt><trkpt lat="43.29548423279422" lon="12.777029229338162"><ele>831.2</ele><time>2026-04-11T10:26:30Z</time></trkpt><trkpt lat="43.295588571056584" lon="12.777087014286177"><ele>832.0</ele><time>2026-04-11T10:26:31Z</time></trkpt><trkpt lat="43.295660505487355" lon="12.777154371596199"><ele>828.8</ele><time>2026-04-11T10:26:32Z</time></trkpt><trkpt lat="43.29573961984066" lon="12.777305047664484"><ele>825.6</ele><time>2026-04-11T10:26:34Z</time></trkpt><trkpt lat="43.29579304863575" lon="12.777415779171957"><ele>822.4</ele><time>2026-04-11T10:26:36Z</time></trkpt><trkpt lat="43.29574294804238" lon="12.777539520941614"><ele>819.1999999999999</ele><time>2026-04-11T10:26:38Z</time></trkpt><trkpt lat="43.2956780828472" lon="12.777611250313253"><ele>816.0</ele><time>2026-04-11T10:26:39Z</time></trkpt><trkpt lat="43.29560430745475" lon="12.777707665645904"><ele>819.25</ele><time>2026-04-11T10:26:40Z</time></trkpt><trkpt lat="43.29553958665499" lon="12.777805311675557"><ele>822.5</ele><time>2026-04-11T10:26:41Z</time></trkpt><trkpt lat="43.29545990615818" lon="12.777933700541437"><ele>825.75</ele><time>2026-04-11T10:26:42Z</time></trkpt><trkpt lat="43.29536487451051" lon="12.778093211057612"><ele>829.0</ele><time>2026-04-11T10:26:43Z</time></trkpt><trkpt lat="43.295247873624646" lon="12.778262214759671"><ele>829.0</ele><time>2026-04-11T10:26:44Z</time></trkpt><trkpt lat="43.29512762074712" lon="12.778420384064484"><ele>829.0</ele><time>2026-04-11T10:26:45Z</time></trkpt><trkpt lat="43.29503083958005" lon="12.778570754730156"><ele>829.0</ele><time>2026-04-11T10:26:46Z</time></trkpt><trkpt lat="43.29498246684593" lon="12.778709164696041"><ele>829.0</ele><time>2026-04-11T10:26:47Z</time></trkpt><trkpt lat="43.29493751072919" lon="12.778856915013778"><ele>827.75</ele><time>2026-04-11T10:26:48Z</time></trkpt><trkpt lat="43.29488494965662" lon="12.779026493286233"><ele>826.5</ele><time>2026-04-11T10:26:49Z</time></trkpt><trkpt lat="43.294819427262134" lon="12.779193677517855"><ele>825.25</ele><time>2026-04-11T10:26:50Z</time></trkpt><trkpt lat="43.29475956655626" lon="12.779340141441331"><ele>824.0</ele><time>2026-04-11T10:26:51Z</time></trkpt><trkpt lat="43.29469997898983" lon="12.77948467623611"><ele>830.75</ele><time>2026-04-11T10:26:52Z</time></trkpt><trkpt lat="43.29463195712692" lon="12.77963164988042"><ele>837.5</ele><time>2026-04-11T10:26:53Z</time></trkpt><trkpt lat="43.29456852063039" lon="12.779767672681826"><ele>844.25</ele><time>2026-04-11T10:26:54Z</time></trkpt><trkpt lat="43.2945105185984" lon="12.779898496360076"><ele>851.0</ele><time>2026-04-11T10:26:55Z</time></trkpt><trkpt lat="43.29448007400931" lon="12.780037764151698"><ele>849.8</ele><time>2026-04-11T10:26:56Z</time></trkpt><trkpt lat="43.29444831222615" lon="12.780195457493956"><ele>848.5999999999999</ele><time>2026-04-11T10:26:57Z</time></trkpt><trkpt lat="43.294407694947004" lon="12.780331046214656"><ele>847.4</ele><time>2026-04-11T10:26:58Z</time></trkpt><trkpt lat="43.29435680505129" lon="12.780465935145873"><ele>846.2</ele><time>2026-04-11T10:26:59Z</time></trkpt><trkpt lat="43.29430162822874" lon="12.780594013582784"><ele>845.0</ele><time>2026-04-11T10:27:00Z</time></trkpt><trkpt lat="43.29424111154296" lon="12.780724697235065"><ele>845.0</ele><time>2026-04-11T10:27:01Z</time></trkpt><trkpt lat="43.294169878033465" lon="12.7808497633729"><ele>845.0</ele><time>2026-04-11T10:27:02Z</time></trkpt><trkpt lat="43.29409393564216" lon="12.780965866040631"><ele>845.0</ele><time>2026-04-11T10:27:03Z</time></trkpt><trkpt lat="43.294022428671944" lon="12.781115534527181"><ele>845.0</ele><time>2026-04-11T10:27:04Z</time></trkpt><trkpt lat="43.29397472539318" lon="12.781288228305105"><ele>848.8</ele><time>2026-04-11T10:27:05Z</time></trkpt><trkpt lat="43.293909727943756" lon="12.781434578422141"><ele>852.6</ele><time>2026-04-11T10:27:06Z</time></trkpt><trkpt lat="43.29384274998088" lon="12.78156694869061"><ele>856.4000000000001</ele><time>2026-04-11T10:27:07Z</time></trkpt><trkpt lat="43.29379194302648" lon="12.781665179380973"><ele>860.2</ele><time>2026-04-11T10:27:08Z</time></trkpt><trkpt lat="43.29371720602244" lon="12.78176838188434"><ele>864.0</ele><time>2026-04-11T10:27:10Z</time></trkpt><trkpt lat="43.29365909994103" lon="12.781817022089623"><ele>863.3333333333334</ele><time>2026-04-11T10:27:11Z</time></trkpt><trkpt lat="43.29358303173361" lon="12.781911772863245"><ele>862.6666666666667</ele><time>2026-04-11T10:27:13Z</time></trkpt><trkpt lat="43.29352408134149" lon="12.782036532771022"><ele>862.0</ele><time>2026-04-11T10:27:15Z</time></trkpt><trkpt lat="43.29349467264749" lon="12.782114432522535"><ele>861.3333333333334</ele><time>2026-04-11T10:27:16Z</time></trkpt><trkpt lat="43.293462998256906" lon="12.782208541774548"><ele>860.6666666666667</ele><time>2026-04-11T10:27:17Z</time></trkpt><trkpt lat="43.29342706322401" lon="12.782331146264214"><ele>860.0</ele><time>2026-04-11T10:27:18Z</time></trkpt><trkpt lat="43.29337236229995" lon="12.78246566391788"><ele>860.0</ele><time>2026-04-11T10:27:19Z</time></trkpt><trkpt lat="43.293331596675046" lon="12.782604513478864"><ele>860.0</ele><time>2026-04-11T10:27:20Z</time></trkpt><trkpt lat="43.293308878203035" lon="12.78276800495335"><ele>860.0</ele><time>2026-04-11T10:27:21Z</time></trkpt><trkpt lat="43.29327751461022" lon="12.78294934742751"><ele>860.0</ele><time>2026-04-11T10:27:22Z</time></trkpt><trkpt lat="43.293250306752036" lon="12.783131954454927"><ele>861.0</ele><time>2026-04-11T10:27:23Z</time></trkpt><trkpt lat="43.29323086268106" lon="12.783311284055795"><ele>862.0</ele><time>2026-04-11T10:27:24Z</time></trkpt><trkpt lat="43.2932257904142" lon="12.783467154147367"><ele>863.0</ele><time>2026-04-11T10:27:25Z</time></trkpt><trkpt lat="43.29320996298034" lon="12.783641189323342"><ele>864.0</ele><time>2026-04-11T10:27:26Z</time></trkpt><trkpt lat="43.2931989577538" lon="12.783805346386384"><ele>864.0</ele><time>2026-04-11T10:27:27Z</time></trkpt><trkpt lat="43.29318256763144" lon="12.783961565710833"><ele>864.0000000000001</ele><time>2026-04-11T10:27:28Z</time></trkpt><trkpt lat="43.29315705682182" lon="12.784099391331662"><ele>864.0000000000001</ele><time>2026-04-11T10:27:29Z</time></trkpt><trkpt lat="43.29315525866219" lon="12.784239232250638"><ele>864.0</ele><time>2026-04-11T10:27:30Z</time></trkpt><trkpt lat="43.29312857345989" lon="12.784368965492028"><ele>864.0</ele><time>2026-04-11T10:27:31Z</time></trkpt><trkpt lat="43.29308132910654" lon="12.784459086187109"><ele>865.6</ele><time>2026-04-11T10:27:32Z</time></trkpt><trkpt lat="43.293024809441015" lon="12.78456169762079"><ele>867.2</ele><time>2026-04-11T10:27:33Z</time></trkpt><trkpt lat="43.292970754906364" lon="12.784657611700515"><ele>868.8000000000001</ele><time>2026-04-11T10:27:34Z</time></trkpt><trkpt lat="43.29291605504788" lon="12.784719330778584"><ele>870.4000000000001</ele><time>2026-04-11T10:27:35Z</time></trkpt><trkpt lat="43.292788336129505" lon="12.78481651168554"><ele>872.0</ele><time>2026-04-11T10:27:37Z</time></trkpt><trkpt lat="43.29271188409412" lon="12.784850606718091"><ele>872.0</ele><time>2026-04-11T10:27:38Z</time></trkpt><trkpt lat="43.29263642239589" lon="12.784877148805153"><ele>872.0</ele><time>2026-04-11T10:27:39Z</time></trkpt><trkpt lat="43.292556828396734" lon="12.784898407170942"><ele>872.0</ele><time>2026-04-11T10:27:40Z</time></trkpt><trkpt lat="43.2924618285639" lon="12.784944130041932"><ele>872.0</ele><time>2026-04-11T10:27:41Z</time></trkpt><trkpt lat="43.292353227457944" lon="12.785023155726082"><ele>872.0</ele><time>2026-04-11T10:27:42Z</time></trkpt><trkpt lat="43.2922606635583" lon="12.785095633143104"><ele>872.5000000000001</ele><time>2026-04-11T10:27:43Z</time></trkpt><trkpt lat="43.29218479656155" lon="12.785148284745732"><ele>873.0</ele><time>2026-04-11T10:27:44Z</time></trkpt><trkpt lat="43.292117545887855" lon="12.78520203049755"><ele>873.5</ele><time>2026-04-11T10:27:45Z</time></trkpt><trkpt lat="43.29206168448615" lon="12.78528221464966"><ele>874.0</ele><time>2026-04-11T10:27:46Z</time></trkpt><trkpt lat="43.292000933890364" lon="12.785369556334517"><ele>874.5000000000001</ele><time>2026-04-11T10:27:47Z</time></trkpt><trkpt lat="43.29194188031883" lon="12.785480364279312"><ele>875.0</ele><time>2026-04-11T10:27:49Z</time></trkpt><trkpt lat="43.29193164919386" lon="12.785625299666103"><ele>875.0000000000001</ele><time>2026-04-11T10:27:51Z</time></trkpt><trkpt lat="43.29192761344994" lon="12.785719366015226"><ele>875.0</ele><time>2026-04-11T10:27:52Z</time></trkpt><trkpt lat="43.29191074014999" lon="12.785813585809327"><ele>875.0</ele><time>2026-04-11T10:27:53Z</time></trkpt><trkpt lat="43.29192128324729" lon="12.785910641186089"><ele>875.0</ele><time>2026-04-11T10:27:54Z</time></trkpt><trkpt lat="43.291918128880766" lon="12.786015284306893"><ele>875.0000000000001</ele><time>2026-04-11T10:27:55Z</time></trkpt><trkpt lat="43.29190365385879" lon="12.786179237156503"><ele>875.0</ele><time>2026-04-11T10:27:57Z</time></trkpt><trkpt lat="43.291894028684595" lon="12.786284481486595"><ele>872.6666666666667</ele><time>2026-04-11T10:27:58Z</time></trkpt><trkpt lat="43.291891617009625" lon="12.786382582017099"><ele>870.3333333333334</ele><time>2026-04-11T10:27:59Z</time></trkpt><trkpt lat="43.29188912213746" lon="12.786479023627903"><ele>868.0</ele><time>2026-04-11T10:28:00Z</time></trkpt><trkpt lat="43.29188802434826" lon="12.786586004467472"><ele>865.6666666666667</ele><time>2026-04-11T10:28:01Z</time></trkpt><trkpt lat="43.29189175086453" lon="12.786676693791925"><ele>863.3333333333334</ele><time>2026-04-11T10:28:02Z</time></trkpt><trkpt lat="43.29190712682983" lon="12.786786726624845"><ele>861.0</ele><time>2026-04-11T10:28:03Z</time></trkpt><trkpt lat="43.291859922558345" lon="12.786910573720302"><ele>857.1666666666666</ele><time>2026-04-11T10:28:05Z</time></trkpt><trkpt lat="43.291814055993235" lon="12.786983705845321"><ele>853.3333333333333</ele><time>2026-04-11T10:28:06Z</time></trkpt><trkpt lat="43.29176368797873" lon="12.787039296155422"><ele>849.5</ele><time>2026-04-11T10:28:07Z</time></trkpt><trkpt lat="43.291678234252956" lon="12.78712345572133"><ele>845.6666666666666</ele><time>2026-04-11T10:28:09Z</time></trkpt><trkpt lat="43.291603770453925" lon="12.787201400925504"><ele>841.8333333333333</ele><time>2026-04-11T10:28:11Z</time></trkpt><trkpt lat="43.29155524631353" lon="12.78728364858222"><ele>838.0</ele><time>2026-04-11T10:28:12Z</time></trkpt><trkpt lat="43.29152643517802" lon="12.787377062567655"><ele>837.9999999999999</ele><time>2026-04-11T10:28:13Z</time></trkpt><trkpt lat="43.291497054867605" lon="12.787470791402754"><ele>838.0</ele><time>2026-04-11T10:28:14Z</time></trkpt><trkpt lat="43.2914626207799" lon="12.787552006922102"><ele>838.0</ele><time>2026-04-11T10:28:15Z</time></trkpt><trkpt lat="43.29144506110789" lon="12.787642878865771"><ele>838.0</ele><time>2026-04-11T10:28:16Z</time></trkpt><trkpt lat="43.29145685052349" lon="12.787819745383587"><ele>837.9999999999999</ele><time>2026-04-11T10:28:18Z</time></trkpt><trkpt lat="43.29146634600567" lon="12.787916851820968"><ele>838.0</ele><time>2026-04-11T10:28:19Z</time></trkpt><trkpt lat="43.291481628925816" lon="12.78803941177335"><ele>836.75</ele><time>2026-04-11T10:28:20Z</time></trkpt><trkpt lat="43.29150602244125" lon="12.788160392071887"><ele>835.5</ele><time>2026-04-11T10:28:21Z</time></trkpt><trkpt lat="43.29155363565499" lon="12.788295685250151"><ele>834.25</ele><time>2026-04-11T10:28:22Z</time></trkpt><trkpt lat="43.2916311989911" lon="12.788463481333439"><ele>833.0</ele><time>2026-04-11T10:28:23Z</time></trkpt><trkpt lat="43.291727919452036" lon="12.78863770574828"><ele>838.75</ele><time>2026-04-11T10:28:23.999Z</time></trkpt><trkpt lat="43.29182064009551" lon="12.78881184621622"><ele>844.5</ele><time>2026-04-11T10:28:24.999Z</time></trkpt><trkpt lat="43.29191719622761" lon="12.788959915319824"><ele>850.25</ele><time>2026-04-11T10:28:25.999Z</time></trkpt><trkpt lat="43.29200565140189" lon="12.789074738329722"><ele>856.0</ele><time>2026-04-11T10:28:26.999Z</time></trkpt><trkpt lat="43.29208447267954" lon="12.789143002819467"><ele>856.0</ele><time>2026-04-11T10:28:28Z</time></trkpt><trkpt lat="43.292188900516415" lon="12.789188450593691"><ele>855.9999999999999</ele><time>2026-04-11T10:28:29Z</time></trkpt><trkpt lat="43.29230996564925" lon="12.789240547478137"><ele>855.9999999999999</ele><time>2026-04-11T10:28:30Z</time></trkpt><trkpt lat="43.292367299608074" lon="12.789310704232724"><ele>856.0</ele><time>2026-04-11T10:28:31Z</time></trkpt><trkpt lat="43.29240459479092" lon="12.789478918859292"><ele>856.0</ele><time>2026-04-11T10:28:33Z</time></trkpt><trkpt lat="43.29243800780647" lon="12.789580974006894"><ele>856.0</ele><time>2026-04-11T10:28:34Z</time></trkpt><trkpt lat="43.29245307178801" lon="12.789678576309768"><ele>855.9999999999999</ele><time>2026-04-11T10:28:35Z</time></trkpt><trkpt lat="43.29247103974024" lon="12.789802855832157"><ele>855.9999999999999</ele><time>2026-04-11T10:28:36Z</time></trkpt><trkpt lat="43.29247466124583" lon="12.789910218181141"><ele>856.0</ele><time>2026-04-11T10:28:37Z</time></trkpt><trkpt lat="43.292516214201676" lon="12.790080426740577"><ele>856.0</ele><time>2026-04-11T10:28:39Z</time></trkpt><trkpt lat="43.292558507142026" lon="12.790200206498252"><ele>856.0</ele><time>2026-04-11T10:28:40Z</time></trkpt><trkpt lat="43.29260823411801" lon="12.790332685720223"><ele>855.9999999999999</ele><time>2026-04-11T10:28:41Z</time></trkpt><trkpt lat="43.292676446496685" lon="12.790468631114143"><ele>855.9999999999999</ele><time>2026-04-11T10:28:42Z</time></trkpt><trkpt lat="43.292745762022484" lon="12.790590948677375"><ele>856.0</ele><time>2026-04-11T10:28:43Z</time></trkpt><trkpt lat="43.29279871698117" lon="12.790691451030353"><ele>856.0</ele><time>2026-04-11T10:28:44Z</time></trkpt><trkpt lat="43.29286094062311" lon="12.790804300565291"><ele>855.9999999999999</ele><time>2026-04-11T10:28:45Z</time></trkpt><trkpt lat="43.292896628396676" lon="12.7908987290862"><ele>856.0</ele><time>2026-04-11T10:28:46Z</time></trkpt><trkpt lat="43.29291293412972" lon="12.79100661466304"><ele>856.0</ele><time>2026-04-11T10:28:47Z</time></trkpt><trkpt lat="43.29291009012617" lon="12.791121776789394"><ele>856.0</ele><time>2026-04-11T10:28:48Z</time></trkpt><trkpt lat="43.29291003012193" lon="12.791224032147282"><ele>855.9999999999999</ele><time>2026-04-11T10:28:49Z</time></trkpt><trkpt lat="43.292911514374154" lon="12.791319228809988"><ele>856.0</ele><time>2026-04-11T10:28:50Z</time></trkpt><trkpt lat="43.29291491401475" lon="12.791429693812404"><ele>857.4</ele><time>2026-04-11T10:28:51Z</time></trkpt><trkpt lat="43.29296238288774" lon="12.791586843431437"><ele>858.8</ele><time>2026-04-11T10:28:53Z</time></trkpt><trkpt lat="43.29300781437533" lon="12.791657467828635"><ele>860.1999999999999</ele><time>2026-04-11T10:28:54Z</time></trkpt><trkpt lat="43.29306675311028" lon="12.791740259840088"><ele>861.5999999999999</ele><time>2026-04-11T10:28:55Z</time></trkpt><trkpt lat="43.29312611142833" lon="12.791844156238794"><ele>863.0</ele><time>2026-04-11T10:28:56Z</time></trkpt><trkpt lat="43.29317016830151" lon="12.791956494203232"><ele>860.1666666666667</ele><time>2026-04-11T10:28:57Z</time></trkpt><trkpt lat="43.29318078005508" lon="12.792051921544088"><ele>857.3333333333334</ele><time>2026-04-11T10:28:58Z</time></trkpt><trkpt lat="43.29315250247933" lon="12.792144078234486"><ele>854.5</ele><time>2026-04-11T10:28:59Z</time></trkpt><trkpt lat="43.29309633502331" lon="12.79222590592633"><ele>851.6666666666667</ele><time>2026-04-11T10:29:00Z</time></trkpt><trkpt lat="43.293034929269844" lon="12.792309644768967"><ele>848.8333333333334</ele><time>2026-04-11T10:29:01Z</time></trkpt><trkpt lat="43.29296464406948" lon="12.792320580687948"><ele>846.0</ele><time>2026-04-11T10:29:02Z</time></trkpt><trkpt lat="43.2928697685083" lon="12.792329959899334"><ele>846.0</ele><time>2026-04-11T10:29:03Z</time></trkpt><trkpt lat="43.29278985283908" lon="12.792365126593008"><ele>846.0</ele><time>2026-04-11T10:29:04Z</time></trkpt><trkpt lat="43.29269889118467" lon="12.792411263034552"><ele>846.0</ele><time>2026-04-11T10:29:06Z</time></trkpt><trkpt lat="43.29264908515877" lon="12.792464255600876"><ele>846.0</ele><time>2026-04-11T10:29:07Z</time></trkpt><trkpt lat="43.29252309960968" lon="12.792579368595502"><ele>846.0</ele><time>2026-04-11T10:29:09Z</time></trkpt><trkpt lat="43.2924701253347" lon="12.792643266291762"><ele>841.8333333333334</ele><time>2026-04-11T10:29:10Z</time></trkpt><trkpt lat="43.2924321123075" lon="12.79272014868307"><ele>837.6666666666667</ele><time>2026-04-11T10:29:11Z</time></trkpt><trkpt lat="43.29240373280689" lon="12.792808384621116"><ele>833.5</ele><time>2026-04-11T10:29:14Z</time></trkpt><trkpt lat="43.29235656699014" lon="12.792962455754706"><ele>829.3333333333334</ele><time>2026-04-11T10:29:22Z</time></trkpt><trkpt lat="43.29233152607652" lon="12.793060813339885"><ele>825.1666666666667</ele><time>2026-04-11T10:29:23Z</time></trkpt><trkpt lat="43.292298904221404" lon="12.79315523484526"><ele>821.0</ele><time>2026-04-11T10:29:24Z</time></trkpt><trkpt lat="43.29223246609275" lon="12.793297826605475"><ele>829.1666666666667</ele><time>2026-04-11T10:29:25Z</time></trkpt><trkpt lat="43.29216897255442" lon="12.793412072007097"><ele>837.3333333333334</ele><time>2026-04-11T10:29:26Z</time></trkpt><trkpt lat="43.29212794691806" lon="12.793510727217937"><ele>845.5</ele><time>2026-04-11T10:29:27Z</time></trkpt><trkpt lat="43.292112796813214" lon="12.793614272187083"><ele>853.6666666666667</ele><time>2026-04-11T10:29:28Z</time></trkpt><trkpt lat="43.292122191992625" lon="12.793722378531804"><ele>861.8333333333334</ele><time>2026-04-11T10:29:29Z</time></trkpt><trkpt lat="43.2921404265194" lon="12.793835845985658"><ele>870.0</ele><time>2026-04-11T10:29:30Z</time></trkpt><trkpt lat="43.29219132209445" lon="12.793977638266353"><ele>870.0</ele><time>2026-04-11T10:29:31Z</time></trkpt><trkpt lat="43.29222214078962" lon="12.79411862070326"><ele>870.0</ele><time>2026-04-11T10:29:32Z</time></trkpt><trkpt lat="43.29224073470488" lon="12.79430651465432"><ele>870.0</ele><time>2026-04-11T10:29:33Z</time></trkpt><trkpt lat="43.29227839975379" lon="12.794475988315838"><ele>870.0</ele><time>2026-04-11T10:29:34Z</time></trkpt><trkpt lat="43.29232577652184" lon="12.7945853606012"><ele>866.8</ele><time>2026-04-11T10:29:35Z</time></trkpt><trkpt lat="43.29233485140351" lon="12.794714344332514"><ele>863.6</ele><time>2026-04-11T10:29:36Z</time></trkpt><trkpt lat="43.2923297910263" lon="12.794841955174805"><ele>860.4000000000001</ele><time>2026-04-11T10:29:37Z</time></trkpt><trkpt lat="43.29231472024713" lon="12.794960789870903"><ele>857.2</ele><time>2026-04-11T10:29:38Z</time></trkpt><trkpt lat="43.29229129692455" lon="12.795074810439226"><ele>854.0</ele><time>2026-04-11T10:29:39Z</time></trkpt><trkpt lat="43.29225143899947" lon="12.79519124207295"><ele>854.0000000000001</ele><time>2026-04-11T10:29:40Z</time></trkpt><trkpt lat="43.29221004900345" lon="12.795305505072445"><ele>854.0</ele><time>2026-04-11T10:29:41Z</time></trkpt><trkpt lat="43.29217325726002" lon="12.795418217244883"><ele>854.0</ele><time>2026-04-11T10:29:42Z</time></trkpt><trkpt lat="43.29212046461323" lon="12.795520582761668"><ele>854.0</ele><time>2026-04-11T10:29:43Z</time></trkpt><trkpt lat="43.29205665770074" lon="12.795602722584572"><ele>854.0000000000001</ele><time>2026-04-11T10:29:44Z</time></trkpt><trkpt lat="43.29200273040474" lon="12.795693659595925"><ele>854.0</ele><time>2026-04-11T10:29:45Z</time></trkpt><trkpt lat="43.291945526893535" lon="12.79577998348088"><ele>854.0</ele><time>2026-04-11T10:29:46Z</time></trkpt><trkpt lat="43.29188133802646" lon="12.795908651491535"><ele>854.0</ele><time>2026-04-11T10:29:47Z</time></trkpt><trkpt lat="43.29181397307345" lon="12.796081276300653"><ele>854.0</ele><time>2026-04-11T10:29:48Z</time></trkpt><trkpt lat="43.29175071084733" lon="12.796216431053846"><ele>854.0</ele><time>2026-04-11T10:29:49Z</time></trkpt><trkpt lat="43.29171879773093" lon="12.796342699409559"><ele>849.4000000000001</ele><time>2026-04-11T10:29:50Z</time></trkpt><trkpt lat="43.291680887252745" lon="12.796428168654995"><ele>844.8000000000001</ele><time>2026-04-11T10:29:51Z</time></trkpt><trkpt lat="43.29162427878373" lon="12.796514928961503"><ele>840.2</ele><time>2026-04-11T10:29:52Z</time></trkpt><trkpt lat="43.29154077730648" lon="12.796591374711735"><ele>835.5999999999999</ele><time>2026-04-11T10:29:53Z</time></trkpt><trkpt lat="43.29145618269893" lon="12.796713047213181"><ele>831.0</ele><time>2026-04-11T10:29:54Z</time></trkpt><trkpt lat="43.29140121869875" lon="12.796833166683898"><ele>828.0</ele><time>2026-04-11T10:29:55Z</time></trkpt><trkpt lat="43.291370071040255" lon="12.796946006540649"><ele>825.0</ele><time>2026-04-11T10:29:56Z</time></trkpt><trkpt lat="43.291373207304936" lon="12.797069757647684"><ele>822.0</ele><time>2026-04-11T10:29:57Z</time></trkpt><trkpt lat="43.2913815192662" lon="12.797263388217628"><ele>819.0</ele><time>2026-04-11T10:29:58Z</time></trkpt><trkpt lat="43.29145080424511" lon="12.797369348426676"><ele>816.0</ele><time>2026-04-11T10:29:59Z</time></trkpt><trkpt lat="43.29151324730289" lon="12.797473360114978"><ele>816.0</ele><time>2026-04-11T10:30:00Z</time></trkpt><trkpt lat="43.29160098368607" lon="12.79756469061764"><ele>816.0</ele><time>2026-04-11T10:30:01Z</time></trkpt><trkpt lat="43.291665342109084" lon="12.797663365056513"><ele>816.0</ele><time>2026-04-11T10:30:02Z</time></trkpt><trkpt lat="43.29168961187924" lon="12.797744118641802"><ele>816.0</ele><time>2026-04-11T10:30:03Z</time></trkpt><trkpt lat="43.29169525480146" lon="12.797843508954113"><ele>816.0</ele><time>2026-04-11T10:30:04Z</time></trkpt><trkpt lat="43.29169136730033" lon="12.79794110734574"><ele>816.0</ele><time>2026-04-11T10:30:05Z</time></trkpt><trkpt lat="43.29168153654449" lon="12.798032264358845"><ele>818.1999999999999</ele><time>2026-04-11T10:30:06Z</time></trkpt><trkpt lat="43.29164769295885" lon="12.798148566680581"><ele>820.4</ele><time>2026-04-11T10:30:07Z</time></trkpt><trkpt lat="43.29159071094561" lon="12.7982904685305"><ele>822.6</ele><time>2026-04-11T10:30:08Z</time></trkpt><trkpt lat="43.291570081211134" lon="12.79842640473548"><ele>824.8</ele><time>2026-04-11T10:30:09Z</time></trkpt><trkpt lat="43.29158844951552" lon="12.79857166407649"><ele>827.0</ele><time>2026-04-11T10:30:10Z</time></trkpt><trkpt lat="43.2916471144743" lon="12.79869419808863"><ele>831.6</ele><time>2026-04-11T10:30:11Z</time></trkpt><trkpt lat="43.291702841616285" lon="12.798808856901157"><ele>836.2</ele><time>2026-04-11T10:30:12Z</time></trkpt><trkpt lat="43.291749004585675" lon="12.79888771179231"><ele>840.8</ele><time>2026-04-11T10:30:13Z</time></trkpt><trkpt lat="43.29182512561461" lon="12.7989423928597"><ele>845.4</ele><time>2026-04-11T10:30:14Z</time></trkpt><trkpt lat="43.29193420393581" lon="12.798965707382514"><ele>850.0</ele><time>2026-04-11T10:30:15Z</time></trkpt><trkpt lat="43.29205081119144" lon="12.798971729746752"><ele>850.0</ele><time>2026-04-11T10:30:16Z</time></trkpt><trkpt lat="43.29216707328489" lon="12.798997390524368"><ele>850.0</ele><time>2026-04-11T10:30:17Z</time></trkpt><trkpt lat="43.292288009956565" lon="12.799045487766813"><ele>850.0</ele><time>2026-04-11T10:30:18Z</time></trkpt><trkpt lat="43.292400323357356" lon="12.799081769239283"><ele>850.0</ele><time>2026-04-11T10:30:19Z</time></trkpt><trkpt lat="43.29249210041678" lon="12.79912644559974"><ele>844.0</ele><time>2026-04-11T10:30:20Z</time></trkpt><trkpt lat="43.292582297534125" lon="12.799154599945796"><ele>838.0</ele><time>2026-04-11T10:30:21Z</time></trkpt><trkpt lat="43.292681516838336" lon="12.799132888814505"><ele>832.0</ele><time>2026-04-11T10:30:22Z</time></trkpt><trkpt lat="43.29276751811985" lon="12.799076741008298"><ele>826.0</ele><time>2026-04-11T10:30:23Z</time></trkpt><trkpt lat="43.29285149395416" lon="12.799021421543516"><ele>820.0</ele><time>2026-04-11T10:30:24Z</time></trkpt><trkpt lat="43.29293569469124" lon="12.798996435313025"><ele>819.9999999999999</ele><time>2026-04-11T10:30:25Z</time></trkpt><trkpt lat="43.29299996964938" lon="12.79900697933022"><ele>820.0</ele><time>2026-04-11T10:30:26Z</time></trkpt><trkpt lat="43.29306540646687" lon="12.79905792671489"><ele>820.0</ele><time>2026-04-11T10:30:27Z</time></trkpt><trkpt lat="43.29310695072727" lon="12.799130906109964"><ele>820.0</ele><time>2026-04-11T10:30:28Z</time></trkpt><trkpt lat="43.2931575173262" lon="12.799227575016344"><ele>819.9999999999999</ele><time>2026-04-11T10:30:29Z</time></trkpt><trkpt lat="43.29321165245401" lon="12.79930330748876"><ele>820.0</ele><time>2026-04-11T10:30:30Z</time></trkpt><trkpt lat="43.29329443840847" lon="12.799345663201818"><ele>822.25</ele><time>2026-04-11T10:30:31Z</time></trkpt><trkpt lat="43.29339026669852" lon="12.799372791547103"><ele>824.5</ele><time>2026-04-11T10:30:32Z</time></trkpt><trkpt lat="43.293486034976404" lon="12.799436385794223"><ele>826.75</ele><time>2026-04-11T10:30:33Z</time></trkpt><trkpt lat="43.29359229651427" lon="12.799550466956946"><ele>829.0</ele><time>2026-04-11T10:30:34.001Z</time></trkpt><trkpt lat="43.293731251580525" lon="12.799682462077183"><ele>829.0</ele><time>2026-04-11T10:30:35.001Z</time></trkpt><trkpt lat="43.293866932548" lon="12.799767276462632"><ele>829.0</ele><time>2026-04-11T10:30:36.001Z</time></trkpt><trkpt lat="43.2940024388209" lon="12.799851854672841"><ele>829.0</ele><time>2026-04-11T10:30:37.001Z</time></trkpt><trkpt lat="43.29413321383914" lon="12.799929094036209"><ele>829.0</ele><time>2026-04-11T10:30:38.001Z</time></trkpt><trkpt lat="43.29423835676716" lon="12.799984022339736"><ele>824.8000000000001</ele><time>2026-04-11T10:30:39.001Z</time></trkpt><trkpt lat="43.294320505177964" lon="12.800015443274182"><ele>820.6</ele><time>2026-04-11T10:30:40.001Z</time></trkpt><trkpt lat="43.29438613932394" lon="12.799983141698174"><ele>816.4</ele><time>2026-04-11T10:30:41.001Z</time></trkpt><trkpt lat="43.294483408190146" lon="12.799914268140732"><ele>812.2</ele><time>2026-04-11T10:30:42.001Z</time></trkpt><trkpt lat="43.29460053158732" lon="12.799804258325743"><ele>808.0</ele><time>2026-04-11T10:30:43.001Z</time></trkpt><trkpt lat="43.29472472886948" lon="12.799719810535134"><ele>806.0</ele><time>2026-04-11T10:30:44.001Z</time></trkpt><trkpt lat="43.29482483897354" lon="12.7996271146294"><ele>804.0</ele><time>2026-04-11T10:30:45.001Z</time></trkpt><trkpt lat="43.294916527407054" lon="12.799516797014993"><ele>802.0</ele><time>2026-04-11T10:30:46.001Z</time></trkpt><trkpt lat="43.295021437593256" lon="12.799396477940643"><ele>800.0</ele><time>2026-04-11T10:30:47.001Z</time></trkpt><trkpt lat="43.29512588281613" lon="12.799303139535878"><ele>800.0</ele><time>2026-04-11T10:30:48.001Z</time></trkpt><trkpt lat="43.29522186842099" lon="12.79922160518707"><ele>800.0</ele><time>2026-04-11T10:30:49.001Z</time></trkpt><trkpt lat="43.29530893235316" lon="12.79915232208384"><ele>800.0</ele><time>2026-04-11T10:30:50.001Z</time></trkpt><trkpt lat="43.29537998927355" lon="12.79904956803845"><ele>800.0</ele><time>2026-04-11T10:30:51.001Z</time></trkpt><trkpt lat="43.29545616954987" lon="12.798972966183904"><ele>800.0</ele><time>2026-04-11T10:30:52.001Z</time></trkpt><trkpt lat="43.29553085650822" lon="12.798889389612038"><ele>801.1666666666667</ele><time>2026-04-11T10:30:53.001Z</time></trkpt><trkpt lat="43.295607675268116" lon="12.798811666046577"><ele>802.3333333333334</ele><time>2026-04-11T10:30:54.001Z</time></trkpt><trkpt lat="43.295671327170204" lon="12.798765029979702"><ele>803.5</ele><time>2026-04-11T10:30:55.001Z</time></trkpt><trkpt lat="43.29573558307385" lon="12.798729179004887"><ele>804.6666666666667</ele><time>2026-04-11T10:30:56.001Z</time></trkpt><trkpt lat="43.29580636874676" lon="12.798677292574288"><ele>805.8333333333334</ele><time>2026-04-11T10:30:57.001Z</time></trkpt><trkpt lat="43.29588639187012" lon="12.798611419726063"><ele>807.0</ele><time>2026-04-11T10:30:58.001Z</time></trkpt><trkpt lat="43.29595659331366" lon="12.798560712372355"><ele>807.0</ele><time>2026-04-11T10:30:59.001Z</time></trkpt><trkpt lat="43.29602347914343" lon="12.798530974789573"><ele>807.0</ele><time>2026-04-11T10:31:00.001Z</time></trkpt><trkpt lat="43.2961017004108" lon="12.798524959122602"><ele>807.0</ele><time>2026-04-11T10:31:01Z</time></trkpt><trkpt lat="43.296188740618646" lon="12.798525579355989"><ele>807.0</ele><time>2026-04-11T10:31:02Z</time></trkpt><trkpt lat="43.296251638604815" lon="12.798541439099122"><ele>807.0</ele><time>2026-04-11T10:31:03Z</time></trkpt><trkpt lat="43.296311423416526" lon="12.798628616729209"><ele>807.0</ele><time>2026-04-11T10:31:05Z</time></trkpt><trkpt lat="43.29632900638663" lon="12.798716116236605"><ele>807.0</ele><time>2026-04-11T10:31:09Z</time></trkpt><trkpt lat="43.296359497696145" lon="12.798801214959928"><ele>807.0</ele><time>2026-04-11T10:31:11Z</time></trkpt><trkpt lat="43.29642712421798" lon="12.798907316038088"><ele>807.0</ele><time>2026-04-11T10:31:13Z</time></trkpt><trkpt lat="43.29648967655369" lon="12.798953889923368"><ele>807.0</ele><time>2026-04-11T10:31:14Z</time></trkpt><trkpt lat="43.296571924734565" lon="12.799008118774406"><ele>807.0</ele><time>2026-04-11T10:31:15Z</time></trkpt><trkpt lat="43.296668562614215" lon="12.799072357459513"><ele>807.0</ele><time>2026-04-11T10:31:16Z</time></trkpt><trkpt lat="43.296764534229176" lon="12.79913452460311"><ele>802.2</ele><time>2026-04-11T10:31:17Z</time></trkpt><trkpt lat="43.296841635990916" lon="12.799190753565753"><ele>797.4000000000001</ele><time>2026-04-11T10:31:18Z</time></trkpt><trkpt lat="43.29690721337893" lon="12.79922052705168"><ele>792.5999999999999</ele><time>2026-04-11T10:31:19Z</time></trkpt><trkpt lat="43.29695003721212" lon="12.799117462672495"><ele>787.8</ele><time>2026-04-11T10:31:22Z</time></trkpt><trkpt lat="43.29689594563871" lon="12.798964305690475"><ele>783.0</ele><time>2026-04-11T10:31:24Z</time></trkpt><trkpt lat="43.296824250083624" lon="12.798833040645151"><ele>783.0</ele><time>2026-04-11T10:31:26Z</time></trkpt><trkpt lat="43.29689136350752" lon="12.798733828654186"><ele>783.0</ele><time>2026-04-11T10:31:28Z</time></trkpt><trkpt lat="43.29701542289786" lon="12.798794787572836"><ele>783.0</ele><time>2026-04-11T10:31:30Z</time></trkpt><trkpt lat="43.297082725734306" lon="12.798827448743456"><ele>783.0</ele><time>2026-04-11T10:31:31Z</time></trkpt><trkpt lat="43.297220013279386" lon="12.798865673324103"><ele>783.0</ele><time>2026-04-11T10:31:33Z</time></trkpt><trkpt lat="43.29728167280056" lon="12.798906482426977"><ele>780.4</ele><time>2026-04-11T10:31:34Z</time></trkpt><trkpt lat="43.29732779096097" lon="12.79904856579171"><ele>777.8</ele><time>2026-04-11T10:31:37Z</time></trkpt><trkpt lat="43.29738076592865" lon="12.799176588024398"><ele>775.2</ele><time>2026-04-11T10:31:39Z</time></trkpt><trkpt lat="43.29744719213826" lon="12.799289901273019"><ele>772.6</ele><time>2026-04-11T10:31:41Z</time></trkpt><trkpt lat="43.29749005953376" lon="12.799354629163126"><ele>770.0</ele><time>2026-04-11T10:31:42Z</time></trkpt><trkpt lat="43.29754443480974" lon="12.799432075124189"><ele>770.0</ele><time>2026-04-11T10:31:43Z</time></trkpt><trkpt lat="43.29760412955743" lon="12.799506279161955"><ele>770.0</ele><time>2026-04-11T10:31:44Z</time></trkpt><trkpt lat="43.297676237875955" lon="12.79959713769139"><ele>770.0</ele><time>2026-04-11T10:31:45Z</time></trkpt><trkpt lat="43.29774953123819" lon="12.799691466603234"><ele>770.0</ele><time>2026-04-11T10:31:46Z</time></trkpt><trkpt lat="43.29783683394956" lon="12.79980146946698"><ele>770.0</ele><time>2026-04-11T10:31:47Z</time></trkpt><trkpt lat="43.29794558912369" lon="12.799951838753172"><ele>770.0</ele><time>2026-04-11T10:31:48Z</time></trkpt><trkpt lat="43.29806059008868" lon="12.800089356393153"><ele>770.0</ele><time>2026-04-11T10:31:49Z</time></trkpt><trkpt lat="43.29817685615199" lon="12.800237644308803"><ele>770.0</ele><time>2026-04-11T10:31:50Z</time></trkpt><trkpt lat="43.298289623400024" lon="12.800396287740242"><ele>764.0</ele><time>2026-04-11T10:31:51Z</time></trkpt><trkpt lat="43.2983863788709" lon="12.800527117322522"><ele>758.0</ele><time>2026-04-11T10:31:52Z</time></trkpt><trkpt lat="43.298491113181626" lon="12.80063995981398"><ele>752.0</ele><time>2026-04-11T10:31:53Z</time></trkpt><trkpt lat="43.29859993590955" lon="12.800762747940873"><ele>746.0</ele><time>2026-04-11T10:31:54Z</time></trkpt><trkpt lat="43.29867872485612" lon="12.800914409317162"><ele>745.8</ele><time>2026-04-11T10:31:55Z</time></trkpt><trkpt lat="43.29874995045443" lon="12.801053598914216"><ele>745.5999999999999</ele><time>2026-04-11T10:31:56Z</time></trkpt><trkpt lat="43.2988181622841" lon="12.80117257333895"><ele>745.4</ele><time>2026-04-11T10:31:57Z</time></trkpt><trkpt lat="43.29888641208341" lon="12.801259049978546"><ele>745.2</ele><time>2026-04-11T10:31:58Z</time></trkpt><trkpt lat="43.29894232414345" lon="12.80129973237026"><ele>745.0</ele><time>2026-04-11T10:31:59Z</time></trkpt><trkpt lat="43.29905126576239" lon="12.801324325048823"><ele>744.1666666666667</ele><time>2026-04-11T10:32:01Z</time></trkpt><trkpt lat="43.29911642372509" lon="12.801301018363727"><ele>743.3333333333334</ele><time>2026-04-11T10:32:03Z</time></trkpt><trkpt lat="43.29919506829538" lon="12.801242388866438"><ele>742.5</ele><time>2026-04-11T10:32:05Z</time></trkpt><trkpt lat="43.29924415180105" lon="12.801168739343238"><ele>741.6666666666666</ele><time>2026-04-11T10:32:06Z</time></trkpt><trkpt lat="43.29932456069282" lon="12.80104015465497"><ele>740.8333333333333</ele><time>2026-04-11T10:32:08Z</time></trkpt><trkpt lat="43.29939717755956" lon="12.800964854503343"><ele>740.0</ele><time>2026-04-11T10:32:10Z</time></trkpt><trkpt lat="43.29946163326531" lon="12.800937451037182"><ele>739.6666666666666</ele><time>2026-04-11T10:32:14Z</time></trkpt><trkpt lat="43.299534384021555" lon="12.800913949498423"><ele>739.3333333333333</ele><time>2026-04-11T10:32:16Z</time></trkpt><trkpt lat="43.29959305136677" lon="12.800834929057922"><ele>739.0</ele><time>2026-04-11T10:32:18Z</time></trkpt><trkpt lat="43.2996601378305" lon="12.800739419882746"><ele>738.6666666666666</ele><time>2026-04-11T10:32:20Z</time></trkpt><trkpt lat="43.29973500798453" lon="12.800710721173662"><ele>738.3333333333334</ele><time>2026-04-11T10:32:23Z</time></trkpt><trkpt lat="43.29979716471006" lon="12.800695275215517"><ele>738.0</ele><time>2026-04-11T10:32:25Z</time></trkpt><trkpt lat="43.299870032850684" lon="12.800741568089212"><ele>740.8333333333334</ele><time>2026-04-11T10:33:06.001Z</time></trkpt><trkpt lat="43.299961172326675" lon="12.800775069282874"><ele>743.6666666666666</ele><time>2026-04-11T10:33:08.001Z</time></trkpt><trkpt lat="43.30005135765015" lon="12.800861763523661"><ele>746.5</ele><time>2026-04-11T10:33:10.001Z</time></trkpt><trkpt lat="43.30011036791225" lon="12.800928665230325"><ele>749.3333333333333</ele><time>2026-04-11T10:33:11.001Z</time></trkpt><trkpt lat="43.30018958488915" lon="12.8010088998348"><ele>752.1666666666666</ele><time>2026-04-11T10:33:13Z</time></trkpt><trkpt lat="43.30024515381099" lon="12.80106601266176"><ele>755.0</ele><time>2026-04-11T10:33:19Z</time></trkpt><trkpt lat="43.30028752103171" lon="12.80113370145476"><ele>755.0</ele><time>2026-04-11T10:33:25Z</time></trkpt><trkpt lat="43.300355580272395" lon="12.801159284075192"><ele>755.0</ele><time>2026-04-11T10:33:31Z</time></trkpt><trkpt lat="43.30041515686092" lon="12.801200525271447"><ele>755.0</ele><time>2026-04-11T10:33:33Z</time></trkpt><trkpt lat="43.30045690836266" lon="12.80127748505527"><ele>755.0</ele><time>2026-04-11T10:33:36Z</time></trkpt><trkpt lat="43.30052859941712" lon="12.801315420469678"><ele>755.0</ele><time>2026-04-11T10:33:45Z</time></trkpt><trkpt lat="43.30058434572503" lon="12.801364205864134"><ele>755.0</ele><time>2026-04-11T10:33:48Z</time></trkpt><trkpt lat="43.30063843092647" lon="12.801419099408694"><ele>755.0</ele><time>2026-04-11T10:33:50Z</time></trkpt><trkpt lat="43.300704394106816" lon="12.80146655058452"><ele>758.5</ele><time>2026-04-11T10:33:55Z</time></trkpt><trkpt lat="43.300760035190756" lon="12.801522251160886"><ele>762.0</ele><time>2026-04-11T10:33:59Z</time></trkpt><trkpt lat="43.30080712007848" lon="12.801591636627267"><ele>765.5</ele><time>2026-04-11T10:36:49Z</time></trkpt><trkpt lat="43.30089859823207" lon="12.801691447908079"><ele>769.0</ele><time>2026-04-11T10:36:51Z</time></trkpt><trkpt lat="43.300965010603804" lon="12.801746744929382"><ele>772.5000000000001</ele><time>2026-04-11T10:36:53Z</time></trkpt><trkpt lat="43.30102649004537" lon="12.801779736969827"><ele>776.0</ele><time>2026-04-11T10:36:54Z</time></trkpt><trkpt lat="43.301127023204316" lon="12.801867669320934"><ele>776.0</ele><time>2026-04-11T10:36:55Z</time></trkpt><trkpt lat="43.30123016212587" lon="12.802006216448639"><ele>776.0</ele><time>2026-04-11T10:36:56Z</time></trkpt><trkpt lat="43.301276513088446" lon="12.802139149081704"><ele>776.0</ele><time>2026-04-11T10:36:57Z</time></trkpt><trkpt lat="43.30133343664581" lon="12.802286725562753"><ele>776.0</ele><time>2026-04-11T10:36:58Z</time></trkpt><trkpt lat="43.30124138468206" lon="12.801969692980112"><ele>776.0000000000001</ele><time>2026-04-11T10:36:59Z</time></trkpt><trkpt lat="43.30125463005384" lon="12.801851185618345"><ele>776.0</ele><time>2026-04-11T10:37:01Z</time></trkpt><trkpt lat="43.301289053602" lon="12.801755502540034"><ele>776.0</ele><time>2026-04-11T10:37:03Z</time></trkpt><trkpt lat="43.301316926240055" lon="12.801654871980016"><ele>776.0</ele><time>2026-04-11T10:37:05Z</time></trkpt><trkpt lat="43.3013478889999" lon="12.801544203771945"><ele>776.0000000000001</ele><time>2026-04-11T10:37:13Z</time></trkpt><trkpt lat="43.30136991229414" lon="12.80146283616687"><ele>776.0</ele><time>2026-04-11T10:39:16.999Z</time></trkpt><trkpt lat="43.30136647809244" lon="12.801354598238824"><ele>777.1666666666667</ele><time>2026-04-11T10:39:21.999Z</time></trkpt><trkpt lat="43.301368030344804" lon="12.80124772578129"><ele>778.3333333333334</ele><time>2026-04-11T10:39:23.999Z</time></trkpt><trkpt lat="43.30136865437152" lon="12.801148116940885"><ele>779.5</ele><time>2026-04-11T10:39:26.999Z</time></trkpt><trkpt lat="43.301435633009866" lon="12.801062099501351"><ele>780.6666666666667</ele><time>2026-04-11T10:39:31.999Z</time></trkpt><trkpt lat="43.30150400416813" lon="12.801032238271448"><ele>781.8333333333334</ele><time>2026-04-11T10:39:42.999Z</time></trkpt><trkpt lat="43.3015836549035" lon="12.801071543269469"><ele>783.0</ele><time>2026-04-11T10:39:44.999Z</time></trkpt><trkpt lat="43.301643999317925" lon="12.801115322314903"><ele>788.0</ele><time>2026-04-11T10:39:45.999Z</time></trkpt><trkpt lat="43.301721949321866" lon="12.801188497503306"><ele>793.0</ele><time>2026-04-11T10:39:46.999Z</time></trkpt><trkpt lat="43.30180852739705" lon="12.80127386814083"><ele>798.0</ele><time>2026-04-11T10:39:47.999Z</time></trkpt><trkpt lat="43.30189184539739" lon="12.801343996295728"><ele>803.0</ele><time>2026-04-11T10:39:48.999Z</time></trkpt><trkpt lat="43.30199246984717" lon="12.801421189068272"><ele>808.0</ele><time>2026-04-11T10:39:49.999Z</time></trkpt><trkpt lat="43.30210971532282" lon="12.80148622104705"><ele>808.0</ele><time>2026-04-11T10:39:50.999Z</time></trkpt><trkpt lat="43.30223459761277" lon="12.801524465356072"><ele>808.0</ele><time>2026-04-11T10:39:51.999Z</time></trkpt><trkpt lat="43.30236826099582" lon="12.801550412831066"><ele>808.0</ele><time>2026-04-11T10:39:52.999Z</time></trkpt><trkpt lat="43.302511298823" lon="12.801559193022781"><ele>808.0</ele><time>2026-04-11T10:39:53.999Z</time></trkpt><trkpt lat="43.30265950055092" lon="12.801548576105818"><ele>808.75</ele><time>2026-04-11T10:39:54.999Z</time></trkpt><trkpt lat="43.302781811217265" lon="12.801508314246709"><ele>809.5</ele><time>2026-04-11T10:39:55.999Z</time></trkpt><trkpt lat="43.30290754740191" lon="12.801445101690723"><ele>810.25</ele><time>2026-04-11T10:39:56.999Z</time></trkpt><trkpt lat="43.303013542665724" lon="12.80139281481683"><ele>811.0</ele><time>2026-04-11T10:39:57.999Z</time></trkpt><trkpt lat="43.30311982288085" lon="12.801342438540011"><ele>813.8</ele><time>2026-04-11T10:39:58.999Z</time></trkpt><trkpt lat="43.30320393887757" lon="12.801310125222845"><ele>816.5999999999999</ele><time>2026-04-11T10:39:59.999Z</time></trkpt><trkpt lat="43.3032715350165" lon="12.801298316029385"><ele>819.4</ele><time>2026-04-11T10:40:01.999Z</time></trkpt><trkpt lat="43.303365008608566" lon="12.801353099545974"><ele>822.2</ele><time>2026-04-11T10:40:42.999Z</time></trkpt><trkpt lat="43.30344757942292" lon="12.801453935623412"><ele>825.0</ele><time>2026-04-11T10:40:44.999Z</time></trkpt><trkpt lat="43.30352561715833" lon="12.801546355922532"><ele>825.0</ele><time>2026-04-11T10:40:46.999Z</time></trkpt><trkpt lat="43.303630436432435" lon="12.801592703995828"><ele>825.0</ele><time>2026-04-11T10:40:48.999Z</time></trkpt><trkpt lat="43.303698461012296" lon="12.801586355862739"><ele>825.0</ele><time>2026-04-11T10:40:49.999Z</time></trkpt><trkpt lat="43.30376625832291" lon="12.801573946556314"><ele>825.0</ele><time>2026-04-11T10:40:50.999Z</time></trkpt><trkpt lat="43.303843944424166" lon="12.801583705990083"><ele>825.0</ele><time>2026-04-11T10:40:51.999Z</time></trkpt><trkpt lat="43.30391487037999" lon="12.801610346551643"><ele>825.0</ele><time>2026-04-11T10:40:52.999Z</time></trkpt><trkpt lat="43.303996195918124" lon="12.801624099068864"><ele>823.2</ele><time>2026-04-11T10:40:53.999Z</time></trkpt><trkpt lat="43.30408774369166" lon="12.801600594443912"><ele>821.4</ele><time>2026-04-11T10:40:54.999Z</time></trkpt><trkpt lat="43.304189288639904" lon="12.801535002230743"><ele>819.5999999999999</ele><time>2026-04-11T10:40:55.999Z</time></trkpt><trkpt lat="43.304277932660725" lon="12.801465545569066"><ele>817.8</ele><time>2026-04-11T10:40:56.999Z</time></trkpt><trkpt lat="43.304364845982974" lon="12.80138849617012"><ele>816.0</ele><time>2026-04-11T10:40:57.999Z</time></trkpt><trkpt lat="43.30445210816592" lon="12.801334267585755"><ele>816.0</ele><time>2026-04-11T10:40:58.999Z</time></trkpt><trkpt lat="43.30452045343309" lon="12.80128852567676"><ele>816.0</ele><time>2026-04-11T10:40:59.998Z</time></trkpt><trkpt lat="43.30459638026612" lon="12.801320452776974"><ele>816.0</ele><time>2026-04-11T10:41:01.998Z</time></trkpt><trkpt lat="43.30468683187536" lon="12.801394727907745"><ele>816.0</ele><time>2026-04-11T10:41:03.999Z</time></trkpt><trkpt lat="43.30474961802605" lon="12.80145351806661"><ele>816.0</ele><time>2026-04-11T10:41:04.999Z</time></trkpt><trkpt lat="43.304794727440346" lon="12.801544875010217"><ele>816.0</ele><time>2026-04-11T10:41:05.999Z</time></trkpt><trkpt lat="43.304835402189774" lon="12.801634101560156"><ele>812.3333333333334</ele><time>2026-04-11T10:41:06.999Z</time></trkpt><trkpt lat="43.304847075979076" lon="12.801736936617408"><ele>808.6666666666667</ele><time>2026-04-11T10:41:08.999Z</time></trkpt><trkpt lat="43.304847498748224" lon="12.801827866409566"><ele>805.0</ele><time>2026-04-11T10:41:12.999Z</time></trkpt><trkpt lat="43.304837062333775" lon="12.801928946813616"><ele>801.3333333333334</ele><time>2026-04-11T10:41:18.999Z</time></trkpt><trkpt lat="43.30487840972762" lon="12.80210759906219"><ele>797.6666666666667</ele><time>2026-04-11T10:41:20.999Z</time></trkpt><trkpt lat="43.304902719791784" lon="12.802230355861662"><ele>794.0</ele><time>2026-04-11T10:41:21.999Z</time></trkpt><trkpt lat="43.30492174840633" lon="12.8023478887306"><ele>794.0</ele><time>2026-04-11T10:41:22.999Z</time></trkpt><trkpt lat="43.304945475758906" lon="12.802478035702167"><ele>794.0</ele><time>2026-04-11T10:41:23.999Z</time></trkpt><trkpt lat="43.3049855797547" lon="12.80261054948255"><ele>794.0</ele><time>2026-04-11T10:41:24.999Z</time></trkpt><trkpt lat="43.305034455781396" lon="12.802745052234831"><ele>794.0</ele><time>2026-04-11T10:41:25.999Z</time></trkpt><trkpt lat="43.30507285685593" lon="12.802865420366826"><ele>794.0</ele><time>2026-04-11T10:41:26.999Z</time></trkpt><trkpt lat="43.3051254586869" lon="12.802974874008285"><ele>792.4000000000001</ele><time>2026-04-11T10:41:27.999Z</time></trkpt><trkpt lat="43.30515856690878" lon="12.803049367096822"><ele>790.8</ele><time>2026-04-11T10:41:28.999Z</time></trkpt><trkpt lat="43.305216945884276" lon="12.803139213943226"><ele>789.2</ele><time>2026-04-11T10:41:30.999Z</time></trkpt><trkpt lat="43.305340296941154" lon="12.803042008148957"><ele>787.5999999999999</ele><time>2026-04-11T10:41:32.999Z</time></trkpt><trkpt lat="43.30543888702268" lon="12.802978230618262"><ele>786.0</ele><time>2026-04-11T10:41:33.999Z</time></trkpt><trkpt lat="43.305541912273334" lon="12.802918671935862"><ele>782.0</ele><time>2026-04-11T10:41:34.999Z</time></trkpt><trkpt lat="43.30561911866427" lon="12.802831431611073"><ele>778.0</ele><time>2026-04-11T10:41:35.999Z</time></trkpt><trkpt lat="43.30568515859684" lon="12.802731521839526"><ele>774.0</ele><time>2026-04-11T10:41:36.999Z</time></trkpt><trkpt lat="43.305753921642406" lon="12.80261512606407"><ele>770.0</ele><time>2026-04-11T10:41:37.999Z</time></trkpt><trkpt lat="43.30580308421297" lon="12.80252062259569"><ele>766.0</ele><time>2026-04-11T10:41:38.999Z</time></trkpt><trkpt lat="43.30585157219404" lon="12.802447469765085"><ele>766.0</ele><time>2026-04-11T10:41:39.999Z</time></trkpt><trkpt lat="43.305937019831276" lon="12.802399086382174"><ele>766.0</ele><time>2026-04-11T10:41:41.999Z</time></trkpt><trkpt lat="43.30605021114787" lon="12.802371491007646"><ele>766.0</ele><time>2026-04-11T10:41:43.999Z</time></trkpt><trkpt lat="43.30611969277132" lon="12.802346419429218"><ele>766.0</ele><time>2026-04-11T10:41:45.999Z</time></trkpt><trkpt lat="43.30618973358032" lon="12.80231480180228"><ele>766.0</ele><time>2026-04-11T10:41:47.999Z</time></trkpt><trkpt lat="43.306263577272844" lon="12.802283544577167"><ele>766.0</ele><time>2026-04-11T10:41:49.999Z</time></trkpt><trkpt lat="43.306358665375356" lon="12.802303756118569"><ele>766.0</ele><time>2026-04-11T10:41:51.999Z</time></trkpt><trkpt lat="43.30642826187812" lon="12.802400365413327"><ele>766.0</ele><time>2026-04-11T10:41:53.999Z</time></trkpt><trkpt lat="43.306471843943704" lon="12.802514887881248"><ele>766.0</ele><time>2026-04-11T10:41:55.999Z</time></trkpt><trkpt lat="43.30654974513198" lon="12.802614117847742"><ele>766.0</ele><time>2026-04-11T10:41:57.999Z</time></trkpt><trkpt lat="43.30666550903965" lon="12.802682232984235"><ele>766.0</ele><time>2026-04-11T10:41:59.999Z</time></trkpt><trkpt lat="43.30675473087783" lon="12.80274295446914"><ele>766.0</ele><time>2026-04-11T10:42:01.999Z</time></trkpt><trkpt lat="43.306886912975315" lon="12.802750316588224"><ele>766.0</ele><time>2026-04-11T10:42:03.999Z</time></trkpt><trkpt lat="43.30695448221245" lon="12.802781171983717"><ele>766.0</ele><time>2026-04-11T10:42:04.999Z</time></trkpt><trkpt lat="43.307022599452324" lon="12.802830098377791"><ele>766.0</ele><time>2026-04-11T10:42:05.999Z</time></trkpt><trkpt lat="43.30705259743758" lon="12.802943203972962"><ele>766.0</ele><time>2026-04-11T10:42:06.999Z</time></trkpt><trkpt lat="43.30709850343616" lon="12.803055128260157"><ele>766.0</ele><time>2026-04-11T10:42:07.999Z</time></trkpt><trkpt lat="43.30712622479864" lon="12.803186806425293"><ele>766.0</ele><time>2026-04-11T10:42:08.999Z</time></trkpt><trkpt lat="43.30715882452392" lon="12.803308541569933"><ele>766.0</ele><time>2026-04-11T10:42:09.999Z</time></trkpt><trkpt lat="43.307193493269644" lon="12.803435239711948"><ele>766.0</ele><time>2026-04-11T10:42:10.999Z</time></trkpt><trkpt lat="43.307226141292816" lon="12.803563730346745"><ele>766.0</ele><time>2026-04-11T10:42:11.999Z</time></trkpt><trkpt lat="43.30726179700224" lon="12.803686800602875"><ele>766.3333333333334</ele><time>2026-04-11T10:42:12.999Z</time></trkpt><trkpt lat="43.307298549730255" lon="12.803793904190218"><ele>766.6666666666667</ele><time>2026-04-11T10:42:13.999Z</time></trkpt><trkpt lat="43.30733442310389" lon="12.803870311004655"><ele>767.0</ele><time>2026-04-11T10:42:14.999Z</time></trkpt><trkpt lat="43.30740015633214" lon="12.803941950347962"><ele>767.3333333333334</ele><time>2026-04-11T10:42:16.999Z</time></trkpt><trkpt lat="43.30751433218227" lon="12.80392249922698"><ele>767.6666666666666</ele><time>2026-04-11T10:42:18.999Z</time></trkpt><trkpt lat="43.307601015564245" lon="12.803879258314453"><ele>768.0</ele><time>2026-04-11T10:42:20.999Z</time></trkpt><trkpt lat="43.30769441861582" lon="12.803779167878032"><ele>768.0</ele><time>2026-04-11T10:42:22.999Z</time></trkpt><trkpt lat="43.30781417221791" lon="12.803644671141972"><ele>768.0</ele><time>2026-04-11T10:42:24.999Z</time></trkpt><trkpt lat="43.30789735275346" lon="12.803568762373658"><ele>768.0</ele><time>2026-04-11T10:42:25.999Z</time></trkpt><trkpt lat="43.307988611429224" lon="12.803497494214284"><ele>768.0</ele><time>2026-04-11T10:42:26.999Z</time></trkpt><trkpt lat="43.30806521215115" lon="12.803438602446723"><ele>768.0</ele><time>2026-04-11T10:42:27.999Z</time></trkpt><trkpt lat="43.30814002906442" lon="12.803396732945787"><ele>772.3333333333334</ele><time>2026-04-11T10:42:28.999Z</time></trkpt><trkpt lat="43.3082120623593" lon="12.803356943657128"><ele>776.6666666666667</ele><time>2026-04-11T10:42:29.999Z</time></trkpt><trkpt lat="43.308291945379466" lon="12.803320906681812"><ele>781.0</ele><time>2026-04-11T10:42:30.999Z</time></trkpt><trkpt lat="43.30837666428362" lon="12.803274769330866"><ele>785.3333333333334</ele><time>2026-04-11T10:42:31.999Z</time></trkpt><trkpt lat="43.30846642386318" lon="12.803226161199337"><ele>789.6666666666667</ele><time>2026-04-11T10:42:32.999Z</time></trkpt><trkpt lat="43.308560032400344" lon="12.803184289882351"><ele>794.0</ele><time>2026-04-11T10:42:33.999Z</time></trkpt><trkpt lat="43.30864560821913" lon="12.803138945905989"><ele>794.0</ele><time>2026-04-11T10:42:34.999Z</time></trkpt><trkpt lat="43.30872969135591" lon="12.803084514533069"><ele>794.0</ele><time>2026-04-11T10:42:35.999Z</time></trkpt><trkpt lat="43.30880967861048" lon="12.80301577397955"><ele>794.0</ele><time>2026-04-11T10:42:36.999Z</time></trkpt><trkpt lat="43.308890086032044" lon="12.80294399443623"><ele>794.0</ele><time>2026-04-11T10:42:37.999Z</time></trkpt><trkpt lat="43.30896765177313" lon="12.80285318778991"><ele>794.0</ele><time>2026-04-11T10:42:38.999Z</time></trkpt><trkpt lat="43.309048101631134" lon="12.802764335122083"><ele>799.0</ele><time>2026-04-11T10:42:39.999Z</time></trkpt><trkpt lat="43.309129709194416" lon="12.802648511417823"><ele>804.0</ele><time>2026-04-11T10:42:40.999Z</time></trkpt><trkpt lat="43.30921522046037" lon="12.802533636167311"><ele>809.0</ele><time>2026-04-11T10:42:41.999Z</time></trkpt><trkpt lat="43.30929880948534" lon="12.802426269305478"><ele>814.0</ele><time>2026-04-11T10:42:42.999Z</time></trkpt><trkpt lat="43.30937792309483" lon="12.802322638642533"><ele>813.9999999999999</ele><time>2026-04-11T10:42:43.999Z</time></trkpt><trkpt lat="43.30943470258187" lon="12.802241004287042"><ele>814.0</ele><time>2026-04-11T10:42:44.999Z</time></trkpt><trkpt lat="43.30949075075073" lon="12.802145461447289"><ele>814.0</ele><time>2026-04-11T10:42:45.999Z</time></trkpt><trkpt lat="43.30954585066456" lon="12.802047307960422"><ele>814.0</ele><time>2026-04-11T10:42:46.999Z</time></trkpt><trkpt lat="43.30959612087461" lon="12.801948688236259"><ele>813.9999999999999</ele><time>2026-04-11T10:42:47.999Z</time></trkpt><trkpt lat="43.309644192048296" lon="12.80186946936439"><ele>814.0</ele><time>2026-04-11T10:42:48.999Z</time></trkpt><trkpt lat="43.309689888854926" lon="12.801788507488777"><ele>816.6</ele><time>2026-04-11T10:42:49.999Z</time></trkpt><trkpt lat="43.30973326408398" lon="12.801708314212037"><ele>819.2</ele><time>2026-04-11T10:42:50.999Z</time></trkpt><trkpt lat="43.30979517394814" lon="12.801606113218796"><ele>821.8000000000001</ele><time>2026-04-11T10:42:51.999Z</time></trkpt><trkpt lat="43.3098987543147" lon="12.801497255553931"><ele>824.4000000000001</ele><time>2026-04-11T10:42:53.999Z</time></trkpt><trkpt lat="43.30997129871433" lon="12.801452814567986"><ele>827.0</ele><time>2026-04-11T10:42:54.999Z</time></trkpt><trkpt lat="43.31004626503836" lon="12.801430524306527"><ele>829.3333333333334</ele><time>2026-04-11T10:42:55.999Z</time></trkpt><trkpt lat="43.31010533838515" lon="12.80139497130678"><ele>831.6666666666667</ele><time>2026-04-11T10:42:56.999Z</time></trkpt><trkpt lat="43.310158602994925" lon="12.801346099419687"><ele>834.0</ele><time>2026-04-11T10:42:57.999Z</time></trkpt><trkpt lat="43.31026770181943" lon="12.801299132632835"><ele>836.3333333333333</ele><time>2026-04-11T10:42:59.999Z</time></trkpt><trkpt lat="43.31039961187228" lon="12.801298418256776"><ele>838.6666666666666</ele><time>2026-04-11T10:43:01.999Z</time></trkpt><trkpt lat="43.31046909127803" lon="12.801297313125817"><ele>841.0</ele><time>2026-04-11T10:43:02.999Z</time></trkpt><trkpt lat="43.31056496025387" lon="12.801271634339406"><ele>843.1666666666666</ele><time>2026-04-11T10:43:03.999Z</time></trkpt><trkpt lat="43.31063775850872" lon="12.801256332446416"><ele>845.3333333333333</ele><time>2026-04-11T10:43:04.999Z</time></trkpt><trkpt lat="43.310713934907696" lon="12.8012636227874"><ele>847.5</ele><time>2026-04-11T10:43:05.999Z</time></trkpt><trkpt lat="43.31079232104106" lon="12.801251556208191"><ele>849.6666666666667</ele><time>2026-04-11T10:43:06.999Z</time></trkpt><trkpt lat="43.310874344632836" lon="12.80123442450364"><ele>851.8333333333334</ele><time>2026-04-11T10:43:07.999Z</time></trkpt><trkpt lat="43.3109602264886" lon="12.801220449120017"><ele>854.0</ele><time>2026-04-11T10:43:08.999Z</time></trkpt><trkpt lat="43.31104374583488" lon="12.801220321416661"><ele>854.0</ele><time>2026-04-11T10:43:09.999Z</time></trkpt><trkpt lat="43.31111830540847" lon="12.801239075483707"><ele>854.0000000000001</ele><time>2026-04-11T10:43:10.999Z</time></trkpt><trkpt lat="43.31119191081176" lon="12.801259468818872"><ele>854.0000000000001</ele><time>2026-04-11T10:43:11.999Z</time></trkpt><trkpt lat="43.31126508918688" lon="12.801268840921795"><ele>854.0</ele><time>2026-04-11T10:43:12.999Z</time></trkpt><trkpt lat="43.311439653602434" lon="12.801246422269386"><ele>854.0</ele><time>2026-04-11T10:43:13.999Z</time></trkpt><trkpt lat="43.31154763762657" lon="12.801210959450728"><ele>858.75</ele><time>2026-04-11T10:43:14.999Z</time></trkpt><trkpt lat="43.311664377433786" lon="12.801185558525136"><ele>863.5</ele><time>2026-04-11T10:43:15.999Z</time></trkpt><trkpt lat="43.3117871146088" lon="12.801145375315846"><ele>868.25</ele><time>2026-04-11T10:43:16.999Z</time></trkpt><trkpt lat="43.311909207925616" lon="12.80110341683068"><ele>873.0</ele><time>2026-04-11T10:43:17.999Z</time></trkpt><trkpt lat="43.31201525149214" lon="12.801083424528645"><ele>873.0</ele><time>2026-04-11T10:43:18.999Z</time></trkpt><trkpt lat="43.31214270532518" lon="12.801066528362652"><ele>873.0</ele><time>2026-04-11T10:43:19.999Z</time></trkpt><trkpt lat="43.312270043150576" lon="12.801053196318541"><ele>873.0</ele><time>2026-04-11T10:43:20.999Z</time></trkpt><trkpt lat="43.31238727814457" lon="12.801047896588058"><ele>873.0</ele><time>2026-04-11T10:43:21.999Z</time></trkpt><trkpt lat="43.31251108772908" lon="12.801038620761457"><ele>880.5</ele><time>2026-04-11T10:43:22.999Z</time></trkpt><trkpt lat="43.31262950678186" lon="12.801021920861306"><ele>888.0</ele><time>2026-04-11T10:43:23.999Z</time></trkpt><trkpt lat="43.312759806498846" lon="12.80100059764499"><ele>895.5</ele><time>2026-04-11T10:43:24.999Z</time></trkpt><trkpt lat="43.31288706555358" lon="12.800981227038056"><ele>903.0</ele><time>2026-04-11T10:43:25.999Z</time></trkpt><trkpt lat="43.31301711808618" lon="12.800951177463006"><ele>909.2</ele><time>2026-04-11T10:43:26.999Z</time></trkpt><trkpt lat="43.313133282980225" lon="12.800914436945233"><ele>915.4</ele><time>2026-04-11T10:43:27.999Z</time></trkpt><trkpt lat="43.31322606886747" lon="12.800881948133144"><ele>921.6000000000001</ele><time>2026-04-11T10:43:28.999Z</time></trkpt><trkpt lat="43.313305644381074" lon="12.8008441023219"><ele>927.8000000000001</ele><time>2026-04-11T10:43:29.999Z</time></trkpt><trkpt lat="43.31339626556587" lon="12.80077691293592"><ele>934.0</ele><time>2026-04-11T10:43:30.999Z</time></trkpt><trkpt lat="43.31348741010775" lon="12.800697369420268"><ele>934.0</ele><time>2026-04-11T10:43:31.999Z</time></trkpt><trkpt lat="43.31357652952746" lon="12.80061918112436"><ele>934.0000000000001</ele><time>2026-04-11T10:43:32.999Z</time></trkpt><trkpt lat="43.313657235499726" lon="12.800546541114766"><ele>934.0000000000001</ele><time>2026-04-11T10:43:33.999Z</time></trkpt><trkpt lat="43.313735406321435" lon="12.800472321935999"><ele>934.0</ele><time>2026-04-11T10:43:34.999Z</time></trkpt><trkpt lat="43.313789639406636" lon="12.800387065033217"><ele>934.0</ele><time>2026-04-11T10:43:35.999Z</time></trkpt><trkpt lat="43.31385562982139" lon="12.800261448487225"><ele>933.9999999999999</ele><time>2026-04-11T10:43:37.999Z</time></trkpt><trkpt lat="43.31388193301672" lon="12.80013709085491"><ele>934.0</ele><time>2026-04-11T10:43:40.999Z</time></trkpt><trkpt lat="43.313891276968945" lon="12.800004201078927"><ele>934.0</ele><time>2026-04-11T10:43:42.999Z</time></trkpt><trkpt lat="43.313886305141445" lon="12.799906530915251"><ele>934.0</ele><time>2026-04-11T10:43:43.999Z</time></trkpt><trkpt lat="43.31387830891423" lon="12.799812354059283"><ele>933.9999999999999</ele><time>2026-04-11T10:43:44.999Z</time></trkpt><trkpt lat="43.31387462642921" lon="12.799709118401319"><ele>934.0</ele><time>2026-04-11T10:43:45.999Z</time></trkpt><trkpt lat="43.31389318299791" lon="12.799577164184385"><ele>933.9999999999999</ele><time>2026-04-11T10:43:47.999Z</time></trkpt><trkpt lat="43.313890662014046" lon="12.799462209187464"><ele>934.0</ele><time>2026-04-11T10:43:49.999Z</time></trkpt><trkpt lat="43.31384694575672" lon="12.799363009931849"><ele>934.0</ele><time>2026-04-11T10:43:51.999Z</time></trkpt><trkpt lat="43.313794013578594" lon="12.79925866806307"><ele>934.0</ele><time>2026-04-11T10:43:54.999Z</time></trkpt><trkpt lat="43.31373911073205" lon="12.799125112465065"><ele>933.9999999999999</ele><time>2026-04-11T10:43:56.999Z</time></trkpt><trkpt lat="43.313703734597084" lon="12.799046340832904"><ele>934.0</ele><time>2026-04-11T10:43:57.999Z</time></trkpt><trkpt lat="43.31366624742588" lon="12.79896190141548"><ele>934.0</ele><time>2026-04-11T10:43:58.999Z</time></trkpt><trkpt lat="43.31362498715481" lon="12.798894514605532"><ele>934.0000000000001</ele><time>2026-04-11T10:43:59.999Z</time></trkpt><trkpt lat="43.3135739917487" lon="12.798829060204767"><ele>934.0000000000001</ele><time>2026-04-11T10:44:00.999Z</time></trkpt><trkpt lat="43.31348311525554" lon="12.798715110328297"><ele>934.0</ele><time>2026-04-11T10:44:02.999Z</time></trkpt><trkpt lat="43.313386448256736" lon="12.798619636878584"><ele>934.0</ele><time>2026-04-11T10:44:04.999Z</time></trkpt><trkpt lat="43.31329518903611" lon="12.798555218646952"><ele>932.9999999999999</ele><time>2026-04-11T10:44:06.999Z</time></trkpt><trkpt lat="43.313210070408644" lon="12.79850042286366"><ele>932.0</ele><time>2026-04-11T10:44:08.999Z</time></trkpt><trkpt lat="43.3131285872727" lon="12.798399816406603"><ele>931.0</ele><time>2026-04-11T10:44:10.999Z</time></trkpt><trkpt lat="43.31310116118791" lon="12.798319999999185"><ele>930.0</ele><time>2026-04-11T10:44:11.999Z</time></trkpt><trkpt lat="43.31306673808714" lon="12.798210294218912"><ele>928.9999999999999</ele><time>2026-04-11T10:44:13.999Z</time></trkpt><trkpt lat="43.31302110910127" lon="12.798098969631337"><ele>928.0</ele><time>2026-04-11T10:44:15.999Z</time></trkpt><trkpt lat="43.31298858791598" lon="12.797980027033903"><ele>925.1666666666666</ele><time>2026-04-11T10:44:17.999Z</time></trkpt><trkpt lat="43.31296067358086" lon="12.797840423175359"><ele>922.3333333333333</ele><time>2026-04-11T10:44:19.999Z</time></trkpt><trkpt lat="43.31293111339353" lon="12.79774643702391"><ele>919.5</ele><time>2026-04-11T10:44:21.999Z</time></trkpt><trkpt lat="43.31289172379411" lon="12.797650675093754"><ele>916.6666666666667</ele><time>2026-04-11T10:44:23.999Z</time></trkpt><trkpt lat="43.312825947322665" lon="12.79755354275025"><ele>913.8333333333334</ele><time>2026-04-11T10:44:25.999Z</time></trkpt><trkpt lat="43.312786836062415" lon="12.79746020420073"><ele>911.0</ele><time>2026-04-11T10:44:27.999Z</time></trkpt><trkpt lat="43.312786907200916" lon="12.797325023353263"><ele>909.1666666666667</ele><time>2026-04-11T10:44:30.999Z</time></trkpt><trkpt lat="43.31278439437823" lon="12.797228723896568"><ele>907.3333333333334</ele><time>2026-04-11T10:44:32.999Z</time></trkpt><trkpt lat="43.31271038441093" lon="12.797180212280482"><ele>905.5</ele><time>2026-04-11T10:44:35.999Z</time></trkpt><trkpt lat="43.31265738511649" lon="12.797113176772758"><ele>903.6666666666667</ele><time>2026-04-11T10:44:39.999Z</time></trkpt><trkpt lat="43.312655858215024" lon="12.7969952451047"><ele>901.8333333333334</ele><time>2026-04-11T10:44:43.999Z</time></trkpt><trkpt lat="43.31261153998738" lon="12.796876964449853"><ele>900.0</ele><time>2026-04-11T10:44:45.999Z</time></trkpt><trkpt lat="43.31255451366232" lon="12.796727392683534"><ele>896.8333333333334</ele><time>2026-04-11T10:44:47.999Z</time></trkpt><trkpt lat="43.31252685686015" lon="12.796631429475557"><ele>893.6666666666667</ele><time>2026-04-11T10:44:48.999Z</time></trkpt><trkpt lat="43.31249338617441" lon="12.796556258050867"><ele>890.5</ele><time>2026-04-11T10:44:49.999Z</time></trkpt><trkpt lat="43.31243404896736" lon="12.796458320462747"><ele>887.3333333333334</ele><time>2026-04-11T10:44:51.999Z</time></trkpt><trkpt lat="43.3123679033615" lon="12.796388679139412"><ele>884.1666666666667</ele><time>2026-04-11T10:44:58.999Z</time></trkpt><trkpt lat="43.31229134373951" lon="12.79633055971648"><ele>881.0</ele><time>2026-04-11T10:45:02.999Z</time></trkpt><trkpt lat="43.31224810647608" lon="12.796263371916226"><ele>875.0</ele><time>2026-04-11T10:45:06.999Z</time></trkpt><trkpt lat="43.312136815413034" lon="12.796158145578282"><ele>868.9999999999999</ele><time>2026-04-11T10:45:08.999Z</time></trkpt><trkpt lat="43.31203615004061" lon="12.79605211678786"><ele>863.0</ele><time>2026-04-11T10:45:10.999Z</time></trkpt><trkpt lat="43.31199226868343" lon="12.795985622858701"><ele>857.0</ele><time>2026-04-11T10:45:12.999Z</time></trkpt><trkpt lat="43.311944494358194" lon="12.795918175937986"><ele>851.0</ele><time>2026-04-11T10:45:17Z</time></trkpt><trkpt lat="43.31187677213794" lon="12.795811532645068"><ele>850.2857142857143</ele><time>2026-04-11T10:45:31Z</time></trkpt><trkpt lat="43.311843957174496" lon="12.79572488870222"><ele>849.5714285714287</ele><time>2026-04-11T10:45:33Z</time></trkpt><trkpt lat="43.31186738337577" lon="12.795629696531357"><ele>848.8571428571429</ele><time>2026-04-11T10:45:49Z</time></trkpt><trkpt lat="43.31192468441667" lon="12.79557037540997"><ele>848.1428571428571</ele><time>2026-04-11T10:45:55.999Z</time></trkpt><trkpt lat="43.31197415709383" lon="12.79551463365927"><ele>847.4285714285714</ele><time>2026-04-11T10:45:58.999Z</time></trkpt><trkpt lat="43.312014737008305" lon="12.795435045764824"><ele>846.7142857142857</ele><time>2026-04-11T10:46:01.999Z</time></trkpt><trkpt lat="43.31207858292349" lon="12.795387828403465"><ele>846.0</ele><time>2026-04-11T10:46:05.999Z</time></trkpt><trkpt lat="43.31212624798613" lon="12.795325853107364"><ele>846.0</ele><time>2026-04-11T10:46:10.999Z</time></trkpt><trkpt lat="43.312167487934644" lon="12.795250765385198"><ele>846.0</ele><time>2026-04-11T10:46:12.999Z</time></trkpt><trkpt lat="43.31223394767992" lon="12.795177591298145"><ele>846.0</ele><time>2026-04-11T10:46:14.999Z</time></trkpt><trkpt lat="43.31223546838989" lon="12.795074984475832"><ele>846.0</ele><time>2026-04-11T10:46:20.999Z</time></trkpt><trkpt lat="43.31227199667255" lon="12.794999485437486"><ele>846.0</ele><time>2026-04-11T10:46:47.999Z</time></trkpt><trkpt lat="43.31233005844558" lon="12.794951080583752"><ele>846.0</ele><time>2026-04-11T10:46:53.999Z</time></trkpt><trkpt lat="43.31233365167515" lon="12.79486269782481"><ele>846.0</ele><time>2026-04-11T10:47:00.999Z</time></trkpt><trkpt lat="43.31237729480432" lon="12.794790111766346"><ele>844.7142857142857</ele><time>2026-04-11T10:47:04.999Z</time></trkpt><trkpt lat="43.31238831006495" lon="12.794697093247501"><ele>843.4285714285714</ele><time>2026-04-11T10:47:08.999Z</time></trkpt><trkpt lat="43.31242933884321" lon="12.794625715619201"><ele>842.1428571428571</ele><time>2026-04-11T10:47:14.999Z</time></trkpt><trkpt lat="43.31245184562118" lon="12.79454402071324"><ele>840.8571428571429</ele><time>2026-04-11T10:47:22Z</time></trkpt><trkpt lat="43.312417565551456" lon="12.794445565075845"><ele>839.5714285714287</ele><time>2026-04-11T10:47:26Z</time></trkpt><trkpt lat="43.312400679393036" lon="12.7943188512252"><ele>838.2857142857143</ele><time>2026-04-11T10:47:29Z</time></trkpt><trkpt lat="43.312404535124614" lon="12.794213779918463"><ele>837.0</ele><time>2026-04-11T10:47:32Z</time></trkpt><trkpt lat="43.31239144672293" lon="12.794127396345353"><ele>832.25</ele><time>2026-04-11T10:47:43Z</time></trkpt><trkpt lat="43.312391929078274" lon="12.793994195398684"><ele>827.5</ele><time>2026-04-11T10:49:17.999Z</time></trkpt><trkpt lat="43.31237486055703" lon="12.794087553235977"><ele>822.75</ele><time>2026-04-11T10:49:52Z</time></trkpt><trkpt lat="43.31250871934961" lon="12.793865974179543"><ele>818.0</ele><time>2026-04-11T10:50:10Z</time></trkpt><trkpt lat="43.312550556033216" lon="12.793774165024207"><ele>818.0000000000001</ele><time>2026-04-11T10:50:17Z</time></trkpt><trkpt lat="43.312600227192455" lon="12.793712650288318"><ele>818.0</ele><time>2026-04-11T10:50:24Z</time></trkpt><trkpt lat="43.312668075530965" lon="12.79364511710581"><ele>818.0</ele><time>2026-04-11T10:50:28Z</time></trkpt><trkpt lat="43.3126839663748" lon="12.793537635105308"><ele>818.0</ele><time>2026-04-11T10:50:31Z</time></trkpt><trkpt lat="43.31268865468109" lon="12.793442190390014"><ele>818.0000000000001</ele><time>2026-04-11T10:50:35Z</time></trkpt><trkpt lat="43.31269194385634" lon="12.793333852082533"><ele>818.0</ele><time>2026-04-11T10:51:38Z</time></trkpt><trkpt lat="43.312699083788104" lon="12.793233825300202"><ele>816.5000000000001</ele><time>2026-04-11T10:51:42Z</time></trkpt><trkpt lat="43.312693821970086" lon="12.793141199292874"><ele>815.0</ele><time>2026-04-11T10:51:45Z</time></trkpt><trkpt lat="43.31272710862261" lon="12.793032136440328"><ele>813.5</ele><time>2026-04-11T10:51:48Z</time></trkpt><trkpt lat="43.31278626480872" lon="12.792988569114147"><ele>812.0</ele><time>2026-04-11T10:51:51Z</time></trkpt><trkpt lat="43.312862011828564" lon="12.7928642183949"><ele>810.5000000000001</ele><time>2026-04-11T10:51:54Z</time></trkpt><trkpt lat="43.312941648567325" lon="12.79276792077447"><ele>809.0</ele><time>2026-04-11T10:51:56Z</time></trkpt><trkpt lat="43.313023489859205" lon="12.792692927363998"><ele>800.2</ele><time>2026-04-11T10:51:58Z</time></trkpt><trkpt lat="43.313118336205946" lon="12.792615517408914"><ele>791.4000000000001</ele><time>2026-04-11T10:52:00Z</time></trkpt><trkpt lat="43.31320041238457" lon="12.79255048885702"><ele>782.6</ele><time>2026-04-11T10:52:02Z</time></trkpt><trkpt lat="43.31323798729662" lon="12.792437415528935"><ele>773.8</ele><time>2026-04-11T10:52:04Z</time></trkpt><trkpt lat="43.31329822177202" lon="12.792318668278911"><ele>765.0</ele><time>2026-04-11T10:52:06Z</time></trkpt><trkpt lat="43.3133476131508" lon="12.792217645373348"><ele>765.0</ele><time>2026-04-11T10:52:08Z</time></trkpt><trkpt lat="43.31341194421281" lon="12.79211710631289"><ele>765.0</ele><time>2026-04-11T10:52:10Z</time></trkpt><trkpt lat="43.313471010341125" lon="12.792021462275011"><ele>765.0</ele><time>2026-04-11T10:52:12Z</time></trkpt><trkpt lat="43.31352870172667" lon="12.791903643573486"><ele>765.0</ele><time>2026-04-11T10:52:14Z</time></trkpt><trkpt lat="43.31358274052833" lon="12.791776912218744"><ele>765.0</ele><time>2026-04-11T10:52:16Z</time></trkpt><trkpt lat="43.31361906180226" lon="12.791687186703129"><ele>766.6666666666666</ele><time>2026-04-11T10:52:17Z</time></trkpt><trkpt lat="43.31365008522607" lon="12.791603399090139"><ele>768.3333333333333</ele><time>2026-04-11T10:52:18Z</time></trkpt><trkpt lat="43.31367025687391" lon="12.791515998795054"><ele>770.0</ele><time>2026-04-11T10:52:19Z</time></trkpt><trkpt lat="43.31373215332638" lon="12.79136651944388"><ele>771.6666666666666</ele><time>2026-04-11T10:52:21Z</time></trkpt><trkpt lat="43.31378147990278" lon="12.791289699839128"><ele>773.3333333333333</ele><time>2026-04-11T10:52:22Z</time></trkpt><trkpt lat="43.31383595792506" lon="12.791213672894598"><ele>775.0</ele><time>2026-04-11T10:52:23Z</time></trkpt><trkpt lat="43.31389021782576" lon="12.791148611516093"><ele>765.6666666666666</ele><time>2026-04-11T10:52:24Z</time></trkpt><trkpt lat="43.31394873297354" lon="12.791092095706821"><ele>756.3333333333333</ele><time>2026-04-11T10:52:25Z</time></trkpt><trkpt lat="43.31399811033879" lon="12.791034289554537"><ele>747.0</ele><time>2026-04-11T10:52:26Z</time></trkpt><trkpt lat="43.31403921349568" lon="12.79096390226314"><ele>737.6666666666666</ele><time>2026-04-11T10:52:27Z</time></trkpt><trkpt lat="43.31410149762025" lon="12.790849963203"><ele>728.3333333333333</ele><time>2026-04-11T10:52:29Z</time></trkpt><trkpt lat="43.3141635096535" lon="12.79080631994558"><ele>719.0</ele><time>2026-04-11T10:52:31Z</time></trkpt><trkpt lat="43.31422694708523" lon="12.790695463146271"><ele>719.0</ele><time>2026-04-11T10:52:33Z</time></trkpt><trkpt lat="43.314247874669185" lon="12.790612210622022"><ele>719.0</ele><time>2026-04-11T10:52:34Z</time></trkpt><trkpt lat="43.314291880095276" lon="12.790536433270342"><ele>719.0</ele><time>2026-04-11T10:52:35Z</time></trkpt><trkpt lat="43.31436470137279" lon="12.790418530462723"><ele>719.0</ele><time>2026-04-11T10:52:37Z</time></trkpt><trkpt lat="43.31440283363509" lon="12.79026715522237"><ele>719.0</ele><time>2026-04-11T10:52:39Z</time></trkpt><trkpt lat="43.31448338807111" lon="12.790152199238765"><ele>720.1666666666666</ele><time>2026-04-11T10:52:41Z</time></trkpt><trkpt lat="43.31453759558314" lon="12.790044269586314"><ele>721.3333333333333</ele><time>2026-04-11T10:52:43Z</time></trkpt><trkpt lat="43.31452281585456" lon="12.789935195279332"><ele>722.5</ele><time>2026-04-11T10:52:45Z</time></trkpt><trkpt lat="43.31450137430458" lon="12.789828956514214"><ele>723.6666666666666</ele><time>2026-04-11T10:52:47Z</time></trkpt><trkpt lat="43.31447888156192" lon="12.789699379352697"><ele>724.8333333333334</ele><time>2026-04-11T10:52:49Z</time></trkpt><trkpt lat="43.314451055872894" lon="12.789603891617535"><ele>726.0</ele><time>2026-04-11T10:52:50Z</time></trkpt><trkpt lat="43.3144142368891" lon="12.789500197190925"><ele>726.0</ele><time>2026-04-11T10:52:51Z</time></trkpt><trkpt lat="43.31438773912552" lon="12.78941709718766"><ele>726.0</ele><time>2026-04-11T10:52:52Z</time></trkpt><trkpt lat="43.314357637170076" lon="12.789324931031853"><ele>726.0</ele><time>2026-04-11T10:52:53Z</time></trkpt><trkpt lat="43.314328912064454" lon="12.789235670402784"><ele>726.0</ele><time>2026-04-11T10:52:54Z</time></trkpt><trkpt lat="43.31430156525123" lon="12.789148679115792"><ele>726.0</ele><time>2026-04-11T10:52:55Z</time></trkpt><trkpt lat="43.3143162073239" lon="12.789055743659063"><ele>726.0</ele><time>2026-04-11T10:52:56Z</time></trkpt><trkpt lat="43.31434453338789" lon="12.788902128198472"><ele>725.0</ele><time>2026-04-11T10:52:58Z</time></trkpt><trkpt lat="43.31434517777378" lon="12.788788355045401"><ele>724.0</ele><time>2026-04-11T10:53:00Z</time></trkpt><trkpt lat="43.31437045827879" lon="12.788680839107744"><ele>723.0</ele><time>2026-04-11T10:53:04Z</time></trkpt><trkpt lat="43.314437058961616" lon="12.788651860112028"><ele>722.0</ele><time>2026-04-11T10:53:07Z</time></trkpt><trkpt lat="43.31452689232581" lon="12.788629583308328"><ele>721.0</ele><time>2026-04-11T10:53:09Z</time></trkpt><trkpt lat="43.314610906913366" lon="12.788583496149375"><ele>720.0</ele><time>2026-04-11T10:53:12Z</time></trkpt><trkpt lat="43.31470751065012" lon="12.788571074639007"><ele>716.0</ele><time>2026-04-11T10:53:14Z</time></trkpt><trkpt lat="43.31481896031051" lon="12.788560395982842"><ele>712.0</ele><time>2026-04-11T10:53:15.999Z</time></trkpt><trkpt lat="43.31490922554719" lon="12.788561498280453"><ele>708.0</ele><time>2026-04-11T10:53:16.999Z</time></trkpt><trkpt lat="43.315005515944875" lon="12.788540024660504"><ele>704.0</ele><time>2026-04-11T10:53:17.999Z</time></trkpt><trkpt lat="43.31509731036849" lon="12.788503045977393"><ele>700.0</ele><time>2026-04-11T10:53:18.999Z</time></trkpt><trkpt lat="43.315191788904336" lon="12.788462706416594"><ele>700.0</ele><time>2026-04-11T10:53:19.999Z</time></trkpt><trkpt lat="43.315272341029505" lon="12.78840624724514"><ele>700.0</ele><time>2026-04-11T10:53:20.999Z</time></trkpt><trkpt lat="43.31533139095629" lon="12.788351577101317"><ele>700.0</ele><time>2026-04-11T10:53:21.999Z</time></trkpt><trkpt lat="43.315384509197266" lon="12.788294257332174"><ele>700.0</ele><time>2026-04-11T10:53:22.999Z</time></trkpt><trkpt lat="43.31542469942845" lon="12.788225183710534"><ele>700.0</ele><time>2026-04-11T10:53:23.999Z</time></trkpt><trkpt lat="43.31547802765405" lon="12.788153203200036"><ele>700.0</ele><time>2026-04-11T10:53:24.999Z</time></trkpt><trkpt lat="43.315543619301806" lon="12.788068133110581"><ele>697.8333333333334</ele><time>2026-04-11T10:53:25.999Z</time></trkpt><trkpt lat="43.31561872313003" lon="12.787980328796754"><ele>695.6666666666667</ele><time>2026-04-11T10:53:26.999Z</time></trkpt><trkpt lat="43.315677178667265" lon="12.787890824282352"><ele>693.5</ele><time>2026-04-11T10:53:27.999Z</time></trkpt><trkpt lat="43.31572129614637" lon="12.787798692988368"><ele>691.3333333333334</ele><time>2026-04-11T10:53:28.999Z</time></trkpt><trkpt lat="43.31575219067772" lon="12.78770428372849"><ele>689.1666666666666</ele><time>2026-04-11T10:53:29.999Z</time></trkpt><trkpt lat="43.31576605452035" lon="12.787605061457262"><ele>687.0</ele><time>2026-04-11T10:53:30.999Z</time></trkpt><trkpt lat="43.31578085460449" lon="12.78751017671128"><ele>687.0</ele><time>2026-04-11T10:53:31.999Z</time></trkpt><trkpt lat="43.31579826798443" lon="12.78741285037973"><ele>687.0</ele><time>2026-04-11T10:53:32.999Z</time></trkpt><trkpt lat="43.31582775383988" lon="12.787320107153874"><ele>687.0</ele><time>2026-04-11T10:53:33.999Z</time></trkpt><trkpt lat="43.31586172416882" lon="12.787230741825713"><ele>687.0</ele><time>2026-04-11T10:53:34.999Z</time></trkpt><trkpt lat="43.31589187871342" lon="12.787140564392297"><ele>687.0</ele><time>2026-04-11T10:53:35.999Z</time></trkpt><trkpt lat="43.315921159487345" lon="12.787052328029185"><ele>687.0</ele><time>2026-04-11T10:53:36.999Z</time></trkpt><trkpt lat="43.315950858961465" lon="12.786969059080098"><ele>687.0</ele><time>2026-04-11T10:53:37.999Z</time></trkpt><trkpt lat="43.31598109194574" lon="12.786805228069818"><ele>687.8333333333334</ele><time>2026-04-11T10:53:40Z</time></trkpt><trkpt lat="43.31597374033854" lon="12.786692032762906"><ele>688.6666666666666</ele><time>2026-04-11T10:53:41Z</time></trkpt><trkpt lat="43.31596920369785" lon="12.78658178811104"><ele>689.5</ele><time>2026-04-11T10:53:42Z</time></trkpt><trkpt lat="43.316031513420796" lon="12.78643320199914"><ele>690.3333333333333</ele><time>2026-04-11T10:53:44Z</time></trkpt><trkpt lat="43.31605259414087" lon="12.786343224193537"><ele>691.1666666666666</ele><time>2026-04-11T10:53:45Z</time></trkpt><trkpt lat="43.31606734523814" lon="12.78625021932486"><ele>692.0</ele><time>2026-04-11T10:53:46Z</time></trkpt><trkpt lat="43.31608499777202" lon="12.786161208309327"><ele>692.0</ele><time>2026-04-11T10:53:47Z</time></trkpt><trkpt lat="43.316096648021336" lon="12.786068475459889"><ele>692.0</ele><time>2026-04-11T10:53:48Z</time></trkpt><trkpt lat="43.316117250286375" lon="12.78597091989595"><ele>692.0</ele><time>2026-04-11T10:53:49Z</time></trkpt><trkpt lat="43.316137223017314" lon="12.78587729194228"><ele>692.0</ele><time>2026-04-11T10:53:50Z</time></trkpt><trkpt lat="43.316176491533206" lon="12.785740502289705"><ele>692.0</ele><time>2026-04-11T10:53:52Z</time></trkpt><trkpt lat="43.3162339389659" lon="12.785621347142566"><ele>692.0</ele><time>2026-04-11T10:53:55Z</time></trkpt><trkpt lat="43.31623133312582" lon="12.785518596290828"><ele>691.8</ele><time>2026-04-11T10:53:56Z</time></trkpt><trkpt lat="43.31623662189058" lon="12.785426667243867"><ele>691.6</ele><time>2026-04-11T10:53:57Z</time></trkpt><trkpt lat="43.31625294471827" lon="12.785326681529604"><ele>691.4</ele><time>2026-04-11T10:53:58Z</time></trkpt><trkpt lat="43.31628492742158" lon="12.785161039836632"><ele>691.1999999999999</ele><time>2026-04-11T10:54:00Z</time></trkpt><trkpt lat="43.31624902970055" lon="12.78501316592814"><ele>691.0</ele><time>2026-04-11T10:54:02Z</time></trkpt><trkpt lat="43.316212089929955" lon="12.784849990602142"><ele>690.1666666666667</ele><time>2026-04-11T10:54:04Z</time></trkpt><trkpt lat="43.31620271144828" lon="12.784754190783314"><ele>689.3333333333334</ele><time>2026-04-11T10:54:05Z</time></trkpt><trkpt lat="43.31617274162364" lon="12.784645806222798"><ele>688.5</ele><time>2026-04-11T10:54:07Z</time></trkpt><trkpt lat="43.31611884079914" lon="12.784552993840366"><ele>687.6666666666666</ele><time>2026-04-11T10:54:09Z</time></trkpt><trkpt lat="43.31606501252598" lon="12.78443312011957"><ele>686.8333333333333</ele><time>2026-04-11T10:54:11Z</time></trkpt><trkpt lat="43.316051214687896" lon="12.784328031592668"><ele>686.0</ele><time>2026-04-11T10:54:13Z</time></trkpt><trkpt lat="43.31605712652168" lon="12.784225649178703"><ele>684.3333333333333</ele><time>2026-04-11T10:54:27Z</time></trkpt><trkpt lat="43.316077376965914" lon="12.784125771353645"><ele>682.6666666666666</ele><time>2026-04-11T10:54:32Z</time></trkpt><trkpt lat="43.316090544124734" lon="12.78401705852001"><ele>681.0</ele><time>2026-04-11T10:54:34Z</time></trkpt><trkpt lat="43.31610047826989" lon="12.783924511468834"><ele>679.3333333333334</ele><time>2026-04-11T10:54:35Z</time></trkpt><trkpt lat="43.316112259146905" lon="12.783810930934287"><ele>677.6666666666667</ele><time>2026-04-11T10:54:36Z</time></trkpt><trkpt lat="43.31612174739292" lon="12.783707186477521"><ele>676.0</ele><time>2026-04-11T10:54:37Z</time></trkpt><trkpt lat="43.31611939333619" lon="12.783596047100275"><ele>676.0</ele><time>2026-04-11T10:54:38Z</time></trkpt><trkpt lat="43.31611567852262" lon="12.783505968639908"><ele>676.0</ele><time>2026-04-11T10:54:39Z</time></trkpt><trkpt lat="43.31613748210944" lon="12.783402847802106"><ele>676.0</ele><time>2026-04-11T10:54:41Z</time></trkpt><trkpt lat="43.316230695618685" lon="12.783495989847916"><ele>676.0</ele><time>2026-04-11T10:54:43Z</time></trkpt><trkpt lat="43.31629662808651" lon="12.78357380104906"><ele>676.0</ele><time>2026-04-11T10:54:44Z</time></trkpt><trkpt lat="43.316363343160084" lon="12.78365138324634"><ele>676.0</ele><time>2026-04-11T10:54:45Z</time></trkpt><trkpt lat="43.316429614915386" lon="12.78372537569918"><ele>670.8333333333334</ele><time>2026-04-11T10:54:46Z</time></trkpt><trkpt lat="43.316476102811954" lon="12.783784431334594"><ele>665.6666666666667</ele><time>2026-04-11T10:54:47Z</time></trkpt><trkpt lat="43.3165637296633" lon="12.783917016268937"><ele>660.5</ele><time>2026-04-11T10:54:49Z</time></trkpt><trkpt lat="43.31661867378058" lon="12.78395945319719"><ele>655.3333333333334</ele><time>2026-04-11T10:54:50Z</time></trkpt><trkpt lat="43.31671403842194" lon="12.784006980135251"><ele>650.1666666666666</ele><time>2026-04-11T10:54:53Z</time></trkpt><trkpt lat="43.31679089726582" lon="12.784001018223897"><ele>645.0</ele><time>2026-04-11T10:54:54Z</time></trkpt><trkpt lat="43.3168949199527" lon="12.783943019772359"><ele>645.0</ele><time>2026-04-11T10:54:56Z</time></trkpt><trkpt lat="43.31695814844636" lon="12.783825979135193"><ele>645.0</ele><time>2026-04-11T10:54:58Z</time></trkpt><trkpt lat="43.31705634288785" lon="12.783673613887952"><ele>645.0</ele><time>2026-04-11T10:55:00Z</time></trkpt><trkpt lat="43.31711724719215" lon="12.783560352852698"><ele>645.0</ele><time>2026-04-11T10:55:01Z</time></trkpt><trkpt lat="43.31718095313139" lon="12.78345047638046"><ele>640.6</ele><time>2026-04-11T10:55:02Z</time></trkpt><trkpt lat="43.317253249281954" lon="12.783346349316338"><ele>636.2</ele><time>2026-04-11T10:55:03Z</time></trkpt><trkpt lat="43.31732962336949" lon="12.783246991230873"><ele>631.8</ele><time>2026-04-11T10:55:04Z</time></trkpt><trkpt lat="43.31741185299894" lon="12.783126158770571"><ele>627.4</ele><time>2026-04-11T10:55:05Z</time></trkpt><trkpt lat="43.31748403207345" lon="12.783001908365554"><ele>623.0</ele><time>2026-04-11T10:55:06Z</time></trkpt><trkpt lat="43.317556191926926" lon="12.782880743032177"><ele>623.0</ele><time>2026-04-11T10:55:07Z</time></trkpt><trkpt lat="43.31763062308521" lon="12.782755390192712"><ele>623.0</ele><time>2026-04-11T10:55:08Z</time></trkpt><trkpt lat="43.31769439872405" lon="12.782645358822629"><ele>623.0</ele><time>2026-04-11T10:55:09Z</time></trkpt><trkpt lat="43.317755693246106" lon="12.782588263822449"><ele>623.0</ele><time>2026-04-11T10:55:10Z</time></trkpt><trkpt lat="43.31780709793854" lon="12.782529296017394"><ele>623.0</ele><time>2026-04-11T10:55:11Z</time></trkpt><trkpt lat="43.317836409458764" lon="12.782393267240234"><ele>621.8333333333333</ele><time>2026-04-11T10:55:13Z</time></trkpt><trkpt lat="43.317795175699004" lon="12.782315815693352"><ele>620.6666666666666</ele><time>2026-04-11T10:55:14Z</time></trkpt><trkpt lat="43.3177294066977" lon="12.782263152156588"><ele>619.5</ele><time>2026-04-11T10:55:15Z</time></trkpt><trkpt lat="43.31764603612003" lon="12.782235561751873"><ele>618.3333333333334</ele><time>2026-04-11T10:55:16Z</time></trkpt><trkpt lat="43.317555320427026" lon="12.782248407603044"><ele>617.1666666666667</ele><time>2026-04-11T10:55:17Z</time></trkpt><trkpt lat="43.3174751866566" lon="12.782254904571587"><ele>616.0</ele><time>2026-04-11T10:55:18Z</time></trkpt><trkpt lat="43.317398032668606" lon="12.782268432771696"><ele>616.0</ele><time>2026-04-11T10:55:19Z</time></trkpt><trkpt lat="43.317331718060444" lon="12.782278685145986"><ele>616.0</ele><time>2026-04-11T10:55:20Z</time></trkpt><trkpt lat="43.3172494251852" lon="12.782270832510033"><ele>616.0</ele><time>2026-04-11T10:55:21Z</time></trkpt><trkpt lat="43.31718701438789" lon="12.782240374406861"><ele>616.0</ele><time>2026-04-11T10:55:22Z</time></trkpt><trkpt lat="43.31712613530616" lon="12.782162941007323"><ele>616.0</ele><time>2026-04-11T10:55:23Z</time></trkpt><trkpt lat="43.31705961651952" lon="12.782111228791681"><ele>616.0</ele><time>2026-04-11T10:55:24Z</time></trkpt><trkpt lat="43.31698817070468" lon="12.782118614526729"><ele>616.0</ele><time>2026-04-11T10:55:25Z</time></trkpt><trkpt lat="43.316916254595185" lon="12.782153363984936"><ele>615.1666666666667</ele><time>2026-04-11T10:55:26Z</time></trkpt><trkpt lat="43.31684966395761" lon="12.782199716778585"><ele>614.3333333333334</ele><time>2026-04-11T10:55:27Z</time></trkpt><trkpt lat="43.316785347200685" lon="12.782155662775434"><ele>613.5</ele><time>2026-04-11T10:55:29Z</time></trkpt><trkpt lat="43.31674780930026" lon="12.782068304449686"><ele>612.6666666666666</ele><time>2026-04-11T10:55:30Z</time></trkpt><trkpt lat="43.31673730129838" lon="12.781951709405567"><ele>611.8333333333333</ele><time>2026-04-11T10:55:31Z</time></trkpt><trkpt lat="43.31676499233681" lon="12.781843723052795"><ele>611.0</ele><time>2026-04-11T10:55:31.999Z</time></trkpt><trkpt lat="43.31678321716162" lon="12.781735685137235"><ele>611.0</ele><time>2026-04-11T10:55:32.999Z</time></trkpt><trkpt lat="43.31679308211802" lon="12.78159733596436"><ele>611.0</ele><time>2026-04-11T10:55:33.999Z</time></trkpt><trkpt lat="43.31679802399239" lon="12.781469873694222"><ele>611.0</ele><time>2026-04-11T10:55:34.999Z</time></trkpt><trkpt lat="43.316782210929" lon="12.78138386427592"><ele>611.0</ele><time>2026-04-11T10:55:35.999Z</time></trkpt><trkpt lat="43.316756200891945" lon="12.781295844638707"><ele>611.0</ele><time>2026-04-11T10:55:36.999Z</time></trkpt><trkpt lat="43.31672224477224" lon="12.781185561200616"><ele>611.0</ele><time>2026-04-11T10:55:37.999Z</time></trkpt><trkpt lat="43.316686097264025" lon="12.781072438198173"><ele>611.0</ele><time>2026-04-11T10:55:38.999Z</time></trkpt><trkpt lat="43.31665082049261" lon="12.780991951319553"><ele>611.0</ele><time>2026-04-11T10:55:39.999Z</time></trkpt><trkpt lat="43.316504629565365" lon="12.781055875809416"><ele>611.0</ele><time>2026-04-11T10:55:41.999Z</time></trkpt><trkpt lat="43.31641661109484" lon="12.781148780995046"><ele>611.0</ele><time>2026-04-11T10:55:42.999Z</time></trkpt><trkpt lat="43.31631174902173" lon="12.781196860789343"><ele>611.0</ele><time>2026-04-11T10:55:43.999Z</time></trkpt><trkpt lat="43.316245650326984" lon="12.781146641658742"><ele>614.6</ele><time>2026-04-11T10:55:44.999Z</time></trkpt><trkpt lat="43.31621951366458" lon="12.781056216416049"><ele>618.2</ele><time>2026-04-11T10:55:46Z</time></trkpt><trkpt lat="43.3162605550428" lon="12.780941545643907"><ele>621.8</ele><time>2026-04-11T10:55:47Z</time></trkpt><trkpt lat="43.31630952625267" lon="12.780793024669046"><ele>625.4</ele><time>2026-04-11T10:55:48Z</time></trkpt><trkpt lat="43.31633236285852" lon="12.780638130060089"><ele>629.0</ele><time>2026-04-11T10:55:49Z</time></trkpt><trkpt lat="43.31633635773217" lon="12.780451342649847"><ele>629.0</ele><time>2026-04-11T10:55:50Z</time></trkpt><trkpt lat="43.3163459258834" lon="12.780229081679948"><ele>629.0</ele><time>2026-04-11T10:55:51Z</time></trkpt><trkpt lat="43.316399802306016" lon="12.780065201911784"><ele>629.0</ele><time>2026-04-11T10:55:52Z</time></trkpt><trkpt lat="43.316464744266845" lon="12.779886252718907"><ele>629.0</ele><time>2026-04-11T10:55:53Z</time></trkpt><trkpt lat="43.31651629148384" lon="12.779733967136648"><ele>620.2</ele><time>2026-04-11T10:55:54Z</time></trkpt><trkpt lat="43.31655524917051" lon="12.779577605005446"><ele>611.4</ele><time>2026-04-11T10:55:55Z</time></trkpt><trkpt lat="43.31658682723113" lon="12.779402285704057"><ele>602.6</ele><time>2026-04-11T10:55:56Z</time></trkpt><trkpt lat="43.31661166399706" lon="12.779294235902425"><ele>593.8</ele><time>2026-04-11T10:55:57Z</time></trkpt><trkpt lat="43.31660103794679" lon="12.779152721980351"><ele>585.0</ele><time>2026-04-11T10:55:59Z</time></trkpt><trkpt lat="43.3165423013669" lon="12.7790678030822"><ele>583.4</ele><time>2026-04-11T10:56:00Z</time></trkpt><trkpt lat="43.31649336114177" lon="12.778982117767095"><ele>581.8</ele><time>2026-04-11T10:56:01Z</time></trkpt><trkpt lat="43.31644696699373" lon="12.778922965954681"><ele>580.2</ele><time>2026-04-11T10:56:04Z</time></trkpt><trkpt lat="43.31659905605731" lon="12.778900509046721"><ele>578.6</ele><time>2026-04-11T10:57:00Z</time></trkpt><trkpt lat="43.316683561681224" lon="12.778895199783243"><ele>577.0</ele><time>2026-04-11T10:57:01Z</time></trkpt><trkpt lat="43.31676367978942" lon="12.778903606636414"><ele>577.0</ele><time>2026-04-11T10:57:02Z</time></trkpt><trkpt lat="43.31684664565278" lon="12.778903401768392"><ele>577.0</ele><time>2026-04-11T10:57:03Z</time></trkpt><trkpt lat="43.316928905871244" lon="12.778870893209932"><ele>577.0</ele><time>2026-04-11T10:57:04Z</time></trkpt><trkpt lat="43.3170264067065" lon="12.778862488460026"><ele>577.0</ele><time>2026-04-11T10:57:05Z</time></trkpt><trkpt lat="43.31710252117716" lon="12.778873301541216"><ele>577.0</ele><time>2026-04-11T10:57:06Z</time></trkpt><trkpt lat="43.31717564613249" lon="12.778862289089702"><ele>577.0</ele><time>2026-04-11T10:57:07Z</time></trkpt><trkpt lat="43.31723506280537" lon="12.77880898315021"><ele>574.6</ele><time>2026-04-11T10:57:08Z</time></trkpt><trkpt lat="43.31731373049836" lon="12.778711898961685"><ele>572.2</ele><time>2026-04-11T10:57:09Z</time></trkpt><trkpt lat="43.3173909295513" lon="12.778637545960883"><ele>569.8</ele><time>2026-04-11T10:57:10Z</time></trkpt><trkpt lat="43.31746551436696" lon="12.778622305141964"><ele>567.4</ele><time>2026-04-11T10:57:11Z</time></trkpt><trkpt lat="43.31754856461359" lon="12.778634324719514"><ele>565.0</ele><time>2026-04-11T10:57:12Z</time></trkpt><trkpt lat="43.317659391871416" lon="12.778648959824894"><ele>565.0</ele><time>2026-04-11T10:57:13Z</time></trkpt><trkpt lat="43.317744794454505" lon="12.778639146999225"><ele>565.0</ele><time>2026-04-11T10:57:14Z</time></trkpt><trkpt lat="43.3178259965116" lon="12.77860484089138"><ele>565.0</ele><time>2026-04-11T10:57:15Z</time></trkpt><trkpt lat="43.317927053649285" lon="12.778547827301198"><ele>565.0</ele><time>2026-04-11T10:57:16Z</time></trkpt><trkpt lat="43.31799867477063" lon="12.778500626345743"><ele>565.0</ele><time>2026-04-11T10:57:17Z</time></trkpt><trkpt lat="43.3180685193796" lon="12.77844418036247"><ele>565.0</ele><time>2026-04-11T10:57:18Z</time></trkpt><trkpt lat="43.318185317244804" lon="12.778465603749964"><ele>563.3333333333334</ele><time>2026-04-11T10:57:20Z</time></trkpt><trkpt lat="43.31824705350655" lon="12.778495689519238"><ele>561.6666666666667</ele><time>2026-04-11T10:57:21Z</time></trkpt><trkpt lat="43.31834972207087" lon="12.778510652376534"><ele>560.0</ele><time>2026-04-11T10:57:23Z</time></trkpt><trkpt lat="43.318376763593484" lon="12.778423666132985"><ele>558.3333333333334</ele><time>2026-04-11T10:57:26Z</time></trkpt><trkpt lat="43.31845950772026" lon="12.778399472852009"><ele>556.6666666666666</ele><time>2026-04-11T10:58:40Z</time></trkpt><trkpt lat="43.31852639549169" lon="12.778330610400765"><ele>555.0</ele><time>2026-04-11T10:58:42Z</time></trkpt><trkpt lat="43.31858112474066" lon="12.77827407556057"><ele>555.0</ele><time>2026-04-11T10:58:43Z</time></trkpt><trkpt lat="43.318618806592845" lon="12.778184223408687"><ele>555.0</ele><time>2026-04-11T10:58:44Z</time></trkpt><trkpt lat="43.31866507638645" lon="12.778050228433122"><ele>555.0</ele><time>2026-04-11T10:58:45Z</time></trkpt><trkpt lat="43.31873178940958" lon="12.777903767777806"><ele>555.0</ele><time>2026-04-11T10:58:46Z</time></trkpt><trkpt lat="43.31880106906012" lon="12.77779551749021"><ele>555.0</ele><time>2026-04-11T10:58:47Z</time></trkpt><trkpt lat="43.31885757522241" lon="12.777658123131394"><ele>554.75</ele><time>2026-04-11T10:58:48Z</time></trkpt><trkpt lat="43.318895582189256" lon="12.777484607071534"><ele>554.5</ele><time>2026-04-11T10:58:49Z</time></trkpt><trkpt lat="43.318910651197754" lon="12.777290340867799"><ele>554.25</ele><time>2026-04-11T10:58:50Z</time></trkpt><trkpt lat="43.31891309953115" lon="12.777123498314339"><ele>554.0</ele><time>2026-04-11T10:58:51Z</time></trkpt><trkpt lat="43.31890736776923" lon="12.776989566007027"><ele>553.25</ele><time>2026-04-11T10:58:52Z</time></trkpt><trkpt lat="43.31892462646079" lon="12.776868534771474"><ele>552.5</ele><time>2026-04-11T10:58:53Z</time></trkpt><trkpt lat="43.31897518454168" lon="12.776719516773786"><ele>551.75</ele><time>2026-04-11T10:58:54Z</time></trkpt><trkpt lat="43.31902451936839" lon="12.776568521791303"><ele>551.0</ele><time>2026-04-11T10:58:55Z</time></trkpt><trkpt lat="43.319051764509425" lon="12.776399229436812"><ele>551.0</ele><time>2026-04-11T10:58:56Z</time></trkpt><trkpt lat="43.319068561471006" lon="12.776230975156949"><ele>551.0</ele><time>2026-04-11T10:58:57Z</time></trkpt><trkpt lat="43.31909041675234" lon="12.776061505901376"><ele>551.0</ele><time>2026-04-11T10:58:58Z</time></trkpt><trkpt lat="43.319125010184166" lon="12.775882717516238"><ele>551.0</ele><time>2026-04-11T10:58:59Z</time></trkpt><trkpt lat="43.31918239898578" lon="12.775722693215739"><ele>548.75</ele><time>2026-04-11T10:59:00Z</time></trkpt><trkpt lat="43.319246275630675" lon="12.775558364385407"><ele>546.5</ele><time>2026-04-11T10:59:01Z</time></trkpt><trkpt lat="43.31930887352131" lon="12.77538716352445"><ele>544.25</ele><time>2026-04-11T10:59:02Z</time></trkpt><trkpt lat="43.3193571786974" lon="12.775206930610539"><ele>542.0</ele><time>2026-04-11T10:59:02.999Z</time></trkpt><trkpt lat="43.31938057340176" lon="12.775007251749502"><ele>541.25</ele><time>2026-04-11T10:59:03.999Z</time></trkpt><trkpt lat="43.319402363243654" lon="12.774815251899387"><ele>540.5</ele><time>2026-04-11T10:59:04.999Z</time></trkpt><trkpt lat="43.31942715822454" lon="12.774635195910445"><ele>539.75</ele><time>2026-04-11T10:59:05.999Z</time></trkpt><trkpt lat="43.31946657911289" lon="12.77448059952071"><ele>539.0</ele><time>2026-04-11T10:59:06.999Z</time></trkpt><trkpt lat="43.319520720215614" lon="12.774328839837553"><ele>538.8</ele><time>2026-04-11T10:59:07.999Z</time></trkpt><trkpt lat="43.31957420721151" lon="12.774181568025982"><ele>538.5999999999999</ele><time>2026-04-11T10:59:08.999Z</time></trkpt><trkpt lat="43.31962407248056" lon="12.774035205526767"><ele>538.4</ele><time>2026-04-11T10:59:09.999Z</time></trkpt><trkpt lat="43.319678560541035" lon="12.773922724909824"><ele>538.1999999999999</ele><time>2026-04-11T10:59:10.999Z</time></trkpt><trkpt lat="43.319737169812846" lon="12.77380525825367"><ele>538.0</ele><time>2026-04-11T10:59:11.999Z</time></trkpt><trkpt lat="43.31979830724195" lon="12.773718586408467"><ele>537.6666666666667</ele><time>2026-04-11T10:59:12.999Z</time></trkpt><trkpt lat="43.31986276476255" lon="12.773636890270424"><ele>537.3333333333334</ele><time>2026-04-11T10:59:13.999Z</time></trkpt><trkpt lat="43.31992981036082" lon="12.773547924869739"><ele>537.0</ele><time>2026-04-11T10:59:14.999Z</time></trkpt><trkpt lat="43.31999370271101" lon="12.77347091469177"><ele>536.6666666666666</ele><time>2026-04-11T10:59:15.999Z</time></trkpt><trkpt lat="43.32004141155194" lon="12.773409029358957"><ele>536.3333333333333</ele><time>2026-04-11T10:59:16.999Z</time></trkpt><trkpt lat="43.320085193010044" lon="12.77326107652299"><ele>536.0</ele><time>2026-04-11T10:59:18.999Z</time></trkpt><trkpt lat="43.32008596693103" lon="12.773166181860484"><ele>534.5</ele><time>2026-04-11T10:59:19.999Z</time></trkpt><trkpt lat="43.32001638532606" lon="12.773035032666646"><ele>533.0</ele><time>2026-04-11T10:59:21.999Z</time></trkpt><trkpt lat="43.31995707357689" lon="12.772985843407122"><ele>531.5</ele><time>2026-04-11T10:59:22.999Z</time></trkpt><trkpt lat="43.31990519287348" lon="12.772927560974377"><ele>530.0</ele><time>2026-04-11T10:59:23.999Z</time></trkpt><trkpt lat="43.31987300415299" lon="12.772781258872783"><ele>528.5</ele><time>2026-04-11T10:59:25.999Z</time></trkpt><trkpt lat="43.31991701340332" lon="12.772691620691651"><ele>527.0</ele><time>2026-04-11T10:59:27.999Z</time></trkpt><trkpt lat="43.320000303239496" lon="12.772614668078248"><ele>527.0</ele><time>2026-04-11T10:59:29.999Z</time></trkpt><trkpt lat="43.32007943597844" lon="12.772559533720871"><ele>527.0</ele><time>2026-04-11T10:59:31.999Z</time></trkpt><trkpt lat="43.32014357070935" lon="12.772446770578407"><ele>527.0</ele><time>2026-04-11T10:59:33.999Z</time></trkpt><trkpt lat="43.320166055363316" lon="12.77236209956596"><ele>527.0</ele><time>2026-04-11T10:59:34.999Z</time></trkpt><trkpt lat="43.32018679950343" lon="12.772266494878265"><ele>527.0</ele><time>2026-04-11T10:59:35.999Z</time></trkpt><trkpt lat="43.32022280416055" lon="12.772154537377459"><ele>527.0</ele><time>2026-04-11T10:59:36.999Z</time></trkpt><trkpt lat="43.32026220751518" lon="12.772032223417602"><ele>527.0</ele><time>2026-04-11T10:59:37.999Z</time></trkpt><trkpt lat="43.320305264659716" lon="12.771903495279295"><ele>527.0</ele><time>2026-04-11T10:59:38.999Z</time></trkpt><trkpt lat="43.32034158378435" lon="12.771755918752906"><ele>527.0</ele><time>2026-04-11T10:59:39.999Z</time></trkpt><trkpt lat="43.320397707478676" lon="12.77159874282391"><ele>527.0</ele><time>2026-04-11T10:59:40.999Z</time></trkpt><trkpt lat="43.32044813239104" lon="12.771414847682308"><ele>527.0</ele><time>2026-04-11T10:59:41.999Z</time></trkpt><trkpt lat="43.32050075442106" lon="12.771219606227625"><ele>527.0</ele><time>2026-04-11T10:59:42.999Z</time></trkpt><trkpt lat="43.32055181702447" lon="12.77101424795645"><ele>527.0</ele><time>2026-04-11T10:59:43.999Z</time></trkpt><trkpt lat="43.32057643653182" lon="12.770803407628097"><ele>528.0</ele><time>2026-04-11T10:59:44.999Z</time></trkpt><trkpt lat="43.320622709647594" lon="12.770588218787497"><ele>529.0</ele><time>2026-04-11T10:59:45.999Z</time></trkpt><trkpt lat="43.32064647819128" lon="12.770371198271516"><ele>530.0</ele><time>2026-04-11T10:59:46.999Z</time></trkpt><trkpt lat="43.320697009020655" lon="12.770176397740752"><ele>530.0</ele><time>2026-04-11T10:59:47.999Z</time></trkpt><trkpt lat="43.32073021713326" lon="12.76999768499654"><ele>530.0</ele><time>2026-04-11T10:59:48.999Z</time></trkpt><trkpt lat="43.3207490208047" lon="12.769807154076108"><ele>530.0</ele><time>2026-04-11T10:59:49.999Z</time></trkpt><trkpt lat="43.32078971678653" lon="12.76964849564567"><ele>530.0</ele><time>2026-04-11T10:59:50.999Z</time></trkpt><trkpt lat="43.32083105367502" lon="12.769498759295214"><ele>529.25</ele><time>2026-04-11T10:59:51.999Z</time></trkpt><trkpt lat="43.3208745590456" lon="12.769346620777512"><ele>528.5</ele><time>2026-04-11T10:59:52.999Z</time></trkpt><trkpt lat="43.32092221056611" lon="12.769177090052393"><ele>527.75</ele><time>2026-04-11T10:59:53.999Z</time></trkpt><trkpt lat="43.32094960644081" lon="12.768989526134597"><ele>527.0</ele><time>2026-04-11T10:59:54.999Z</time></trkpt><trkpt lat="43.320949006497166" lon="12.768798457493995"><ele>527.0</ele><time>2026-04-11T10:59:55.999Z</time></trkpt><trkpt lat="43.32090841222653" lon="12.768592257917872"><ele>527.0</ele><time>2026-04-11T10:59:56.999Z</time></trkpt><trkpt lat="43.32084867297238" lon="12.76838616237005"><ele>527.0</ele><time>2026-04-11T10:59:58Z</time></trkpt><trkpt lat="43.320784564804924" lon="12.768180895364027"><ele>527.0</ele><time>2026-04-11T10:59:59Z</time></trkpt><trkpt lat="43.32071818426652" lon="12.767975464535114"><ele>527.0</ele><time>2026-04-11T11:00:00Z</time></trkpt><trkpt lat="43.3206561683422" lon="12.767787762450974"><ele>527.0</ele><time>2026-04-11T11:00:01Z</time></trkpt><trkpt lat="43.32060078010389" lon="12.767596396656074"><ele>528.3333333333333</ele><time>2026-04-11T11:00:02Z</time></trkpt><trkpt lat="43.32057804118262" lon="12.767387650689352"><ele>529.6666666666666</ele><time>2026-04-11T11:00:03Z</time></trkpt><trkpt lat="43.3205568225099" lon="12.767178562165775"><ele>531.0</ele><time>2026-04-11T11:00:04Z</time></trkpt><trkpt lat="43.32052509253574" lon="12.766970101079353"><ele>525.3333333333334</ele><time>2026-04-11T11:00:05Z</time></trkpt><trkpt lat="43.32046832125263" lon="12.766768222528208"><ele>519.6666666666667</ele><time>2026-04-11T11:00:06Z</time></trkpt><trkpt lat="43.32041779183536" lon="12.766559436273829"><ele>514.0</ele><time>2026-04-11T11:00:07Z</time></trkpt><trkpt lat="43.32037467096449" lon="12.766344159612828"><ele>514.0</ele><time>2026-04-11T11:00:08Z</time></trkpt><trkpt lat="43.32034246492202" lon="12.766133733722528"><ele>514.0</ele><time>2026-04-11T11:00:09Z</time></trkpt><trkpt lat="43.320310447736816" lon="12.765921230555637"><ele>514.0</ele><time>2026-04-11T11:00:10Z</time></trkpt><trkpt lat="43.3202879657535" lon="12.765724878514657"><ele>514.0</ele><time>2026-04-11T11:00:11Z</time></trkpt><trkpt lat="43.32028934810057" lon="12.765533806279523"><ele>514.0</ele><time>2026-04-11T11:00:12Z</time></trkpt><trkpt lat="43.32031004640397" lon="12.76534630031958"><ele>514.0</ele><time>2026-04-11T11:00:13Z</time></trkpt><trkpt lat="43.320314113525235" lon="12.765162884858198"><ele>514.0</ele><time>2026-04-11T11:00:14Z</time></trkpt><trkpt lat="43.32027860307473" lon="12.76496609148196"><ele>514.0</ele><time>2026-04-11T11:00:15Z</time></trkpt><trkpt lat="43.32023747166733" lon="12.7647635074155"><ele>514.0</ele><time>2026-04-11T11:00:16Z</time></trkpt><trkpt lat="43.32020187873073" lon="12.764546666751711"><ele>514.0</ele><time>2026-04-11T11:00:17Z</time></trkpt><trkpt lat="43.32016410000779" lon="12.76434201248543"><ele>514.75</ele><time>2026-04-11T11:00:18Z</time></trkpt><trkpt lat="43.32013398243672" lon="12.764153491912534"><ele>515.5</ele><time>2026-04-11T11:00:19Z</time></trkpt><trkpt lat="43.32009294132459" lon="12.763934051852988"><ele>516.25</ele><time>2026-04-11T11:00:20Z</time></trkpt><trkpt lat="43.32005618812872" lon="12.763749256598981"><ele>517.0</ele><time>2026-04-11T11:00:21Z</time></trkpt><trkpt lat="43.3200240175736" lon="12.763610266409003"><ele>517.0</ele><time>2026-04-11T11:00:22Z</time></trkpt><trkpt lat="43.3199935904144" lon="12.763509908038037"><ele>517.0</ele><time>2026-04-11T11:00:23Z</time></trkpt><trkpt lat="43.31992923082648" lon="12.763467612410267"><ele>517.0</ele><time>2026-04-11T11:00:24Z</time></trkpt><trkpt lat="43.31984804321097" lon="12.763522907973673"><ele>517.0</ele><time>2026-04-11T11:00:25Z</time></trkpt><trkpt lat="43.31977746215642" lon="12.763546001872761"><ele>517.0</ele><time>2026-04-11T11:00:26Z</time></trkpt><trkpt lat="43.31970872995028" lon="12.763549721169616"><ele>517.0</ele><time>2026-04-11T11:00:27Z</time></trkpt><trkpt lat="43.319643780638984" lon="12.763515282260244"><ele>515.5</ele><time>2026-04-11T11:00:28Z</time></trkpt><trkpt lat="43.31958516137137" lon="12.763453636748684"><ele>514.0</ele><time>2026-04-11T11:00:29Z</time></trkpt><trkpt lat="43.31952611730466" lon="12.763383634355387"><ele>512.5</ele><time>2026-04-11T11:00:30Z</time></trkpt><trkpt lat="43.319460414214674" lon="12.763309222859087"><ele>511.0</ele><time>2026-04-11T11:00:31Z</time></trkpt><trkpt lat="43.3194151363174" lon="12.763222096679796"><ele>509.50000000000006</ele><time>2026-04-11T11:00:32Z</time></trkpt><trkpt lat="43.31936576556813" lon="12.763128274165442"><ele>508.0</ele><time>2026-04-11T11:00:33Z</time></trkpt><trkpt lat="43.31931559084396" lon="12.76303177365221"><ele>508.0</ele><time>2026-04-11T11:00:34Z</time></trkpt><trkpt lat="43.31925522225273" lon="12.762922604781746"><ele>507.99999999999994</ele><time>2026-04-11T11:00:35Z</time></trkpt><trkpt lat="43.31918618828941" lon="12.762808833072482"><ele>507.99999999999994</ele><time>2026-04-11T11:00:36Z</time></trkpt><trkpt lat="43.31911887756135" lon="12.76271646906833"><ele>508.0</ele><time>2026-04-11T11:00:37Z</time></trkpt><trkpt lat="43.31905547095561" lon="12.76260217149698"><ele>508.0</ele><time>2026-04-11T11:00:38Z</time></trkpt><trkpt lat="43.31901375196597" lon="12.76246297665629"><ele>508.2</ele><time>2026-04-11T11:00:39Z</time></trkpt><trkpt lat="43.31896169742344" lon="12.76231488748495"><ele>508.4</ele><time>2026-04-11T11:00:40Z</time></trkpt><trkpt lat="43.31890002652958" lon="12.762178758993748"><ele>508.59999999999997</ele><time>2026-04-11T11:00:41Z</time></trkpt><trkpt lat="43.31885203565565" lon="12.762070498401668"><ele>508.79999999999995</ele><time>2026-04-11T11:00:42Z</time></trkpt><trkpt lat="43.318804046869666" lon="12.761944945539419"><ele>509.0</ele><time>2026-04-11T11:00:43Z</time></trkpt><trkpt lat="43.318756350868796" lon="12.761821827187472"><ele>509.0</ele><time>2026-04-11T11:00:44Z</time></trkpt><trkpt lat="43.31870553034712" lon="12.76170545128342"><ele>509.0</ele><time>2026-04-11T11:00:45Z</time></trkpt><trkpt lat="43.31865638546919" lon="12.761594699730457"><ele>509.0</ele><time>2026-04-11T11:00:46Z</time></trkpt><trkpt lat="43.31859954873927" lon="12.76146339591587"><ele>509.0</ele><time>2026-04-11T11:00:47Z</time></trkpt><trkpt lat="43.31853460317184" lon="12.761338366913668"><ele>509.0</ele><time>2026-04-11T11:00:48Z</time></trkpt><trkpt lat="43.31850233866361" lon="12.761198424889761"><ele>508.99999999999994</ele><time>2026-04-11T11:00:49Z</time></trkpt><trkpt lat="43.31848201171239" lon="12.761065439203616"><ele>509.0</ele><time>2026-04-11T11:00:50Z</time></trkpt><trkpt lat="43.31847836845362" lon="12.76094077591436"><ele>509.0</ele><time>2026-04-11T11:00:51Z</time></trkpt><trkpt lat="43.3184931151442" lon="12.760834878531004"><ele>509.0</ele><time>2026-04-11T11:00:52Z</time></trkpt><trkpt lat="43.31852502697806" lon="12.76072347491465"><ele>508.99999999999994</ele><time>2026-04-11T11:00:53Z</time></trkpt><trkpt lat="43.31853918912503" lon="12.760603498921606"><ele>509.0</ele><time>2026-04-11T11:00:54Z</time></trkpt><trkpt lat="43.3185688207788" lon="12.760487246730975"><ele>508.49999999999994</ele><time>2026-04-11T11:00:55Z</time></trkpt><trkpt lat="43.318582373459" lon="12.760360319990994"><ele>508.0</ele><time>2026-04-11T11:00:56Z</time></trkpt><trkpt lat="43.318575332056916" lon="12.760267161262115"><ele>507.5</ele><time>2026-04-11T11:00:57Z</time></trkpt><trkpt lat="43.318571457487394" lon="12.760179025550235"><ele>507.0</ele><time>2026-04-11T11:00:59Z</time></trkpt><trkpt lat="43.31856980558102" lon="12.76006069416257"><ele>506.49999999999994</ele><time>2026-04-11T11:01:01Z</time></trkpt><trkpt lat="43.31855296903281" lon="12.759903946320476"><ele>506.0</ele><time>2026-04-11T11:01:03Z</time></trkpt><trkpt lat="43.318540331200296" lon="12.759795856958005"><ele>505.4</ele><time>2026-04-11T11:01:04Z</time></trkpt><trkpt lat="43.318538003496776" lon="12.75965951084911"><ele>504.8</ele><time>2026-04-11T11:01:05Z</time></trkpt><trkpt lat="43.31849348518769" lon="12.759521985388744"><ele>504.19999999999993</ele><time>2026-04-11T11:01:06Z</time></trkpt><trkpt lat="43.31849355052403" lon="12.759379611764288"><ele>503.59999999999997</ele><time>2026-04-11T11:01:07Z</time></trkpt><trkpt lat="43.31849655052627" lon="12.759223468260904"><ele>503.0</ele><time>2026-04-11T11:01:08Z</time></trkpt><trkpt lat="43.31846882953547" lon="12.759077936066554"><ele>502.3333333333333</ele><time>2026-04-11T11:01:09Z</time></trkpt><trkpt lat="43.3184308818714" lon="12.758955361792335"><ele>501.66666666666663</ele><time>2026-04-11T11:01:10Z</time></trkpt><trkpt lat="43.31838002072307" lon="12.758868329923937"><ele>501.0</ele><time>2026-04-11T11:01:11Z</time></trkpt><trkpt lat="43.318331683915524" lon="12.758810025282537"><ele>500.33333333333337</ele><time>2026-04-11T11:01:12Z</time></trkpt><trkpt lat="43.318268982047506" lon="12.758712025511295"><ele>499.6666666666667</ele><time>2026-04-11T11:01:14Z</time></trkpt><trkpt lat="43.318289689316956" lon="12.758592394277748"><ele>499.0</ele><time>2026-04-11T11:01:15Z</time></trkpt><trkpt lat="43.31828466577344" lon="12.758485238338505"><ele>498.5</ele><time>2026-04-11T11:01:16Z</time></trkpt><trkpt lat="43.31827249154556" lon="12.758356669404101"><ele>498.0</ele><time>2026-04-11T11:01:17Z</time></trkpt><trkpt lat="43.3182606980929" lon="12.758215064628605"><ele>497.5</ele><time>2026-04-11T11:01:18Z</time></trkpt><trkpt lat="43.3182544403338" lon="12.758060929188916"><ele>497.0</ele><time>2026-04-11T11:01:19Z</time></trkpt><trkpt lat="43.31825494418097" lon="12.757854122114166"><ele>496.66666666666663</ele><time>2026-04-11T11:01:20Z</time></trkpt><trkpt lat="43.31825480282721" lon="12.757619210163464"><ele>496.33333333333337</ele><time>2026-04-11T11:01:21Z</time></trkpt><trkpt lat="43.31826609999049" lon="12.757369596374893"><ele>496.0</ele><time>2026-04-11T11:01:22Z</time></trkpt><trkpt lat="43.31829384182869" lon="12.757132080912688"><ele>496.0</ele><time>2026-04-11T11:01:23Z</time></trkpt><trkpt lat="43.3183378253607" lon="12.756892486472259"><ele>496.0</ele><time>2026-04-11T11:01:24Z</time></trkpt><trkpt lat="43.31838528353683" lon="12.756679788959683"><ele>496.0</ele><time>2026-04-11T11:01:25Z</time></trkpt><trkpt lat="43.31842503278829" lon="12.75646844295779"><ele>495.33333333333337</ele><time>2026-04-11T11:01:26Z</time></trkpt><trkpt lat="43.318468679534725" lon="12.756266104978666"><ele>494.66666666666663</ele><time>2026-04-11T11:01:27Z</time></trkpt><trkpt lat="43.318517389889664" lon="12.756050816010484"><ele>494.0</ele><time>2026-04-11T11:01:28Z</time></trkpt><trkpt lat="43.318566220482396" lon="12.755841310982747"><ele>493.3333333333333</ele><time>2026-04-11T11:01:29Z</time></trkpt><trkpt lat="43.31861389405519" lon="12.75563619125182"><ele>492.66666666666663</ele><time>2026-04-11T11:01:30Z</time></trkpt><trkpt lat="43.31866914619152" lon="12.755439137513113"><ele>492.0</ele><time>2026-04-11T11:01:31Z</time></trkpt><trkpt lat="43.318741672269745" lon="12.755246756875403"><ele>491.66666666666663</ele><time>2026-04-11T11:01:32Z</time></trkpt><trkpt lat="43.31881954962523" lon="12.755055810994719"><ele>491.3333333333333</ele><time>2026-04-11T11:01:33Z</time></trkpt><trkpt lat="43.31890174756246" lon="12.754855461528052"><ele>491.0</ele><time>2026-04-11T11:01:34Z</time></trkpt><trkpt lat="43.318995172223296" lon="12.75464149916247"><ele>492.0</ele><time>2026-04-11T11:01:35Z</time></trkpt><trkpt lat="43.31907883936265" lon="12.754442789847907"><ele>493.0</ele><time>2026-04-11T11:01:36Z</time></trkpt><trkpt lat="43.31916333901074" lon="12.75424798168025"><ele>494.0</ele><time>2026-04-11T11:01:37Z</time></trkpt><trkpt lat="43.31925327737967" lon="12.7540762801643"><ele>494.0</ele><time>2026-04-11T11:01:38Z</time></trkpt><trkpt lat="43.319364389129056" lon="12.753921552816871"><ele>494.0</ele><time>2026-04-11T11:01:39Z</time></trkpt><trkpt lat="43.31949701668834" lon="12.753776507370693"><ele>494.0</ele><time>2026-04-11T11:01:40Z</time></trkpt><trkpt lat="43.31965999134864" lon="12.753682080365282"><ele>495.0</ele><time>2026-04-11T11:01:41Z</time></trkpt><trkpt lat="43.31981504091482" lon="12.753559142201619"><ele>496.0</ele><time>2026-04-11T11:01:42Z</time></trkpt><trkpt lat="43.319976361043636" lon="12.753463122792557"><ele>497.0</ele><time>2026-04-11T11:01:43Z</time></trkpt><trkpt lat="43.32015144363595" lon="12.753348076576108"><ele>497.0</ele><time>2026-04-11T11:01:43.999Z</time></trkpt><trkpt lat="43.320312135440076" lon="12.753237049071373"><ele>497.0</ele><time>2026-04-11T11:01:44.999Z</time></trkpt><trkpt lat="43.32048283858177" lon="12.753118787509496"><ele>497.0</ele><time>2026-04-11T11:01:45.999Z</time></trkpt><trkpt lat="43.32065213575721" lon="12.753004777144833"><ele>497.3333333333333</ele><time>2026-04-11T11:01:46.999Z</time></trkpt><trkpt lat="43.32080566054228" lon="12.752902241252713"><ele>497.66666666666663</ele><time>2026-04-11T11:01:47.999Z</time></trkpt><trkpt lat="43.32096420576985" lon="12.75276658150411"><ele>498.0</ele><time>2026-04-11T11:01:48.999Z</time></trkpt><trkpt lat="43.32110235305396" lon="12.752619107817464"><ele>498.0</ele><time>2026-04-11T11:01:49.999Z</time></trkpt><trkpt lat="43.321231593401755" lon="12.752442947808275"><ele>498.0</ele><time>2026-04-11T11:01:50.999Z</time></trkpt><trkpt lat="43.32134465345134" lon="12.752252173297197"><ele>498.0</ele><time>2026-04-11T11:01:51.999Z</time></trkpt><trkpt lat="43.321449012179436" lon="12.752059157217005"><ele>498.66666666666663</ele><time>2026-04-11T11:01:52.999Z</time></trkpt><trkpt lat="43.32155082832636" lon="12.751865978107642"><ele>499.3333333333333</ele><time>2026-04-11T11:01:53.999Z</time></trkpt><trkpt lat="43.32165330983975" lon="12.75167922749042"><ele>500.0</ele><time>2026-04-11T11:01:54.999Z</time></trkpt><trkpt lat="43.3217570132532" lon="12.751508390995319"><ele>500.0</ele><time>2026-04-11T11:01:55.999Z</time></trkpt><trkpt lat="43.321868342516204" lon="12.75133213690602"><ele>500.0</ele><time>2026-04-11T11:01:56.999Z</time></trkpt><trkpt lat="43.32198598664865" lon="12.75116702623026"><ele>500.0</ele><time>2026-04-11T11:01:57.999Z</time></trkpt><trkpt lat="43.32210797563989" lon="12.751018857910772"><ele>501.3333333333333</ele><time>2026-04-11T11:01:58.999Z</time></trkpt><trkpt lat="43.32223625533338" lon="12.750874930312397"><ele>502.66666666666663</ele><time>2026-04-11T11:01:59.999Z</time></trkpt><trkpt lat="43.322370771918266" lon="12.750739785500391"><ele>504.0</ele><time>2026-04-11T11:02:00.999Z</time></trkpt><trkpt lat="43.32249975743432" lon="12.750626166228747"><ele>504.0</ele><time>2026-04-11T11:02:01.999Z</time></trkpt><trkpt lat="43.32264317829094" lon="12.750522381558985"><ele>504.0</ele><time>2026-04-11T11:02:02.999Z</time></trkpt><trkpt lat="43.322803448722595" lon="12.750412690728284"><ele>504.0</ele><time>2026-04-11T11:02:04Z</time></trkpt><trkpt lat="43.32296911868225" lon="12.75029595990966"><ele>502.33333333333337</ele><time>2026-04-11T11:02:05Z</time></trkpt><trkpt lat="43.323128406407825" lon="12.750156373093844"><ele>500.6666666666667</ele><time>2026-04-11T11:02:06Z</time></trkpt><trkpt lat="43.32327600839625" lon="12.749982503474454"><ele>499.0</ele><time>2026-04-11T11:02:07Z</time></trkpt><trkpt lat="43.3234143473012" lon="12.749789020601737"><ele>499.0</ele><time>2026-04-11T11:02:08Z</time></trkpt><trkpt lat="43.32354429867234" lon="12.749583102764243"><ele>499.0</ele><time>2026-04-11T11:02:09Z</time></trkpt><trkpt lat="43.3236602140894" lon="12.749378975907993"><ele>499.0</ele><time>2026-04-11T11:02:10Z</time></trkpt><trkpt lat="43.323756887513106" lon="12.749182597375427"><ele>498.0</ele><time>2026-04-11T11:02:11Z</time></trkpt><trkpt lat="43.32384687028925" lon="12.74899785125262"><ele>497.0</ele><time>2026-04-11T11:02:12Z</time></trkpt><trkpt lat="43.32393405020867" lon="12.748825592394855"><ele>496.0</ele><time>2026-04-11T11:02:13Z</time></trkpt><trkpt lat="43.32401849690208" lon="12.74866087675866"><ele>494.5</ele><time>2026-04-11T11:02:14Z</time></trkpt><trkpt lat="43.32409638883207" lon="12.74850576687683"><ele>493.0</ele><time>2026-04-11T11:02:15Z</time></trkpt><trkpt lat="43.324170253555344" lon="12.748350428445645"><ele>491.5</ele><time>2026-04-11T11:02:16Z</time></trkpt><trkpt lat="43.324243777479694" lon="12.748204950041101"><ele>490.0</ele><time>2026-04-11T11:02:17Z</time></trkpt><trkpt lat="43.324313521611636" lon="12.748076261506721"><ele>490.0</ele><time>2026-04-11T11:02:18Z</time></trkpt><trkpt lat="43.32437303601624" lon="12.747958760704357"><ele>490.0</ele><time>2026-04-11T11:02:19Z</time></trkpt><trkpt lat="43.324435000092656" lon="12.74786279155904"><ele>490.0</ele><time>2026-04-11T11:02:20Z</time></trkpt><trkpt lat="43.32447973424722" lon="12.747781058704554"><ele>490.0</ele><time>2026-04-11T11:02:21Z</time></trkpt><trkpt lat="43.324456033893426" lon="12.747591178974737"><ele>490.0</ele><time>2026-04-11T11:02:23Z</time></trkpt><trkpt lat="43.32449816988062" lon="12.74750370383401"><ele>489.2</ele><time>2026-04-11T11:02:28Z</time></trkpt><trkpt lat="43.32452923719601" lon="12.74736771498562"><ele>488.4</ele><time>2026-04-11T11:05:02Z</time></trkpt><trkpt lat="43.324635874538394" lon="12.747317919115481"><ele>487.6</ele><time>2026-04-11T11:10:17.999Z</time></trkpt><trkpt lat="43.32473261931333" lon="12.747267466033401"><ele>486.8</ele><time>2026-04-11T11:10:19.999Z</time></trkpt><trkpt lat="43.324791971388144" lon="12.747205310600416"><ele>486.0</ele><time>2026-04-11T11:10:20.999Z</time></trkpt><trkpt lat="43.324853215798235" lon="12.74711503975625"><ele>486.0</ele><time>2026-04-11T11:10:21.999Z</time></trkpt><trkpt lat="43.32491297754098" lon="12.747013871596154"><ele>486.0</ele><time>2026-04-11T11:10:22.999Z</time></trkpt><trkpt lat="43.32497549673847" lon="12.746910997788866"><ele>486.0</ele><time>2026-04-11T11:10:23.999Z</time></trkpt><trkpt lat="43.325034697777006" lon="12.746812394903671"><ele>486.0</ele><time>2026-04-11T11:10:24.999Z</time></trkpt><trkpt lat="43.32510831530969" lon="12.746686694799577"><ele>486.0</ele><time>2026-04-11T11:10:25.999Z</time></trkpt><trkpt lat="43.32519679692489" lon="12.746516974466164"><ele>485.25</ele><time>2026-04-11T11:10:26.999Z</time></trkpt><trkpt lat="43.325277302146404" lon="12.746365740358105"><ele>484.5</ele><time>2026-04-11T11:10:28Z</time></trkpt><trkpt lat="43.32533201043213" lon="12.746230830974373"><ele>483.75</ele><time>2026-04-11T11:10:29Z</time></trkpt><trkpt lat="43.32538833612376" lon="12.746092922994437"><ele>483.0</ele><time>2026-04-11T11:10:30Z</time></trkpt><trkpt lat="43.32543772061909" lon="12.745960491310308"><ele>482.79999999999995</ele><time>2026-04-11T11:10:31Z</time></trkpt><trkpt lat="43.32548244933133" lon="12.745834325000374"><ele>482.59999999999997</ele><time>2026-04-11T11:10:32Z</time></trkpt><trkpt lat="43.32552317431795" lon="12.74571452282204"><ele>482.40000000000003</ele><time>2026-04-11T11:10:33Z</time></trkpt><trkpt lat="43.325560435995804" lon="12.745601678501579"><ele>482.20000000000005</ele><time>2026-04-11T11:10:34Z</time></trkpt><trkpt lat="43.32560248115364" lon="12.74548722631665"><ele>482.0</ele><time>2026-04-11T11:10:35Z</time></trkpt><trkpt lat="43.32565223406311" lon="12.745366346498846"><ele>484.0</ele><time>2026-04-11T11:10:36Z</time></trkpt><trkpt lat="43.32570983467148" lon="12.74523996501129"><ele>486.00000000000006</ele><time>2026-04-11T11:10:37Z</time></trkpt><trkpt lat="43.325776028800654" lon="12.745120052527279"><ele>488.00000000000006</ele><time>2026-04-11T11:10:38Z</time></trkpt><trkpt lat="43.32584956870077" lon="12.745005373353797"><ele>490.0</ele><time>2026-04-11T11:10:39Z</time></trkpt><trkpt lat="43.3259247900645" lon="12.744910287220954"><ele>492.0</ele><time>2026-04-11T11:10:40Z</time></trkpt><trkpt lat="43.32600626536803" lon="12.744835429715648"><ele>492.0</ele><time>2026-04-11T11:10:41Z</time></trkpt><trkpt lat="43.32609990815689" lon="12.7447850724567"><ele>492.00000000000006</ele><time>2026-04-11T11:10:42Z</time></trkpt><trkpt lat="43.326194762319474" lon="12.744759579316888"><ele>492.00000000000006</ele><time>2026-04-11T11:10:43Z</time></trkpt><trkpt lat="43.32628466347525" lon="12.744741181801995"><ele>492.0</ele><time>2026-04-11T11:10:44Z</time></trkpt><trkpt lat="43.32637902650317" lon="12.744719610151082"><ele>492.0</ele><time>2026-04-11T11:10:45Z</time></trkpt><trkpt lat="43.32647503159179" lon="12.744698262277144"><ele>492.8</ele><time>2026-04-11T11:10:46Z</time></trkpt><trkpt lat="43.326576304505394" lon="12.744680757439607"><ele>493.6</ele><time>2026-04-11T11:10:47Z</time></trkpt><trkpt lat="43.32667899874563" lon="12.744665197148986"><ele>494.40000000000003</ele><time>2026-04-11T11:10:48Z</time></trkpt><trkpt lat="43.32678824583696" lon="12.744650348400048"><ele>495.20000000000005</ele><time>2026-04-11T11:10:49Z</time></trkpt><trkpt lat="43.32690055725744" lon="12.744633972657141"><ele>496.0</ele><time>2026-04-11T11:10:50Z</time></trkpt><trkpt lat="43.32700825898641" lon="12.744616029356173"><ele>496.0</ele><time>2026-04-11T11:10:51Z</time></trkpt><trkpt lat="43.32711150623259" lon="12.744597974686078"><ele>496.0</ele><time>2026-04-11T11:10:52Z</time></trkpt><trkpt lat="43.32721657825543" lon="12.744578144965942"><ele>496.0</ele><time>2026-04-11T11:10:53Z</time></trkpt><trkpt lat="43.32732489141269" lon="12.744556589281713"><ele>496.0</ele><time>2026-04-11T11:10:54Z</time></trkpt><trkpt lat="43.32743757133635" lon="12.744535854098217"><ele>496.0</ele><time>2026-04-11T11:10:55Z</time></trkpt><trkpt lat="43.327554192288815" lon="12.744515871073308"><ele>496.25</ele><time>2026-04-11T11:10:56Z</time></trkpt><trkpt lat="43.32767577949022" lon="12.744501048412651"><ele>496.5</ele><time>2026-04-11T11:10:57Z</time></trkpt><trkpt lat="43.327799560231306" lon="12.744487886994019"><ele>496.75</ele><time>2026-04-11T11:10:58Z</time></trkpt><trkpt lat="43.32792735697038" lon="12.744475131881217"><ele>497.0</ele><time>2026-04-11T11:10:59Z</time></trkpt><trkpt lat="43.328063891607506" lon="12.744465197638641"><ele>496.0</ele><time>2026-04-11T11:11:00Z</time></trkpt><trkpt lat="43.328208409779016" lon="12.744459120708848"><ele>495.0</ele><time>2026-04-11T11:11:01Z</time></trkpt><trkpt lat="43.3283559972743" lon="12.74446128824585"><ele>494.0</ele><time>2026-04-11T11:11:02Z</time></trkpt><trkpt lat="43.32850371385948" lon="12.744482193883162"><ele>493.0</ele><time>2026-04-11T11:11:03Z</time></trkpt><trkpt lat="43.32865911367567" lon="12.744510718191542"><ele>493.0</ele><time>2026-04-11T11:11:04Z</time></trkpt><trkpt lat="43.32880691035562" lon="12.74453839008023"><ele>493.0</ele><time>2026-04-11T11:11:05Z</time></trkpt><trkpt lat="43.32895270457489" lon="12.744561922515592"><ele>493.0</ele><time>2026-04-11T11:11:06Z</time></trkpt><trkpt lat="43.329093037538954" lon="12.744578896217174"><ele>493.0</ele><time>2026-04-11T11:11:07Z</time></trkpt><trkpt lat="43.32922835113779" lon="12.7445773538729"><ele>490.25</ele><time>2026-04-11T11:11:08Z</time></trkpt><trkpt lat="43.32936002719419" lon="12.744540552034287"><ele>487.5</ele><time>2026-04-11T11:11:09Z</time></trkpt><trkpt lat="43.32948524247799" lon="12.744452999752896"><ele>484.75</ele><time>2026-04-11T11:11:10Z</time></trkpt><trkpt lat="43.329604265534904" lon="12.744334779145598"><ele>482.0</ele><time>2026-04-11T11:11:11Z</time></trkpt><trkpt lat="43.329717225979664" lon="12.74422159233422"><ele>481.75</ele><time>2026-04-11T11:11:12Z</time></trkpt><trkpt lat="43.329834074623285" lon="12.744124763441443"><ele>481.5</ele><time>2026-04-11T11:11:13Z</time></trkpt><trkpt lat="43.32993547826985" lon="12.744016263401774"><ele>481.25</ele><time>2026-04-11T11:11:14Z</time></trkpt><trkpt lat="43.33001491626276" lon="12.743902325209943"><ele>481.0</ele><time>2026-04-11T11:11:15Z</time></trkpt><trkpt lat="43.33010231569367" lon="12.743810593818068"><ele>481.0</ele><time>2026-04-11T11:11:16Z</time></trkpt><trkpt lat="43.3301903136068" lon="12.743718787167268"><ele>481.0</ele><time>2026-04-11T11:11:17Z</time></trkpt><trkpt lat="43.3302769438901" lon="12.743627861358675"><ele>481.0</ele><time>2026-04-11T11:11:18Z</time></trkpt><trkpt lat="43.330366207115" lon="12.743533403793323"><ele>481.0</ele><time>2026-04-11T11:11:19Z</time></trkpt><trkpt lat="43.33045917380964" lon="12.743440192635255"><ele>481.0</ele><time>2026-04-11T11:11:20Z</time></trkpt><trkpt lat="43.33054685964633" lon="12.743352066726443"><ele>480.4</ele><time>2026-04-11T11:11:21Z</time></trkpt><trkpt lat="43.33063218197226" lon="12.743267453667778"><ele>479.8</ele><time>2026-04-11T11:11:22Z</time></trkpt><trkpt lat="43.33071832269667" lon="12.743187398647454"><ele>479.19999999999993</ele><time>2026-04-11T11:11:23Z</time></trkpt><trkpt lat="43.3308046565164" lon="12.743104898541414"><ele>478.59999999999997</ele><time>2026-04-11T11:11:24Z</time></trkpt><trkpt lat="43.33088626295426" lon="12.74302652954974"><ele>478.0</ele><time>2026-04-11T11:11:25Z</time></trkpt><trkpt lat="43.33096805935218" lon="12.7429518519382"><ele>478.00000000000006</ele><time>2026-04-11T11:11:26Z</time></trkpt><trkpt lat="43.33104096586913" lon="12.74286851465272"><ele>478.0</ele><time>2026-04-11T11:11:27Z</time></trkpt><trkpt lat="43.331100412206204" lon="12.742771041939022"><ele>478.0</ele><time>2026-04-11T11:11:28Z</time></trkpt><trkpt lat="43.33114556828745" lon="12.742662828355442"><ele>478.0</ele><time>2026-04-11T11:11:29Z</time></trkpt><trkpt lat="43.331178117883006" lon="12.74255350508938"><ele>478.00000000000006</ele><time>2026-04-11T11:11:30Z</time></trkpt><trkpt lat="43.3312014207705" lon="12.742444364944532"><ele>478.0</ele><time>2026-04-11T11:11:31Z</time></trkpt><trkpt lat="43.33121486988255" lon="12.742331551452695"><ele>478.1666666666667</ele><time>2026-04-11T11:11:31.999Z</time></trkpt><trkpt lat="43.33121572800814" lon="12.742221177869755"><ele>478.33333333333337</ele><time>2026-04-11T11:11:32.999Z</time></trkpt><trkpt lat="43.33121583088727" lon="12.74210774137994"><ele>478.5</ele><time>2026-04-11T11:11:33.999Z</time></trkpt><trkpt lat="43.33121744351503" lon="12.741982571787455"><ele>478.66666666666663</ele><time>2026-04-11T11:11:34.999Z</time></trkpt><trkpt lat="43.331218692848005" lon="12.741861336478355"><ele>478.8333333333333</ele><time>2026-04-11T11:11:35.999Z</time></trkpt><trkpt lat="43.33121946893891" lon="12.74173681293174"><ele>479.0</ele><time>2026-04-11T11:11:36.999Z</time></trkpt><trkpt lat="43.331220421132286" lon="12.741610345340048"><ele>479.8333333333333</ele><time>2026-04-11T11:11:37.999Z</time></trkpt><trkpt lat="43.3312192848197" lon="12.741491933651774"><ele>480.66666666666663</ele><time>2026-04-11T11:11:38.999Z</time></trkpt><trkpt lat="43.331221281206446" lon="12.741368965650965"><ele>481.5</ele><time>2026-04-11T11:11:39.999Z</time></trkpt><trkpt lat="43.3312287282903" lon="12.741243508772863"><ele>482.33333333333337</ele><time>2026-04-11T11:11:40.999Z</time></trkpt><trkpt lat="43.33124018052994" lon="12.741130350469614"><ele>483.1666666666667</ele><time>2026-04-11T11:11:41.999Z</time></trkpt><trkpt lat="43.33127643494032" lon="12.741033184815103"><ele>484.0</ele><time>2026-04-11T11:11:42.999Z</time></trkpt><trkpt lat="43.331316852747804" lon="12.740943313443845"><ele>484.33333333333337</ele><time>2026-04-11T11:11:43.999Z</time></trkpt><trkpt lat="43.33136363613103" lon="12.740857683095024"><ele>484.6666666666667</ele><time>2026-04-11T11:11:44.999Z</time></trkpt><trkpt lat="43.33141433827911" lon="12.740769797910673"><ele>485.0</ele><time>2026-04-11T11:11:45.999Z</time></trkpt><trkpt lat="43.33145970637751" lon="12.740688332979685"><ele>485.33333333333337</ele><time>2026-04-11T11:11:46.999Z</time></trkpt><trkpt lat="43.33150404535647" lon="12.740608716013856"><ele>485.6666666666667</ele><time>2026-04-11T11:11:47.999Z</time></trkpt><trkpt lat="43.331559327025225" lon="12.740512474405895"><ele>486.0</ele><time>2026-04-11T11:11:48.999Z</time></trkpt><trkpt lat="43.331616348895444" lon="12.740413018600213"><ele>487.0</ele><time>2026-04-11T11:11:49.999Z</time></trkpt><trkpt lat="43.33166705710085" lon="12.740297382248405"><ele>488.0</ele><time>2026-04-11T11:11:50.999Z</time></trkpt><trkpt lat="43.33172937795752" lon="12.740187256043813"><ele>489.0</ele><time>2026-04-11T11:11:51.999Z</time></trkpt><trkpt lat="43.33179228613224" lon="12.740076197279073"><ele>490.0</ele><time>2026-04-11T11:11:52.999Z</time></trkpt><trkpt lat="43.33185305420882" lon="12.739976163148855"><ele>491.0</ele><time>2026-04-11T11:11:53.999Z</time></trkpt><trkpt lat="43.33190561577927" lon="12.739882250784945"><ele>490.99999999999994</ele><time>2026-04-11T11:11:54.999Z</time></trkpt><trkpt lat="43.33196314432009" lon="12.739792537381511"><ele>491.0</ele><time>2026-04-11T11:11:55.999Z</time></trkpt><trkpt lat="43.33201794230942" lon="12.739709328405656"><ele>491.0</ele><time>2026-04-11T11:11:56.999Z</time></trkpt><trkpt lat="43.332075638840585" lon="12.739626268189658"><ele>491.0</ele><time>2026-04-11T11:11:57.999Z</time></trkpt><trkpt lat="43.332132080216894" lon="12.739544082839314"><ele>490.99999999999994</ele><time>2026-04-11T11:11:58.999Z</time></trkpt><trkpt lat="43.332177653078354" lon="12.739478800210176"><ele>491.0</ele><time>2026-04-11T11:11:59.999Z</time></trkpt><trkpt lat="43.332221517427904" lon="12.739413876951055"><ele>491.0</ele><time>2026-04-11T11:12:00.999Z</time></trkpt><trkpt lat="43.33228985031695" lon="12.739298660994438"><ele>492.0</ele><time>2026-04-11T11:12:02.999Z</time></trkpt><trkpt lat="43.33234088496522" lon="12.739245222944005"><ele>492.0</ele><time>2026-04-11T11:12:04.999Z</time></trkpt><trkpt lat="43.33240355580409" lon="12.739321029906598"><ele>492.0</ele><time>2026-04-11T11:12:07.999Z</time></trkpt><trkpt lat="43.33245431107523" lon="12.739402187859945"><ele>495.0</ele><time>2026-04-11T11:12:12.999Z</time></trkpt><trkpt lat="43.33245431107523" lon="12.739402187859945"><ele>495.0</ele><time>2026-04-11T11:12:12.999Z</time></trkpt><trkpt lat="43.33245431107523" lon="12.739402187859945"><ele>495.0</ele><time>2026-04-11T11:12:12.999Z</time></trkpt></trkseg><trkseg><trkpt lat="43.33240176587616" lon="12.739330197750514"><ele>492.0</ele><time>2026-04-11T13:19:35.999Z</time></trkpt><trkpt lat="43.33234794723778" lon="12.73926866134866"><ele>492.0</ele><time>2026-04-11T13:20:14Z</time></trkpt><trkpt lat="43.33228285195185" lon="12.73931070848254"><ele>492.0</ele><time>2026-04-11T13:20:17Z</time></trkpt><trkpt lat="43.33222552361173" lon="12.739390271586698"><ele>492.0</ele><time>2026-04-11T13:20:19Z</time></trkpt><trkpt lat="43.33215896663246" lon="12.739458086648542"><ele>492.0</ele><time>2026-04-11T13:20:21Z</time></trkpt><trkpt lat="43.33208595417668" lon="12.739544343293973"><ele>492.0</ele><time>2026-04-11T13:20:23Z</time></trkpt><trkpt lat="43.33202658589338" lon="12.739630668578942"><ele>491.8</ele><time>2026-04-11T13:20:25Z</time></trkpt><trkpt lat="43.33196371616975" lon="12.739741825953791"><ele>491.6</ele><time>2026-04-11T13:20:27Z</time></trkpt><trkpt lat="43.33190463952006" lon="12.739839379727792"><ele>491.40000000000003</ele><time>2026-04-11T13:20:29Z</time></trkpt><trkpt lat="43.3318388782359" lon="12.739954322532606"><ele>491.20000000000005</ele><time>2026-04-11T13:20:31Z</time></trkpt><trkpt lat="43.33177633365172" lon="12.740059797395425"><ele>491.0</ele><time>2026-04-11T13:20:33Z</time></trkpt><trkpt lat="43.33171605408626" lon="12.740156885820795"><ele>492.25</ele><time>2026-04-11T13:20:35Z</time></trkpt><trkpt lat="43.33164741284585" lon="12.740277299681882"><ele>493.5</ele><time>2026-04-11T13:20:37Z</time></trkpt><trkpt lat="43.33157711579717" lon="12.740399133002194"><ele>494.75</ele><time>2026-04-11T13:20:39Z</time></trkpt><trkpt lat="43.331505676027454" lon="12.740532599281522"><ele>496.0</ele><time>2026-04-11T13:20:41Z</time></trkpt><trkpt lat="43.331430355181226" lon="12.74066897571584"><ele>493.5</ele><time>2026-04-11T13:20:43Z</time></trkpt><trkpt lat="43.33135817385872" lon="12.740805737685532"><ele>491.0</ele><time>2026-04-11T13:20:45Z</time></trkpt><trkpt lat="43.33129511288855" lon="12.740918237225658"><ele>488.5</ele><time>2026-04-11T13:20:47Z</time></trkpt><trkpt lat="43.33123939047694" lon="12.741069424018505"><ele>486.0</ele><time>2026-04-11T13:20:49Z</time></trkpt><trkpt lat="43.331213625900105" lon="12.741229174461639"><ele>485.6</ele><time>2026-04-11T13:20:51Z</time></trkpt><trkpt lat="43.33120565387853" lon="12.741317992488607"><ele>485.20000000000005</ele><time>2026-04-11T13:20:52Z</time></trkpt><trkpt lat="43.33120017020566" lon="12.74141080819799"><ele>484.79999999999995</ele><time>2026-04-11T13:20:53Z</time></trkpt><trkpt lat="43.331202291535476" lon="12.741577480810472"><ele>484.4</ele><time>2026-04-11T13:20:55Z</time></trkpt><trkpt lat="43.331205477413654" lon="12.741731137816526"><ele>484.0</ele><time>2026-04-11T13:20:56.999Z</time></trkpt><trkpt lat="43.3312040617466" lon="12.741896285409426"><ele>483.0</ele><time>2026-04-11T13:20:58.999Z</time></trkpt><trkpt lat="43.33120426025966" lon="12.741992459594714"><ele>482.0</ele><time>2026-04-11T13:20:59.999Z</time></trkpt><trkpt lat="43.33120083699049" lon="12.742150408128602"><ele>481.0</ele><time>2026-04-11T13:21:01.999Z</time></trkpt><trkpt lat="43.331193550437455" lon="12.742295645319016"><ele>480.0</ele><time>2026-04-11T13:21:03.999Z</time></trkpt><trkpt lat="43.33117648327784" lon="12.742404241290373"><ele>479.0</ele><time>2026-04-11T13:21:05.999Z</time></trkpt><trkpt lat="43.33115761182928" lon="12.742520302018265"><ele>478.99999999999994</ele><time>2026-04-11T13:21:08.999Z</time></trkpt><trkpt lat="43.3311411877054" lon="12.742639308524067"><ele>479.0</ele><time>2026-04-11T13:21:11.999Z</time></trkpt><trkpt lat="43.33109481910539" lon="12.742718998996914"><ele>479.0</ele><time>2026-04-11T13:21:14.999Z</time></trkpt><trkpt lat="43.33113553510209" lon="12.742610858885373"><ele>479.0</ele><time>2026-04-11T13:21:23.999Z</time></trkpt><trkpt lat="43.331199581224425" lon="12.742584683894462"><ele>478.99999999999994</ele><time>2026-04-11T13:21:24.999Z</time></trkpt><trkpt lat="43.33121209973135" lon="12.742471138447009"><ele>479.0</ele><time>2026-04-11T13:21:26.999Z</time></trkpt><trkpt lat="43.33122822348228" lon="12.742316193896409"><ele>479.0</ele><time>2026-04-11T13:21:28.999Z</time></trkpt><trkpt lat="43.331229716017646" lon="12.742163761373924"><ele>479.0</ele><time>2026-04-11T13:21:30.999Z</time></trkpt><trkpt lat="43.33122810834122" lon="12.741987702473109"><ele>479.0</ele><time>2026-04-11T13:21:32.999Z</time></trkpt><trkpt lat="43.3312235206257" lon="12.741827967719521"><ele>479.0</ele><time>2026-04-11T13:21:34.999Z</time></trkpt><trkpt lat="43.3312232664162" lon="12.741733570868668"><ele>479.0</ele><time>2026-04-11T13:21:35.999Z</time></trkpt><trkpt lat="43.331225645154184" lon="12.741630374129162"><ele>480.0</ele><time>2026-04-11T13:21:36.999Z</time></trkpt><trkpt lat="43.33122806324028" lon="12.741530765210257"><ele>481.0</ele><time>2026-04-11T13:21:37.999Z</time></trkpt><trkpt lat="43.33122529387236" lon="12.741370674551252"><ele>482.0</ele><time>2026-04-11T13:21:39.999Z</time></trkpt><trkpt lat="43.331226832410955" lon="12.741203694476404"><ele>483.0</ele><time>2026-04-11T13:21:41.999Z</time></trkpt><trkpt lat="43.33125136425289" lon="12.741074150919031"><ele>484.0</ele><time>2026-04-11T13:21:43.999Z</time></trkpt><trkpt lat="43.3312880339096" lon="12.740985073366723"><ele>484.4</ele><time>2026-04-11T13:21:45.999Z</time></trkpt><trkpt lat="43.33136652714373" lon="12.740934588850324"><ele>484.79999999999995</ele><time>2026-04-11T13:21:54.999Z</time></trkpt><trkpt lat="43.331425422031984" lon="12.7409660915349"><ele>485.20000000000005</ele><time>2026-04-11T13:21:56.999Z</time></trkpt><trkpt lat="43.33149270723373" lon="12.741054428312545"><ele>485.6</ele><time>2026-04-11T13:21:58.999Z</time></trkpt><trkpt lat="43.33157342842959" lon="12.741149835755332"><ele>486.0</ele><time>2026-04-11T13:22:00.999Z</time></trkpt><trkpt lat="43.33166272495648" lon="12.741242917266339"><ele>487.5</ele><time>2026-04-11T13:22:02.999Z</time></trkpt><trkpt lat="43.33176384286467" lon="12.741353678690803"><ele>489.0</ele><time>2026-04-11T13:22:04.999Z</time></trkpt><trkpt lat="43.331820073553004" lon="12.741399872446877"><ele>490.5</ele><time>2026-04-11T13:22:05.999Z</time></trkpt><trkpt lat="43.331918517293666" lon="12.741494838663396"><ele>492.0</ele><time>2026-04-11T13:22:07.999Z</time></trkpt><trkpt lat="43.33197464600358" lon="12.741548059101767"><ele>493.5</ele><time>2026-04-11T13:22:08.999Z</time></trkpt><trkpt lat="43.33202852663494" lon="12.741599734213155"><ele>495.0</ele><time>2026-04-11T13:22:09.999Z</time></trkpt><trkpt lat="43.332083211184795" lon="12.741659907142527"><ele>494.99999999999994</ele><time>2026-04-11T13:22:10.999Z</time></trkpt><trkpt lat="43.33213720100747" lon="12.741722728914402"><ele>495.0</ele><time>2026-04-11T13:22:11.999Z</time></trkpt><trkpt lat="43.332184654000834" lon="12.741780901668317"><ele>494.99999999999994</ele><time>2026-04-11T13:22:12.999Z</time></trkpt><trkpt lat="43.33223810782193" lon="12.741830226132912"><ele>494.99999999999994</ele><time>2026-04-11T13:22:13.999Z</time></trkpt><trkpt lat="43.332294752736544" lon="12.74189286944675"><ele>495.0</ele><time>2026-04-11T13:22:14.999Z</time></trkpt><trkpt lat="43.33234225317272" lon="12.74195657683074"><ele>494.99999999999994</ele><time>2026-04-11T13:22:15.999Z</time></trkpt><trkpt lat="43.33239274967334" lon="12.742016708884309"><ele>494.99999999999994</ele><time>2026-04-11T13:22:16.999Z</time></trkpt><trkpt lat="43.33244821679263" lon="12.742072343428816"><ele>496.0</ele><time>2026-04-11T13:22:17.999Z</time></trkpt><trkpt lat="43.33250516273373" lon="12.742123217194907"><ele>497.0</ele><time>2026-04-11T13:22:18.999Z</time></trkpt><trkpt lat="43.332363735504366" lon="12.742447033213214"><ele>498.0</ele><time>2026-04-11T13:22:19.999Z</time></trkpt><trkpt lat="43.3324486917664" lon="12.742556459403849"><ele>498.0</ele><time>2026-04-11T13:22:21.999Z</time></trkpt><trkpt lat="43.33270213524506" lon="12.742308244561393"><ele>498.0</ele><time>2026-04-11T13:22:22.999Z</time></trkpt><trkpt lat="43.33278933110705" lon="12.74243320963758"><ele>498.0</ele><time>2026-04-11T13:22:25Z</time></trkpt><trkpt lat="43.33280944508255" lon="12.742529058905374"><ele>498.0</ele><time>2026-04-11T13:22:26Z</time></trkpt><trkpt lat="43.33285699455853" lon="12.742609471170894"><ele>497.99999999999994</ele><time>2026-04-11T13:22:27Z</time></trkpt><trkpt lat="43.33291076527147" lon="12.742701383570273"><ele>497.99999999999994</ele><time>2026-04-11T13:22:28Z</time></trkpt><trkpt lat="43.332971327500715" lon="12.742809703092014"><ele>498.0</ele><time>2026-04-11T13:22:29Z</time></trkpt><trkpt lat="43.33304044800708" lon="12.742930910822254"><ele>498.0</ele><time>2026-04-11T13:22:30Z</time></trkpt><trkpt lat="43.33311375510042" lon="12.743053920640513"><ele>499.5</ele><time>2026-04-11T13:22:31Z</time></trkpt><trkpt lat="43.333186767929945" lon="12.743174523993183"><ele>501.0</ele><time>2026-04-11T13:22:32Z</time></trkpt><trkpt lat="43.33326278886832" lon="12.743299100776683"><ele>502.5</ele><time>2026-04-11T13:22:33Z</time></trkpt><trkpt lat="43.33333765251315" lon="12.743421781047605"><ele>504.0</ele><time>2026-04-11T13:22:34Z</time></trkpt><trkpt lat="43.33342393739083" lon="12.74354190362242"><ele>501.5</ele><time>2026-04-11T13:22:35Z</time></trkpt><trkpt lat="43.33350770207669" lon="12.743655480227046"><ele>499.0</ele><time>2026-04-11T13:22:36Z</time></trkpt><trkpt lat="43.33359523578034" lon="12.743774167181655"><ele>496.5</ele><time>2026-04-11T13:22:37Z</time></trkpt><trkpt lat="43.33368392454816" lon="12.743889508239084"><ele>494.0</ele><time>2026-04-11T13:22:38Z</time></trkpt><trkpt lat="43.33377344907289" lon="12.744004723046576"><ele>494.0</ele><time>2026-04-11T13:22:39Z</time></trkpt><trkpt lat="43.33386305474102" lon="12.744123350005552"><ele>494.0</ele><time>2026-04-11T13:22:40Z</time></trkpt><trkpt lat="43.333962116631376" lon="12.744235620581096"><ele>494.0</ele><time>2026-04-11T13:22:41Z</time></trkpt><trkpt lat="43.33405105343015" lon="12.744366348411292"><ele>494.0</ele><time>2026-04-11T13:22:42Z</time></trkpt><trkpt lat="43.334127330391425" lon="12.744514410841212"><ele>497.0</ele><time>2026-04-11T13:22:43Z</time></trkpt><trkpt lat="43.334220380265066" lon="12.744642825638959"><ele>500.0</ele><time>2026-04-11T13:22:44Z</time></trkpt><trkpt lat="43.33430150973116" lon="12.74476333264286"><ele>503.0</ele><time>2026-04-11T13:22:45Z</time></trkpt><trkpt lat="43.334361613135464" lon="12.744890684781069"><ele>506.0</ele><time>2026-04-11T13:22:46Z</time></trkpt><trkpt lat="43.334402938802874" lon="12.745009471210473"><ele>506.0</ele><time>2026-04-11T13:22:47Z</time></trkpt><trkpt lat="43.33444133717047" lon="12.745126823617134"><ele>506.0</ele><time>2026-04-11T13:22:48Z</time></trkpt><trkpt lat="43.3344955623573" lon="12.745242386198335"><ele>506.0</ele><time>2026-04-11T13:22:49Z</time></trkpt><trkpt lat="43.33454112589224" lon="12.74538197935303"><ele>506.0</ele><time>2026-04-11T13:22:50Z</time></trkpt><trkpt lat="43.3345934424748" lon="12.745529326439563"><ele>506.0</ele><time>2026-04-11T13:22:51Z</time></trkpt><trkpt lat="43.3346489156761" lon="12.745675336885919"><ele>505.20000000000005</ele><time>2026-04-11T13:22:52Z</time></trkpt><trkpt lat="43.33469672506004" lon="12.745803767310473"><ele>504.40000000000003</ele><time>2026-04-11T13:22:53Z</time></trkpt><trkpt lat="43.33476088464484" lon="12.745902452381308"><ele>503.6</ele><time>2026-04-11T13:22:53.999Z</time></trkpt><trkpt lat="43.33484395699996" lon="12.745967180332311"><ele>502.8</ele><time>2026-04-11T13:22:54.999Z</time></trkpt><trkpt lat="43.33493999284895" lon="12.745982428972209"><ele>502.0</ele><time>2026-04-11T13:22:55.999Z</time></trkpt><trkpt lat="43.335027266499615" lon="12.745966313752152"><ele>503.00000000000006</ele><time>2026-04-11T13:22:56.999Z</time></trkpt><trkpt lat="43.33509721201543" lon="12.745981766970901"><ele>504.0</ele><time>2026-04-11T13:22:57.999Z</time></trkpt><trkpt lat="43.33521138967236" lon="12.74597852004908"><ele>505.0</ele><time>2026-04-11T13:22:59.999Z</time></trkpt><trkpt lat="43.33528572409941" lon="12.745970942115447"><ele>506.0</ele><time>2026-04-11T13:23:01.999Z</time></trkpt><trkpt lat="43.335347551118446" lon="12.7459897628196"><ele>507.00000000000006</ele><time>2026-04-11T13:23:04.999Z</time></trkpt><trkpt lat="43.33541500745603" lon="12.74602935621179"><ele>508.0</ele><time>2026-04-11T13:23:16.999Z</time></trkpt><trkpt lat="43.33552089114802" lon="12.74606429004999"><ele>508.33333333333337</ele><time>2026-04-11T13:23:18.999Z</time></trkpt><trkpt lat="43.33559271230045" lon="12.746087985761742"><ele>508.6666666666667</ele><time>2026-04-11T13:23:19.999Z</time></trkpt><trkpt lat="43.335670443490166" lon="12.746090636999423"><ele>509.0</ele><time>2026-04-11T13:23:20.999Z</time></trkpt><trkpt lat="43.335755754807735" lon="12.746125999512465"><ele>509.33333333333337</ele><time>2026-04-11T13:23:21.999Z</time></trkpt><trkpt lat="43.33584519282537" lon="12.746162621947466"><ele>509.6666666666667</ele><time>2026-04-11T13:23:22.999Z</time></trkpt><trkpt lat="43.335927782347824" lon="12.746198644210738"><ele>510.0</ele><time>2026-04-11T13:23:23.999Z</time></trkpt><trkpt lat="43.336019057773164" lon="12.746245451109688"><ele>510.0</ele><time>2026-04-11T13:23:24.999Z</time></trkpt><trkpt lat="43.33610566993322" lon="12.746330349733912"><ele>510.0</ele><time>2026-04-11T13:23:25.999Z</time></trkpt><trkpt lat="43.33620230628411" lon="12.746407163092137"><ele>510.0</ele><time>2026-04-11T13:23:26.999Z</time></trkpt><trkpt lat="43.33630140735612" lon="12.746449982956898"><ele>510.0</ele><time>2026-04-11T13:23:27.999Z</time></trkpt><trkpt lat="43.33640050674614" lon="12.746515792118382"><ele>510.0</ele><time>2026-04-11T13:23:28.999Z</time></trkpt><trkpt lat="43.33651091470654" lon="12.74657490247951"><ele>512.0</ele><time>2026-04-11T13:23:29.999Z</time></trkpt><trkpt lat="43.336632225317565" lon="12.74663376722056"><ele>514.0</ele><time>2026-04-11T13:23:30.999Z</time></trkpt><trkpt lat="43.336752860780486" lon="12.746698275769837"><ele>516.0</ele><time>2026-04-11T13:23:31.999Z</time></trkpt><trkpt lat="43.3368675308676" lon="12.746750059380094"><ele>518.0</ele><time>2026-04-11T13:23:32.999Z</time></trkpt><trkpt lat="43.33698544641482" lon="12.746789788828334"><ele>518.0</ele><time>2026-04-11T13:23:33.999Z</time></trkpt><trkpt lat="43.33710434466581" lon="12.746842505914735"><ele>518.0</ele><time>2026-04-11T13:23:34.999Z</time></trkpt><trkpt lat="43.33721356004844" lon="12.746886692376355"><ele>518.0</ele><time>2026-04-11T13:23:35.999Z</time></trkpt><trkpt lat="43.33731523557592" lon="12.746946189019532"><ele>518.0</ele><time>2026-04-11T13:23:36.999Z</time></trkpt><trkpt lat="43.33741785518801" lon="12.747035135152478"><ele>519.0</ele><time>2026-04-11T13:23:37.999Z</time></trkpt><trkpt lat="43.33752939035636" lon="12.747119918648501"><ele>520.0</ele><time>2026-04-11T13:23:38.999Z</time></trkpt><trkpt lat="43.3376232457483" lon="12.747238399010252"><ele>521.0</ele><time>2026-04-11T13:23:39.999Z</time></trkpt><trkpt lat="43.337717754176545" lon="12.747369298065811"><ele>522.0</ele><time>2026-04-11T13:23:40.999Z</time></trkpt><trkpt lat="43.3378135323797" lon="12.747504424469684"><ele>522.0</ele><time>2026-04-11T13:23:41.999Z</time></trkpt><trkpt lat="43.33790494614283" lon="12.747641181198786"><ele>522.0</ele><time>2026-04-11T13:23:42.999Z</time></trkpt><trkpt lat="43.338002710279135" lon="12.747786490745927"><ele>522.0</ele><time>2026-04-11T13:23:43.999Z</time></trkpt><trkpt lat="43.33810134348487" lon="12.747926898599543"><ele>522.0</ele><time>2026-04-11T13:23:44.999Z</time></trkpt><trkpt lat="43.338201580050004" lon="12.748071701189499"><ele>522.0</ele><time>2026-04-11T13:23:45.999Z</time></trkpt><trkpt lat="43.33832053380241" lon="12.748208843048888"><ele>522.0</ele><time>2026-04-11T13:23:46.999Z</time></trkpt><trkpt lat="43.33842508573143" lon="12.748349395726404"><ele>522.0</ele><time>2026-04-11T13:23:47.999Z</time></trkpt><trkpt lat="43.33851525888215" lon="12.748493309701281"><ele>522.0</ele><time>2026-04-11T13:23:48.999Z</time></trkpt><trkpt lat="43.338572777551775" lon="12.748639128895759"><ele>524.4</ele><time>2026-04-11T13:23:49.999Z</time></trkpt><trkpt lat="43.33861676887439" lon="12.748733405745908"><ele>526.8000000000001</ele><time>2026-04-11T13:23:50.999Z</time></trkpt><trkpt lat="43.338671957852775" lon="12.74884436977225"><ele>529.2</ele><time>2026-04-11T13:23:52.999Z</time></trkpt><trkpt lat="43.338691437586725" lon="12.748950197400521"><ele>531.6</ele><time>2026-04-11T13:24:22.999Z</time></trkpt><trkpt lat="43.338705279619" lon="12.749061117780236"><ele>534.0</ele><time>2026-04-11T13:24:30.999Z</time></trkpt><trkpt lat="43.33875341960516" lon="12.749204446652769"><ele>534.0</ele><time>2026-04-11T13:24:32.999Z</time></trkpt><trkpt lat="43.33879102993698" lon="12.749332032976449"><ele>534.0</ele><time>2026-04-11T13:24:35Z</time></trkpt><trkpt lat="43.33918469186142" lon="12.74947695404003"><ele>533.5</ele><time>2026-04-11T13:24:38Z</time></trkpt><trkpt lat="43.339239506999604" lon="12.749556799333288"><ele>533.0</ele><time>2026-04-11T13:24:39Z</time></trkpt><trkpt lat="43.33929650493021" lon="12.749628660739312"><ele>532.5</ele><time>2026-04-11T13:24:40Z</time></trkpt><trkpt lat="43.33936102102442" lon="12.749681855237103"><ele>532.0</ele><time>2026-04-11T13:24:41Z</time></trkpt><trkpt lat="43.339446066355215" lon="12.74976124006658"><ele>531.5</ele><time>2026-04-11T13:24:42Z</time></trkpt><trkpt lat="43.33951086667972" lon="12.749844415540153"><ele>531.0</ele><time>2026-04-11T13:24:43Z</time></trkpt><trkpt lat="43.33957613787455" lon="12.749942098092209"><ele>531.0</ele><time>2026-04-11T13:24:44Z</time></trkpt><trkpt lat="43.33962016767269" lon="12.750037707606188"><ele>531.0</ele><time>2026-04-11T13:24:45Z</time></trkpt><trkpt lat="43.339695240679006" lon="12.750118957817103"><ele>531.0</ele><time>2026-04-11T13:24:46Z</time></trkpt><trkpt lat="43.339777312524596" lon="12.750183566503276"><ele>531.0</ele><time>2026-04-11T13:24:47Z</time></trkpt><trkpt lat="43.339856438338174" lon="12.750246321230648"><ele>531.0</ele><time>2026-04-11T13:24:48Z</time></trkpt><trkpt lat="43.339929337735256" lon="12.750315879241114"><ele>532.0</ele><time>2026-04-11T13:24:49Z</time></trkpt><trkpt lat="43.339991415942656" lon="12.750400158458062"><ele>533.0</ele><time>2026-04-11T13:24:50Z</time></trkpt><trkpt lat="43.34004379394049" lon="12.750479499884554"><ele>534.0</ele><time>2026-04-11T13:24:51Z</time></trkpt><trkpt lat="43.340082757369906" lon="12.750569256880658"><ele>535.0</ele><time>2026-04-11T13:24:52Z</time></trkpt><trkpt lat="43.340117283491594" lon="12.750641829625572"><ele>536.0</ele><time>2026-04-11T13:24:53Z</time></trkpt><trkpt lat="43.340191535768874" lon="12.750762101828863"><ele>537.0</ele><time>2026-04-11T13:24:55Z</time></trkpt><trkpt lat="43.34030313693602" lon="12.750775492080319"><ele>537.0</ele><time>2026-04-11T13:24:57Z</time></trkpt><trkpt lat="43.340408051456606" lon="12.750809536125363"><ele>537.0</ele><time>2026-04-11T13:24:59Z</time></trkpt><trkpt lat="43.34048069142581" lon="12.750846360038413"><ele>537.0</ele><time>2026-04-11T13:25:00Z</time></trkpt><trkpt lat="43.3405612439112" lon="12.75087210503718"><ele>537.0</ele><time>2026-04-11T13:25:01Z</time></trkpt><trkpt lat="43.34063220078566" lon="12.750904361205194"><ele>537.0</ele><time>2026-04-11T13:25:02Z</time></trkpt><trkpt lat="43.34070751313582" lon="12.750947199345065"><ele>537.0</ele><time>2026-04-11T13:25:03Z</time></trkpt><trkpt lat="43.34076614021215" lon="12.750987016343167"><ele>538.0</ele><time>2026-04-11T13:25:04Z</time></trkpt><trkpt lat="43.340837073545906" lon="12.751029732999823"><ele>539.0</ele><time>2026-04-11T13:25:05Z</time></trkpt><trkpt lat="43.340910636311726" lon="12.751061323660448"><ele>540.0</ele><time>2026-04-11T13:25:06Z</time></trkpt><trkpt lat="43.340990596706156" lon="12.751081039568444"><ele>541.0</ele><time>2026-04-11T13:25:07Z</time></trkpt><trkpt lat="43.34107073396375" lon="12.751086409154386"><ele>542.0</ele><time>2026-04-11T13:25:08Z</time></trkpt><trkpt lat="43.341148711956144" lon="12.751095048155095"><ele>543.0</ele><time>2026-04-11T13:25:09Z</time></trkpt><trkpt lat="43.34120968342994" lon="12.75112388597993"><ele>543.6666666666666</ele><time>2026-04-11T13:25:10Z</time></trkpt><trkpt lat="43.3412718387003" lon="12.751178890754403"><ele>544.3333333333334</ele><time>2026-04-11T13:25:11Z</time></trkpt><trkpt lat="43.34132502140213" lon="12.751250623933943"><ele>545.0</ele><time>2026-04-11T13:25:12Z</time></trkpt><trkpt lat="43.34136980429885" lon="12.751322920380929"><ele>545.6666666666667</ele><time>2026-04-11T13:25:13Z</time></trkpt><trkpt lat="43.34141536760736" lon="12.751405571484487"><ele>546.3333333333334</ele><time>2026-04-11T13:25:14Z</time></trkpt><trkpt lat="43.34145704230392" lon="12.751501438230859"><ele>547.0</ele><time>2026-04-11T13:25:15Z</time></trkpt><trkpt lat="43.341492825198756" lon="12.751594388211842"><ele>547.3333333333334</ele><time>2026-04-11T13:25:15.999Z</time></trkpt><trkpt lat="43.34152896949095" lon="12.751692658129901"><ele>547.6666666666667</ele><time>2026-04-11T13:25:16.999Z</time></trkpt><trkpt lat="43.34155858142248" lon="12.751792694606626"><ele>548.0</ele><time>2026-04-11T13:25:17.999Z</time></trkpt><trkpt lat="43.341590289828574" lon="12.751890901092029"><ele>548.3333333333334</ele><time>2026-04-11T13:25:18.999Z</time></trkpt><trkpt lat="43.341632610412844" lon="12.751977347132742"><ele>548.6666666666666</ele><time>2026-04-11T13:25:19.999Z</time></trkpt><trkpt lat="43.34173604670018" lon="12.752056591272009"><ele>549.0</ele><time>2026-04-11T13:25:21.999Z</time></trkpt><trkpt lat="43.341806101264936" lon="12.752069937781844"><ele>551.1428571428571</ele><time>2026-04-11T13:25:22.999Z</time></trkpt><trkpt lat="43.341873798875824" lon="12.752068677003725"><ele>553.2857142857143</ele><time>2026-04-11T13:25:23.999Z</time></trkpt><trkpt lat="43.34193921128285" lon="12.752082185285056"><ele>555.4285714285714</ele><time>2026-04-11T13:25:24.999Z</time></trkpt><trkpt lat="43.34200794676035" lon="12.752111236626805"><ele>557.5714285714286</ele><time>2026-04-11T13:25:25.999Z</time></trkpt><trkpt lat="43.342069439136566" lon="12.752141890916912"><ele>559.7142857142857</ele><time>2026-04-11T13:25:26.999Z</time></trkpt><trkpt lat="43.34214311406645" lon="12.752226533555866"><ele>561.8571428571429</ele><time>2026-04-11T13:25:28.999Z</time></trkpt><trkpt lat="43.34219274720317" lon="12.752302807769777"><ele>564.0</ele><time>2026-04-11T13:25:30.999Z</time></trkpt><trkpt lat="43.34214561126014" lon="12.752245096370123"><ele>564.0</ele><time>2026-04-11T13:26:50Z</time></trkpt><trkpt lat="43.34209264927848" lon="12.752182268628948"><ele>564.0</ele><time>2026-04-11T13:26:52Z</time></trkpt><trkpt lat="43.34199880699391" lon="12.752125938448245"><ele>564.0</ele><time>2026-04-11T13:26:54Z</time></trkpt><trkpt lat="43.3419054182006" lon="12.752090056797266"><ele>564.0</ele><time>2026-04-11T13:26:55Z</time></trkpt><trkpt lat="43.3418243957758" lon="12.752074922739432"><ele>564.0</ele><time>2026-04-11T13:26:56Z</time></trkpt><trkpt lat="43.34173929519352" lon="12.75206446134789"><ele>564.0</ele><time>2026-04-11T13:26:57Z</time></trkpt><trkpt lat="43.3416677557663" lon="12.752045802001497"><ele>564.0</ele><time>2026-04-11T13:26:58Z</time></trkpt><trkpt lat="43.341591328084746" lon="12.751946274165302"><ele>564.0</ele><time>2026-04-11T13:27:00Z</time></trkpt><trkpt lat="43.34156632043423" lon="12.751857674080199"><ele>564.0</ele><time>2026-04-11T13:27:01Z</time></trkpt><trkpt lat="43.34153021665022" lon="12.75175129303222"><ele>564.0</ele><time>2026-04-11T13:27:02Z</time></trkpt><trkpt lat="43.341491367421796" lon="12.751638217894978"><ele>564.0</ele><time>2026-04-11T13:27:03Z</time></trkpt><trkpt lat="43.34144602459681" lon="12.75151458223199"><ele>561.5</ele><time>2026-04-11T13:27:04Z</time></trkpt><trkpt lat="43.34140052319613" lon="12.751413400600091"><ele>559.0</ele><time>2026-04-11T13:27:05Z</time></trkpt><trkpt lat="43.34134480754886" lon="12.751319663216945"><ele>556.5</ele><time>2026-04-11T13:27:06Z</time></trkpt><trkpt lat="43.341290398339794" lon="12.751240555893757"><ele>554.0</ele><time>2026-04-11T13:27:07Z</time></trkpt><trkpt lat="43.34122491776453" lon="12.751171730994617"><ele>551.5</ele><time>2026-04-11T13:27:08Z</time></trkpt><trkpt lat="43.341158804626154" lon="12.75112338893033"><ele>549.0</ele><time>2026-04-11T13:27:09Z</time></trkpt><trkpt lat="43.3410694017395" lon="12.751085921757092"><ele>548.6</ele><time>2026-04-11T13:27:10Z</time></trkpt><trkpt lat="43.34098676359112" lon="12.751094391143363"><ele>548.2</ele><time>2026-04-11T13:27:11Z</time></trkpt><trkpt lat="43.34088964782493" lon="12.751093439892342"><ele>547.8000000000001</ele><time>2026-04-11T13:27:12Z</time></trkpt><trkpt lat="43.34080287958689" lon="12.75106600195692"><ele>547.4</ele><time>2026-04-11T13:27:13Z</time></trkpt><trkpt lat="43.34071557798356" lon="12.751010380934765"><ele>547.0</ele><time>2026-04-11T13:27:14Z</time></trkpt><trkpt lat="43.3406401035253" lon="12.75095622401364"><ele>546.3333333333334</ele><time>2026-04-11T13:27:15Z</time></trkpt><trkpt lat="43.340566161941666" lon="12.750911694398914"><ele>545.6666666666667</ele><time>2026-04-11T13:27:16Z</time></trkpt><trkpt lat="43.340482695967076" lon="12.750875380353124"><ele>545.0</ele><time>2026-04-11T13:27:17Z</time></trkpt><trkpt lat="43.34040846803503" lon="12.750851879615025"><ele>544.3333333333334</ele><time>2026-04-11T13:27:18Z</time></trkpt><trkpt lat="43.34034533578226" lon="12.750839796857589"><ele>543.6666666666666</ele><time>2026-04-11T13:27:19Z</time></trkpt><trkpt lat="43.3402322977874" lon="12.75081835632851"><ele>543.0</ele><time>2026-04-11T13:27:21Z</time></trkpt><trkpt lat="43.34012885773154" lon="12.750770189405612"><ele>542.0</ele><time>2026-04-11T13:27:23Z</time></trkpt><trkpt lat="43.34008183711954" lon="12.750686133446855"><ele>541.0</ele><time>2026-04-11T13:27:24Z</time></trkpt><trkpt lat="43.34005445886659" lon="12.750581805603915"><ele>540.0</ele><time>2026-04-11T13:27:25Z</time></trkpt><trkpt lat="43.34000992393463" lon="12.750479560590122"><ele>539.0</ele><time>2026-04-11T13:27:26Z</time></trkpt><trkpt lat="43.33994978469515" lon="12.750393634391756"><ele>538.0</ele><time>2026-04-11T13:27:27Z</time></trkpt><trkpt lat="43.33986349829714" lon="12.750303051321561"><ele>537.0</ele><time>2026-04-11T13:27:28Z</time></trkpt><trkpt lat="43.339781741273455" lon="12.750237690824848"><ele>535.8000000000001</ele><time>2026-04-11T13:27:29Z</time></trkpt><trkpt lat="43.339698125149546" lon="12.750171610545339"><ele>534.6</ele><time>2026-04-11T13:27:30Z</time></trkpt><trkpt lat="43.33961952125977" lon="12.75010417096947"><ele>533.4000000000001</ele><time>2026-04-11T13:27:31Z</time></trkpt><trkpt lat="43.33955769113265" lon="12.750030309949086"><ele>532.2</ele><time>2026-04-11T13:27:32Z</time></trkpt><trkpt lat="43.33951063423515" lon="12.749935660341947"><ele>531.0</ele><time>2026-04-11T13:27:33Z</time></trkpt><trkpt lat="43.33944326964571" lon="12.749838534506598"><ele>531.0</ele><time>2026-04-11T13:27:34Z</time></trkpt><trkpt lat="43.33937943086633" lon="12.749766789951192"><ele>531.0</ele><time>2026-04-11T13:27:35Z</time></trkpt><trkpt lat="43.339310610757735" lon="12.749698563840209"><ele>531.0</ele><time>2026-04-11T13:27:36Z</time></trkpt><trkpt lat="43.33924869815159" lon="12.74963535907706"><ele>531.0</ele><time>2026-04-11T13:27:37Z</time></trkpt><trkpt lat="43.33919065085094" lon="12.749569284150368"><ele>531.0</ele><time>2026-04-11T13:27:38Z</time></trkpt><trkpt lat="43.339135807386356" lon="12.749487394245424"><ele>531.0</ele><time>2026-04-11T13:27:39Z</time></trkpt><trkpt lat="43.33909344876755" lon="12.749397447974884"><ele>531.5</ele><time>2026-04-11T13:27:40Z</time></trkpt><trkpt lat="43.339042629234534" lon="12.749333585942521"><ele>532.0</ele><time>2026-04-11T13:27:41Z</time></trkpt><trkpt lat="43.33897571308447" lon="12.749261290883245"><ele>532.5</ele><time>2026-04-11T13:27:43Z</time></trkpt><trkpt lat="43.33890586054439" lon="12.749189914301475"><ele>533.0</ele><time>2026-04-11T13:27:46Z</time></trkpt><trkpt lat="43.338856689700506" lon="12.74913582471615"><ele>533.5</ele><time>2026-04-11T13:27:48Z</time></trkpt><trkpt lat="43.338789614464" lon="12.749076094500136"><ele>534.0</ele><time>2026-04-11T13:27:50Z</time></trkpt><trkpt lat="43.33876420239372" lon="12.748983648651054"><ele>534.0</ele><time>2026-04-11T13:27:52Z</time></trkpt><trkpt lat="43.33870506007895" lon="12.74885839573593"><ele>534.0</ele><time>2026-04-11T13:27:53.999Z</time></trkpt><trkpt lat="43.33866083074253" lon="12.74874276911278"><ele>534.0</ele><time>2026-04-11T13:27:54.999Z</time></trkpt><trkpt lat="43.33859330371826" lon="12.748641476845922"><ele>534.0</ele><time>2026-04-11T13:27:55.999Z</time></trkpt><trkpt lat="43.33853916705473" lon="12.748515086243259"><ele>534.0</ele><time>2026-04-11T13:27:56.999Z</time></trkpt><trkpt lat="43.338468642447076" lon="12.748399276740003"><ele>531.0</ele><time>2026-04-11T13:27:57.999Z</time></trkpt><trkpt lat="43.33839047215557" lon="12.748264686178967"><ele>528.0</ele><time>2026-04-11T13:27:58.999Z</time></trkpt><trkpt lat="43.33830043337354" lon="12.74814562318874"><ele>525.0</ele><time>2026-04-11T13:27:59.999Z</time></trkpt><trkpt lat="43.33820917468217" lon="12.7480246581522"><ele>522.0</ele><time>2026-04-11T13:28:00.999Z</time></trkpt><trkpt lat="43.33810937166755" lon="12.74789236760565"><ele>522.0</ele><time>2026-04-11T13:28:01.999Z</time></trkpt><trkpt lat="43.33801705540537" lon="12.74776508810636"><ele>522.0</ele><time>2026-04-11T13:28:02.999Z</time></trkpt><trkpt lat="43.337923895665355" lon="12.747628321531181"><ele>522.0</ele><time>2026-04-11T13:28:03.999Z</time></trkpt><trkpt lat="43.33783304194528" lon="12.747501654713012"><ele>522.0</ele><time>2026-04-11T13:28:04.999Z</time></trkpt><trkpt lat="43.33774355464882" lon="12.747365074876479"><ele>522.0</ele><time>2026-04-11T13:28:05.999Z</time></trkpt><trkpt lat="43.33765072339266" lon="12.747231587157872"><ele>522.0</ele><time>2026-04-11T13:28:06.999Z</time></trkpt><trkpt lat="43.33754255708551" lon="12.747103189297725"><ele>522.0</ele><time>2026-04-11T13:28:07.999Z</time></trkpt><trkpt lat="43.337420936739385" lon="12.746983642230289"><ele>522.0</ele><time>2026-04-11T13:28:08.999Z</time></trkpt><trkpt lat="43.33729290865482" lon="12.746882264908264"><ele>520.6666666666666</ele><time>2026-04-11T13:28:09.999Z</time></trkpt><trkpt lat="43.3371513783329" lon="12.746809969634601"><ele>519.3333333333333</ele><time>2026-04-11T13:28:10.999Z</time></trkpt><trkpt lat="43.33699590199869" lon="12.746766077337865"><ele>518.0</ele><time>2026-04-11T13:28:11.999Z</time></trkpt><trkpt lat="43.33684700946247" lon="12.746733543946732"><ele>518.0</ele><time>2026-04-11T13:28:12.999Z</time></trkpt><trkpt lat="43.33670889048182" lon="12.746645197219388"><ele>518.0</ele><time>2026-04-11T13:28:13.999Z</time></trkpt><trkpt lat="43.33657583675309" lon="12.74659397962939"><ele>518.0</ele><time>2026-04-11T13:28:14.999Z</time></trkpt><trkpt lat="43.33642939234225" lon="12.746507602349817"><ele>516.0</ele><time>2026-04-11T13:28:15.999Z</time></trkpt><trkpt lat="43.33629926490974" lon="12.746431185411867"><ele>514.0</ele><time>2026-04-11T13:28:16.999Z</time></trkpt><trkpt lat="43.336168535680876" lon="12.746348550385648"><ele>512.0</ele><time>2026-04-11T13:28:17.999Z</time></trkpt><trkpt lat="43.33603986205622" lon="12.746223705113186"><ele>510.0</ele><time>2026-04-11T13:28:18.999Z</time></trkpt><trkpt lat="43.335893019833236" lon="12.746168810060748"><ele>510.0</ele><time>2026-04-11T13:28:19.999Z</time></trkpt><trkpt lat="43.33575851736399" lon="12.74609798580236"><ele>510.0</ele><time>2026-04-11T13:28:20.999Z</time></trkpt><trkpt lat="43.33563712523506" lon="12.746055713711517"><ele>510.0</ele><time>2026-04-11T13:28:21.999Z</time></trkpt><trkpt lat="43.33551860305277" lon="12.746016610087343"><ele>510.0</ele><time>2026-04-11T13:28:22.999Z</time></trkpt><trkpt lat="43.335395304402006" lon="12.745982045384979"><ele>511.75</ele><time>2026-04-11T13:28:23.999Z</time></trkpt><trkpt lat="43.33526172989378" lon="12.745950292005965"><ele>513.5</ele><time>2026-04-11T13:28:24.999Z</time></trkpt><trkpt lat="43.33512092915739" lon="12.74594502687913"><ele>515.25</ele><time>2026-04-11T13:28:25.999Z</time></trkpt><trkpt lat="43.33498716193084" lon="12.745952887031631"><ele>517.0</ele><time>2026-04-11T13:28:26.999Z</time></trkpt><trkpt lat="43.33488284012636" lon="12.745935336716537"><ele>517.0</ele><time>2026-04-11T13:28:27.999Z</time></trkpt><trkpt lat="43.33476571730043" lon="12.745872452667523"><ele>517.0</ele><time>2026-04-11T13:28:28.999Z</time></trkpt><trkpt lat="43.334672676475094" lon="12.74574893903123"><ele>517.0</ele><time>2026-04-11T13:28:29.999Z</time></trkpt><trkpt lat="43.33463155933921" lon="12.745565600188444"><ele>517.0</ele><time>2026-04-11T13:28:30.999Z</time></trkpt><trkpt lat="43.334557785221755" lon="12.745407217533586"><ele>514.25</ele><time>2026-04-11T13:28:31.999Z</time></trkpt><trkpt lat="43.33451871321327" lon="12.745248296942274"><ele>511.5</ele><time>2026-04-11T13:28:33Z</time></trkpt><trkpt lat="43.33447030172889" lon="12.745086992661284"><ele>508.75</ele><time>2026-04-11T13:28:34Z</time></trkpt><trkpt lat="43.33442678308599" lon="12.744951928429776"><ele>506.0</ele><time>2026-04-11T13:28:35Z</time></trkpt><trkpt lat="43.33437606686758" lon="12.744820020054235"><ele>506.0</ele><time>2026-04-11T13:28:36Z</time></trkpt><trkpt lat="43.334303875917946" lon="12.744691451220056"><ele>506.0</ele><time>2026-04-11T13:28:37Z</time></trkpt><trkpt lat="43.33421243247403" lon="12.744562520352426"><ele>506.0</ele><time>2026-04-11T13:28:38Z</time></trkpt><trkpt lat="43.33411481760792" lon="12.74443240033179"><ele>506.0</ele><time>2026-04-11T13:28:39Z</time></trkpt><trkpt lat="43.33401997427997" lon="12.74428614680196"><ele>509.0</ele><time>2026-04-11T13:28:40Z</time></trkpt><trkpt lat="43.333930612693024" lon="12.74415493193418"><ele>512.0</ele><time>2026-04-11T13:28:41Z</time></trkpt><trkpt lat="43.333846749758315" lon="12.744033663465556"><ele>515.0</ele><time>2026-04-11T13:28:42Z</time></trkpt><trkpt lat="43.33376388145724" lon="12.743918706231165"><ele>518.0</ele><time>2026-04-11T13:28:43Z</time></trkpt><trkpt lat="43.3336773606236" lon="12.743802091805723"><ele>515.1999999999999</ele><time>2026-04-11T13:28:44Z</time></trkpt><trkpt lat="43.33358844316878" lon="12.743686217942587"><ele>512.4</ele><time>2026-04-11T13:28:45Z</time></trkpt><trkpt lat="43.33350861631184" lon="12.743576122601718"><ele>509.59999999999997</ele><time>2026-04-11T13:28:46Z</time></trkpt><trkpt lat="43.33343881496259" lon="12.743476823006691"><ele>506.79999999999995</ele><time>2026-04-11T13:28:47Z</time></trkpt><trkpt lat="43.333373690136575" lon="12.743382217259269"><ele>504.0</ele><time>2026-04-11T13:28:48Z</time></trkpt><trkpt lat="43.33331451622679" lon="12.743292615216523"><ele>504.0</ele><time>2026-04-11T13:28:49Z</time></trkpt><trkpt lat="43.33326239538407" lon="12.743207438195732"><ele>504.0</ele><time>2026-04-11T13:28:50Z</time></trkpt><trkpt lat="43.33321110656173" lon="12.743127832709996"><ele>504.0</ele><time>2026-04-11T13:28:51Z</time></trkpt><trkpt lat="43.33315542335565" lon="12.743039516573154"><ele>504.0</ele><time>2026-04-11T13:28:52Z</time></trkpt><trkpt lat="43.333106073940854" lon="12.742953589438688"><ele>504.0</ele><time>2026-04-11T13:28:53Z</time></trkpt><trkpt lat="43.33305730412651" lon="12.742873840355939"><ele>504.0</ele><time>2026-04-11T13:28:54Z</time></trkpt><trkpt lat="43.333016255441684" lon="12.742802780641778"><ele>502.79999999999995</ele><time>2026-04-11T13:28:55Z</time></trkpt><trkpt lat="43.33295886139314" lon="12.742689206878477"><ele>501.59999999999997</ele><time>2026-04-11T13:28:57Z</time></trkpt><trkpt lat="43.332905981482845" lon="12.742588754668477"><ele>500.4</ele><time>2026-04-11T13:28:59Z</time></trkpt><trkpt lat="43.33282006606611" lon="12.742470336532325"><ele>499.2</ele><time>2026-04-11T13:29:01Z</time></trkpt><trkpt lat="43.332766999947054" lon="12.742401241763373"><ele>498.0</ele><time>2026-04-11T13:29:02Z</time></trkpt><trkpt lat="43.332710872590454" lon="12.74233090954288"><ele>498.0</ele><time>2026-04-11T13:29:03Z</time></trkpt><trkpt lat="43.33265379720837" lon="12.742262407198773"><ele>498.0</ele><time>2026-04-11T13:29:04Z</time></trkpt><trkpt lat="43.33258806190719" lon="12.742203924682622"><ele>498.0</ele><time>2026-04-11T13:29:05Z</time></trkpt><trkpt lat="43.33252666099078" lon="12.742160485489983"><ele>498.0</ele><time>2026-04-11T13:29:06Z</time></trkpt><trkpt lat="43.33247128895965" lon="12.742110655145908"><ele>498.0</ele><time>2026-04-11T13:29:07Z</time></trkpt><trkpt lat="43.3324151024224" lon="12.742050323074912"><ele>498.0</ele><time>2026-04-11T13:29:08Z</time></trkpt><trkpt lat="43.33233934643977" lon="12.741932867377777"><ele>498.59999999999997</ele><time>2026-04-11T13:29:10Z</time></trkpt><trkpt lat="43.33226219377958" lon="12.741880219413943"><ele>499.19999999999993</ele><time>2026-04-11T13:29:12Z</time></trkpt><trkpt lat="43.33220337041036" lon="12.741944777068262"><ele>499.8</ele><time>2026-04-11T13:29:13Z</time></trkpt><trkpt lat="43.332124346358974" lon="12.742064429920077"><ele>500.4</ele><time>2026-04-11T13:29:15Z</time></trkpt><trkpt lat="43.33203069130113" lon="12.742184435212447"><ele>501.0</ele><time>2026-04-11T13:29:17Z</time></trkpt><trkpt lat="43.33192527063597" lon="12.742273244278518"><ele>498.5</ele><time>2026-04-11T13:29:19Z</time></trkpt><trkpt lat="43.331866282709704" lon="12.742322517216792"><ele>496.0</ele><time>2026-04-11T13:29:20Z</time></trkpt><trkpt lat="43.3317987546318" lon="12.742370019433517"><ele>493.5</ele><time>2026-04-11T13:29:21Z</time></trkpt><trkpt lat="43.33168188639692" lon="12.742381639577594"><ele>491.0</ele><time>2026-04-11T13:29:23Z</time></trkpt><trkpt lat="43.33161555063171" lon="12.742343743369604"><ele>488.5</ele><time>2026-04-11T13:29:24Z</time></trkpt><trkpt lat="43.331558621677125" lon="12.742292638769237"><ele>486.0</ele><time>2026-04-11T13:29:25Z</time></trkpt><trkpt lat="43.33145217785301" lon="12.742193702827436"><ele>484.25</ele><time>2026-04-11T13:29:27Z</time></trkpt><trkpt lat="43.33137336167574" lon="12.74212042832308"><ele>482.5</ele><time>2026-04-11T13:29:29Z</time></trkpt><trkpt lat="43.331309767116835" lon="12.7420945374335"><ele>480.75</ele><time>2026-04-11T13:29:41Z</time></trkpt><trkpt lat="43.33124743402378" lon="12.742077075328291"><ele>479.0</ele><time>2026-04-11T13:29:46Z</time></trkpt><trkpt lat="43.331097668204" lon="12.742652425435043"><ele>478.8333333333333</ele><time>2026-04-11T13:30:36.999Z</time></trkpt><trkpt lat="43.331063535019716" lon="12.742746843856246"><ele>478.66666666666663</ele><time>2026-04-11T13:30:37.999Z</time></trkpt><trkpt lat="43.331011973161615" lon="12.742837126764647"><ele>478.5</ele><time>2026-04-11T13:30:39Z</time></trkpt><trkpt lat="43.330946164796046" lon="12.742932204105841"><ele>478.33333333333337</ele><time>2026-04-11T13:30:40Z</time></trkpt><trkpt lat="43.3308715702129" lon="12.743003934102633"><ele>478.1666666666667</ele><time>2026-04-11T13:30:41Z</time></trkpt><trkpt lat="43.330794459713815" lon="12.743067536929365"><ele>478.0</ele><time>2026-04-11T13:30:42Z</time></trkpt><trkpt lat="43.33071902545741" lon="12.743135391576866"><ele>478.0</ele><time>2026-04-11T13:30:43Z</time></trkpt><trkpt lat="43.330638723195065" lon="12.743213544776172"><ele>477.99999999999994</ele><time>2026-04-11T13:30:44Z</time></trkpt><trkpt lat="43.33056208339678" lon="12.743291766774327"><ele>477.99999999999994</ele><time>2026-04-11T13:30:45Z</time></trkpt><trkpt lat="43.33048919796869" lon="12.743369995618158"><ele>478.0</ele><time>2026-04-11T13:30:46Z</time></trkpt><trkpt lat="43.33041696052982" lon="12.743444689653714"><ele>478.0</ele><time>2026-04-11T13:30:47Z</time></trkpt><trkpt lat="43.33035269190632" lon="12.743520247820358"><ele>478.59999999999997</ele><time>2026-04-11T13:30:48Z</time></trkpt><trkpt lat="43.330298136389594" lon="12.743564448803374"><ele>479.19999999999993</ele><time>2026-04-11T13:30:49Z</time></trkpt><trkpt lat="43.330252302871955" lon="12.743631718518737"><ele>479.8</ele><time>2026-04-11T13:30:51Z</time></trkpt><trkpt lat="43.33035658968557" lon="12.743831659538378"><ele>480.4</ele><time>2026-04-11T13:30:52Z</time></trkpt><trkpt lat="43.33038634467444" lon="12.7439523447378"><ele>481.0</ele><time>2026-04-11T13:30:53Z</time></trkpt><trkpt lat="43.33042611823691" lon="12.744066443099934"><ele>481.0</ele><time>2026-04-11T13:30:54Z</time></trkpt><trkpt lat="43.33046807848092" lon="12.744194349155821"><ele>481.0</ele><time>2026-04-11T13:30:55Z</time></trkpt><trkpt lat="43.33051143214627" lon="12.7443283360379"><ele>481.0</ele><time>2026-04-11T13:30:56Z</time></trkpt><trkpt lat="43.33055840647119" lon="12.744468684597162"><ele>481.0</ele><time>2026-04-11T13:30:57Z</time></trkpt><trkpt lat="43.33061045622746" lon="12.744610508171647"><ele>481.0</ele><time>2026-04-11T13:30:58Z</time></trkpt><trkpt lat="43.33067642783669" lon="12.744751976834094"><ele>482.5</ele><time>2026-04-11T13:30:59Z</time></trkpt><trkpt lat="43.33074921008908" lon="12.744884639230808"><ele>484.0</ele><time>2026-04-11T13:31:00Z</time></trkpt><trkpt lat="43.33083104996012" lon="12.745020444366823"><ele>485.5</ele><time>2026-04-11T13:31:01Z</time></trkpt><trkpt lat="43.330915646685796" lon="12.745156338098536"><ele>487.0</ele><time>2026-04-11T13:31:02Z</time></trkpt><trkpt lat="43.33099350332338" lon="12.745296808147144"><ele>487.75</ele><time>2026-04-11T13:31:03Z</time></trkpt><trkpt lat="43.33107089450858" lon="12.745442717401595"><ele>488.5</ele><time>2026-04-11T13:31:04Z</time></trkpt><trkpt lat="43.33115125140514" lon="12.745594218067755"><ele>489.25</ele><time>2026-04-11T13:31:05Z</time></trkpt><trkpt lat="43.33122696191229" lon="12.74573695866133"><ele>490.0</ele><time>2026-04-11T13:31:06Z</time></trkpt><trkpt lat="43.331302993549436" lon="12.745880304704947"><ele>490.0</ele><time>2026-04-11T13:31:07Z</time></trkpt><trkpt lat="43.33137474411083" lon="12.746015579434593"><ele>490.0</ele><time>2026-04-11T13:31:08Z</time></trkpt><trkpt lat="43.33144735309863" lon="12.746154777837978"><ele>490.0</ele><time>2026-04-11T13:31:09Z</time></trkpt><trkpt lat="43.33151964171958" lon="12.746294840274631"><ele>490.0</ele><time>2026-04-11T13:31:10Z</time></trkpt><trkpt lat="43.33158330977289" lon="12.746427062655737"><ele>493.2</ele><time>2026-04-11T13:31:11Z</time></trkpt><trkpt lat="43.3316394378066" lon="12.746553165955522"><ele>496.4</ele><time>2026-04-11T13:31:12Z</time></trkpt><trkpt lat="43.33170388341081" lon="12.746681598178263"><ele>499.6</ele><time>2026-04-11T13:31:13Z</time></trkpt><trkpt lat="43.331715745008594" lon="12.746827343545258"><ele>502.8</ele><time>2026-04-11T13:31:14Z</time></trkpt><trkpt lat="43.331722043101955" lon="12.746950853150157"><ele>506.0</ele><time>2026-04-11T13:31:15Z</time></trkpt><trkpt lat="43.33172992463116" lon="12.74706429563211"><ele>507.3333333333333</ele><time>2026-04-11T13:31:16Z</time></trkpt><trkpt lat="43.33166742237289" lon="12.747147405989555"><ele>508.66666666666663</ele><time>2026-04-11T13:31:17Z</time></trkpt><trkpt lat="43.33160635048831" lon="12.747224449653682"><ele>510.0</ele><time>2026-04-11T13:31:18Z</time></trkpt><trkpt lat="43.33154282316896" lon="12.747297929557204"><ele>511.33333333333337</ele><time>2026-04-11T13:31:19Z</time></trkpt><trkpt lat="43.33148750596308" lon="12.74739809829631"><ele>512.6666666666667</ele><time>2026-04-11T13:31:20Z</time></trkpt><trkpt lat="43.33142313623861" lon="12.747491599101256"><ele>514.0</ele><time>2026-04-11T13:31:21Z</time></trkpt><trkpt lat="43.331352781184606" lon="12.747598446883346"><ele>510.6</ele><time>2026-04-11T13:31:22Z</time></trkpt><trkpt lat="43.33128695522614" lon="12.747706418959174"><ele>507.2</ele><time>2026-04-11T13:31:23Z</time></trkpt><trkpt lat="43.331231948450856" lon="12.747825287045018"><ele>503.80000000000007</ele><time>2026-04-11T13:31:24Z</time></trkpt><trkpt lat="43.33119130818918" lon="12.747954608051971"><ele>500.40000000000003</ele><time>2026-04-11T13:31:25Z</time></trkpt><trkpt lat="43.331174264824746" lon="12.748120555258224"><ele>497.0</ele><time>2026-04-11T13:31:26Z</time></trkpt><trkpt lat="43.33117962161156" lon="12.748287101116604"><ele>496.75</ele><time>2026-04-11T13:31:27Z</time></trkpt><trkpt lat="43.33119246274954" lon="12.748455211259946"><ele>496.5</ele><time>2026-04-11T13:31:28Z</time></trkpt><trkpt lat="43.331186489947626" lon="12.748620267098897"><ele>496.25</ele><time>2026-04-11T13:31:29Z</time></trkpt><trkpt lat="43.33121553831138" lon="12.748763631418718"><ele>496.0</ele><time>2026-04-11T13:31:30Z</time></trkpt><trkpt lat="43.3312387852447" lon="12.748916461034012"><ele>497.25</ele><time>2026-04-11T13:31:31Z</time></trkpt><trkpt lat="43.331283289711365" lon="12.749064524034024"><ele>498.5</ele><time>2026-04-11T13:31:32Z</time></trkpt><trkpt lat="43.33134229208418" lon="12.74921054498312"><ele>499.75</ele><time>2026-04-11T13:31:33Z</time></trkpt><trkpt lat="43.331423959832634" lon="12.749355510206755"><ele>501.0</ele><time>2026-04-11T13:31:34Z</time></trkpt><trkpt lat="43.331504842879426" lon="12.749530249151883"><ele>504.66666666666663</ele><time>2026-04-11T13:31:35Z</time></trkpt><trkpt lat="43.331611804825606" lon="12.749688919256856"><ele>508.3333333333333</ele><time>2026-04-11T13:31:36Z</time></trkpt><trkpt lat="43.33172772852925" lon="12.74984627033348"><ele>512.0</ele><time>2026-04-11T13:31:37Z</time></trkpt><trkpt lat="43.33184492913654" lon="12.749991434262151"><ele>512.0</ele><time>2026-04-11T13:31:38Z</time></trkpt><trkpt lat="43.33195729197814" lon="12.750100536541773"><ele>512.0</ele><time>2026-04-11T13:31:39Z</time></trkpt><trkpt lat="43.33204700839357" lon="12.750196704434046"><ele>512.0</ele><time>2026-04-11T13:31:40Z</time></trkpt><trkpt lat="43.332124336228844" lon="12.750294189476122"><ele>512.0</ele><time>2026-04-11T13:31:41Z</time></trkpt><trkpt lat="43.33218280147988" lon="12.75039817709099"><ele>512.75</ele><time>2026-04-11T13:31:42Z</time></trkpt><trkpt lat="43.332212603244706" lon="12.75051616726469"><ele>513.5</ele><time>2026-04-11T13:31:43Z</time></trkpt><trkpt lat="43.33224298062695" lon="12.750669504033144"><ele>514.25</ele><time>2026-04-11T13:31:44Z</time></trkpt><trkpt lat="43.332267601638314" lon="12.750827873090794"><ele>515.0</ele><time>2026-04-11T13:31:45Z</time></trkpt><trkpt lat="43.332294003384824" lon="12.751014877946014"><ele>514.5</ele><time>2026-04-11T13:31:46Z</time></trkpt><trkpt lat="43.33234926530216" lon="12.751191417992024"><ele>514.0</ele><time>2026-04-11T13:31:47Z</time></trkpt><trkpt lat="43.33239223454485" lon="12.751379259792227"><ele>513.5</ele><time>2026-04-11T13:31:48Z</time></trkpt><trkpt lat="43.33246517494803" lon="12.751558172110153"><ele>513.0</ele><time>2026-04-11T13:31:49Z</time></trkpt><trkpt lat="43.33252698550992" lon="12.751763279719775"><ele>514.6666666666666</ele><time>2026-04-11T13:31:50Z</time></trkpt><trkpt lat="43.332614879741456" lon="12.75197901965234"><ele>516.3333333333333</ele><time>2026-04-11T13:31:51Z</time></trkpt><trkpt lat="43.332727680729455" lon="12.752173263525714"><ele>518.0</ele><time>2026-04-11T13:31:52Z</time></trkpt><trkpt lat="43.332852525232504" lon="12.752354508528603"><ele>518.0</ele><time>2026-04-11T13:31:53Z</time></trkpt><trkpt lat="43.332976994686646" lon="12.752535458218329"><ele>518.0</ele><time>2026-04-11T13:31:54Z</time></trkpt><trkpt lat="43.33308616376382" lon="12.752698085659933"><ele>518.0</ele><time>2026-04-11T13:31:55Z</time></trkpt><trkpt lat="43.33316731697245" lon="12.752826740619875"><ele>518.0</ele><time>2026-04-11T13:31:56Z</time></trkpt><trkpt lat="43.333216004068476" lon="12.752955872969013"><ele>518.0</ele><time>2026-04-11T13:31:57Z</time></trkpt><trkpt lat="43.33324518152012" lon="12.753085875954834"><ele>518.0</ele><time>2026-04-11T13:31:58Z</time></trkpt><trkpt lat="43.33326759745481" lon="12.753222771748991"><ele>518.0</ele><time>2026-04-11T13:31:59Z</time></trkpt><trkpt lat="43.33329777893544" lon="12.75337878281365"><ele>518.0</ele><time>2026-04-11T13:32:00Z</time></trkpt><trkpt lat="43.3333529543479" lon="12.753557245177793"><ele>521.25</ele><time>2026-04-11T13:32:01Z</time></trkpt><trkpt lat="43.333388006559986" lon="12.75375320269636"><ele>524.5</ele><time>2026-04-11T13:32:02Z</time></trkpt><trkpt lat="43.33339699183063" lon="12.753941707976578"><ele>527.75</ele><time>2026-04-11T13:32:03Z</time></trkpt><trkpt lat="43.33331264703887" lon="12.754038645359525"><ele>531.0</ele><time>2026-04-11T13:32:04Z</time></trkpt><trkpt lat="43.33329018453277" lon="12.75413712685278"><ele>537.3333333333334</ele><time>2026-04-11T13:32:05Z</time></trkpt><trkpt lat="43.33343632100099" lon="12.754421189545782"><ele>543.6666666666667</ele><time>2026-04-11T13:32:06Z</time></trkpt><trkpt lat="43.3334545703878" lon="12.754565346853198"><ele>550.0</ele><time>2026-04-11T13:32:07Z</time></trkpt><trkpt lat="43.333751370640464" lon="12.7546660014052"><ele>550.0</ele><time>2026-04-11T13:32:08Z</time></trkpt><trkpt lat="43.33383855683102" lon="12.754819313938093"><ele>550.0</ele><time>2026-04-11T13:32:09Z</time></trkpt><trkpt lat="43.333907780909215" lon="12.754970681991363"><ele>550.0</ele><time>2026-04-11T13:32:10Z</time></trkpt><trkpt lat="43.33397611834932" lon="12.755152861951146"><ele>550.0</ele><time>2026-04-11T13:32:11Z</time></trkpt><trkpt lat="43.334026697132366" lon="12.755330513948882"><ele>550.0</ele><time>2026-04-11T13:32:12Z</time></trkpt><trkpt lat="43.33406615560125" lon="12.755503783966835"><ele>550.0</ele><time>2026-04-11T13:32:13Z</time></trkpt><trkpt lat="43.33411432107381" lon="12.75569303142564"><ele>550.0</ele><time>2026-04-11T13:32:14Z</time></trkpt><trkpt lat="43.33415990947593" lon="12.755864754724206"><ele>550.0</ele><time>2026-04-11T13:32:15Z</time></trkpt><trkpt lat="43.33419966706432" lon="12.756038784879378"><ele>553.5</ele><time>2026-04-11T13:32:16Z</time></trkpt><trkpt lat="43.33422112310108" lon="12.756209406677712"><ele>557.0</ele><time>2026-04-11T13:32:17Z</time></trkpt><trkpt lat="43.33421224966764" lon="12.75638477328389"><ele>560.5</ele><time>2026-04-11T13:32:18Z</time></trkpt><trkpt lat="43.33417071795623" lon="12.756573584581808"><ele>564.0</ele><time>2026-04-11T13:32:19Z</time></trkpt><trkpt lat="43.334146788912804" lon="12.756767041625729"><ele>567.5</ele><time>2026-04-11T13:32:20Z</time></trkpt><trkpt lat="43.334175413804665" lon="12.756949708180825"><ele>571.0</ele><time>2026-04-11T13:32:21Z</time></trkpt><trkpt lat="43.33421446661289" lon="12.75711765520904"><ele>574.5</ele><time>2026-04-11T13:32:22Z</time></trkpt><trkpt lat="43.334263743709805" lon="12.757273536928079"><ele>578.0</ele><time>2026-04-11T13:32:23Z</time></trkpt><trkpt lat="43.33433454092295" lon="12.757416984871364"><ele>578.0</ele><time>2026-04-11T13:32:24Z</time></trkpt><trkpt lat="43.334400345925644" lon="12.757542191320141"><ele>578.0</ele><time>2026-04-11T13:32:25Z</time></trkpt><trkpt lat="43.33443629601861" lon="12.757653872888419"><ele>578.0</ele><time>2026-04-11T13:32:26Z</time></trkpt><trkpt lat="43.33442436218615" lon="12.757766415444538"><ele>578.0</ele><time>2026-04-11T13:32:27Z</time></trkpt><trkpt lat="43.33440024953023" lon="12.757907216277957"><ele>578.0</ele><time>2026-04-11T13:32:28Z</time></trkpt><trkpt lat="43.334376830907885" lon="12.758056415032797"><ele>582.4</ele><time>2026-04-11T13:32:29Z</time></trkpt><trkpt lat="43.33437506426089" lon="12.758225219742808"><ele>586.8</ele><time>2026-04-11T13:32:30Z</time></trkpt><trkpt lat="43.33438637172797" lon="12.758386296307298"><ele>591.2</ele><time>2026-04-11T13:32:31Z</time></trkpt><trkpt lat="43.33437625521891" lon="12.758532873325269"><ele>595.6</ele><time>2026-04-11T13:32:32Z</time></trkpt><trkpt lat="43.3343654261483" lon="12.758664624039632"><ele>600.0</ele><time>2026-04-11T13:32:33Z</time></trkpt><trkpt lat="43.334367964056355" lon="12.758751535594573"><ele>602.8</ele><time>2026-04-11T13:32:34Z</time></trkpt><trkpt lat="43.33438135834797" lon="12.75886178788963"><ele>605.6</ele><time>2026-04-11T13:32:35Z</time></trkpt><trkpt lat="43.33443496265786" lon="12.758963462640802"><ele>608.4</ele><time>2026-04-11T13:32:36Z</time></trkpt><trkpt lat="43.3344999749415" lon="12.759082465362942"><ele>611.2</ele><time>2026-04-11T13:32:37Z</time></trkpt><trkpt lat="43.3345181324099" lon="12.759203979219192"><ele>614.0</ele><time>2026-04-11T13:32:38Z</time></trkpt><trkpt lat="43.334517382378145" lon="12.759345855516422"><ele>618.0</ele><time>2026-04-11T13:32:39Z</time></trkpt><trkpt lat="43.3345115497436" lon="12.759484547869791"><ele>622.0</ele><time>2026-04-11T13:32:40Z</time></trkpt><trkpt lat="43.33453448037671" lon="12.759632596508698"><ele>626.0</ele><time>2026-04-11T13:32:41Z</time></trkpt><trkpt lat="43.33460224325604" lon="12.759786423395287"><ele>630.0</ele><time>2026-04-11T13:32:42Z</time></trkpt><trkpt lat="43.33465139135591" lon="12.759935915181718"><ele>630.0</ele><time>2026-04-11T13:32:42.999Z</time></trkpt><trkpt lat="43.33463709219182" lon="12.760099890972027"><ele>630.0</ele><time>2026-04-11T13:32:43.999Z</time></trkpt><trkpt lat="43.33459027234797" lon="12.760272832009944"><ele>630.0</ele><time>2026-04-11T13:32:44.999Z</time></trkpt><trkpt lat="43.334551200513886" lon="12.760450845364137"><ele>630.0</ele><time>2026-04-11T13:32:45.999Z</time></trkpt><trkpt lat="43.334527210451284" lon="12.760616611875175"><ele>633.4</ele><time>2026-04-11T13:32:46.999Z</time></trkpt><trkpt lat="43.334513306906885" lon="12.760768428861649"><ele>636.8</ele><time>2026-04-11T13:32:47.999Z</time></trkpt><trkpt lat="43.33451183054624" lon="12.760905428214437"><ele>640.2</ele><time>2026-04-11T13:32:48.999Z</time></trkpt><trkpt lat="43.33449449379674" lon="12.761043869988159"><ele>643.6</ele><time>2026-04-11T13:32:49.999Z</time></trkpt><trkpt lat="43.33448726200175" lon="12.761184839639673"><ele>647.0</ele><time>2026-04-11T13:32:50.999Z</time></trkpt><trkpt lat="43.33449376479983" lon="12.76134326529386"><ele>651.25</ele><time>2026-04-11T13:32:51.999Z</time></trkpt><trkpt lat="43.33450423946025" lon="12.761493403060905"><ele>655.5</ele><time>2026-04-11T13:32:52.999Z</time></trkpt><trkpt lat="43.33450637846414" lon="12.761665235120592"><ele>659.75</ele><time>2026-04-11T13:32:53.999Z</time></trkpt><trkpt lat="43.33451422345163" lon="12.761873885558767"><ele>664.0</ele><time>2026-04-11T13:32:54.999Z</time></trkpt><trkpt lat="43.33450577659816" lon="12.762044837916605"><ele>669.25</ele><time>2026-04-11T13:32:55.999Z</time></trkpt><trkpt lat="43.33450395716837" lon="12.762220480401249"><ele>674.5</ele><time>2026-04-11T13:32:56.999Z</time></trkpt><trkpt lat="43.33450942876869" lon="12.762412031059522"><ele>679.75</ele><time>2026-04-11T13:32:57.999Z</time></trkpt><trkpt lat="43.33451624227244" lon="12.762559027144077"><ele>685.0</ele><time>2026-04-11T13:32:58.999Z</time></trkpt><trkpt lat="43.33455173683868" lon="12.76269558244522"><ele>682.0</ele><time>2026-04-11T13:32:59.999Z</time></trkpt><trkpt lat="43.33461329559776" lon="12.762833462032207"><ele>679.0</ele><time>2026-04-11T13:33:00.999Z</time></trkpt><trkpt lat="43.33467621484937" lon="12.763015149905009"><ele>676.0</ele><time>2026-04-11T13:33:01.999Z</time></trkpt><trkpt lat="43.33474581330771" lon="12.763185913349023"><ele>673.0</ele><time>2026-04-11T13:33:02.999Z</time></trkpt><trkpt lat="43.33479221449555" lon="12.763327942712083"><ele>673.0</ele><time>2026-04-11T13:33:03.999Z</time></trkpt><trkpt lat="43.334789923175684" lon="12.763479773166448"><ele>673.0</ele><time>2026-04-11T13:33:04.999Z</time></trkpt><trkpt lat="43.334795307512366" lon="12.763605987494971"><ele>673.0</ele><time>2026-04-11T13:33:05.999Z</time></trkpt><trkpt lat="43.3348175160321" lon="12.763737919918732"><ele>673.0</ele><time>2026-04-11T13:33:06.999Z</time></trkpt><trkpt lat="43.33486388996091" lon="12.763888259622199"><ele>673.0</ele><time>2026-04-11T13:33:07.999Z</time></trkpt><trkpt lat="43.3348913659932" lon="12.764051378250823"><ele>676.0</ele><time>2026-04-11T13:33:08.999Z</time></trkpt><trkpt lat="43.33492445151521" lon="12.76419673308657"><ele>679.0</ele><time>2026-04-11T13:33:09.999Z</time></trkpt><trkpt lat="43.33497388653874" lon="12.764302519681186"><ele>682.0</ele><time>2026-04-11T13:33:10.999Z</time></trkpt><trkpt lat="43.33503092366398" lon="12.764418513413508"><ele>685.0</ele><time>2026-04-11T13:33:11.999Z</time></trkpt><trkpt lat="43.335061460148566" lon="12.76449584444271"><ele>688.0</ele><time>2026-04-11T13:33:12.999Z</time></trkpt><trkpt lat="43.33509566849329" lon="12.764574054379247"><ele>691.0</ele><time>2026-04-11T13:33:13.999Z</time></trkpt><trkpt lat="43.335155491503386" lon="12.764607773635765"><ele>694.3333333333334</ele><time>2026-04-11T13:33:14.999Z</time></trkpt><trkpt lat="43.33523519169167" lon="12.764603243400332"><ele>697.6666666666667</ele><time>2026-04-11T13:33:15.999Z</time></trkpt><trkpt lat="43.335289008894264" lon="12.764652302660751"><ele>701.0</ele><time>2026-04-11T13:33:16.999Z</time></trkpt><trkpt lat="43.33535388764074" lon="12.76475774559195"><ele>704.3333333333334</ele><time>2026-04-11T13:33:17.999Z</time></trkpt><trkpt lat="43.33541145518007" lon="12.764827671494743"><ele>707.6666666666666</ele><time>2026-04-11T13:33:18.999Z</time></trkpt><trkpt lat="43.33547500199886" lon="12.764888266379137"><ele>711.0</ele><time>2026-04-11T13:33:19.999Z</time></trkpt><trkpt lat="43.335554732895645" lon="12.764946798315124"><ele>711.8333333333334</ele><time>2026-04-11T13:33:20.999Z</time></trkpt><trkpt lat="43.33561956536387" lon="12.76499514142776"><ele>712.6666666666666</ele><time>2026-04-11T13:33:21.999Z</time></trkpt><trkpt lat="43.33567615951151" lon="12.765086132701205"><ele>713.5</ele><time>2026-04-11T13:33:22.999Z</time></trkpt><trkpt lat="43.335759228640306" lon="12.765144264045224"><ele>714.3333333333333</ele><time>2026-04-11T13:33:23.999Z</time></trkpt><trkpt lat="43.33582576786231" lon="12.76513859380198"><ele>715.1666666666666</ele><time>2026-04-11T13:33:24.999Z</time></trkpt><trkpt lat="43.335902927160134" lon="12.76515748181774"><ele>716.0</ele><time>2026-04-11T13:33:25.999Z</time></trkpt><trkpt lat="43.335970247754155" lon="12.765186355292704"><ele>718.6666666666666</ele><time>2026-04-11T13:33:26.999Z</time></trkpt><trkpt lat="43.33601295945118" lon="12.765253843882771"><ele>721.3333333333333</ele><time>2026-04-11T13:33:27.999Z</time></trkpt><trkpt lat="43.33597656461106" lon="12.765424260365572"><ele>724.0</ele><time>2026-04-11T13:33:29.999Z</time></trkpt><trkpt lat="43.33595051412705" lon="12.765547692565361"><ele>726.6666666666666</ele><time>2026-04-11T13:33:30.999Z</time></trkpt><trkpt lat="43.33593193398289" lon="12.765656766630817"><ele>729.3333333333334</ele><time>2026-04-11T13:33:31.999Z</time></trkpt><trkpt lat="43.33593389020587" lon="12.765754818638648"><ele>732.0</ele><time>2026-04-11T13:33:32.999Z</time></trkpt><trkpt lat="43.336005720201534" lon="12.765852556480246"><ele>732.0</ele><time>2026-04-11T13:33:34.999Z</time></trkpt><trkpt lat="43.336075492368" lon="12.765915911975407"><ele>732.0</ele><time>2026-04-11T13:33:35.999Z</time></trkpt><trkpt lat="43.33614448940218" lon="12.765996765842296"><ele>732.0</ele><time>2026-04-11T13:33:36.999Z</time></trkpt><trkpt lat="43.33620167424557" lon="12.766091981556242"><ele>732.0</ele><time>2026-04-11T13:33:37.999Z</time></trkpt><trkpt lat="43.33624128986656" lon="12.766206199409263"><ele>732.0</ele><time>2026-04-11T13:33:38.999Z</time></trkpt><trkpt lat="43.336284499402545" lon="12.766334703853456"><ele>733.6666666666666</ele><time>2026-04-11T13:33:39.999Z</time></trkpt><trkpt lat="43.336311467341154" lon="12.766466143076004"><ele>735.3333333333334</ele><time>2026-04-11T13:33:40.999Z</time></trkpt><trkpt lat="43.33632375691287" lon="12.766575736016325"><ele>737.0</ele><time>2026-04-11T13:33:41.999Z</time></trkpt><trkpt lat="43.33634679549683" lon="12.766690990468625"><ele>738.6666666666667</ele><time>2026-04-11T13:33:42.999Z</time></trkpt><trkpt lat="43.33639617541039" lon="12.766775435129205"><ele>740.3333333333334</ele><time>2026-04-11T13:33:43.999Z</time></trkpt><trkpt lat="43.33644623076317" lon="12.766849590732862"><ele>742.0</ele><time>2026-04-11T13:33:44.999Z</time></trkpt><trkpt lat="43.336511730541496" lon="12.766885577644434"><ele>744.6</ele><time>2026-04-11T13:33:45.999Z</time></trkpt><trkpt lat="43.33660474009142" lon="12.766910623041468"><ele>747.2</ele><time>2026-04-11T13:33:47.999Z</time></trkpt><trkpt lat="43.3366659806069" lon="12.766978405424473"><ele>749.8</ele><time>2026-04-11T13:33:49.999Z</time></trkpt><trkpt lat="43.3367544802772" lon="12.767029675515312"><ele>752.4</ele><time>2026-04-11T13:33:51.999Z</time></trkpt><trkpt lat="43.33679474933962" lon="12.767164480299613"><ele>755.0</ele><time>2026-04-11T13:33:53.999Z</time></trkpt><trkpt lat="43.33674974617022" lon="12.76727712857127"><ele>755.0</ele><time>2026-04-11T13:33:54.999Z</time></trkpt><trkpt lat="43.336706081468606" lon="12.76739031325487"><ele>755.0</ele><time>2026-04-11T13:33:55.999Z</time></trkpt><trkpt lat="43.3366731030178" lon="12.767482908331921"><ele>755.0</ele><time>2026-04-11T13:33:56.999Z</time></trkpt><trkpt lat="43.3366237191129" lon="12.767595779538523"><ele>755.0</ele><time>2026-04-11T13:33:57.999Z</time></trkpt><trkpt lat="43.33658181983297" lon="12.767754134204843"><ele>755.0</ele><time>2026-04-11T13:33:58.999Z</time></trkpt><trkpt lat="43.33656259120332" lon="12.767895380808893"><ele>758.5</ele><time>2026-04-11T13:33:59.999Z</time></trkpt><trkpt lat="43.33657248792532" lon="12.768028119685722"><ele>762.0</ele><time>2026-04-11T13:34:00.999Z</time></trkpt><trkpt lat="43.33658226310209" lon="12.76818610217993"><ele>765.5</ele><time>2026-04-11T13:34:01.999Z</time></trkpt><trkpt lat="43.33655766364003" lon="12.768353563448862"><ele>769.0</ele><time>2026-04-11T13:34:02.999Z</time></trkpt><trkpt lat="43.33655244873294" lon="12.76851380959565"><ele>773.0</ele><time>2026-04-11T13:34:03.999Z</time></trkpt><trkpt lat="43.336558265533554" lon="12.768666543124608"><ele>777.0</ele><time>2026-04-11T13:34:04.999Z</time></trkpt><trkpt lat="43.33657346509908" lon="12.768831618766923"><ele>781.0</ele><time>2026-04-11T13:34:05.999Z</time></trkpt><trkpt lat="43.3366010487856" lon="12.76899603395146"><ele>785.0</ele><time>2026-04-11T13:34:06.999Z</time></trkpt><trkpt lat="43.33663051871838" lon="12.769171413100285"><ele>785.0</ele><time>2026-04-11T13:34:07.999Z</time></trkpt><trkpt lat="43.33666249094357" lon="12.769341652889516"><ele>785.0</ele><time>2026-04-11T13:34:08.999Z</time></trkpt><trkpt lat="43.336674288572105" lon="12.769514719214243"><ele>785.0</ele><time>2026-04-11T13:34:09.999Z</time></trkpt><trkpt lat="43.33669546711904" lon="12.769658084738609"><ele>785.0</ele><time>2026-04-11T13:34:10.999Z</time></trkpt><trkpt lat="43.336702305224804" lon="12.769853358401166"><ele>788.8</ele><time>2026-04-11T13:34:11.999Z</time></trkpt><trkpt lat="43.33671639173481" lon="12.77000744923823"><ele>792.6</ele><time>2026-04-11T13:34:12.999Z</time></trkpt><trkpt lat="43.336762433053536" lon="12.770146875982059"><ele>796.4000000000001</ele><time>2026-04-11T13:34:13.999Z</time></trkpt><trkpt lat="43.33681837060194" lon="12.770264447328294"><ele>800.2</ele><time>2026-04-11T13:34:14.999Z</time></trkpt><trkpt lat="43.33685689714981" lon="12.770378204097929"><ele>804.0</ele><time>2026-04-11T13:34:15.999Z</time></trkpt><trkpt lat="43.336894314476304" lon="12.770495154720779"><ele>805.8000000000001</ele><time>2026-04-11T13:34:16.999Z</time></trkpt><trkpt lat="43.3369448096006" lon="12.770599910250084"><ele>807.6</ele><time>2026-04-11T13:34:17.999Z</time></trkpt><trkpt lat="43.337013588907" lon="12.77069900721799"><ele>809.4</ele><time>2026-04-11T13:34:18.999Z</time></trkpt><trkpt lat="43.337089450662184" lon="12.77078865923654"><ele>811.2</ele><time>2026-04-11T13:34:19.999Z</time></trkpt><trkpt lat="43.3371672392525" lon="12.770876535217758"><ele>813.0</ele><time>2026-04-11T13:34:20.999Z</time></trkpt><trkpt lat="43.33725437379901" lon="12.770979409416233"><ele>815.8</ele><time>2026-04-11T13:34:21.999Z</time></trkpt><trkpt lat="43.3373214869655" lon="12.771091329667215"><ele>818.5999999999999</ele><time>2026-04-11T13:34:22.999Z</time></trkpt><trkpt lat="43.33737401184205" lon="12.771181435123406"><ele>821.4000000000001</ele><time>2026-04-11T13:34:23.999Z</time></trkpt><trkpt lat="43.337435703786" lon="12.771292975252765"><ele>824.2</ele><time>2026-04-11T13:34:24.999Z</time></trkpt><trkpt lat="43.33750506456314" lon="12.771407699885895"><ele>827.0</ele><time>2026-04-11T13:34:25.999Z</time></trkpt><trkpt lat="43.337574612428455" lon="12.77151492944278"><ele>827.0</ele><time>2026-04-11T13:34:26.999Z</time></trkpt><trkpt lat="43.33765106636487" lon="12.771621951067603"><ele>827.0</ele><time>2026-04-11T13:34:27.999Z</time></trkpt><trkpt lat="43.33773188427029" lon="12.77172128391233"><ele>827.0</ele><time>2026-04-11T13:34:28.999Z</time></trkpt><trkpt lat="43.337824007356296" lon="12.771829554254968"><ele>827.0</ele><time>2026-04-11T13:34:29.999Z</time></trkpt><trkpt lat="43.33790086287669" lon="12.771938979899508"><ele>827.0</ele><time>2026-04-11T13:34:30.999Z</time></trkpt><trkpt lat="43.33796746236319" lon="12.772055037371896"><ele>828.4000000000001</ele><time>2026-04-11T13:34:31.999Z</time></trkpt><trkpt lat="43.33800590452797" lon="12.772177338087275"><ele>829.8000000000001</ele><time>2026-04-11T13:34:32.999Z</time></trkpt><trkpt lat="43.33804375304633" lon="12.77231965748045"><ele>831.2</ele><time>2026-04-11T13:34:33.999Z</time></trkpt><trkpt lat="43.33808121236333" lon="12.772453204466549"><ele>832.6</ele><time>2026-04-11T13:34:34.999Z</time></trkpt><trkpt lat="43.33813177584439" lon="12.772579578765088"><ele>834.0</ele><time>2026-04-11T13:34:35.999Z</time></trkpt><trkpt lat="43.33817083803602" lon="12.772683276948964"><ele>837.8000000000001</ele><time>2026-04-11T13:34:36.999Z</time></trkpt><trkpt lat="43.338221528768926" lon="12.772802847796012"><ele>841.6</ele><time>2026-04-11T13:34:37.999Z</time></trkpt><trkpt lat="43.33827329730226" lon="12.772896492974576"><ele>845.4</ele><time>2026-04-11T13:34:38.999Z</time></trkpt><trkpt lat="43.338332985915216" lon="12.772978310330057"><ele>849.2</ele><time>2026-04-11T13:34:39.999Z</time></trkpt><trkpt lat="43.338382524431694" lon="12.773050999530215"><ele>853.0</ele><time>2026-04-11T13:34:40.999Z</time></trkpt><trkpt lat="43.338411210445656" lon="12.77320792391191"><ele>852.9999999999999</ele><time>2026-04-11T13:34:42.999Z</time></trkpt><trkpt lat="43.3384163617367" lon="12.773310862919057"><ele>853.0</ele><time>2026-04-11T13:34:43.999Z</time></trkpt><trkpt lat="43.338423288375424" lon="12.773437026646898"><ele>853.0</ele><time>2026-04-11T13:34:44.999Z</time></trkpt><trkpt lat="43.33844224505187" lon="12.773557464968318"><ele>853.0</ele><time>2026-04-11T13:34:45.999Z</time></trkpt><trkpt lat="43.33847583004693" lon="12.773687407589591"><ele>852.9999999999999</ele><time>2026-04-11T13:34:46.999Z</time></trkpt><trkpt lat="43.33849798115164" lon="12.773804072538674"><ele>853.0</ele><time>2026-04-11T13:34:47.999Z</time></trkpt><trkpt lat="43.33851009512789" lon="12.77392760159184"><ele>855.4999999999999</ele><time>2026-04-11T13:34:48.999Z</time></trkpt><trkpt lat="43.33852243190358" lon="12.774056838478655"><ele>858.0</ele><time>2026-04-11T13:34:50Z</time></trkpt><trkpt lat="43.33852999988723" lon="12.774177984056143"><ele>860.5</ele><time>2026-04-11T13:34:51Z</time></trkpt><trkpt lat="43.33857298446591" lon="12.774318108083792"><ele>863.0</ele><time>2026-04-11T13:34:53Z</time></trkpt><trkpt lat="43.33862735159253" lon="12.774372049296455"><ele>865.4999999999999</ele><time>2026-04-11T13:34:54Z</time></trkpt><trkpt lat="43.33868887323381" lon="12.774427340457416"><ele>868.0</ele><time>2026-04-11T13:34:55Z</time></trkpt><trkpt lat="43.338750616602276" lon="12.774458508454066"><ele>866.8</ele><time>2026-04-11T13:34:56Z</time></trkpt><trkpt lat="43.33882458050761" lon="12.774512441339546"><ele>865.5999999999999</ele><time>2026-04-11T13:34:57Z</time></trkpt><trkpt lat="43.338880856939845" lon="12.774582508255156"><ele>864.4000000000001</ele><time>2026-04-11T13:34:58Z</time></trkpt><trkpt lat="43.33894467747698" lon="12.774722875218487"><ele>863.2</ele><time>2026-04-11T13:35:00Z</time></trkpt><trkpt lat="43.338979601377375" lon="12.774880625182503"><ele>862.0</ele><time>2026-04-11T13:35:02Z</time></trkpt><trkpt lat="43.33900809139531" lon="12.774961778571562"><ele>862.0</ele><time>2026-04-11T13:35:03Z</time></trkpt><trkpt lat="43.339041729818284" lon="12.77503501003575"><ele>862.0</ele><time>2026-04-11T13:35:04Z</time></trkpt><trkpt lat="43.33907781517549" lon="12.775121716100413"><ele>862.0</ele><time>2026-04-11T13:35:05Z</time></trkpt><trkpt lat="43.33910647877089" lon="12.775221184868954"><ele>862.0</ele><time>2026-04-11T13:35:06Z</time></trkpt><trkpt lat="43.339132521994905" lon="12.775318617984576"><ele>862.0</ele><time>2026-04-11T13:35:07Z</time></trkpt><trkpt lat="43.339151544974584" lon="12.775426737332376"><ele>862.0</ele><time>2026-04-11T13:35:08Z</time></trkpt><trkpt lat="43.33916552722386" lon="12.77552464977262"><ele>862.0</ele><time>2026-04-11T13:35:09Z</time></trkpt><trkpt lat="43.33918553814099" lon="12.77563217301588"><ele>864.1666666666666</ele><time>2026-04-11T13:35:10Z</time></trkpt><trkpt lat="43.3391926290342" lon="12.775743182699674"><ele>866.3333333333333</ele><time>2026-04-11T13:35:11Z</time></trkpt><trkpt lat="43.33920356674203" lon="12.775851532579194"><ele>868.5</ele><time>2026-04-11T13:35:12Z</time></trkpt><trkpt lat="43.3392132973562" lon="12.775939779355706"><ele>870.6666666666667</ele><time>2026-04-11T13:35:13Z</time></trkpt><trkpt lat="43.33920974349884" lon="12.776087199576796"><ele>872.8333333333334</ele><time>2026-04-11T13:35:15Z</time></trkpt><trkpt lat="43.33922367344513" lon="12.776194944124752"><ele>875.0</ele><time>2026-04-11T13:35:16Z</time></trkpt><trkpt lat="43.33924840038825" lon="12.7762865604579"><ele>875.0</ele><time>2026-04-11T13:35:17Z</time></trkpt><trkpt lat="43.33935696785222" lon="12.776359269992785"><ele>875.0</ele><time>2026-04-11T13:35:19Z</time></trkpt><trkpt lat="43.339441443859116" lon="12.776251365958336"><ele>875.0</ele><time>2026-04-11T13:35:20Z</time></trkpt><trkpt lat="43.339486376910656" lon="12.776138176701224"><ele>875.0</ele><time>2026-04-11T13:35:21Z</time></trkpt><trkpt lat="43.339549528521836" lon="12.776034947344684"><ele>875.0</ele><time>2026-04-11T13:35:22Z</time></trkpt><trkpt lat="43.33964478678379" lon="12.775926489557591"><ele>875.4</ele><time>2026-04-11T13:35:23Z</time></trkpt><trkpt lat="43.33972375432582" lon="12.775841524504022"><ele>875.8</ele><time>2026-04-11T13:35:24Z</time></trkpt><trkpt lat="43.33979366176799" lon="12.775712691252963"><ele>876.2</ele><time>2026-04-11T13:35:25Z</time></trkpt><trkpt lat="43.33986790856791" lon="12.775591912869443"><ele>876.6</ele><time>2026-04-11T13:35:26Z</time></trkpt><trkpt lat="43.339951318670416" lon="12.77549522219761"><ele>877.0</ele><time>2026-04-11T13:35:27Z</time></trkpt><trkpt lat="43.34002081205119" lon="12.775433275867961"><ele>876.9999999999999</ele><time>2026-04-11T13:35:28Z</time></trkpt><trkpt lat="43.34009891699923" lon="12.775377452667898"><ele>877.0</ele><time>2026-04-11T13:35:29Z</time></trkpt><trkpt lat="43.34015407312657" lon="12.77533045006871"><ele>877.0</ele><time>2026-04-11T13:35:29.999Z</time></trkpt><trkpt lat="43.340221242740874" lon="12.775289462254252"><ele>877.0</ele><time>2026-04-11T13:35:30.999Z</time></trkpt><trkpt lat="43.34029646840987" lon="12.775280487292545"><ele>876.9999999999999</ele><time>2026-04-11T13:35:31.999Z</time></trkpt><trkpt lat="43.3403776429783" lon="12.775279334166003"><ele>877.0</ele><time>2026-04-11T13:35:32.999Z</time></trkpt><trkpt lat="43.340458442758724" lon="12.775278330112151"><ele>877.0</ele><time>2026-04-11T13:35:33.999Z</time></trkpt><trkpt lat="43.34053707962752" lon="12.775300361221726"><ele>877.0</ele><time>2026-04-11T13:35:34.999Z</time></trkpt><trkpt lat="43.340642831056215" lon="12.775327720346342"><ele>877.0</ele><time>2026-04-11T13:35:36.999Z</time></trkpt><trkpt lat="43.340749085405655" lon="12.77537819921953"><ele>877.0</ele><time>2026-04-11T13:35:38.999Z</time></trkpt><trkpt lat="43.34082038737129" lon="12.775451450666106"><ele>877.0</ele><time>2026-04-11T13:35:39.999Z</time></trkpt><trkpt lat="43.34088085437163" lon="12.775524930593013"><ele>881.2</ele><time>2026-04-11T13:35:40.999Z</time></trkpt><trkpt lat="43.34091285164028" lon="12.775619722608724"><ele>885.4000000000001</ele><time>2026-04-11T13:35:41.999Z</time></trkpt><trkpt lat="43.34092035885536" lon="12.775729332860225"><ele>889.5999999999999</ele><time>2026-04-11T13:35:42.999Z</time></trkpt><trkpt lat="43.3409104993577" lon="12.77587549613536"><ele>893.8</ele><time>2026-04-11T13:35:43.999Z</time></trkpt><trkpt lat="43.340902362609086" lon="12.776019549732636"><ele>898.0</ele><time>2026-04-11T13:35:44.999Z</time></trkpt><trkpt lat="43.34088762276882" lon="12.776207190750183"><ele>902.25</ele><time>2026-04-11T13:35:45.999Z</time></trkpt><trkpt lat="43.340882517814485" lon="12.77636803745901"><ele>906.5</ele><time>2026-04-11T13:35:46.999Z</time></trkpt><trkpt lat="43.34087738955495" lon="12.776512258399668"><ele>910.75</ele><time>2026-04-11T13:35:47.999Z</time></trkpt><trkpt lat="43.340882363787955" lon="12.776687457376982"><ele>915.0</ele><time>2026-04-11T13:35:48.999Z</time></trkpt><trkpt lat="43.34089184242401" lon="12.776830891306535"><ele>917.7142857142858</ele><time>2026-04-11T13:35:49.999Z</time></trkpt><trkpt lat="43.34089991843118" lon="12.77693920174383"><ele>920.4285714285716</ele><time>2026-04-11T13:35:50.999Z</time></trkpt><trkpt lat="43.3409108144389" lon="12.77702812842579"><ele>923.1428571428571</ele><time>2026-04-11T13:35:51.999Z</time></trkpt><trkpt lat="43.34092431300557" lon="12.777123535520383"><ele>925.8571428571429</ele><time>2026-04-11T13:35:52.999Z</time></trkpt><trkpt lat="43.34091875766174" lon="12.777234926683708"><ele>928.5714285714286</ele><time>2026-04-11T13:35:53.999Z</time></trkpt><trkpt lat="43.340901075166194" lon="12.777319000430541"><ele>931.2857142857142</ele><time>2026-04-11T13:35:54.999Z</time></trkpt><trkpt lat="43.3408841498065" lon="12.777426360884336"><ele>933.9999999999999</ele><time>2026-04-11T13:35:55.999Z</time></trkpt><trkpt lat="43.34086225718387" lon="12.777538325791173"><ele>934.0</ele><time>2026-04-11T13:35:56.999Z</time></trkpt><trkpt lat="43.3408478332967" lon="12.777659135294359"><ele>934.0000000000001</ele><time>2026-04-11T13:35:57.999Z</time></trkpt><trkpt lat="43.34084605031156" lon="12.777800592119947"><ele>934.0000000000001</ele><time>2026-04-11T13:35:58.999Z</time></trkpt><trkpt lat="43.34083372749061" lon="12.777941350588774"><ele>934.0</ele><time>2026-04-11T13:35:59.999Z</time></trkpt><trkpt lat="43.340821956038944" lon="12.778095991777908"><ele>934.0</ele><time>2026-04-11T13:36:00.999Z</time></trkpt><trkpt lat="43.34080362379091" lon="12.778243733409685"><ele>936.8000000000001</ele><time>2026-04-11T13:36:01.999Z</time></trkpt><trkpt lat="43.34078991402448" lon="12.778383282947042"><ele>939.6000000000001</ele><time>2026-04-11T13:36:02.999Z</time></trkpt><trkpt lat="43.340773842071954" lon="12.778513607186634"><ele>942.4</ele><time>2026-04-11T13:36:03.999Z</time></trkpt><trkpt lat="43.34079367492563" lon="12.778652874466268"><ele>945.2</ele><time>2026-04-11T13:36:05.999Z</time></trkpt><trkpt lat="43.3408181762929" lon="12.778786416844031"><ele>948.0</ele><time>2026-04-11T13:36:07.999Z</time></trkpt><trkpt lat="43.34083290746827" lon="12.778948781505132"><ele>950.6666666666666</ele><time>2026-04-11T13:36:09.999Z</time></trkpt><trkpt lat="43.340838431269525" lon="12.779049607550316"><ele>953.3333333333333</ele><time>2026-04-11T13:36:11.999Z</time></trkpt><trkpt lat="43.34086792046138" lon="12.77916209245525"><ele>956.0</ele><time>2026-04-11T13:36:13.999Z</time></trkpt><trkpt lat="43.34080346442999" lon="12.77926429422329"><ele>958.6666666666666</ele><time>2026-04-11T13:36:15.999Z</time></trkpt><trkpt lat="43.34075214829945" lon="12.779334371540513"><ele>961.3333333333333</ele><time>2026-04-11T13:36:16.999Z</time></trkpt><trkpt lat="43.34070184605956" lon="12.779396529766803"><ele>964.0</ele><time>2026-04-11T13:36:17.999Z</time></trkpt><trkpt lat="43.34059011786751" lon="12.779506686589057"><ele>967.3333333333333</ele><time>2026-04-11T13:36:19.999Z</time></trkpt><trkpt lat="43.34052734073286" lon="12.779578241855038"><ele>970.6666666666666</ele><time>2026-04-11T13:36:20.999Z</time></trkpt><trkpt lat="43.34045647241656" lon="12.77966768297117"><ele>974.0</ele><time>2026-04-11T13:36:21.999Z</time></trkpt><trkpt lat="43.3404028534706" lon="12.779747097326547"><ele>977.3333333333333</ele><time>2026-04-11T13:36:22.999Z</time></trkpt><trkpt lat="43.340353960751855" lon="12.779824168582717"><ele>980.6666666666666</ele><time>2026-04-11T13:36:23.999Z</time></trkpt><trkpt lat="43.34029149291584" lon="12.77992290230815"><ele>984.0</ele><time>2026-04-11T13:36:25.999Z</time></trkpt><trkpt lat="43.34023639334523" lon="12.77996555732515"><ele>984.0</ele><time>2026-04-11T13:36:26.999Z</time></trkpt><trkpt lat="43.34013206354231" lon="12.780058665670433"><ele>984.0</ele><time>2026-04-11T13:36:28.999Z</time></trkpt><trkpt lat="43.34000865500913" lon="12.780075243214426"><ele>984.0</ele><time>2026-04-11T13:36:30.999Z</time></trkpt><trkpt lat="43.339870511251696" lon="12.780130279157577"><ele>984.0</ele><time>2026-04-11T13:36:32.999Z</time></trkpt><trkpt lat="43.33980804270214" lon="12.780117020762619"><ele>984.0</ele><time>2026-04-11T13:36:33.999Z</time></trkpt><trkpt lat="43.339744390040266" lon="12.780102252504403"><ele>984.0000000000001</ele><time>2026-04-11T13:36:34.999Z</time></trkpt><trkpt lat="43.339646840161144" lon="12.780183513493869"><ele>984.0000000000001</ele><time>2026-04-11T13:36:36.999Z</time></trkpt><trkpt lat="43.33959780759831" lon="12.780309183873607"><ele>984.0</ele><time>2026-04-11T13:36:38.999Z</time></trkpt><trkpt lat="43.33952541007068" lon="12.78038139995623"><ele>984.0</ele><time>2026-04-11T13:36:40.999Z</time></trkpt><trkpt lat="43.33942336197797" lon="12.780455998238839"><ele>986.8333333333334</ele><time>2026-04-11T13:36:42.999Z</time></trkpt><trkpt lat="43.33936415256354" lon="12.780495824222333"><ele>989.6666666666667</ele><time>2026-04-11T13:36:43.999Z</time></trkpt><trkpt lat="43.33929988705115" lon="12.780521171417721"><ele>992.5</ele><time>2026-04-11T13:36:44.999Z</time></trkpt><trkpt lat="43.33917140524872" lon="12.780574909192609"><ele>995.3333333333334</ele><time>2026-04-11T13:36:46.999Z</time></trkpt><trkpt lat="43.33909540606674" lon="12.780598441537915"><ele>998.1666666666667</ele><time>2026-04-11T13:36:47.999Z</time></trkpt><trkpt lat="43.33902334654763" lon="12.78062231588988"><ele>1001.0</ele><time>2026-04-11T13:36:48.999Z</time></trkpt><trkpt lat="43.33893093760567" lon="12.78066475661088"><ele>1001.8333333333334</ele><time>2026-04-11T13:36:50.999Z</time></trkpt><trkpt lat="43.33885180444931" lon="12.780698486832641"><ele>1002.6666666666667</ele><time>2026-04-11T13:36:52.999Z</time></trkpt><trkpt lat="43.33878517494943" lon="12.780781961284031"><ele>1003.5</ele><time>2026-04-11T13:36:54.999Z</time></trkpt><trkpt lat="43.3386894721469" lon="12.78080386050362"><ele>1004.3333333333333</ele><time>2026-04-11T13:36:57Z</time></trkpt><trkpt lat="43.3386194204524" lon="12.780880716449737"><ele>1005.1666666666666</ele><time>2026-04-11T13:36:59Z</time></trkpt><trkpt lat="43.33856898802495" lon="12.780956192689738"><ele>1006.0</ele><time>2026-04-11T13:37:01Z</time></trkpt><trkpt lat="43.338504437793674" lon="12.781063877720017"><ele>1006.0</ele><time>2026-04-11T13:37:03Z</time></trkpt><trkpt lat="43.338449848697074" lon="12.781161215634064"><ele>1005.9999999999999</ele><time>2026-04-11T13:37:05Z</time></trkpt><trkpt lat="43.33837125648027" lon="12.781185798034763"><ele>1005.9999999999999</ele><time>2026-04-11T13:37:07Z</time></trkpt><trkpt lat="43.338269367807996" lon="12.781194100803761"><ele>1006.0</ele><time>2026-04-11T13:37:09Z</time></trkpt><trkpt lat="43.338225551437866" lon="12.781126132582807"><ele>1006.0</ele><time>2026-04-11T13:37:11Z</time></trkpt><trkpt lat="43.338160683290845" lon="12.780974870728892"><ele>1003.8333333333333</ele><time>2026-04-11T13:37:14Z</time></trkpt><trkpt lat="43.33810187363609" lon="12.780923520968217"><ele>1001.6666666666666</ele><time>2026-04-11T13:37:15Z</time></trkpt><trkpt lat="43.33802340216068" lon="12.780866925298653"><ele>999.5</ele><time>2026-04-11T13:37:17Z</time></trkpt><trkpt lat="43.33794831108975" lon="12.780858503493993"><ele>997.3333333333333</ele><time>2026-04-11T13:37:19Z</time></trkpt><trkpt lat="43.33787570758393" lon="12.780867143521036"><ele>995.1666666666666</ele><time>2026-04-11T13:37:21Z</time></trkpt><trkpt lat="43.33778869491477" lon="12.780901198136029"><ele>993.0</ele><time>2026-04-11T13:37:24Z</time></trkpt><trkpt lat="43.337747924086145" lon="12.781032127572514"><ele>993.0</ele><time>2026-04-11T13:43:16Z</time></trkpt><trkpt lat="43.337743665529985" lon="12.781171162704716"><ele>993.0</ele><time>2026-04-11T13:43:18Z</time></trkpt><trkpt lat="43.33775768429864" lon="12.781342351514155"><ele>993.0</ele><time>2026-04-11T13:43:20Z</time></trkpt><trkpt lat="43.3377795406086" lon="12.781427028582225"><ele>993.0</ele><time>2026-04-11T13:43:21Z</time></trkpt><trkpt lat="43.337818075646254" lon="12.781535280463341"><ele>993.0</ele><time>2026-04-11T13:43:22Z</time></trkpt><trkpt lat="43.33785889318564" lon="12.781619600956075"><ele>993.0</ele><time>2026-04-11T13:43:23Z</time></trkpt><trkpt lat="43.337890550380514" lon="12.781730072197231"><ele>993.0</ele><time>2026-04-11T13:43:24Z</time></trkpt><trkpt lat="43.33791869820644" lon="12.781840454900026"><ele>993.0</ele><time>2026-04-11T13:43:25Z</time></trkpt><trkpt lat="43.33794695131986" lon="12.781958285900762"><ele>993.0</ele><time>2026-04-11T13:43:26Z</time></trkpt><trkpt lat="43.33797569134669" lon="12.78208814016541"><ele>993.0</ele><time>2026-04-11T13:43:27Z</time></trkpt><trkpt lat="43.33802303115071" lon="12.782198188116919"><ele>996.1666666666666</ele><time>2026-04-11T13:43:28Z</time></trkpt><trkpt lat="43.33807117607703" lon="12.782287382648871"><ele>999.3333333333333</ele><time>2026-04-11T13:43:29Z</time></trkpt><trkpt lat="43.33811124237405" lon="12.782383943535507"><ele>1002.5</ele><time>2026-04-11T13:43:30Z</time></trkpt><trkpt lat="43.33816020755084" lon="12.78248085611989"><ele>1005.6666666666666</ele><time>2026-04-11T13:43:31Z</time></trkpt><trkpt lat="43.338198394693705" lon="12.782576227044819"><ele>1008.8333333333333</ele><time>2026-04-11T13:43:32Z</time></trkpt><trkpt lat="43.33824989527336" lon="12.782647303363694"><ele>1012.0</ele><time>2026-04-11T13:43:33Z</time></trkpt><trkpt lat="43.338311387611334" lon="12.782731590081873"><ele>1014.2</ele><time>2026-04-11T13:43:34Z</time></trkpt><trkpt lat="43.33836629775421" lon="12.782810452564073"><ele>1016.4000000000001</ele><time>2026-04-11T13:43:35Z</time></trkpt><trkpt lat="43.33846576986607" lon="12.78294570012512"><ele>1018.5999999999999</ele><time>2026-04-11T13:43:37Z</time></trkpt><trkpt lat="43.33856505391513" lon="12.783081002876298"><ele>1020.8</ele><time>2026-04-11T13:43:39Z</time></trkpt><trkpt lat="43.33860776537335" lon="12.783145139857261"><ele>1023.0</ele><time>2026-04-11T13:43:40Z</time></trkpt><trkpt lat="43.33868865333657" lon="12.783281951450588"><ele>1023.0</ele><time>2026-04-11T13:43:42Z</time></trkpt><trkpt lat="43.33879863068635" lon="12.783296514616358"><ele>1023.0</ele><time>2026-04-11T13:43:44Z</time></trkpt><trkpt lat="43.33888291919288" lon="12.783258150895087"><ele>1023.0</ele><time>2026-04-11T13:43:45Z</time></trkpt><trkpt lat="43.33896350122006" lon="12.783248152300015"><ele>1023.0</ele><time>2026-04-11T13:43:46Z</time></trkpt><trkpt lat="43.33903416512718" lon="12.783213664383089"><ele>1023.0</ele><time>2026-04-11T13:43:47Z</time></trkpt><trkpt lat="43.339109879536416" lon="12.783174845733928"><ele>1023.0</ele><time>2026-04-11T13:43:48Z</time></trkpt><trkpt lat="43.339191818481225" lon="12.783144264890366"><ele>1026.5</ele><time>2026-04-11T13:43:49Z</time></trkpt><trkpt lat="43.339264257561055" lon="12.783123932447454"><ele>1030.0</ele><time>2026-04-11T13:43:50Z</time></trkpt><trkpt lat="43.33933456134471" lon="12.783113502979104"><ele>1033.5</ele><time>2026-04-11T13:43:51Z</time></trkpt><trkpt lat="43.33945367569057" lon="12.783091278793975"><ele>1037.0</ele><time>2026-04-11T13:43:53Z</time></trkpt><trkpt lat="43.3395275179418" lon="12.783067471620452"><ele>1040.5</ele><time>2026-04-11T13:43:55Z</time></trkpt><trkpt lat="43.33959832992579" lon="12.783030888324305"><ele>1044.0</ele><time>2026-04-11T13:43:59Z</time></trkpt><trkpt lat="43.33967432038114" lon="12.783002356357873"><ele>1046.8333333333333</ele><time>2026-04-11T13:44:02Z</time></trkpt><trkpt lat="43.33973721522306" lon="12.782969512903835"><ele>1049.6666666666667</ele><time>2026-04-11T13:44:19.999Z</time></trkpt><trkpt lat="43.339801148549114" lon="12.782939058451236"><ele>1052.5</ele><time>2026-04-11T13:44:22.999Z</time></trkpt><trkpt lat="43.339902098204924" lon="12.782912437258023"><ele>1055.3333333333335</ele><time>2026-04-11T13:44:25.999Z</time></trkpt><trkpt lat="43.3399957080758" lon="12.78289900388499"><ele>1058.1666666666667</ele><time>2026-04-11T13:44:27.999Z</time></trkpt><trkpt lat="43.34006561488552" lon="12.782875886590093"><ele>1061.0</ele><time>2026-04-11T13:44:28.999Z</time></trkpt><trkpt lat="43.34012409154974" lon="12.782842963661475"><ele>1061.0</ele><time>2026-04-11T13:44:29.999Z</time></trkpt><trkpt lat="43.34018998529839" lon="12.782794605311746"><ele>1061.0</ele><time>2026-04-11T13:44:30.999Z</time></trkpt><trkpt lat="43.340316868222764" lon="12.782727397560755"><ele>1061.0</ele><time>2026-04-11T13:44:32.999Z</time></trkpt><trkpt lat="43.340406423057786" lon="12.782619242418905"><ele>1061.0</ele><time>2026-04-11T13:44:34.999Z</time></trkpt><trkpt lat="43.3405090972307" lon="12.782564958739265"><ele>1061.0</ele><time>2026-04-11T13:44:36.999Z</time></trkpt><trkpt lat="43.34060321358067" lon="12.782511182871493"><ele>1060.3333333333335</ele><time>2026-04-11T13:44:38.999Z</time></trkpt><trkpt lat="43.34065931518893" lon="12.782464228426122"><ele>1059.6666666666667</ele><time>2026-04-11T13:44:40.999Z</time></trkpt><trkpt lat="43.34074229243268" lon="12.782402018617475"><ele>1059.0</ele><time>2026-04-11T13:44:42.999Z</time></trkpt><trkpt lat="43.34081000260103" lon="12.782348646418042"><ele>1058.3333333333333</ele><time>2026-04-11T13:44:44.999Z</time></trkpt><trkpt lat="43.34088838839145" lon="12.782297069733037"><ele>1057.6666666666665</ele><time>2026-04-11T13:45:24.999Z</time></trkpt><trkpt lat="43.34098556353938" lon="12.782240651403944"><ele>1057.0</ele><time>2026-04-11T13:45:26.999Z</time></trkpt><trkpt lat="43.341045689099936" lon="12.782199793114984"><ele>1057.0</ele><time>2026-04-11T13:45:27.999Z</time></trkpt><trkpt lat="43.34116002243865" lon="12.78214460615075"><ele>1057.0</ele><time>2026-04-11T13:45:29.999Z</time></trkpt><trkpt lat="43.34123191200834" lon="12.782117234638743"><ele>1057.0</ele><time>2026-04-11T13:45:30.999Z</time></trkpt><trkpt lat="43.34133996859982" lon="12.78213088774965"><ele>1057.0</ele><time>2026-04-11T13:45:32.999Z</time></trkpt><trkpt lat="43.34140054460448" lon="12.782188540269416"><ele>1057.0</ele><time>2026-04-11T13:45:35.999Z</time></trkpt><trkpt lat="43.34143512014043" lon="12.782264843744956"><ele>1057.0</ele><time>2026-04-11T13:45:38.999Z</time></trkpt><trkpt lat="43.34138000368632" lon="12.782389824066556"><ele>1057.0</ele><time>2026-04-11T13:45:40.999Z</time></trkpt><trkpt lat="43.34133318310169" lon="12.782495465566837"><ele>1057.0</ele><time>2026-04-11T13:45:42.999Z</time></trkpt><trkpt lat="43.34129971089587" lon="12.782584574564815"><ele>1057.0</ele><time>2026-04-11T13:45:45.999Z</time></trkpt><trkpt lat="43.341330047415184" lon="12.782662063158686"><ele>1057.0</ele><time>2026-04-11T13:45:48.999Z</time></trkpt><trkpt lat="43.34140105872986" lon="12.782712408669767"><ele>1057.0</ele><time>2026-04-11T13:45:50.999Z</time></trkpt><trkpt lat="43.34149658697125" lon="12.782800980142339"><ele>1057.0</ele><time>2026-04-11T13:45:52.999Z</time></trkpt><trkpt lat="43.3415550329537" lon="12.782913233231257"><ele>1056.0</ele><time>2026-04-11T13:45:54.999Z</time></trkpt><trkpt lat="43.3415837317781" lon="12.7830085844414"><ele>1055.0</ele><time>2026-04-11T13:45:56.999Z</time></trkpt><trkpt lat="43.34159186455191" lon="12.78311271316832"><ele>1054.0</ele><time>2026-04-11T13:45:58.999Z</time></trkpt><trkpt lat="43.34161498196085" lon="12.78322931463991"><ele>1053.0</ele><time>2026-04-11T13:46:00.999Z</time></trkpt><trkpt lat="43.34161397971692" lon="12.783335875565948"><ele>1052.0</ele><time>2026-04-11T13:46:02.999Z</time></trkpt><trkpt lat="43.341630249821556" lon="12.783452597449537"><ele>1051.0</ele><time>2026-04-11T13:46:04.999Z</time></trkpt><trkpt lat="43.34166075879563" lon="12.783586468208265"><ele>1047.1666666666665</ele><time>2026-04-11T13:46:06.999Z</time></trkpt><trkpt lat="43.341674145969" lon="12.783671431976275"><ele>1043.3333333333333</ele><time>2026-04-11T13:46:07.999Z</time></trkpt><trkpt lat="43.34173526968196" lon="12.783826016148689"><ele>1039.5</ele><time>2026-04-11T13:46:09.999Z</time></trkpt><trkpt lat="43.3417730208446" lon="12.783902473340111"><ele>1035.6666666666667</ele><time>2026-04-11T13:46:10.999Z</time></trkpt><trkpt lat="43.34181098266832" lon="12.783986258210462"><ele>1031.8333333333335</ele><time>2026-04-11T13:46:11.999Z</time></trkpt><trkpt lat="43.34185084832475" lon="12.784053718232057"><ele>1028.0</ele><time>2026-04-11T13:46:12.999Z</time></trkpt><trkpt lat="43.34192830645644" lon="12.784193450351301"><ele>1028.0</ele><time>2026-04-11T13:46:14.999Z</time></trkpt><trkpt lat="43.34198418680053" lon="12.78425795966631"><ele>1028.0</ele><time>2026-04-11T13:46:15.999Z</time></trkpt><trkpt lat="43.3420365754935" lon="12.784347569011354"><ele>1028.0</ele><time>2026-04-11T13:46:16.999Z</time></trkpt><trkpt lat="43.342089559167775" lon="12.784437355636987"><ele>1028.0</ele><time>2026-04-11T13:46:17.999Z</time></trkpt><trkpt lat="43.34213984205657" lon="12.784508769203564"><ele>1028.0</ele><time>2026-04-11T13:46:18.999Z</time></trkpt><trkpt lat="43.34219667469031" lon="12.784580934623222"><ele>1028.0</ele><time>2026-04-11T13:46:19.999Z</time></trkpt><trkpt lat="43.34225203504252" lon="12.784647907720013"><ele>1025.7142857142858</ele><time>2026-04-11T13:46:20.999Z</time></trkpt><trkpt lat="43.342303402887545" lon="12.78472260556154"><ele>1023.4285714285716</ele><time>2026-04-11T13:46:21.999Z</time></trkpt><trkpt lat="43.3423617853963" lon="12.784807115697873"><ele>1021.1428571428572</ele><time>2026-04-11T13:46:22.999Z</time></trkpt><trkpt lat="43.342409578781776" lon="12.784880883765435"><ele>1018.8571428571429</ele><time>2026-04-11T13:46:23.999Z</time></trkpt><trkpt lat="43.34245907526886" lon="12.784936253958142"><ele>1016.5714285714287</ele><time>2026-04-11T13:46:24.999Z</time></trkpt><trkpt lat="43.34251652757395" lon="12.785003220425189"><ele>1014.2857142857144</ele><time>2026-04-11T13:46:25.999Z</time></trkpt><trkpt lat="43.3425753478693" lon="12.78507213569881"><ele>1012.0000000000001</ele><time>2026-04-11T13:46:26.999Z</time></trkpt><trkpt lat="43.34262715158137" lon="12.785130480468172"><ele>1007.5714285714287</ele><time>2026-04-11T13:46:27.999Z</time></trkpt><trkpt lat="43.34268247228168" lon="12.785195253895896"><ele>1003.1428571428571</ele><time>2026-04-11T13:46:28.999Z</time></trkpt><trkpt lat="43.34273813032341" lon="12.785244314433335"><ele>998.7142857142858</ele><time>2026-04-11T13:46:29.999Z</time></trkpt><trkpt lat="43.34279270896275" lon="12.785301392911116"><ele>994.2857142857143</ele><time>2026-04-11T13:46:30.999Z</time></trkpt><trkpt lat="43.3428463267785" lon="12.785360281167653"><ele>989.8571428571429</ele><time>2026-04-11T13:46:31.999Z</time></trkpt><trkpt lat="43.34290187702301" lon="12.785426332975895"><ele>985.4285714285714</ele><time>2026-04-11T13:46:32.999Z</time></trkpt><trkpt lat="43.34295032859592" lon="12.785486460605146"><ele>981.0</ele><time>2026-04-11T13:46:33.999Z</time></trkpt><trkpt lat="43.34300722831181" lon="12.785537131891697"><ele>983.4285714285714</ele><time>2026-04-11T13:46:34.999Z</time></trkpt><trkpt lat="43.3430593379711" lon="12.785590367667366"><ele>985.8571428571429</ele><time>2026-04-11T13:46:35.999Z</time></trkpt><trkpt lat="43.34311267759009" lon="12.785653560821705"><ele>988.2857142857143</ele><time>2026-04-11T13:46:36.999Z</time></trkpt><trkpt lat="43.34317746689301" lon="12.785703424287169"><ele>990.7142857142858</ele><time>2026-04-11T13:46:37.999Z</time></trkpt><trkpt lat="43.34324882886782" lon="12.785746190545677"><ele>993.1428571428571</ele><time>2026-04-11T13:46:38.999Z</time></trkpt><trkpt lat="43.343266455276684" lon="12.78583663910685"><ele>995.5714285714287</ele><time>2026-04-11T13:46:39.999Z</time></trkpt><trkpt lat="43.34331992661143" lon="12.785903606511337"><ele>998.0000000000001</ele><time>2026-04-11T13:46:40.999Z</time></trkpt><trkpt lat="43.343379660241474" lon="12.785963460335209"><ele>992.857142857143</ele><time>2026-04-11T13:46:41.999Z</time></trkpt><trkpt lat="43.34343870055234" lon="12.786025112163015"><ele>987.7142857142858</ele><time>2026-04-11T13:46:42.999Z</time></trkpt><trkpt lat="43.34350012943886" lon="12.786075504040978"><ele>982.5714285714286</ele><time>2026-04-11T13:46:43.999Z</time></trkpt><trkpt lat="43.34355688383724" lon="12.786125519429339"><ele>977.4285714285714</ele><time>2026-04-11T13:46:44.999Z</time></trkpt><trkpt lat="43.34361216375839" lon="12.786184813281794"><ele>972.2857142857142</ele><time>2026-04-11T13:46:45.999Z</time></trkpt><trkpt lat="43.34367111512537" lon="12.7862434986707"><ele>967.142857142857</ele><time>2026-04-11T13:46:46.999Z</time></trkpt><trkpt lat="43.3437317912142" lon="12.78631468181662"><ele>961.9999999999999</ele><time>2026-04-11T13:46:47.999Z</time></trkpt><trkpt lat="43.34379520408816" lon="12.78637216451082"><ele>962.0000000000001</ele><time>2026-04-11T13:46:48.999Z</time></trkpt><trkpt lat="43.34385844508547" lon="12.786437096773389"><ele>962.0</ele><time>2026-04-11T13:46:49.999Z</time></trkpt><trkpt lat="43.34392037371546" lon="12.786492573501636"><ele>962.0</ele><time>2026-04-11T13:46:50.999Z</time></trkpt><trkpt lat="43.34398493278995" lon="12.786541994552818"><ele>962.0</ele><time>2026-04-11T13:46:51.999Z</time></trkpt><trkpt lat="43.3440421541176" lon="12.78658389626518"><ele>962.0000000000001</ele><time>2026-04-11T13:46:52.999Z</time></trkpt><trkpt lat="43.34409466434997" lon="12.78664244336925"><ele>962.0</ele><time>2026-04-11T13:46:53.999Z</time></trkpt><trkpt lat="43.34418932478884" lon="12.7867038790367"><ele>964.0000000000001</ele><time>2026-04-11T13:46:55.999Z</time></trkpt><trkpt lat="43.34427005751922" lon="12.786703689305847"><ele>966.0</ele><time>2026-04-11T13:46:57.999Z</time></trkpt><trkpt lat="43.344330845167825" lon="12.786674569166417"><ele>968.0</ele><time>2026-04-11T13:46:59.999Z</time></trkpt><trkpt lat="43.34437168679515" lon="12.786767718717178"><ele>970.0</ele><time>2026-04-11T13:47:01.999Z</time></trkpt><trkpt lat="43.34442699565309" lon="12.786861811051745"><ele>972.0000000000001</ele><time>2026-04-11T13:47:03.999Z</time></trkpt><trkpt lat="43.34451858350985" lon="12.786897250421797"><ele>974.0</ele><time>2026-04-11T13:47:05.999Z</time></trkpt><trkpt lat="43.34459641596159" lon="12.786992706561625"><ele>970.5000000000001</ele><time>2026-04-11T13:47:07.999Z</time></trkpt><trkpt lat="43.344706410635254" lon="12.787080004084418"><ele>967.0</ele><time>2026-04-11T13:47:09.999Z</time></trkpt><trkpt lat="43.34476538526343" lon="12.787138451754021"><ele>963.5</ele><time>2026-04-11T13:47:10.999Z</time></trkpt><trkpt lat="43.344820804260664" lon="12.78720155074819"><ele>960.0</ele><time>2026-04-11T13:47:11.999Z</time></trkpt><trkpt lat="43.34488480191524" lon="12.787261226903809"><ele>956.5000000000001</ele><time>2026-04-11T13:47:12.999Z</time></trkpt><trkpt lat="43.34494163230867" lon="12.787315835998745"><ele>953.0</ele><time>2026-04-11T13:47:13.999Z</time></trkpt><trkpt lat="43.3450263333698" lon="12.78736817501098"><ele>953.0000000000001</ele><time>2026-04-11T13:47:15.999Z</time></trkpt><trkpt lat="43.34507529416167" lon="12.787428508280147"><ele>953.0</ele><time>2026-04-11T13:47:16.999Z</time></trkpt><trkpt lat="43.34511850775066" lon="12.787501458403339"><ele>953.0</ele><time>2026-04-11T13:47:17.999Z</time></trkpt><trkpt lat="43.34519893010215" lon="12.78757338967249"><ele>953.0</ele><time>2026-04-11T13:47:18.999Z</time></trkpt><trkpt lat="43.34527465875793" lon="12.787618928499493"><ele>953.0000000000001</ele><time>2026-04-11T13:47:19.999Z</time></trkpt><trkpt lat="43.34532926045127" lon="12.787675717249385"><ele>953.0</ele><time>2026-04-11T13:47:20.999Z</time></trkpt><trkpt lat="43.34538402264973" lon="12.78774847634194"><ele>949.2</ele><time>2026-04-11T13:47:21.999Z</time></trkpt><trkpt lat="43.34547458534057" lon="12.787864470358734"><ele>945.4</ele><time>2026-04-11T13:47:23.999Z</time></trkpt><trkpt lat="43.34553190228695" lon="12.787921959766141"><ele>941.6000000000001</ele><time>2026-04-11T13:47:24.999Z</time></trkpt><trkpt lat="43.34562658567066" lon="12.788000562303699"><ele>937.8000000000001</ele><time>2026-04-11T13:47:26.999Z</time></trkpt><trkpt lat="43.34568415955891" lon="12.788073856471382"><ele>934.0</ele><time>2026-04-11T13:47:27.999Z</time></trkpt><trkpt lat="43.34574766311516" lon="12.788152068466845"><ele>933.9999999999999</ele><time>2026-04-11T13:47:28.999Z</time></trkpt><trkpt lat="43.34581564852382" lon="12.788223910883106"><ele>934.0</ele><time>2026-04-11T13:47:29.999Z</time></trkpt><trkpt lat="43.345881500452755" lon="12.78831359570125"><ele>934.0</ele><time>2026-04-11T13:47:30.999Z</time></trkpt><trkpt lat="43.34594959445528" lon="12.788379578821639"><ele>934.0</ele><time>2026-04-11T13:47:31.999Z</time></trkpt><trkpt lat="43.34600210783318" lon="12.788468513488047"><ele>933.9999999999999</ele><time>2026-04-11T13:47:32.999Z</time></trkpt><trkpt lat="43.34606646476008" lon="12.78854307252436"><ele>934.0</ele><time>2026-04-11T13:47:33.999Z</time></trkpt><trkpt lat="43.346116158104024" lon="12.788597786185816"><ele>930.8000000000001</ele><time>2026-04-11T13:47:34.999Z</time></trkpt><trkpt lat="43.34617604648333" lon="12.788677776422912"><ele>927.6000000000001</ele><time>2026-04-11T13:47:35.999Z</time></trkpt><trkpt lat="43.34623188945147" lon="12.78875651688575"><ele>924.4</ele><time>2026-04-11T13:47:36.999Z</time></trkpt><trkpt lat="43.34631044869146" lon="12.788870855847774"><ele>921.2</ele><time>2026-04-11T13:47:39Z</time></trkpt><trkpt lat="43.34636704116607" lon="12.788945279738119"><ele>918.0</ele><time>2026-04-11T13:47:40Z</time></trkpt><trkpt lat="43.346430892394025" lon="12.78906838843668"><ele>918.0</ele><time>2026-04-11T13:47:42Z</time></trkpt><trkpt lat="43.34650949326908" lon="12.789115006290155"><ele>918.0</ele><time>2026-04-11T13:47:44Z</time></trkpt><trkpt lat="43.34657021651973" lon="12.789204507497075"><ele>918.0</ele><time>2026-04-11T13:47:45Z</time></trkpt><trkpt lat="43.346651587997165" lon="12.789323346098767"><ele>918.0</ele><time>2026-04-11T13:47:47Z</time></trkpt><trkpt lat="43.3467116432136" lon="12.78939581574729"><ele>918.0</ele><time>2026-04-11T13:47:48Z</time></trkpt><trkpt lat="43.34676299334877" lon="12.789474628590389"><ele>911.5</ele><time>2026-04-11T13:47:49Z</time></trkpt><trkpt lat="43.34681976852287" lon="12.789539307774898"><ele>905.0</ele><time>2026-04-11T13:47:50Z</time></trkpt><trkpt lat="43.34689377342398" lon="12.789623161211132"><ele>898.5</ele><time>2026-04-11T13:47:51Z</time></trkpt><trkpt lat="43.34695019651634" lon="12.789689695154863"><ele>892.0</ele><time>2026-04-11T13:47:52Z</time></trkpt><trkpt lat="43.34700644714844" lon="12.789773369186742"><ele>885.5</ele><time>2026-04-11T13:47:54Z</time></trkpt><trkpt lat="43.34707703927716" lon="12.78984339663355"><ele>879.0</ele><time>2026-04-11T13:47:56Z</time></trkpt><trkpt lat="43.34712194474027" lon="12.789917492412018"><ele>879.0</ele><time>2026-04-11T13:47:57Z</time></trkpt><trkpt lat="43.347171680820104" lon="12.789995158924011"><ele>879.0</ele><time>2026-04-11T13:47:58Z</time></trkpt><trkpt lat="43.34723012959337" lon="12.790064763787171"><ele>879.0</ele><time>2026-04-11T13:47:59Z</time></trkpt><trkpt lat="43.34729393167659" lon="12.790140727825653"><ele>879.0</ele><time>2026-04-11T13:48:00Z</time></trkpt><trkpt lat="43.347347307256285" lon="12.790195863385335"><ele>879.0</ele><time>2026-04-11T13:48:01Z</time></trkpt><trkpt lat="43.34745714440437" lon="12.790277304177202"><ele>879.0</ele><time>2026-04-11T13:48:03Z</time></trkpt><trkpt lat="43.34752173826395" lon="12.79033323710056"><ele>875.5</ele><time>2026-04-11T13:48:04Z</time></trkpt><trkpt lat="43.34757658092511" lon="12.79039264646537"><ele>872.0</ele><time>2026-04-11T13:48:05Z</time></trkpt><trkpt lat="43.34764299125498" lon="12.790429763333815"><ele>868.5</ele><time>2026-04-11T13:48:06Z</time></trkpt><trkpt lat="43.34771232635801" lon="12.790482668485446"><ele>865.0</ele><time>2026-04-11T13:48:07Z</time></trkpt><trkpt lat="43.347791974481694" lon="12.790532306935912"><ele>861.5</ele><time>2026-04-11T13:48:08Z</time></trkpt><trkpt lat="43.34790113228018" lon="12.79063351685028"><ele>858.0</ele><time>2026-04-11T13:48:10Z</time></trkpt><trkpt lat="43.34796441879106" lon="12.790679582886492"><ele>858.0</ele><time>2026-04-11T13:48:11Z</time></trkpt><trkpt lat="43.3480351518469" lon="12.790730982725895"><ele>858.0</ele><time>2026-04-11T13:48:12Z</time></trkpt><trkpt lat="43.34810484383302" lon="12.790770970781976"><ele>858.0</ele><time>2026-04-11T13:48:13Z</time></trkpt><trkpt lat="43.34821633617467" lon="12.79085009751979"><ele>858.0</ele><time>2026-04-11T13:48:15Z</time></trkpt><trkpt lat="43.34827548680439" lon="12.790890561661735"><ele>858.0</ele><time>2026-04-11T13:48:16Z</time></trkpt><trkpt lat="43.348337225811946" lon="12.790932051181347"><ele>858.0</ele><time>2026-04-11T13:48:17Z</time></trkpt><trkpt lat="43.34839685248215" lon="12.790965404101405"><ele>851.0</ele><time>2026-04-11T13:48:18Z</time></trkpt><trkpt lat="43.348467777615035" lon="12.791018318258498"><ele>844.0</ele><time>2026-04-11T13:48:19Z</time></trkpt><trkpt lat="43.34853670008142" lon="12.791046523125816"><ele>837.0</ele><time>2026-04-11T13:48:20Z</time></trkpt><trkpt lat="43.34861164047552" lon="12.79106797718774"><ele>830.0</ele><time>2026-04-11T13:48:21Z</time></trkpt><trkpt lat="43.3486867070845" lon="12.791100469761467"><ele>823.0</ele><time>2026-04-11T13:48:22Z</time></trkpt><trkpt lat="43.34876240069155" lon="12.791142238960926"><ele>816.0</ele><time>2026-04-11T13:48:23Z</time></trkpt><trkpt lat="43.34883346789233" lon="12.791180166722135"><ele>817.1999999999999</ele><time>2026-04-11T13:48:24Z</time></trkpt><trkpt lat="43.34889852566383" lon="12.79123305797022"><ele>818.4</ele><time>2026-04-11T13:48:25Z</time></trkpt><trkpt lat="43.34896829508303" lon="12.791268578497284"><ele>819.6</ele><time>2026-04-11T13:48:26Z</time></trkpt><trkpt lat="43.349092175458104" lon="12.791322504288813"><ele>820.8</ele><time>2026-04-11T13:48:28Z</time></trkpt><trkpt lat="43.34921772398533" lon="12.791385227736386"><ele>822.0</ele><time>2026-04-11T13:48:30Z</time></trkpt><trkpt lat="43.34932898254465" lon="12.791474099295256"><ele>822.0</ele><time>2026-04-11T13:48:32Z</time></trkpt><trkpt lat="43.34939928338173" lon="12.791547320040431"><ele>822.0</ele><time>2026-04-11T13:48:34Z</time></trkpt><trkpt lat="43.34945907994547" lon="12.791591613359236"><ele>822.0</ele><time>2026-04-11T13:49:55Z</time></trkpt><trkpt lat="43.349517234605145" lon="12.791627070840873"><ele>822.0</ele><time>2026-04-11T13:51:16Z</time></trkpt><trkpt lat="43.34957351011274" lon="12.791665961903755"><ele>822.0</ele><time>2026-04-11T13:51:31Z</time></trkpt><trkpt lat="43.349633227524" lon="12.791721050807103"><ele>822.0</ele><time>2026-04-11T13:51:39.001Z</time></trkpt><trkpt lat="43.34967906492493" lon="12.791802080082842"><ele>822.0</ele><time>2026-04-11T13:51:45.001Z</time></trkpt><trkpt lat="43.34974045617751" lon="12.791842991317402"><ele>817.1666666666666</ele><time>2026-04-11T13:51:49.001Z</time></trkpt><trkpt lat="43.34978080708638" lon="12.791928035721625"><ele>812.3333333333333</ele><time>2026-04-11T13:52:25Z</time></trkpt><trkpt lat="43.34984349633831" lon="12.791997573152997"><ele>807.5</ele><time>2026-04-11T13:52:27Z</time></trkpt><trkpt lat="43.349904629926115" lon="12.79206430816975"><ele>802.6666666666666</ele><time>2026-04-11T13:52:28Z</time></trkpt><trkpt lat="43.34998880796358" lon="12.792117147239145"><ele>797.8333333333333</ele><time>2026-04-11T13:52:29Z</time></trkpt><trkpt lat="43.350062176962275" lon="12.792157784224894"><ele>793.0</ele><time>2026-04-11T13:52:30Z</time></trkpt><trkpt lat="43.35013382644326" lon="12.792220818045397"><ele>792.9999999999999</ele><time>2026-04-11T13:52:31Z</time></trkpt><trkpt lat="43.35020826680863" lon="12.792289286052014"><ele>793.0</ele><time>2026-04-11T13:52:32Z</time></trkpt><trkpt lat="43.35029082168508" lon="12.79235309507559"><ele>793.0</ele><time>2026-04-11T13:52:33Z</time></trkpt><trkpt lat="43.35038023358477" lon="12.792434239463386"><ele>793.0</ele><time>2026-04-11T13:52:34Z</time></trkpt><trkpt lat="43.3504218272117" lon="12.792514127297286"><ele>792.9999999999999</ele><time>2026-04-11T13:52:35Z</time></trkpt><trkpt lat="43.35046000599063" lon="12.792596763354325"><ele>793.0</ele><time>2026-04-11T13:52:36Z</time></trkpt><trkpt lat="43.35049618048123" lon="12.792691192235171"><ele>792.2</ele><time>2026-04-11T13:52:37Z</time></trkpt><trkpt lat="43.3505487175244" lon="12.792759649609076"><ele>791.4</ele><time>2026-04-11T13:52:38Z</time></trkpt><trkpt lat="43.350646047440236" lon="12.792824670822222"><ele>790.6</ele><time>2026-04-11T13:52:39Z</time></trkpt><trkpt lat="43.35072490965523" lon="12.792898222682098"><ele>789.8000000000001</ele><time>2026-04-11T13:52:40Z</time></trkpt><trkpt lat="43.35079676236947" lon="12.792988300798147"><ele>789.0</ele><time>2026-04-11T13:52:41Z</time></trkpt><trkpt lat="43.35085219719736" lon="12.79307591149056"><ele>789.0</ele><time>2026-04-11T13:52:42Z</time></trkpt><trkpt lat="43.35090778909838" lon="12.793166685282594"><ele>789.0</ele><time>2026-04-11T13:52:43Z</time></trkpt><trkpt lat="43.35098493271566" lon="12.79324906217091"><ele>789.0</ele><time>2026-04-11T13:52:44Z</time></trkpt><trkpt lat="43.351055328221136" lon="12.793286459873437"><ele>789.0</ele><time>2026-04-11T13:52:45Z</time></trkpt><trkpt lat="43.35114551772772" lon="12.793357742490041"><ele>789.0</ele><time>2026-04-11T13:52:46Z</time></trkpt><trkpt lat="43.351221118781" lon="12.79342257089675"><ele>789.0</ele><time>2026-04-11T13:52:47Z</time></trkpt><trkpt lat="43.35129146045737" lon="12.793470435175458"><ele>789.0</ele><time>2026-04-11T13:52:48Z</time></trkpt><trkpt lat="43.35137202037161" lon="12.793524477184965"><ele>789.0</ele><time>2026-04-11T13:52:49Z</time></trkpt><trkpt lat="43.35144644902217" lon="12.79355895526708"><ele>789.0</ele><time>2026-04-11T13:52:50Z</time></trkpt><trkpt lat="43.35154623571649" lon="12.793616557096364"><ele>789.0</ele><time>2026-04-11T13:52:52Z</time></trkpt><trkpt lat="43.35165224874836" lon="12.793637545083989"><ele>785.8333333333334</ele><time>2026-04-11T13:52:54Z</time></trkpt><trkpt lat="43.35172158194247" lon="12.793643866312895"><ele>782.6666666666667</ele><time>2026-04-11T13:52:55Z</time></trkpt><trkpt lat="43.3517890076562" lon="12.793637835526843"><ele>779.5</ele><time>2026-04-11T13:52:56Z</time></trkpt><trkpt lat="43.35185528129398" lon="12.793622284870128"><ele>776.3333333333334</ele><time>2026-04-11T13:52:57Z</time></trkpt><trkpt lat="43.35189483580465" lon="12.793724253319757"><ele>773.1666666666667</ele><time>2026-04-11T13:53:02Z</time></trkpt><trkpt lat="43.351849935005525" lon="12.793856253566842"><ele>770.0</ele><time>2026-04-11T13:53:04Z</time></trkpt><trkpt lat="43.351836714660735" lon="12.793942332982144"><ele>770.0000000000001</ele><time>2026-04-11T13:53:05Z</time></trkpt><trkpt lat="43.351786107171435" lon="12.794065457795373"><ele>770.0</ele><time>2026-04-11T13:53:07Z</time></trkpt><trkpt lat="43.35171643776595" lon="12.794130072073727"><ele>770.0</ele><time>2026-04-11T13:53:10Z</time></trkpt><trkpt lat="43.35164955924533" lon="12.794147373342987"><ele>770.0</ele><time>2026-04-11T13:53:13Z</time></trkpt><trkpt lat="43.35168508430569" lon="12.794224611308296"><ele>770.0000000000001</ele><time>2026-04-11T13:53:16Z</time></trkpt><trkpt lat="43.35164802773106" lon="12.794128766537767"><ele>770.0</ele><time>2026-04-11T13:54:22.001Z</time></trkpt><trkpt lat="43.351579047450095" lon="12.794101564702636"><ele>770.0000000000001</ele><time>2026-04-11T13:54:25Z</time></trkpt><trkpt lat="43.35151209584571" lon="12.794056718222643"><ele>770.0</ele><time>2026-04-11T13:54:28Z</time></trkpt><trkpt lat="43.35144171805212" lon="12.79403596005363"><ele>770.0</ele><time>2026-04-11T13:54:37Z</time></trkpt><trkpt lat="43.35133125972916" lon="12.794003417355361"><ele>770.0</ele><time>2026-04-11T13:54:39Z</time></trkpt><trkpt lat="43.35124657020309" lon="12.793969169462144"><ele>770.0000000000001</ele><time>2026-04-11T13:54:40Z</time></trkpt><trkpt lat="43.35116305083746" lon="12.793926559425287"><ele>770.0</ele><time>2026-04-11T13:54:41Z</time></trkpt><trkpt lat="43.35109378055078" lon="12.793824146985555"><ele>768.0</ele><time>2026-04-11T13:54:42Z</time></trkpt><trkpt lat="43.351004423618534" lon="12.793758384921835"><ele>766.0</ele><time>2026-04-11T13:54:43Z</time></trkpt><trkpt lat="43.35092587194379" lon="12.793689700266967"><ele>764.0</ele><time>2026-04-11T13:54:44Z</time></trkpt><trkpt lat="43.35084058698964" lon="12.79360267437994"><ele>762.0</ele><time>2026-04-11T13:54:45Z</time></trkpt><trkpt lat="43.35076104198685" lon="12.79350827980145"><ele>760.0</ele><time>2026-04-11T13:54:46Z</time></trkpt><trkpt lat="43.35068507562364" lon="12.79340454688765"><ele>760.25</ele><time>2026-04-11T13:54:47Z</time></trkpt><trkpt lat="43.35060223778873" lon="12.793278694671958"><ele>760.5</ele><time>2026-04-11T13:54:48Z</time></trkpt><trkpt lat="43.350517180896915" lon="12.793153130390852"><ele>760.75</ele><time>2026-04-11T13:54:49Z</time></trkpt><trkpt lat="43.350429649544196" lon="12.793028968921844"><ele>761.0</ele><time>2026-04-11T13:54:50Z</time></trkpt><trkpt lat="43.35036295749249" lon="12.792919438695872"><ele>761.0</ele><time>2026-04-11T13:54:51Z</time></trkpt><trkpt lat="43.350306463165374" lon="12.792784360124424"><ele>761.0</ele><time>2026-04-11T13:54:52Z</time></trkpt><trkpt lat="43.35024825630277" lon="12.792665472199996"><ele>761.0</ele><time>2026-04-11T13:54:53Z</time></trkpt><trkpt lat="43.35020171504152" lon="12.792520189486375"><ele>761.0</ele><time>2026-04-11T13:54:54Z</time></trkpt><trkpt lat="43.350115538871584" lon="12.792395797776807"><ele>765.0</ele><time>2026-04-11T13:54:55Z</time></trkpt><trkpt lat="43.35000973836134" lon="12.79232219914352"><ele>769.0</ele><time>2026-04-11T13:54:56Z</time></trkpt><trkpt lat="43.34989786291241" lon="12.79222326619829"><ele>773.0</ele><time>2026-04-11T13:54:57Z</time></trkpt><trkpt lat="43.34978132209552" lon="12.792150566140585"><ele>777.0</ele><time>2026-04-11T13:54:58Z</time></trkpt><trkpt lat="43.34966193935842" lon="12.792074595938429"><ele>777.0</ele><time>2026-04-11T13:54:59Z</time></trkpt><trkpt lat="43.34954897308888" lon="12.791997954237553"><ele>777.0</ele><time>2026-04-11T13:55:00Z</time></trkpt><trkpt lat="43.34941897521271" lon="12.79191519566521"><ele>777.0</ele><time>2026-04-11T13:55:01Z</time></trkpt><trkpt lat="43.34929833111627" lon="12.79188279371004"><ele>777.0</ele><time>2026-04-11T13:55:02Z</time></trkpt><trkpt lat="43.349184532703745" lon="12.791823237942515"><ele>786.75</ele><time>2026-04-11T13:55:03Z</time></trkpt><trkpt lat="43.34906323328329" lon="12.791779535787093"><ele>796.5</ele><time>2026-04-11T13:55:04Z</time></trkpt><trkpt lat="43.348922415798945" lon="12.791758206524024"><ele>806.25</ele><time>2026-04-11T13:55:05Z</time></trkpt><trkpt lat="43.348780682087295" lon="12.791710037077507"><ele>816.0</ele><time>2026-04-11T13:55:06Z</time></trkpt><trkpt lat="43.34864965206784" lon="12.791687162327417"><ele>816.0</ele><time>2026-04-11T13:55:07Z</time></trkpt><trkpt lat="43.348514700858374" lon="12.791666634376162"><ele>816.0</ele><time>2026-04-11T13:55:08Z</time></trkpt><trkpt lat="43.34837961089036" lon="12.791651673561256"><ele>816.0</ele><time>2026-04-11T13:55:09Z</time></trkpt><trkpt lat="43.348247846918646" lon="12.79163669070355"><ele>816.0</ele><time>2026-04-11T13:55:10Z</time></trkpt><trkpt lat="43.348089700915" lon="12.791603443822376"><ele>815.0</ele><time>2026-04-11T13:55:11Z</time></trkpt><trkpt lat="43.34793905363354" lon="12.791572029378202"><ele>814.0</ele><time>2026-04-11T13:55:12Z</time></trkpt><trkpt lat="43.34779610401121" lon="12.79151356124305"><ele>813.0</ele><time>2026-04-11T13:55:13Z</time></trkpt><trkpt lat="43.34766956439542" lon="12.79147015260785"><ele>812.0</ele><time>2026-04-11T13:55:14Z</time></trkpt><trkpt lat="43.34754514748916" lon="12.791410839925977"><ele>812.0</ele><time>2026-04-11T13:55:15Z</time></trkpt><trkpt lat="43.347435585454036" lon="12.791352078724964"><ele>812.0</ele><time>2026-04-11T13:55:16Z</time></trkpt><trkpt lat="43.34729464499392" lon="12.79127208758092"><ele>812.0</ele><time>2026-04-11T13:55:17Z</time></trkpt><trkpt lat="43.34714612118426" lon="12.791213440356826"><ele>812.0</ele><time>2026-04-11T13:55:18Z</time></trkpt><trkpt lat="43.347007512876516" lon="12.791130531527545"><ele>808.75</ele><time>2026-04-11T13:55:19Z</time></trkpt><trkpt lat="43.34689261661744" lon="12.791019977857554"><ele>805.5</ele><time>2026-04-11T13:55:20Z</time></trkpt><trkpt lat="43.34677889731039" lon="12.790923757647176"><ele>802.25</ele><time>2026-04-11T13:55:21Z</time></trkpt><trkpt lat="43.34665663916754" lon="12.79081709513516"><ele>799.0</ele><time>2026-04-11T13:55:22Z</time></trkpt><trkpt lat="43.34653460098314" lon="12.790710624556501"><ele>802.25</ele><time>2026-04-11T13:55:23Z</time></trkpt><trkpt lat="43.34641322952999" lon="12.790604735652174"><ele>805.5</ele><time>2026-04-11T13:55:24Z</time></trkpt><trkpt lat="43.34629262388602" lon="12.79049951478316"><ele>808.75</ele><time>2026-04-11T13:55:25Z</time></trkpt><trkpt lat="43.3461733497191" lon="12.790396593548605"><ele>812.0</ele><time>2026-04-11T13:55:26Z</time></trkpt><trkpt lat="43.346041850834055" lon="12.790284321169946"><ele>812.0</ele><time>2026-04-11T13:55:27Z</time></trkpt><trkpt lat="43.3459160544883" lon="12.790176917424109"><ele>812.0</ele><time>2026-04-11T13:55:28Z</time></trkpt><trkpt lat="43.34578356281692" lon="12.790066047479781"><ele>812.0</ele><time>2026-04-11T13:55:29Z</time></trkpt><trkpt lat="43.34562958853588" lon="12.789943463472701"><ele>821.6666666666667</ele><time>2026-04-11T13:55:30Z</time></trkpt><trkpt lat="43.345472748254004" lon="12.789829052902244"><ele>831.3333333333333</ele><time>2026-04-11T13:55:31Z</time></trkpt><trkpt lat="43.34529017581654" lon="12.78970842842459"><ele>841.0</ele><time>2026-04-11T13:55:32Z</time></trkpt><trkpt lat="43.345108661417136" lon="12.789596711744382"><ele>841.0</ele><time>2026-04-11T13:55:33Z</time></trkpt><trkpt lat="43.344950060735776" lon="12.78951003555259"><ele>841.0</ele><time>2026-04-11T13:55:34Z</time></trkpt><trkpt lat="43.344827664107974" lon="12.789447767321926"><ele>841.0</ele><time>2026-04-11T13:55:35Z</time></trkpt><trkpt lat="43.344728808135805" lon="12.789397475660252"><ele>841.0</ele><time>2026-04-11T13:55:36Z</time></trkpt><trkpt lat="43.34464648162271" lon="12.789355592542641"><ele>845.4999999999999</ele><time>2026-04-11T13:55:37Z</time></trkpt><trkpt lat="43.34457734178803" lon="12.789320542341077"><ele>850.0</ele><time>2026-04-11T13:55:39Z</time></trkpt><trkpt lat="43.34448784998347" lon="12.789275184945556"><ele>854.5</ele><time>2026-04-11T13:55:41Z</time></trkpt><trkpt lat="43.34442658955511" lon="12.789244136150995"><ele>859.0</ele><time>2026-04-11T13:55:42Z</time></trkpt><trkpt lat="43.34430470872459" lon="12.789183505371028"><ele>863.4999999999999</ele><time>2026-04-11T13:55:44Z</time></trkpt><trkpt lat="43.34423833329331" lon="12.789150717971138"><ele>868.0</ele><time>2026-04-11T13:55:45Z</time></trkpt><trkpt lat="43.344174233014975" lon="12.789119054422455"><ele>868.0</ele><time>2026-04-11T13:55:46Z</time></trkpt><trkpt lat="43.344105019386845" lon="12.789097736422491"><ele>868.0</ele><time>2026-04-11T13:55:47Z</time></trkpt><trkpt lat="43.34403917335907" lon="12.789081063087085"><ele>868.0</ele><time>2026-04-11T13:55:48Z</time></trkpt><trkpt lat="43.34396488682056" lon="12.789061466953072"><ele>868.0</ele><time>2026-04-11T13:55:49.001Z</time></trkpt><trkpt lat="43.34388876895772" lon="12.789045247602166"><ele>868.0</ele><time>2026-04-11T13:55:50.001Z</time></trkpt><trkpt lat="43.34381275272345" lon="12.789029423818896"><ele>868.0</ele><time>2026-04-11T13:55:51.001Z</time></trkpt><trkpt lat="43.3437323062095" lon="12.78901631311408"><ele>868.0</ele><time>2026-04-11T13:55:52.001Z</time></trkpt><trkpt lat="43.34345535051154" lon="12.78965855668297"><ele>863.2</ele><time>2026-04-11T13:55:53.001Z</time></trkpt><trkpt lat="43.34336736836373" lon="12.789689090098795"><ele>858.4</ele><time>2026-04-11T13:55:54.001Z</time></trkpt><trkpt lat="43.343281367175685" lon="12.789741881569961"><ele>853.6</ele><time>2026-04-11T13:55:55.001Z</time></trkpt><trkpt lat="43.34320256080506" lon="12.789818683961457"><ele>848.8000000000001</ele><time>2026-04-11T13:55:56.001Z</time></trkpt><trkpt lat="43.34312847814583" lon="12.789898251846727"><ele>844.0</ele><time>2026-04-11T13:55:57.001Z</time></trkpt><trkpt lat="43.34304063621929" lon="12.789954087258131"><ele>843.9999999999999</ele><time>2026-04-11T13:55:58.001Z</time></trkpt><trkpt lat="43.342959583217684" lon="12.789959915933965"><ele>844.0</ele><time>2026-04-11T13:55:59.001Z</time></trkpt><trkpt lat="43.34285417681394" lon="12.78992408378337"><ele>844.0</ele><time>2026-04-11T13:56:01.001Z</time></trkpt><trkpt lat="43.34278854408046" lon="12.789908535572597"><ele>844.0</ele><time>2026-04-11T13:56:03.001Z</time></trkpt><trkpt lat="43.34274994238273" lon="12.7900355207885"><ele>843.9999999999999</ele><time>2026-04-11T13:56:05.001Z</time></trkpt><trkpt lat="43.342759585327855" lon="12.790161768312618"><ele>844.0</ele><time>2026-04-11T13:56:07.001Z</time></trkpt><trkpt lat="43.342750288097506" lon="12.79025798204461"><ele>841.3333333333333</ele><time>2026-04-11T13:56:08.001Z</time></trkpt><trkpt lat="43.34273265133854" lon="12.790357782215972"><ele>838.6666666666666</ele><time>2026-04-11T13:56:09.001Z</time></trkpt><trkpt lat="43.34271495884588" lon="12.790475551427297"><ele>836.0</ele><time>2026-04-11T13:56:10.001Z</time></trkpt><trkpt lat="43.34271572213167" lon="12.790589159711043"><ele>833.3333333333333</ele><time>2026-04-11T13:56:11.001Z</time></trkpt><trkpt lat="43.34273469710979" lon="12.790683625397175"><ele>830.6666666666666</ele><time>2026-04-11T13:56:12.001Z</time></trkpt><trkpt lat="43.342755288284046" lon="12.790776109089055"><ele>828.0</ele><time>2026-04-11T13:56:13.001Z</time></trkpt><trkpt lat="43.34273447897718" lon="12.790860875869315"><ele>828.0</ele><time>2026-04-11T13:56:14.001Z</time></trkpt><trkpt lat="43.34270283353132" lon="12.79094685739198"><ele>828.0</ele><time>2026-04-11T13:56:15.001Z</time></trkpt><trkpt lat="43.3426785732369" lon="12.791050666387623"><ele>828.0</ele><time>2026-04-11T13:56:16.001Z</time></trkpt><trkpt lat="43.342674821772384" lon="12.791155101959996"><ele>828.0</ele><time>2026-04-11T13:56:17.001Z</time></trkpt><trkpt lat="43.34267210257059" lon="12.791243566146294"><ele>828.0</ele><time>2026-04-11T13:56:18.001Z</time></trkpt><trkpt lat="43.342615681593436" lon="12.791368600458858"><ele>828.0</ele><time>2026-04-11T13:56:20.001Z</time></trkpt><trkpt lat="43.34261689283138" lon="12.791545118028903"><ele>825.0</ele><time>2026-04-11T13:56:22.001Z</time></trkpt><trkpt lat="43.34261383900431" lon="12.791643353554496"><ele>822.0</ele><time>2026-04-11T13:56:23.001Z</time></trkpt><trkpt lat="43.3425921721771" lon="12.791770148704734"><ele>819.0</ele><time>2026-04-11T13:56:24.001Z</time></trkpt><trkpt lat="43.34256016338836" lon="12.791878644132018"><ele>816.0</ele><time>2026-04-11T13:56:25.001Z</time></trkpt><trkpt lat="43.34253861415175" lon="12.791991134369486"><ele>813.0</ele><time>2026-04-11T13:56:26.001Z</time></trkpt><trkpt lat="43.34250985037487" lon="12.792132514494531"><ele>810.0</ele><time>2026-04-11T13:56:27.001Z</time></trkpt><trkpt lat="43.34248079366063" lon="12.79226511892397"><ele>805.6</ele><time>2026-04-11T13:56:28.001Z</time></trkpt><trkpt lat="43.3424421688484" lon="12.792391527582373"><ele>801.2</ele><time>2026-04-11T13:56:29.001Z</time></trkpt><trkpt lat="43.34239720658604" lon="12.792526471807124"><ele>796.8</ele><time>2026-04-11T13:56:30.001Z</time></trkpt><trkpt lat="43.3423546105356" lon="12.792654592877229"><ele>792.4</ele><time>2026-04-11T13:56:31.001Z</time></trkpt><trkpt lat="43.34231331354646" lon="12.792776437493778"><ele>788.0</ele><time>2026-04-11T13:56:32Z</time></trkpt><trkpt lat="43.34226826510491" lon="12.792900525561635"><ele>786.25</ele><time>2026-04-11T13:56:33Z</time></trkpt><trkpt lat="43.34222290524973" lon="12.793032161312105"><ele>784.5</ele><time>2026-04-11T13:56:34Z</time></trkpt><trkpt lat="43.342168028075115" lon="12.793182472621845"><ele>782.75</ele><time>2026-04-11T13:56:35Z</time></trkpt><trkpt lat="43.34211332274166" lon="12.793340249658398"><ele>781.0</ele><time>2026-04-11T13:56:36Z</time></trkpt><trkpt lat="43.34206973262391" lon="12.793507109939293"><ele>781.0</ele><time>2026-04-11T13:56:37Z</time></trkpt><trkpt lat="43.342024195342475" lon="12.793653291500478"><ele>781.0</ele><time>2026-04-11T13:56:38Z</time></trkpt><trkpt lat="43.34196966939754" lon="12.793794866235707"><ele>781.0</ele><time>2026-04-11T13:56:39Z</time></trkpt><trkpt lat="43.341906052927605" lon="12.793940057476933"><ele>781.0</ele><time>2026-04-11T13:56:40Z</time></trkpt><trkpt lat="43.3418428904751" lon="12.794063168095887"><ele>781.0</ele><time>2026-04-11T13:56:41Z</time></trkpt><trkpt lat="43.34176888846924" lon="12.79417892436188"><ele>781.0</ele><time>2026-04-11T13:56:42Z</time></trkpt><trkpt lat="43.34168131819795" lon="12.794284873916329"><ele>781.0</ele><time>2026-04-11T13:56:43Z</time></trkpt><trkpt lat="43.34160416093631" lon="12.79438750606305"><ele>781.0</ele><time>2026-04-11T13:56:44Z</time></trkpt><trkpt lat="43.341545138480626" lon="12.794500270614906"><ele>781.0</ele><time>2026-04-11T13:56:45Z</time></trkpt><trkpt lat="43.34149134307649" lon="12.794580682563714"><ele>781.8</ele><time>2026-04-11T13:56:46Z</time></trkpt><trkpt lat="43.341422717285184" lon="12.794664200040653"><ele>782.5999999999999</ele><time>2026-04-11T13:56:47Z</time></trkpt><trkpt lat="43.34136078423694" lon="12.794759725010424"><ele>783.4</ele><time>2026-04-11T13:56:48Z</time></trkpt><trkpt lat="43.341288564223525" lon="12.794849534153434"><ele>784.2</ele><time>2026-04-11T13:56:49Z</time></trkpt><trkpt lat="43.34121957199943" lon="12.79493535781139"><ele>785.0</ele><time>2026-04-11T13:56:50Z</time></trkpt><trkpt lat="43.3411568916509" lon="12.795036742333815"><ele>785.0</ele><time>2026-04-11T13:56:51Z</time></trkpt><trkpt lat="43.34110523671945" lon="12.795149344074533"><ele>785.0</ele><time>2026-04-11T13:56:52Z</time></trkpt><trkpt lat="43.34104672203977" lon="12.795266746657452"><ele>785.0</ele><time>2026-04-11T13:56:53Z</time></trkpt><trkpt lat="43.34097242603467" lon="12.79538499661865"><ele>785.0</ele><time>2026-04-11T13:56:54Z</time></trkpt><trkpt lat="43.340906067665635" lon="12.795494438996679"><ele>785.0</ele><time>2026-04-11T13:56:55Z</time></trkpt><trkpt lat="43.34083843645658" lon="12.79558746044549"><ele>779.8</ele><time>2026-04-11T13:56:56Z</time></trkpt><trkpt lat="43.340778698301826" lon="12.795676492948964"><ele>774.6</ele><time>2026-04-11T13:56:57Z</time></trkpt><trkpt lat="43.34071253173091" lon="12.795786534005112"><ele>769.4000000000001</ele><time>2026-04-11T13:56:58Z</time></trkpt><trkpt lat="43.34064583274436" lon="12.79589975402944"><ele>764.2</ele><time>2026-04-11T13:56:59Z</time></trkpt><trkpt lat="43.34058570548325" lon="12.796012544278751"><ele>759.0</ele><time>2026-04-11T13:57:00Z</time></trkpt><trkpt lat="43.34051328933481" lon="12.796147142364006"><ele>759.0</ele><time>2026-04-11T13:57:01Z</time></trkpt><trkpt lat="43.340441955924796" lon="12.79626249519677"><ele>759.0</ele><time>2026-04-11T13:57:02Z</time></trkpt><trkpt lat="43.34036599841486" lon="12.79639351495058"><ele>759.0</ele><time>2026-04-11T13:57:03Z</time></trkpt><trkpt lat="43.34028815385687" lon="12.79651697673184"><ele>759.0</ele><time>2026-04-11T13:57:04Z</time></trkpt><trkpt lat="43.340213804562595" lon="12.796667072364444"><ele>759.0</ele><time>2026-04-11T13:57:05Z</time></trkpt><trkpt lat="43.34015401018556" lon="12.796780540171113"><ele>759.0</ele><time>2026-04-11T13:57:06Z</time></trkpt><trkpt lat="43.34011576060796" lon="12.796902812085397"><ele>759.0</ele><time>2026-04-11T13:57:07Z</time></trkpt><trkpt lat="43.340091656529694" lon="12.797014208935478"><ele>759.0</ele><time>2026-04-11T13:57:08Z</time></trkpt><trkpt lat="43.34005958774485" lon="12.797102312494422"><ele>759.0</ele><time>2026-04-11T13:57:09Z</time></trkpt><trkpt lat="43.340013665522854" lon="12.797184789239095"><ele>759.0</ele><time>2026-04-11T13:57:10Z</time></trkpt><trkpt lat="43.33995435716582" lon="12.797267229941188"><ele>760.0</ele><time>2026-04-11T13:57:11Z</time></trkpt><trkpt lat="43.339876226820365" lon="12.79736871115754"><ele>761.0</ele><time>2026-04-11T13:57:12Z</time></trkpt><trkpt lat="43.33979233317373" lon="12.797469591671476"><ele>762.0</ele><time>2026-04-11T13:57:13Z</time></trkpt><trkpt lat="43.33971537835719" lon="12.797589292272482"><ele>763.0</ele><time>2026-04-11T13:57:14Z</time></trkpt><trkpt lat="43.33964268259911" lon="12.797697113094687"><ele>764.0</ele><time>2026-04-11T13:57:15Z</time></trkpt><trkpt lat="43.33956884663655" lon="12.797825359982356"><ele>758.6</ele><time>2026-04-11T13:57:16Z</time></trkpt><trkpt lat="43.33949855304226" lon="12.797949544106999"><ele>753.2</ele><time>2026-04-11T13:57:17Z</time></trkpt><trkpt lat="43.33944190349737" lon="12.79807259244631"><ele>747.8000000000001</ele><time>2026-04-11T13:57:18Z</time></trkpt><trkpt lat="43.33939939637248" lon="12.798208710730526"><ele>742.4000000000001</ele><time>2026-04-11T13:57:19Z</time></trkpt><trkpt lat="43.33937707570115" lon="12.798340678787758"><ele>737.0</ele><time>2026-04-11T13:57:20Z</time></trkpt><trkpt lat="43.33936264426596" lon="12.7984682275807"><ele>736.6666666666666</ele><time>2026-04-11T13:57:21Z</time></trkpt><trkpt lat="43.339333377740324" lon="12.798604002577978"><ele>736.3333333333333</ele><time>2026-04-11T13:57:22Z</time></trkpt><trkpt lat="43.33931451597143" lon="12.798718754393274"><ele>736.0</ele><time>2026-04-11T13:57:23Z</time></trkpt><trkpt lat="43.33931466954342" lon="12.79883683990833"><ele>735.6666666666666</ele><time>2026-04-11T13:57:24Z</time></trkpt><trkpt lat="43.33927150583839" lon="12.798960192366934"><ele>735.3333333333334</ele><time>2026-04-11T13:57:26Z</time></trkpt><trkpt lat="43.33926196831643" lon="12.799050024861723"><ele>735.0</ele><time>2026-04-11T13:57:28Z</time></trkpt><trkpt lat="43.339342973908344" lon="12.799123005648491"><ele>735.0</ele><time>2026-04-11T13:57:31Z</time></trkpt><trkpt lat="43.33940472773691" lon="12.799164799073901"><ele>735.0</ele><time>2026-04-11T13:57:32Z</time></trkpt><trkpt lat="43.339515352755846" lon="12.799168828917772"><ele>735.0</ele><time>2026-04-11T13:57:34Z</time></trkpt><trkpt lat="43.33962488354302" lon="12.799225939830084"><ele>735.0</ele><time>2026-04-11T13:57:36Z</time></trkpt><trkpt lat="43.33970069575363" lon="12.799284589529996"><ele>735.0</ele><time>2026-04-11T13:57:37Z</time></trkpt><trkpt lat="43.3397604168101" lon="12.799338031722028"><ele>734.5</ele><time>2026-04-11T13:57:38Z</time></trkpt><trkpt lat="43.33984497041564" lon="12.799388544233999"><ele>734.0</ele><time>2026-04-11T13:57:39Z</time></trkpt><trkpt lat="43.33991644811831" lon="12.799444644841701"><ele>733.5</ele><time>2026-04-11T13:57:40Z</time></trkpt><trkpt lat="43.33999333588149" lon="12.799485300461944"><ele>733.0</ele><time>2026-04-11T13:57:41Z</time></trkpt><trkpt lat="43.340059991813845" lon="12.799536526272867"><ele>732.5</ele><time>2026-04-11T13:57:42Z</time></trkpt><trkpt lat="43.34012284150862" lon="12.799596137775215"><ele>732.0</ele><time>2026-04-11T13:57:43Z</time></trkpt><trkpt lat="43.34018896270418" lon="12.799660379506031"><ele>732.0</ele><time>2026-04-11T13:57:44Z</time></trkpt><trkpt lat="43.34025440271617" lon="12.799722654543439"><ele>732.0</ele><time>2026-04-11T13:57:45Z</time></trkpt><trkpt lat="43.34031338569148" lon="12.79976853472814"><ele>732.0</ele><time>2026-04-11T13:57:46Z</time></trkpt><trkpt lat="43.340405069272435" lon="12.799853629525346"><ele>732.0</ele><time>2026-04-11T13:57:48Z</time></trkpt><trkpt lat="43.340487956949566" lon="12.799913689900169"><ele>732.0</ele><time>2026-04-11T13:57:49Z</time></trkpt><trkpt lat="43.34059928456548" lon="12.799948851010038"><ele>723.0</ele><time>2026-04-11T13:57:50Z</time></trkpt><trkpt lat="43.340709174566655" lon="12.799971149168593"><ele>714.0</ele><time>2026-04-11T13:57:51Z</time></trkpt><trkpt lat="43.34083915816169" lon="12.800024316253127"><ele>705.0</ele><time>2026-04-11T13:57:52Z</time></trkpt><trkpt lat="43.34096754796759" lon="12.80009200693532"><ele>696.0</ele><time>2026-04-11T13:57:53Z</time></trkpt><trkpt lat="43.341106578601845" lon="12.800165336892082"><ele>699.0</ele><time>2026-04-11T13:57:54.001Z</time></trkpt><trkpt lat="43.34123340647955" lon="12.800219715854452"><ele>702.0</ele><time>2026-04-11T13:57:55.001Z</time></trkpt><trkpt lat="43.34134996859016" lon="12.80026505801212"><ele>705.0</ele><time>2026-04-11T13:57:56.001Z</time></trkpt><trkpt lat="43.34145214421404" lon="12.800307830503423"><ele>708.0</ele><time>2026-04-11T13:57:57.001Z</time></trkpt><trkpt lat="43.341548012229474" lon="12.800349381947584"><ele>708.0</ele><time>2026-04-11T13:57:58.001Z</time></trkpt><trkpt lat="43.34163499053977" lon="12.800394677633689"><ele>708.0</ele><time>2026-04-11T13:57:59.001Z</time></trkpt><trkpt lat="43.34171107625853" lon="12.800444297114709"><ele>708.0</ele><time>2026-04-11T13:58:00.001Z</time></trkpt><trkpt lat="43.34178818249283" lon="12.80050950275567"><ele>708.0</ele><time>2026-04-11T13:58:01.001Z</time></trkpt><trkpt lat="43.341852829174385" lon="12.800580896525148"><ele>708.0</ele><time>2026-04-11T13:58:02.001Z</time></trkpt><trkpt lat="43.34192345209321" lon="12.800652421061624"><ele>708.0</ele><time>2026-04-11T13:58:03.001Z</time></trkpt><trkpt lat="43.341987916191094" lon="12.800738914628436"><ele>708.0</ele><time>2026-04-11T13:58:04.001Z</time></trkpt><trkpt lat="43.342056728739585" lon="12.800831272359364"><ele>708.0</ele><time>2026-04-11T13:58:05.001Z</time></trkpt><trkpt lat="43.34212246147403" lon="12.800924166853667"><ele>708.0</ele><time>2026-04-11T13:58:06.001Z</time></trkpt><trkpt lat="43.34218804339768" lon="12.801018545044688"><ele>708.0</ele><time>2026-04-11T13:58:07.001Z</time></trkpt><trkpt lat="43.34224443609724" lon="12.801126803529078"><ele>708.0</ele><time>2026-04-11T13:58:08.001Z</time></trkpt><trkpt lat="43.342306234044024" lon="12.801232201108602"><ele>702.4</ele><time>2026-04-11T13:58:09.001Z</time></trkpt><trkpt lat="43.34236954492417" lon="12.801335794523688"><ele>696.8</ele><time>2026-04-11T13:58:10.001Z</time></trkpt><trkpt lat="43.342428085594285" lon="12.80145241373093"><ele>691.2</ele><time>2026-04-11T13:58:11.001Z</time></trkpt><trkpt lat="43.34248855704294" lon="12.80156661822108"><ele>685.6</ele><time>2026-04-11T13:58:12.001Z</time></trkpt><trkpt lat="43.342543516897614" lon="12.801681533108658"><ele>680.0</ele><time>2026-04-11T13:58:13.001Z</time></trkpt><trkpt lat="43.34257936839943" lon="12.801812806462154"><ele>678.8</ele><time>2026-04-11T13:58:14.001Z</time></trkpt><trkpt lat="43.34258644665682" lon="12.801942886617958"><ele>677.6</ele><time>2026-04-11T13:58:15.001Z</time></trkpt><trkpt lat="43.342584319909555" lon="12.802083558807583"><ele>676.4000000000001</ele><time>2026-04-11T13:58:16.001Z</time></trkpt><trkpt lat="43.34260499381763" lon="12.80221643449022"><ele>675.2</ele><time>2026-04-11T13:58:17.001Z</time></trkpt><trkpt lat="43.34261697215796" lon="12.802352564327446"><ele>674.0</ele><time>2026-04-11T13:58:18.001Z</time></trkpt><trkpt lat="43.34260359998756" lon="12.802484040324961"><ele>674.0</ele><time>2026-04-11T13:58:19.001Z</time></trkpt><trkpt lat="43.34257440580313" lon="12.80261235688895"><ele>674.0</ele><time>2026-04-11T13:58:20.001Z</time></trkpt><trkpt lat="43.34252304962356" lon="12.802735020738696"><ele>674.0</ele><time>2026-04-11T13:58:21.001Z</time></trkpt><trkpt lat="43.34244826251936" lon="12.80286710986563"><ele>674.0</ele><time>2026-04-11T13:58:22.001Z</time></trkpt><trkpt lat="43.3423788900612" lon="12.803003087022176"><ele>674.0</ele><time>2026-04-11T13:58:23.001Z</time></trkpt><trkpt lat="43.34231761268602" lon="12.803159900579852"><ele>674.5</ele><time>2026-04-11T13:58:24.001Z</time></trkpt><trkpt lat="43.34224442853453" lon="12.80333206375593"><ele>675.0</ele><time>2026-04-11T13:58:25.001Z</time></trkpt><trkpt lat="43.34218876357373" lon="12.803498211123042"><ele>675.5</ele><time>2026-04-11T13:58:26.001Z</time></trkpt><trkpt lat="43.342139153040904" lon="12.803663438135224"><ele>676.0</ele><time>2026-04-11T13:58:27.001Z</time></trkpt><trkpt lat="43.34210083280474" lon="12.803832088614914"><ele>676.0</ele><time>2026-04-11T13:58:28.001Z</time></trkpt><trkpt lat="43.342051780700686" lon="12.803989660897733"><ele>676.0</ele><time>2026-04-11T13:58:29.001Z</time></trkpt><trkpt lat="43.34199087577794" lon="12.804129319848618"><ele>676.0</ele><time>2026-04-11T13:58:30.001Z</time></trkpt><trkpt lat="43.34194527607434" lon="12.804239732020125"><ele>676.0</ele><time>2026-04-11T13:58:31.001Z</time></trkpt><trkpt lat="43.34189468662928" lon="12.80430065520365"><ele>676.0</ele><time>2026-04-11T13:58:32.001Z</time></trkpt><trkpt lat="43.34183654537211" lon="12.804396545665659"><ele>670.1999999999999</ele><time>2026-04-11T13:58:34.001Z</time></trkpt><trkpt lat="43.34178952339422" lon="12.804499134116998"><ele>664.4</ele><time>2026-04-11T13:59:26Z</time></trkpt><trkpt lat="43.341752263666685" lon="12.80458910022344"><ele>658.6</ele><time>2026-04-11T13:59:28Z</time></trkpt><trkpt lat="43.34171668303377" lon="12.804749302708537"><ele>652.8</ele><time>2026-04-11T13:59:30Z</time></trkpt><trkpt lat="43.341673010968165" lon="12.804867042335754"><ele>647.0</ele><time>2026-04-11T13:59:31Z</time></trkpt><trkpt lat="43.34163204416135" lon="12.804978503766398"><ele>647.0</ele><time>2026-04-11T13:59:32Z</time></trkpt><trkpt lat="43.34160246388861" lon="12.805091308232484"><ele>647.0</ele><time>2026-04-11T13:59:33Z</time></trkpt><trkpt lat="43.34158731412548" lon="12.805200706663195"><ele>647.0</ele><time>2026-04-11T13:59:34Z</time></trkpt><trkpt lat="43.34156993660019" lon="12.805312813417995"><ele>647.0</ele><time>2026-04-11T13:59:35Z</time></trkpt><trkpt lat="43.341542469835474" lon="12.805417569241895"><ele>647.0</ele><time>2026-04-11T13:59:36Z</time></trkpt><trkpt lat="43.34147672821993" lon="12.80552883641356"><ele>647.0</ele><time>2026-04-11T13:59:37Z</time></trkpt><trkpt lat="43.341411281963964" lon="12.805656517710347"><ele>647.4000000000001</ele><time>2026-04-11T13:59:38Z</time></trkpt><trkpt lat="43.341362715832204" lon="12.80578931732734"><ele>647.8000000000001</ele><time>2026-04-11T13:59:39Z</time></trkpt><trkpt lat="43.34130544456147" lon="12.805941551106217"><ele>648.2</ele><time>2026-04-11T13:59:40Z</time></trkpt><trkpt lat="43.341222280088" lon="12.806043760018111"><ele>648.6</ele><time>2026-04-11T13:59:41Z</time></trkpt><trkpt lat="43.341150604575276" lon="12.806137316869272"><ele>649.0</ele><time>2026-04-11T13:59:42Z</time></trkpt><trkpt lat="43.3410897985799" lon="12.80624292283932"><ele>644.4000000000001</ele><time>2026-04-11T13:59:43Z</time></trkpt><trkpt lat="43.341013438743275" lon="12.806328275686116"><ele>639.8000000000001</ele><time>2026-04-11T13:59:44Z</time></trkpt><trkpt lat="43.340939983928116" lon="12.806418740889615"><ele>635.2</ele><time>2026-04-11T13:59:45Z</time></trkpt><trkpt lat="43.34087027342253" lon="12.806534769093265"><ele>630.6</ele><time>2026-04-11T13:59:46Z</time></trkpt><trkpt lat="43.340807418786376" lon="12.806635676875302"><ele>626.0</ele><time>2026-04-11T13:59:47Z</time></trkpt><trkpt lat="43.340747715052565" lon="12.806736646077207"><ele>623.0</ele><time>2026-04-11T13:59:48Z</time></trkpt><trkpt lat="43.34070425599531" lon="12.806834191572753"><ele>620.0</ele><time>2026-04-11T13:59:49Z</time></trkpt><trkpt lat="43.340663603969084" lon="12.806944679063792"><ele>617.0</ele><time>2026-04-11T13:59:50Z</time></trkpt><trkpt lat="43.3406271836943" lon="12.80706784767803"><ele>614.0</ele><time>2026-04-11T13:59:51Z</time></trkpt><trkpt lat="43.34061576911623" lon="12.807196873775396"><ele>611.0</ele><time>2026-04-11T13:59:52Z</time></trkpt><trkpt lat="43.34059944636574" lon="12.807330601072248"><ele>611.0</ele><time>2026-04-11T13:59:53Z</time></trkpt><trkpt lat="43.340565098783735" lon="12.80745314303728"><ele>611.0</ele><time>2026-04-11T13:59:54Z</time></trkpt><trkpt lat="43.34052284798218" lon="12.807598881650605"><ele>611.0</ele><time>2026-04-11T13:59:55Z</time></trkpt><trkpt lat="43.340480058507005" lon="12.807712046388644"><ele>611.0</ele><time>2026-04-11T13:59:56Z</time></trkpt><trkpt lat="43.34043949046224" lon="12.807837375775426"><ele>611.0</ele><time>2026-04-11T13:59:57Z</time></trkpt><trkpt lat="43.34038496807168" lon="12.807967969082515"><ele>612.0</ele><time>2026-04-11T13:59:58Z</time></trkpt><trkpt lat="43.340358652142775" lon="12.808091671691225"><ele>613.0</ele><time>2026-04-11T13:59:59Z</time></trkpt><trkpt lat="43.34032635180314" lon="12.80821796335634"><ele>614.0</ele><time>2026-04-11T14:00:00.001Z</time></trkpt><trkpt lat="43.340301310901495" lon="12.808333569205606"><ele>615.0</ele><time>2026-04-11T14:00:01.001Z</time></trkpt><trkpt lat="43.34029507636721" lon="12.808484587408106"><ele>616.0</ele><time>2026-04-11T14:00:03.001Z</time></trkpt><trkpt lat="43.34030446854776" lon="12.80857497963802"><ele>616.0</ele><time>2026-04-11T14:00:10.001Z</time></trkpt><trkpt lat="43.34021440111726" lon="12.808581601142762"><ele>616.0</ele><time>2026-04-11T14:00:19.001Z</time></trkpt><trkpt lat="43.34012917587334" lon="12.808554056968974"><ele>616.0</ele><time>2026-04-11T14:00:21.001Z</time></trkpt><trkpt lat="43.340006277641294" lon="12.808496946096666"><ele>616.0</ele><time>2026-04-11T14:00:23.001Z</time></trkpt><trkpt lat="43.33992943952137" lon="12.808452398616451"><ele>616.0</ele><time>2026-04-11T14:00:24.001Z</time></trkpt><trkpt lat="43.33985118623149" lon="12.808407266384712"><ele>616.0</ele><time>2026-04-11T14:00:25.001Z</time></trkpt><trkpt lat="43.33978042708091" lon="12.80838013812929"><ele>616.0</ele><time>2026-04-11T14:00:26.001Z</time></trkpt><trkpt lat="43.33970915887546" lon="12.808358826364433"><ele>616.0</ele><time>2026-04-11T14:00:46.001Z</time></trkpt><trkpt lat="43.33964367803094" lon="12.80832619060834"><ele>616.0</ele><time>2026-04-11T14:00:48.001Z</time></trkpt><trkpt lat="43.339570317879364" lon="12.80829150528794"><ele>616.0</ele><time>2026-04-11T14:00:50.001Z</time></trkpt><trkpt lat="43.33950819255881" lon="12.808252757306981"><ele>616.0</ele><time>2026-04-11T14:00:51Z</time></trkpt><trkpt lat="43.3394472295028" lon="12.808209617919994"><ele>616.0</ele><time>2026-04-11T14:00:52Z</time></trkpt><trkpt lat="43.339309884074346" lon="12.808107899390683"><ele>618.75</ele><time>2026-04-11T14:00:54Z</time></trkpt><trkpt lat="43.33920242215792" lon="12.808038814458534"><ele>621.5</ele><time>2026-04-11T14:00:55Z</time></trkpt><trkpt lat="43.33907690866851" lon="12.807974563191207"><ele>624.25</ele><time>2026-04-11T14:00:56Z</time></trkpt><trkpt lat="43.33895571447691" lon="12.80793012065151"><ele>627.0</ele><time>2026-04-11T14:00:57Z</time></trkpt><trkpt lat="43.33884818846013" lon="12.807904562523879"><ele>629.8</ele><time>2026-04-11T14:00:58Z</time></trkpt><trkpt lat="43.3387642456625" lon="12.807904821492922"><ele>632.6</ele><time>2026-04-11T14:00:59Z</time></trkpt><trkpt lat="43.338676452035706" lon="12.807955481298167"><ele>635.4</ele><time>2026-04-11T14:01:00Z</time></trkpt><trkpt lat="43.338556498296654" lon="12.808011191775003"><ele>638.1999999999999</ele><time>2026-04-11T14:01:01Z</time></trkpt><trkpt lat="43.33845186817566" lon="12.808035944748521"><ele>641.0</ele><time>2026-04-11T14:01:02Z</time></trkpt><trkpt lat="43.338356312914286" lon="12.808066980923062"><ele>641.0</ele><time>2026-04-11T14:01:02.999Z</time></trkpt><trkpt lat="43.33826749776763" lon="12.80805534263708"><ele>641.0</ele><time>2026-04-11T14:01:03.999Z</time></trkpt><trkpt lat="43.33817758382965" lon="12.808044578127511"><ele>641.0</ele><time>2026-04-11T14:01:04.999Z</time></trkpt><trkpt lat="43.3380903184317" lon="12.808033428439682"><ele>641.0</ele><time>2026-04-11T14:01:05.999Z</time></trkpt><trkpt lat="43.3379590078792" lon="12.80799882833388"><ele>641.0</ele><time>2026-04-11T14:01:06.999Z</time></trkpt><trkpt lat="43.3378293702181" lon="12.807944900129165"><ele>640.5</ele><time>2026-04-11T14:01:07.999Z</time></trkpt><trkpt lat="43.337727133044204" lon="12.807885952462476"><ele>640.0</ele><time>2026-04-11T14:01:08.999Z</time></trkpt><trkpt lat="43.3376288163038" lon="12.807828663014918"><ele>639.5</ele><time>2026-04-11T14:01:09.999Z</time></trkpt><trkpt lat="43.33753042281042" lon="12.80772377413599"><ele>639.0</ele><time>2026-04-11T14:01:10.999Z</time></trkpt><trkpt lat="43.33742562943781" lon="12.807640883863442"><ele>643.8</ele><time>2026-04-11T14:01:11.999Z</time></trkpt><trkpt lat="43.33732071997598" lon="12.807592321573495"><ele>648.5999999999999</ele><time>2026-04-11T14:01:12.999Z</time></trkpt><trkpt lat="43.33721647121746" lon="12.807504315901683"><ele>653.4</ele><time>2026-04-11T14:01:13.999Z</time></trkpt><trkpt lat="43.337156685552095" lon="12.807437318423789"><ele>658.1999999999999</ele><time>2026-04-11T14:01:14.999Z</time></trkpt><trkpt lat="43.33711292358779" lon="12.80735352372225"><ele>663.0</ele><time>2026-04-11T14:01:42.999Z</time></trkpt><trkpt lat="43.33706899173788" lon="12.8072758856154"><ele>663.0</ele><time>2026-04-11T14:01:46.999Z</time></trkpt><trkpt lat="43.33699491423567" lon="12.807210450914692"><ele>663.0</ele><time>2026-04-11T14:01:49.999Z</time></trkpt><trkpt lat="43.336908165024234" lon="12.807145078890688"><ele>663.0</ele><time>2026-04-11T14:01:52.999Z</time></trkpt><trkpt lat="43.3368214420695" lon="12.807087480026665"><ele>663.0</ele><time>2026-04-11T14:01:54.999Z</time></trkpt><trkpt lat="43.33676124289251" lon="12.807042124727126"><ele>663.0</ele><time>2026-04-11T14:01:55.999Z</time></trkpt><trkpt lat="43.33670749992548" lon="12.806993191082027"><ele>663.0</ele><time>2026-04-11T14:01:56.999Z</time></trkpt><trkpt lat="43.33660651686173" lon="12.80692980050899"><ele>663.0</ele><time>2026-04-11T14:01:58.999Z</time></trkpt><trkpt lat="43.336555272210404" lon="12.806879051163783"><ele>663.0</ele><time>2026-04-11T14:01:59.999Z</time></trkpt><trkpt lat="43.336458545219564" lon="12.806794793118428"><ele>663.0</ele><time>2026-04-11T14:02:01.999Z</time></trkpt><trkpt lat="43.33638248501612" lon="12.806735513607476"><ele>663.0</ele><time>2026-04-11T14:02:02.999Z</time></trkpt><trkpt lat="43.336312569081535" lon="12.806655386309325"><ele>663.0</ele><time>2026-04-11T14:02:03.999Z</time></trkpt><trkpt lat="43.33624034162483" lon="12.806545506144648"><ele>665.2</ele><time>2026-04-11T14:02:04.999Z</time></trkpt><trkpt lat="43.33616848589326" lon="12.806455973331879"><ele>667.4</ele><time>2026-04-11T14:02:06Z</time></trkpt><trkpt lat="43.33607769400076" lon="12.806350561357677"><ele>669.6</ele><time>2026-04-11T14:02:07Z</time></trkpt><trkpt lat="43.33599930855656" lon="12.806253926157671"><ele>671.8000000000001</ele><time>2026-04-11T14:02:08Z</time></trkpt><trkpt lat="43.33592370509844" lon="12.806183541896733"><ele>674.0</ele><time>2026-04-11T14:02:09Z</time></trkpt><trkpt lat="43.3358687520041" lon="12.806119832734296"><ele>674.0</ele><time>2026-04-11T14:02:10Z</time></trkpt><trkpt lat="43.33579238644372" lon="12.8060097535999"><ele>674.0</ele><time>2026-04-11T14:02:11Z</time></trkpt><trkpt lat="43.33572889202172" lon="12.805899895377804"><ele>674.0</ele><time>2026-04-11T14:02:12Z</time></trkpt><trkpt lat="43.3356444262516" lon="12.805780090218656"><ele>674.0</ele><time>2026-04-11T14:02:13Z</time></trkpt><trkpt lat="43.335569611920285" lon="12.80565929043585"><ele>674.0</ele><time>2026-04-11T14:02:14Z</time></trkpt><trkpt lat="43.33550373910129" lon="12.805541277812782"><ele>673.2</ele><time>2026-04-11T14:02:15Z</time></trkpt><trkpt lat="43.33545523280984" lon="12.805427534443716"><ele>672.4000000000001</ele><time>2026-04-11T14:02:16Z</time></trkpt><trkpt lat="43.33540392348858" lon="12.805341796068062"><ele>671.6</ele><time>2026-04-11T14:02:17Z</time></trkpt><trkpt lat="43.33536091581321" lon="12.805250864442883"><ele>670.8</ele><time>2026-04-11T14:02:18Z</time></trkpt><trkpt lat="43.3352675767219" lon="12.805048526602027"><ele>670.0</ele><time>2026-04-11T14:02:20Z</time></trkpt><trkpt lat="43.33522642884039" lon="12.804976635288972"><ele>675.1666666666667</ele><time>2026-04-11T14:02:21Z</time></trkpt><trkpt lat="43.33517745985469" lon="12.80489974440281"><ele>680.3333333333334</ele><time>2026-04-11T14:02:22Z</time></trkpt><trkpt lat="43.33513104986893" lon="12.804831376067032"><ele>685.5</ele><time>2026-04-11T14:02:23Z</time></trkpt><trkpt lat="43.33506064296364" lon="12.80468264741322"><ele>690.6666666666666</ele><time>2026-04-11T14:02:25Z</time></trkpt><trkpt lat="43.335017981408754" lon="12.804608436386973"><ele>695.8333333333333</ele><time>2026-04-11T14:02:26Z</time></trkpt><trkpt lat="43.33497243896457" lon="12.804529374453743"><ele>701.0</ele><time>2026-04-11T14:02:27Z</time></trkpt><trkpt lat="43.33492999738764" lon="12.804447267194401"><ele>701.0</ele><time>2026-04-11T14:02:28Z</time></trkpt><trkpt lat="43.33489254652465" lon="12.80436859130338"><ele>701.0</ele><time>2026-04-11T14:02:29Z</time></trkpt><trkpt lat="43.33483133357611" lon="12.8042520706144"><ele>701.0</ele><time>2026-04-11T14:02:31Z</time></trkpt><trkpt lat="43.33475401992524" lon="12.804133722744169"><ele>701.0</ele><time>2026-04-11T14:02:33Z</time></trkpt><trkpt lat="43.33471267121707" lon="12.804067242480842"><ele>701.0</ele><time>2026-04-11T14:02:34Z</time></trkpt><trkpt lat="43.33466381078753" lon="12.804003685370214"><ele>701.0</ele><time>2026-04-11T14:02:35Z</time></trkpt><trkpt lat="43.334585619860434" lon="12.803847775333706"><ele>700.5999999999999</ele><time>2026-04-11T14:02:37Z</time></trkpt><trkpt lat="43.334502644982784" lon="12.803702629385109"><ele>700.2</ele><time>2026-04-11T14:02:39Z</time></trkpt><trkpt lat="43.3344496887596" lon="12.803625526929634"><ele>699.8</ele><time>2026-04-11T14:02:40Z</time></trkpt><trkpt lat="43.33439658998066" lon="12.80354610709913"><ele>699.4000000000001</ele><time>2026-04-11T14:02:41Z</time></trkpt><trkpt lat="43.334336655114214" lon="12.80345089092911"><ele>699.0</ele><time>2026-04-11T14:02:42Z</time></trkpt><trkpt lat="43.33427832914105" lon="12.80335853253193"><ele>704.4285714285714</ele><time>2026-04-11T14:02:43Z</time></trkpt><trkpt lat="43.334233540524885" lon="12.80329730624817"><ele>709.8571428571429</ele><time>2026-04-11T14:02:44Z</time></trkpt><trkpt lat="43.33418751118382" lon="12.803210557539744"><ele>715.2857142857143</ele><time>2026-04-11T14:02:45Z</time></trkpt><trkpt lat="43.33414876392351" lon="12.803136671755576"><ele>720.7142857142858</ele><time>2026-04-11T14:02:46Z</time></trkpt><trkpt lat="43.334110379238716" lon="12.803058405954156"><ele>726.1428571428571</ele><time>2026-04-11T14:02:47Z</time></trkpt><trkpt lat="43.33405833424117" lon="12.802972639616446"><ele>731.5714285714287</ele><time>2026-04-11T14:02:48Z</time></trkpt><trkpt lat="43.334016724034726" lon="12.802877782928327"><ele>737.0</ele><time>2026-04-11T14:02:49Z</time></trkpt><trkpt lat="43.33397628998808" lon="12.802783094048305"><ele>737.0</ele><time>2026-04-11T14:02:50Z</time></trkpt><trkpt lat="43.333931140788366" lon="12.802696990600541"><ele>737.0</ele><time>2026-04-11T14:02:51Z</time></trkpt><trkpt lat="43.33388485893997" lon="12.80258585546277"><ele>737.0</ele><time>2026-04-11T14:02:52Z</time></trkpt><trkpt lat="43.33386228635968" lon="12.802501762347871"><ele>737.0</ele><time>2026-04-11T14:02:53Z</time></trkpt><trkpt lat="43.33383555308321" lon="12.802409743847791"><ele>737.0</ele><time>2026-04-11T14:02:53.999Z</time></trkpt><trkpt lat="43.3337895513441" lon="12.802341814551482"><ele>737.0</ele><time>2026-04-11T14:02:54.999Z</time></trkpt><trkpt lat="43.333741952549644" lon="12.802258511517422"><ele>738.4000000000001</ele><time>2026-04-11T14:02:55.999Z</time></trkpt><trkpt lat="43.33372031907798" lon="12.802150278894235"><ele>739.8000000000001</ele><time>2026-04-11T14:02:56.999Z</time></trkpt><trkpt lat="43.33371246173782" lon="12.801953943949544"><ele>741.2</ele><time>2026-04-11T14:02:58.999Z</time></trkpt><trkpt lat="43.333710208001506" lon="12.80185932063089"><ele>742.6</ele><time>2026-04-11T14:02:59.999Z</time></trkpt><trkpt lat="43.333707312515756" lon="12.801759973332764"><ele>744.0</ele><time>2026-04-11T14:03:00.999Z</time></trkpt><trkpt lat="43.333709871383874" lon="12.8015966612086"><ele>744.0</ele><time>2026-04-11T14:03:02.999Z</time></trkpt><trkpt lat="43.333709496871144" lon="12.801500501959735"><ele>744.0</ele><time>2026-04-11T14:03:03.999Z</time></trkpt><trkpt lat="43.333720946396106" lon="12.801414094296929"><ele>744.0</ele><time>2026-04-11T14:03:04.999Z</time></trkpt><trkpt lat="43.3337494943249" lon="12.801259170520266"><ele>744.0</ele><time>2026-04-11T14:03:06.999Z</time></trkpt><trkpt lat="43.33379285696732" lon="12.801082880847048"><ele>744.0</ele><time>2026-04-11T14:03:08.999Z</time></trkpt><trkpt lat="43.333806441447216" lon="12.800941484207002"><ele>748.5</ele><time>2026-04-11T14:03:10.999Z</time></trkpt><trkpt lat="43.33376243863596" lon="12.80082162469661"><ele>753.0</ele><time>2026-04-11T14:03:12.999Z</time></trkpt><trkpt lat="43.33372465994074" lon="12.800731392807332"><ele>757.5</ele><time>2026-04-11T14:03:14.999Z</time></trkpt><trkpt lat="43.333677258601796" lon="12.800669012579002"><ele>762.0</ele><time>2026-04-11T14:03:17.999Z</time></trkpt><trkpt lat="43.33361734931758" lon="12.8005629516321"><ele>766.5</ele><time>2026-04-11T14:03:19.999Z</time></trkpt><trkpt lat="43.333572054785165" lon="12.800490638089386"><ele>771.0</ele><time>2026-04-11T14:03:21.999Z</time></trkpt><trkpt lat="43.33353768544769" lon="12.800409837966658"><ele>771.0</ele><time>2026-04-11T14:03:23.999Z</time></trkpt><trkpt lat="43.333484963082796" lon="12.80032094320948"><ele>771.0</ele><time>2026-04-11T14:03:48.999Z</time></trkpt><trkpt lat="43.33342183846213" lon="12.800259472782352"><ele>771.0</ele><time>2026-04-11T14:03:50.999Z</time></trkpt><trkpt lat="43.333336088665064" lon="12.800165939193215"><ele>771.0</ele><time>2026-04-11T14:03:53.999Z</time></trkpt><trkpt lat="43.33325457050018" lon="12.800105480608316"><ele>771.0</ele><time>2026-04-11T14:03:55.999Z</time></trkpt><trkpt lat="43.33319016439384" lon="12.800043806679817"><ele>771.0</ele><time>2026-04-11T14:03:57.999Z</time></trkpt><trkpt lat="43.33310893393562" lon="12.799979456344772"><ele>773.5999999999999</ele><time>2026-04-11T14:05:27.999Z</time></trkpt><trkpt lat="43.33305836791659" lon="12.799915516645708"><ele>776.2</ele><time>2026-04-11T14:05:29.999Z</time></trkpt><trkpt lat="43.33297370055982" lon="12.79982734572439"><ele>778.8</ele><time>2026-04-11T14:05:31.999Z</time></trkpt><trkpt lat="43.33290316711769" lon="12.799759154313307"><ele>781.4000000000001</ele><time>2026-04-11T14:05:33.999Z</time></trkpt><trkpt lat="43.33279905185247" lon="12.799670236255729"><ele>784.0</ele><time>2026-04-11T14:05:35.999Z</time></trkpt><trkpt lat="43.332705128132126" lon="12.799612380494269"><ele>783.9999999999999</ele><time>2026-04-11T14:05:37.999Z</time></trkpt><trkpt lat="43.33259665494813" lon="12.799531556867908"><ele>784.0</ele><time>2026-04-11T14:05:39.999Z</time></trkpt><trkpt lat="43.3325303613018" lon="12.799485157924716"><ele>784.0</ele><time>2026-04-11T14:05:40.999Z</time></trkpt><trkpt lat="43.332467049302856" lon="12.799431684000892"><ele>784.0</ele><time>2026-04-11T14:05:41.999Z</time></trkpt><trkpt lat="43.33241205493321" lon="12.79938842269927"><ele>783.9999999999999</ele><time>2026-04-11T14:05:42.999Z</time></trkpt><trkpt lat="43.33233892509569" lon="12.799298172758116"><ele>784.0</ele><time>2026-04-11T14:05:44.999Z</time></trkpt><trkpt lat="43.33240829834477" lon="12.799341990571559"><ele>783.9999999999999</ele><time>2026-04-11T14:07:40.999Z</time></trkpt><trkpt lat="43.332502123721234" lon="12.799404866469613"><ele>784.0</ele><time>2026-04-11T14:07:43.999Z</time></trkpt><trkpt lat="43.332568171083565" lon="12.799466073798657"><ele>784.0</ele><time>2026-04-11T14:07:45.999Z</time></trkpt><trkpt lat="43.33265742833123" lon="12.79952513837002"><ele>784.0</ele><time>2026-04-11T14:07:47.999Z</time></trkpt><trkpt lat="43.33273200010378" lon="12.799571102641346"><ele>783.9999999999999</ele><time>2026-04-11T14:07:49.999Z</time></trkpt><trkpt lat="43.33280008574707" lon="12.799618682163613"><ele>784.0</ele><time>2026-04-11T14:07:51.999Z</time></trkpt><trkpt lat="43.33286794170433" lon="12.799680382533511"><ele>783.9999999999999</ele><time>2026-04-11T14:07:53.999Z</time></trkpt><trkpt lat="43.33293430038058" lon="12.799751426177645"><ele>784.0</ele><time>2026-04-11T14:07:56.999Z</time></trkpt><trkpt lat="43.33300985993593" lon="12.799817714499113"><ele>784.0</ele><time>2026-04-11T14:07:59.999Z</time></trkpt><trkpt lat="43.333056104102" lon="12.799891053960499"><ele>784.0</ele><time>2026-04-11T14:08:01.999Z</time></trkpt><trkpt lat="43.333115959176375" lon="12.799935305623498"><ele>783.9999999999999</ele><time>2026-04-11T14:08:03.999Z</time></trkpt><trkpt lat="43.33317755003318" lon="12.79997902055361"><ele>784.0</ele><time>2026-04-11T14:08:05.999Z</time></trkpt><trkpt lat="43.33323634040678" lon="12.800029882239851"><ele>782.1428571428571</ele><time>2026-04-11T14:08:07.999Z</time></trkpt><trkpt lat="43.33329824720263" lon="12.800091760804612"><ele>780.2857142857142</ele><time>2026-04-11T14:08:09.999Z</time></trkpt><trkpt lat="43.3333586807392" lon="12.8001543868359"><ele>778.4285714285714</ele><time>2026-04-11T14:08:11.999Z</time></trkpt><trkpt lat="43.33341338115758" lon="12.800205551772876"><ele>776.5714285714286</ele><time>2026-04-11T14:08:27Z</time></trkpt><trkpt lat="43.33347680361492" lon="12.800247970154084"><ele>774.7142857142857</ele><time>2026-04-11T14:08:29Z</time></trkpt><trkpt lat="43.33352554248785" lon="12.800313748692394"><ele>772.8571428571429</ele><time>2026-04-11T14:08:31Z</time></trkpt><trkpt lat="43.33356991351063" lon="12.800382810964752"><ele>771.0</ele><time>2026-04-11T14:08:34Z</time></trkpt><trkpt lat="43.33362512642168" lon="12.800485694797214"><ele>771.0</ele><time>2026-04-11T14:08:37Z</time></trkpt><trkpt lat="43.33369564088517" lon="12.800593287816277"><ele>771.0</ele><time>2026-04-11T14:08:39Z</time></trkpt><trkpt lat="43.33373750329956" lon="12.800687587805003"><ele>771.0</ele><time>2026-04-11T14:08:41Z</time></trkpt><trkpt lat="43.33379112112308" lon="12.800806950005292"><ele>771.0</ele><time>2026-04-11T14:08:43Z</time></trkpt><trkpt lat="43.33382268186308" lon="12.800950827131038"><ele>771.0</ele><time>2026-04-11T14:08:45Z</time></trkpt><trkpt lat="43.33378497494052" lon="12.801037262874743"><ele>765.5999999999999</ele><time>2026-04-11T14:08:47Z</time></trkpt><trkpt lat="43.33374635850139" lon="12.801152527056178"><ele>760.2</ele><time>2026-04-11T14:08:49Z</time></trkpt><trkpt lat="43.333715730716975" lon="12.80131021569948"><ele>754.8</ele><time>2026-04-11T14:08:51Z</time></trkpt><trkpt lat="43.33369411458108" lon="12.801462060900466"><ele>749.4000000000001</ele><time>2026-04-11T14:08:53Z</time></trkpt><trkpt lat="43.33369691994831" lon="12.801633603605097"><ele>744.0</ele><time>2026-04-11T14:08:55Z</time></trkpt><trkpt lat="43.33370215045472" lon="12.801726186340158"><ele>740.2</ele><time>2026-04-11T14:08:56Z</time></trkpt><trkpt lat="43.33370408618503" lon="12.80187886533566"><ele>736.4000000000001</ele><time>2026-04-11T14:08:58Z</time></trkpt><trkpt lat="43.33371311622997" lon="12.80203988268612"><ele>732.6</ele><time>2026-04-11T14:09:00Z</time></trkpt><trkpt lat="43.333741782771334" lon="12.802185018552585"><ele>728.8</ele><time>2026-04-11T14:09:02Z</time></trkpt><trkpt lat="43.33378847840749" lon="12.802314867827075"><ele>725.0</ele><time>2026-04-11T14:09:04Z</time></trkpt><trkpt lat="43.33385956857047" lon="12.802455454787037"><ele>727.4</ele><time>2026-04-11T14:09:06Z</time></trkpt><trkpt lat="43.33391785093812" lon="12.802588555722062"><ele>729.8</ele><time>2026-04-11T14:09:07.999Z</time></trkpt><trkpt lat="43.333977215332624" lon="12.802750551773665"><ele>732.2</ele><time>2026-04-11T14:09:09.999Z</time></trkpt><trkpt lat="43.33401340828211" lon="12.802830816777742"><ele>734.6</ele><time>2026-04-11T14:09:10.999Z</time></trkpt><trkpt lat="43.3340882519942" lon="12.80296468365394"><ele>737.0</ele><time>2026-04-11T14:09:12.999Z</time></trkpt><trkpt lat="43.33411989499075" lon="12.803043452683381"><ele>737.0</ele><time>2026-04-11T14:09:13.999Z</time></trkpt><trkpt lat="43.33415169398073" lon="12.803124159021548"><ele>737.0</ele><time>2026-04-11T14:09:14.999Z</time></trkpt><trkpt lat="43.33418674399808" lon="12.803200768650289"><ele>737.0</ele><time>2026-04-11T14:09:15.999Z</time></trkpt><trkpt lat="43.33426630663804" lon="12.8033405180795"><ele>737.0</ele><time>2026-04-11T14:09:17.999Z</time></trkpt><trkpt lat="43.33430761514487" lon="12.803416449726786"><ele>737.0</ele><time>2026-04-11T14:09:18.999Z</time></trkpt><trkpt lat="43.33439948996721" lon="12.80353477151217"><ele>737.1428571428572</ele><time>2026-04-11T14:09:20.999Z</time></trkpt><trkpt lat="43.33445261895996" lon="12.803592519390964"><ele>737.2857142857143</ele><time>2026-04-11T14:09:21.999Z</time></trkpt><trkpt lat="43.33449718286426" lon="12.803665382376526"><ele>737.4285714285714</ele><time>2026-04-11T14:09:22.999Z</time></trkpt><trkpt lat="43.33454741960153" lon="12.80374293152549"><ele>737.5714285714287</ele><time>2026-04-11T14:09:23.999Z</time></trkpt><trkpt lat="43.33459791203266" lon="12.803820653892958"><ele>737.7142857142857</ele><time>2026-04-11T14:09:24.999Z</time></trkpt><trkpt lat="43.33464971320597" lon="12.80389589383057"><ele>737.8571428571429</ele><time>2026-04-11T14:09:25.999Z</time></trkpt><trkpt lat="43.334700540220794" lon="12.803976392977527"><ele>738.0</ele><time>2026-04-11T14:09:26.999Z</time></trkpt><trkpt lat="43.3347522599437" lon="12.804067851819942"><ele>738.0</ele><time>2026-04-11T14:09:27.999Z</time></trkpt><trkpt lat="43.33481969503703" lon="12.804185310995006"><ele>738.0</ele><time>2026-04-11T14:09:29.999Z</time></trkpt><trkpt lat="43.334886261173594" lon="12.804279469148904"><ele>738.0</ele><time>2026-04-11T14:09:31.999Z</time></trkpt><trkpt lat="43.33493177464962" lon="12.804378550227076"><ele>738.0</ele><time>2026-04-11T14:09:33.999Z</time></trkpt><trkpt lat="43.334969674345174" lon="12.804449431601096"><ele>738.0</ele><time>2026-04-11T14:09:34.999Z</time></trkpt><trkpt lat="43.335014222880346" lon="12.804535595755945"><ele>738.0</ele><time>2026-04-11T14:09:35.999Z</time></trkpt><trkpt lat="43.33506753439399" lon="12.804616533741846"><ele>731.8333333333334</ele><time>2026-04-11T14:09:36.999Z</time></trkpt><trkpt lat="43.335145884109345" lon="12.804759808709301"><ele>725.6666666666666</ele><time>2026-04-11T14:09:38.999Z</time></trkpt><trkpt lat="43.33517611779796" lon="12.804839443586479"><ele>719.5</ele><time>2026-04-11T14:09:39.999Z</time></trkpt><trkpt lat="43.33521180331306" lon="12.804920740180082"><ele>713.3333333333333</ele><time>2026-04-11T14:09:40.999Z</time></trkpt><trkpt lat="43.33526982491899" lon="12.805026166292715"><ele>707.1666666666666</ele><time>2026-04-11T14:09:42.999Z</time></trkpt><trkpt lat="43.335310631819155" lon="12.805109215925293"><ele>701.0</ele><time>2026-04-11T14:09:44.999Z</time></trkpt><trkpt lat="43.33537388948748" lon="12.805223856140934"><ele>701.8</ele><time>2026-04-11T14:09:46.999Z</time></trkpt><trkpt lat="43.335444019632334" lon="12.805359046628707"><ele>702.5999999999999</ele><time>2026-04-11T14:09:48.999Z</time></trkpt><trkpt lat="43.33547285941535" lon="12.805436192616243"><ele>703.4</ele><time>2026-04-11T14:09:49.999Z</time></trkpt><trkpt lat="43.33553640531263" lon="12.80553931084039"><ele>704.2</ele><time>2026-04-11T14:09:51.999Z</time></trkpt><trkpt lat="43.335596876129976" lon="12.80561575139802"><ele>705.0</ele><time>2026-04-11T14:09:52.999Z</time></trkpt><trkpt lat="43.33566705073925" lon="12.805747320929685"><ele>705.0</ele><time>2026-04-11T14:09:54.999Z</time></trkpt><trkpt lat="43.335719298015604" lon="12.805813811196428"><ele>705.0</ele><time>2026-04-11T14:09:55.999Z</time></trkpt><trkpt lat="43.33576986232369" lon="12.805880694870408"><ele>705.0</ele><time>2026-04-11T14:09:56.999Z</time></trkpt><trkpt lat="43.335812728024884" lon="12.805951388280093"><ele>705.0</ele><time>2026-04-11T14:09:57.999Z</time></trkpt><trkpt lat="43.33585953712035" lon="12.80602644803054"><ele>705.0</ele><time>2026-04-11T14:09:58.999Z</time></trkpt><trkpt lat="43.33594957422467" lon="12.806141020338323"><ele>705.0</ele><time>2026-04-11T14:10:00.999Z</time></trkpt><trkpt lat="43.336045891939335" lon="12.806244786393924"><ele>703.8</ele><time>2026-04-11T14:10:02.999Z</time></trkpt><trkpt lat="43.336090501984955" lon="12.806307097445622"><ele>702.6</ele><time>2026-04-11T14:10:03.999Z</time></trkpt><trkpt lat="43.33619477119249" lon="12.806434715944738"><ele>701.4000000000001</ele><time>2026-04-11T14:10:05.999Z</time></trkpt><trkpt lat="43.33627212504455" lon="12.806525334767949"><ele>700.2</ele><time>2026-04-11T14:10:06.999Z</time></trkpt><trkpt lat="43.33633403139588" lon="12.806590153544535"><ele>699.0</ele><time>2026-04-11T14:10:07.999Z</time></trkpt><trkpt lat="43.336409312130925" lon="12.806671474092393"><ele>699.0</ele><time>2026-04-11T14:10:08.999Z</time></trkpt><trkpt lat="43.336491210747624" lon="12.806750980703015"><ele>699.0</ele><time>2026-04-11T14:10:09.999Z</time></trkpt><trkpt lat="43.33655730642374" lon="12.806815034773386"><ele>699.0</ele><time>2026-04-11T14:10:10.999Z</time></trkpt><trkpt lat="43.33664132272938" lon="12.80689078779493"><ele>699.0</ele><time>2026-04-11T14:10:11.999Z</time></trkpt><trkpt lat="43.33670863326917" lon="12.806964291667638"><ele>699.0</ele><time>2026-04-11T14:10:12.999Z</time></trkpt><trkpt lat="43.3367778259336" lon="12.807016467048436"><ele>699.0</ele><time>2026-04-11T14:10:13.999Z</time></trkpt><trkpt lat="43.336862596565545" lon="12.807094178263696"><ele>694.6666666666666</ele><time>2026-04-11T14:10:15.999Z</time></trkpt><trkpt lat="43.33694034970886" lon="12.807151717143602"><ele>690.3333333333334</ele><time>2026-04-11T14:10:17.999Z</time></trkpt><trkpt lat="43.33700497361518" lon="12.807199993255846"><ele>686.0</ele><time>2026-04-11T14:10:21.999Z</time></trkpt><trkpt lat="43.337058100463956" lon="12.807252669282688"><ele>681.6666666666667</ele><time>2026-04-11T14:10:27.999Z</time></trkpt><trkpt lat="43.337146581213666" lon="12.80735497896442"><ele>677.3333333333334</ele><time>2026-04-11T14:10:31Z</time></trkpt><trkpt lat="43.33720386839984" lon="12.807391182340558"><ele>673.0</ele><time>2026-04-11T14:10:32Z</time></trkpt><trkpt lat="43.337317603255535" lon="12.8074730420488"><ele>673.0</ele><time>2026-04-11T14:10:34Z</time></trkpt><trkpt lat="43.33743941409721" lon="12.8075549015231"><ele>673.0</ele><time>2026-04-11T14:10:36Z</time></trkpt><trkpt lat="43.33751726400961" lon="12.807616951063798"><ele>673.0</ele><time>2026-04-11T14:10:37Z</time></trkpt><trkpt lat="43.33758828885231" lon="12.807659683177294"><ele>673.0</ele><time>2026-04-11T14:10:38Z</time></trkpt><trkpt lat="43.33764844192486" lon="12.807724929938685"><ele>673.0</ele><time>2026-04-11T14:10:39Z</time></trkpt><trkpt lat="43.3377204659462" lon="12.807802644296538"><ele>666.5999999999999</ele><time>2026-04-11T14:10:40Z</time></trkpt><trkpt lat="43.337798700606186" lon="12.807846747934795"><ele>660.1999999999999</ele><time>2026-04-11T14:10:41Z</time></trkpt><trkpt lat="43.33787989303924" lon="12.807878282762166"><ele>653.8</ele><time>2026-04-11T14:10:42Z</time></trkpt><trkpt lat="43.337969614914336" lon="12.807925917197545"><ele>647.4</ele><time>2026-04-11T14:10:43Z</time></trkpt><trkpt lat="43.338072836560606" lon="12.807972363786744"><ele>641.0</ele><time>2026-04-11T14:10:44Z</time></trkpt><trkpt lat="43.33815964729591" lon="12.808011652467147"><ele>641.0</ele><time>2026-04-11T14:10:45Z</time></trkpt><trkpt lat="43.33823514350881" lon="12.808043010031692"><ele>641.0</ele><time>2026-04-11T14:10:46Z</time></trkpt><trkpt lat="43.3382985039749" lon="12.808051472627039"><ele>641.0</ele><time>2026-04-11T14:10:47Z</time></trkpt><trkpt lat="43.33837611056444" lon="12.808030961065535"><ele>641.0</ele><time>2026-04-11T14:10:48Z</time></trkpt><trkpt lat="43.33846664868423" lon="12.80800882133437"><ele>641.0</ele><time>2026-04-11T14:10:49Z</time></trkpt><trkpt lat="43.33853632755143" lon="12.807990902368918"><ele>641.0</ele><time>2026-04-11T14:10:50Z</time></trkpt><trkpt lat="43.338624734950166" lon="12.807970272455686"><ele>641.0</ele><time>2026-04-11T14:10:51Z</time></trkpt><trkpt lat="43.338715010855296" lon="12.807940078210367"><ele>641.0</ele><time>2026-04-11T14:10:52Z</time></trkpt><trkpt lat="43.338805951695726" lon="12.807897232939375"><ele>641.0</ele><time>2026-04-11T14:10:53Z</time></trkpt><trkpt lat="43.33889094115653" lon="12.80787704731772"><ele>641.0</ele><time>2026-04-11T14:10:54Z</time></trkpt><trkpt lat="43.33897315037143" lon="12.807894331260053"><ele>641.0</ele><time>2026-04-11T14:10:55Z</time></trkpt><trkpt lat="43.33908126732504" lon="12.807948900437722"><ele>638.1999999999999</ele><time>2026-04-11T14:10:56Z</time></trkpt><trkpt lat="43.33919216096593" lon="12.808019476755382"><ele>635.4</ele><time>2026-04-11T14:10:57Z</time></trkpt><trkpt lat="43.33928647683589" lon="12.80807474593106"><ele>632.6</ele><time>2026-04-11T14:10:58Z</time></trkpt><trkpt lat="43.33939069050661" lon="12.80814031416892"><ele>629.8</ele><time>2026-04-11T14:10:59Z</time></trkpt><trkpt lat="43.33945809722501" lon="12.80817541674108"><ele>627.0</ele><time>2026-04-11T14:11:00Z</time></trkpt><trkpt lat="43.339557184950245" lon="12.80826657733957"><ele>627.0</ele><time>2026-04-11T14:11:02Z</time></trkpt><trkpt lat="43.3396256423201" lon="12.808288483422427"><ele>627.0</ele><time>2026-04-11T14:11:04Z</time></trkpt><trkpt lat="43.33969552172919" lon="12.808335270427994"><ele>627.0</ele><time>2026-04-11T14:11:11Z</time></trkpt><trkpt lat="43.339780533015016" lon="12.80838739515374"><ele>627.0</ele><time>2026-04-11T14:11:13Z</time></trkpt><trkpt lat="43.33986526614815" lon="12.808426934308606"><ele>627.0</ele><time>2026-04-11T14:11:15Z</time></trkpt><trkpt lat="43.339996409406865" lon="12.808490735666451"><ele>622.3333333333334</ele><time>2026-04-11T14:11:17Z</time></trkpt><trkpt lat="43.34007174689855" lon="12.80853794085989"><ele>617.6666666666666</ele><time>2026-04-11T14:11:17.999Z</time></trkpt><trkpt lat="43.34013738039248" lon="12.808572506514084"><ele>613.0</ele><time>2026-04-11T14:11:18.999Z</time></trkpt><trkpt lat="43.34024218516091" lon="12.80862556322495"><ele>608.3333333333333</ele><time>2026-04-11T14:11:20.999Z</time></trkpt><trkpt lat="43.34033990696369" lon="12.808678808257607"><ele>603.6666666666666</ele><time>2026-04-11T14:11:22.999Z</time></trkpt><trkpt lat="43.34039950837769" lon="12.808723463322261"><ele>599.0</ele><time>2026-04-11T14:11:23.999Z</time></trkpt><trkpt lat="43.34046481083151" lon="12.808749106099603"><ele>599.0</ele><time>2026-04-11T14:11:24.999Z</time></trkpt><trkpt lat="43.340545152685785" lon="12.808784051832623"><ele>599.0</ele><time>2026-04-11T14:11:25.999Z</time></trkpt><trkpt lat="43.340620582219074" lon="12.808849658236475"><ele>599.0</ele><time>2026-04-11T14:11:27.999Z</time></trkpt><trkpt lat="43.34065917730358" lon="12.808955074296096"><ele>599.0</ele><time>2026-04-11T14:11:29.999Z</time></trkpt><trkpt lat="43.34071712042534" lon="12.80903620783377"><ele>599.0</ele><time>2026-04-11T14:11:31.999Z</time></trkpt><trkpt lat="43.34076229374892" lon="12.809110906645525"><ele>599.0</ele><time>2026-04-11T14:11:33.999Z</time></trkpt><trkpt lat="43.340797368355496" lon="12.809212248702478"><ele>596.8333333333333</ele><time>2026-04-11T14:11:35.999Z</time></trkpt><trkpt lat="43.34073852820839" lon="12.809301345818602"><ele>594.6666666666666</ele><time>2026-04-11T14:11:37.999Z</time></trkpt><trkpt lat="43.34066368434889" lon="12.809380055318538"><ele>592.5</ele><time>2026-04-11T14:11:40.999Z</time></trkpt><trkpt lat="43.34060168203003" lon="12.809459959442563"><ele>590.3333333333334</ele><time>2026-04-11T14:11:43.999Z</time></trkpt><trkpt lat="43.34056981749091" lon="12.809544035591983"><ele>588.1666666666667</ele><time>2026-04-11T14:11:45.999Z</time></trkpt><trkpt lat="43.34052541179198" lon="12.809615719878902"><ele>586.0</ele><time>2026-04-11T14:11:46.999Z</time></trkpt><trkpt lat="43.34047813869568" lon="12.809688306418076"><ele>584.4</ele><time>2026-04-11T14:11:47.999Z</time></trkpt><trkpt lat="43.34037845691058" lon="12.809834143163963"><ele>582.8</ele><time>2026-04-11T14:11:49.999Z</time></trkpt><trkpt lat="43.340314317378905" lon="12.809909875649428"><ele>581.1999999999999</ele><time>2026-04-11T14:11:50.999Z</time></trkpt><trkpt lat="43.34025211392509" lon="12.809988800189254"><ele>579.6</ele><time>2026-04-11T14:11:51.999Z</time></trkpt><trkpt lat="43.34018773749103" lon="12.81007212131382"><ele>578.0</ele><time>2026-04-11T14:11:52.999Z</time></trkpt><trkpt lat="43.34013884107636" lon="12.810173429003308"><ele>572.6</ele><time>2026-04-11T14:11:53.999Z</time></trkpt><trkpt lat="43.340094812945516" lon="12.810241354700707"><ele>567.1999999999999</ele><time>2026-04-11T14:11:54.999Z</time></trkpt><trkpt lat="43.34003989848974" lon="12.810349783985652"><ele>561.8</ele><time>2026-04-11T14:11:55.999Z</time></trkpt><trkpt lat="43.339969269407405" lon="12.810469136322482"><ele>556.4</ele><time>2026-04-11T14:11:56.999Z</time></trkpt><trkpt lat="43.339890035322476" lon="12.81055588845503"><ele>551.0</ele><time>2026-04-11T14:11:57.999Z</time></trkpt><trkpt lat="43.339817030516066" lon="12.810627227409697"><ele>551.0</ele><time>2026-04-11T14:11:58.999Z</time></trkpt><trkpt lat="43.33976180474646" lon="12.810680035449431"><ele>551.0</ele><time>2026-04-11T14:11:59.999Z</time></trkpt><trkpt lat="43.3397204036702" lon="12.810746896505945"><ele>551.0</ele><time>2026-04-11T14:12:00.999Z</time></trkpt><trkpt lat="43.339695865260715" lon="12.810873538734155"><ele>551.0</ele><time>2026-04-11T14:12:02.999Z</time></trkpt><trkpt lat="43.33964900982917" lon="12.81093937492406"><ele>551.0</ele><time>2026-04-11T14:12:10.999Z</time></trkpt><trkpt lat="43.33956145295504" lon="12.810872833445101"><ele>551.0</ele><time>2026-04-11T14:12:12.999Z</time></trkpt><trkpt lat="43.339473026045184" lon="12.810759772422228"><ele>551.0</ele><time>2026-04-11T14:12:14.999Z</time></trkpt><trkpt lat="43.339427884670116" lon="12.810675576723023"><ele>551.0</ele><time>2026-04-11T14:12:15.999Z</time></trkpt><trkpt lat="43.33938942983054" lon="12.810558759631322"><ele>551.0</ele><time>2026-04-11T14:12:16.999Z</time></trkpt><trkpt lat="43.33935124829554" lon="12.810426283366608"><ele>551.0</ele><time>2026-04-11T14:12:17.999Z</time></trkpt><trkpt lat="43.339304209306846" lon="12.81034144627785"><ele>551.0</ele><time>2026-04-11T14:12:18.999Z</time></trkpt><trkpt lat="43.3392235080906" lon="12.810263209549923"><ele>551.0</ele><time>2026-04-11T14:12:20.999Z</time></trkpt><trkpt lat="43.339086913850316" lon="12.8103106049003"><ele>551.0</ele><time>2026-04-11T14:12:22.999Z</time></trkpt><trkpt lat="43.33902172306853" lon="12.810326611585685"><ele>551.0</ele><time>2026-04-11T14:12:23.999Z</time></trkpt><trkpt lat="43.33895793122174" lon="12.810280409245902"><ele>551.0</ele><time>2026-04-11T14:12:24.999Z</time></trkpt><trkpt lat="43.33888275663176" lon="12.81026662442178"><ele>551.0</ele><time>2026-04-11T14:12:25.999Z</time></trkpt><trkpt lat="43.3388343337931" lon="12.810385291082376"><ele>551.0</ele><time>2026-04-11T14:12:26.999Z</time></trkpt><trkpt lat="43.33878166119722" lon="12.810518324767791"><ele>551.0</ele><time>2026-04-11T14:12:27.999Z</time></trkpt><trkpt lat="43.33868800953256" lon="12.810552051067674"><ele>552.8</ele><time>2026-04-11T14:12:28.999Z</time></trkpt><trkpt lat="43.33862912868518" lon="12.810605556236156"><ele>554.6</ele><time>2026-04-11T14:12:29.999Z</time></trkpt><trkpt lat="43.33853379704231" lon="12.81060474844319"><ele>556.4</ele><time>2026-04-11T14:12:31.999Z</time></trkpt><trkpt lat="43.33838508651651" lon="12.810511580454504"><ele>558.2</ele><time>2026-04-11T14:12:33.999Z</time></trkpt><trkpt lat="43.33831253396376" lon="12.810470630966437"><ele>560.0</ele><time>2026-04-11T14:12:35Z</time></trkpt><trkpt lat="43.33822242865709" lon="12.81041856928593"><ele>560.0</ele><time>2026-04-11T14:12:36Z</time></trkpt><trkpt lat="43.338138626709735" lon="12.810390785502538"><ele>560.0</ele><time>2026-04-11T14:12:37Z</time></trkpt><trkpt lat="43.33805539040916" lon="12.81036596841402"><ele>560.0</ele><time>2026-04-11T14:12:38Z</time></trkpt><trkpt lat="43.337984572546944" lon="12.81030341665367"><ele>560.0</ele><time>2026-04-11T14:12:39Z</time></trkpt><trkpt lat="43.33793881977536" lon="12.81020332021759"><ele>560.0</ele><time>2026-04-11T14:12:40Z</time></trkpt><trkpt lat="43.33788171485981" lon="12.810102531283611"><ele>560.0</ele><time>2026-04-11T14:12:41Z</time></trkpt><trkpt lat="43.33781173924285" lon="12.810003424358994"><ele>563.2</ele><time>2026-04-11T14:12:42Z</time></trkpt><trkpt lat="43.33773805739225" lon="12.809913539077213"><ele>566.4</ele><time>2026-04-11T14:12:43Z</time></trkpt><trkpt lat="43.33764272230015" lon="12.809832791723029"><ele>569.6</ele><time>2026-04-11T14:12:44Z</time></trkpt><trkpt lat="43.33755116027347" lon="12.809771219344613"><ele>572.8</ele><time>2026-04-11T14:12:45Z</time></trkpt><trkpt lat="43.33746935719783" lon="12.809725034201817"><ele>576.0</ele><time>2026-04-11T14:12:46Z</time></trkpt><trkpt lat="43.33741278083854" lon="12.809682105793538"><ele>576.0</ele><time>2026-04-11T14:12:47Z</time></trkpt><trkpt lat="43.33734354017694" lon="12.809645645681156"><ele>576.0</ele><time>2026-04-11T14:12:48Z</time></trkpt><trkpt lat="43.33725298841665" lon="12.80960428506559"><ele>576.0</ele><time>2026-04-11T14:12:50Z</time></trkpt><trkpt lat="43.33719729610096" lon="12.809494050720172"><ele>576.0</ele><time>2026-04-11T14:12:52Z</time></trkpt><trkpt lat="43.337129564317735" lon="12.809485393806044"><ele>576.0</ele><time>2026-04-11T14:12:53Z</time></trkpt><trkpt lat="43.33702424542539" lon="12.809517675963535"><ele>576.0</ele><time>2026-04-11T14:12:54Z</time></trkpt><trkpt lat="43.33691540880693" lon="12.809542311877562"><ele>575.0</ele><time>2026-04-11T14:12:55Z</time></trkpt><trkpt lat="43.3368066472429" lon="12.809528482614114"><ele>574.0</ele><time>2026-04-11T14:12:56Z</time></trkpt><trkpt lat="43.33672291836958" lon="12.809514079534464"><ele>573.0</ele><time>2026-04-11T14:12:57Z</time></trkpt><trkpt lat="43.33663824091892" lon="12.80949001202688"><ele>572.0</ele><time>2026-04-11T14:12:58Z</time></trkpt><trkpt lat="43.33654919607682" lon="12.809457730162555"><ele>571.0</ele><time>2026-04-11T14:12:59Z</time></trkpt><trkpt lat="43.33647178052148" lon="12.809420205982244"><ele>571.0</ele><time>2026-04-11T14:13:00Z</time></trkpt><trkpt lat="43.336400497477605" lon="12.809370764942912"><ele>571.0</ele><time>2026-04-11T14:13:01Z</time></trkpt><trkpt lat="43.33631289435" lon="12.80931567329404"><ele>571.0</ele><time>2026-04-11T14:13:02Z</time></trkpt><trkpt lat="43.336228210572976" lon="12.80926360822789"><ele>571.0</ele><time>2026-04-11T14:13:03Z</time></trkpt><trkpt lat="43.336137978174655" lon="12.80919379209679"><ele>571.0</ele><time>2026-04-11T14:13:04Z</time></trkpt><trkpt lat="43.336059027271695" lon="12.809085418709222"><ele>572.2</ele><time>2026-04-11T14:13:05Z</time></trkpt><trkpt lat="43.33599297050635" lon="12.808975459102554"><ele>573.4000000000001</ele><time>2026-04-11T14:13:06Z</time></trkpt><trkpt lat="43.33595921295075" lon="12.808874657443626"><ele>574.6</ele><time>2026-04-11T14:13:07Z</time></trkpt><trkpt lat="43.33592220783349" lon="12.808746505701718"><ele>575.8000000000001</ele><time>2026-04-11T14:13:08Z</time></trkpt><trkpt lat="43.33585114006997" lon="12.808640424646518"><ele>577.0</ele><time>2026-04-11T14:13:09Z</time></trkpt><trkpt lat="43.33576173766405" lon="12.80856964751646"><ele>577.0</ele><time>2026-04-11T14:13:10Z</time></trkpt><trkpt lat="43.33563225403389" lon="12.808504732921676"><ele>577.0</ele><time>2026-04-11T14:13:11Z</time></trkpt><trkpt lat="43.335523556978835" lon="12.808450641046312"><ele>577.0</ele><time>2026-04-11T14:13:12Z</time></trkpt><trkpt lat="43.33543449529351" lon="12.808382441833043"><ele>577.0</ele><time>2026-04-11T14:13:13Z</time></trkpt><trkpt lat="43.335318514195016" lon="12.808318655771831"><ele>579.0</ele><time>2026-04-11T14:13:14Z</time></trkpt><trkpt lat="43.33518137517796" lon="12.808281845437113"><ele>581.0</ele><time>2026-04-11T14:13:15Z</time></trkpt><trkpt lat="43.33506455673433" lon="12.808273708403869"><ele>583.0</ele><time>2026-04-11T14:13:16Z</time></trkpt><trkpt lat="43.3349712644628" lon="12.808257560724732"><ele>585.0</ele><time>2026-04-11T14:13:17Z</time></trkpt><trkpt lat="43.334908936504405" lon="12.808215885800829"><ele>587.0</ele><time>2026-04-11T14:13:18Z</time></trkpt><trkpt lat="43.33481778776766" lon="12.808103906698998"><ele>587.0</ele><time>2026-04-11T14:13:20Z</time></trkpt><trkpt lat="43.334777565063675" lon="12.80803166138563"><ele>587.0</ele><time>2026-04-11T14:13:21Z</time></trkpt><trkpt lat="43.33473227790367" lon="12.807945576166102"><ele>587.0</ele><time>2026-04-11T14:13:22Z</time></trkpt><trkpt lat="43.33468271417028" lon="12.807845944994746"><ele>587.0</ele><time>2026-04-11T14:13:23Z</time></trkpt><trkpt lat="43.33463801161037" lon="12.80777305172257"><ele>587.0</ele><time>2026-04-11T14:13:24Z</time></trkpt><trkpt lat="43.33458218956641" lon="12.807679870865114"><ele>587.0</ele><time>2026-04-11T14:13:25Z</time></trkpt><trkpt lat="43.33452475293099" lon="12.807582503303143"><ele>585.4</ele><time>2026-04-11T14:13:26Z</time></trkpt><trkpt lat="43.334466865933415" lon="12.807473964418284"><ele>583.8000000000001</ele><time>2026-04-11T14:13:27Z</time></trkpt><trkpt lat="43.33441623094453" lon="12.80736864550429"><ele>582.2</ele><time>2026-04-11T14:13:28Z</time></trkpt><trkpt lat="43.33434918460747" lon="12.807269555990244"><ele>580.6</ele><time>2026-04-11T14:13:29Z</time></trkpt><trkpt lat="43.3342791273245" lon="12.807149696729304"><ele>579.0</ele><time>2026-04-11T14:13:30Z</time></trkpt><trkpt lat="43.334210708400015" lon="12.80702697934926"><ele>579.0</ele><time>2026-04-11T14:13:31Z</time></trkpt><trkpt lat="43.33412956852611" lon="12.806899521199027"><ele>579.0</ele><time>2026-04-11T14:13:32Z</time></trkpt><trkpt lat="43.334045028301475" lon="12.806779804386546"><ele>579.0</ele><time>2026-04-11T14:13:33Z</time></trkpt><trkpt lat="43.33394840203954" lon="12.80668983008566"><ele>579.0</ele><time>2026-04-11T14:13:33.999Z</time></trkpt><trkpt lat="43.333861947270684" lon="12.80661779946027"><ele>577.6</ele><time>2026-04-11T14:13:34.999Z</time></trkpt><trkpt lat="43.333793581106896" lon="12.806545824027657"><ele>576.2</ele><time>2026-04-11T14:13:35.999Z</time></trkpt><trkpt lat="43.33377158120176" lon="12.80639939645518"><ele>574.8000000000001</ele><time>2026-04-11T14:13:37.999Z</time></trkpt><trkpt lat="43.33377650598794" lon="12.806249054472419"><ele>573.4</ele><time>2026-04-11T14:13:38.999Z</time></trkpt><trkpt lat="43.33375037574913" lon="12.806100491489438"><ele>572.0</ele><time>2026-04-11T14:13:39.999Z</time></trkpt><trkpt lat="43.33366766252546" lon="12.805978232955958"><ele>580.25</ele><time>2026-04-11T14:13:40.999Z</time></trkpt><trkpt lat="43.3335391089396" lon="12.805887854584078"><ele>588.5</ele><time>2026-04-11T14:13:41.999Z</time></trkpt><trkpt lat="43.33340192770233" lon="12.805862170089991"><ele>596.75</ele><time>2026-04-11T14:13:42.999Z</time></trkpt><trkpt lat="43.333275033660335" lon="12.805855741391335"><ele>605.0</ele><time>2026-04-11T14:13:43.999Z</time></trkpt><trkpt lat="43.33320782154643" lon="12.80584957739587"><ele>605.0</ele><time>2026-04-11T14:13:44.999Z</time></trkpt><trkpt lat="43.33312974857012" lon="12.805783397169096"><ele>605.0</ele><time>2026-04-11T14:13:45.999Z</time></trkpt><trkpt lat="43.33305148226713" lon="12.80568440858112"><ele>605.0</ele><time>2026-04-11T14:13:46.999Z</time></trkpt><trkpt lat="43.33296754199141" lon="12.805611125422772"><ele>605.0</ele><time>2026-04-11T14:13:47.999Z</time></trkpt><trkpt lat="43.332891494844034" lon="12.805544786076249"><ele>605.0</ele><time>2026-04-11T14:13:48.999Z</time></trkpt><trkpt lat="43.33282009917031" lon="12.805460024958485"><ele>605.8</ele><time>2026-04-11T14:13:49.999Z</time></trkpt><trkpt lat="43.332750157945256" lon="12.805383651963577"><ele>606.6</ele><time>2026-04-11T14:13:50.999Z</time></trkpt><trkpt lat="43.332681600107676" lon="12.805296690846019"><ele>607.4</ele><time>2026-04-11T14:13:51.999Z</time></trkpt><trkpt lat="43.33262396860216" lon="12.805225847361699"><ele>608.2</ele><time>2026-04-11T14:13:52.999Z</time></trkpt><trkpt lat="43.332534635909305" lon="12.805141817370437"><ele>609.0</ele><time>2026-04-11T14:13:54.999Z</time></trkpt><trkpt lat="43.332430245319046" lon="12.805054209732779"><ele>609.0</ele><time>2026-04-11T14:13:56.999Z</time></trkpt><trkpt lat="43.332374851872665" lon="12.804997006347083"><ele>609.0</ele><time>2026-04-11T14:13:57.999Z</time></trkpt><trkpt lat="43.332286332076926" lon="12.804900037518246"><ele>609.0</ele><time>2026-04-11T14:13:59.999Z</time></trkpt><trkpt lat="43.332232357803" lon="12.804854211886045"><ele>609.0</ele><time>2026-04-11T14:14:00.999Z</time></trkpt><trkpt lat="43.33217888526755" lon="12.804800405062716"><ele>609.0</ele><time>2026-04-11T14:14:01.999Z</time></trkpt><trkpt lat="43.33206860048776" lon="12.804695491039798"><ele>609.0</ele><time>2026-04-11T14:14:03.999Z</time></trkpt><trkpt lat="43.33201692201934" lon="12.804643300592183"><ele>608.8</ele><time>2026-04-11T14:14:04.999Z</time></trkpt><trkpt lat="43.331941026584246" lon="12.80455189247522"><ele>608.5999999999999</ele><time>2026-04-11T14:14:06.999Z</time></trkpt><trkpt lat="43.3318812529999" lon="12.804496052001323"><ele>608.4</ele><time>2026-04-11T14:14:09.999Z</time></trkpt><trkpt lat="43.33179438829277" lon="12.804425784451086"><ele>608.1999999999999</ele><time>2026-04-11T14:14:14.999Z</time></trkpt><trkpt lat="43.331716522730744" lon="12.804316454049834"><ele>608.0</ele><time>2026-04-11T14:14:16.999Z</time></trkpt><trkpt lat="43.33167867295172" lon="12.804236501594376"><ele>608.0</ele><time>2026-04-11T14:14:17.999Z</time></trkpt><trkpt lat="43.33165033062414" lon="12.804144147585253"><ele>608.0</ele><time>2026-04-11T14:14:18.999Z</time></trkpt><trkpt lat="43.33162220808136" lon="12.804033072144172"><ele>608.0</ele><time>2026-04-11T14:14:19.999Z</time></trkpt><trkpt lat="43.33159272773284" lon="12.803933525889116"><ele>608.0</ele><time>2026-04-11T14:14:20.999Z</time></trkpt><trkpt lat="43.331556355568" lon="12.803834161435548"><ele>608.0</ele><time>2026-04-11T14:14:21.999Z</time></trkpt><trkpt lat="43.33152669701012" lon="12.80375256475302"><ele>608.0</ele><time>2026-04-11T14:14:22.999Z</time></trkpt><trkpt lat="43.331442741716245" lon="12.80366160419827"><ele>607.0</ele><time>2026-04-11T14:14:24.999Z</time></trkpt><trkpt lat="43.33126736436688" lon="12.803672707051472"><ele>606.0</ele><time>2026-04-11T14:14:26.999Z</time></trkpt><trkpt lat="43.33118317923" lon="12.80369465314755"><ele>605.0</ele><time>2026-04-11T14:14:27.999Z</time></trkpt><trkpt lat="43.331117125380466" lon="12.80372077939466"><ele>604.0</ele><time>2026-04-11T14:14:28.999Z</time></trkpt><trkpt lat="43.33103308802801" lon="12.80363068166176"><ele>603.0</ele><time>2026-04-11T14:14:31.999Z</time></trkpt><trkpt lat="43.33095503810752" lon="12.803557426363875"><ele>603.0</ele><time>2026-04-11T14:14:33.999Z</time></trkpt><trkpt lat="43.33088895254324" lon="12.803525094576585"><ele>603.0</ele><time>2026-04-11T14:14:36.999Z</time></trkpt><trkpt lat="43.330809778907025" lon="12.803553873943093"><ele>603.0</ele><time>2026-04-11T14:14:48Z</time></trkpt><trkpt lat="43.33074602000076" lon="12.803623499985074"><ele>603.0</ele><time>2026-04-11T14:14:52Z</time></trkpt><trkpt lat="43.33075367252819" lon="12.803749192389935"><ele>603.0</ele><time>2026-04-11T14:16:08.999Z</time></trkpt><trkpt lat="43.33080256899002" lon="12.803907824991917"><ele>603.0</ele><time>2026-04-11T14:16:10.999Z</time></trkpt><trkpt lat="43.330814024527825" lon="12.804018761513907"><ele>603.0</ele><time>2026-04-11T14:16:11.999Z</time></trkpt><trkpt lat="43.33082718778144" lon="12.80415090873518"><ele>603.0</ele><time>2026-04-11T14:16:12.999Z</time></trkpt><trkpt lat="43.33083291709975" lon="12.80424147973142"><ele>603.0</ele><time>2026-04-11T14:16:13.999Z</time></trkpt><trkpt lat="43.33084001623179" lon="12.804339635581037"><ele>603.0</ele><time>2026-04-11T14:16:14.999Z</time></trkpt><trkpt lat="43.3308832032046" lon="12.804503914932198"><ele>603.0</ele><time>2026-04-11T14:16:16.999Z</time></trkpt><trkpt lat="43.33090780194813" lon="12.804609921436239"><ele>600.1999999999999</ele><time>2026-04-11T14:16:17.999Z</time></trkpt><trkpt lat="43.330918374345785" lon="12.804699350187153"><ele>597.4</ele><time>2026-04-11T14:16:18.999Z</time></trkpt><trkpt lat="43.33093086509567" lon="12.804855399225882"><ele>594.5999999999999</ele><time>2026-04-11T14:16:20.999Z</time></trkpt><trkpt lat="43.33094372069131" lon="12.805011757116723"><ele>591.8</ele><time>2026-04-11T14:16:22.999Z</time></trkpt><trkpt lat="43.33099969407538" lon="12.805148157253708"><ele>589.0</ele><time>2026-04-11T14:16:24.999Z</time></trkpt><trkpt lat="43.331065916629186" lon="12.80520281644595"><ele>589.0</ele><time>2026-04-11T14:16:25.999Z</time></trkpt><trkpt lat="43.331156828721554" lon="12.80524753694004"><ele>589.0</ele><time>2026-04-11T14:16:26.999Z</time></trkpt><trkpt lat="43.33123734862167" lon="12.805301917220303"><ele>589.0</ele><time>2026-04-11T14:16:27.999Z</time></trkpt><trkpt lat="43.33130057704318" lon="12.805345913822231"><ele>589.0</ele><time>2026-04-11T14:16:28.999Z</time></trkpt><trkpt lat="43.33135753098608" lon="12.805397551337053"><ele>589.0</ele><time>2026-04-11T14:16:29.999Z</time></trkpt><trkpt lat="43.331405813580666" lon="12.805517727714426"><ele>589.0</ele><time>2026-04-11T14:16:31.999Z</time></trkpt><trkpt lat="43.33143210145609" lon="12.805601959857867"><ele>583.1666666666667</ele><time>2026-04-11T14:16:32.999Z</time></trkpt><trkpt lat="43.33148631112041" lon="12.805679309123061"><ele>577.3333333333334</ele><time>2026-04-11T14:16:33.999Z</time></trkpt><trkpt lat="43.33152409632145" lon="12.805752164541053"><ele>571.5</ele><time>2026-04-11T14:16:34.999Z</time></trkpt><trkpt lat="43.33155850575793" lon="12.80583564143226"><ele>565.6666666666666</ele><time>2026-04-11T14:16:35.999Z</time></trkpt><trkpt lat="43.33159354491831" lon="12.80590811660584"><ele>559.8333333333333</ele><time>2026-04-11T14:16:36.999Z</time></trkpt><trkpt lat="43.33163758699543" lon="12.806033750952565"><ele>554.0</ele><time>2026-04-11T14:16:38.999Z</time></trkpt><trkpt lat="43.331675228425674" lon="12.806154402118603"><ele>554.0</ele><time>2026-04-11T14:16:40.999Z</time></trkpt><trkpt lat="43.33174119437323" lon="12.80628525406772"><ele>554.0</ele><time>2026-04-11T14:16:42.999Z</time></trkpt><trkpt lat="43.33178034701253" lon="12.806357135901438"><ele>554.0</ele><time>2026-04-11T14:16:43.999Z</time></trkpt><trkpt lat="43.331811517942334" lon="12.806456702389218"><ele>554.0</ele><time>2026-04-11T14:16:44.999Z</time></trkpt><trkpt lat="43.33185262052989" lon="12.806564467976061"><ele>554.0</ele><time>2026-04-11T14:16:45.999Z</time></trkpt><trkpt lat="43.331897805056556" lon="12.806673114916892"><ele>554.0</ele><time>2026-04-11T14:16:47Z</time></trkpt><trkpt lat="43.33196628185627" lon="12.80675064626115"><ele>554.0</ele><time>2026-04-11T14:16:48Z</time></trkpt><trkpt lat="43.3320541362668" lon="12.806817538622782"><ele>554.0</ele><time>2026-04-11T14:16:49Z</time></trkpt><trkpt lat="43.33214150895077" lon="12.806892047265887"><ele>554.0</ele><time>2026-04-11T14:16:50Z</time></trkpt><trkpt lat="43.33221013850587" lon="12.806964737511358"><ele>554.0</ele><time>2026-04-11T14:16:51Z</time></trkpt><trkpt lat="43.332290159685634" lon="12.807039642505556"><ele>554.0</ele><time>2026-04-11T14:16:52Z</time></trkpt><trkpt lat="43.332362807672126" lon="12.807105345706775"><ele>550.8333333333333</ele><time>2026-04-11T14:16:53Z</time></trkpt><trkpt lat="43.332451329765846" lon="12.807155515404956"><ele>547.6666666666666</ele><time>2026-04-11T14:16:54Z</time></trkpt><trkpt lat="43.332510397661444" lon="12.807210145030405"><ele>544.5</ele><time>2026-04-11T14:16:55Z</time></trkpt><trkpt lat="43.33257983554365" lon="12.807284976147354"><ele>541.3333333333334</ele><time>2026-04-11T14:16:56Z</time></trkpt><trkpt lat="43.33265281849225" lon="12.807342824389275"><ele>538.1666666666667</ele><time>2026-04-11T14:16:57Z</time></trkpt><trkpt lat="43.33273828288403" lon="12.807403186443233"><ele>535.0</ele><time>2026-04-11T14:16:58Z</time></trkpt><trkpt lat="43.33283346877997" lon="12.807469130510142"><ele>535.0</ele><time>2026-04-11T14:16:59Z</time></trkpt><trkpt lat="43.33295472260712" lon="12.80756522619723"><ele>535.0</ele><time>2026-04-11T14:17:00Z</time></trkpt><trkpt lat="43.333071606361294" lon="12.80767524424914"><ele>535.0</ele><time>2026-04-11T14:17:01Z</time></trkpt><trkpt lat="43.333149807981876" lon="12.807754020521122"><ele>535.0</ele><time>2026-04-11T14:17:02Z</time></trkpt><trkpt lat="43.33320684939835" lon="12.807832739692408"><ele>533.0</ele><time>2026-04-11T14:17:03Z</time></trkpt><trkpt lat="43.33324357574133" lon="12.807915627464979"><ele>531.0</ele><time>2026-04-11T14:17:04Z</time></trkpt><trkpt lat="43.33324690406096" lon="12.80800657067257"><ele>529.0</ele><time>2026-04-11T14:17:05Z</time></trkpt><trkpt lat="43.33324888565226" lon="12.80810180413422"><ele>527.0</ele><time>2026-04-11T14:17:06Z</time></trkpt><trkpt lat="43.333249963899384" lon="12.808201943848038"><ele>525.0</ele><time>2026-04-11T14:17:07Z</time></trkpt><trkpt lat="43.33327396262746" lon="12.808298638818732"><ele>523.0</ele><time>2026-04-11T14:17:08Z</time></trkpt><trkpt lat="43.333324078789914" lon="12.808388998206576"><ele>521.0</ele><time>2026-04-11T14:17:09Z</time></trkpt><trkpt lat="43.33337535873064" lon="12.808463513311333"><ele>519.8</ele><time>2026-04-11T14:17:10Z</time></trkpt><trkpt lat="43.333458434989076" lon="12.808543031148282"><ele>518.6</ele><time>2026-04-11T14:17:11Z</time></trkpt><trkpt lat="43.333523600087716" lon="12.80861901799007"><ele>517.4</ele><time>2026-04-11T14:17:12Z</time></trkpt><trkpt lat="43.33356943688166" lon="12.80872534620271"><ele>516.2</ele><time>2026-04-11T14:17:13Z</time></trkpt><trkpt lat="43.33359781934478" lon="12.808858757270576"><ele>515.0</ele><time>2026-04-11T14:17:14Z</time></trkpt><trkpt lat="43.333632819898696" lon="12.80898563412881"><ele>515.0</ele><time>2026-04-11T14:17:15Z</time></trkpt><trkpt lat="43.33367586999998" lon="12.80908749244347"><ele>515.0</ele><time>2026-04-11T14:17:16Z</time></trkpt><trkpt lat="43.33373324185338" lon="12.809171992260518"><ele>515.0</ele><time>2026-04-11T14:17:17Z</time></trkpt><trkpt lat="43.33381598162219" lon="12.809252352252035"><ele>515.0</ele><time>2026-04-11T14:17:18Z</time></trkpt><trkpt lat="43.3338923287624" lon="12.8093437472215"><ele>515.0</ele><time>2026-04-11T14:17:19Z</time></trkpt><trkpt lat="43.33392735541457" lon="12.809444751636887"><ele>510.49999999999994</ele><time>2026-04-11T14:17:20Z</time></trkpt><trkpt lat="43.333959116706296" lon="12.809544496543499"><ele>506.0</ele><time>2026-04-11T14:17:21Z</time></trkpt><trkpt lat="43.3340036166979" lon="12.809652617335091"><ele>501.5</ele><time>2026-04-11T14:17:22Z</time></trkpt><trkpt lat="43.33403849472081" lon="12.80973876858619"><ele>497.0</ele><time>2026-04-11T14:17:23Z</time></trkpt><trkpt lat="43.33407070102447" lon="12.809830916799452"><ele>492.49999999999994</ele><time>2026-04-11T14:17:24Z</time></trkpt><trkpt lat="43.33408711014563" lon="12.809928675112435"><ele>488.0</ele><time>2026-04-11T14:17:25Z</time></trkpt><trkpt lat="43.3340575130896" lon="12.81004014627135"><ele>487.99999999999994</ele><time>2026-04-11T14:17:27Z</time></trkpt><trkpt lat="43.33404637018309" lon="12.810136697613425"><ele>488.0</ele><time>2026-04-11T14:17:29Z</time></trkpt><trkpt lat="43.33401977968105" lon="12.810215672974895"><ele>488.0</ele><time>2026-04-11T14:17:31Z</time></trkpt><trkpt lat="43.33400282908062" lon="12.810318203820335"><ele>488.0</ele><time>2026-04-11T14:17:33Z</time></trkpt><trkpt lat="43.33399895155229" lon="12.810440152383087"><ele>487.99999999999994</ele><time>2026-04-11T14:17:35Z</time></trkpt><trkpt lat="43.33399151036025" lon="12.810584454583095"><ele>488.0</ele><time>2026-04-11T14:17:37Z</time></trkpt><trkpt lat="43.33398213514886" lon="12.810677137272924"><ele>486.2</ele><time>2026-04-11T14:17:38Z</time></trkpt><trkpt lat="43.33390659048064" lon="12.810727207750176"><ele>484.4</ele><time>2026-04-11T14:17:39Z</time></trkpt><trkpt lat="43.33387756586757" lon="12.810823501211306"><ele>482.59999999999997</ele><time>2026-04-11T14:17:40Z</time></trkpt><trkpt lat="43.33384399897276" lon="12.810937698999977"><ele>480.79999999999995</ele><time>2026-04-11T14:17:41Z</time></trkpt><trkpt lat="43.333799952843506" lon="12.811091036451167"><ele>479.0</ele><time>2026-04-11T14:17:42Z</time></trkpt><trkpt lat="43.333764073212436" lon="12.811251513678677"><ele>483.75</ele><time>2026-04-11T14:17:43Z</time></trkpt><trkpt lat="43.333743078237944" lon="12.811422260306289"><ele>488.5</ele><time>2026-04-11T14:17:44Z</time></trkpt><trkpt lat="43.33374946921718" lon="12.811627960850863"><ele>493.25</ele><time>2026-04-11T14:17:45Z</time></trkpt><trkpt lat="43.333783591686085" lon="12.81182547924354"><ele>498.0</ele><time>2026-04-11T14:17:46Z</time></trkpt><trkpt lat="43.33384395226775" lon="12.811980586375732"><ele>487.0</ele><time>2026-04-11T14:17:47Z</time></trkpt><trkpt lat="43.33394196816741" lon="12.812171733071297"><ele>476.0</ele><time>2026-04-11T14:17:48Z</time></trkpt><trkpt lat="43.334054973055174" lon="12.812374383610084"><ele>465.0</ele><time>2026-04-11T14:17:49Z</time></trkpt><trkpt lat="43.33416154244348" lon="12.812572962785788"><ele>463.75</ele><time>2026-04-11T14:17:50Z</time></trkpt><trkpt lat="43.33424223746719" lon="12.812734549520627"><ele>462.5</ele><time>2026-04-11T14:17:51Z</time></trkpt><trkpt lat="43.33430747389908" lon="12.812890707550228"><ele>461.25</ele><time>2026-04-11T14:17:52Z</time></trkpt><trkpt lat="43.33435957064221" lon="12.813053301392939"><ele>460.0</ele><time>2026-04-11T14:17:53Z</time></trkpt><trkpt lat="43.3343933832392" lon="12.813208938122903"><ele>460.0</ele><time>2026-04-11T14:17:54Z</time></trkpt><trkpt lat="43.33440874730699" lon="12.81334620692079"><ele>460.0</ele><time>2026-04-11T14:17:55Z</time></trkpt><trkpt lat="43.334410835972406" lon="12.813469457461403"><ele>460.0</ele><time>2026-04-11T14:17:56Z</time></trkpt><trkpt lat="43.33440007885919" lon="12.81364208920787"><ele>460.0</ele><time>2026-04-11T14:17:57Z</time></trkpt><trkpt lat="43.33438946284931" lon="12.81382569752365"><ele>458.25</ele><time>2026-04-11T14:17:58Z</time></trkpt><trkpt lat="43.33437792355518" lon="12.81401086795478"><ele>456.5</ele><time>2026-04-11T14:17:59Z</time></trkpt><trkpt lat="43.33436493016459" lon="12.814214757053598"><ele>454.75</ele><time>2026-04-11T14:17:59.999Z</time></trkpt><trkpt lat="43.334353223014205" lon="12.81441991613114"><ele>453.0</ele><time>2026-04-11T14:18:00.999Z</time></trkpt><trkpt lat="43.33434684941645" lon="12.814617698743566"><ele>452.5</ele><time>2026-04-11T14:18:01.999Z</time></trkpt><trkpt lat="43.334357804427476" lon="12.814811842780948"><ele>452.0</ele><time>2026-04-11T14:18:02.999Z</time></trkpt><trkpt lat="43.334378722630746" lon="12.81499983648137"><ele>451.5</ele><time>2026-04-11T14:18:03.999Z</time></trkpt><trkpt lat="43.33440822123106" lon="12.81518877244754"><ele>451.0</ele><time>2026-04-11T14:18:04.999Z</time></trkpt><trkpt lat="43.33443993703121" lon="12.815373446698201"><ele>451.0</ele><time>2026-04-11T14:18:05.999Z</time></trkpt><trkpt lat="43.334468924246615" lon="12.815554540721015"><ele>451.0</ele><time>2026-04-11T14:18:06.999Z</time></trkpt><trkpt lat="43.33449422352852" lon="12.81572697766371"><ele>451.0</ele><time>2026-04-11T14:18:07.999Z</time></trkpt><trkpt lat="43.33452064815463" lon="12.815870559129499"><ele>451.0</ele><time>2026-04-11T14:18:08.999Z</time></trkpt><trkpt lat="43.33455469761992" lon="12.815975146850498"><ele>451.25</ele><time>2026-04-11T14:18:09.999Z</time></trkpt><trkpt lat="43.33462337906737" lon="12.816093450777178"><ele>451.5</ele><time>2026-04-11T14:18:10.999Z</time></trkpt><trkpt lat="43.334722142371106" lon="12.816201296997559"><ele>451.75</ele><time>2026-04-11T14:18:11.999Z</time></trkpt><trkpt lat="43.33480055769914" lon="12.81632524154444"><ele>452.0</ele><time>2026-04-11T14:18:12.999Z</time></trkpt><trkpt lat="43.334863422832704" lon="12.816466176235851"><ele>449.3333333333333</ele><time>2026-04-11T14:18:13.999Z</time></trkpt><trkpt lat="43.33492358939858" lon="12.816651405557382"><ele>446.66666666666663</ele><time>2026-04-11T14:18:14.999Z</time></trkpt><trkpt lat="43.33496985612942" lon="12.816847287101083"><ele>444.0</ele><time>2026-04-11T14:18:15.999Z</time></trkpt><trkpt lat="43.33500610566642" lon="12.817065543157668"><ele>443.0</ele><time>2026-04-11T14:18:16.999Z</time></trkpt><trkpt lat="43.3350385422217" lon="12.817281227834178"><ele>442.0</ele><time>2026-04-11T14:18:17.999Z</time></trkpt><trkpt lat="43.33507583910241" lon="12.817471869884312"><ele>441.0</ele><time>2026-04-11T14:18:18.999Z</time></trkpt><trkpt lat="43.33511876151223" lon="12.81763872657811"><ele>440.0</ele><time>2026-04-11T14:18:19.999Z</time></trkpt><trkpt lat="43.335179918948384" lon="12.817796417378185"><ele>439.5</ele><time>2026-04-11T14:18:20.999Z</time></trkpt><trkpt lat="43.33525775335228" lon="12.817911289173098"><ele>439.0</ele><time>2026-04-11T14:18:21.999Z</time></trkpt><trkpt lat="43.335339352361224" lon="12.818029292156325"><ele>438.5</ele><time>2026-04-11T14:18:22.999Z</time></trkpt><trkpt lat="43.335427062312014" lon="12.818137129837814"><ele>438.0</ele><time>2026-04-11T14:18:23.999Z</time></trkpt><trkpt lat="43.33551896602707" lon="12.818255125772932"><ele>437.79999999999995</ele><time>2026-04-11T14:18:24.999Z</time></trkpt><trkpt lat="43.335606097254264" lon="12.818364637327392"><ele>437.59999999999997</ele><time>2026-04-11T14:18:25.999Z</time></trkpt><trkpt lat="43.33568804209514" lon="12.818473755446096"><ele>437.40000000000003</ele><time>2026-04-11T14:18:26.999Z</time></trkpt><trkpt lat="43.33575164806324" lon="12.818576225312105"><ele>437.20000000000005</ele><time>2026-04-11T14:18:27.999Z</time></trkpt><trkpt lat="43.33578525930549" lon="12.818659198271403"><ele>437.0</ele><time>2026-04-11T14:18:28.999Z</time></trkpt><trkpt lat="43.33572684085721" lon="12.818784765442581"><ele>437.3333333333333</ele><time>2026-04-11T14:18:32.999Z</time></trkpt><trkpt lat="43.335671975025605" lon="12.818867711453416"><ele>437.66666666666663</ele><time>2026-04-11T14:18:35.999Z</time></trkpt><trkpt lat="43.33560649629653" lon="12.818945746754077"><ele>438.0</ele><time>2026-04-11T14:18:38.999Z</time></trkpt><trkpt lat="43.335558176736725" lon="12.819015040889067"><ele>438.33333333333337</ele><time>2026-04-11T14:18:40.999Z</time></trkpt><trkpt lat="43.3354979345896" lon="12.819087691104537"><ele>438.6666666666667</ele><time>2026-04-11T14:18:43.999Z</time></trkpt><trkpt lat="43.33545343083198" lon="12.819152664169806"><ele>439.0</ele><time>2026-04-11T14:18:45.999Z</time></trkpt><trkpt lat="43.335404781343954" lon="12.819224606556919"><ele>439.33333333333337</ele><time>2026-04-11T14:18:47.999Z</time></trkpt><trkpt lat="43.33534167126578" lon="12.819280144465582"><ele>439.6666666666667</ele><time>2026-04-11T14:18:51.999Z</time></trkpt><trkpt lat="43.33528097973675" lon="12.819345140590505"><ele>440.0</ele><time>2026-04-11T14:18:55Z</time></trkpt><trkpt lat="43.33522095761727" lon="12.819421852602787"><ele>440.33333333333337</ele><time>2026-04-11T14:18:58Z</time></trkpt><trkpt lat="43.335162659654245" lon="12.819512290961441"><ele>440.6666666666667</ele><time>2026-04-11T14:19:01Z</time></trkpt><trkpt lat="43.33509531683552" lon="12.819567574276917"><ele>441.0</ele><time>2026-04-11T14:19:04Z</time></trkpt><trkpt lat="43.33503374124043" lon="12.81963834223441"><ele>442.6666666666667</ele><time>2026-04-11T14:19:07Z</time></trkpt><trkpt lat="43.33497000194065" lon="12.819713444526519"><ele>444.33333333333337</ele><time>2026-04-11T14:19:10Z</time></trkpt><trkpt lat="43.33491789600985" lon="12.81976526700832"><ele>446.0</ele><time>2026-04-11T14:19:12Z</time></trkpt><trkpt lat="43.33486319303515" lon="12.819821083131833"><ele>447.6666666666667</ele><time>2026-04-11T14:19:14Z</time></trkpt><trkpt lat="43.33480174094372" lon="12.819849770353759"><ele>449.33333333333337</ele><time>2026-04-11T14:19:16Z</time></trkpt><trkpt lat="43.33474077491079" lon="12.819897017996844"><ele>451.0</ele><time>2026-04-11T14:19:18Z</time></trkpt><trkpt lat="43.33465676421346" lon="12.819969939548209"><ele>451.83333333333337</ele><time>2026-04-11T14:19:20Z</time></trkpt><trkpt lat="43.33460816271956" lon="12.820025512494864"><ele>452.6666666666667</ele><time>2026-04-11T14:19:21Z</time></trkpt><trkpt lat="43.334559005083946" lon="12.820082168296976"><ele>453.5</ele><time>2026-04-11T14:19:22Z</time></trkpt><trkpt lat="43.33448126812786" lon="12.820161737026464"><ele>454.33333333333337</ele><time>2026-04-11T14:19:24Z</time></trkpt><trkpt lat="43.334399167947666" lon="12.820116930587352"><ele>455.1666666666667</ele><time>2026-04-11T14:19:26Z</time></trkpt><trkpt lat="43.3343511957516" lon="12.819991015155482"><ele>456.0</ele><time>2026-04-11T14:19:29Z</time></trkpt><trkpt lat="43.334301525817196" lon="12.819900607851993"><ele>456.0</ele><time>2026-04-11T14:19:30Z</time></trkpt><trkpt lat="43.33425334628555" lon="12.819821318822259"><ele>456.0</ele><time>2026-04-11T14:19:31Z</time></trkpt><trkpt lat="43.33419473826047" lon="12.819746642236531"><ele>456.0</ele><time>2026-04-11T14:19:32Z</time></trkpt><trkpt lat="43.33412565785724" lon="12.819689655123709"><ele>456.0</ele><time>2026-04-11T14:19:33Z</time></trkpt><trkpt lat="43.33403893328089" lon="12.81965259223737"><ele>456.0</ele><time>2026-04-11T14:19:34Z</time></trkpt><trkpt lat="43.33395209159779" lon="12.819642690353124"><ele>456.0</ele><time>2026-04-11T14:19:35Z</time></trkpt><trkpt lat="43.33385734740003" lon="12.819657064212796"><ele>455.75</ele><time>2026-04-11T14:19:36Z</time></trkpt><trkpt lat="43.33376050229905" lon="12.81969269005425"><ele>455.5</ele><time>2026-04-11T14:19:37Z</time></trkpt><trkpt lat="43.33365579623536" lon="12.819738875182003"><ele>455.25</ele><time>2026-04-11T14:19:38Z</time></trkpt><trkpt lat="43.33353573950529" lon="12.819788678300974"><ele>455.0</ele><time>2026-04-11T14:19:39Z</time></trkpt><trkpt lat="43.3333928294961" lon="12.819837376860152"><ele>455.0</ele><time>2026-04-11T14:19:40Z</time></trkpt><trkpt lat="43.3332654397648" lon="12.819878840709018"><ele>455.0</ele><time>2026-04-11T14:19:41Z</time></trkpt><trkpt lat="43.33315113024307" lon="12.81990535585065"><ele>455.0</ele><time>2026-04-11T14:19:42Z</time></trkpt><trkpt lat="43.33302943051345" lon="12.819891178236166"><ele>455.0</ele><time>2026-04-11T14:19:43Z</time></trkpt><trkpt lat="43.332923259601436" lon="12.81984130405884"><ele>453.8</ele><time>2026-04-11T14:19:44Z</time></trkpt><trkpt lat="43.332818601038916" lon="12.819785092873987"><ele>452.6</ele><time>2026-04-11T14:19:45Z</time></trkpt><trkpt lat="43.332724498727565" lon="12.81971939626897"><ele>451.4</ele><time>2026-04-11T14:19:46Z</time></trkpt><trkpt lat="43.33265925662572" lon="12.819652666092466"><ele>450.2</ele><time>2026-04-11T14:19:47Z</time></trkpt><trkpt lat="43.33259614648732" lon="12.819579503912493"><ele>449.0</ele><time>2026-04-11T14:19:48Z</time></trkpt><trkpt lat="43.33252956466637" lon="12.819519082800724"><ele>449.0</ele><time>2026-04-11T14:19:49Z</time></trkpt><trkpt lat="43.3324477437045" lon="12.819473094199079"><ele>449.0</ele><time>2026-04-11T14:19:50Z</time></trkpt><trkpt lat="43.332360781194524" lon="12.819466953137473"><ele>449.0</ele><time>2026-04-11T14:19:51Z</time></trkpt><trkpt lat="43.33227517400086" lon="12.819496216906579"><ele>449.0</ele><time>2026-04-11T14:19:52Z</time></trkpt><trkpt lat="43.332186333131446" lon="12.819565775768078"><ele>449.0</ele><time>2026-04-11T14:19:53Z</time></trkpt><trkpt lat="43.33210055019578" lon="12.819658446201418"><ele>448.5</ele><time>2026-04-11T14:19:54Z</time></trkpt><trkpt lat="43.332022814869525" lon="12.819762649677553"><ele>448.0</ele><time>2026-04-11T14:19:55Z</time></trkpt><trkpt lat="43.33193679865975" lon="12.819875136058016"><ele>447.5</ele><time>2026-04-11T14:19:56Z</time></trkpt><trkpt lat="43.33185172502939" lon="12.819990326141337"><ele>447.0</ele><time>2026-04-11T14:19:57Z</time></trkpt><trkpt lat="43.33176239540057" lon="12.820114052593528"><ele>446.25</ele><time>2026-04-11T14:19:58Z</time></trkpt><trkpt lat="43.331669500753556" lon="12.820237152691679"><ele>445.5</ele><time>2026-04-11T14:19:59Z</time></trkpt><trkpt lat="43.33157875434366" lon="12.82035819593978"><ele>444.75</ele><time>2026-04-11T14:20:00Z</time></trkpt><trkpt lat="43.33149886751614" lon="12.820459646861568"><ele>444.0</ele><time>2026-04-11T14:20:01Z</time></trkpt><trkpt lat="43.33142595675512" lon="12.820528046130754"><ele>443.5</ele><time>2026-04-11T14:20:02Z</time></trkpt><trkpt lat="43.33134622354383" lon="12.820550386635114"><ele>443.0</ele><time>2026-04-11T14:20:03Z</time></trkpt><trkpt lat="43.33127379194434" lon="12.820518435791097"><ele>442.5</ele><time>2026-04-11T14:20:04Z</time></trkpt><trkpt lat="43.331188832245836" lon="12.820469482406367"><ele>442.0</ele><time>2026-04-11T14:20:05Z</time></trkpt><trkpt lat="43.3311186035322" lon="12.820440419452417"><ele>441.5</ele><time>2026-04-11T14:20:06Z</time></trkpt><trkpt lat="43.33104716846055" lon="12.82043563335062"><ele>441.0</ele><time>2026-04-11T14:20:07Z</time></trkpt><trkpt lat="43.330950593713716" lon="12.820457512344923"><ele>441.0</ele><time>2026-04-11T14:20:08Z</time></trkpt><trkpt lat="43.33086452970652" lon="12.820517977195232"><ele>441.0</ele><time>2026-04-11T14:20:09Z</time></trkpt><trkpt lat="43.33077270667161" lon="12.82062287542637"><ele>441.0</ele><time>2026-04-11T14:20:09.999Z</time></trkpt><trkpt lat="43.33069102311825" lon="12.820769296177543"><ele>441.0</ele><time>2026-04-11T14:20:10.999Z</time></trkpt><trkpt lat="43.330603816074294" lon="12.820922834856471"><ele>437.33333333333337</ele><time>2026-04-11T14:20:11.999Z</time></trkpt><trkpt lat="43.330505129406056" lon="12.82108793966465"><ele>433.6666666666667</ele><time>2026-04-11T14:20:12.999Z</time></trkpt><trkpt lat="43.33038402078728" lon="12.821277696543097"><ele>430.0</ele><time>2026-04-11T14:20:13.999Z</time></trkpt><trkpt lat="43.33025887841711" lon="12.82144904214188"><ele>430.0</ele><time>2026-04-11T14:20:14.999Z</time></trkpt><trkpt lat="43.33009402371806" lon="12.821616542442122"><ele>430.0</ele><time>2026-04-11T14:20:15.999Z</time></trkpt><trkpt lat="43.32993168564107" lon="12.821758782482913"><ele>430.0</ele><time>2026-04-11T14:20:16.999Z</time></trkpt><trkpt lat="43.329770184888105" lon="12.821893892687443"><ele>429.6666666666667</ele><time>2026-04-11T14:20:17.999Z</time></trkpt><trkpt lat="43.32960446385253" lon="12.822043312311964"><ele>429.33333333333337</ele><time>2026-04-11T14:20:18.999Z</time></trkpt><trkpt lat="43.329443176776635" lon="12.822186218827332"><ele>429.0</ele><time>2026-04-11T14:20:19.999Z</time></trkpt><trkpt lat="43.329285309867224" lon="12.822328339662215"><ele>429.0</ele><time>2026-04-11T14:20:20.999Z</time></trkpt><trkpt lat="43.32912870534069" lon="12.822471575745578"><ele>429.0</ele><time>2026-04-11T14:20:21.999Z</time></trkpt><trkpt lat="43.32898834888708" lon="12.82258889077514"><ele>429.0</ele><time>2026-04-11T14:20:22.999Z</time></trkpt><trkpt lat="43.32883830187699" lon="12.822719139056792"><ele>429.5</ele><time>2026-04-11T14:20:23.999Z</time></trkpt><trkpt lat="43.32871452586917" lon="12.822818925582395"><ele>430.0</ele><time>2026-04-11T14:20:24.999Z</time></trkpt><trkpt lat="43.328604671184166" lon="12.822900212858293"><ele>430.5</ele><time>2026-04-11T14:20:25.999Z</time></trkpt><trkpt lat="43.32848809760569" lon="12.822960748138847"><ele>431.0</ele><time>2026-04-11T14:20:26.999Z</time></trkpt><trkpt lat="43.32836746381739" lon="12.822966915585623"><ele>431.0</ele><time>2026-04-11T14:20:27.999Z</time></trkpt><trkpt lat="43.32824220279819" lon="12.82291925482336"><ele>431.0</ele><time>2026-04-11T14:20:28.999Z</time></trkpt><trkpt lat="43.328137074715606" lon="12.822842969998375"><ele>431.0</ele><time>2026-04-11T14:20:29.999Z</time></trkpt><trkpt lat="43.32802021233362" lon="12.8227539630575"><ele>431.0</ele><time>2026-04-11T14:20:30.999Z</time></trkpt><trkpt lat="43.32788705848703" lon="12.822672176846671"><ele>432.25</ele><time>2026-04-11T14:20:31.999Z</time></trkpt><trkpt lat="43.327758084722504" lon="12.82260310167783"><ele>433.5</ele><time>2026-04-11T14:20:32.999Z</time></trkpt><trkpt lat="43.32762384565345" lon="12.822526512554896"><ele>434.75</ele><time>2026-04-11T14:20:33.999Z</time></trkpt><trkpt lat="43.327486836255844" lon="12.822432719601917"><ele>436.0</ele><time>2026-04-11T14:20:34.999Z</time></trkpt><trkpt lat="43.32735000473826" lon="12.822323400701128"><ele>437.0</ele><time>2026-04-11T14:20:35.999Z</time></trkpt><trkpt lat="43.3272082775273" lon="12.822219586179349"><ele>438.0</ele><time>2026-04-11T14:20:36.999Z</time></trkpt><trkpt lat="43.32707121763215" lon="12.822119655336843"><ele>439.0</ele><time>2026-04-11T14:20:37.999Z</time></trkpt><trkpt lat="43.32693639186811" lon="12.822019492338903"><ele>439.0</ele><time>2026-04-11T14:20:38.999Z</time></trkpt><trkpt lat="43.32679267542247" lon="12.821918439227636"><ele>439.0</ele><time>2026-04-11T14:20:39.999Z</time></trkpt><trkpt lat="43.326660145049544" lon="12.8218141122267"><ele>439.0</ele><time>2026-04-11T14:20:40.999Z</time></trkpt><trkpt lat="43.326528355724186" lon="12.821712878679447"><ele>440.25</ele><time>2026-04-11T14:20:41.999Z</time></trkpt><trkpt lat="43.326406642499336" lon="12.82160664896835"><ele>441.5</ele><time>2026-04-11T14:20:42.999Z</time></trkpt><trkpt lat="43.326290595180275" lon="12.821489244855627"><ele>442.75</ele><time>2026-04-11T14:20:43.999Z</time></trkpt><trkpt lat="43.32618621125998" lon="12.821356217790758"><ele>444.0</ele><time>2026-04-11T14:20:44.999Z</time></trkpt><trkpt lat="43.32609449593173" lon="12.821218626172605"><ele>444.5</ele><time>2026-04-11T14:20:45.999Z</time></trkpt><trkpt lat="43.32600593069138" lon="12.821097874706986"><ele>445.0</ele><time>2026-04-11T14:20:46.999Z</time></trkpt><trkpt lat="43.32590610874683" lon="12.820964548719553"><ele>445.5</ele><time>2026-04-11T14:20:47.999Z</time></trkpt><trkpt lat="43.32580408859309" lon="12.820836564691312"><ele>446.0</ele><time>2026-04-11T14:20:48.999Z</time></trkpt><trkpt lat="43.32570054909229" lon="12.820732647676548"><ele>447.75</ele><time>2026-04-11T14:20:49.999Z</time></trkpt><trkpt lat="43.32558455380458" lon="12.820654241730702"><ele>449.5</ele><time>2026-04-11T14:20:50.999Z</time></trkpt><trkpt lat="43.32545692716472" lon="12.820589832094434"><ele>451.25</ele><time>2026-04-11T14:20:51.999Z</time></trkpt><trkpt lat="43.32532788807054" lon="12.820550603812396"><ele>453.0</ele><time>2026-04-11T14:20:52.999Z</time></trkpt><trkpt lat="43.32518734627494" lon="12.820533382120772"><ele>453.75</ele><time>2026-04-11T14:20:53.999Z</time></trkpt><trkpt lat="43.32505260097204" lon="12.820533063914583"><ele>454.5</ele><time>2026-04-11T14:20:54.999Z</time></trkpt><trkpt lat="43.32490449195367" lon="12.82054099888006"><ele>455.25</ele><time>2026-04-11T14:20:55.999Z</time></trkpt><trkpt lat="43.324757980887924" lon="12.820544714428861"><ele>456.0</ele><time>2026-04-11T14:20:56.999Z</time></trkpt><trkpt lat="43.3246131774611" lon="12.820543329305456"><ele>456.66666666666663</ele><time>2026-04-11T14:20:57.999Z</time></trkpt><trkpt lat="43.32446026250244" lon="12.820541165049994"><ele>457.3333333333333</ele><time>2026-04-11T14:20:59Z</time></trkpt><trkpt lat="43.32432012139857" lon="12.820541814171742"><ele>458.0</ele><time>2026-04-11T14:21:00Z</time></trkpt><trkpt lat="43.324157892248984" lon="12.820541107597302"><ele>458.0</ele><time>2026-04-11T14:21:01Z</time></trkpt><trkpt lat="43.324008590552175" lon="12.82053117227962"><ele>458.0</ele><time>2026-04-11T14:21:02Z</time></trkpt><trkpt lat="43.32386472948383" lon="12.820525836843979"><ele>458.0</ele><time>2026-04-11T14:21:03Z</time></trkpt><trkpt lat="43.323726533963246" lon="12.820523195352795"><ele>458.0</ele><time>2026-04-11T14:21:04Z</time></trkpt><trkpt lat="43.3235969398823" lon="12.82053103510075"><ele>460.0</ele><time>2026-04-11T14:21:05Z</time></trkpt><trkpt lat="43.32347117649998" lon="12.820562689929972"><ele>462.0</ele><time>2026-04-11T14:21:06Z</time></trkpt><trkpt lat="43.323351547374656" lon="12.820626993247016"><ele>464.0</ele><time>2026-04-11T14:21:07Z</time></trkpt><trkpt lat="43.323232736189" lon="12.82071019239626"><ele>466.0</ele><time>2026-04-11T14:21:08Z</time></trkpt><trkpt lat="43.323124591428616" lon="12.820815622040058"><ele>466.75</ele><time>2026-04-11T14:21:09Z</time></trkpt><trkpt lat="43.32303237956924" lon="12.820948875825984"><ele>467.5</ele><time>2026-04-11T14:21:10Z</time></trkpt><trkpt lat="43.32295368665961" lon="12.82110073050974"><ele>468.25</ele><time>2026-04-11T14:21:11Z</time></trkpt><trkpt lat="43.32289368220135" lon="12.821266641513587"><ele>469.0</ele><time>2026-04-11T14:21:12Z</time></trkpt><trkpt lat="43.322836868797516" lon="12.82141076681707"><ele>469.0</ele><time>2026-04-11T14:21:13Z</time></trkpt><trkpt lat="43.32277512142335" lon="12.821529002458993"><ele>469.0</ele><time>2026-04-11T14:21:14Z</time></trkpt><trkpt lat="43.3227295870549" lon="12.821604390030375"><ele>469.0</ele><time>2026-04-11T14:21:15Z</time></trkpt><trkpt lat="43.32268213189568" lon="12.821694920316695"><ele>469.0</ele><time>2026-04-11T14:21:17Z</time></trkpt><trkpt lat="43.322714264519036" lon="12.821839598324217"><ele>469.0</ele><time>2026-04-11T14:21:19Z</time></trkpt><trkpt lat="43.32277305201879" lon="12.821932868027096"><ele>466.5</ele><time>2026-04-11T14:21:20Z</time></trkpt><trkpt lat="43.32285282659303" lon="12.822038655586303"><ele>464.0</ele><time>2026-04-11T14:21:21Z</time></trkpt><trkpt lat="43.32293185038833" lon="12.82216431802063"><ele>461.5</ele><time>2026-04-11T14:21:22Z</time></trkpt><trkpt lat="43.32300526032306" lon="12.82228938373445"><ele>459.0</ele><time>2026-04-11T14:21:23Z</time></trkpt><trkpt lat="43.323086723049975" lon="12.822444532427703"><ele>459.0</ele><time>2026-04-11T14:21:24Z</time></trkpt><trkpt lat="43.32317197058548" lon="12.822603797655843"><ele>459.0</ele><time>2026-04-11T14:21:25Z</time></trkpt><trkpt lat="43.32325440763555" lon="12.822752719150735"><ele>459.0</ele><time>2026-04-11T14:21:26Z</time></trkpt><trkpt lat="43.32333096721131" lon="12.8228902018581"><ele>459.0</ele><time>2026-04-11T14:21:27Z</time></trkpt><trkpt lat="43.323398591236256" lon="12.823013537968311"><ele>458.4</ele><time>2026-04-11T14:21:28Z</time></trkpt><trkpt lat="43.323464943279895" lon="12.82313325424231"><ele>457.79999999999995</ele><time>2026-04-11T14:21:29Z</time></trkpt><trkpt lat="43.323502920020935" lon="12.82326468681417"><ele>457.20000000000005</ele><time>2026-04-11T14:21:30Z</time></trkpt><trkpt lat="43.32350599696093" lon="12.823399933561243"><ele>456.6</ele><time>2026-04-11T14:21:31Z</time></trkpt><trkpt lat="43.32347396133581" lon="12.823545586604771"><ele>456.0</ele><time>2026-04-11T14:21:32Z</time></trkpt><trkpt lat="43.323401031602394" lon="12.823679579362526"><ele>457.20000000000005</ele><time>2026-04-11T14:21:33Z</time></trkpt><trkpt lat="43.32331603141884" lon="12.823771491962644"><ele>458.40000000000003</ele><time>2026-04-11T14:21:34Z</time></trkpt><trkpt lat="43.323233445723034" lon="12.823845547027396"><ele>459.6</ele><time>2026-04-11T14:21:35Z</time></trkpt><trkpt lat="43.32316402126859" lon="12.8239152134217"><ele>460.8</ele><time>2026-04-11T14:21:36Z</time></trkpt><trkpt lat="43.32310796327915" lon="12.824003216750308"><ele>462.0</ele><time>2026-04-11T14:21:37Z</time></trkpt><trkpt lat="43.32304314485964" lon="12.824116963534802"><ele>460.0</ele><time>2026-04-11T14:21:38Z</time></trkpt><trkpt lat="43.32298629801645" lon="12.824216727841653"><ele>458.00000000000006</ele><time>2026-04-11T14:21:39Z</time></trkpt><trkpt lat="43.322930721213126" lon="12.824321867148429"><ele>456.00000000000006</ele><time>2026-04-11T14:21:40Z</time></trkpt><trkpt lat="43.322881757642726" lon="12.824430943261579"><ele>454.0</ele><time>2026-04-11T14:21:41Z</time></trkpt><trkpt lat="43.32283003034574" lon="12.824541793555781"><ele>452.0</ele><time>2026-04-11T14:21:42Z</time></trkpt><trkpt lat="43.322771306195065" lon="12.824663527972712"><ele>452.0</ele><time>2026-04-11T14:21:43Z</time></trkpt><trkpt lat="43.32270802377795" lon="12.824780541579667"><ele>452.00000000000006</ele><time>2026-04-11T14:21:44Z</time></trkpt><trkpt lat="43.32263820144501" lon="12.82490084998128"><ele>452.00000000000006</ele><time>2026-04-11T14:21:45Z</time></trkpt><trkpt lat="43.322586375704816" lon="12.825014627333138"><ele>452.0</ele><time>2026-04-11T14:21:46Z</time></trkpt><trkpt lat="43.322518381198314" lon="12.82512411525383"><ele>452.0</ele><time>2026-04-11T14:21:47Z</time></trkpt><trkpt lat="43.32244328704224" lon="12.825211478337351"><ele>451.8</ele><time>2026-04-11T14:21:48Z</time></trkpt><trkpt lat="43.32237831187843" lon="12.825279576833053"><ele>451.6</ele><time>2026-04-11T14:21:49Z</time></trkpt><trkpt lat="43.32232513615331" lon="12.825384823546715"><ele>451.40000000000003</ele><time>2026-04-11T14:21:50Z</time></trkpt><trkpt lat="43.32229457580424" lon="12.825506664149474"><ele>451.20000000000005</ele><time>2026-04-11T14:21:51Z</time></trkpt><trkpt lat="43.32228368370818" lon="12.825639020579237"><ele>451.0</ele><time>2026-04-11T14:21:52Z</time></trkpt><trkpt lat="43.32229385320667" lon="12.825768232040872"><ele>451.00000000000006</ele><time>2026-04-11T14:21:53Z</time></trkpt><trkpt lat="43.322309983085425" lon="12.825883618524005"><ele>451.0</ele><time>2026-04-11T14:21:54Z</time></trkpt><trkpt lat="43.32233318063953" lon="12.825981064825966"><ele>451.0</ele><time>2026-04-11T14:21:55Z</time></trkpt><trkpt lat="43.32237916576262" lon="12.826076399262137"><ele>451.0</ele><time>2026-04-11T14:21:56Z</time></trkpt><trkpt lat="43.32243138833255" lon="12.826189105966726"><ele>451.00000000000006</ele><time>2026-04-11T14:21:57Z</time></trkpt><trkpt lat="43.32246305754511" lon="12.826294033645642"><ele>451.0</ele><time>2026-04-11T14:21:58Z</time></trkpt><trkpt lat="43.322494444959055" lon="12.82640769256042"><ele>451.00000000000006</ele><time>2026-04-11T14:21:59Z</time></trkpt><trkpt lat="43.32251688798197" lon="12.8265142819371"><ele>451.0</ele><time>2026-04-11T14:22:00Z</time></trkpt><trkpt lat="43.32251794214965" lon="12.826611681955322"><ele>451.0</ele><time>2026-04-11T14:22:01Z</time></trkpt><trkpt lat="43.32249000590986" lon="12.826720229450277"><ele>451.0</ele><time>2026-04-11T14:22:02Z</time></trkpt><trkpt lat="43.32242097129924" lon="12.826809927070142"><ele>451.00000000000006</ele><time>2026-04-11T14:22:03Z</time></trkpt><trkpt lat="43.32235045094624" lon="12.826871457463714"><ele>451.0</ele><time>2026-04-11T14:22:04Z</time></trkpt><trkpt lat="43.32228063639809" lon="12.826956436661646"><ele>449.20000000000005</ele><time>2026-04-11T14:22:05Z</time></trkpt><trkpt lat="43.322207156979495" lon="12.827051775447874"><ele>447.40000000000003</ele><time>2026-04-11T14:22:06Z</time></trkpt><trkpt lat="43.32214572936653" lon="12.827141288003435"><ele>445.6</ele><time>2026-04-11T14:22:07Z</time></trkpt><trkpt lat="43.32207665488815" lon="12.827244929111753"><ele>443.8</ele><time>2026-04-11T14:22:08Z</time></trkpt><trkpt lat="43.322011616464536" lon="12.827340860293909"><ele>442.0</ele><time>2026-04-11T14:22:09Z</time></trkpt><trkpt lat="43.32194958856771" lon="12.82746415988397"><ele>442.0</ele><time>2026-04-11T14:22:10Z</time></trkpt><trkpt lat="43.321894556248196" lon="12.827574158546827"><ele>442.00000000000006</ele><time>2026-04-11T14:22:11Z</time></trkpt><trkpt lat="43.32185187431026" lon="12.827667560614254"><ele>442.00000000000006</ele><time>2026-04-11T14:22:12Z</time></trkpt><trkpt lat="43.321781173668384" lon="12.827780409370929"><ele>442.0</ele><time>2026-04-11T14:22:13Z</time></trkpt><trkpt lat="43.321737180804305" lon="12.827871867953492"><ele>442.0</ele><time>2026-04-11T14:22:14Z</time></trkpt><trkpt lat="43.32170084384294" lon="12.827991779969828"><ele>441.6</ele><time>2026-04-11T14:22:15Z</time></trkpt><trkpt lat="43.32168525191854" lon="12.828125008962779"><ele>441.20000000000005</ele><time>2026-04-11T14:22:16Z</time></trkpt><trkpt lat="43.32167269706494" lon="12.828277575367283"><ele>440.8</ele><time>2026-04-11T14:22:16.999Z</time></trkpt><trkpt lat="43.32165286697354" lon="12.828413749607181"><ele>440.4</ele><time>2026-04-11T14:22:17.999Z</time></trkpt><trkpt lat="43.32162680956809" lon="12.828561277840087"><ele>440.0</ele><time>2026-04-11T14:22:18.999Z</time></trkpt><trkpt lat="43.321598908980164" lon="12.828690543921669"><ele>440.0</ele><time>2026-04-11T14:22:19.999Z</time></trkpt><trkpt lat="43.32157720549695" lon="12.82882673598038"><ele>440.0</ele><time>2026-04-11T14:22:20.999Z</time></trkpt><trkpt lat="43.32154957560326" lon="12.828960485979342"><ele>440.0</ele><time>2026-04-11T14:22:21.999Z</time></trkpt><trkpt lat="43.32153610732307" lon="12.829127205108863"><ele>440.0</ele><time>2026-04-11T14:22:22.999Z</time></trkpt><trkpt lat="43.321527154565565" lon="12.829273467153229"><ele>440.0</ele><time>2026-04-11T14:22:23.999Z</time></trkpt><trkpt lat="43.32151718070855" lon="12.829419279195374"><ele>438.0</ele><time>2026-04-11T14:22:24.999Z</time></trkpt><trkpt lat="43.3215303181145" lon="12.829575994060525"><ele>436.0</ele><time>2026-04-11T14:22:25.999Z</time></trkpt><trkpt lat="43.32155989860219" lon="12.829723448544161"><ele>434.0</ele><time>2026-04-11T14:22:26.999Z</time></trkpt><trkpt lat="43.321599521809674" lon="12.829878986854563"><ele>432.0</ele><time>2026-04-11T14:22:27.999Z</time></trkpt><trkpt lat="43.32164525931915" lon="12.830027506374586"><ele>431.5</ele><time>2026-04-11T14:22:28.999Z</time></trkpt><trkpt lat="43.321684518074825" lon="12.83018390273438"><ele>431.0</ele><time>2026-04-11T14:22:29.999Z</time></trkpt><trkpt lat="43.321716970029634" lon="12.830341449670778"><ele>430.5</ele><time>2026-04-11T14:22:30.999Z</time></trkpt><trkpt lat="43.321734246524386" lon="12.830493870063442"><ele>430.0</ele><time>2026-04-11T14:22:31.999Z</time></trkpt><trkpt lat="43.3217519013177" lon="12.830643498077494"><ele>430.0</ele><time>2026-04-11T14:22:32.999Z</time></trkpt><trkpt lat="43.32177884023756" lon="12.830782026799103"><ele>430.0</ele><time>2026-04-11T14:22:33.999Z</time></trkpt><trkpt lat="43.32182572123655" lon="12.83091448671744"><ele>430.0</ele><time>2026-04-11T14:22:34.999Z</time></trkpt><trkpt lat="43.32185901100123" lon="12.831042216888234"><ele>430.0</ele><time>2026-04-11T14:22:35.999Z</time></trkpt><trkpt lat="43.32185719919901" lon="12.831173114686218"><ele>430.0</ele><time>2026-04-11T14:22:36.999Z</time></trkpt><trkpt lat="43.32182715425671" lon="12.831305502298836"><ele>430.00000000000006</ele><time>2026-04-11T14:22:37.999Z</time></trkpt><trkpt lat="43.32179401085171" lon="12.831433266362897"><ele>430.0</ele><time>2026-04-11T14:22:38.999Z</time></trkpt><trkpt lat="43.32177893263666" lon="12.831533617317609"><ele>430.0</ele><time>2026-04-11T14:22:39.999Z</time></trkpt><trkpt lat="43.32178352259545" lon="12.831645927866477"><ele>430.0</ele><time>2026-04-11T14:22:40.999Z</time></trkpt><trkpt lat="43.32179678468336" lon="12.831747881626692"><ele>430.00000000000006</ele><time>2026-04-11T14:22:41.999Z</time></trkpt><trkpt lat="43.321816228649006" lon="12.831847421959898"><ele>430.0</ele><time>2026-04-11T14:22:42.999Z</time></trkpt><trkpt lat="43.321845546377126" lon="12.8319601526169"><ele>428.8</ele><time>2026-04-11T14:22:43.999Z</time></trkpt><trkpt lat="43.32190272447402" lon="12.832071534797404"><ele>427.6</ele><time>2026-04-11T14:22:44.999Z</time></trkpt><trkpt lat="43.32196250025961" lon="12.832172739936661"><ele>426.4</ele><time>2026-04-11T14:22:45.999Z</time></trkpt><trkpt lat="43.322005296862066" lon="12.832306082007939"><ele>425.2</ele><time>2026-04-11T14:22:46.999Z</time></trkpt><trkpt lat="43.32202819408749" lon="12.832464891245914"><ele>424.0</ele><time>2026-04-11T14:22:47.999Z</time></trkpt><trkpt lat="43.322048100112376" lon="12.832645918145117"><ele>423.0</ele><time>2026-04-11T14:22:48.999Z</time></trkpt><trkpt lat="43.32207049596924" lon="12.832831988193135"><ele>422.0</ele><time>2026-04-11T14:22:49.999Z</time></trkpt><trkpt lat="43.322101534387926" lon="12.833010401061552"><ele>421.0</ele><time>2026-04-11T14:22:50.999Z</time></trkpt><trkpt lat="43.32215252087053" lon="12.833176000748567"><ele>420.0</ele><time>2026-04-11T14:22:51.999Z</time></trkpt><trkpt lat="43.322200811144505" lon="12.833357776431981"><ele>420.5</ele><time>2026-04-11T14:22:52.999Z</time></trkpt><trkpt lat="43.322240656712" lon="12.83355194804111"><ele>421.0</ele><time>2026-04-11T14:22:53.999Z</time></trkpt><trkpt lat="43.322282586825146" lon="12.833754607593503"><ele>421.5</ele><time>2026-04-11T14:22:54.999Z</time></trkpt><trkpt lat="43.322328691355985" lon="12.833945862738897"><ele>422.0</ele><time>2026-04-11T14:22:55.999Z</time></trkpt><trkpt lat="43.32238850091217" lon="12.83413061754321"><ele>420.0</ele><time>2026-04-11T14:22:56.999Z</time></trkpt><trkpt lat="43.32246516706661" lon="12.834309997814241"><ele>418.0</ele><time>2026-04-11T14:22:57.999Z</time></trkpt><trkpt lat="43.32255721019135" lon="12.83451199293698"><ele>416.0</ele><time>2026-04-11T14:22:58.999Z</time></trkpt><trkpt lat="43.32265507900513" lon="12.834688351313858"><ele>416.0</ele><time>2026-04-11T14:22:59.999Z</time></trkpt><trkpt lat="43.32273706356616" lon="12.834853089858537"><ele>416.0</ele><time>2026-04-11T14:23:00.999Z</time></trkpt><trkpt lat="43.32280869206353" lon="12.834997362271777"><ele>416.0</ele><time>2026-04-11T14:23:01.999Z</time></trkpt><trkpt lat="43.32284941620637" lon="12.835096872587199"><ele>416.0</ele><time>2026-04-11T14:23:02.999Z</time></trkpt><trkpt lat="43.32286845085969" lon="12.835199318348977"><ele>416.0</ele><time>2026-04-11T14:23:03.999Z</time></trkpt><trkpt lat="43.322843527483826" lon="12.835315412425313"><ele>416.0</ele><time>2026-04-11T14:23:05Z</time></trkpt><trkpt lat="43.322826858511846" lon="12.83544674171027"><ele>416.0</ele><time>2026-04-11T14:23:06Z</time></trkpt><trkpt lat="43.3228345817389" lon="12.835591017229973"><ele>416.0</ele><time>2026-04-11T14:23:07Z</time></trkpt><trkpt lat="43.32285806635472" lon="12.835721201543537"><ele>416.0</ele><time>2026-04-11T14:23:08Z</time></trkpt><trkpt lat="43.322870673145744" lon="12.835854071079773"><ele>416.0</ele><time>2026-04-11T14:23:09Z</time></trkpt><trkpt lat="43.32288204422345" lon="12.835994428488961"><ele>416.66666666666663</ele><time>2026-04-11T14:23:10Z</time></trkpt><trkpt lat="43.322895003466634" lon="12.836099958526406"><ele>417.3333333333333</ele><time>2026-04-11T14:23:11Z</time></trkpt><trkpt lat="43.32291164610431" lon="12.836197404786326"><ele>418.0</ele><time>2026-04-11T14:23:12Z</time></trkpt><trkpt lat="43.322952791332824" lon="12.836358755906824"><ele>418.66666666666663</ele><time>2026-04-11T14:23:14Z</time></trkpt><trkpt lat="43.3229709477623" lon="12.83644628147692"><ele>419.3333333333333</ele><time>2026-04-11T14:23:15Z</time></trkpt><trkpt lat="43.322977459744784" lon="12.83653664911254"><ele>420.0</ele><time>2026-04-11T14:23:16Z</time></trkpt><trkpt lat="43.32296095931117" lon="12.836627671651105"><ele>420.0</ele><time>2026-04-11T14:23:17Z</time></trkpt><trkpt lat="43.32292274910773" lon="12.836731751308756"><ele>420.0</ele><time>2026-04-11T14:23:18Z</time></trkpt><trkpt lat="43.32287273275028" lon="12.83685358605335"><ele>420.0</ele><time>2026-04-11T14:23:19Z</time></trkpt><trkpt lat="43.32283956740095" lon="12.83697541642867"><ele>420.0</ele><time>2026-04-11T14:23:20Z</time></trkpt><trkpt lat="43.32280248574798" lon="12.837103549602608"><ele>420.0</ele><time>2026-04-11T14:23:21Z</time></trkpt><trkpt lat="43.322767331963135" lon="12.837225483953622"><ele>420.2</ele><time>2026-04-11T14:23:22Z</time></trkpt><trkpt lat="43.32272945117839" lon="12.83734788335647"><ele>420.4</ele><time>2026-04-11T14:23:23Z</time></trkpt><trkpt lat="43.32269189513003" lon="12.83747678734178"><ele>420.6</ele><time>2026-04-11T14:23:24Z</time></trkpt><trkpt lat="43.3226562065584" lon="12.837609198452661"><ele>420.8</ele><time>2026-04-11T14:23:25Z</time></trkpt><trkpt lat="43.32261604307845" lon="12.837749566008428"><ele>421.0</ele><time>2026-04-11T14:23:26Z</time></trkpt><trkpt lat="43.322567046458865" lon="12.837892172740023"><ele>421.0</ele><time>2026-04-11T14:23:27Z</time></trkpt><trkpt lat="43.32251156167029" lon="12.838032002773868"><ele>421.0</ele><time>2026-04-11T14:23:28Z</time></trkpt><trkpt lat="43.3224460579156" lon="12.838175919731105"><ele>421.0</ele><time>2026-04-11T14:23:29Z</time></trkpt><trkpt lat="43.322363703902454" lon="12.838321367551545"><ele>421.0</ele><time>2026-04-11T14:23:30Z</time></trkpt><trkpt lat="43.32226216959408" lon="12.838471065702901"><ele>420.6666666666667</ele><time>2026-04-11T14:23:31Z</time></trkpt><trkpt lat="43.322142943817674" lon="12.838631154007473"><ele>420.33333333333337</ele><time>2026-04-11T14:23:32Z</time></trkpt><trkpt lat="43.3220135234047" lon="12.838770822776317"><ele>420.0</ele><time>2026-04-11T14:23:33Z</time></trkpt><trkpt lat="43.3218698217616" lon="12.838889644216943"><ele>420.0</ele><time>2026-04-11T14:23:34Z</time></trkpt><trkpt lat="43.321729582297344" lon="12.838991745606512"><ele>420.0</ele><time>2026-04-11T14:23:35Z</time></trkpt><trkpt lat="43.32157024163079" lon="12.839079967341505"><ele>420.0</ele><time>2026-04-11T14:23:36Z</time></trkpt><trkpt lat="43.32140673782646" lon="12.839138988359634"><ele>421.33333333333337</ele><time>2026-04-11T14:23:37Z</time></trkpt><trkpt lat="43.321239402737014" lon="12.839182238693066"><ele>422.6666666666667</ele><time>2026-04-11T14:23:38Z</time></trkpt><trkpt lat="43.32106957538385" lon="12.839209176144093"><ele>424.0</ele><time>2026-04-11T14:23:39Z</time></trkpt><trkpt lat="43.320892307010865" lon="12.839215434844405"><ele>424.0</ele><time>2026-04-11T14:23:40Z</time></trkpt><trkpt lat="43.3207155931447" lon="12.839190116946233"><ele>424.0</ele><time>2026-04-11T14:23:41Z</time></trkpt><trkpt lat="43.32053689949201" lon="12.839140588978642"><ele>424.0</ele><time>2026-04-11T14:23:42Z</time></trkpt><trkpt lat="43.32035758078791" lon="12.8390651590355"><ele>426.33333333333337</ele><time>2026-04-11T14:23:43Z</time></trkpt><trkpt lat="43.32018491754845" lon="12.838981025141507"><ele>428.66666666666663</ele><time>2026-04-11T14:23:44Z</time></trkpt><trkpt lat="43.320018554805635" lon="12.838900067952428"><ele>431.0</ele><time>2026-04-11T14:23:45Z</time></trkpt><trkpt lat="43.31983461070861" lon="12.838790246957902"><ele>438.0</ele><time>2026-04-11T14:23:46Z</time></trkpt><trkpt lat="43.31962424269834" lon="12.838672971704664"><ele>445.0</ele><time>2026-04-11T14:23:47Z</time></trkpt><trkpt lat="43.31940143888729" lon="12.838553800610981"><ele>437.5</ele><time>2026-04-11T14:23:48Z</time></trkpt><trkpt lat="43.31917414266543" lon="12.838434444142326"><ele>430.0</ele><time>2026-04-11T14:23:49Z</time></trkpt><trkpt lat="43.31894550153623" lon="12.838313469508998"><ele>439.5</ele><time>2026-04-11T14:23:50Z</time></trkpt><trkpt lat="43.31870421716677" lon="12.838184176537736"><ele>449.0</ele><time>2026-04-11T14:23:51Z</time></trkpt><trkpt lat="43.31846140777281" lon="12.838046836592909"><ele>449.0</ele><time>2026-04-11T14:23:52Z</time></trkpt><trkpt lat="43.318238015436336" lon="12.837927147581864"><ele>449.0</ele><time>2026-04-11T14:23:53Z</time></trkpt><trkpt lat="43.31804257921439" lon="12.83782078612588"><ele>453.3333333333333</ele><time>2026-04-11T14:23:54Z</time></trkpt><trkpt lat="43.31786873048689" lon="12.8377235630382"><ele>457.66666666666663</ele><time>2026-04-11T14:23:55Z</time></trkpt><trkpt lat="43.31770189989078" lon="12.837626465086291"><ele>462.0</ele><time>2026-04-11T14:23:56Z</time></trkpt><trkpt lat="43.317532505888344" lon="12.837532815876829"><ele>454.33333333333337</ele><time>2026-04-11T14:23:57Z</time></trkpt><trkpt lat="43.317372063436174" lon="12.837450796254066"><ele>446.6666666666667</ele><time>2026-04-11T14:23:58Z</time></trkpt><trkpt lat="43.31721414673326" lon="12.83736992133975"><ele>439.0</ele><time>2026-04-11T14:23:59Z</time></trkpt><trkpt lat="43.317062245921555" lon="12.83729058484006"><ele>439.0</ele><time>2026-04-11T14:24:00Z</time></trkpt><trkpt lat="43.31689956506286" lon="12.837203295774694"><ele>439.0</ele><time>2026-04-11T14:24:01Z</time></trkpt><trkpt lat="43.31674459854987" lon="12.837120167369893"><ele>439.0</ele><time>2026-04-11T14:24:02Z</time></trkpt><trkpt lat="43.3165883107429" lon="12.837032416373647"><ele>439.0</ele><time>2026-04-11T14:24:03Z</time></trkpt><trkpt lat="43.316439931341456" lon="12.83694741178018"><ele>439.0</ele><time>2026-04-11T14:24:04Z</time></trkpt><trkpt lat="43.31628515326902" lon="12.836861781919051"><ele>439.0</ele><time>2026-04-11T14:24:05Z</time></trkpt><trkpt lat="43.3161250170688" lon="12.836786604937917"><ele>438.33333333333337</ele><time>2026-04-11T14:24:06Z</time></trkpt><trkpt lat="43.315972095328114" lon="12.836712615463968"><ele>437.66666666666663</ele><time>2026-04-11T14:24:07Z</time></trkpt><trkpt lat="43.31581945191308" lon="12.83663008261256"><ele>437.0</ele><time>2026-04-11T14:24:08Z</time></trkpt><trkpt lat="43.31567095971512" lon="12.836547526078125"><ele>439.0</ele><time>2026-04-11T14:24:09Z</time></trkpt><trkpt lat="43.31550679434785" lon="12.836461316991125"><ele>441.0</ele><time>2026-04-11T14:24:10Z</time></trkpt><trkpt lat="43.315358448369295" lon="12.836379051033305"><ele>443.0</ele><time>2026-04-11T14:24:11Z</time></trkpt><trkpt lat="43.31520369683259" lon="12.836291496787265"><ele>443.0</ele><time>2026-04-11T14:24:12Z</time></trkpt><trkpt lat="43.31504377183301" lon="12.836205514224016"><ele>443.0</ele><time>2026-04-11T14:24:13Z</time></trkpt><trkpt lat="43.31488130039767" lon="12.836117323245679"><ele>443.0</ele><time>2026-04-11T14:24:14Z</time></trkpt><trkpt lat="43.31472067947871" lon="12.836035552780071"><ele>442.3333333333333</ele><time>2026-04-11T14:24:15Z</time></trkpt><trkpt lat="43.31456358828146" lon="12.8359542269663"><ele>441.66666666666663</ele><time>2026-04-11T14:24:16Z</time></trkpt><trkpt lat="43.31440851315739" lon="12.835868690348725"><ele>441.0</ele><time>2026-04-11T14:24:17Z</time></trkpt><trkpt lat="43.31425439635324" lon="12.835780120847568"><ele>441.0</ele><time>2026-04-11T14:24:18Z</time></trkpt><trkpt lat="43.31408644690553" lon="12.835682517855778"><ele>441.0</ele><time>2026-04-11T14:24:19Z</time></trkpt><trkpt lat="43.31394661922681" lon="12.83558834342737"><ele>441.0</ele><time>2026-04-11T14:24:20Z</time></trkpt><trkpt lat="43.31379172425441" lon="12.83547334975551"><ele>441.66666666666663</ele><time>2026-04-11T14:24:21Z</time></trkpt><trkpt lat="43.31365342680704" lon="12.835354880039322"><ele>442.3333333333333</ele><time>2026-04-11T14:24:22Z</time></trkpt><trkpt lat="43.31352681437899" lon="12.835230522473955"><ele>443.0</ele><time>2026-04-11T14:24:23Z</time></trkpt><trkpt lat="43.31340101818985" lon="12.835092774219511"><ele>443.0</ele><time>2026-04-11T14:24:24Z</time></trkpt><trkpt lat="43.31329189265478" lon="12.834962731838665"><ele>443.0</ele><time>2026-04-11T14:24:25Z</time></trkpt><trkpt lat="43.313198044804885" lon="12.834843321189323"><ele>443.0</ele><time>2026-04-11T14:24:25.999Z</time></trkpt><trkpt lat="43.313117009858495" lon="12.83473023746526"><ele>443.0</ele><time>2026-04-11T14:24:26.999Z</time></trkpt><trkpt lat="43.31304307857885" lon="12.834621325479809"><ele>443.79999999999995</ele><time>2026-04-11T14:24:27.999Z</time></trkpt><trkpt lat="43.312975978394064" lon="12.834515360816189"><ele>444.59999999999997</ele><time>2026-04-11T14:24:28.999Z</time></trkpt><trkpt lat="43.31291928736659" lon="12.834416443135833"><ele>445.40000000000003</ele><time>2026-04-11T14:24:29.999Z</time></trkpt><trkpt lat="43.312873153162755" lon="12.83432379123304"><ele>446.20000000000005</ele><time>2026-04-11T14:24:30.999Z</time></trkpt><trkpt lat="43.31283598898163" lon="12.83423631309912"><ele>447.0</ele><time>2026-04-11T14:24:31.999Z</time></trkpt><trkpt lat="43.31277382358109" lon="12.834118138568783"><ele>447.0</ele><time>2026-04-11T14:24:33.999Z</time></trkpt><trkpt lat="43.31273296498926" lon="12.834031502371351"><ele>447.0</ele><time>2026-04-11T14:24:35.999Z</time></trkpt><trkpt lat="43.31267741491206" lon="12.833956397670079"><ele>447.0</ele><time>2026-04-11T14:26:00Z</time></trkpt><trkpt lat="43.31267013913817" lon="12.834071294360069"><ele>447.0</ele><time>2026-04-11T14:26:04Z</time></trkpt><trkpt lat="43.312713748610335" lon="12.834151782530071"><ele>447.0</ele><time>2026-04-11T14:26:06Z</time></trkpt><trkpt lat="43.31277876756685" lon="12.83425581092441"><ele>447.0</ele><time>2026-04-11T14:26:08Z</time></trkpt><trkpt lat="43.312849728406114" lon="12.834394907330648"><ele>447.3333333333333</ele><time>2026-04-11T14:26:10Z</time></trkpt><trkpt lat="43.31289092654516" lon="12.834464669260507"><ele>447.66666666666663</ele><time>2026-04-11T14:26:11Z</time></trkpt><trkpt lat="43.312941403243514" lon="12.834547194118688"><ele>448.0</ele><time>2026-04-11T14:26:12Z</time></trkpt><trkpt lat="43.31299937265789" lon="12.83463576730994"><ele>448.3333333333333</ele><time>2026-04-11T14:26:13Z</time></trkpt><trkpt lat="43.313062331376344" lon="12.834728802686877"><ele>448.66666666666663</ele><time>2026-04-11T14:26:14Z</time></trkpt><trkpt lat="43.31311778746529" lon="12.834814161283445"><ele>449.0</ele><time>2026-04-11T14:26:15Z</time></trkpt><trkpt lat="43.3131786990022" lon="12.834902027565713"><ele>448.1428571428571</ele><time>2026-04-11T14:26:16Z</time></trkpt><trkpt lat="43.31324291391567" lon="12.834978457799975"><ele>447.2857142857142</ele><time>2026-04-11T14:26:17Z</time></trkpt><trkpt lat="43.31330353235292" lon="12.835049832502621"><ele>446.42857142857144</ele><time>2026-04-11T14:26:18Z</time></trkpt><trkpt lat="43.31336080940135" lon="12.835119108421498"><ele>445.57142857142856</ele><time>2026-04-11T14:26:19Z</time></trkpt><trkpt lat="43.31341465039428" lon="12.835172435740773"><ele>444.7142857142857</ele><time>2026-04-11T14:26:20Z</time></trkpt><trkpt lat="43.31346680503652" lon="12.83522898229896"><ele>443.8571428571429</ele><time>2026-04-11T14:26:21Z</time></trkpt><trkpt lat="43.31352007097876" lon="12.835286949772359"><ele>443.0</ele><time>2026-04-11T14:26:22Z</time></trkpt><trkpt lat="43.31359252637766" lon="12.8353552039739"><ele>443.0</ele><time>2026-04-11T14:26:23Z</time></trkpt><trkpt lat="43.31368176012187" lon="12.835435908542262"><ele>443.0</ele><time>2026-04-11T14:26:24Z</time></trkpt><trkpt lat="43.31378393023239" lon="12.835523153631506"><ele>443.0</ele><time>2026-04-11T14:26:25Z</time></trkpt><trkpt lat="43.31390088300034" lon="12.835613389202045"><ele>443.0</ele><time>2026-04-11T14:26:26Z</time></trkpt><trkpt lat="43.31403379187073" lon="12.83570643550919"><ele>442.3333333333333</ele><time>2026-04-11T14:26:27Z</time></trkpt><trkpt lat="43.314177072667526" lon="12.835789679045527"><ele>441.66666666666663</ele><time>2026-04-11T14:26:28Z</time></trkpt><trkpt lat="43.314343981790394" lon="12.83586993927441"><ele>441.0</ele><time>2026-04-11T14:26:29Z</time></trkpt><trkpt lat="43.3145093367369" lon="12.835945789186788"><ele>441.66666666666663</ele><time>2026-04-11T14:26:30Z</time></trkpt><trkpt lat="43.31467671536403" lon="12.836031927783567"><ele>442.3333333333333</ele><time>2026-04-11T14:26:31Z</time></trkpt><trkpt lat="43.31484410500149" lon="12.83612341328422"><ele>443.0</ele><time>2026-04-11T14:26:32Z</time></trkpt><trkpt lat="43.31500826740502" lon="12.836218793958585"><ele>443.0</ele><time>2026-04-11T14:26:33Z</time></trkpt><trkpt lat="43.31517566490331" lon="12.836317832778414"><ele>443.0</ele><time>2026-04-11T14:26:34Z</time></trkpt><trkpt lat="43.31533401514405" lon="12.836408901415497"><ele>443.0</ele><time>2026-04-11T14:26:35Z</time></trkpt><trkpt lat="43.3154915739263" lon="12.836496570896243"><ele>441.0</ele><time>2026-04-11T14:26:36Z</time></trkpt><trkpt lat="43.315652643255895" lon="12.836575628853822"><ele>439.0</ele><time>2026-04-11T14:26:37Z</time></trkpt><trkpt lat="43.315812982990074" lon="12.836658042114639"><ele>437.0</ele><time>2026-04-11T14:26:38Z</time></trkpt><trkpt lat="43.31596300362112" lon="12.836737323783554"><ele>437.66666666666663</ele><time>2026-04-11T14:26:38.999Z</time></trkpt><trkpt lat="43.31611002090594" lon="12.836812970289868"><ele>438.33333333333337</ele><time>2026-04-11T14:26:39.999Z</time></trkpt><trkpt lat="43.31626182967935" lon="12.836886226317858"><ele>439.0</ele><time>2026-04-11T14:26:40.999Z</time></trkpt><trkpt lat="43.31640742650694" lon="12.83696892997079"><ele>439.0</ele><time>2026-04-11T14:26:41.999Z</time></trkpt><trkpt lat="43.316551438923995" lon="12.83705425893858"><ele>439.0</ele><time>2026-04-11T14:26:42.999Z</time></trkpt><trkpt lat="43.316695343789995" lon="12.837139263817082"><ele>439.0</ele><time>2026-04-11T14:26:43.999Z</time></trkpt><trkpt lat="43.31684563939569" lon="12.837215506190873"><ele>439.0</ele><time>2026-04-11T14:26:44.999Z</time></trkpt><trkpt lat="43.316994207135366" lon="12.837292713809497"><ele>439.0</ele><time>2026-04-11T14:26:45.999Z</time></trkpt><trkpt lat="43.317147876746674" lon="12.83737617519471"><ele>439.0</ele><time>2026-04-11T14:26:46.999Z</time></trkpt><trkpt lat="43.31730540015729" lon="12.837461711982037"><ele>436.6666666666667</ele><time>2026-04-11T14:26:47.999Z</time></trkpt><trkpt lat="43.31746497982311" lon="12.837549090916736"><ele>434.33333333333337</ele><time>2026-04-11T14:26:48.999Z</time></trkpt><trkpt lat="43.317627322177984" lon="12.837639522810067"><ele>432.0</ele><time>2026-04-11T14:26:49.999Z</time></trkpt><trkpt lat="43.31777905394246" lon="12.837719774202814"><ele>437.66666666666663</ele><time>2026-04-11T14:26:50.999Z</time></trkpt><trkpt lat="43.3179382547392" lon="12.837802402930768"><ele>443.3333333333333</ele><time>2026-04-11T14:26:51.999Z</time></trkpt><trkpt lat="43.31809680660583" lon="12.837882786291429"><ele>449.0</ele><time>2026-04-11T14:26:52.999Z</time></trkpt><trkpt lat="43.31825635792799" lon="12.837970190767741"><ele>449.0</ele><time>2026-04-11T14:26:53.999Z</time></trkpt><trkpt lat="43.318406235680136" lon="12.838053402732772"><ele>449.0</ele><time>2026-04-11T14:26:54.999Z</time></trkpt><trkpt lat="43.31855434008958" lon="12.838128305537113"><ele>449.0</ele><time>2026-04-11T14:26:55.999Z</time></trkpt><trkpt lat="43.31871185169151" lon="12.838213477810813"><ele>449.0</ele><time>2026-04-11T14:26:56.999Z</time></trkpt><trkpt lat="43.31889062080114" lon="12.838307215537522"><ele>449.0</ele><time>2026-04-11T14:26:57.999Z</time></trkpt><trkpt lat="43.31909272843313" lon="12.838417094182907"><ele>449.0</ele><time>2026-04-11T14:26:58.999Z</time></trkpt><trkpt lat="43.319303733216316" lon="12.838526893770728"><ele>447.66666666666663</ele><time>2026-04-11T14:26:59.999Z</time></trkpt><trkpt lat="43.319507285759414" lon="12.838637805047657"><ele>446.33333333333337</ele><time>2026-04-11T14:27:00.999Z</time></trkpt><trkpt lat="43.31968482604616" lon="12.838740526537313"><ele>445.0</ele><time>2026-04-11T14:27:01.999Z</time></trkpt><trkpt lat="43.31982868020626" lon="12.838838336678847"><ele>441.5</ele><time>2026-04-11T14:27:02.999Z</time></trkpt><trkpt lat="43.319952953307265" lon="12.83894354072657"><ele>438.0</ele><time>2026-04-11T14:27:03.999Z</time></trkpt><trkpt lat="43.32006413291618" lon="12.83906805485478"><ele>434.5</ele><time>2026-04-11T14:27:04.999Z</time></trkpt><trkpt lat="43.320174361704005" lon="12.83918121647541"><ele>431.0</ele><time>2026-04-11T14:27:05.999Z</time></trkpt><trkpt lat="43.32028557197542" lon="12.839265472302136"><ele>434.0</ele><time>2026-04-11T14:27:06.999Z</time></trkpt><trkpt lat="43.320412141072744" lon="12.839323380403371"><ele>437.0</ele><time>2026-04-11T14:27:07.999Z</time></trkpt><trkpt lat="43.32053124672528" lon="12.839365446047703"><ele>440.0</ele><time>2026-04-11T14:27:08.999Z</time></trkpt><trkpt lat="43.3206487921537" lon="12.839398680192112"><ele>443.0</ele><time>2026-04-11T14:27:09.999Z</time></trkpt><trkpt lat="43.32076684324246" lon="12.839427907950341"><ele>443.0</ele><time>2026-04-11T14:27:10.999Z</time></trkpt><trkpt lat="43.32089356402969" lon="12.839464558889158"><ele>443.0</ele><time>2026-04-11T14:27:11.999Z</time></trkpt><trkpt lat="43.32102460965301" lon="12.839498671165336"><ele>443.0</ele><time>2026-04-11T14:27:12.999Z</time></trkpt><trkpt lat="43.321170259362205" lon="12.839530895156788"><ele>443.0</ele><time>2026-04-11T14:27:13.999Z</time></trkpt><trkpt lat="43.321325550344675" lon="12.83955850459824"><ele>439.3333333333333</ele><time>2026-04-11T14:27:14.999Z</time></trkpt><trkpt lat="43.321481001189234" lon="12.839585006409667"><ele>435.66666666666663</ele><time>2026-04-11T14:27:15.999Z</time></trkpt><trkpt lat="43.32165139552976" lon="12.83960793363656"><ele>432.0</ele><time>2026-04-11T14:27:17Z</time></trkpt><trkpt lat="43.32182373795566" lon="12.839628301569071"><ele>432.0</ele><time>2026-04-11T14:27:18Z</time></trkpt><trkpt lat="43.32198851343959" lon="12.839656282892994"><ele>432.0</ele><time>2026-04-11T14:27:19Z</time></trkpt><trkpt lat="43.32213958677176" lon="12.839683338878823"><ele>432.0</ele><time>2026-04-11T14:27:20Z</time></trkpt><trkpt lat="43.32229490870397" lon="12.839703623366757"><ele>430.0</ele><time>2026-04-11T14:27:21Z</time></trkpt><trkpt lat="43.32245335752111" lon="12.839725366936866"><ele>428.0</ele><time>2026-04-11T14:27:22Z</time></trkpt><trkpt lat="43.322607910980146" lon="12.839751738704441"><ele>426.0</ele><time>2026-04-11T14:27:23Z</time></trkpt><trkpt lat="43.3227546684056" lon="12.83978447191705"><ele>426.0</ele><time>2026-04-11T14:27:24Z</time></trkpt><trkpt lat="43.32290902236618" lon="12.83981690425033"><ele>426.0</ele><time>2026-04-11T14:27:25Z</time></trkpt><trkpt lat="43.323068083357256" lon="12.839851785575158"><ele>426.0</ele><time>2026-04-11T14:27:26Z</time></trkpt><trkpt lat="43.32322660710345" lon="12.839896760217927"><ele>423.33333333333337</ele><time>2026-04-11T14:27:27Z</time></trkpt><trkpt lat="43.32339937757589" lon="12.839957571180898"><ele>420.6666666666667</ele><time>2026-04-11T14:27:28Z</time></trkpt><trkpt lat="43.3235628004489" lon="12.840022114874081"><ele>418.0</ele><time>2026-04-11T14:27:29Z</time></trkpt><trkpt lat="43.323732021817534" lon="12.8400870733232"><ele>421.33333333333337</ele><time>2026-04-11T14:27:30Z</time></trkpt><trkpt lat="43.32390475105207" lon="12.840150320630121"><ele>424.66666666666663</ele><time>2026-04-11T14:27:31Z</time></trkpt><trkpt lat="43.32407479538035" lon="12.840213947429097"><ele>428.0</ele><time>2026-04-11T14:27:32Z</time></trkpt><trkpt lat="43.324231188746346" lon="12.840275869167312"><ele>428.0</ele><time>2026-04-11T14:27:33Z</time></trkpt><trkpt lat="43.324397533430265" lon="12.840336314646901"><ele>428.0</ele><time>2026-04-11T14:27:34Z</time></trkpt><trkpt lat="43.324575795719966" lon="12.8403970110621"><ele>428.0</ele><time>2026-04-11T14:27:35Z</time></trkpt><trkpt lat="43.3247587823085" lon="12.84045990765995"><ele>423.66666666666663</ele><time>2026-04-11T14:27:36Z</time></trkpt><trkpt lat="43.324937255825155" lon="12.840531116116313"><ele>419.33333333333337</ele><time>2026-04-11T14:27:37Z</time></trkpt><trkpt lat="43.325115727372335" lon="12.840611884806984"><ele>415.0</ele><time>2026-04-11T14:27:38Z</time></trkpt><trkpt lat="43.32529072125238" lon="12.840704685751057"><ele>415.0</ele><time>2026-04-11T14:27:39Z</time></trkpt><trkpt lat="43.32545447241619" lon="12.840807825104905"><ele>415.0</ele><time>2026-04-11T14:27:40Z</time></trkpt><trkpt lat="43.32561449734802" lon="12.840921007840947"><ele>415.0</ele><time>2026-04-11T14:27:41Z</time></trkpt><trkpt lat="43.325760839125834" lon="12.841033150356477"><ele>416.33333333333337</ele><time>2026-04-11T14:27:42Z</time></trkpt><trkpt lat="43.32591225056962" lon="12.841146012394772"><ele>417.66666666666663</ele><time>2026-04-11T14:27:43Z</time></trkpt><trkpt lat="43.32606107234241" lon="12.841277027031525"><ele>419.0</ele><time>2026-04-11T14:27:44Z</time></trkpt><trkpt lat="43.32620049448915" lon="12.841430900872153"><ele>419.0</ele><time>2026-04-11T14:27:45Z</time></trkpt><trkpt lat="43.32633998889558" lon="12.841599053351214"><ele>419.0</ele><time>2026-04-11T14:27:46Z</time></trkpt><trkpt lat="43.326471079690045" lon="12.841767336093318"><ele>419.0</ele><time>2026-04-11T14:27:47Z</time></trkpt><trkpt lat="43.32661021347148" lon="12.841944216194845"><ele>418.3333333333333</ele><time>2026-04-11T14:27:48Z</time></trkpt><trkpt lat="43.32674724421361" lon="12.842100216559196"><ele>417.66666666666663</ele><time>2026-04-11T14:27:49Z</time></trkpt><trkpt lat="43.32689567587632" lon="12.842264002031508"><ele>417.0</ele><time>2026-04-11T14:27:50Z</time></trkpt><trkpt lat="43.32702244515909" lon="12.842416066089378"><ele>417.0</ele><time>2026-04-11T14:27:51Z</time></trkpt><trkpt lat="43.327151894635925" lon="12.84257234733607"><ele>417.0</ele><time>2026-04-11T14:27:52Z</time></trkpt><trkpt lat="43.32729073048478" lon="12.84271650526309"><ele>417.0</ele><time>2026-04-11T14:27:53Z</time></trkpt><trkpt lat="43.32745182445111" lon="12.842807928474567"><ele>418.66666666666663</ele><time>2026-04-11T14:27:54Z</time></trkpt><trkpt lat="43.327639129832455" lon="12.842860421879536"><ele>420.3333333333333</ele><time>2026-04-11T14:27:55Z</time></trkpt><trkpt lat="43.327811860393844" lon="12.842924028606177"><ele>422.0</ele><time>2026-04-11T14:27:56Z</time></trkpt><trkpt lat="43.32798589663106" lon="12.843006526796248"><ele>416.0</ele><time>2026-04-11T14:27:57Z</time></trkpt><trkpt lat="43.32814601544547" lon="12.843113843876221"><ele>410.0</ele><time>2026-04-11T14:27:58Z</time></trkpt><trkpt lat="43.3283048860334" lon="12.843217376427356"><ele>404.0</ele><time>2026-04-11T14:27:59Z</time></trkpt><trkpt lat="43.328471389864696" lon="12.843321749068133"><ele>404.0</ele><time>2026-04-11T14:28:00Z</time></trkpt><trkpt lat="43.3286288513855" lon="12.843421534216972"><ele>404.0</ele><time>2026-04-11T14:28:01Z</time></trkpt><trkpt lat="43.32877653907234" lon="12.843518524555588"><ele>404.0</ele><time>2026-04-11T14:28:02Z</time></trkpt><trkpt lat="43.32891432119437" lon="12.843612372071174"><ele>405.66666666666663</ele><time>2026-04-11T14:28:03Z</time></trkpt><trkpt lat="43.32905936369587" lon="12.84370782203061"><ele>407.33333333333337</ele><time>2026-04-11T14:28:04Z</time></trkpt><trkpt lat="43.32919268256989" lon="12.843794162812175"><ele>409.0</ele><time>2026-04-11T14:28:05Z</time></trkpt><trkpt lat="43.3293202844709" lon="12.843882399344139"><ele>409.0</ele><time>2026-04-11T14:28:06Z</time></trkpt><trkpt lat="43.32943508722297" lon="12.843978329140906"><ele>409.0</ele><time>2026-04-11T14:28:07Z</time></trkpt><trkpt lat="43.329536623452306" lon="12.84408207674692"><ele>409.0</ele><time>2026-04-11T14:28:08Z</time></trkpt><trkpt lat="43.3296237903858" lon="12.844209621823772"><ele>409.0</ele><time>2026-04-11T14:28:09Z</time></trkpt><trkpt lat="43.32969259957767" lon="12.844358159546555"><ele>405.75</ele><time>2026-04-11T14:28:10Z</time></trkpt><trkpt lat="43.32974670249787" lon="12.844508837508124"><ele>402.5</ele><time>2026-04-11T14:28:11Z</time></trkpt><trkpt lat="43.329787734190866" lon="12.844658680234941"><ele>399.25</ele><time>2026-04-11T14:28:12Z</time></trkpt><trkpt lat="43.329815662399305" lon="12.844812442805974"><ele>396.0</ele><time>2026-04-11T14:28:13Z</time></trkpt><trkpt lat="43.329832824600565" lon="12.844971548037815"><ele>396.0</ele><time>2026-04-11T14:28:14Z</time></trkpt><trkpt lat="43.32984510641956" lon="12.845128822424904"><ele>396.0</ele><time>2026-04-11T14:28:15Z</time></trkpt><trkpt lat="43.32985437214143" lon="12.845284153873807"><ele>396.0</ele><time>2026-04-11T14:28:16Z</time></trkpt><trkpt lat="43.32986103321958" lon="12.845438629920173"><ele>396.0</ele><time>2026-04-11T14:28:17Z</time></trkpt><trkpt lat="43.329869392761935" lon="12.845590393348592"><ele>395.20000000000005</ele><time>2026-04-11T14:28:18Z</time></trkpt><trkpt lat="43.32987690644269" lon="12.845740634700254"><ele>394.40000000000003</ele><time>2026-04-11T14:28:19Z</time></trkpt><trkpt lat="43.32988360351762" lon="12.845889510899385"><ele>393.6</ele><time>2026-04-11T14:28:20Z</time></trkpt><trkpt lat="43.32988930353831" lon="12.846037962804001"><ele>392.8</ele><time>2026-04-11T14:28:21Z</time></trkpt><trkpt lat="43.329892128006726" lon="12.846183964886055"><ele>392.0</ele><time>2026-04-11T14:28:22Z</time></trkpt><trkpt lat="43.32989618764777" lon="12.846331969542948"><ele>392.0</ele><time>2026-04-11T14:28:23Z</time></trkpt><trkpt lat="43.32990171359545" lon="12.846483123312165"><ele>392.0</ele><time>2026-04-11T14:28:24Z</time></trkpt><trkpt lat="43.329908026909216" lon="12.846639476154989"><ele>392.0</ele><time>2026-04-11T14:28:25Z</time></trkpt><trkpt lat="43.32991692901464" lon="12.84679930191421"><ele>392.0</ele><time>2026-04-11T14:28:26Z</time></trkpt><trkpt lat="43.32992532573837" lon="12.846957508566243"><ele>393.0</ele><time>2026-04-11T14:28:27Z</time></trkpt><trkpt lat="43.32993371061954" lon="12.847117245971853"><ele>394.0</ele><time>2026-04-11T14:28:28Z</time></trkpt><trkpt lat="43.32994301353759" lon="12.84727848470152"><ele>395.0</ele><time>2026-04-11T14:28:29Z</time></trkpt><trkpt lat="43.329951420506326" lon="12.847447162604556"><ele>396.0</ele><time>2026-04-11T14:28:30Z</time></trkpt><trkpt lat="43.32996269289016" lon="12.84760471067628"><ele>396.4</ele><time>2026-04-11T14:28:31Z</time></trkpt><trkpt lat="43.32997546504682" lon="12.847755206627864"><ele>396.8</ele><time>2026-04-11T14:28:32Z</time></trkpt><trkpt lat="43.329989155982645" lon="12.847887242790577"><ele>397.2</ele><time>2026-04-11T14:28:33Z</time></trkpt><trkpt lat="43.3299951957805" lon="12.847989468263922"><ele>397.59999999999997</ele><time>2026-04-11T14:28:34Z</time></trkpt><trkpt lat="43.32999822818629" lon="12.848121796886415"><ele>398.0</ele><time>2026-04-11T14:28:36Z</time></trkpt><trkpt lat="43.32996190501535" lon="12.848294528181333"><ele>398.0</ele><time>2026-04-11T14:28:38Z</time></trkpt><trkpt lat="43.32995096448941" lon="12.848407986271315"><ele>398.0</ele><time>2026-04-11T14:28:39Z</time></trkpt><trkpt lat="43.32995967291198" lon="12.848582794758942"><ele>398.0</ele><time>2026-04-11T14:28:41Z</time></trkpt><trkpt lat="43.3299489835973" lon="12.848745864252846"><ele>398.0</ele><time>2026-04-11T14:28:43Z</time></trkpt><trkpt lat="43.329934644374916" lon="12.848922348055092"><ele>397.8333333333333</ele><time>2026-04-11T14:28:45Z</time></trkpt><trkpt lat="43.32991227721262" lon="12.849014325568227"><ele>397.66666666666663</ele><time>2026-04-11T14:28:46Z</time></trkpt><trkpt lat="43.32986020602232" lon="12.849101546019398"><ele>397.5</ele><time>2026-04-11T14:28:47Z</time></trkpt><trkpt lat="43.329797605412814" lon="12.84915977549417"><ele>397.33333333333337</ele><time>2026-04-11T14:28:48Z</time></trkpt><trkpt lat="43.329733586140286" lon="12.849199768287082"><ele>397.1666666666667</ele><time>2026-04-11T14:28:48.999Z</time></trkpt><trkpt lat="43.32966912292842" lon="12.849235306257745"><ele>397.0</ele><time>2026-04-11T14:28:49.999Z</time></trkpt><trkpt lat="43.329559636469305" lon="12.849297267975324"><ele>397.00000000000006</ele><time>2026-04-11T14:28:51.999Z</time></trkpt><trkpt lat="43.329490427118955" lon="12.849345264229763"><ele>397.0</ele><time>2026-04-11T14:28:52.999Z</time></trkpt><trkpt lat="43.32941988281471" lon="12.84937624376079"><ele>397.0</ele><time>2026-04-11T14:28:53.999Z</time></trkpt><trkpt lat="43.329345318326546" lon="12.849406970242605"><ele>397.0</ele><time>2026-04-11T14:28:54.999Z</time></trkpt><trkpt lat="43.32927711428899" lon="12.849435761775213"><ele>397.00000000000006</ele><time>2026-04-11T14:28:55.999Z</time></trkpt><trkpt lat="43.32920290976685" lon="12.84945681736665"><ele>397.0</ele><time>2026-04-11T14:28:56.999Z</time></trkpt><trkpt lat="43.329123107962424" lon="12.849479455641063"><ele>397.00000000000006</ele><time>2026-04-11T14:28:57.999Z</time></trkpt><trkpt lat="43.3290436091604" lon="12.849499932991726"><ele>397.0</ele><time>2026-04-11T14:28:58.999Z</time></trkpt><trkpt lat="43.32896664681008" lon="12.849523238558483"><ele>397.0</ele><time>2026-04-11T14:28:59.999Z</time></trkpt><trkpt lat="43.32888585160292" lon="12.849552663173611"><ele>397.0</ele><time>2026-04-11T14:29:00.999Z</time></trkpt><trkpt lat="43.328811894648226" lon="12.849585929296357"><ele>397.00000000000006</ele><time>2026-04-11T14:29:01.999Z</time></trkpt><trkpt lat="43.32870782700537" lon="12.849664466246793"><ele>397.0</ele><time>2026-04-11T14:29:03.999Z</time></trkpt><trkpt lat="43.328642295750974" lon="12.849701443079493"><ele>397.85714285714283</ele><time>2026-04-11T14:29:04.999Z</time></trkpt><trkpt lat="43.32858682680381" lon="12.849748634660974"><ele>398.71428571428567</ele><time>2026-04-11T14:29:05.999Z</time></trkpt><trkpt lat="43.328532843365274" lon="12.849800945418378"><ele>399.57142857142856</ele><time>2026-04-11T14:29:06.999Z</time></trkpt><trkpt lat="43.328477505426356" lon="12.8498514200543"><ele>400.42857142857144</ele><time>2026-04-11T14:29:07.999Z</time></trkpt><trkpt lat="43.32841696738316" lon="12.849889797043183"><ele>401.2857142857143</ele><time>2026-04-11T14:29:08.999Z</time></trkpt><trkpt lat="43.32835757290396" lon="12.849928342220995"><ele>402.14285714285717</ele><time>2026-04-11T14:29:09.999Z</time></trkpt><trkpt lat="43.32830166638745" lon="12.849977351591928"><ele>403.0</ele><time>2026-04-11T14:29:10.999Z</time></trkpt><trkpt lat="43.32824404668186" lon="12.850025247688299"><ele>403.0</ele><time>2026-04-11T14:29:11.999Z</time></trkpt><trkpt lat="43.32818319203813" lon="12.850084928912784"><ele>403.0</ele><time>2026-04-11T14:29:12.999Z</time></trkpt><trkpt lat="43.32812165438399" lon="12.85013652720489"><ele>403.0</ele><time>2026-04-11T14:29:13.999Z</time></trkpt><trkpt lat="43.32806007924099" lon="12.85018776008067"><ele>403.0</ele><time>2026-04-11T14:29:14.999Z</time></trkpt><trkpt lat="43.32799625358592" lon="12.850239029926987"><ele>403.0</ele><time>2026-04-11T14:29:15.999Z</time></trkpt><trkpt lat="43.32792281963288" lon="12.850286357408379"><ele>403.0</ele><time>2026-04-11T14:29:16.999Z</time></trkpt><trkpt lat="43.32785903429595" lon="12.850327271003856"><ele>403.0</ele><time>2026-04-11T14:29:17.999Z</time></trkpt><trkpt lat="43.32779911346077" lon="12.850370893469785"><ele>402.79999999999995</ele><time>2026-04-11T14:29:18.999Z</time></trkpt><trkpt lat="43.32773969133286" lon="12.850409395743938"><ele>402.6</ele><time>2026-04-11T14:29:19.999Z</time></trkpt><trkpt lat="43.32764261437967" lon="12.850469925615048"><ele>402.4</ele><time>2026-04-11T14:29:21.999Z</time></trkpt><trkpt lat="43.32762979695082" lon="12.850594764849607"><ele>402.20000000000005</ele><time>2026-04-11T14:29:26Z</time></trkpt><trkpt lat="43.32768600327538" lon="12.850757376369971"><ele>402.0</ele><time>2026-04-11T14:29:28Z</time></trkpt><trkpt lat="43.32771914531591" lon="12.850859066767484"><ele>401.3333333333333</ele><time>2026-04-11T14:29:29Z</time></trkpt><trkpt lat="43.32775713297846" lon="12.85097050598179"><ele>400.66666666666663</ele><time>2026-04-11T14:29:30Z</time></trkpt><trkpt lat="43.327798851705154" lon="12.851091142167315"><ele>400.0</ele><time>2026-04-11T14:29:31Z</time></trkpt><trkpt lat="43.32782490843382" lon="12.851189347658009"><ele>399.3333333333333</ele><time>2026-04-11T14:29:32Z</time></trkpt><trkpt lat="43.327853069725954" lon="12.851284101988348"><ele>398.66666666666663</ele><time>2026-04-11T14:29:33Z</time></trkpt><trkpt lat="43.327878585010865" lon="12.851373874517236"><ele>398.0</ele><time>2026-04-11T14:29:34Z</time></trkpt><trkpt lat="43.32790031339919" lon="12.851476889843582"><ele>398.0</ele><time>2026-04-11T14:29:35Z</time></trkpt><trkpt lat="43.32791334381803" lon="12.85158260959364"><ele>398.0</ele><time>2026-04-11T14:29:36Z</time></trkpt><trkpt lat="43.32792806486557" lon="12.851738920783596"><ele>398.0</ele><time>2026-04-11T14:29:37Z</time></trkpt><trkpt lat="43.327946077349985" lon="12.851899242987884"><ele>398.0</ele><time>2026-04-11T14:29:38Z</time></trkpt><trkpt lat="43.3279624088803" lon="12.852055370067172"><ele>398.0</ele><time>2026-04-11T14:29:39Z</time></trkpt><trkpt lat="43.32798048985921" lon="12.85216060488716"><ele>398.8333333333333</ele><time>2026-04-11T14:29:40Z</time></trkpt><trkpt lat="43.32800964048242" lon="12.852245710884219"><ele>399.66666666666663</ele><time>2026-04-11T14:29:41Z</time></trkpt><trkpt lat="43.32802228440147" lon="12.85234286545443"><ele>400.5</ele><time>2026-04-11T14:29:43Z</time></trkpt><trkpt lat="43.327950767889895" lon="12.85239647446576"><ele>401.33333333333337</ele><time>2026-04-11T14:29:45Z</time></trkpt><trkpt lat="43.327825555307605" lon="12.85240391306856"><ele>402.1666666666667</ele><time>2026-04-11T14:29:47Z</time></trkpt><trkpt lat="43.327750959189984" lon="12.85244038076281"><ele>403.0</ele><time>2026-04-11T14:29:48Z</time></trkpt><trkpt lat="43.3276840826048" lon="12.852492246609398"><ele>403.0</ele><time>2026-04-11T14:29:49Z</time></trkpt><trkpt lat="43.32759966271664" lon="12.852556951752467"><ele>403.0</ele><time>2026-04-11T14:29:50Z</time></trkpt><trkpt lat="43.327510962167615" lon="12.852618087734687"><ele>403.0</ele><time>2026-04-11T14:29:51Z</time></trkpt><trkpt lat="43.32741544317977" lon="12.852675562877923"><ele>403.0</ele><time>2026-04-11T14:29:52Z</time></trkpt><trkpt lat="43.32731554228873" lon="12.852731543060779"><ele>403.0</ele><time>2026-04-11T14:29:53Z</time></trkpt><trkpt lat="43.327213577730255" lon="12.852787636531101"><ele>405.75</ele><time>2026-04-11T14:29:54Z</time></trkpt><trkpt lat="43.32710908172976" lon="12.852860380189782"><ele>408.5</ele><time>2026-04-11T14:29:55Z</time></trkpt><trkpt lat="43.3270081102249" lon="12.85295861005431"><ele>411.25</ele><time>2026-04-11T14:29:56Z</time></trkpt><trkpt lat="43.32691735125327" lon="12.85307093928068"><ele>414.0</ele><time>2026-04-11T14:29:57Z</time></trkpt><trkpt lat="43.32683641564167" lon="12.85317976995402"><ele>414.0</ele><time>2026-04-11T14:29:58Z</time></trkpt><trkpt lat="43.32675596881001" lon="12.853306146306862"><ele>414.0</ele><time>2026-04-11T14:29:59Z</time></trkpt><trkpt lat="43.326684544981546" lon="12.853432184477004"><ele>414.0</ele><time>2026-04-11T14:30:00Z</time></trkpt><trkpt lat="43.326607776330185" lon="12.853558611439874"><ele>414.0</ele><time>2026-04-11T14:30:01Z</time></trkpt><trkpt lat="43.3265259618374" lon="12.85366964072059"><ele>415.4</ele><time>2026-04-11T14:30:02Z</time></trkpt><trkpt lat="43.32643847251489" lon="12.853772870367553"><ele>416.79999999999995</ele><time>2026-04-11T14:30:03Z</time></trkpt><trkpt lat="43.326352082894466" lon="12.85386385301489"><ele>418.20000000000005</ele><time>2026-04-11T14:30:04Z</time></trkpt><trkpt lat="43.3262671102987" lon="12.853950430438847"><ele>419.6</ele><time>2026-04-11T14:30:05Z</time></trkpt><trkpt lat="43.32618973381259" lon="12.854030057556637"><ele>421.0</ele><time>2026-04-11T14:30:06Z</time></trkpt><trkpt lat="43.3261268102453" lon="12.854093573795788"><ele>421.0</ele><time>2026-04-11T14:30:07Z</time></trkpt><trkpt lat="43.326069097349695" lon="12.854151016994916"><ele>421.0</ele><time>2026-04-11T14:30:08Z</time></trkpt><trkpt lat="43.32596204879659" lon="12.85418277472122"><ele>421.0</ele><time>2026-04-11T14:30:10Z</time></trkpt><trkpt lat="43.32586561594122" lon="12.854105526218333"><ele>421.0</ele><time>2026-04-11T14:30:12Z</time></trkpt><trkpt lat="43.32578062278786" lon="12.854059660308614"><ele>421.0</ele><time>2026-04-11T14:30:14Z</time></trkpt><trkpt lat="43.32569764383658" lon="12.854046526502243"><ele>421.0</ele><time>2026-04-11T14:30:16Z</time></trkpt><trkpt lat="43.325622407927014" lon="12.854033108989158"><ele>421.0</ele><time>2026-04-11T14:30:18Z</time></trkpt><trkpt lat="43.32554536138863" lon="12.854052523624445"><ele>421.0</ele><time>2026-04-11T14:30:20Z</time></trkpt><trkpt lat="43.3254593970075" lon="12.854168516522595"><ele>421.0</ele><time>2026-04-11T14:30:23Z</time></trkpt><trkpt lat="43.32536550001655" lon="12.854253876795246"><ele>421.0</ele><time>2026-04-11T14:30:25Z</time></trkpt><trkpt lat="43.32529289994306" lon="12.854304393184131"><ele>423.0</ele><time>2026-04-11T14:30:27Z</time></trkpt><trkpt lat="43.32521039012226" lon="12.85436150614804"><ele>425.0</ele><time>2026-04-11T14:30:29Z</time></trkpt><trkpt lat="43.32510780944236" lon="12.854427659326989"><ele>427.0</ele><time>2026-04-11T14:30:31Z</time></trkpt><trkpt lat="43.32499405023923" lon="12.854474600383833"><ele>429.0</ele><time>2026-04-11T14:30:33Z</time></trkpt><trkpt lat="43.32493482215743" lon="12.854508008700067"><ele>431.0</ele><time>2026-04-11T14:30:34Z</time></trkpt><trkpt lat="43.32480799727643" lon="12.85453282465394"><ele>430.99999999999994</ele><time>2026-04-11T14:30:36Z</time></trkpt><trkpt lat="43.32474440594071" lon="12.854550698005145"><ele>431.0</ele><time>2026-04-11T14:30:37Z</time></trkpt><trkpt lat="43.32468364730122" lon="12.85457785902609"><ele>431.0</ele><time>2026-04-11T14:30:38Z</time></trkpt><trkpt lat="43.324586067216046" lon="12.854637906478217"><ele>431.0</ele><time>2026-04-11T14:30:40Z</time></trkpt><trkpt lat="43.32451336933528" lon="12.85467976271385"><ele>430.99999999999994</ele><time>2026-04-11T14:30:42Z</time></trkpt><trkpt lat="43.32444306751191" lon="12.85474265485602"><ele>431.0</ele><time>2026-04-11T14:30:44Z</time></trkpt><trkpt lat="43.32438473698201" lon="12.854798948367714"><ele>435.20000000000005</ele><time>2026-04-11T14:30:46Z</time></trkpt><trkpt lat="43.324281934307436" lon="12.854871905312224"><ele>439.40000000000003</ele><time>2026-04-11T14:30:48Z</time></trkpt><trkpt lat="43.32422884766864" lon="12.854920551055262"><ele>443.6</ele><time>2026-04-11T14:30:49Z</time></trkpt><trkpt lat="43.32411533999739" lon="12.855011376153735"><ele>447.8</ele><time>2026-04-11T14:30:51Z</time></trkpt><trkpt lat="43.32405982285054" lon="12.855073271858867"><ele>452.0</ele><time>2026-04-11T14:30:52Z</time></trkpt><trkpt lat="43.324003008180945" lon="12.855126039666661"><ele>458.8</ele><time>2026-04-11T14:30:53Z</time></trkpt><trkpt lat="43.3238903851076" lon="12.85522038352335"><ele>465.6</ele><time>2026-04-11T14:30:55Z</time></trkpt><trkpt lat="43.323788617830246" lon="12.855283057156207"><ele>472.40000000000003</ele><time>2026-04-11T14:30:57Z</time></trkpt><trkpt lat="43.32374251194461" lon="12.855342655277422"><ele>479.20000000000005</ele><time>2026-04-11T14:30:58Z</time></trkpt><trkpt lat="43.323680441320334" lon="12.855370711312142"><ele>486.0</ele><time>2026-04-11T14:30:59Z</time></trkpt><trkpt lat="43.32355744892645" lon="12.855458009245732"><ele>486.0</ele><time>2026-04-11T14:31:01Z</time></trkpt><trkpt lat="43.32349211585561" lon="12.855492554561359"><ele>486.0</ele><time>2026-04-11T14:31:02Z</time></trkpt><trkpt lat="43.32342504162234" lon="12.855531815718644"><ele>486.0</ele><time>2026-04-11T14:31:02.999Z</time></trkpt><trkpt lat="43.323341045669835" lon="12.855584579645491"><ele>486.0</ele><time>2026-04-11T14:31:03.999Z</time></trkpt><trkpt lat="43.32327833385743" lon="12.855637699938264"><ele>486.0</ele><time>2026-04-11T14:31:04.999Z</time></trkpt><trkpt lat="43.32318042997208" lon="12.855727496575643"><ele>486.0</ele><time>2026-04-11T14:31:06.999Z</time></trkpt><trkpt lat="43.32312055052015" lon="12.85580181562166"><ele>486.0</ele><time>2026-04-11T14:31:07.999Z</time></trkpt><trkpt lat="43.32306983521318" lon="12.855854959587957"><ele>486.0</ele><time>2026-04-11T14:31:08.999Z</time></trkpt><trkpt lat="43.323000611644545" lon="12.855939525157405"><ele>486.0</ele><time>2026-04-11T14:31:09.999Z</time></trkpt><trkpt lat="43.32294521463959" lon="12.85599139302613"><ele>486.0</ele><time>2026-04-11T14:31:10.999Z</time></trkpt><trkpt lat="43.32288933703759" lon="12.856069446657328"><ele>486.0</ele><time>2026-04-11T14:31:11.999Z</time></trkpt><trkpt lat="43.322820829228114" lon="12.856217512943088"><ele>486.0</ele><time>2026-04-11T14:31:13.999Z</time></trkpt><trkpt lat="43.32277611161646" lon="12.85630391654361"><ele>488.3333333333333</ele><time>2026-04-11T14:31:14.999Z</time></trkpt><trkpt lat="43.32273188524884" lon="12.856403005721017"><ele>490.66666666666663</ele><time>2026-04-11T14:31:15.999Z</time></trkpt><trkpt lat="43.32269272958826" lon="12.856471726928213"><ele>493.0</ele><time>2026-04-11T14:31:16.999Z</time></trkpt><trkpt lat="43.32263773657908" lon="12.856558546706156"><ele>495.3333333333333</ele><time>2026-04-11T14:31:17.999Z</time></trkpt><trkpt lat="43.322586196042046" lon="12.856647521323183"><ele>497.66666666666663</ele><time>2026-04-11T14:31:18.999Z</time></trkpt><trkpt lat="43.32252350948512" lon="12.856773723137499"><ele>500.0</ele><time>2026-04-11T14:31:19.999Z</time></trkpt><trkpt lat="43.322469881741554" lon="12.856863092889066"><ele>500.0</ele><time>2026-04-11T14:31:20.999Z</time></trkpt><trkpt lat="43.32242272042824" lon="12.856949586030558"><ele>500.0</ele><time>2026-04-11T14:31:21.999Z</time></trkpt><trkpt lat="43.32235371904584" lon="12.857076228028507"><ele>500.0</ele><time>2026-04-11T14:31:22.999Z</time></trkpt><trkpt lat="43.32229172559876" lon="12.857181546482849"><ele>500.0</ele><time>2026-04-11T14:31:23.999Z</time></trkpt><trkpt lat="43.32220697330746" lon="12.85728251702705"><ele>500.0</ele><time>2026-04-11T14:31:24.999Z</time></trkpt><trkpt lat="43.32210569705078" lon="12.857363117152293"><ele>502.3333333333333</ele><time>2026-04-11T14:31:25.999Z</time></trkpt><trkpt lat="43.32202036894336" lon="12.857449123438839"><ele>504.66666666666663</ele><time>2026-04-11T14:31:26.999Z</time></trkpt><trkpt lat="43.32197041581687" lon="12.857512267981251"><ele>507.0</ele><time>2026-04-11T14:31:28Z</time></trkpt><trkpt lat="43.321900175158255" lon="12.857561822898225"><ele>509.33333333333337</ele><time>2026-04-11T14:31:29Z</time></trkpt><trkpt lat="43.32181965301259" lon="12.857612969730182"><ele>511.6666666666667</ele><time>2026-04-11T14:31:30Z</time></trkpt><trkpt lat="43.32172031495591" lon="12.857657211135086"><ele>514.0</ele><time>2026-04-11T14:31:31Z</time></trkpt><trkpt lat="43.32164646792662" lon="12.857718282028664"><ele>514.0</ele><time>2026-04-11T14:31:32Z</time></trkpt><trkpt lat="43.3215888347972" lon="12.857827775604862"><ele>514.0</ele><time>2026-04-11T14:31:33Z</time></trkpt><trkpt lat="43.3215461072236" lon="12.857933486637409"><ele>514.0</ele><time>2026-04-11T14:31:34Z</time></trkpt><trkpt lat="43.32150177587639" lon="12.858011960424692"><ele>514.0</ele><time>2026-04-11T14:31:35Z</time></trkpt><trkpt lat="43.321424158475935" lon="12.858146512271853"><ele>514.0</ele><time>2026-04-11T14:31:36Z</time></trkpt><trkpt lat="43.32134356094566" lon="12.858254088547815"><ele>520.75</ele><time>2026-04-11T14:31:37Z</time></trkpt><trkpt lat="43.32125905127267" lon="12.858368304862724"><ele>527.5</ele><time>2026-04-11T14:31:38Z</time></trkpt><trkpt lat="43.321178604230894" lon="12.858496707573252"><ele>534.25</ele><time>2026-04-11T14:31:39Z</time></trkpt><trkpt lat="43.32110055090515" lon="12.858620534676062"><ele>541.0</ele><time>2026-04-11T14:31:40Z</time></trkpt><trkpt lat="43.321030614805" lon="12.858734305793227"><ele>541.0</ele><time>2026-04-11T14:31:41Z</time></trkpt><trkpt lat="43.32094017825564" lon="12.858859378809157"><ele>541.0</ele><time>2026-04-11T14:31:42Z</time></trkpt><trkpt lat="43.32085362988659" lon="12.858981701738424"><ele>541.0</ele><time>2026-04-11T14:31:43Z</time></trkpt><trkpt lat="43.32077862796536" lon="12.859112482583805"><ele>541.0</ele><time>2026-04-11T14:31:44Z</time></trkpt><trkpt lat="43.32069333317016" lon="12.85925585685187"><ele>541.8</ele><time>2026-04-11T14:31:45Z</time></trkpt><trkpt lat="43.32061206290679" lon="12.85938328749623"><ele>542.6</ele><time>2026-04-11T14:31:46Z</time></trkpt><trkpt lat="43.32053773470167" lon="12.85949295889703"><ele>543.4</ele><time>2026-04-11T14:31:47Z</time></trkpt><trkpt lat="43.3204677441976" lon="12.859575089858904"><ele>544.2</ele><time>2026-04-11T14:31:48Z</time></trkpt><trkpt lat="43.320388004715866" lon="12.859652871646752"><ele>545.0</ele><time>2026-04-11T14:31:49Z</time></trkpt><trkpt lat="43.32030027990144" lon="12.859763071905505"><ele>546.6</ele><time>2026-04-11T14:31:51Z</time></trkpt><trkpt lat="43.32023472561156" lon="12.859900886742146"><ele>548.2</ele><time>2026-04-11T14:31:53Z</time></trkpt><trkpt lat="43.32015332000972" lon="12.860004571318735"><ele>549.8</ele><time>2026-04-11T14:31:55Z</time></trkpt><trkpt lat="43.320079328091516" lon="12.860058921580038"><ele>551.4</ele><time>2026-04-11T14:31:58Z</time></trkpt><trkpt lat="43.31999116448142" lon="12.86006012533246"><ele>553.0</ele><time>2026-04-11T14:32:58.999Z</time></trkpt><trkpt lat="43.31988842851914" lon="12.860103497198423"><ele>554.6</ele><time>2026-04-11T14:33:00.999Z</time></trkpt><trkpt lat="43.31980278325629" lon="12.860179511460268"><ele>556.1999999999999</ele><time>2026-04-11T14:33:02.999Z</time></trkpt><trkpt lat="43.31974179257289" lon="12.860237909932719"><ele>557.8</ele><time>2026-04-11T14:33:03.999Z</time></trkpt><trkpt lat="43.31965795544076" lon="12.860319373456313"><ele>559.4</ele><time>2026-04-11T14:33:04.999Z</time></trkpt><trkpt lat="43.319592915734965" lon="12.860378082746776"><ele>561.0</ele><time>2026-04-11T14:33:05.999Z</time></trkpt><trkpt lat="43.319485184471134" lon="12.860506448085884"><ele>555.3333333333334</ele><time>2026-04-11T14:33:07.999Z</time></trkpt><trkpt lat="43.31939855230545" lon="12.860567164375253"><ele>549.6666666666666</ele><time>2026-04-11T14:33:08.999Z</time></trkpt><trkpt lat="43.31931324575334" lon="12.860603316869458"><ele>544.0</ele><time>2026-04-11T14:33:09.999Z</time></trkpt><trkpt lat="43.31924030118638" lon="12.860623100699097"><ele>538.3333333333333</ele><time>2026-04-11T14:33:10.998Z</time></trkpt><trkpt lat="43.319177955855295" lon="12.860662166128133"><ele>532.6666666666666</ele><time>2026-04-11T14:33:11.998Z</time></trkpt><trkpt lat="43.3191152532157" lon="12.860708041522994"><ele>527.0</ele><time>2026-04-11T14:33:12.998Z</time></trkpt><trkpt lat="43.31900800656829" lon="12.860761685189624"><ele>527.0</ele><time>2026-04-11T14:33:14.998Z</time></trkpt><trkpt lat="43.31890359315487" lon="12.86085944143692"><ele>527.0</ele><time>2026-04-11T14:33:16.998Z</time></trkpt><trkpt lat="43.31878426321441" lon="12.86093209120341"><ele>527.0</ele><time>2026-04-11T14:33:18.998Z</time></trkpt><trkpt lat="43.31869864325922" lon="12.860953421586327"><ele>527.0</ele><time>2026-04-11T14:33:19.998Z</time></trkpt><trkpt lat="43.31861681867327" lon="12.860970973091279"><ele>527.0</ele><time>2026-04-11T14:33:20.998Z</time></trkpt><trkpt lat="43.31856048908473" lon="12.861011635991787"><ele>519.2</ele><time>2026-04-11T14:33:21.998Z</time></trkpt><trkpt lat="43.318469181199646" lon="12.861059751341042"><ele>511.40000000000003</ele><time>2026-04-11T14:33:23.998Z</time></trkpt><trkpt lat="43.31834927844693" lon="12.861146909304885"><ele>503.59999999999997</ele><time>2026-04-11T14:33:25.998Z</time></trkpt><trkpt lat="43.318276090955855" lon="12.86120855912841"><ele>495.79999999999995</ele><time>2026-04-11T14:33:26.998Z</time></trkpt><trkpt lat="43.31820208006584" lon="12.861279866597963"><ele>488.0</ele><time>2026-04-11T14:33:27.998Z</time></trkpt><trkpt lat="43.31812581035681" lon="12.861341408469183"><ele>485.66666666666663</ele><time>2026-04-11T14:33:28.998Z</time></trkpt><trkpt lat="43.31804321419687" lon="12.861374472972038"><ele>483.3333333333333</ele><time>2026-04-11T14:33:29.998Z</time></trkpt><trkpt lat="43.31796664907094" lon="12.861399091077882"><ele>481.0</ele><time>2026-04-11T14:33:30.998Z</time></trkpt><trkpt lat="43.31790870125747" lon="12.861433768433304"><ele>478.66666666666663</ele><time>2026-04-11T14:33:31.998Z</time></trkpt><trkpt lat="43.31784602064714" lon="12.861492350365712"><ele>476.3333333333333</ele><time>2026-04-11T14:33:32.998Z</time></trkpt><trkpt lat="43.31776474393883" lon="12.86156043579435"><ele>474.0</ele><time>2026-04-11T14:33:33.999Z</time></trkpt><trkpt lat="43.3176673226693" lon="12.861585572448323"><ele>474.0</ele><time>2026-04-11T14:33:35.999Z</time></trkpt><trkpt lat="43.31759553329528" lon="12.861635416124676"><ele>474.0</ele><time>2026-04-11T14:33:37.999Z</time></trkpt><trkpt lat="43.31752785239018" lon="12.861729801337205"><ele>474.0</ele><time>2026-04-11T14:33:39.999Z</time></trkpt><trkpt lat="43.317497980466094" lon="12.861807173217127"><ele>474.0</ele><time>2026-04-11T14:33:40.999Z</time></trkpt><trkpt lat="43.317446625862445" lon="12.86188560615407"><ele>474.0</ele><time>2026-04-11T14:33:41.999Z</time></trkpt><trkpt lat="43.31739243438573" lon="12.861966221444366"><ele>474.0</ele><time>2026-04-11T14:33:42.999Z</time></trkpt><trkpt lat="43.317347223089676" lon="12.862039216830206"><ele>468.6</ele><time>2026-04-11T14:33:43.999Z</time></trkpt><trkpt lat="43.31729350873876" lon="12.862090343243079"><ele>463.2</ele><time>2026-04-11T14:33:44.999Z</time></trkpt><trkpt lat="43.31718386328694" lon="12.862093862923969"><ele>457.80000000000007</ele><time>2026-04-11T14:33:46.999Z</time></trkpt><trkpt lat="43.31706219919167" lon="12.862184557682243"><ele>452.40000000000003</ele><time>2026-04-11T14:33:48.999Z</time></trkpt><trkpt lat="43.316996363026206" lon="12.862251436113953"><ele>447.0</ele><time>2026-04-11T14:33:49.999Z</time></trkpt><trkpt lat="43.316925322609784" lon="12.862310130404456"><ele>445.40000000000003</ele><time>2026-04-11T14:33:50.999Z</time></trkpt><trkpt lat="43.31684696058728" lon="12.862371274608506"><ele>443.80000000000007</ele><time>2026-04-11T14:33:51.999Z</time></trkpt><trkpt lat="43.31676411596477" lon="12.86241101716147"><ele>442.2</ele><time>2026-04-11T14:33:52.999Z</time></trkpt><trkpt lat="43.31661724391766" lon="12.862422832288994"><ele>440.6</ele><time>2026-04-11T14:33:54.999Z</time></trkpt><trkpt lat="43.31654679627915" lon="12.862437540674012"><ele>439.0</ele><time>2026-04-11T14:33:55.999Z</time></trkpt><trkpt lat="43.31641681659645" lon="12.862491375302445"><ele>438.0</ele><time>2026-04-11T14:33:57.999Z</time></trkpt><trkpt lat="43.31633221507622" lon="12.862543671598166"><ele>437.0</ele><time>2026-04-11T14:33:58.999Z</time></trkpt><trkpt lat="43.31623943801125" lon="12.86257217973246"><ele>436.0</ele><time>2026-04-11T14:33:59.999Z</time></trkpt><trkpt lat="43.31615024935683" lon="12.862589765285385"><ele>435.0</ele><time>2026-04-11T14:34:00.999Z</time></trkpt><trkpt lat="43.316036419982204" lon="12.862644446006158"><ele>434.0</ele><time>2026-04-11T14:34:02.999Z</time></trkpt><trkpt lat="43.31597417877614" lon="12.862702292614225"><ele>425.99999999999994</ele><time>2026-04-11T14:34:03.999Z</time></trkpt><trkpt lat="43.31591673307198" lon="12.862751889678554"><ele>418.0</ele><time>2026-04-11T14:34:04.999Z</time></trkpt><trkpt lat="43.31584551349166" lon="12.862808242197886"><ele>410.0</ele><time>2026-04-11T14:34:05.999Z</time></trkpt><trkpt lat="43.31576744864789" lon="12.86285723965229"><ele>402.0</ele><time>2026-04-11T14:34:06.999Z</time></trkpt><trkpt lat="43.31568277606915" lon="12.862882014692277"><ele>393.99999999999994</ele><time>2026-04-11T14:34:07.999Z</time></trkpt><trkpt lat="43.31558555696488" lon="12.86292033315451"><ele>386.0</ele><time>2026-04-11T14:34:08.999Z</time></trkpt><trkpt lat="43.31550124811253" lon="12.862934352353587"><ele>385.49999999999994</ele><time>2026-04-11T14:34:09.999Z</time></trkpt><trkpt lat="43.31540680212061" lon="12.862956136966059"><ele>385.0</ele><time>2026-04-11T14:34:10.999Z</time></trkpt><trkpt lat="43.315319214736604" lon="12.8629708673402"><ele>384.5</ele><time>2026-04-11T14:34:11.999Z</time></trkpt><trkpt lat="43.315234912541676" lon="12.862978245270174"><ele>384.0</ele><time>2026-04-11T14:34:12.999Z</time></trkpt><trkpt lat="43.3151668006779" lon="12.86300248319518"><ele>383.5</ele><time>2026-04-11T14:34:13.999Z</time></trkpt><trkpt lat="43.315102019384014" lon="12.86302240932737"><ele>383.0</ele><time>2026-04-11T14:34:14.999Z</time></trkpt><trkpt lat="43.31504194327391" lon="12.863052026804578"><ele>383.0</ele><time>2026-04-11T14:34:15.999Z</time></trkpt><trkpt lat="43.31498036480772" lon="12.86310372202551"><ele>383.0</ele><time>2026-04-11T14:34:16.999Z</time></trkpt><trkpt lat="43.31489988569551" lon="12.863197198650353"><ele>383.0</ele><time>2026-04-11T14:34:18.999Z</time></trkpt><trkpt lat="43.31490622572437" lon="12.863307848996822"><ele>383.0</ele><time>2026-04-11T14:34:20.999Z</time></trkpt><trkpt lat="43.31499120813032" lon="12.863419626752357"><ele>383.0</ele><time>2026-04-11T14:34:22.999Z</time></trkpt><trkpt lat="43.315108551980536" lon="12.863463232891737"><ele>383.0</ele><time>2026-04-11T14:34:24.999Z</time></trkpt><trkpt lat="43.315172846420595" lon="12.863461574682555"><ele>383.0</ele><time>2026-04-11T14:34:25.999Z</time></trkpt><trkpt lat="43.31527796899647" lon="12.863454435324703"><ele>383.0</ele><time>2026-04-11T14:34:27.999Z</time></trkpt><trkpt lat="43.315374896369754" lon="12.863442876047595"><ele>383.0</ele><time>2026-04-11T14:34:29.999Z</time></trkpt><trkpt lat="43.3154739917077" lon="12.863435151957747"><ele>383.0</ele><time>2026-04-11T14:34:31.999Z</time></trkpt><trkpt lat="43.315544164279345" lon="12.863446649555796"><ele>383.0</ele><time>2026-04-11T14:34:34.999Z</time></trkpt><trkpt lat="43.315540396573596" lon="12.86356150648849"><ele>381.4</ele><time>2026-04-11T14:36:23.999Z</time></trkpt><trkpt lat="43.31542365608485" lon="12.863565922130167"><ele>379.79999999999995</ele><time>2026-04-11T14:36:25.999Z</time></trkpt><trkpt lat="43.31533639579362" lon="12.863575392286828"><ele>378.2</ele><time>2026-04-11T14:36:26.999Z</time></trkpt><trkpt lat="43.31524078102072" lon="12.863588718651084"><ele>376.6</ele><time>2026-04-11T14:36:27.999Z</time></trkpt><trkpt lat="43.31514120263943" lon="12.86361018970574"><ele>375.0</ele><time>2026-04-11T14:36:28.999Z</time></trkpt><trkpt lat="43.31502884157767" lon="12.863631799551877"><ele>375.0</ele><time>2026-04-11T14:36:29.999Z</time></trkpt><trkpt lat="43.314911730860764" lon="12.863617601564025"><ele>375.0</ele><time>2026-04-11T14:36:30.999Z</time></trkpt><trkpt lat="43.314791356615174" lon="12.863619956295304"><ele>375.0</ele><time>2026-04-11T14:36:31.999Z</time></trkpt><trkpt lat="43.31467015010973" lon="12.863598105733145"><ele>375.0</ele><time>2026-04-11T14:36:32.999Z</time></trkpt><trkpt lat="43.31455506185737" lon="12.863549195592848"><ele>375.2</ele><time>2026-04-11T14:36:33.999Z</time></trkpt><trkpt lat="43.31444503989611" lon="12.863481676053098"><ele>375.4</ele><time>2026-04-11T14:36:34.999Z</time></trkpt><trkpt lat="43.31435040320555" lon="12.863395747161336"><ele>375.6</ele><time>2026-04-11T14:36:35.999Z</time></trkpt><trkpt lat="43.314269267086125" lon="12.863304660024115"><ele>375.8</ele><time>2026-04-11T14:36:36.999Z</time></trkpt><trkpt lat="43.31419207969102" lon="12.863231056809402"><ele>376.0</ele><time>2026-04-11T14:36:37.999Z</time></trkpt><trkpt lat="43.31414847298374" lon="12.863145625879797"><ele>376.0</ele><time>2026-04-11T14:36:38.999Z</time></trkpt><trkpt lat="43.31410037711934" lon="12.863006117950277"><ele>376.0</ele><time>2026-04-11T14:36:40.999Z</time></trkpt><trkpt lat="43.31393247441795" lon="12.863062858115967"><ele>376.0</ele><time>2026-04-11T14:36:43.999Z</time></trkpt><trkpt lat="43.31382917926063" lon="12.863155464178126"><ele>376.0</ele><time>2026-04-11T14:36:45.999Z</time></trkpt><trkpt lat="43.31373867966929" lon="12.863228108919945"><ele>382.0</ele><time>2026-04-11T14:36:47.999Z</time></trkpt><trkpt lat="43.31372170265565" lon="12.863479421629155"><ele>388.0</ele><time>2026-04-11T14:36:49.999Z</time></trkpt><trkpt lat="43.31368084610034" lon="12.863644266348649"><ele>394.0</ele><time>2026-04-11T14:36:51.999Z</time></trkpt><trkpt lat="43.31370356165392" lon="12.863751824470896"><ele>400.0</ele><time>2026-04-11T14:36:52.999Z</time></trkpt><trkpt lat="43.31372241671401" lon="12.863871968900039"><ele>400.0</ele><time>2026-04-11T14:36:53.999Z</time></trkpt><trkpt lat="43.313696493105574" lon="12.86398787059222"><ele>400.0</ele><time>2026-04-11T14:36:54.999Z</time></trkpt><trkpt lat="43.31368305650377" lon="12.864113547891296"><ele>400.0</ele><time>2026-04-11T14:36:55.999Z</time></trkpt><trkpt lat="43.31366770218741" lon="12.864214810461535"><ele>400.0</ele><time>2026-04-11T14:36:56.999Z</time></trkpt><trkpt lat="43.31377487978461" lon="12.864380552816145"><ele>400.0</ele><time>2026-04-11T14:36:57.999Z</time></trkpt><trkpt lat="43.31373691386149" lon="12.86452470415614"><ele>399.4</ele><time>2026-04-11T14:36:59.999Z</time></trkpt><trkpt lat="43.313738323679466" lon="12.864651966162818"><ele>398.8</ele><time>2026-04-11T14:37:00.999Z</time></trkpt><trkpt lat="43.3136878969964" lon="12.864710387142825"><ele>398.20000000000005</ele><time>2026-04-11T14:37:01.999Z</time></trkpt><trkpt lat="43.31358856408916" lon="12.864775291654503"><ele>397.6</ele><time>2026-04-11T14:37:02.999Z</time></trkpt><trkpt lat="43.31352961838232" lon="12.864884241339183"><ele>397.0</ele><time>2026-04-11T14:37:03.999Z</time></trkpt><trkpt lat="43.31346043678229" lon="12.864974852579268"><ele>397.0</ele><time>2026-04-11T14:37:04.999Z</time></trkpt><trkpt lat="43.31335274458088" lon="12.865000785854605"><ele>397.0</ele><time>2026-04-11T14:37:05.999Z</time></trkpt><trkpt lat="43.31325699435523" lon="12.865039772170705"><ele>397.0</ele><time>2026-04-11T14:37:06.999Z</time></trkpt><trkpt lat="43.31318056683492" lon="12.865055281255888"><ele>397.0</ele><time>2026-04-11T14:37:07.999Z</time></trkpt><trkpt lat="43.31309590752322" lon="12.864992238805629"><ele>397.0</ele><time>2026-04-11T14:37:08.999Z</time></trkpt><trkpt lat="43.31300665161528" lon="12.86494755512731"><ele>399.6</ele><time>2026-04-11T14:37:09.999Z</time></trkpt><trkpt lat="43.31291460781877" lon="12.86493413471717"><ele>402.20000000000005</ele><time>2026-04-11T14:37:10.999Z</time></trkpt><trkpt lat="43.31285881037491" lon="12.865016813453867"><ele>404.8</ele><time>2026-04-11T14:37:11.999Z</time></trkpt><trkpt lat="43.31278526589732" lon="12.865171138239536"><ele>407.4</ele><time>2026-04-11T14:37:12.999Z</time></trkpt><trkpt lat="43.31272541888017" lon="12.865218130779828"><ele>410.0</ele><time>2026-04-11T14:37:13.999Z</time></trkpt><trkpt lat="43.31260576073333" lon="12.865283857095854"><ele>410.0</ele><time>2026-04-11T14:37:14.999Z</time></trkpt><trkpt lat="43.312530539982085" lon="12.865346739472182"><ele>410.0</ele><time>2026-04-11T14:37:15.999Z</time></trkpt><trkpt lat="43.31243393197113" lon="12.865471059649922"><ele>410.0</ele><time>2026-04-11T14:37:16.999Z</time></trkpt><trkpt lat="43.312336882163684" lon="12.865570730337724"><ele>410.0</ele><time>2026-04-11T14:37:17.999Z</time></trkpt><trkpt lat="43.31223211693367" lon="12.865677606538727"><ele>412.8</ele><time>2026-04-11T14:37:18.999Z</time></trkpt><trkpt lat="43.31213878425754" lon="12.865797710555873"><ele>415.6</ele><time>2026-04-11T14:37:19.999Z</time></trkpt><trkpt lat="43.312041005646755" lon="12.865866715598115"><ele>418.4</ele><time>2026-04-11T14:37:20.999Z</time></trkpt><trkpt lat="43.311971232967885" lon="12.86593901944461"><ele>421.2</ele><time>2026-04-11T14:37:21.999Z</time></trkpt><trkpt lat="43.31189905247228" lon="12.866008224791479"><ele>424.0</ele><time>2026-04-11T14:37:22.999Z</time></trkpt><trkpt lat="43.311824228082656" lon="12.866087662308209"><ele>424.0</ele><time>2026-04-11T14:37:23.999Z</time></trkpt><trkpt lat="43.31173925400767" lon="12.866172099169644"><ele>424.0</ele><time>2026-04-11T14:37:24.999Z</time></trkpt><trkpt lat="43.31165133460653" lon="12.866254573533649"><ele>424.0</ele><time>2026-04-11T14:37:25.999Z</time></trkpt><trkpt lat="43.31156065761075" lon="12.866313271515152"><ele>424.0</ele><time>2026-04-11T14:37:26.999Z</time></trkpt><trkpt lat="43.31147596274265" lon="12.866372056867704"><ele>424.0</ele><time>2026-04-11T14:37:27.999Z</time></trkpt><trkpt lat="43.31140267730202" lon="12.866429990243438"><ele>426.75</ele><time>2026-04-11T14:37:28.999Z</time></trkpt><trkpt lat="43.3112765471531" lon="12.86653340186586"><ele>429.5</ele><time>2026-04-11T14:37:30.999Z</time></trkpt><trkpt lat="43.31117425315083" lon="12.866608611938798"><ele>432.25</ele><time>2026-04-11T14:37:31.999Z</time></trkpt><trkpt lat="43.311067763255004" lon="12.866668190718459"><ele>435.0</ele><time>2026-04-11T14:37:32.999Z</time></trkpt><trkpt lat="43.31095513815524" lon="12.866732540972725"><ele>436.5</ele><time>2026-04-11T14:37:33.999Z</time></trkpt><trkpt lat="43.31084878248853" lon="12.866784648864577"><ele>438.0</ele><time>2026-04-11T14:37:34.999Z</time></trkpt><trkpt lat="43.31073746883845" lon="12.86682714777995"><ele>439.5</ele><time>2026-04-11T14:37:35.999Z</time></trkpt><trkpt lat="43.310618717733426" lon="12.866889012024682"><ele>441.0</ele><time>2026-04-11T14:37:36.999Z</time></trkpt><trkpt lat="43.310499867925394" lon="12.866943559609123"><ele>442.0</ele><time>2026-04-11T14:37:37.999Z</time></trkpt><trkpt lat="43.310390985771235" lon="12.86703373179202"><ele>443.0</ele><time>2026-04-11T14:37:38.999Z</time></trkpt><trkpt lat="43.31027593849109" lon="12.867129686452515"><ele>444.0</ele><time>2026-04-11T14:37:39.999Z</time></trkpt><trkpt lat="43.31018548176984" lon="12.867223583714917"><ele>445.0</ele><time>2026-04-11T14:37:40.999Z</time></trkpt><trkpt lat="43.31007365569865" lon="12.867324166962387"><ele>445.0</ele><time>2026-04-11T14:37:41.999Z</time></trkpt><trkpt lat="43.309961710045535" lon="12.867402828363259"><ele>445.0</ele><time>2026-04-11T14:37:42.998Z</time></trkpt><trkpt lat="43.309861680046204" lon="12.867464968103425"><ele>445.0</ele><time>2026-04-11T14:37:43.998Z</time></trkpt><trkpt lat="43.309759352787324" lon="12.867542578616304"><ele>445.0</ele><time>2026-04-11T14:37:44.998Z</time></trkpt><trkpt lat="43.3096594690633" lon="12.867605274038308"><ele>448.5</ele><time>2026-04-11T14:37:46Z</time></trkpt><trkpt lat="43.30954332075296" lon="12.867667777959653"><ele>452.0</ele><time>2026-04-11T14:37:47Z</time></trkpt><trkpt lat="43.3094375776639" lon="12.867732355008854"><ele>455.5</ele><time>2026-04-11T14:37:48Z</time></trkpt><trkpt lat="43.30933148018987" lon="12.867811533954326"><ele>459.0</ele><time>2026-04-11T14:37:49Z</time></trkpt><trkpt lat="43.30921326382159" lon="12.867883999634413"><ele>459.0</ele><time>2026-04-11T14:37:50Z</time></trkpt><trkpt lat="43.30910737169116" lon="12.867948333628746"><ele>459.0</ele><time>2026-04-11T14:37:51Z</time></trkpt><trkpt lat="43.309005005676184" lon="12.868011277257242"><ele>459.0</ele><time>2026-04-11T14:37:52Z</time></trkpt><trkpt lat="43.30889096931049" lon="12.868080209424665"><ele>459.0</ele><time>2026-04-11T14:37:53Z</time></trkpt><trkpt lat="43.30878564861784" lon="12.86816077555241"><ele>461.4</ele><time>2026-04-11T14:37:54Z</time></trkpt><trkpt lat="43.30866866722063" lon="12.868221219234568"><ele>463.79999999999995</ele><time>2026-04-11T14:37:55Z</time></trkpt><trkpt lat="43.30856904124529" lon="12.868269548257656"><ele>466.20000000000005</ele><time>2026-04-11T14:37:56Z</time></trkpt><trkpt lat="43.308484891898175" lon="12.868312384112322"><ele>468.6</ele><time>2026-04-11T14:37:57Z</time></trkpt><trkpt lat="43.30841262511492" lon="12.868385284648"><ele>471.0</ele><time>2026-04-11T14:37:58Z</time></trkpt><trkpt lat="43.30835638989807" lon="12.868454490568158"><ele>473.6</ele><time>2026-04-11T14:37:59Z</time></trkpt><trkpt lat="43.30829352684969" lon="12.868569084356903"><ele>476.20000000000005</ele><time>2026-04-11T14:38:01Z</time></trkpt><trkpt lat="43.30832620167095" lon="12.868703672071902"><ele>478.79999999999995</ele><time>2026-04-11T14:38:03Z</time></trkpt><trkpt lat="43.30839524456407" lon="12.8687687546424"><ele>481.4</ele><time>2026-04-11T14:38:04Z</time></trkpt><trkpt lat="43.308477769606974" lon="12.868806575553467"><ele>484.0</ele><time>2026-04-11T14:38:05Z</time></trkpt><trkpt lat="43.308571649208595" lon="12.868816921100207"><ele>484.0</ele><time>2026-04-11T14:38:06Z</time></trkpt><trkpt lat="43.308671540416675" lon="12.868830680906164"><ele>484.0</ele><time>2026-04-11T14:38:07Z</time></trkpt><trkpt lat="43.308772709687545" lon="12.868853815120989"><ele>484.0</ele><time>2026-04-11T14:38:08Z</time></trkpt><trkpt lat="43.30885204512844" lon="12.868872278102975"><ele>484.0</ele><time>2026-04-11T14:38:09Z</time></trkpt><trkpt lat="43.30894533663681" lon="12.868877746944715"><ele>484.0</ele><time>2026-04-11T14:38:10Z</time></trkpt><trkpt lat="43.30902878822797" lon="12.86885453398402"><ele>484.0</ele><time>2026-04-11T14:38:11Z</time></trkpt><trkpt lat="43.30912540799541" lon="12.868874839388472"><ele>484.0</ele><time>2026-04-11T14:38:13Z</time></trkpt><trkpt lat="43.3091938428453" lon="12.868923107806337"><ele>484.0</ele><time>2026-04-11T14:38:14Z</time></trkpt><trkpt lat="43.309281234123176" lon="12.868998331781224"><ele>484.0</ele><time>2026-04-11T14:38:15Z</time></trkpt><trkpt lat="43.30936070827427" lon="12.86904410740764"><ele>484.0</ele><time>2026-04-11T14:38:16Z</time></trkpt><trkpt lat="43.30945743098068" lon="12.869060115695866"><ele>484.0</ele><time>2026-04-11T14:38:17Z</time></trkpt><trkpt lat="43.309541292120585" lon="12.869024557361314"><ele>484.0</ele><time>2026-04-11T14:38:17.999Z</time></trkpt><trkpt lat="43.309611052166595" lon="12.868950747586506"><ele>484.0</ele><time>2026-04-11T14:38:18.999Z</time></trkpt><trkpt lat="43.309690536993116" lon="12.868846126228375"><ele>484.0</ele><time>2026-04-11T14:38:19.999Z</time></trkpt><trkpt lat="43.30975744519149" lon="12.868756663712194"><ele>484.0</ele><time>2026-04-11T14:38:20.999Z</time></trkpt><trkpt lat="43.309850651301744" lon="12.8687131712384"><ele>486.79999999999995</ele><time>2026-04-11T14:38:22.999Z</time></trkpt><trkpt lat="43.30993288516523" lon="12.868704710712374"><ele>489.59999999999997</ele><time>2026-04-11T14:38:23.999Z</time></trkpt><trkpt lat="43.31005046189544" lon="12.868698004482049"><ele>492.4</ele><time>2026-04-11T14:38:24.999Z</time></trkpt><trkpt lat="43.31017464028067" lon="12.868675942559776"><ele>495.2</ele><time>2026-04-11T14:38:25.999Z</time></trkpt><trkpt lat="43.31028655687528" lon="12.868655731460693"><ele>498.0</ele><time>2026-04-11T14:38:26.999Z</time></trkpt><trkpt lat="43.3104048455633" lon="12.868661935634904"><ele>498.0</ele><time>2026-04-11T14:38:27.999Z</time></trkpt><trkpt lat="43.310511253603316" lon="12.868667514428694"><ele>497.99999999999994</ele><time>2026-04-11T14:38:28.999Z</time></trkpt><trkpt lat="43.31062155410852" lon="12.868686573377737"><ele>497.99999999999994</ele><time>2026-04-11T14:38:29.999Z</time></trkpt><trkpt lat="43.310706568426305" lon="12.868699506813185"><ele>498.0</ele><time>2026-04-11T14:38:30.999Z</time></trkpt><trkpt lat="43.3108418222661" lon="12.868732751172457"><ele>498.0</ele><time>2026-04-11T14:38:32.999Z</time></trkpt><trkpt lat="43.310955032561615" lon="12.868745626606293"><ele>500.4</ele><time>2026-04-11T14:38:34.999Z</time></trkpt><trkpt lat="43.3110585204291" lon="12.868758091761256"><ele>502.79999999999995</ele><time>2026-04-11T14:38:36.999Z</time></trkpt><trkpt lat="43.311170065952425" lon="12.868783668493455"><ele>505.2</ele><time>2026-04-11T14:38:38.999Z</time></trkpt><trkpt lat="43.31127328728882" lon="12.86877710426463"><ele>507.6</ele><time>2026-04-11T14:38:40.999Z</time></trkpt><trkpt lat="43.3113899011682" lon="12.868767301758101"><ele>510.0</ele><time>2026-04-11T14:38:42.999Z</time></trkpt><trkpt lat="43.3115217741994" lon="12.868760546813258"><ele>510.8333333333333</ele><time>2026-04-11T14:38:44.999Z</time></trkpt><trkpt lat="43.311588966152456" lon="12.868757017391976"><ele>511.66666666666663</ele><time>2026-04-11T14:38:45.999Z</time></trkpt><trkpt lat="43.311657975908595" lon="12.868768569738426"><ele>512.5</ele><time>2026-04-11T14:38:46.999Z</time></trkpt><trkpt lat="43.31174667390967" lon="12.868773359029438"><ele>513.3333333333333</ele><time>2026-04-11T14:38:47.999Z</time></trkpt><trkpt lat="43.31184201430983" lon="12.868769041867726"><ele>514.1666666666666</ele><time>2026-04-11T14:38:48.999Z</time></trkpt><trkpt lat="43.3119397341544" lon="12.868773642408582"><ele>515.0</ele><time>2026-04-11T14:38:49.999Z</time></trkpt><trkpt lat="43.31203869991152" lon="12.868781627175716"><ele>515.0</ele><time>2026-04-11T14:38:50.999Z</time></trkpt><trkpt lat="43.31215337186287" lon="12.86879707018516"><ele>515.0</ele><time>2026-04-11T14:38:51.999Z</time></trkpt><trkpt lat="43.312269204313466" lon="12.868808095020858"><ele>515.0</ele><time>2026-04-11T14:38:52.999Z</time></trkpt><trkpt lat="43.31239000562258" lon="12.868826849567858"><ele>515.0</ele><time>2026-04-11T14:38:53.999Z</time></trkpt><trkpt lat="43.312502767612884" lon="12.868858902760575"><ele>514.8</ele><time>2026-04-11T14:38:54.999Z</time></trkpt><trkpt lat="43.31260559468819" lon="12.868896544155898"><ele>514.6</ele><time>2026-04-11T14:38:55.999Z</time></trkpt><trkpt lat="43.31268139078433" lon="12.868965283084075"><ele>514.4</ele><time>2026-04-11T14:38:56.999Z</time></trkpt><trkpt lat="43.312744151854794" lon="12.869067717461606"><ele>514.2</ele><time>2026-04-11T14:38:57.999Z</time></trkpt><trkpt lat="43.31280679426129" lon="12.86917489208383"><ele>514.0</ele><time>2026-04-11T14:38:58.999Z</time></trkpt><trkpt lat="43.31286713282267" lon="12.869284521607561"><ele>514.0</ele><time>2026-04-11T14:38:59.999Z</time></trkpt><trkpt lat="43.312916752056644" lon="12.86940135675728"><ele>514.0</ele><time>2026-04-11T14:39:00.999Z</time></trkpt><trkpt lat="43.31294809277787" lon="12.869512935275528"><ele>514.0</ele><time>2026-04-11T14:39:01.999Z</time></trkpt><trkpt lat="43.312953584093435" lon="12.869631685704077"><ele>514.0</ele><time>2026-04-11T14:39:02.999Z</time></trkpt><trkpt lat="43.312938505559984" lon="12.869737967694517"><ele>514.0</ele><time>2026-04-11T14:39:03.999Z</time></trkpt><trkpt lat="43.31290040943705" lon="12.869848324514841"><ele>514.0</ele><time>2026-04-11T14:39:04.999Z</time></trkpt><trkpt lat="43.31284560551359" lon="12.869966103428736"><ele>514.0</ele><time>2026-04-11T14:39:05.999Z</time></trkpt><trkpt lat="43.31278793081879" lon="12.870070247001653"><ele>514.0</ele><time>2026-04-11T14:39:06.999Z</time></trkpt><trkpt lat="43.31271538272102" lon="12.870177388158659"><ele>514.0</ele><time>2026-04-11T14:39:07.999Z</time></trkpt><trkpt lat="43.31264829637061" lon="12.870295347803214"><ele>514.0</ele><time>2026-04-11T14:39:08.999Z</time></trkpt><trkpt lat="43.31258128058705" lon="12.870410258948805"><ele>514.0</ele><time>2026-04-11T14:39:09.999Z</time></trkpt><trkpt lat="43.312520357766445" lon="12.870534260803895"><ele>509.75</ele><time>2026-04-11T14:39:10.999Z</time></trkpt><trkpt lat="43.31245121607348" lon="12.870655833350005"><ele>505.5</ele><time>2026-04-11T14:39:11.999Z</time></trkpt><trkpt lat="43.3123759709284" lon="12.870779434412025"><ele>501.25</ele><time>2026-04-11T14:39:12.999Z</time></trkpt><trkpt lat="43.312289551777305" lon="12.87089947101643"><ele>497.0</ele><time>2026-04-11T14:39:13.999Z</time></trkpt><trkpt lat="43.3121923155139" lon="12.871018095009882"><ele>494.75</ele><time>2026-04-11T14:39:14.999Z</time></trkpt><trkpt lat="43.31209642506171" lon="12.87113816388745"><ele>492.5</ele><time>2026-04-11T14:39:15.999Z</time></trkpt><trkpt lat="43.31198772505349" lon="12.871232253598652"><ele>490.25</ele><time>2026-04-11T14:39:16.999Z</time></trkpt><trkpt lat="43.31190407214283" lon="12.871329213980514"><ele>488.0</ele><time>2026-04-11T14:39:17.999Z</time></trkpt><trkpt lat="43.31183005644694" lon="12.87140959177377"><ele>487.99999999999994</ele><time>2026-04-11T14:39:18.999Z</time></trkpt><trkpt lat="43.3117540864977" lon="12.87147205528947"><ele>488.0</ele><time>2026-04-11T14:39:19.999Z</time></trkpt><trkpt lat="43.31168281322761" lon="12.871534082594799"><ele>488.0</ele><time>2026-04-11T14:39:20.999Z</time></trkpt><trkpt lat="43.311613051262135" lon="12.871592266621201"><ele>488.0</ele><time>2026-04-11T14:39:21.999Z</time></trkpt><trkpt lat="43.31153662716459" lon="12.87163566692474"><ele>487.99999999999994</ele><time>2026-04-11T14:39:22.999Z</time></trkpt><trkpt lat="43.311474772909484" lon="12.871667650644454"><ele>488.0</ele><time>2026-04-11T14:39:23.999Z</time></trkpt><trkpt lat="43.31137583133911" lon="12.871712852973843"><ele>490.2</ele><time>2026-04-11T14:39:25.999Z</time></trkpt><trkpt lat="43.31125851701858" lon="12.871750019803018"><ele>492.4</ele><time>2026-04-11T14:39:27.999Z</time></trkpt><trkpt lat="43.311123107314046" lon="12.871776826850967"><ele>494.59999999999997</ele><time>2026-04-11T14:39:29.999Z</time></trkpt><trkpt lat="43.31104815805923" lon="12.871777838774566"><ele>496.79999999999995</ele><time>2026-04-11T14:39:30.999Z</time></trkpt><trkpt lat="43.31095915228159" lon="12.871765533101271"><ele>499.0</ele><time>2026-04-11T14:39:31.999Z</time></trkpt><trkpt lat="43.31086673714094" lon="12.871750412757425"><ele>501.0</ele><time>2026-04-11T14:39:32.999Z</time></trkpt><trkpt lat="43.310755942360984" lon="12.871721283432093"><ele>503.0</ele><time>2026-04-11T14:39:33.999Z</time></trkpt><trkpt lat="43.310627755732355" lon="12.871690566739053"><ele>505.0</ele><time>2026-04-11T14:39:34.999Z</time></trkpt><trkpt lat="43.3105019890786" lon="12.871653251185805"><ele>507.0</ele><time>2026-04-11T14:39:35.999Z</time></trkpt><trkpt lat="43.31039148060872" lon="12.87163771703055"><ele>512.75</ele><time>2026-04-11T14:39:36.999Z</time></trkpt><trkpt lat="43.3102656886813" lon="12.871637430521702"><ele>518.5</ele><time>2026-04-11T14:39:37.999Z</time></trkpt><trkpt lat="43.31014391635011" lon="12.871668006560913"><ele>524.25</ele><time>2026-04-11T14:39:38.999Z</time></trkpt><trkpt lat="43.310014853652135" lon="12.87174542446644"><ele>530.0</ele><time>2026-04-11T14:39:39.999Z</time></trkpt><trkpt lat="43.309855469489904" lon="12.871845623144882"><ele>537.5</ele><time>2026-04-11T14:39:40.999Z</time></trkpt><trkpt lat="43.30969549290807" lon="12.871953799055543"><ele>545.0</ele><time>2026-04-11T14:39:41.999Z</time></trkpt><trkpt lat="43.30958879437478" lon="12.872040927205548"><ele>552.5</ele><time>2026-04-11T14:39:42.999Z</time></trkpt><trkpt lat="43.30949450707778" lon="12.872129364349885"><ele>560.0</ele><time>2026-04-11T14:39:43.999Z</time></trkpt><trkpt lat="43.30943645100098" lon="12.872262616553263"><ele>560.0</ele><time>2026-04-11T14:39:44.999Z</time></trkpt><trkpt lat="43.30936624081851" lon="12.872418053638164"><ele>560.0</ele><time>2026-04-11T14:39:45.999Z</time></trkpt><trkpt lat="43.30931287999846" lon="12.872578243937015"><ele>560.0</ele><time>2026-04-11T14:39:46.999Z</time></trkpt><trkpt lat="43.309260270430926" lon="12.872716073596582"><ele>560.0</ele><time>2026-04-11T14:39:47.999Z</time></trkpt><trkpt lat="43.30921245488879" lon="12.872852743263792"><ele>562.2</ele><time>2026-04-11T14:39:48.999Z</time></trkpt><trkpt lat="43.30919533693919" lon="12.872989915173775"><ele>564.4</ele><time>2026-04-11T14:39:49.999Z</time></trkpt><trkpt lat="43.30919833093738" lon="12.873127797894558"><ele>566.6</ele><time>2026-04-11T14:39:50.999Z</time></trkpt><trkpt lat="43.3091898519299" lon="12.87326977960379"><ele>568.8</ele><time>2026-04-11T14:39:52Z</time></trkpt><trkpt lat="43.309181229376826" lon="12.873401577234109"><ele>571.0</ele><time>2026-04-11T14:39:53Z</time></trkpt><trkpt lat="43.30917942778185" lon="12.8735029223818"><ele>574.2</ele><time>2026-04-11T14:39:54Z</time></trkpt><trkpt lat="43.30917393448241" lon="12.873620289571843"><ele>577.4000000000001</ele><time>2026-04-11T14:39:55Z</time></trkpt><trkpt lat="43.30917552328136" lon="12.87379046930158"><ele>580.6</ele><time>2026-04-11T14:39:56Z</time></trkpt><trkpt lat="43.30918293143188" lon="12.873934657213958"><ele>583.8000000000001</ele><time>2026-04-11T14:39:57Z</time></trkpt><trkpt lat="43.3091975639661" lon="12.87405635912546"><ele>587.0</ele><time>2026-04-11T14:39:58Z</time></trkpt><trkpt lat="43.309178863192535" lon="12.874236423566362"><ele>592.2</ele><time>2026-04-11T14:40:00Z</time></trkpt><trkpt lat="43.30919611175185" lon="12.874403465620883"><ele>597.4000000000001</ele><time>2026-04-11T14:40:02Z</time></trkpt><trkpt lat="43.30920674025624" lon="12.874498750210108"><ele>602.5999999999999</ele><time>2026-04-11T14:40:03Z</time></trkpt><trkpt lat="43.309232560129324" lon="12.874678234807622"><ele>607.8</ele><time>2026-04-11T14:40:05Z</time></trkpt><trkpt lat="43.309259504133735" lon="12.874780115984057"><ele>613.0</ele><time>2026-04-11T14:40:06Z</time></trkpt><trkpt lat="43.30928748632812" lon="12.87487352829575"><ele>613.0</ele><time>2026-04-11T14:40:07Z</time></trkpt><trkpt lat="43.30933362573016" lon="12.875036284097074"><ele>613.0</ele><time>2026-04-11T14:40:09Z</time></trkpt><trkpt lat="43.30934733120591" lon="12.875137584952144"><ele>613.0</ele><time>2026-04-11T14:40:10Z</time></trkpt><trkpt lat="43.309339212813775" lon="12.875226736965635"><ele>613.0</ele><time>2026-04-11T14:40:11Z</time></trkpt><trkpt lat="43.30931827633802" lon="12.875322838578057"><ele>613.0</ele><time>2026-04-11T14:40:12Z</time></trkpt><trkpt lat="43.309279160453315" lon="12.87540891164344"><ele>613.0</ele><time>2026-04-11T14:40:13Z</time></trkpt><trkpt lat="43.30924134649183" lon="12.875488046138349"><ele>616.6</ele><time>2026-04-11T14:40:14Z</time></trkpt><trkpt lat="43.309233021544294" lon="12.875668705084372"><ele>620.1999999999999</ele><time>2026-04-11T14:40:16Z</time></trkpt><trkpt lat="43.3092496589932" lon="12.875850142398928"><ele>623.8</ele><time>2026-04-11T14:40:18Z</time></trkpt><trkpt lat="43.30926482768825" lon="12.875944588919602"><ele>627.4</ele><time>2026-04-11T14:40:20Z</time></trkpt><trkpt lat="43.30930391485826" lon="12.876043641312176"><ele>631.0</ele><time>2026-04-11T14:40:22Z</time></trkpt><trkpt lat="43.309297181942256" lon="12.876132811865213"><ele>635.6</ele><time>2026-04-11T14:40:26Z</time></trkpt><trkpt lat="43.30927223789305" lon="12.876233940600287"><ele>640.2</ele><time>2026-04-11T14:41:11.999Z</time></trkpt><trkpt lat="43.30917565977391" lon="12.876176242360907"><ele>644.8000000000001</ele><time>2026-04-11T14:41:21.999Z</time></trkpt><trkpt lat="43.309076678879826" lon="12.876128382646913"><ele>649.4000000000001</ele><time>2026-04-11T14:41:23.999Z</time></trkpt><trkpt lat="43.30897235686658" lon="12.876089263026278"><ele>654.0</ele><time>2026-04-11T14:41:25.999Z</time></trkpt><trkpt lat="43.30891229015975" lon="12.876058606778534"><ele>656.2</ele><time>2026-04-11T14:41:26.999Z</time></trkpt><trkpt lat="43.308813287657" lon="12.87599819987117"><ele>658.4000000000001</ele><time>2026-04-11T14:41:28.999Z</time></trkpt><trkpt lat="43.308722096144564" lon="12.87595731882734"><ele>660.6</ele><time>2026-04-11T14:41:31.999Z</time></trkpt><trkpt lat="43.3086648944119" lon="12.875912978538897"><ele>662.8</ele><time>2026-04-11T14:41:33.999Z</time></trkpt><trkpt lat="43.30856977788903" lon="12.875845472166667"><ele>665.0</ele><time>2026-04-11T14:41:35.999Z</time></trkpt><trkpt lat="43.308451513611715" lon="12.875833445245682"><ele>665.0</ele><time>2026-04-11T14:41:37.999Z</time></trkpt><trkpt lat="43.30838077779104" lon="12.875840013343469"><ele>665.0</ele><time>2026-04-11T14:41:38.999Z</time></trkpt><trkpt lat="43.30830716701107" lon="12.875837301236055"><ele>665.0</ele><time>2026-04-11T14:41:39.999Z</time></trkpt><trkpt lat="43.30824126553643" lon="12.875813229968163"><ele>665.0</ele><time>2026-04-11T14:41:40.999Z</time></trkpt><trkpt lat="43.308175146024446" lon="12.87580509053549"><ele>665.0</ele><time>2026-04-11T14:41:41.999Z</time></trkpt><trkpt lat="43.30805871693847" lon="12.87582264392321"><ele>665.0</ele><time>2026-04-11T14:41:43.999Z</time></trkpt><trkpt lat="43.307992442039755" lon="12.875805075617434"><ele>672.75</ele><time>2026-04-11T14:41:45.999Z</time></trkpt><trkpt lat="43.30778817801788" lon="12.875821349149598"><ele>680.5</ele><time>2026-04-11T14:41:47.999Z</time></trkpt><trkpt lat="43.30770406004787" lon="12.875878904565347"><ele>688.25</ele><time>2026-04-11T14:41:49.999Z</time></trkpt><trkpt lat="43.30758328347351" lon="12.87591046159906"><ele>696.0</ele><time>2026-04-11T14:41:51.999Z</time></trkpt><trkpt lat="43.30750561883173" lon="12.875920342288751"><ele>698.5999999999999</ele><time>2026-04-11T14:41:52.999Z</time></trkpt><trkpt lat="43.30738134508843" lon="12.875937992862003"><ele>701.2</ele><time>2026-04-11T14:41:54.999Z</time></trkpt><trkpt lat="43.30727248758253" lon="12.875958747760867"><ele>703.8</ele><time>2026-04-11T14:41:57Z</time></trkpt><trkpt lat="43.30720195181121" lon="12.875962583198987"><ele>706.4000000000001</ele><time>2026-04-11T14:41:59Z</time></trkpt><trkpt lat="43.30716275069313" lon="12.876031127684191"><ele>709.0</ele><time>2026-04-11T14:42:04Z</time></trkpt><trkpt lat="43.307152717858" lon="12.876170481678718"><ele>709.0</ele><time>2026-04-11T14:42:57.999Z</time></trkpt><trkpt lat="43.30728235568177" lon="12.876393926309921"><ele>709.0</ele><time>2026-04-11T14:42:59.999Z</time></trkpt><trkpt lat="43.30732354117503" lon="12.876509835190744"><ele>709.0</ele><time>2026-04-11T14:43:00.999Z</time></trkpt><trkpt lat="43.30738429899333" lon="12.876639115831548"><ele>709.0</ele><time>2026-04-11T14:43:01.999Z</time></trkpt><trkpt lat="43.307456922996" lon="12.876765715589896"><ele>713.75</ele><time>2026-04-11T14:43:02.999Z</time></trkpt><trkpt lat="43.307540949788965" lon="12.876913492367011"><ele>718.5</ele><time>2026-04-11T14:43:03.999Z</time></trkpt><trkpt lat="43.30763353404255" lon="12.877057932926249"><ele>723.25</ele><time>2026-04-11T14:43:04.999Z</time></trkpt><trkpt lat="43.30773240358253" lon="12.87720839825421"><ele>728.0</ele><time>2026-04-11T14:43:05.999Z</time></trkpt><trkpt lat="43.307826142244274" lon="12.87735510710873"><ele>728.0</ele><time>2026-04-11T14:43:06.999Z</time></trkpt><trkpt lat="43.30790232269801" lon="12.877484409494196"><ele>728.0</ele><time>2026-04-11T14:43:07.999Z</time></trkpt><trkpt lat="43.30797850947483" lon="12.877607976075572"><ele>728.0</ele><time>2026-04-11T14:43:08.999Z</time></trkpt><trkpt lat="43.30805807699799" lon="12.87771358406583"><ele>728.0</ele><time>2026-04-11T14:43:09.999Z</time></trkpt><trkpt lat="43.30814622220433" lon="12.877809760185492"><ele>724.25</ele><time>2026-04-11T14:43:10.999Z</time></trkpt><trkpt lat="43.30823799204919" lon="12.877905888987792"><ele>720.5</ele><time>2026-04-11T14:43:11.999Z</time></trkpt><trkpt lat="43.30833523341973" lon="12.877987500516742"><ele>716.75</ele><time>2026-04-11T14:43:12.999Z</time></trkpt><trkpt lat="43.30843487976141" lon="12.878065100681374"><ele>713.0</ele><time>2026-04-11T14:43:13.999Z</time></trkpt><trkpt lat="43.30853863784104" lon="12.878161046076531"><ele>713.0</ele><time>2026-04-11T14:43:14.999Z</time></trkpt><trkpt lat="43.308639430796475" lon="12.878274726689032"><ele>713.0</ele><time>2026-04-11T14:43:15.999Z</time></trkpt><trkpt lat="43.3087476937618" lon="12.878406515095026"><ele>713.0</ele><time>2026-04-11T14:43:16.999Z</time></trkpt><trkpt lat="43.308842027774936" lon="12.878535987164152"><ele>713.0</ele><time>2026-04-11T14:43:17.999Z</time></trkpt><trkpt lat="43.30893609891436" lon="12.878668890843372"><ele>711.25</ele><time>2026-04-11T14:43:18.999Z</time></trkpt><trkpt lat="43.30902267887836" lon="12.878802258611515"><ele>709.5</ele><time>2026-04-11T14:43:19.999Z</time></trkpt><trkpt lat="43.30910261840354" lon="12.878944375408492"><ele>707.75</ele><time>2026-04-11T14:43:20.999Z</time></trkpt><trkpt lat="43.3091692870363" lon="12.879066945783249"><ele>706.0</ele><time>2026-04-11T14:43:21.999Z</time></trkpt><trkpt lat="43.309233851770095" lon="12.879192124150105"><ele>707.4</ele><time>2026-04-11T14:43:22.999Z</time></trkpt><trkpt lat="43.30928514545383" lon="12.879317882264342"><ele>708.8</ele><time>2026-04-11T14:43:23.999Z</time></trkpt><trkpt lat="43.30933466528063" lon="12.879425318461244"><ele>710.1999999999999</ele><time>2026-04-11T14:43:24.999Z</time></trkpt><trkpt lat="43.30937941756668" lon="12.87954955717149"><ele>711.5999999999999</ele><time>2026-04-11T14:43:25.999Z</time></trkpt><trkpt lat="43.30940500426991" lon="12.879685259992291"><ele>713.0</ele><time>2026-04-11T14:43:26.999Z</time></trkpt><trkpt lat="43.30941218673435" lon="12.87982778006368"><ele>713.0</ele><time>2026-04-11T14:43:27.999Z</time></trkpt><trkpt lat="43.309407381140744" lon="12.87998446098965"><ele>713.0</ele><time>2026-04-11T14:43:28.999Z</time></trkpt><trkpt lat="43.309403190177136" lon="12.880155921213827"><ele>713.0</ele><time>2026-04-11T14:43:29.999Z</time></trkpt><trkpt lat="43.3094105104139" lon="12.880324881629297"><ele>713.0</ele><time>2026-04-11T14:43:30.999Z</time></trkpt><trkpt lat="43.30942227295059" lon="12.880498961664154"><ele>714.5</ele><time>2026-04-11T14:43:31.999Z</time></trkpt><trkpt lat="43.30943509715869" lon="12.880667924846765"><ele>716.0</ele><time>2026-04-11T14:43:32.999Z</time></trkpt><trkpt lat="43.30944861616668" lon="12.880819767866344"><ele>717.5</ele><time>2026-04-11T14:43:33.999Z</time></trkpt><trkpt lat="43.30946638191123" lon="12.88096001044225"><ele>719.0</ele><time>2026-04-11T14:43:34.999Z</time></trkpt><trkpt lat="43.30949822060941" lon="12.881116254694348"><ele>720.8000000000001</ele><time>2026-04-11T14:43:35.999Z</time></trkpt><trkpt lat="43.30954234362697" lon="12.881290229885442"><ele>722.6</ele><time>2026-04-11T14:43:36.999Z</time></trkpt><trkpt lat="43.30959239177486" lon="12.881447593097294"><ele>724.4</ele><time>2026-04-11T14:43:37.999Z</time></trkpt><trkpt lat="43.309635605141494" lon="12.881577285660617"><ele>726.2</ele><time>2026-04-11T14:43:38.999Z</time></trkpt><trkpt lat="43.309675082416014" lon="12.88167243838947"><ele>728.0</ele><time>2026-04-11T14:43:39.999Z</time></trkpt><trkpt lat="43.30971168093868" lon="12.881753456564347"><ele>722.8</ele><time>2026-04-11T14:43:40.999Z</time></trkpt><trkpt lat="43.30975985355527" lon="12.881912050154915"><ele>717.5999999999999</ele><time>2026-04-11T14:43:42.999Z</time></trkpt><trkpt lat="43.30982398776133" lon="12.882083178833728"><ele>712.4000000000001</ele><time>2026-04-11T14:43:44.999Z</time></trkpt><trkpt lat="43.30986125577415" lon="12.882187781492807"><ele>707.2</ele><time>2026-04-11T14:43:45.999Z</time></trkpt><trkpt lat="43.30989465383573" lon="12.882296158511801"><ele>702.0</ele><time>2026-04-11T14:43:46.999Z</time></trkpt><trkpt lat="43.30992645245993" lon="12.882400722324476"><ele>702.0</ele><time>2026-04-11T14:43:47.999Z</time></trkpt><trkpt lat="43.30996393044591" lon="12.882514058800131"><ele>702.0</ele><time>2026-04-11T14:43:48.999Z</time></trkpt><trkpt lat="43.310001703954654" lon="12.882625822402906"><ele>702.0</ele><time>2026-04-11T14:43:49.999Z</time></trkpt><trkpt lat="43.31003513455953" lon="12.882739840329949"><ele>702.0</ele><time>2026-04-11T14:43:50.999Z</time></trkpt><trkpt lat="43.31005784377287" lon="12.882851021711405"><ele>702.0</ele><time>2026-04-11T14:43:51.999Z</time></trkpt><trkpt lat="43.310079658813144" lon="12.882983854460928"><ele>701.6</ele><time>2026-04-11T14:43:52.999Z</time></trkpt><trkpt lat="43.31009439917697" lon="12.88311451393598"><ele>701.2</ele><time>2026-04-11T14:43:53.999Z</time></trkpt><trkpt lat="43.31010916967358" lon="12.88325664360599"><ele>700.8</ele><time>2026-04-11T14:43:54.999Z</time></trkpt><trkpt lat="43.310104834900926" lon="12.883400681040024"><ele>700.4</ele><time>2026-04-11T14:43:55.999Z</time></trkpt><trkpt lat="43.310092898111336" lon="12.883560912196646"><ele>700.0</ele><time>2026-04-11T14:43:56.999Z</time></trkpt><trkpt lat="43.31005775388022" lon="12.883700490635949"><ele>699.0</ele><time>2026-04-11T14:43:57.999Z</time></trkpt><trkpt lat="43.31002368737045" lon="12.883814532304955"><ele>698.0</ele><time>2026-04-11T14:43:58.999Z</time></trkpt><trkpt lat="43.30998364501321" lon="12.883922746588556"><ele>697.0</ele><time>2026-04-11T14:43:59.999Z</time></trkpt><trkpt lat="43.30993154943846" lon="12.8840332142941"><ele>696.0</ele><time>2026-04-11T14:44:00.999Z</time></trkpt><trkpt lat="43.309879550651495" lon="12.884126479391105"><ele>695.0</ele><time>2026-04-11T14:44:01.999Z</time></trkpt><trkpt lat="43.30982128884137" lon="12.884219495677696"><ele>694.0</ele><time>2026-04-11T14:44:03Z</time></trkpt><trkpt lat="43.30975027654557" lon="12.884301366219868"><ele>695.2</ele><time>2026-04-11T14:44:04Z</time></trkpt><trkpt lat="43.30968006834605" lon="12.88435176879256"><ele>696.4000000000001</ele><time>2026-04-11T14:44:05Z</time></trkpt><trkpt lat="43.30959521280884" lon="12.884390001965341"><ele>697.6</ele><time>2026-04-11T14:44:06Z</time></trkpt><trkpt lat="43.309497503808025" lon="12.88442623442111"><ele>698.8</ele><time>2026-04-11T14:44:07Z</time></trkpt><trkpt lat="43.30938590385038" lon="12.884463238833547"><ele>700.0</ele><time>2026-04-11T14:44:08Z</time></trkpt><trkpt lat="43.30930366982439" lon="12.884504516372045"><ele>700.0</ele><time>2026-04-11T14:44:09Z</time></trkpt><trkpt lat="43.309250271324196" lon="12.88456839537464"><ele>700.0</ele><time>2026-04-11T14:44:10Z</time></trkpt><trkpt lat="43.30919314694971" lon="12.884696698708101"><ele>700.0</ele><time>2026-04-11T14:44:11Z</time></trkpt><trkpt lat="43.30913615904163" lon="12.884846655370774"><ele>700.0</ele><time>2026-04-11T14:44:12Z</time></trkpt><trkpt lat="43.30908104338373" lon="12.885005040968915"><ele>700.0</ele><time>2026-04-11T14:44:13Z</time></trkpt><trkpt lat="43.30903064947704" lon="12.885182305348632"><ele>699.25</ele><time>2026-04-11T14:44:14Z</time></trkpt><trkpt lat="43.30896932232753" lon="12.885354029596078"><ele>698.5</ele><time>2026-04-11T14:44:15Z</time></trkpt><trkpt lat="43.30891486205413" lon="12.885519683033"><ele>697.75</ele><time>2026-04-11T14:44:16Z</time></trkpt><trkpt lat="43.30888615413198" lon="12.885692206682531"><ele>697.0</ele><time>2026-04-11T14:44:17Z</time></trkpt><trkpt lat="43.30889896601099" lon="12.885879272715558"><ele>695.5</ele><time>2026-04-11T14:44:18Z</time></trkpt><trkpt lat="43.30893977702057" lon="12.886080842151877"><ele>694.0</ele><time>2026-04-11T14:44:19Z</time></trkpt><trkpt lat="43.308999795117245" lon="12.886259780649718"><ele>692.5</ele><time>2026-04-11T14:44:20Z</time></trkpt><trkpt lat="43.30904370050445" lon="12.886389110242634"><ele>691.0</ele><time>2026-04-11T14:44:21Z</time></trkpt><trkpt lat="43.3090217059821" lon="12.886552059774477"><ele>687.5</ele><time>2026-04-11T14:44:23Z</time></trkpt><trkpt lat="43.308901786276046" lon="12.886645694538897"><ele>684.0</ele><time>2026-04-11T14:44:25Z</time></trkpt><trkpt lat="43.30879238942307" lon="12.8866884456508"><ele>680.5</ele><time>2026-04-11T14:44:26Z</time></trkpt><trkpt lat="43.308683117004534" lon="12.886734285037374"><ele>677.0</ele><time>2026-04-11T14:44:27Z</time></trkpt><trkpt lat="43.30857143054216" lon="12.886788651456396"><ele>677.0</ele><time>2026-04-11T14:44:28Z</time></trkpt><trkpt lat="43.30844992234556" lon="12.886822485067231"><ele>677.0</ele><time>2026-04-11T14:44:29Z</time></trkpt><trkpt lat="43.30831093037982" lon="12.886849448199976"><ele>677.0</ele><time>2026-04-11T14:44:30Z</time></trkpt><trkpt lat="43.30816955256433" lon="12.88688084587037"><ele>677.0</ele><time>2026-04-11T14:44:31Z</time></trkpt><trkpt lat="43.308035534696714" lon="12.886905766501094"><ele>677.0</ele><time>2026-04-11T14:44:32Z</time></trkpt><trkpt lat="43.307914844136" lon="12.88692766289674"><ele>677.0</ele><time>2026-04-11T14:44:33Z</time></trkpt><trkpt lat="43.307794107483105" lon="12.88694793774443"><ele>677.0</ele><time>2026-04-11T14:44:34Z</time></trkpt><trkpt lat="43.30768142104351" lon="12.886956538248453"><ele>677.0</ele><time>2026-04-11T14:44:35Z</time></trkpt><trkpt lat="43.30756551808685" lon="12.886947115511834"><ele>677.0</ele><time>2026-04-11T14:44:36Z</time></trkpt><trkpt lat="43.30744677641418" lon="12.886914984007518"><ele>677.0</ele><time>2026-04-11T14:44:37Z</time></trkpt><trkpt lat="43.307317831032634" lon="12.88687740960455"><ele>677.0</ele><time>2026-04-11T14:44:38Z</time></trkpt><trkpt lat="43.30718734439625" lon="12.886845847352372"><ele>677.0</ele><time>2026-04-11T14:44:39Z</time></trkpt><trkpt lat="43.30705041476248" lon="12.886818541813108"><ele>676.0</ele><time>2026-04-11T14:44:40Z</time></trkpt><trkpt lat="43.30691014613116" lon="12.886798027314326"><ele>675.0</ele><time>2026-04-11T14:44:41Z</time></trkpt><trkpt lat="43.30676565119184" lon="12.886775235902103"><ele>674.0</ele><time>2026-04-11T14:44:42Z</time></trkpt><trkpt lat="43.30662842908957" lon="12.886756976617406"><ele>673.0</ele><time>2026-04-11T14:44:43Z</time></trkpt><trkpt lat="43.30650106078521" lon="12.886744774476025"><ele>676.5</ele><time>2026-04-11T14:44:44Z</time></trkpt><trkpt lat="43.30638285095583" lon="12.886759104963186"><ele>680.0</ele><time>2026-04-11T14:44:45Z</time></trkpt><trkpt lat="43.306269799001726" lon="12.886789318868768"><ele>683.5</ele><time>2026-04-11T14:44:46Z</time></trkpt><trkpt lat="43.30616128066517" lon="12.886872080358579"><ele>687.0</ele><time>2026-04-11T14:44:47Z</time></trkpt><trkpt lat="43.30605490886058" lon="12.886974623226262"><ele>687.0</ele><time>2026-04-11T14:44:48Z</time></trkpt><trkpt lat="43.305941010703506" lon="12.887086958590311"><ele>687.0</ele><time>2026-04-11T14:44:49Z</time></trkpt><trkpt lat="43.30583282809448" lon="12.887190242157104"><ele>687.0</ele><time>2026-04-11T14:44:50Z</time></trkpt><trkpt lat="43.305732195823765" lon="12.887306003722953"><ele>687.0</ele><time>2026-04-11T14:44:51Z</time></trkpt><trkpt lat="43.30563693667475" lon="12.887440384807052"><ele>686.0</ele><time>2026-04-11T14:44:52Z</time></trkpt><trkpt lat="43.30554931977617" lon="12.887573020677664"><ele>685.0</ele><time>2026-04-11T14:44:53Z</time></trkpt><trkpt lat="43.305465389628566" lon="12.887708484664754"><ele>684.0</ele><time>2026-04-11T14:44:54Z</time></trkpt><trkpt lat="43.305374705506686" lon="12.88783879759344"><ele>683.0</ele><time>2026-04-11T14:44:55Z</time></trkpt><trkpt lat="43.30527874707552" lon="12.887952925183267"><ele>683.0</ele><time>2026-04-11T14:44:56Z</time></trkpt><trkpt lat="43.30517604069416" lon="12.888069744166868"><ele>683.0</ele><time>2026-04-11T14:44:57Z</time></trkpt><trkpt lat="43.30508028484024" lon="12.88819077341127"><ele>683.0</ele><time>2026-04-11T14:44:58Z</time></trkpt><trkpt lat="43.304992914167094" lon="12.888290151096815"><ele>683.0</ele><time>2026-04-11T14:44:59Z</time></trkpt><trkpt lat="43.30490426386131" lon="12.888389143326537"><ele>686.6666666666666</ele><time>2026-04-11T14:44:59.999Z</time></trkpt><trkpt lat="43.304820222032575" lon="12.888471903132897"><ele>690.3333333333333</ele><time>2026-04-11T14:45:00.999Z</time></trkpt><trkpt lat="43.304743980545254" lon="12.88854321258284"><ele>694.0</ele><time>2026-04-11T14:45:01.999Z</time></trkpt><trkpt lat="43.304673892432184" lon="12.888615414886917"><ele>697.6666666666666</ele><time>2026-04-11T14:45:02.999Z</time></trkpt><trkpt lat="43.30460839049034" lon="12.88867042918268"><ele>701.3333333333334</ele><time>2026-04-11T14:45:03.999Z</time></trkpt><trkpt lat="43.30453884146415" lon="12.888700740870314"><ele>705.0</ele><time>2026-04-11T14:45:04.999Z</time></trkpt><trkpt lat="43.304459077549275" lon="12.888704005623653"><ele>705.0</ele><time>2026-04-11T14:45:05.999Z</time></trkpt><trkpt lat="43.304372452234055" lon="12.888692332683691"><ele>705.0</ele><time>2026-04-11T14:45:06.999Z</time></trkpt><trkpt lat="43.30426715431201" lon="12.888658751986103"><ele>705.0</ele><time>2026-04-11T14:45:07.999Z</time></trkpt><trkpt lat="43.30415434381965" lon="12.888600791093815"><ele>705.0</ele><time>2026-04-11T14:45:08.999Z</time></trkpt><trkpt lat="43.304031563800706" lon="12.888535109332595"><ele>705.0</ele><time>2026-04-11T14:45:09.999Z</time></trkpt><trkpt lat="43.30390109830459" lon="12.888465063539314"><ele>704.0</ele><time>2026-04-11T14:45:10.999Z</time></trkpt><trkpt lat="43.30375695994082" lon="12.888377276824395"><ele>703.0</ele><time>2026-04-11T14:45:11.999Z</time></trkpt><trkpt lat="43.3036350548577" lon="12.888291233789863"><ele>702.0</ele><time>2026-04-11T14:45:12.999Z</time></trkpt><trkpt lat="43.30351663178009" lon="12.888196534040858"><ele>701.0</ele><time>2026-04-11T14:45:13.999Z</time></trkpt><trkpt lat="43.30340642355183" lon="12.888074570426484"><ele>701.0</ele><time>2026-04-11T14:45:14.999Z</time></trkpt><trkpt lat="43.303308608374095" lon="12.887949738986856"><ele>701.0</ele><time>2026-04-11T14:45:15.999Z</time></trkpt><trkpt lat="43.3032165229497" lon="12.887867334127021"><ele>701.0</ele><time>2026-04-11T14:45:16.999Z</time></trkpt><trkpt lat="43.30311900052546" lon="12.887824581485877"><ele>701.0</ele><time>2026-04-11T14:45:17.999Z</time></trkpt><trkpt lat="43.30298153771604" lon="12.887797131877985"><ele>699.5</ele><time>2026-04-11T14:45:18.999Z</time></trkpt><trkpt lat="43.30284761619107" lon="12.88776687254036"><ele>698.0</ele><time>2026-04-11T14:45:19.999Z</time></trkpt><trkpt lat="43.30271756761475" lon="12.887683787576218"><ele>696.5</ele><time>2026-04-11T14:45:20.999Z</time></trkpt><trkpt lat="43.302584763896036" lon="12.887566709138532"><ele>695.0</ele><time>2026-04-11T14:45:21.999Z</time></trkpt><trkpt lat="43.302438371303936" lon="12.887456016683569"><ele>695.0</ele><time>2026-04-11T14:45:22.999Z</time></trkpt><trkpt lat="43.30229354583085" lon="12.887353573628257"><ele>695.0</ele><time>2026-04-11T14:45:23.999Z</time></trkpt><trkpt lat="43.302147398051616" lon="12.887266214267319"><ele>695.0</ele><time>2026-04-11T14:45:24.999Z</time></trkpt><trkpt lat="43.302004957250524" lon="12.887161407515634"><ele>704.6666666666666</ele><time>2026-04-11T14:45:25.999Z</time></trkpt><trkpt lat="43.301862917228796" lon="12.887051208398054"><ele>714.3333333333334</ele><time>2026-04-11T14:45:26.999Z</time></trkpt><trkpt lat="43.30173079799038" lon="12.88693040951645"><ele>724.0</ele><time>2026-04-11T14:45:27.999Z</time></trkpt><trkpt lat="43.30160494682235" lon="12.886813842722793"><ele>723.6666666666667</ele><time>2026-04-11T14:45:28.999Z</time></trkpt><trkpt lat="43.30147270577069" lon="12.886698160288539"><ele>723.3333333333334</ele><time>2026-04-11T14:45:29.999Z</time></trkpt><trkpt lat="43.30134702606607" lon="12.886582537833386"><ele>723.0</ele><time>2026-04-11T14:45:30.999Z</time></trkpt><trkpt lat="43.30121736849369" lon="12.886472804723471"><ele>723.0</ele><time>2026-04-11T14:45:31.999Z</time></trkpt><trkpt lat="43.30107491863335" lon="12.886359108925122"><ele>723.0</ele><time>2026-04-11T14:45:32.999Z</time></trkpt><trkpt lat="43.30094089898027" lon="12.886240508029871"><ele>723.0</ele><time>2026-04-11T14:45:33.999Z</time></trkpt><trkpt lat="43.300810825395196" lon="12.886117645835817"><ele>723.0</ele><time>2026-04-11T14:45:34.999Z</time></trkpt><trkpt lat="43.300684311865865" lon="12.885995661115404"><ele>723.0</ele><time>2026-04-11T14:45:35.999Z</time></trkpt><trkpt lat="43.30056445376395" lon="12.885863870729777"><ele>723.0</ele><time>2026-04-11T14:45:36.999Z</time></trkpt><trkpt lat="43.30044491322563" lon="12.885739153951544"><ele>722.0</ele><time>2026-04-11T14:45:37.999Z</time></trkpt><trkpt lat="43.30032311114163" lon="12.885615704924382"><ele>721.0</ele><time>2026-04-11T14:45:38.999Z</time></trkpt><trkpt lat="43.30019165030563" lon="12.885488321421509"><ele>720.0</ele><time>2026-04-11T14:45:39.999Z</time></trkpt><trkpt lat="43.30005482550512" lon="12.885369029563453"><ele>720.0</ele><time>2026-04-11T14:45:40.999Z</time></trkpt><trkpt lat="43.29991527853234" lon="12.885251726772305"><ele>720.0</ele><time>2026-04-11T14:45:41.999Z</time></trkpt><trkpt lat="43.29978733205025" lon="12.88514474010634"><ele>720.0</ele><time>2026-04-11T14:45:42.999Z</time></trkpt><trkpt lat="43.29962952252431" lon="12.88502141557185"><ele>719.6666666666666</ele><time>2026-04-11T14:45:43.999Z</time></trkpt><trkpt lat="43.299489325303696" lon="12.88491096829447"><ele>719.3333333333333</ele><time>2026-04-11T14:45:44.999Z</time></trkpt><trkpt lat="43.29934521576316" lon="12.884805805455258"><ele>719.0</ele><time>2026-04-11T14:45:45.999Z</time></trkpt><trkpt lat="43.29920282407178" lon="12.884705639793058"><ele>719.0</ele><time>2026-04-11T14:45:46.999Z</time></trkpt><trkpt lat="43.29906007284714" lon="12.884606261697154"><ele>719.0</ele><time>2026-04-11T14:45:47.999Z</time></trkpt><trkpt lat="43.29891926685903" lon="12.88450237787906"><ele>719.0</ele><time>2026-04-11T14:45:48.999Z</time></trkpt><trkpt lat="43.29877580909675" lon="12.884404288125006"><ele>715.6666666666666</ele><time>2026-04-11T14:45:49.999Z</time></trkpt><trkpt lat="43.29863152327452" lon="12.884313151238079"><ele>712.3333333333334</ele><time>2026-04-11T14:45:50.999Z</time></trkpt><trkpt lat="43.29847876844588" lon="12.884222752674312"><ele>709.0</ele><time>2026-04-11T14:45:51.999Z</time></trkpt><trkpt lat="43.29832523724914" lon="12.884134645634854"><ele>709.0</ele><time>2026-04-11T14:45:52.999Z</time></trkpt><trkpt lat="43.29817756113862" lon="12.884049056902162"><ele>709.0</ele><time>2026-04-11T14:45:53.999Z</time></trkpt><trkpt lat="43.29801769656965" lon="12.883966387141799"><ele>709.0</ele><time>2026-04-11T14:45:54.999Z</time></trkpt><trkpt lat="43.29786309756758" lon="12.88389318482884"><ele>714.0</ele><time>2026-04-11T14:45:55.999Z</time></trkpt><trkpt lat="43.29770558898394" lon="12.883818265429822"><ele>719.0</ele><time>2026-04-11T14:45:56.999Z</time></trkpt><trkpt lat="43.29755429993581" lon="12.883752325768498"><ele>724.0</ele><time>2026-04-11T14:45:57.999Z</time></trkpt><trkpt lat="43.297412484394926" lon="12.883700783532312"><ele>724.0</ele><time>2026-04-11T14:45:58.999Z</time></trkpt><trkpt lat="43.29727131820388" lon="12.883655111051192"><ele>724.0</ele><time>2026-04-11T14:45:59.999Z</time></trkpt><trkpt lat="43.29712055022018" lon="12.883605029726551"><ele>724.0</ele><time>2026-04-11T14:46:00.999Z</time></trkpt><trkpt lat="43.296971593749255" lon="12.883558264041238"><ele>723.25</ele><time>2026-04-11T14:46:01.999Z</time></trkpt><trkpt lat="43.29684094741566" lon="12.883531040322442"><ele>722.5</ele><time>2026-04-11T14:46:02.999Z</time></trkpt><trkpt lat="43.29671548816015" lon="12.883519755913035"><ele>721.75</ele><time>2026-04-11T14:46:03.999Z</time></trkpt><trkpt lat="43.29659449972344" lon="12.883529695571012"><ele>721.0</ele><time>2026-04-11T14:46:04.999Z</time></trkpt><trkpt lat="43.296473209105756" lon="12.883568070636594"><ele>714.0</ele><time>2026-04-11T14:46:05.999Z</time></trkpt><trkpt lat="43.29635691331069" lon="12.883649155627278"><ele>707.0</ele><time>2026-04-11T14:46:06.999Z</time></trkpt><trkpt lat="43.29625287255106" lon="12.883745791160623"><ele>700.0</ele><time>2026-04-11T14:46:07.999Z</time></trkpt><trkpt lat="43.296161123147094" lon="12.883873699770461"><ele>693.0</ele><time>2026-04-11T14:46:09Z</time></trkpt><trkpt lat="43.29608621034551" lon="12.884034688098394"><ele>693.0</ele><time>2026-04-11T14:46:10Z</time></trkpt><trkpt lat="43.296013491919894" lon="12.884208436994156"><ele>693.0</ele><time>2026-04-11T14:46:11Z</time></trkpt><trkpt lat="43.295937821360475" lon="12.88437788408922"><ele>693.0</ele><time>2026-04-11T14:46:12Z</time></trkpt><trkpt lat="43.29585720043103" lon="12.884542541276398"><ele>693.0</ele><time>2026-04-11T14:46:13Z</time></trkpt><trkpt lat="43.29577509837689" lon="12.88470846345541"><ele>699.5</ele><time>2026-04-11T14:46:14Z</time></trkpt><trkpt lat="43.29568632697415" lon="12.884871157280587"><ele>706.0</ele><time>2026-04-11T14:46:15Z</time></trkpt><trkpt lat="43.29560671852995" lon="12.885018996670516"><ele>712.5</ele><time>2026-04-11T14:46:16Z</time></trkpt><trkpt lat="43.29552724987321" lon="12.885144711062168"><ele>719.0</ele><time>2026-04-11T14:46:17Z</time></trkpt><trkpt lat="43.29543429888354" lon="12.885245492317676"><ele>719.1666666666666</ele><time>2026-04-11T14:46:18Z</time></trkpt><trkpt lat="43.295329450763056" lon="12.885293897523267"><ele>719.3333333333333</ele><time>2026-04-11T14:46:19Z</time></trkpt><trkpt lat="43.29525926647182" lon="12.885315339989948"><ele>719.5</ele><time>2026-04-11T14:46:20Z</time></trkpt><trkpt lat="43.29519995542177" lon="12.885345043697395"><ele>719.6666666666666</ele><time>2026-04-11T14:46:21Z</time></trkpt><trkpt lat="43.29513566842998" lon="12.885377283637153"><ele>719.8333333333334</ele><time>2026-04-11T14:46:22Z</time></trkpt><trkpt lat="43.29506838155087" lon="12.885410536481308"><ele>720.0</ele><time>2026-04-11T14:46:23Z</time></trkpt><trkpt lat="43.295005778055774" lon="12.885442180927654"><ele>720.0</ele><time>2026-04-11T14:46:24Z</time></trkpt><trkpt lat="43.29492277214054" lon="12.885483323205454"><ele>720.0</ele><time>2026-04-11T14:46:25Z</time></trkpt><trkpt lat="43.29483769603374" lon="12.885544144157047"><ele>720.0</ele><time>2026-04-11T14:46:26Z</time></trkpt><trkpt lat="43.2947566396682" lon="12.885614503678603"><ele>720.0</ele><time>2026-04-11T14:46:27Z</time></trkpt><trkpt lat="43.29466894441389" lon="12.885692526808219"><ele>720.0</ele><time>2026-04-11T14:46:28Z</time></trkpt><trkpt lat="43.294587203544644" lon="12.885774391760092"><ele>718.4</ele><time>2026-04-11T14:46:29Z</time></trkpt><trkpt lat="43.2945061229973" lon="12.885856714382166"><ele>716.8</ele><time>2026-04-11T14:46:30Z</time></trkpt><trkpt lat="43.29441616299263" lon="12.885942324920666"><ele>715.2</ele><time>2026-04-11T14:46:31Z</time></trkpt><trkpt lat="43.29433296363208" lon="12.886032505579069"><ele>713.6</ele><time>2026-04-11T14:46:32Z</time></trkpt><trkpt lat="43.29423950705938" lon="12.886139751696886"><ele>712.0</ele><time>2026-04-11T14:46:33Z</time></trkpt><trkpt lat="43.29414977966399" lon="12.886255934521369"><ele>712.0</ele><time>2026-04-11T14:46:34Z</time></trkpt><trkpt lat="43.29406374867258" lon="12.88636738014813"><ele>712.0</ele><time>2026-04-11T14:46:35Z</time></trkpt><trkpt lat="43.29397426616635" lon="12.886480609990745"><ele>712.0</ele><time>2026-04-11T14:46:36Z</time></trkpt><trkpt lat="43.2938914575608" lon="12.886600522363205"><ele>712.0</ele><time>2026-04-11T14:46:37Z</time></trkpt><trkpt lat="43.293803248491585" lon="12.886716899704592"><ele>709.0</ele><time>2026-04-11T14:46:38Z</time></trkpt><trkpt lat="43.29371118600427" lon="12.88684351672656"><ele>706.0</ele><time>2026-04-11T14:46:39Z</time></trkpt><trkpt lat="43.2936194984873" lon="12.88697546388729"><ele>703.0</ele><time>2026-04-11T14:46:40Z</time></trkpt><trkpt lat="43.293525490940326" lon="12.887120010342603"><ele>700.0</ele><time>2026-04-11T14:46:41Z</time></trkpt><trkpt lat="43.29342948580047" lon="12.887277823655099"><ele>700.0</ele><time>2026-04-11T14:46:42Z</time></trkpt><trkpt lat="43.293337896733526" lon="12.887434507049962"><ele>700.0</ele><time>2026-04-11T14:46:43Z</time></trkpt><trkpt lat="43.293239241230104" lon="12.887612104549843"><ele>700.0</ele><time>2026-04-11T14:46:44Z</time></trkpt><trkpt lat="43.29314358210398" lon="12.887801082957068"><ele>692.6666666666667</ele><time>2026-04-11T14:46:45Z</time></trkpt><trkpt lat="43.29305345342334" lon="12.887987473283033"><ele>685.3333333333334</ele><time>2026-04-11T14:46:46Z</time></trkpt><trkpt lat="43.292955536091874" lon="12.888205667415486"><ele>678.0</ele><time>2026-04-11T14:46:47Z</time></trkpt><trkpt lat="43.29286367236318" lon="12.888418442865493"><ele>682.6666666666666</ele><time>2026-04-11T14:46:48Z</time></trkpt><trkpt lat="43.29277289032639" lon="12.888625331668658"><ele>687.3333333333333</ele><time>2026-04-11T14:46:49Z</time></trkpt><trkpt lat="43.29269126286787" lon="12.8888225593306"><ele>692.0</ele><time>2026-04-11T14:46:50Z</time></trkpt><trkpt lat="43.29261661710502" lon="12.888988382891046"><ele>692.0</ele><time>2026-04-11T14:46:51Z</time></trkpt><trkpt lat="43.29254685596177" lon="12.88913830051847"><ele>692.0</ele><time>2026-04-11T14:46:52Z</time></trkpt><trkpt lat="43.29248437388654" lon="12.889274567565403"><ele>692.0</ele><time>2026-04-11T14:46:53Z</time></trkpt><trkpt lat="43.29242954239235" lon="12.889406330256952"><ele>692.0</ele><time>2026-04-11T14:46:54Z</time></trkpt><trkpt lat="43.2923910057207" lon="12.889538949400592"><ele>694.2</ele><time>2026-04-11T14:46:55Z</time></trkpt><trkpt lat="43.292371427927336" lon="12.889684139288798"><ele>696.4000000000001</ele><time>2026-04-11T14:46:56Z</time></trkpt><trkpt lat="43.29234682857196" lon="12.88980785159504"><ele>698.5999999999999</ele><time>2026-04-11T14:46:57Z</time></trkpt><trkpt lat="43.292285223679514" lon="12.889896043648125"><ele>700.8</ele><time>2026-04-11T14:46:58Z</time></trkpt><trkpt lat="43.292198577060894" lon="12.889937198964446"><ele>703.0</ele><time>2026-04-11T14:46:59Z</time></trkpt><trkpt lat="43.29210495385343" lon="12.889917525756232"><ele>703.0</ele><time>2026-04-11T14:47:00Z</time></trkpt><trkpt lat="43.292005708188945" lon="12.889862493914373"><ele>703.0</ele><time>2026-04-11T14:47:01Z</time></trkpt><trkpt lat="43.29190373105212" lon="12.889796603381365"><ele>703.0</ele><time>2026-04-11T14:47:02Z</time></trkpt><trkpt lat="43.29180814397192" lon="12.889745386483138"><ele>703.0</ele><time>2026-04-11T14:47:03Z</time></trkpt><trkpt lat="43.29170072706665" lon="12.889699815998403"><ele>703.0</ele><time>2026-04-11T14:47:04Z</time></trkpt><trkpt lat="43.29159941647074" lon="12.88965112560172"><ele>703.0</ele><time>2026-04-11T14:47:05Z</time></trkpt><trkpt lat="43.29147687355068" lon="12.889604703513484"><ele>703.0</ele><time>2026-04-11T14:47:06Z</time></trkpt><trkpt lat="43.29134650437954" lon="12.889550890219482"><ele>703.0</ele><time>2026-04-11T14:47:07Z</time></trkpt><trkpt lat="43.29122425413438" lon="12.889544726163138"><ele>703.0</ele><time>2026-04-11T14:47:08Z</time></trkpt><trkpt lat="43.29110529654661" lon="12.889533631322081"><ele>703.5</ele><time>2026-04-11T14:47:09Z</time></trkpt><trkpt lat="43.2909793007165" lon="12.889542881662853"><ele>704.0</ele><time>2026-04-11T14:47:09.999Z</time></trkpt><trkpt lat="43.29083974065466" lon="12.8895918115723"><ele>704.5</ele><time>2026-04-11T14:47:10.999Z</time></trkpt><trkpt lat="43.29070044840356" lon="12.88964782872636"><ele>705.0</ele><time>2026-04-11T14:47:11.999Z</time></trkpt><trkpt lat="43.29055500152485" lon="12.889706968658722"><ele>701.0</ele><time>2026-04-11T14:47:12.999Z</time></trkpt><trkpt lat="43.29043035461444" lon="12.889773116282447"><ele>697.0</ele><time>2026-04-11T14:47:13.999Z</time></trkpt><trkpt lat="43.29030085439805" lon="12.889828332185438"><ele>693.0</ele><time>2026-04-11T14:47:14.999Z</time></trkpt><trkpt lat="43.29018575806931" lon="12.889878492149958"><ele>689.0</ele><time>2026-04-11T14:47:15.999Z</time></trkpt><trkpt lat="43.290077934394425" lon="12.889931465384727"><ele>689.0</ele><time>2026-04-11T14:47:16.999Z</time></trkpt><trkpt lat="43.289986899976434" lon="12.890001238687615"><ele>689.0</ele><time>2026-04-11T14:47:17.999Z</time></trkpt><trkpt lat="43.28990496253585" lon="12.890077613198718"><ele>689.0</ele><time>2026-04-11T14:47:18.999Z</time></trkpt><trkpt lat="43.289832532948196" lon="12.89017746290059"><ele>689.0</ele><time>2026-04-11T14:47:19.999Z</time></trkpt><trkpt lat="43.28977174374259" lon="12.890315000355674"><ele>689.0</ele><time>2026-04-11T14:47:20.999Z</time></trkpt><trkpt lat="43.2897195935306" lon="12.89046432294791"><ele>681.8000000000001</ele><time>2026-04-11T14:47:21.999Z</time></trkpt><trkpt lat="43.2896828617422" lon="12.890594257003762"><ele>674.6</ele><time>2026-04-11T14:47:22.999Z</time></trkpt><trkpt lat="43.28965247740905" lon="12.890728626867514"><ele>667.4</ele><time>2026-04-11T14:47:23.999Z</time></trkpt><trkpt lat="43.289627089019014" lon="12.890868381752655"><ele>660.2</ele><time>2026-04-11T14:47:24.999Z</time></trkpt><trkpt lat="43.28962044762893" lon="12.891010984351027"><ele>653.0</ele><time>2026-04-11T14:47:25.999Z</time></trkpt><trkpt lat="43.28962698192205" lon="12.891180544008002"><ele>651.5</ele><time>2026-04-11T14:47:26.999Z</time></trkpt><trkpt lat="43.289644966945275" lon="12.89134988522274"><ele>650.0</ele><time>2026-04-11T14:47:27.999Z</time></trkpt><trkpt lat="43.289676512465185" lon="12.89152554430376"><ele>648.5</ele><time>2026-04-11T14:47:28.999Z</time></trkpt><trkpt lat="43.2897072236753" lon="12.891696283434102"><ele>647.0</ele><time>2026-04-11T14:47:29.999Z</time></trkpt><trkpt lat="43.28974272637561" lon="12.891854759440927"><ele>654.25</ele><time>2026-04-11T14:47:30.999Z</time></trkpt><trkpt lat="43.289781076145665" lon="12.892002774634182"><ele>661.5</ele><time>2026-04-11T14:47:31.999Z</time></trkpt><trkpt lat="43.2898182699139" lon="12.892152593019732"><ele>668.75</ele><time>2026-04-11T14:47:32.999Z</time></trkpt><trkpt lat="43.28985698217372" lon="12.892311429827807"><ele>676.0</ele><time>2026-04-11T14:47:33.999Z</time></trkpt><trkpt lat="43.28991069386695" lon="12.89248362025136"><ele>673.3333333333334</ele><time>2026-04-11T14:47:34.999Z</time></trkpt><trkpt lat="43.289983514450675" lon="12.892662430039362"><ele>670.6666666666666</ele><time>2026-04-11T14:47:35.999Z</time></trkpt><trkpt lat="43.29006809643712" lon="12.892839077868082"><ele>668.0</ele><time>2026-04-11T14:47:36.999Z</time></trkpt><trkpt lat="43.290154510073" lon="12.893010638914351"><ele>668.0</ele><time>2026-04-11T14:47:37.999Z</time></trkpt><trkpt lat="43.29022606282297" lon="12.893175685534334"><ele>668.0</ele><time>2026-04-11T14:47:38.999Z</time></trkpt><trkpt lat="43.29029878537544" lon="12.893334645971933"><ele>668.0</ele><time>2026-04-11T14:47:39.999Z</time></trkpt><trkpt lat="43.29037453929844" lon="12.893481456299568"><ele>668.0</ele><time>2026-04-11T14:47:40.999Z</time></trkpt><trkpt lat="43.290441696518954" lon="12.893585884437394"><ele>668.0</ele><time>2026-04-11T14:47:41.999Z</time></trkpt><trkpt lat="43.29049765578738" lon="12.893653828614527"><ele>668.0</ele><time>2026-04-11T14:47:42.999Z</time></trkpt><trkpt lat="43.290556628260916" lon="12.89374142338169"><ele>668.0</ele><time>2026-04-11T14:47:43.999Z</time></trkpt><trkpt lat="43.290602718005744" lon="12.893800999589564"><ele>668.0</ele><time>2026-04-11T14:47:44.999Z</time></trkpt><trkpt lat="43.290655356097574" lon="12.893875281301007"><ele>668.0</ele><time>2026-04-11T14:47:45.999Z</time></trkpt><trkpt lat="43.290733628542725" lon="12.893987537749313"><ele>668.0</ele><time>2026-04-11T14:47:47.999Z</time></trkpt><trkpt lat="43.290772813043844" lon="12.894098072616426"><ele>667.0</ele><time>2026-04-11T14:47:49.999Z</time></trkpt><trkpt lat="43.2907775708003" lon="12.894216624751182"><ele>666.0</ele><time>2026-04-11T14:47:51.999Z</time></trkpt><trkpt lat="43.29075247472865" lon="12.894331301421397"><ele>665.0</ele><time>2026-04-11T14:47:53.999Z</time></trkpt><trkpt lat="43.29067684744886" lon="12.894425347350658"><ele>664.0</ele><time>2026-04-11T14:47:55.999Z</time></trkpt><trkpt lat="43.29057164205844" lon="12.894497144806918"><ele>663.0</ele><time>2026-04-11T14:47:57.999Z</time></trkpt><trkpt lat="43.29050913522889" lon="12.894548588199987"><ele>665.4</ele><time>2026-04-11T14:47:58.999Z</time></trkpt><trkpt lat="43.290450061875326" lon="12.89459621881795"><ele>667.8</ele><time>2026-04-11T14:47:59.999Z</time></trkpt><trkpt lat="43.290382045601845" lon="12.894626139703568"><ele>670.2</ele><time>2026-04-11T14:48:00.999Z</time></trkpt><trkpt lat="43.29027777420417" lon="12.894637931374902"><ele>672.6</ele><time>2026-04-11T14:48:02.999Z</time></trkpt><trkpt lat="43.29015466416388" lon="12.894682081373798"><ele>675.0</ele><time>2026-04-11T14:48:04.999Z</time></trkpt><trkpt lat="43.29007253010495" lon="12.894723526258302"><ele>675.0</ele><time>2026-04-11T14:48:05.999Z</time></trkpt><trkpt lat="43.28998719988818" lon="12.89479410111353"><ele>675.0</ele><time>2026-04-11T14:48:07.999Z</time></trkpt><trkpt lat="43.28998033777877" lon="12.894884419103661"><ele>675.0</ele><time>2026-04-11T14:48:09.999Z</time></trkpt><trkpt lat="43.28995472670599" lon="12.89498889783703"><ele>675.0</ele><time>2026-04-11T14:48:11.999Z</time></trkpt><trkpt lat="43.28994478897677" lon="12.895124788729694"><ele>675.0</ele><time>2026-04-11T14:48:13.999Z</time></trkpt><trkpt lat="43.289932561337956" lon="12.895229343526216"><ele>675.0</ele><time>2026-04-11T14:48:16Z</time></trkpt><trkpt lat="43.28991641738932" lon="12.895330583467738"><ele>676.0</ele><time>2026-04-11T14:48:18Z</time></trkpt><trkpt lat="43.2899073433967" lon="12.895439566646266"><ele>677.0</ele><time>2026-04-11T14:48:20Z</time></trkpt><trkpt lat="43.28986195854785" lon="12.895517140927026"><ele>678.0</ele><time>2026-04-11T14:48:22Z</time></trkpt><trkpt lat="43.28982980862535" lon="12.895687494250511"><ele>679.0</ele><time>2026-04-11T14:48:25Z</time></trkpt><trkpt lat="43.28980437957448" lon="12.895781034494881"><ele>680.0</ele><time>2026-04-11T14:48:27Z</time></trkpt><trkpt lat="43.28975745555303" lon="12.895840426175385"><ele>681.0</ele><time>2026-04-11T14:48:29Z</time></trkpt><trkpt lat="43.289717620761586" lon="12.895912717271834"><ele>684.5</ele><time>2026-04-11T14:48:31Z</time></trkpt><trkpt lat="43.289652718907426" lon="12.895926420790065"><ele>688.0</ele><time>2026-04-11T14:48:34Z</time></trkpt><trkpt lat="43.28957246064415" lon="12.89590758715402"><ele>691.5</ele><time>2026-04-11T14:48:37Z</time></trkpt><trkpt lat="43.28952234536947" lon="12.895818866515006"><ele>695.0</ele><time>2026-04-11T14:48:40Z</time></trkpt><trkpt lat="43.28948241797167" lon="12.895731900291716"><ele>698.5</ele><time>2026-04-11T14:48:42Z</time></trkpt><trkpt lat="43.28944912641724" lon="12.895648212261666"><ele>702.0</ele><time>2026-04-11T14:48:45Z</time></trkpt><trkpt lat="43.289338099981" lon="12.895673918534818"><ele>702.0</ele><time>2026-04-11T14:48:48Z</time></trkpt><trkpt lat="43.28925650687555" lon="12.895688221679762"><ele>702.0</ele><time>2026-04-11T14:48:51Z</time></trkpt><trkpt lat="43.28916142902289" lon="12.895713276793495"><ele>702.0</ele><time>2026-04-11T14:48:52Z</time></trkpt><trkpt lat="43.28916413283145" lon="12.895826539578527"><ele>702.0</ele><time>2026-04-11T14:48:55Z</time></trkpt><trkpt lat="43.289238367882916" lon="12.895942683067883"><ele>702.0</ele><time>2026-04-11T14:48:57Z</time></trkpt><trkpt lat="43.28927728715762" lon="12.896021098637156"><ele>702.0</ele><time>2026-04-11T14:48:59Z</time></trkpt><trkpt lat="43.28929506897953" lon="12.89613967885195"><ele>702.0</ele><time>2026-04-11T14:49:02Z</time></trkpt><trkpt lat="43.289346677398456" lon="12.896261842979856"><ele>702.0</ele><time>2026-04-11T14:49:04Z</time></trkpt><trkpt lat="43.28934206142708" lon="12.896426443458564"><ele>702.0</ele><time>2026-04-11T14:49:06Z</time></trkpt><trkpt lat="43.28932606013287" lon="12.896514997376173"><ele>702.0</ele><time>2026-04-11T14:49:07Z</time></trkpt><trkpt lat="43.289300755352464" lon="12.896606457793766"><ele>702.0</ele><time>2026-04-11T14:49:08Z</time></trkpt><trkpt lat="43.28927428265815" lon="12.896686112085819"><ele>702.0</ele><time>2026-04-11T14:49:09Z</time></trkpt><trkpt lat="43.28920672530406" lon="12.896770328461468"><ele>703.4000000000001</ele><time>2026-04-11T14:49:11Z</time></trkpt><trkpt lat="43.289191106951854" lon="12.896882525949948"><ele>704.8000000000001</ele><time>2026-04-11T14:49:13Z</time></trkpt><trkpt lat="43.28921079876769" lon="12.896998214831694"><ele>706.2</ele><time>2026-04-11T14:49:15Z</time></trkpt><trkpt lat="43.28924120574769" lon="12.897125587007027"><ele>707.6</ele><time>2026-04-11T14:49:17Z</time></trkpt><trkpt lat="43.289246765286485" lon="12.897276854572674"><ele>709.0</ele><time>2026-04-11T14:49:18.999Z</time></trkpt><trkpt lat="43.28928620637419" lon="12.89739483051513"><ele>709.0</ele><time>2026-04-11T14:49:19.999Z</time></trkpt><trkpt lat="43.28932217579267" lon="12.897498881572394"><ele>709.0</ele><time>2026-04-11T14:49:20.999Z</time></trkpt><trkpt lat="43.28933856597428" lon="12.897598808781824"><ele>709.0</ele><time>2026-04-11T14:49:21.999Z</time></trkpt><trkpt lat="43.289338997751905" lon="12.89768961403705"><ele>709.0</ele><time>2026-04-11T14:49:22.999Z</time></trkpt><trkpt lat="43.28931609851126" lon="12.897833984178229"><ele>709.0</ele><time>2026-04-11T14:49:24.999Z</time></trkpt><trkpt lat="43.289302291209744" lon="12.897975336959297"><ele>709.0</ele><time>2026-04-11T14:49:26.999Z</time></trkpt><trkpt lat="43.28930002658556" lon="12.898129341188262"><ele>707.75</ele><time>2026-04-11T14:49:28.999Z</time></trkpt><trkpt lat="43.2892468434989" lon="12.898273558975703"><ele>706.5</ele><time>2026-04-11T14:49:30.999Z</time></trkpt><trkpt lat="43.28917052317448" lon="12.898362722377616"><ele>705.25</ele><time>2026-04-11T14:49:31.999Z</time></trkpt><trkpt lat="43.28907637241457" lon="12.898427863535806"><ele>704.0</ele><time>2026-04-11T14:49:32.999Z</time></trkpt><trkpt lat="43.28895911255469" lon="12.898503247124435"><ele>703.6</ele><time>2026-04-11T14:49:33.999Z</time></trkpt><trkpt lat="43.28884890108823" lon="12.898594190814443"><ele>703.2</ele><time>2026-04-11T14:49:34.999Z</time></trkpt><trkpt lat="43.28875740996769" lon="12.898675253329946"><ele>702.8000000000001</ele><time>2026-04-11T14:49:35.999Z</time></trkpt><trkpt lat="43.288671556695746" lon="12.898730273953857"><ele>702.4000000000001</ele><time>2026-04-11T14:49:36.999Z</time></trkpt><trkpt lat="43.28858354458485" lon="12.898751980377215"><ele>702.0</ele><time>2026-04-11T14:49:37.999Z</time></trkpt><trkpt lat="43.288494414940736" lon="12.898788921724714"><ele>702.0</ele><time>2026-04-11T14:49:38.999Z</time></trkpt><trkpt lat="43.288418272805885" lon="12.898859010811396"><ele>702.0</ele><time>2026-04-11T14:49:39.999Z</time></trkpt><trkpt lat="43.28831942634414" lon="12.898940244762802"><ele>702.0</ele><time>2026-04-11T14:49:40.999Z</time></trkpt><trkpt lat="43.28823149683649" lon="12.899016450355322"><ele>702.0</ele><time>2026-04-11T14:49:41.999Z</time></trkpt><trkpt lat="43.28816024210224" lon="12.899107684863056"><ele>702.0</ele><time>2026-04-11T14:49:42.999Z</time></trkpt><trkpt lat="43.288121763847016" lon="12.89918250892545"><ele>701.4000000000001</ele><time>2026-04-11T14:49:43.999Z</time></trkpt><trkpt lat="43.288114348783935" lon="12.89932212050064"><ele>700.8000000000001</ele><time>2026-04-11T14:49:44.999Z</time></trkpt><trkpt lat="43.288122395959405" lon="12.899462065249894"><ele>700.2</ele><time>2026-04-11T14:49:45.999Z</time></trkpt><trkpt lat="43.28812640397475" lon="12.899597460326577"><ele>699.6</ele><time>2026-04-11T14:49:46.999Z</time></trkpt><trkpt lat="43.28815072596122" lon="12.899731470432906"><ele>699.0</ele><time>2026-04-11T14:49:48.999Z</time></trkpt><trkpt lat="43.28816678765124" lon="12.899816862306265"><ele>699.0</ele><time>2026-04-11T14:49:49.999Z</time></trkpt><trkpt lat="43.288197753291165" lon="12.899908031473291"><ele>699.0</ele><time>2026-04-11T14:49:50.999Z</time></trkpt><trkpt lat="43.28818960295855" lon="12.90010007445727"><ele>699.0</ele><time>2026-04-11T14:49:52.999Z</time></trkpt><trkpt lat="43.2881946020509" lon="12.900208343500456"><ele>699.0</ele><time>2026-04-11T14:49:53.999Z</time></trkpt><trkpt lat="43.28818962028386" lon="12.900329148196036"><ele>699.0</ele><time>2026-04-11T14:49:54.999Z</time></trkpt><trkpt lat="43.28819065198795" lon="12.900424191103253"><ele>699.0</ele><time>2026-04-11T14:49:55.999Z</time></trkpt><trkpt lat="43.28818964979121" lon="12.900546259413627"><ele>697.6666666666666</ele><time>2026-04-11T14:49:56.999Z</time></trkpt><trkpt lat="43.28817485610529" lon="12.900667619938043"><ele>696.3333333333334</ele><time>2026-04-11T14:49:57.999Z</time></trkpt><trkpt lat="43.288151317688545" lon="12.900783064189975"><ele>695.0</ele><time>2026-04-11T14:49:58.999Z</time></trkpt><trkpt lat="43.2881196764065" lon="12.90089474368136"><ele>693.6666666666667</ele><time>2026-04-11T14:49:59.999Z</time></trkpt><trkpt lat="43.28808311166217" lon="12.900975641789433"><ele>692.3333333333334</ele><time>2026-04-11T14:50:00.999Z</time></trkpt><trkpt lat="43.28802894174544" lon="12.901060292606976"><ele>691.0</ele><time>2026-04-11T14:50:01.999Z</time></trkpt><trkpt lat="43.28792758416075" lon="12.901162829826024"><ele>697.3333333333334</ele><time>2026-04-11T14:50:02.999Z</time></trkpt><trkpt lat="43.28782380981921" lon="12.901308819515608"><ele>703.6666666666666</ele><time>2026-04-11T14:50:03.999Z</time></trkpt><trkpt lat="43.28772287514465" lon="12.901477628383576"><ele>710.0</ele><time>2026-04-11T14:50:04.999Z</time></trkpt><trkpt lat="43.2876316170529" lon="12.901656849145205"><ele>703.3333333333333</ele><time>2026-04-11T14:50:05.999Z</time></trkpt><trkpt lat="43.28754896851782" lon="12.901844585713283"><ele>696.6666666666666</ele><time>2026-04-11T14:50:06.999Z</time></trkpt><trkpt lat="43.287471650630465" lon="12.90203882910846"><ele>690.0</ele><time>2026-04-11T14:50:07.999Z</time></trkpt><trkpt lat="43.28740581236847" lon="12.902227287087072"><ele>690.0</ele><time>2026-04-11T14:50:08.999Z</time></trkpt><trkpt lat="43.28734115458842" lon="12.902406607786812"><ele>690.0</ele><time>2026-04-11T14:50:09.999Z</time></trkpt><trkpt lat="43.287298709592605" lon="12.90257073682245"><ele>690.0</ele><time>2026-04-11T14:50:10.999Z</time></trkpt><trkpt lat="43.28725094543141" lon="12.902727259546552"><ele>690.0</ele><time>2026-04-11T14:50:11.999Z</time></trkpt><trkpt lat="43.28718512382893" lon="12.902857353245446"><ele>694.6</ele><time>2026-04-11T14:50:12.999Z</time></trkpt><trkpt lat="43.28713875363528" lon="12.902996576689068"><ele>699.2</ele><time>2026-04-11T14:50:13.999Z</time></trkpt><trkpt lat="43.287129197481235" lon="12.903124366403166"><ele>703.8</ele><time>2026-04-11T14:50:14.999Z</time></trkpt><trkpt lat="43.28709762901162" lon="12.903238855864867"><ele>708.4</ele><time>2026-04-11T14:50:15.999Z</time></trkpt><trkpt lat="43.2870503621935" lon="12.903377635055564"><ele>713.0</ele><time>2026-04-11T14:50:16.999Z</time></trkpt><trkpt lat="43.286982756766726" lon="12.903515829357863"><ele>713.4</ele><time>2026-04-11T14:50:17.999Z</time></trkpt><trkpt lat="43.286936210999286" lon="12.90365541726404"><ele>713.8</ele><time>2026-04-11T14:50:18.999Z</time></trkpt><trkpt lat="43.286921860320675" lon="12.903775339544856"><ele>714.2</ele><time>2026-04-11T14:50:19.999Z</time></trkpt><trkpt lat="43.2869411541874" lon="12.903884343677348"><ele>714.6</ele><time>2026-04-11T14:50:21Z</time></trkpt><trkpt lat="43.28698854841078" lon="12.903998943842614"><ele>715.0</ele><time>2026-04-11T14:50:22Z</time></trkpt><trkpt lat="43.2870737250878" lon="12.904115538184247"><ele>715.0</ele><time>2026-04-11T14:50:23Z</time></trkpt><trkpt lat="43.287156414141904" lon="12.904241214417574"><ele>715.0</ele><time>2026-04-11T14:50:24Z</time></trkpt><trkpt lat="43.287246245025116" lon="12.90437344995592"><ele>715.0</ele><time>2026-04-11T14:50:25Z</time></trkpt><trkpt lat="43.287355663569954" lon="12.904484809276449"><ele>715.0</ele><time>2026-04-11T14:50:26Z</time></trkpt><trkpt lat="43.28746521400666" lon="12.904561918701601"><ele>712.0</ele><time>2026-04-11T14:50:27Z</time></trkpt><trkpt lat="43.287581091322124" lon="12.904628639680611"><ele>709.0</ele><time>2026-04-11T14:50:28Z</time></trkpt><trkpt lat="43.28769034222081" lon="12.90470462336669"><ele>706.0</ele><time>2026-04-11T14:50:29Z</time></trkpt><trkpt lat="43.28780081466144" lon="12.904775049553244"><ele>703.0</ele><time>2026-04-11T14:50:30Z</time></trkpt><trkpt lat="43.287894742713554" lon="12.904839435246513"><ele>703.0</ele><time>2026-04-11T14:50:31Z</time></trkpt><trkpt lat="43.28796105267625" lon="12.904919025357707"><ele>703.0</ele><time>2026-04-11T14:50:32Z</time></trkpt><trkpt lat="43.288038305104386" lon="12.90501690013669"><ele>703.0</ele><time>2026-04-11T14:50:33Z</time></trkpt><trkpt lat="43.288118867606265" lon="12.905114728316066"><ele>703.0</ele><time>2026-04-11T14:50:34Z</time></trkpt><trkpt lat="43.28820592528091" lon="12.905203984029894"><ele>703.0</ele><time>2026-04-11T14:50:35Z</time></trkpt><trkpt lat="43.288306232416886" lon="12.90529167999174"><ele>704.0</ele><time>2026-04-11T14:50:36Z</time></trkpt><trkpt lat="43.288425175773604" lon="12.905357565864273"><ele>705.0</ele><time>2026-04-11T14:50:37Z</time></trkpt><trkpt lat="43.28855820492914" lon="12.905427851539562"><ele>706.0</ele><time>2026-04-11T14:50:38Z</time></trkpt><trkpt lat="43.2886932931675" lon="12.905506631078598"><ele>707.0</ele><time>2026-04-11T14:50:39Z</time></trkpt><trkpt lat="43.288821371369835" lon="12.905587189093703"><ele>707.0</ele><time>2026-04-11T14:50:40Z</time></trkpt><trkpt lat="43.28893763284978" lon="12.905673092417075"><ele>707.0</ele><time>2026-04-11T14:50:41Z</time></trkpt><trkpt lat="43.28905393430943" lon="12.905761108664022"><ele>707.0</ele><time>2026-04-11T14:50:42Z</time></trkpt><trkpt lat="43.28916737627546" lon="12.905864881047536"><ele>707.0</ele><time>2026-04-11T14:50:43Z</time></trkpt><trkpt lat="43.2892766832283" lon="12.905975237577543"><ele>707.0</ele><time>2026-04-11T14:50:44Z</time></trkpt><trkpt lat="43.28938869081291" lon="12.906097990634832"><ele>707.0</ele><time>2026-04-11T14:50:45Z</time></trkpt><trkpt lat="43.28951841010295" lon="12.90623893978934"><ele>707.0</ele><time>2026-04-11T14:50:46Z</time></trkpt><trkpt lat="43.2896396770899" lon="12.90635843800908"><ele>707.5</ele><time>2026-04-11T14:50:47Z</time></trkpt><trkpt lat="43.289763320698924" lon="12.906477105540652"><ele>708.0</ele><time>2026-04-11T14:50:48Z</time></trkpt><trkpt lat="43.2898700703146" lon="12.906598454351812"><ele>708.5</ele><time>2026-04-11T14:50:49Z</time></trkpt><trkpt lat="43.28996615632563" lon="12.906699848013364"><ele>709.0</ele><time>2026-04-11T14:50:50Z</time></trkpt><trkpt lat="43.29007990819049" lon="12.906789304012069"><ele>709.0</ele><time>2026-04-11T14:50:51Z</time></trkpt><trkpt lat="43.29020523796383" lon="12.906878140465102"><ele>709.0</ele><time>2026-04-11T14:50:52Z</time></trkpt><trkpt lat="43.29034303708945" lon="12.906952781624524"><ele>709.0</ele><time>2026-04-11T14:50:53Z</time></trkpt><trkpt lat="43.29046445713999" lon="12.907030574597268"><ele>709.0</ele><time>2026-04-11T14:50:54Z</time></trkpt><trkpt lat="43.29058109248954" lon="12.907111316187168"><ele>701.75</ele><time>2026-04-11T14:50:55Z</time></trkpt><trkpt lat="43.29068768659673" lon="12.907182327543323"><ele>694.5</ele><time>2026-04-11T14:50:56Z</time></trkpt><trkpt lat="43.29080117854523" lon="12.907255301533416"><ele>687.25</ele><time>2026-04-11T14:50:57Z</time></trkpt><trkpt lat="43.2909183377954" lon="12.90731087631459"><ele>680.0</ele><time>2026-04-11T14:50:58Z</time></trkpt><trkpt lat="43.29103669949326" lon="12.907366870547822"><ele>680.0</ele><time>2026-04-11T14:50:59Z</time></trkpt><trkpt lat="43.29116232333565" lon="12.907435337081855"><ele>680.0</ele><time>2026-04-11T14:51:00Z</time></trkpt><trkpt lat="43.29127407638648" lon="12.907495876737876"><ele>680.0</ele><time>2026-04-11T14:51:01Z</time></trkpt><trkpt lat="43.291389674881664" lon="12.907559669623007"><ele>680.0</ele><time>2026-04-11T14:51:02Z</time></trkpt><trkpt lat="43.29151036420495" lon="12.907615457314286"><ele>679.0</ele><time>2026-04-11T14:51:03Z</time></trkpt><trkpt lat="43.29163273687386" lon="12.90767953675935"><ele>678.0</ele><time>2026-04-11T14:51:04Z</time></trkpt><trkpt lat="43.29174285184318" lon="12.907746191338436"><ele>677.0</ele><time>2026-04-11T14:51:05Z</time></trkpt><trkpt lat="43.291845541141136" lon="12.907821873331631"><ele>676.0</ele><time>2026-04-11T14:51:06Z</time></trkpt><trkpt lat="43.291947931741106" lon="12.90790388572233"><ele>676.0</ele><time>2026-04-11T14:51:07Z</time></trkpt><trkpt lat="43.29204143250607" lon="12.907991638580405"><ele>676.0</ele><time>2026-04-11T14:51:08Z</time></trkpt><trkpt lat="43.29211581283315" lon="12.908081328742712"><ele>676.0</ele><time>2026-04-11T14:51:09Z</time></trkpt><trkpt lat="43.29218771348163" lon="12.908185218805086"><ele>676.0</ele><time>2026-04-11T14:51:10Z</time></trkpt><trkpt lat="43.292270198841635" lon="12.908295737476298"><ele>676.0</ele><time>2026-04-11T14:51:11Z</time></trkpt><trkpt lat="43.29236812158396" lon="12.908395393448556"><ele>674.5999999999999</ele><time>2026-04-11T14:51:12Z</time></trkpt><trkpt lat="43.29246867081838" lon="12.908490463895232"><ele>673.2</ele><time>2026-04-11T14:51:13Z</time></trkpt><trkpt lat="43.292564706973636" lon="12.908595592120008"><ele>671.8</ele><time>2026-04-11T14:51:14Z</time></trkpt><trkpt lat="43.292636890066866" lon="12.908673063292186"><ele>670.4000000000001</ele><time>2026-04-11T14:51:15Z</time></trkpt><trkpt lat="43.292698547634515" lon="12.908731050759327"><ele>669.0</ele><time>2026-04-11T14:51:16Z</time></trkpt><trkpt lat="43.292759562436316" lon="12.908781578092551"><ele>669.0</ele><time>2026-04-11T14:51:17Z</time></trkpt><trkpt lat="43.29281796290786" lon="12.908817041003967"><ele>669.0</ele><time>2026-04-11T14:51:18Z</time></trkpt><trkpt lat="43.292898528207736" lon="12.90886026343843"><ele>669.0</ele><time>2026-04-11T14:51:19Z</time></trkpt><trkpt lat="43.292987836365356" lon="12.908934592440248"><ele>669.0</ele><time>2026-04-11T14:51:20Z</time></trkpt><trkpt lat="43.29307070695051" lon="12.909009591786724"><ele>669.0</ele><time>2026-04-11T14:51:21Z</time></trkpt><trkpt lat="43.29315594413653" lon="12.909079854688889"><ele>667.25</ele><time>2026-04-11T14:51:22Z</time></trkpt><trkpt lat="43.29325399176852" lon="12.909151507007918"><ele>665.5</ele><time>2026-04-11T14:51:23Z</time></trkpt><trkpt lat="43.29336345714224" lon="12.909237825828926"><ele>663.75</ele><time>2026-04-11T14:51:24Z</time></trkpt><trkpt lat="43.29349245263546" lon="12.909325616850628"><ele>662.0</ele><time>2026-04-11T14:51:25Z</time></trkpt><trkpt lat="43.29361294999855" lon="12.909422918668092"><ele>662.0</ele><time>2026-04-11T14:51:26Z</time></trkpt><trkpt lat="43.293722497934816" lon="12.909506015927745"><ele>662.0</ele><time>2026-04-11T14:51:26.999Z</time></trkpt><trkpt lat="43.293814932780016" lon="12.909602898765451"><ele>662.0</ele><time>2026-04-11T14:51:27.999Z</time></trkpt><trkpt lat="43.29391572301385" lon="12.909697069487388"><ele>662.0</ele><time>2026-04-11T14:51:28.999Z</time></trkpt><trkpt lat="43.294025830334725" lon="12.909779250874635"><ele>658.2</ele><time>2026-04-11T14:51:29.999Z</time></trkpt><trkpt lat="43.29412365878542" lon="12.90984564787358"><ele>654.4000000000001</ele><time>2026-04-11T14:51:30.999Z</time></trkpt><trkpt lat="43.29420428740591" lon="12.90989859175421"><ele>650.5999999999999</ele><time>2026-04-11T14:51:31.999Z</time></trkpt><trkpt lat="43.294268152621875" lon="12.909954798390856"><ele>646.8</ele><time>2026-04-11T14:51:32.999Z</time></trkpt><trkpt lat="43.29435394709963" lon="12.910053081058516"><ele>643.0</ele><time>2026-04-11T14:51:33.999Z</time></trkpt><trkpt lat="43.294449793310115" lon="12.910154802422039"><ele>643.0</ele><time>2026-04-11T14:51:34.999Z</time></trkpt><trkpt lat="43.294531758544274" lon="12.910228482193919"><ele>643.0</ele><time>2026-04-11T14:51:35.999Z</time></trkpt><trkpt lat="43.29462260741653" lon="12.910333040457761"><ele>643.0</ele><time>2026-04-11T14:51:36.999Z</time></trkpt><trkpt lat="43.29471242966879" lon="12.91043497931501"><ele>643.0</ele><time>2026-04-11T14:51:37.999Z</time></trkpt><trkpt lat="43.294794806655744" lon="12.910542865908662"><ele>643.0</ele><time>2026-04-11T14:51:38.999Z</time></trkpt><trkpt lat="43.294865924962025" lon="12.910634698049943"><ele>640.0</ele><time>2026-04-11T14:51:39.999Z</time></trkpt><trkpt lat="43.294952356807286" lon="12.91073348795076"><ele>637.0</ele><time>2026-04-11T14:51:40.999Z</time></trkpt><trkpt lat="43.29503008286241" lon="12.91084534519004"><ele>634.0</ele><time>2026-04-11T14:51:41.999Z</time></trkpt><trkpt lat="43.29507557707705" lon="12.910931270914533"><ele>631.0</ele><time>2026-04-11T14:51:42.999Z</time></trkpt><trkpt lat="43.295133302911744" lon="12.911036331413744"><ele>628.0</ele><time>2026-04-11T14:51:43.999Z</time></trkpt><trkpt lat="43.29519327145772" lon="12.911110866204277"><ele>628.0</ele><time>2026-04-11T14:51:44.999Z</time></trkpt><trkpt lat="43.29525751838529" lon="12.911166608069651"><ele>628.0</ele><time>2026-04-11T14:51:45.999Z</time></trkpt><trkpt lat="43.295342273368455" lon="12.911242991658805"><ele>628.0</ele><time>2026-04-11T14:51:46.999Z</time></trkpt><trkpt lat="43.2954209059674" lon="12.911307308482412"><ele>628.0</ele><time>2026-04-11T14:51:47.999Z</time></trkpt><trkpt lat="43.29546885566135" lon="12.911387744778231"><ele>628.0</ele><time>2026-04-11T14:51:48.999Z</time></trkpt><trkpt lat="43.295505192759514" lon="12.911465789450038"><ele>628.0</ele><time>2026-04-11T14:51:49.999Z</time></trkpt><trkpt lat="43.29558079419552" lon="12.911623241738658"><ele>623.1999999999999</ele><time>2026-04-11T14:51:51.999Z</time></trkpt><trkpt lat="43.295639024685016" lon="12.91171088096346"><ele>618.4</ele><time>2026-04-11T14:51:52.999Z</time></trkpt><trkpt lat="43.29570030148085" lon="12.911816466027274"><ele>613.5999999999999</ele><time>2026-04-11T14:51:53.999Z</time></trkpt><trkpt lat="43.29573301719075" lon="12.911931596627205"><ele>608.8</ele><time>2026-04-11T14:51:54.999Z</time></trkpt><trkpt lat="43.295781453748916" lon="12.912061167388131"><ele>604.0</ele><time>2026-04-11T14:51:55.999Z</time></trkpt><trkpt lat="43.29583039782677" lon="12.912171917041096"><ele>604.0</ele><time>2026-04-11T14:51:56.999Z</time></trkpt><trkpt lat="43.29587703868324" lon="12.912284103449982"><ele>604.0</ele><time>2026-04-11T14:51:57.999Z</time></trkpt><trkpt lat="43.29590497584475" lon="12.912403007197028"><ele>604.0</ele><time>2026-04-11T14:51:58.999Z</time></trkpt><trkpt lat="43.2959167824242" lon="12.912530370892085"><ele>604.0</ele><time>2026-04-11T14:51:59.999Z</time></trkpt><trkpt lat="43.29592637233735" lon="12.91267097296736"><ele>604.0</ele><time>2026-04-11T14:52:00.999Z</time></trkpt><trkpt lat="43.29594746039669" lon="12.912801259241899"><ele>605.4</ele><time>2026-04-11T14:52:01.999Z</time></trkpt><trkpt lat="43.29597660865574" lon="12.912915241919688"><ele>606.8</ele><time>2026-04-11T14:52:02.999Z</time></trkpt><trkpt lat="43.29602580760278" lon="12.913039617098523"><ele>608.2</ele><time>2026-04-11T14:52:03.999Z</time></trkpt><trkpt lat="43.29607097858" lon="12.913161626613554"><ele>609.6</ele><time>2026-04-11T14:52:04.999Z</time></trkpt><trkpt lat="43.29610334255029" lon="12.913290221042992"><ele>611.0</ele><time>2026-04-11T14:52:05.999Z</time></trkpt><trkpt lat="43.29613561179962" lon="12.913423814337406"><ele>611.8333333333333</ele><time>2026-04-11T14:52:06.999Z</time></trkpt><trkpt lat="43.296164759108215" lon="12.913518674425207"><ele>612.6666666666666</ele><time>2026-04-11T14:52:07.999Z</time></trkpt><trkpt lat="43.2962057565338" lon="12.913627686857433"><ele>613.5</ele><time>2026-04-11T14:52:09.999Z</time></trkpt><trkpt lat="43.296218164753824" lon="12.913743542692332"><ele>614.3333333333334</ele><time>2026-04-11T14:52:11.999Z</time></trkpt><trkpt lat="43.29622297659064" lon="12.913852894874921"><ele>615.1666666666667</ele><time>2026-04-11T14:52:13.999Z</time></trkpt><trkpt lat="43.296245431103046" lon="12.913949642449847"><ele>616.0</ele><time>2026-04-11T14:52:14.999Z</time></trkpt><trkpt lat="43.29626953844408" lon="12.914061573499605"><ele>616.0</ele><time>2026-04-11T14:52:15.999Z</time></trkpt><trkpt lat="43.29629426338616" lon="12.91421969454931"><ele>616.0</ele><time>2026-04-11T14:52:16.999Z</time></trkpt><trkpt lat="43.29633059071728" lon="12.914400906768233"><ele>616.0</ele><time>2026-04-11T14:52:17.999Z</time></trkpt><trkpt lat="43.296353581839185" lon="12.914587824047224"><ele>616.0</ele><time>2026-04-11T14:52:18.999Z</time></trkpt><trkpt lat="43.296375620782825" lon="12.914768501617827"><ele>618.25</ele><time>2026-04-11T14:52:19.999Z</time></trkpt><trkpt lat="43.29640086310338" lon="12.914940046200503"><ele>620.5</ele><time>2026-04-11T14:52:20.999Z</time></trkpt><trkpt lat="43.296428985964425" lon="12.915101743513498"><ele>622.75</ele><time>2026-04-11T14:52:21.999Z</time></trkpt><trkpt lat="43.29643442045148" lon="12.915283709856624"><ele>625.0</ele><time>2026-04-11T14:52:22.999Z</time></trkpt><trkpt lat="43.29645569360822" lon="12.91543584336441"><ele>622.4</ele><time>2026-04-11T14:52:23.999Z</time></trkpt><trkpt lat="43.29647908436046" lon="12.915529723934993"><ele>619.8</ele><time>2026-04-11T14:52:24.999Z</time></trkpt><trkpt lat="43.29652812963849" lon="12.915635460374283"><ele>617.2</ele><time>2026-04-11T14:52:25.999Z</time></trkpt><trkpt lat="43.29658497281499" lon="12.915773931411627"><ele>614.6</ele><time>2026-04-11T14:52:27Z</time></trkpt><trkpt lat="43.29665046986444" lon="12.91591496008106"><ele>612.0</ele><time>2026-04-11T14:52:28Z</time></trkpt><trkpt lat="43.29672253122439" lon="12.916067344315426"><ele>612.0</ele><time>2026-04-11T14:52:29Z</time></trkpt><trkpt lat="43.29679112596818" lon="12.91622432202047"><ele>612.0</ele><time>2026-04-11T14:52:30Z</time></trkpt><trkpt lat="43.296860142776865" lon="12.916375390687033"><ele>612.0</ele><time>2026-04-11T14:52:31Z</time></trkpt><trkpt lat="43.29691915284159" lon="12.916510720387544"><ele>612.0</ele><time>2026-04-11T14:52:32Z</time></trkpt><trkpt lat="43.29697294079526" lon="12.916638234219745"><ele>613.6</ele><time>2026-04-11T14:52:33Z</time></trkpt><trkpt lat="43.29702138748695" lon="12.916748619651523"><ele>615.2</ele><time>2026-04-11T14:52:34Z</time></trkpt><trkpt lat="43.29707413170786" lon="12.916867420609902"><ele>616.8</ele><time>2026-04-11T14:52:35Z</time></trkpt><trkpt lat="43.29711752733705" lon="12.916990733703829"><ele>618.4</ele><time>2026-04-11T14:52:36Z</time></trkpt><trkpt lat="43.29715042375195" lon="12.91711367159545"><ele>620.0</ele><time>2026-04-11T14:52:37Z</time></trkpt><trkpt lat="43.297187763363304" lon="12.917226786403392"><ele>620.0</ele><time>2026-04-11T14:52:38Z</time></trkpt><trkpt lat="43.29721519656251" lon="12.917320570105577"><ele>620.0</ele><time>2026-04-11T14:52:39Z</time></trkpt><trkpt lat="43.29723426296583" lon="12.917439170746148"><ele>620.0</ele><time>2026-04-11T14:52:41Z</time></trkpt><trkpt lat="43.29715054273188" lon="12.917554924220267"><ele>620.0</ele><time>2026-04-11T14:52:44Z</time></trkpt><trkpt lat="43.2971089322873" lon="12.917640612320293"><ele>620.0</ele><time>2026-04-11T14:52:45Z</time></trkpt><trkpt lat="43.2970806759122" lon="12.917726277332228"><ele>620.0</ele><time>2026-04-11T14:52:46Z</time></trkpt><trkpt lat="43.29706417975894" lon="12.917818326858209"><ele>620.6666666666666</ele><time>2026-04-11T14:52:48Z</time></trkpt><trkpt lat="43.29707626357348" lon="12.917946207731466"><ele>621.3333333333333</ele><time>2026-04-11T14:52:52Z</time></trkpt><trkpt lat="43.2970847195556" lon="12.918040688976147"><ele>622.0</ele><time>2026-04-11T14:52:53Z</time></trkpt><trkpt lat="43.29707747922915" lon="12.918138969762209"><ele>622.6666666666666</ele><time>2026-04-11T14:52:54Z</time></trkpt><trkpt lat="43.29706824852902" lon="12.91824995756837"><ele>623.3333333333334</ele><time>2026-04-11T14:52:55Z</time></trkpt><trkpt lat="43.297066263056884" lon="12.918367245871517"><ele>624.0</ele><time>2026-04-11T14:52:56Z</time></trkpt><trkpt lat="43.297065747454724" lon="12.918497600734906"><ele>624.1666666666666</ele><time>2026-04-11T14:52:57Z</time></trkpt><trkpt lat="43.297064148593655" lon="12.918636420560158"><ele>624.3333333333334</ele><time>2026-04-11T14:52:58Z</time></trkpt><trkpt lat="43.29705112644297" lon="12.91876478232964"><ele>624.5</ele><time>2026-04-11T14:52:59Z</time></trkpt><trkpt lat="43.29702712300395" lon="12.918866010475636"><ele>624.6666666666667</ele><time>2026-04-11T14:53:00Z</time></trkpt><trkpt lat="43.29702006812656" lon="12.918954306621764"><ele>624.8333333333334</ele><time>2026-04-11T14:53:01Z</time></trkpt><trkpt lat="43.29704472638879" lon="12.919051352169989"><ele>625.0</ele><time>2026-04-11T14:53:02Z</time></trkpt><trkpt lat="43.29704444382679" lon="12.919177068136673"><ele>625.4</ele><time>2026-04-11T14:53:03Z</time></trkpt><trkpt lat="43.297034410698956" lon="12.919289593476922"><ele>625.8</ele><time>2026-04-11T14:53:04Z</time></trkpt><trkpt lat="43.29701583003667" lon="12.919400361008115"><ele>626.2</ele><time>2026-04-11T14:53:05Z</time></trkpt><trkpt lat="43.29698754635413" lon="12.919550643016892"><ele>626.6</ele><time>2026-04-11T14:53:06Z</time></trkpt><trkpt lat="43.296957091277086" lon="12.919709897305799"><ele>627.0</ele><time>2026-04-11T14:53:07Z</time></trkpt><trkpt lat="43.2969458309787" lon="12.919845052967315"><ele>627.0</ele><time>2026-04-11T14:53:08Z</time></trkpt><trkpt lat="43.29693028492617" lon="12.919979458534236"><ele>627.0</ele><time>2026-04-11T14:53:09Z</time></trkpt><trkpt lat="43.29694999061824" lon="12.920107632505257"><ele>627.0</ele><time>2026-04-11T14:53:10Z</time></trkpt><trkpt lat="43.296960817965356" lon="12.920243136014127"><ele>627.0</ele><time>2026-04-11T14:53:11Z</time></trkpt><trkpt lat="43.29699153667966" lon="12.920374446128479"><ele>627.0</ele><time>2026-04-11T14:53:12Z</time></trkpt><trkpt lat="43.29702641414292" lon="12.920517485012736"><ele>627.1666666666666</ele><time>2026-04-11T14:53:13Z</time></trkpt><trkpt lat="43.297051449082424" lon="12.920652068190384"><ele>627.3333333333334</ele><time>2026-04-11T14:53:14Z</time></trkpt><trkpt lat="43.29707312868729" lon="12.92077499085423"><ele>627.5</ele><time>2026-04-11T14:53:15Z</time></trkpt><trkpt lat="43.29708571259688" lon="12.920892706817632"><ele>627.6666666666667</ele><time>2026-04-11T14:53:16Z</time></trkpt><trkpt lat="43.29709331292303" lon="12.920991485452511"><ele>627.8333333333334</ele><time>2026-04-11T14:53:17Z</time></trkpt><trkpt lat="43.2971146339304" lon="12.92107884433777"><ele>628.0</ele><time>2026-04-11T14:53:18Z</time></trkpt><trkpt lat="43.29714725063013" lon="12.921179051855736"><ele>625.8333333333334</ele><time>2026-04-11T14:53:19Z</time></trkpt><trkpt lat="43.29716633800373" lon="12.92126741541386"><ele>623.6666666666667</ele><time>2026-04-11T14:53:20Z</time></trkpt><trkpt lat="43.297133947745436" lon="12.921373340837144"><ele>621.5</ele><time>2026-04-11T14:53:22Z</time></trkpt><trkpt lat="43.29716472549764" lon="12.921506153599028"><ele>619.3333333333334</ele><time>2026-04-11T14:53:24Z</time></trkpt><trkpt lat="43.29713619465777" lon="12.921628249257573"><ele>617.1666666666666</ele><time>2026-04-11T14:53:26Z</time></trkpt><trkpt lat="43.29706600172542" lon="12.921599717339447"><ele>615.0</ele><time>2026-04-11T14:53:28Z</time></trkpt><trkpt lat="43.29703129780614" lon="12.921698799350896"><ele>609.4</ele><time>2026-04-11T14:53:56.999Z</time></trkpt><trkpt lat="43.29695023046421" lon="12.921765840737988"><ele>603.8</ele><time>2026-04-11T14:53:58.999Z</time></trkpt><trkpt lat="43.296844287978764" lon="12.921791267489604"><ele>598.2</ele><time>2026-04-11T14:54:00.999Z</time></trkpt><trkpt lat="43.29676059125775" lon="12.921804567268833"><ele>592.6</ele><time>2026-04-11T14:54:01.999Z</time></trkpt><trkpt lat="43.2966618619897" lon="12.92182569236452"><ele>587.0</ele><time>2026-04-11T14:54:02.999Z</time></trkpt><trkpt lat="43.29656399928837" lon="12.921847065668796"><ele>587.0</ele><time>2026-04-11T14:54:03.999Z</time></trkpt><trkpt lat="43.296453064788544" lon="12.9218501145565"><ele>587.0</ele><time>2026-04-11T14:54:04.999Z</time></trkpt><trkpt lat="43.29635723777671" lon="12.921837296277616"><ele>587.0</ele><time>2026-04-11T14:54:05.999Z</time></trkpt><trkpt lat="43.29625171805544" lon="12.921826957734092"><ele>587.0</ele><time>2026-04-11T14:54:06.999Z</time></trkpt><trkpt lat="43.29615376842291" lon="12.921813765558749"><ele>587.0</ele><time>2026-04-11T14:54:07.999Z</time></trkpt><trkpt lat="43.296057193287176" lon="12.921803210740057"><ele>587.0</ele><time>2026-04-11T14:54:08.999Z</time></trkpt><trkpt lat="43.29596290199062" lon="12.921784662929584"><ele>587.0</ele><time>2026-04-11T14:54:09.999Z</time></trkpt><trkpt lat="43.295870002538564" lon="12.921761045139469"><ele>587.0</ele><time>2026-04-11T14:54:10.999Z</time></trkpt><trkpt lat="43.295786927487796" lon="12.921721857728164"><ele>587.0</ele><time>2026-04-11T14:54:12.999Z</time></trkpt><trkpt lat="43.295690182792164" lon="12.921679648224263"><ele>587.0</ele><time>2026-04-11T14:54:15.999Z</time></trkpt><trkpt lat="43.29562722942115" lon="12.921655949959016"><ele>587.0</ele><time>2026-04-11T14:54:16.999Z</time></trkpt><trkpt lat="43.295552790105226" lon="12.921628823619221"><ele>587.0</ele><time>2026-04-11T14:54:17.999Z</time></trkpt><trkpt lat="43.29545727875451" lon="12.921589649805497"><ele>587.0</ele><time>2026-04-11T14:54:18.999Z</time></trkpt><trkpt lat="43.29535565944321" lon="12.921561489624764"><ele>587.0</ele><time>2026-04-11T14:54:19.999Z</time></trkpt><trkpt lat="43.29523681957857" lon="12.921542245226973"><ele>587.0</ele><time>2026-04-11T14:54:20.999Z</time></trkpt><trkpt lat="43.295104844765646" lon="12.921517026845631"><ele>587.0</ele><time>2026-04-11T14:54:21.999Z</time></trkpt><trkpt lat="43.29496859568738" lon="12.921498643463973"><ele>587.0</ele><time>2026-04-11T14:54:22.999Z</time></trkpt><trkpt lat="43.29482577714825" lon="12.921481277169647"><ele>587.0</ele><time>2026-04-11T14:54:23.999Z</time></trkpt><trkpt lat="43.29467804969433" lon="12.921467638629384"><ele>587.0</ele><time>2026-04-11T14:54:24.999Z</time></trkpt><trkpt lat="43.294533840665125" lon="12.92146901637611"><ele>584.5</ele><time>2026-04-11T14:54:25.999Z</time></trkpt><trkpt lat="43.29440314231944" lon="12.921471704220812"><ele>582.0</ele><time>2026-04-11T14:54:26.999Z</time></trkpt><trkpt lat="43.294284701812714" lon="12.921467803932874"><ele>579.5</ele><time>2026-04-11T14:54:27.999Z</time></trkpt><trkpt lat="43.29417158904395" lon="12.92145934433489"><ele>577.0</ele><time>2026-04-11T14:54:28.999Z</time></trkpt><trkpt lat="43.294067976717166" lon="12.921459757905929"><ele>577.0</ele><time>2026-04-11T14:54:29.999Z</time></trkpt><trkpt lat="43.29398217532901" lon="12.921471739091116"><ele>577.0</ele><time>2026-04-11T14:54:30.999Z</time></trkpt><trkpt lat="43.29391692675792" lon="12.921480466168484"><ele>577.0</ele><time>2026-04-11T14:54:31.999Z</time></trkpt><trkpt lat="43.29384912581116" lon="12.921478393829373"><ele>577.0</ele><time>2026-04-11T14:54:33Z</time></trkpt><trkpt lat="43.29374299750807" lon="12.921474325964162"><ele>577.0</ele><time>2026-04-11T14:54:35Z</time></trkpt><trkpt lat="43.29375835721814" lon="12.921575769907959"><ele>577.0</ele><time>2026-04-11T14:54:38Z</time></trkpt><trkpt lat="43.29381323213756" lon="12.921655111810367"><ele>575.8333333333334</ele><time>2026-04-11T14:54:40Z</time></trkpt><trkpt lat="43.2939091145159" lon="12.921728737306703"><ele>574.6666666666667</ele><time>2026-04-11T14:54:42Z</time></trkpt><trkpt lat="43.293973830228545" lon="12.921765790963846"><ele>573.5</ele><time>2026-04-11T14:54:43Z</time></trkpt><trkpt lat="43.29405435499673" lon="12.921824077749138"><ele>572.3333333333334</ele><time>2026-04-11T14:54:44Z</time></trkpt><trkpt lat="43.294133792319855" lon="12.92188720567162"><ele>571.1666666666666</ele><time>2026-04-11T14:54:45Z</time></trkpt><trkpt lat="43.29418065202309" lon="12.921953152335329"><ele>570.0</ele><time>2026-04-11T14:54:47Z</time></trkpt><trkpt lat="43.29416898099412" lon="12.92203839195873"><ele>567.3333333333334</ele><time>2026-04-11T14:54:50Z</time></trkpt><trkpt lat="43.294128788881146" lon="12.922115256620009"><ele>564.6666666666666</ele><time>2026-04-11T14:54:54Z</time></trkpt><trkpt lat="43.29413161786967" lon="12.9222245180397"><ele>562.0</ele><time>2026-04-11T14:54:58Z</time></trkpt><trkpt lat="43.294137937581674" lon="12.922322261404044"><ele>559.3333333333333</ele><time>2026-04-11T14:55:01Z</time></trkpt><trkpt lat="43.29413529232414" lon="12.922466689789097"><ele>556.6666666666666</ele><time>2026-04-11T14:55:04Z</time></trkpt><trkpt lat="43.29412703456744" lon="12.922562255620722"><ele>554.0</ele><time>2026-04-11T14:55:06Z</time></trkpt><trkpt lat="43.294142842849716" lon="12.922701670949857"><ele>550.3333333333333</ele><time>2026-04-11T14:55:08Z</time></trkpt><trkpt lat="43.294165410866015" lon="12.92279790817534"><ele>546.6666666666666</ele><time>2026-04-11T14:55:10Z</time></trkpt><trkpt lat="43.29416823435215" lon="12.92291742662556"><ele>543.0</ele><time>2026-04-11T14:55:12Z</time></trkpt><trkpt lat="43.29417782929722" lon="12.923049792039583"><ele>539.3333333333334</ele><time>2026-04-11T14:55:14Z</time></trkpt><trkpt lat="43.29420087588505" lon="12.923197170966437"><ele>535.6666666666667</ele><time>2026-04-11T14:55:16Z</time></trkpt><trkpt lat="43.29423601606158" lon="12.923282484078703"><ele>532.0</ele><time>2026-04-11T14:55:18Z</time></trkpt><trkpt lat="43.29425896373084" lon="12.923365678658003"><ele>528.6</ele><time>2026-04-11T14:55:20Z</time></trkpt><trkpt lat="43.29428335205906" lon="12.92348070821651"><ele>525.2</ele><time>2026-04-11T14:55:22Z</time></trkpt><trkpt lat="43.2942874767007" lon="12.923609505575092"><ele>521.8</ele><time>2026-04-11T14:55:24Z</time></trkpt><trkpt lat="43.294269016431535" lon="12.923804587461614"><ele>518.4</ele><time>2026-04-11T14:55:26Z</time></trkpt><trkpt lat="43.294265743600846" lon="12.923902404575637"><ele>515.0</ele><time>2026-04-11T14:55:27Z</time></trkpt><trkpt lat="43.29426364246621" lon="12.924011320635199"><ele>515.0</ele><time>2026-04-11T14:55:28Z</time></trkpt><trkpt lat="43.294264080298724" lon="12.924116663189292"><ele>515.0</ele><time>2026-04-11T14:55:29Z</time></trkpt><trkpt lat="43.29424654333771" lon="12.924216258813155"><ele>515.0</ele><time>2026-04-11T14:55:30Z</time></trkpt><trkpt lat="43.29424107560624" lon="12.924343846234182"><ele>515.0</ele><time>2026-04-11T14:55:31Z</time></trkpt><trkpt lat="43.29425545874412" lon="12.924508054155629"><ele>515.0</ele><time>2026-04-11T14:55:32Z</time></trkpt><trkpt lat="43.294269430666915" lon="12.924643882092576"><ele>512.2</ele><time>2026-04-11T14:55:33Z</time></trkpt><trkpt lat="43.29426636553517" lon="12.924778124925538"><ele>509.4</ele><time>2026-04-11T14:55:34Z</time></trkpt><trkpt lat="43.294232703109124" lon="12.924904549970494"><ele>506.6</ele><time>2026-04-11T14:55:35Z</time></trkpt><trkpt lat="43.29419283620037" lon="12.925029572313383"><ele>503.8</ele><time>2026-04-11T14:55:36Z</time></trkpt><trkpt lat="43.29418514302259" lon="12.925167204089371"><ele>501.0</ele><time>2026-04-11T14:55:37Z</time></trkpt><trkpt lat="43.29416085017988" lon="12.925306401422613"><ele>497.4</ele><time>2026-04-11T14:55:38Z</time></trkpt><trkpt lat="43.29413873681177" lon="12.925453851340047"><ele>493.8</ele><time>2026-04-11T14:55:39Z</time></trkpt><trkpt lat="43.29412242400869" lon="12.925590143289034"><ele>490.19999999999993</ele><time>2026-04-11T14:55:40Z</time></trkpt><trkpt lat="43.294101493213155" lon="12.92572099676637"><ele>486.59999999999997</ele><time>2026-04-11T14:55:41Z</time></trkpt><trkpt lat="43.294069608171746" lon="12.925820344282565"><ele>483.0</ele><time>2026-04-11T14:55:42Z</time></trkpt><trkpt lat="43.294022556934564" lon="12.925886842207946"><ele>479.8333333333333</ele><time>2026-04-11T14:55:43Z</time></trkpt><trkpt lat="43.29395807853333" lon="12.925950499812327"><ele>476.66666666666663</ele><time>2026-04-11T14:55:44Z</time></trkpt><trkpt lat="43.29389339651345" lon="12.925993080874138"><ele>473.5</ele><time>2026-04-11T14:55:45Z</time></trkpt><trkpt lat="43.29382288998066" lon="12.926029923955083"><ele>470.3333333333333</ele><time>2026-04-11T14:55:46Z</time></trkpt><trkpt lat="43.293760202162936" lon="12.926054828024851"><ele>467.16666666666663</ele><time>2026-04-11T14:55:47Z</time></trkpt><trkpt lat="43.29365802461308" lon="12.926088196154035"><ele>464.0</ele><time>2026-04-11T14:55:49Z</time></trkpt><trkpt lat="43.293543354447856" lon="12.926059662640327"><ele>463.49999999999994</ele><time>2026-04-11T14:55:51Z</time></trkpt><trkpt lat="43.2934625350656" lon="12.926036323549251"><ele>463.0</ele><time>2026-04-11T14:55:53Z</time></trkpt><trkpt lat="43.293389944292244" lon="12.926011310825452"><ele>462.5</ele><time>2026-04-11T14:55:54.999Z</time></trkpt><trkpt lat="43.29330411048045" lon="12.925970442667966"><ele>462.0</ele><time>2026-04-11T14:56:07.999Z</time></trkpt><trkpt lat="43.29319453703402" lon="12.92590090192969"><ele>461.49999999999994</ele><time>2026-04-11T14:56:09.999Z</time></trkpt><trkpt lat="43.29313896028575" lon="12.925860151588981"><ele>461.0</ele><time>2026-04-11T14:56:10.999Z</time></trkpt><trkpt lat="43.293061939959784" lon="12.925826271374907"><ele>460.99999999999994</ele><time>2026-04-11T14:56:11.999Z</time></trkpt><trkpt lat="43.29298865469918" lon="12.925773186256736"><ele>461.0</ele><time>2026-04-11T14:56:12.999Z</time></trkpt><trkpt lat="43.29293324936226" lon="12.925674207131834"><ele>461.0</ele><time>2026-04-11T14:56:13.999Z</time></trkpt><trkpt lat="43.29286351607866" lon="12.925591986612218"><ele>461.0</ele><time>2026-04-11T14:56:14.999Z</time></trkpt><trkpt lat="43.2928157467912" lon="12.925517699212461"><ele>460.99999999999994</ele><time>2026-04-11T14:56:15.999Z</time></trkpt><trkpt lat="43.29275996708221" lon="12.925429946136749"><ele>461.0</ele><time>2026-04-11T14:56:16.999Z</time></trkpt><trkpt lat="43.2926814245021" lon="12.925317896034112"><ele>461.0</ele><time>2026-04-11T14:56:17.999Z</time></trkpt><trkpt lat="43.29261027617269" lon="12.925197974129102"><ele>461.0</ele><time>2026-04-11T14:56:18.999Z</time></trkpt><trkpt lat="43.29254362226068" lon="12.925064078406042"><ele>461.0</ele><time>2026-04-11T14:56:19.999Z</time></trkpt><trkpt lat="43.29248625349342" lon="12.924948093663934"><ele>461.0</ele><time>2026-04-11T14:56:20.999Z</time></trkpt><trkpt lat="43.29243883898182" lon="12.924843688391244"><ele>461.0</ele><time>2026-04-11T14:56:21.999Z</time></trkpt><trkpt lat="43.29238820079331" lon="12.924731951133506"><ele>460.99999999999994</ele><time>2026-04-11T14:56:22.999Z</time></trkpt><trkpt lat="43.29233528242798" lon="12.9245865956313"><ele>461.0</ele><time>2026-04-11T14:56:23.999Z</time></trkpt><trkpt lat="43.29229996764895" lon="12.924499542620469"><ele>461.0</ele><time>2026-04-11T14:56:24.999Z</time></trkpt><trkpt lat="43.29225585386329" lon="12.924424591527046"><ele>461.0</ele><time>2026-04-11T14:56:25.999Z</time></trkpt><trkpt lat="43.29223792728676" lon="12.924340639347124"><ele>460.99999999999994</ele><time>2026-04-11T14:56:26.999Z</time></trkpt><trkpt lat="43.29221321935325" lon="12.924220240639974"><ele>461.0</ele><time>2026-04-11T14:56:27.999Z</time></trkpt><trkpt lat="43.29218165448094" lon="12.924123690864285"><ele>461.0</ele><time>2026-04-11T14:56:28.999Z</time></trkpt><trkpt lat="43.29216519882737" lon="12.924018575628194"><ele>461.0</ele><time>2026-04-11T14:56:29.999Z</time></trkpt><trkpt lat="43.29213126984903" lon="12.923823943516163"><ele>461.0</ele><time>2026-04-11T14:56:31.999Z</time></trkpt><trkpt lat="43.29210928933594" lon="12.923728242852079"><ele>461.0</ele><time>2026-04-11T14:56:32.999Z</time></trkpt><trkpt lat="43.292082583411634" lon="12.92361700081555"><ele>461.0</ele><time>2026-04-11T14:56:33.999Z</time></trkpt><trkpt lat="43.29205637914901" lon="12.923524466737799"><ele>461.0</ele><time>2026-04-11T14:56:34.999Z</time></trkpt><trkpt lat="43.292049931180514" lon="12.923424739701533"><ele>461.00000000000006</ele><time>2026-04-11T14:56:35.999Z</time></trkpt><trkpt lat="43.292029595422854" lon="12.923342581147818"><ele>461.0</ele><time>2026-04-11T14:56:36.999Z</time></trkpt><trkpt lat="43.29201283661531" lon="12.923238374282576"><ele>461.0</ele><time>2026-04-11T14:56:37.999Z</time></trkpt><trkpt lat="43.292000864152385" lon="12.923144547669398"><ele>461.00000000000006</ele><time>2026-04-11T14:56:39Z</time></trkpt><trkpt lat="43.29197005330718" lon="12.9230490243197"><ele>461.0</ele><time>2026-04-11T14:56:40Z</time></trkpt><trkpt lat="43.291941506205056" lon="12.922943751931966"><ele>461.0</ele><time>2026-04-11T14:56:41Z</time></trkpt><trkpt lat="43.29193562695569" lon="12.92284437325724"><ele>463.4</ele><time>2026-04-11T14:56:42Z</time></trkpt><trkpt lat="43.291916457322905" lon="12.922742081268579"><ele>465.8</ele><time>2026-04-11T14:56:43Z</time></trkpt><trkpt lat="43.29189623869134" lon="12.9226448545839"><ele>468.19999999999993</ele><time>2026-04-11T14:56:44Z</time></trkpt><trkpt lat="43.29188594983126" lon="12.922555759777165"><ele>470.59999999999997</ele><time>2026-04-11T14:56:45Z</time></trkpt><trkpt lat="43.291834041806666" lon="12.922387486102583"><ele>473.0</ele><time>2026-04-11T14:56:47Z</time></trkpt><trkpt lat="43.291791792906544" lon="12.922222161405525"><ele>477.0</ele><time>2026-04-11T14:56:49Z</time></trkpt><trkpt lat="43.29175414146464" lon="12.922066976678702"><ele>480.99999999999994</ele><time>2026-04-11T14:56:51Z</time></trkpt><trkpt lat="43.29172584696827" lon="12.92197042736638"><ele>484.99999999999994</ele><time>2026-04-11T14:56:52Z</time></trkpt><trkpt lat="43.29167493695247" lon="12.921822557250799"><ele>489.0</ele><time>2026-04-11T14:56:54Z</time></trkpt><trkpt lat="43.29163888973278" lon="12.921692116221115"><ele>493.0</ele><time>2026-04-11T14:56:56Z</time></trkpt><trkpt lat="43.29159070167638" lon="12.921553720553067"><ele>490.79999999999995</ele><time>2026-04-11T14:56:58Z</time></trkpt><trkpt lat="43.29154100903947" lon="12.92139892477923"><ele>488.59999999999997</ele><time>2026-04-11T14:57:00Z</time></trkpt><trkpt lat="43.29150545625328" lon="12.921313088003627"><ele>486.40000000000003</ele><time>2026-04-11T14:57:01Z</time></trkpt><trkpt lat="43.29145551708672" lon="12.921229644755579"><ele>484.20000000000005</ele><time>2026-04-11T14:57:02Z</time></trkpt><trkpt lat="43.29142965426903" lon="12.921141350983596"><ele>482.0</ele><time>2026-04-11T14:57:03Z</time></trkpt><trkpt lat="43.2913492765674" lon="12.92098308956278"><ele>484.99999999999994</ele><time>2026-04-11T14:57:05Z</time></trkpt><trkpt lat="43.29132150763264" lon="12.920876165091421"><ele>488.0</ele><time>2026-04-11T14:57:06Z</time></trkpt><trkpt lat="43.291283191739815" lon="12.920784418915506"><ele>491.0</ele><time>2026-04-11T14:57:07Z</time></trkpt><trkpt lat="43.29124890883992" lon="12.92070120171807"><ele>494.0</ele><time>2026-04-11T14:57:08Z</time></trkpt><trkpt lat="43.29121315518109" lon="12.920585145057036"><ele>496.99999999999994</ele><time>2026-04-11T14:57:09Z</time></trkpt><trkpt lat="43.2911744586602" lon="12.920489449556543"><ele>500.0</ele><time>2026-04-11T14:57:10Z</time></trkpt><trkpt lat="43.29114290694235" lon="12.920413038056052"><ele>499.99999999999994</ele><time>2026-04-11T14:57:11Z</time></trkpt><trkpt lat="43.29111399937641" lon="12.920320770728226"><ele>500.0</ele><time>2026-04-11T14:57:12Z</time></trkpt><trkpt lat="43.29104993101607" lon="12.920159566842981"><ele>500.0</ele><time>2026-04-11T14:57:14Z</time></trkpt><trkpt lat="43.29101561683177" lon="12.92006413775024"><ele>500.0</ele><time>2026-04-11T14:57:15Z</time></trkpt><trkpt lat="43.2909835103067" lon="12.91998632335789"><ele>499.99999999999994</ele><time>2026-04-11T14:57:16Z</time></trkpt><trkpt lat="43.29095285843972" lon="12.919904677099497"><ele>500.0</ele><time>2026-04-11T14:57:17Z</time></trkpt><trkpt lat="43.29091248305403" lon="12.919806302500831"><ele>502.8333333333333</ele><time>2026-04-11T14:57:18Z</time></trkpt><trkpt lat="43.290905562616764" lon="12.919711245187592"><ele>505.66666666666663</ele><time>2026-04-11T14:57:19Z</time></trkpt><trkpt lat="43.290863680262476" lon="12.919579339124857"><ele>508.5</ele><time>2026-04-11T14:57:21Z</time></trkpt><trkpt lat="43.29079462892717" lon="12.919487650448076"><ele>511.33333333333337</ele><time>2026-04-11T14:57:22Z</time></trkpt><trkpt lat="43.29073537773397" lon="12.919403286544378"><ele>514.1666666666667</ele><time>2026-04-11T14:57:23Z</time></trkpt><trkpt lat="43.29068665620281" lon="12.919305201769198"><ele>517.0</ele><time>2026-04-11T14:57:24Z</time></trkpt><trkpt lat="43.290637437330545" lon="12.919188848701447"><ele>516.0</ele><time>2026-04-11T14:57:25Z</time></trkpt><trkpt lat="43.29058801499552" lon="12.919077012090456"><ele>515.0</ele><time>2026-04-11T14:57:26Z</time></trkpt><trkpt lat="43.29054759671517" lon="12.918982564644969"><ele>514.0</ele><time>2026-04-11T14:57:27Z</time></trkpt><trkpt lat="43.290502041276206" lon="12.918891291157756"><ele>513.0</ele><time>2026-04-11T14:57:28Z</time></trkpt><trkpt lat="43.29044853749172" lon="12.918759376986392"><ele>512.0</ele><time>2026-04-11T14:57:29Z</time></trkpt><trkpt lat="43.29039626628669" lon="12.918690809403127"><ele>511.0</ele><time>2026-04-11T14:57:30Z</time></trkpt><trkpt lat="43.29034343216984" lon="12.91863170353418"><ele>511.00000000000006</ele><time>2026-04-11T14:57:31Z</time></trkpt><trkpt lat="43.290333552580584" lon="12.918505892171222"><ele>511.0</ele><time>2026-04-11T14:57:33Z</time></trkpt><trkpt lat="43.29025166206629" lon="12.918489139683409"><ele>511.0</ele><time>2026-04-11T14:57:35Z</time></trkpt><trkpt lat="43.29018411499634" lon="12.918459140846505"><ele>511.0</ele><time>2026-04-11T14:57:36Z</time></trkpt><trkpt lat="43.290114911698446" lon="12.918438613748771"><ele>511.00000000000006</ele><time>2026-04-11T14:57:37Z</time></trkpt><trkpt lat="43.29005250168917" lon="12.918465863320604"><ele>511.0</ele><time>2026-04-11T14:57:38Z</time></trkpt><trkpt lat="43.28999667586835" lon="12.918534337189705"><ele>511.00000000000006</ele><time>2026-04-11T14:57:39Z</time></trkpt><trkpt lat="43.289933769233485" lon="12.918583284981896"><ele>511.0</ele><time>2026-04-11T14:57:40Z</time></trkpt><trkpt lat="43.28985949354568" lon="12.91859460112102"><ele>511.0</ele><time>2026-04-11T14:57:41Z</time></trkpt><trkpt lat="43.28978167984613" lon="12.91857881141426"><ele>511.0</ele><time>2026-04-11T14:57:42Z</time></trkpt><trkpt lat="43.28971675483982" lon="12.918565532534295"><ele>511.00000000000006</ele><time>2026-04-11T14:57:43Z</time></trkpt><trkpt lat="43.289653985468796" lon="12.918585647074783"><ele>511.0</ele><time>2026-04-11T14:57:44Z</time></trkpt><trkpt lat="43.289565688615724" lon="12.918698968369382"><ele>511.0</ele><time>2026-04-11T14:57:46Z</time></trkpt><trkpt lat="43.28952111372217" lon="12.918852522160982"><ele>511.0</ele><time>2026-04-11T14:57:48Z</time></trkpt><trkpt lat="43.289485991638145" lon="12.918946551946041"><ele>511.0</ele><time>2026-04-11T14:57:49Z</time></trkpt><trkpt lat="43.289373409584506" lon="12.919025145252354"><ele>511.0</ele><time>2026-04-11T14:57:51Z</time></trkpt><trkpt lat="43.28930175942815" lon="12.91904723505706"><ele>511.0</ele><time>2026-04-11T14:57:52Z</time></trkpt><trkpt lat="43.28919223514509" lon="12.919114288317004"><ele>511.0</ele><time>2026-04-11T14:57:54Z</time></trkpt><trkpt lat="43.28907396714157" lon="12.919168295812494"><ele>511.0</ele><time>2026-04-11T14:57:56Z</time></trkpt><trkpt lat="43.2890167579223" lon="12.919208677890639"><ele>511.0</ele><time>2026-04-11T14:57:57Z</time></trkpt><trkpt lat="43.28891831541982" lon="12.919160114494673"><ele>511.0</ele><time>2026-04-11T15:02:02Z</time></trkpt><trkpt lat="43.28883991722895" lon="12.91902883042627"><ele>511.0</ele><time>2026-04-11T15:02:04Z</time></trkpt><trkpt lat="43.28874551052489" lon="12.918993088522694"><ele>507.0</ele><time>2026-04-11T15:02:06Z</time></trkpt><trkpt lat="43.28861657105746" lon="12.919082014219237"><ele>503.0</ele><time>2026-04-11T15:02:08Z</time></trkpt><trkpt lat="43.28853650244187" lon="12.919148997957434"><ele>499.0</ele><time>2026-04-11T15:02:09Z</time></trkpt><trkpt lat="43.2884845952307" lon="12.919245475385273"><ele>495.0</ele><time>2026-04-11T15:02:10Z</time></trkpt><trkpt lat="43.28844238389135" lon="12.919337191749172"><ele>491.0</ele><time>2026-04-11T15:02:11Z</time></trkpt><trkpt lat="43.28841837931559" lon="12.919436497256385"><ele>491.0</ele><time>2026-04-11T15:02:12Z</time></trkpt><trkpt lat="43.288423932664045" lon="12.919532521003486"><ele>491.0</ele><time>2026-04-11T15:02:13Z</time></trkpt><trkpt lat="43.28844461931571" lon="12.919644584587555"><ele>491.0</ele><time>2026-04-11T15:02:14Z</time></trkpt><trkpt lat="43.28846150926987" lon="12.919768223761709"><ele>491.0</ele><time>2026-04-11T15:02:15Z</time></trkpt><trkpt lat="43.28847965099329" lon="12.919904735438529"><ele>491.0</ele><time>2026-04-11T15:02:16Z</time></trkpt><trkpt lat="43.28849139317297" lon="12.92005906176411"><ele>490.20000000000005</ele><time>2026-04-11T15:02:17Z</time></trkpt><trkpt lat="43.288502614283175" lon="12.920210525180797"><ele>489.40000000000003</ele><time>2026-04-11T15:02:18Z</time></trkpt><trkpt lat="43.28851420168041" lon="12.920356619556355"><ele>488.6</ele><time>2026-04-11T15:02:19Z</time></trkpt><trkpt lat="43.28852871714872" lon="12.920484480410387"><ele>487.8</ele><time>2026-04-11T15:02:20Z</time></trkpt><trkpt lat="43.28853622488426" lon="12.920626298340919"><ele>487.0</ele><time>2026-04-11T15:02:21Z</time></trkpt><trkpt lat="43.28853998687736" lon="12.920780377259423"><ele>485.20000000000005</ele><time>2026-04-11T15:02:22Z</time></trkpt><trkpt lat="43.28854375107785" lon="12.920959216315385"><ele>483.40000000000003</ele><time>2026-04-11T15:02:23Z</time></trkpt><trkpt lat="43.288568486225884" lon="12.921114977339574"><ele>481.59999999999997</ele><time>2026-04-11T15:02:24Z</time></trkpt><trkpt lat="43.28859479934036" lon="12.921259066374942"><ele>479.79999999999995</ele><time>2026-04-11T15:02:25Z</time></trkpt><trkpt lat="43.28861754761224" lon="12.921373003942593"><ele>478.0</ele><time>2026-04-11T15:02:26Z</time></trkpt><trkpt lat="43.28864650193418" lon="12.9214635632115"><ele>478.0</ele><time>2026-04-11T15:02:27Z</time></trkpt><trkpt lat="43.28865806166966" lon="12.921553083345131"><ele>477.99999999999994</ele><time>2026-04-11T15:02:28Z</time></trkpt><trkpt lat="43.28863374374557" lon="12.921688620618413"><ele>477.99999999999994</ele><time>2026-04-11T15:02:29Z</time></trkpt><trkpt lat="43.288620298013505" lon="12.921837885733341"><ele>478.0</ele><time>2026-04-11T15:02:30Z</time></trkpt><trkpt lat="43.288618770324945" lon="12.921992786981141"><ele>478.0</ele><time>2026-04-11T15:02:31Z</time></trkpt><trkpt lat="43.28863148040989" lon="12.922142878982665"><ele>475.59999999999997</ele><time>2026-04-11T15:02:32Z</time></trkpt><trkpt lat="43.28861769369518" lon="12.922284862706746"><ele>473.19999999999993</ele><time>2026-04-11T15:02:33Z</time></trkpt><trkpt lat="43.28861680821605" lon="12.922394922367152"><ele>470.8</ele><time>2026-04-11T15:02:34Z</time></trkpt><trkpt lat="43.288636065753636" lon="12.922528785009002"><ele>468.4</ele><time>2026-04-11T15:02:35Z</time></trkpt><trkpt lat="43.28867336338207" lon="12.922695930452932"><ele>466.0</ele><time>2026-04-11T15:02:35.999Z</time></trkpt><trkpt lat="43.288701593280386" lon="12.92287315345729"><ele>463.4</ele><time>2026-04-11T15:02:36.999Z</time></trkpt><trkpt lat="43.28873243806949" lon="12.923032964453306"><ele>460.8</ele><time>2026-04-11T15:02:37.999Z</time></trkpt><trkpt lat="43.28876796435866" lon="12.923176342890793"><ele>458.19999999999993</ele><time>2026-04-11T15:02:38.999Z</time></trkpt><trkpt lat="43.28879632093903" lon="12.923320597090227"><ele>455.59999999999997</ele><time>2026-04-11T15:02:39.999Z</time></trkpt><trkpt lat="43.28881382510275" lon="12.923463933736155"><ele>453.0</ele><time>2026-04-11T15:02:40.999Z</time></trkpt><trkpt lat="43.28882658009367" lon="12.92358383370919"><ele>453.0</ele><time>2026-04-11T15:02:41.999Z</time></trkpt><trkpt lat="43.28886441636135" lon="12.923720959960736"><ele>452.99999999999994</ele><time>2026-04-11T15:02:42.999Z</time></trkpt><trkpt lat="43.28891341358584" lon="12.923853998768346"><ele>452.99999999999994</ele><time>2026-04-11T15:02:43.999Z</time></trkpt><trkpt lat="43.288953372480314" lon="12.923984256717496"><ele>453.0</ele><time>2026-04-11T15:02:44.999Z</time></trkpt><trkpt lat="43.289021339368574" lon="12.924094547294088"><ele>453.0</ele><time>2026-04-11T15:02:45.999Z</time></trkpt><trkpt lat="43.289078372336064" lon="12.924204631670891"><ele>449.8333333333333</ele><time>2026-04-11T15:02:46.999Z</time></trkpt><trkpt lat="43.28912093669373" lon="12.924290614816742"><ele>446.66666666666663</ele><time>2026-04-11T15:02:47.999Z</time></trkpt><trkpt lat="43.28916842354083" lon="12.924360416398853"><ele>443.5</ele><time>2026-04-11T15:02:48.999Z</time></trkpt><trkpt lat="43.289218395287634" lon="12.924499523400012"><ele>440.3333333333333</ele><time>2026-04-11T15:02:50.999Z</time></trkpt><trkpt lat="43.289248515613046" lon="12.924583209286535"><ele>437.16666666666663</ele><time>2026-04-11T15:02:51.999Z</time></trkpt><trkpt lat="43.28932525847376" lon="12.92471384389765"><ele>434.0</ele><time>2026-04-11T15:02:53.999Z</time></trkpt><trkpt lat="43.28937279768747" lon="12.924785975309275"><ele>434.0</ele><time>2026-04-11T15:02:54.999Z</time></trkpt><trkpt lat="43.28941756313873" lon="12.924879167304827"><ele>434.0</ele><time>2026-04-11T15:02:55.999Z</time></trkpt><trkpt lat="43.28950305374377" lon="12.925005100445858"><ele>434.0</ele><time>2026-04-11T15:02:58.001Z</time></trkpt><trkpt lat="43.289578693588" lon="12.925132930037876"><ele>434.0</ele><time>2026-04-11T15:03:00.001Z</time></trkpt><trkpt lat="43.28966561256237" lon="12.925176576382965"><ele>434.0</ele><time>2026-04-11T15:03:02.001Z</time></trkpt><trkpt lat="43.28969214674579" lon="12.925256691524108"><ele>431.16666666666663</ele><time>2026-04-11T15:03:04.001Z</time></trkpt><trkpt lat="43.289637103860144" lon="12.925342996834058"><ele>428.3333333333333</ele><time>2026-04-11T15:03:06.001Z</time></trkpt><trkpt lat="43.28953382907711" lon="12.925350260050532"><ele>425.5</ele><time>2026-04-11T15:03:08.001Z</time></trkpt><trkpt lat="43.289461975228036" lon="12.925381458299563"><ele>422.66666666666663</ele><time>2026-04-11T15:03:09.001Z</time></trkpt><trkpt lat="43.28939872042138" lon="12.92540783430079"><ele>419.8333333333333</ele><time>2026-04-11T15:03:10.001Z</time></trkpt><trkpt lat="43.28932616977686" lon="12.925427924756356"><ele>417.0</ele><time>2026-04-11T15:03:11.001Z</time></trkpt><trkpt lat="43.28923843643944" lon="12.925439500030231"><ele>417.0</ele><time>2026-04-11T15:03:12.001Z</time></trkpt><trkpt lat="43.28916391847082" lon="12.92543626682709"><ele>417.0</ele><time>2026-04-11T15:03:13.001Z</time></trkpt><trkpt lat="43.28909454071683" lon="12.925425157943106"><ele>417.0</ele><time>2026-04-11T15:03:14.001Z</time></trkpt><trkpt lat="43.28902891343324" lon="12.925386398727758"><ele>417.0</ele><time>2026-04-11T15:03:15.001Z</time></trkpt><trkpt lat="43.28892594775897" lon="12.925294210743012"><ele>417.0</ele><time>2026-04-11T15:03:17Z</time></trkpt><trkpt lat="43.28891506004088" lon="12.925391810349742"><ele>417.0</ele><time>2026-04-11T15:03:21Z</time></trkpt><trkpt lat="43.288956495248954" lon="12.92545718544071"><ele>417.0</ele><time>2026-04-11T15:03:22Z</time></trkpt><trkpt lat="43.289002300168924" lon="12.92551873100594"><ele>417.0</ele><time>2026-04-11T15:03:23Z</time></trkpt><trkpt lat="43.289081175684935" lon="12.925615487081584"><ele>417.0</ele><time>2026-04-11T15:03:25Z</time></trkpt><trkpt lat="43.2891482412975" lon="12.925704211906126"><ele>417.0</ele><time>2026-04-11T15:03:27Z</time></trkpt><trkpt lat="43.28909230247591" lon="12.925753911520543"><ele>417.0</ele><time>2026-04-11T15:03:32Z</time></trkpt><trkpt lat="43.289024344062796" lon="12.92582559583657"><ele>417.0</ele><time>2026-04-11T15:03:43.999Z</time></trkpt><trkpt lat="43.2889428195193" lon="12.925954006142556"><ele>418.6</ele><time>2026-04-11T15:03:45.999Z</time></trkpt><trkpt lat="43.288905408935314" lon="12.92602994620153"><ele>420.20000000000005</ele><time>2026-04-11T15:03:46.999Z</time></trkpt><trkpt lat="43.288869556864356" lon="12.92611701119897"><ele>421.8</ele><time>2026-04-11T15:03:47.999Z</time></trkpt><trkpt lat="43.288832301948204" lon="12.926240820186008"><ele>423.4</ele><time>2026-04-11T15:03:48.999Z</time></trkpt><trkpt lat="43.28879936647147" lon="12.926393584991917"><ele>425.0</ele><time>2026-04-11T15:03:49.999Z</time></trkpt><trkpt lat="43.288773650533564" lon="12.926545512385468"><ele>425.0</ele><time>2026-04-11T15:03:50.999Z</time></trkpt><trkpt lat="43.288744498744364" lon="12.926691437150263"><ele>425.0</ele><time>2026-04-11T15:03:51.999Z</time></trkpt><trkpt lat="43.28871006816204" lon="12.926771922255856"><ele>425.0</ele><time>2026-04-11T15:03:52.999Z</time></trkpt><trkpt lat="43.2886022524373" lon="12.926687961340008"><ele>425.0</ele><time>2026-04-11T15:03:54.999Z</time></trkpt><trkpt lat="43.28853263957228" lon="12.926580703301372"><ele>425.0</ele><time>2026-04-11T15:03:55.999Z</time></trkpt><trkpt lat="43.288466657734055" lon="12.926488110219216"><ele>424.99999999999994</ele><time>2026-04-11T15:03:56.999Z</time></trkpt><trkpt lat="43.28840135575878" lon="12.92642084755953"><ele>425.0</ele><time>2026-04-11T15:03:57.999Z</time></trkpt><trkpt lat="43.288345479272934" lon="12.926353458990535"><ele>425.0</ele><time>2026-04-11T15:03:58.999Z</time></trkpt><trkpt lat="43.288286048999815" lon="12.926299596704283"><ele>425.0</ele><time>2026-04-11T15:03:59.999Z</time></trkpt><trkpt lat="43.28821625024734" lon="12.92624852175783"><ele>424.99999999999994</ele><time>2026-04-11T15:04:00.999Z</time></trkpt><trkpt lat="43.288146572512716" lon="12.926185644242134"><ele>425.0</ele><time>2026-04-11T15:04:01.999Z</time></trkpt><trkpt lat="43.288088550251366" lon="12.926146760859114"><ele>424.99999999999994</ele><time>2026-04-11T15:04:04.999Z</time></trkpt><trkpt lat="43.28810452808614" lon="12.926291399283553"><ele>425.0</ele><time>2026-04-11T15:04:07.999Z</time></trkpt><trkpt lat="43.288166805463156" lon="12.926394808825222"><ele>425.0</ele><time>2026-04-11T15:04:08.999Z</time></trkpt><trkpt lat="43.28823228386018" lon="12.926490229094231"><ele>425.0</ele><time>2026-04-11T15:04:09.999Z</time></trkpt><trkpt lat="43.288268789007454" lon="12.926563721060273"><ele>424.99999999999994</ele><time>2026-04-11T15:04:10.999Z</time></trkpt><trkpt lat="43.28830436933083" lon="12.926642884308455"><ele>425.0</ele><time>2026-04-11T15:04:11.999Z</time></trkpt><trkpt lat="43.28833681928891" lon="12.926747364622372"><ele>425.16666666666663</ele><time>2026-04-11T15:04:12.999Z</time></trkpt><trkpt lat="43.28836811573196" lon="12.926863049648428"><ele>425.3333333333333</ele><time>2026-04-11T15:04:13.999Z</time></trkpt><trkpt lat="43.28839266507291" lon="12.92696126322732"><ele>425.5</ele><time>2026-04-11T15:04:14.999Z</time></trkpt><trkpt lat="43.28843835522711" lon="12.92705198232927"><ele>425.66666666666663</ele><time>2026-04-11T15:04:16.999Z</time></trkpt><trkpt lat="43.28836429485857" lon="12.927132839852426"><ele>425.8333333333333</ele><time>2026-04-11T15:04:19.999Z</time></trkpt><trkpt lat="43.288299735935894" lon="12.927179778301797"><ele>426.0</ele><time>2026-04-11T15:04:20.999Z</time></trkpt><trkpt lat="43.288225613843686" lon="12.927230308266147"><ele>426.0</ele><time>2026-04-11T15:04:21.999Z</time></trkpt><trkpt lat="43.28816050883118" lon="12.927214525519746"><ele>426.0</ele><time>2026-04-11T15:04:22.999Z</time></trkpt><trkpt lat="43.288015428859225" lon="12.927258266153691"><ele>426.0</ele><time>2026-04-11T15:04:24.999Z</time></trkpt><trkpt lat="43.28793059809636" lon="12.9272988993789"><ele>426.0</ele><time>2026-04-11T15:04:25.999Z</time></trkpt><trkpt lat="43.287859483207434" lon="12.927323368246372"><ele>426.0</ele><time>2026-04-11T15:04:26.999Z</time></trkpt><trkpt lat="43.28778279234743" lon="12.927338246156552"><ele>429.4</ele><time>2026-04-11T15:04:27.999Z</time></trkpt><trkpt lat="43.28769494573402" lon="12.927371389764518"><ele>432.8</ele><time>2026-04-11T15:04:28.999Z</time></trkpt><trkpt lat="43.28759926218216" lon="12.927418914451996"><ele>436.19999999999993</ele><time>2026-04-11T15:04:29.999Z</time></trkpt><trkpt lat="43.28749902648425" lon="12.927492908178358"><ele>439.59999999999997</ele><time>2026-04-11T15:04:30.999Z</time></trkpt><trkpt lat="43.287413413384094" lon="12.927561754773196"><ele>443.0</ele><time>2026-04-11T15:04:31.999Z</time></trkpt><trkpt lat="43.28734435311622" lon="12.927661749796977"><ele>443.0</ele><time>2026-04-11T15:04:32.999Z</time></trkpt><trkpt lat="43.287283127952556" lon="12.927785162187112"><ele>442.99999999999994</ele><time>2026-04-11T15:04:33.999Z</time></trkpt><trkpt lat="43.28722591862035" lon="12.927895601058147"><ele>442.99999999999994</ele><time>2026-04-11T15:04:34.999Z</time></trkpt><trkpt lat="43.28715441598921" lon="12.928019184840126"><ele>443.0</ele><time>2026-04-11T15:04:35.999Z</time></trkpt><trkpt lat="43.287109794310986" lon="12.928144936082992"><ele>443.0</ele><time>2026-04-11T15:04:36.999Z</time></trkpt><trkpt lat="43.28708836037329" lon="12.928302735652464"><ele>451.59999999999997</ele><time>2026-04-11T15:04:37.999Z</time></trkpt><trkpt lat="43.2870688485793" lon="12.928446730863199"><ele>460.19999999999993</ele><time>2026-04-11T15:04:38.999Z</time></trkpt><trkpt lat="43.28706897949628" lon="12.928563745075104"><ele>468.8</ele><time>2026-04-11T15:04:39.999Z</time></trkpt><trkpt lat="43.2870453946209" lon="12.928682072326517"><ele>477.4</ele><time>2026-04-11T15:04:40.999Z</time></trkpt><trkpt lat="43.28700631627219" lon="12.928826835326953"><ele>486.0</ele><time>2026-04-11T15:04:41.999Z</time></trkpt><trkpt lat="43.28696530775626" lon="12.928970280200021"><ele>486.0</ele><time>2026-04-11T15:04:42.999Z</time></trkpt><trkpt lat="43.286938360418" lon="12.929124560007615"><ele>486.0</ele><time>2026-04-11T15:04:43.999Z</time></trkpt><trkpt lat="43.286907770940715" lon="12.929275482968299"><ele>486.0</ele><time>2026-04-11T15:04:44.999Z</time></trkpt><trkpt lat="43.286872788005994" lon="12.929386279730629"><ele>486.0</ele><time>2026-04-11T15:04:45.998Z</time></trkpt><trkpt lat="43.286820549460714" lon="12.929501885227829"><ele>486.0</ele><time>2026-04-11T15:04:46.998Z</time></trkpt><trkpt lat="43.28677443021951" lon="12.929644050885585"><ele>485.8</ele><time>2026-04-11T15:04:47.998Z</time></trkpt><trkpt lat="43.28674268724628" lon="12.929739980074759"><ele>485.6</ele><time>2026-04-11T15:04:48.998Z</time></trkpt><trkpt lat="43.286673096615516" lon="12.929811410979672"><ele>485.4</ele><time>2026-04-11T15:04:49.998Z</time></trkpt><trkpt lat="43.2865863633931" lon="12.929857602110161"><ele>485.2</ele><time>2026-04-11T15:04:50.998Z</time></trkpt><trkpt lat="43.2864886050132" lon="12.929887782816236"><ele>485.0</ele><time>2026-04-11T15:04:51.998Z</time></trkpt><trkpt lat="43.28639297190459" lon="12.929924460819363"><ele>486.2</ele><time>2026-04-11T15:04:52.998Z</time></trkpt><trkpt lat="43.286315625493465" lon="12.929986423653824"><ele>487.4</ele><time>2026-04-11T15:04:53.998Z</time></trkpt><trkpt lat="43.28621958395795" lon="12.930026271656095"><ele>488.6</ele><time>2026-04-11T15:04:54.998Z</time></trkpt><trkpt lat="43.2861045902134" lon="12.930049614008976"><ele>489.8</ele><time>2026-04-11T15:04:55.998Z</time></trkpt><trkpt lat="43.28600541451802" lon="12.930070229476874"><ele>491.0</ele><time>2026-04-11T15:04:56.998Z</time></trkpt><trkpt lat="43.28589877415078" lon="12.930096938985441"><ele>490.99999999999994</ele><time>2026-04-11T15:04:57.998Z</time></trkpt><trkpt lat="43.28582379474317" lon="12.930134379909974"><ele>491.0</ele><time>2026-04-11T15:04:58.998Z</time></trkpt><trkpt lat="43.28575959150891" lon="12.930158435322296"><ele>491.0</ele><time>2026-04-11T15:04:59.998Z</time></trkpt><trkpt lat="43.28568199566821" lon="12.930130870853635"><ele>491.0</ele><time>2026-04-11T15:05:00.998Z</time></trkpt><trkpt lat="43.285608050869776" lon="12.930084148480656"><ele>490.99999999999994</ele><time>2026-04-11T15:05:02Z</time></trkpt><trkpt lat="43.28549939706727" lon="12.930090630512295"><ele>491.0</ele><time>2026-04-11T15:05:03Z</time></trkpt><trkpt lat="43.28540602609893" lon="12.930122235452059"><ele>490.8333333333333</ele><time>2026-04-11T15:05:04Z</time></trkpt><trkpt lat="43.28530748652097" lon="12.930112992474726"><ele>490.66666666666663</ele><time>2026-04-11T15:05:05Z</time></trkpt><trkpt lat="43.28522781863167" lon="12.930115338321881"><ele>490.5</ele><time>2026-04-11T15:05:06Z</time></trkpt><trkpt lat="43.28516385913677" lon="12.930138118280682"><ele>490.33333333333337</ele><time>2026-04-11T15:05:07Z</time></trkpt><trkpt lat="43.28508762011786" lon="12.930182084786397"><ele>490.1666666666667</ele><time>2026-04-11T15:05:09Z</time></trkpt><trkpt lat="43.28497924982484" lon="12.930152884458096"><ele>490.0</ele><time>2026-04-11T15:05:11Z</time></trkpt><trkpt lat="43.28489576361909" lon="12.93015471066774"><ele>490.0</ele><time>2026-04-11T15:05:12Z</time></trkpt><trkpt lat="43.28478108367311" lon="12.93014661628467"><ele>490.0</ele><time>2026-04-11T15:05:13Z</time></trkpt><trkpt lat="43.28470036401247" lon="12.93012821098517"><ele>490.0</ele><time>2026-04-11T15:05:15Z</time></trkpt><trkpt lat="43.28468313822196" lon="12.930017392692424"><ele>490.0</ele><time>2026-04-11T15:05:19Z</time></trkpt><trkpt lat="43.28475169109631" lon="12.929851076995135"><ele>490.0</ele><time>2026-04-11T15:05:20.999Z</time></trkpt><trkpt lat="43.284786569387656" lon="12.929771412835674"><ele>495.2</ele><time>2026-04-11T15:05:21.999Z</time></trkpt><trkpt lat="43.284875400759645" lon="12.929668207362461"><ele>500.4</ele><time>2026-04-11T15:05:23.999Z</time></trkpt><trkpt lat="43.28492472970738" lon="12.929527973649064"><ele>505.6</ele><time>2026-04-11T15:05:25.999Z</time></trkpt><trkpt lat="43.284943078028434" lon="12.929441418240707"><ele>510.8</ele><time>2026-04-11T15:05:26.999Z</time></trkpt><trkpt lat="43.28492532788533" lon="12.929256961935799"><ele>516.0</ele><time>2026-04-11T15:05:28.999Z</time></trkpt><trkpt lat="43.284938184429414" lon="12.9291582256758"><ele>519.8333333333334</ele><time>2026-04-11T15:05:29.999Z</time></trkpt><trkpt lat="43.2849713398568" lon="12.929065857757477"><ele>523.6666666666666</ele><time>2026-04-11T15:05:30.999Z</time></trkpt><trkpt lat="43.28498493817993" lon="12.928972199474625"><ele>527.5</ele><time>2026-04-11T15:05:31.999Z</time></trkpt><trkpt lat="43.28503898629383" lon="12.928798676208094"><ele>531.3333333333333</ele><time>2026-04-11T15:05:33.999Z</time></trkpt><trkpt lat="43.28505872109044" lon="12.928714985089954"><ele>535.1666666666666</ele><time>2026-04-11T15:05:34.999Z</time></trkpt><trkpt lat="43.28505577737192" lon="12.928628207707389"><ele>539.0</ele><time>2026-04-11T15:05:35.999Z</time></trkpt><trkpt lat="43.28505927252077" lon="12.92852911414092"><ele>539.0</ele><time>2026-04-11T15:05:36.999Z</time></trkpt><trkpt lat="43.28506949896796" lon="12.9284245243801"><ele>539.0</ele><time>2026-04-11T15:05:37.999Z</time></trkpt><trkpt lat="43.285071017275584" lon="12.928315910470625"><ele>539.0</ele><time>2026-04-11T15:05:38.999Z</time></trkpt><trkpt lat="43.28508458899148" lon="12.928194791941563"><ele>539.0</ele><time>2026-04-11T15:05:39.999Z</time></trkpt><trkpt lat="43.28507072409255" lon="12.928091320402672"><ele>539.0</ele><time>2026-04-11T15:05:40.999Z</time></trkpt><trkpt lat="43.285042467218844" lon="12.928001369181949"><ele>539.0</ele><time>2026-04-11T15:05:41.999Z</time></trkpt><trkpt lat="43.28499066156642" lon="12.927933842211553"><ele>542.0</ele><time>2026-04-11T15:05:42.999Z</time></trkpt><trkpt lat="43.28492408374092" lon="12.927847296434926"><ele>545.0</ele><time>2026-04-11T15:05:43.999Z</time></trkpt><trkpt lat="43.28487192261548" lon="12.927732095708848"><ele>548.0</ele><time>2026-04-11T15:05:44.999Z</time></trkpt><trkpt lat="43.284824873329704" lon="12.927624433760862"><ele>551.0</ele><time>2026-04-11T15:05:45.999Z</time></trkpt><trkpt lat="43.284777379114296" lon="12.927548092045281"><ele>554.0</ele><time>2026-04-11T15:05:46.999Z</time></trkpt><trkpt lat="43.284711994521395" lon="12.927528000376904"><ele>557.0</ele><time>2026-04-11T15:05:47.999Z</time></trkpt><trkpt lat="43.284647844996826" lon="12.927535527433275"><ele>559.8333333333333</ele><time>2026-04-11T15:05:48.999Z</time></trkpt><trkpt lat="43.28458605638176" lon="12.92762062542628"><ele>562.6666666666666</ele><time>2026-04-11T15:05:49.999Z</time></trkpt><trkpt lat="43.28452848221185" lon="12.927691126602207"><ele>565.5</ele><time>2026-04-11T15:05:50.999Z</time></trkpt><trkpt lat="43.28445724020622" lon="12.927722912586681"><ele>568.3333333333334</ele><time>2026-04-11T15:05:51.999Z</time></trkpt><trkpt lat="43.284379041863154" lon="12.927751736048354"><ele>571.1666666666667</ele><time>2026-04-11T15:05:52.999Z</time></trkpt><trkpt lat="43.28430118811745" lon="12.927762245466315"><ele>574.0</ele><time>2026-04-11T15:05:53.999Z</time></trkpt><trkpt lat="43.28420480709258" lon="12.927732865565213"><ele>574.0</ele><time>2026-04-11T15:05:54.999Z</time></trkpt><trkpt lat="43.28411787447154" lon="12.927658624831842"><ele>574.0</ele><time>2026-04-11T15:05:55.999Z</time></trkpt><trkpt lat="43.28404173720294" lon="12.92753156017386"><ele>574.0</ele><time>2026-04-11T15:05:56.999Z</time></trkpt><trkpt lat="43.28398044688541" lon="12.927403841767605"><ele>574.0</ele><time>2026-04-11T15:05:57.999Z</time></trkpt><trkpt lat="43.28388896645854" lon="12.927334216778407"><ele>574.0</ele><time>2026-04-11T15:05:58.999Z</time></trkpt><trkpt lat="43.28378792598077" lon="12.927292744479574"><ele>579.4</ele><time>2026-04-11T15:05:59.999Z</time></trkpt><trkpt lat="43.28370925519981" lon="12.927201724244322"><ele>584.8</ele><time>2026-04-11T15:06:00.999Z</time></trkpt><trkpt lat="43.28362484835354" lon="12.927140630370207"><ele>590.2</ele><time>2026-04-11T15:06:01.999Z</time></trkpt><trkpt lat="43.28352660923139" lon="12.927078952039833"><ele>595.6</ele><time>2026-04-11T15:06:02.999Z</time></trkpt><trkpt lat="43.2834383528935" lon="12.926967141112668"><ele>601.0</ele><time>2026-04-11T15:06:03.999Z</time></trkpt><trkpt lat="43.2833378337041" lon="12.926878938234355"><ele>601.0</ele><time>2026-04-11T15:06:04.999Z</time></trkpt><trkpt lat="43.28323233648227" lon="12.926835448932255"><ele>601.0</ele><time>2026-04-11T15:06:05.999Z</time></trkpt><trkpt lat="43.28312815350258" lon="12.926765730986117"><ele>601.0</ele><time>2026-04-11T15:06:06.999Z</time></trkpt><trkpt lat="43.283034566741094" lon="12.926675991740947"><ele>601.0</ele><time>2026-04-11T15:06:07.999Z</time></trkpt><trkpt lat="43.2829535154695" lon="12.926594259412937"><ele>601.0</ele><time>2026-04-11T15:06:08.999Z</time></trkpt><trkpt lat="43.28287246188954" lon="12.926547192122591"><ele>605.8</ele><time>2026-04-11T15:06:09.999Z</time></trkpt><trkpt lat="43.282779175239355" lon="12.926516173592955"><ele>610.6</ele><time>2026-04-11T15:06:10.999Z</time></trkpt><trkpt lat="43.28266339144722" lon="12.926474637764047"><ele>615.4</ele><time>2026-04-11T15:06:11.999Z</time></trkpt><trkpt lat="43.28256281405208" lon="12.926434845420488"><ele>620.2</ele><time>2026-04-11T15:06:12.999Z</time></trkpt><trkpt lat="43.28246903274742" lon="12.926408719706577"><ele>625.0</ele><time>2026-04-11T15:06:13.999Z</time></trkpt><trkpt lat="43.28238537896572" lon="12.926367132128888"><ele>625.0</ele><time>2026-04-11T15:06:14.999Z</time></trkpt><trkpt lat="43.282309550179185" lon="12.926301784379056"><ele>625.0</ele><time>2026-04-11T15:06:15.999Z</time></trkpt><trkpt lat="43.28221038749202" lon="12.926233292583262"><ele>625.0</ele><time>2026-04-11T15:06:16.999Z</time></trkpt><trkpt lat="43.282075833908074" lon="12.926168788476012"><ele>625.0</ele><time>2026-04-11T15:06:17.999Z</time></trkpt><trkpt lat="43.28196808085252" lon="12.926121768888699"><ele>625.8</ele><time>2026-04-11T15:06:18.999Z</time></trkpt><trkpt lat="43.28187809374965" lon="12.926065346226594"><ele>626.6</ele><time>2026-04-11T15:06:19.999Z</time></trkpt><trkpt lat="43.28178515128347" lon="12.92600730443783"><ele>627.4</ele><time>2026-04-11T15:06:20.999Z</time></trkpt><trkpt lat="43.28170015564572" lon="12.925935855885788"><ele>628.2</ele><time>2026-04-11T15:06:21.999Z</time></trkpt><trkpt lat="43.28164719597772" lon="12.925858497430433"><ele>629.0</ele><time>2026-04-11T15:06:22.999Z</time></trkpt><trkpt lat="43.28161350953921" lon="12.925760002249246"><ele>630.6</ele><time>2026-04-11T15:06:23.999Z</time></trkpt><trkpt lat="43.28157694171066" lon="12.925673883151552"><ele>632.2</ele><time>2026-04-11T15:06:24.999Z</time></trkpt><trkpt lat="43.281439876190596" lon="12.925624603942152"><ele>633.8000000000001</ele><time>2026-04-11T15:06:26.999Z</time></trkpt><trkpt lat="43.28135912125596" lon="12.925570058270544"><ele>635.4</ele><time>2026-04-11T15:06:27.999Z</time></trkpt><trkpt lat="43.28129250815231" lon="12.925464655453169"><ele>637.0</ele><time>2026-04-11T15:06:28.999Z</time></trkpt><trkpt lat="43.28122684917738" lon="12.925329246091989"><ele>637.0</ele><time>2026-04-11T15:06:29.999Z</time></trkpt><trkpt lat="43.281177949308265" lon="12.925188888683575"><ele>637.0</ele><time>2026-04-11T15:06:30.999Z</time></trkpt><trkpt lat="43.28113055353441" lon="12.925069585726526"><ele>637.0</ele><time>2026-04-11T15:06:31.999Z</time></trkpt><trkpt lat="43.28106513261629" lon="12.924963605531886"><ele>637.0</ele><time>2026-04-11T15:06:32.999Z</time></trkpt><trkpt lat="43.28100604512944" lon="12.924887076635969"><ele>637.0</ele><time>2026-04-11T15:06:33.999Z</time></trkpt><trkpt lat="43.2809547683698" lon="12.924822991434477"><ele>639.3333333333334</ele><time>2026-04-11T15:06:34.999Z</time></trkpt><trkpt lat="43.28084588083114" lon="12.924776675704871"><ele>641.6666666666667</ele><time>2026-04-11T15:06:36.999Z</time></trkpt><trkpt lat="43.28075807065135" lon="12.924747454426836"><ele>644.0</ele><time>2026-04-11T15:06:37.999Z</time></trkpt><trkpt lat="43.280685536447386" lon="12.92471117898059"><ele>646.3333333333334</ele><time>2026-04-11T15:06:38.999Z</time></trkpt><trkpt lat="43.280614215450264" lon="12.924661606307085"><ele>648.6666666666666</ele><time>2026-04-11T15:06:39.999Z</time></trkpt><trkpt lat="43.28053601857808" lon="12.924614618552013"><ele>651.0</ele><time>2026-04-11T15:06:40.999Z</time></trkpt><trkpt lat="43.28044763716007" lon="12.924574186107407"><ele>651.0</ele><time>2026-04-11T15:06:41.999Z</time></trkpt><trkpt lat="43.28034070331911" lon="12.924527460578638"><ele>651.0</ele><time>2026-04-11T15:06:42.999Z</time></trkpt><trkpt lat="43.28023657909025" lon="12.924469172140293"><ele>651.0</ele><time>2026-04-11T15:06:43.999Z</time></trkpt><trkpt lat="43.28017392853289" lon="12.924389116782635"><ele>651.0</ele><time>2026-04-11T15:06:44.999Z</time></trkpt><trkpt lat="43.28010341570514" lon="12.924317542659805"><ele>651.0</ele><time>2026-04-11T15:06:45.999Z</time></trkpt><trkpt lat="43.28002803732549" lon="12.924285573625657"><ele>651.0</ele><time>2026-04-11T15:06:46.998Z</time></trkpt><trkpt lat="43.27993799248399" lon="12.924290761657488"><ele>651.0</ele><time>2026-04-11T15:06:48.998Z</time></trkpt><trkpt lat="43.27985472310703" lon="12.924279945621878"><ele>651.0</ele><time>2026-04-11T15:07:10Z</time></trkpt><trkpt lat="43.279790606383635" lon="12.92428323867297"><ele>651.0</ele><time>2026-04-11T15:07:11Z</time></trkpt><trkpt lat="43.2797058224207" lon="12.924333031550082"><ele>651.0</ele><time>2026-04-11T15:07:12Z</time></trkpt><trkpt lat="43.27964203044354" lon="12.92441364802157"><ele>651.0</ele><time>2026-04-11T15:07:13Z</time></trkpt><trkpt lat="43.279574999340326" lon="12.924493306506514"><ele>653.0</ele><time>2026-04-11T15:07:13.999Z</time></trkpt><trkpt lat="43.27948713814366" lon="12.924567704408922"><ele>655.0</ele><time>2026-04-11T15:07:14.999Z</time></trkpt><trkpt lat="43.27941579637625" lon="12.924632233587658"><ele>657.0</ele><time>2026-04-11T15:07:15.999Z</time></trkpt><trkpt lat="43.27933980617856" lon="12.924659533621554"><ele>659.0</ele><time>2026-04-11T15:07:17.999Z</time></trkpt><trkpt lat="43.279220226783444" lon="12.924658785172161"><ele>661.0</ele><time>2026-04-11T15:07:18.999Z</time></trkpt><trkpt lat="43.279156621967886" lon="12.924556219336747"><ele>661.0</ele><time>2026-04-11T15:07:19.999Z</time></trkpt><trkpt lat="43.279065844818284" lon="12.92448358901829"><ele>661.0</ele><time>2026-04-11T15:07:20.999Z</time></trkpt><trkpt lat="43.27897690058435" lon="12.92439138455699"><ele>661.0</ele><time>2026-04-11T15:07:21.999Z</time></trkpt><trkpt lat="43.27892067853934" lon="12.924261772812999"><ele>661.0</ele><time>2026-04-11T15:07:22.999Z</time></trkpt><trkpt lat="43.278853733993614" lon="12.924164671566475"><ele>661.0</ele><time>2026-04-11T15:07:23.999Z</time></trkpt><trkpt lat="43.278796221263164" lon="12.924056729049271"><ele>663.1666666666667</ele><time>2026-04-11T15:07:24.999Z</time></trkpt><trkpt lat="43.278724338937565" lon="12.923989433430554"><ele>665.3333333333334</ele><time>2026-04-11T15:07:25.999Z</time></trkpt><trkpt lat="43.278634867664906" lon="12.923942485738896"><ele>667.5</ele><time>2026-04-11T15:07:26.999Z</time></trkpt><trkpt lat="43.278549482696164" lon="12.923886498548287"><ele>669.6666666666666</ele><time>2026-04-11T15:07:27.999Z</time></trkpt><trkpt lat="43.2784713394557" lon="12.923846577787709"><ele>671.8333333333333</ele><time>2026-04-11T15:07:28.999Z</time></trkpt><trkpt lat="43.278417117633886" lon="12.923758054486514"><ele>674.0</ele><time>2026-04-11T15:07:29.999Z</time></trkpt><trkpt lat="43.27836795921742" lon="12.923677884949521"><ele>674.0</ele><time>2026-04-11T15:07:30.999Z</time></trkpt><trkpt lat="43.278283919349114" lon="12.923629102937971"><ele>674.0</ele><time>2026-04-11T15:07:31.999Z</time></trkpt><trkpt lat="43.27818391796016" lon="12.923583602737803"><ele>674.0</ele><time>2026-04-11T15:07:32.999Z</time></trkpt><trkpt lat="43.278074610850624" lon="12.923519712465033"><ele>674.0</ele><time>2026-04-11T15:07:33.999Z</time></trkpt><trkpt lat="43.277951890310185" lon="12.923412786478295"><ele>676.3333333333333</ele><time>2026-04-11T15:07:34.999Z</time></trkpt><trkpt lat="43.2778242852667" lon="12.92330498147337"><ele>678.6666666666666</ele><time>2026-04-11T15:07:35.999Z</time></trkpt><trkpt lat="43.277690673086134" lon="12.923192837336202"><ele>681.0</ele><time>2026-04-11T15:07:36.999Z</time></trkpt><trkpt lat="43.277566583305465" lon="12.923064392509131"><ele>681.0</ele><time>2026-04-11T15:07:37.999Z</time></trkpt><trkpt lat="43.27744611153927" lon="12.92293825829652"><ele>681.0</ele><time>2026-04-11T15:07:38.999Z</time></trkpt><trkpt lat="43.27733605012485" lon="12.92285169691916"><ele>681.0</ele><time>2026-04-11T15:07:39.999Z</time></trkpt><trkpt lat="43.27724444008422" lon="12.922772628163267"><ele>681.0</ele><time>2026-04-11T15:07:40.999Z</time></trkpt><trkpt lat="43.27715234824236" lon="12.922694456343674"><ele>680.4</ele><time>2026-04-11T15:07:41.999Z</time></trkpt><trkpt lat="43.27707456970242" lon="12.922626623015821"><ele>679.8</ele><time>2026-04-11T15:07:42.999Z</time></trkpt><trkpt lat="43.27698385945617" lon="12.922606455526298"><ele>679.1999999999999</ele><time>2026-04-11T15:07:43.999Z</time></trkpt><trkpt lat="43.27687156804283" lon="12.922627576565544"><ele>678.5999999999999</ele><time>2026-04-11T15:07:44.999Z</time></trkpt><trkpt lat="43.276766617840366" lon="12.922643790245248"><ele>678.0</ele><time>2026-04-11T15:07:45.999Z</time></trkpt><trkpt lat="43.276646917692716" lon="12.922622263414654"><ele>678.0</ele><time>2026-04-11T15:07:46.999Z</time></trkpt><trkpt lat="43.27652219849302" lon="12.922584964151877"><ele>678.0</ele><time>2026-04-11T15:07:47.999Z</time></trkpt><trkpt lat="43.276430530859535" lon="12.922556640886956"><ele>678.0</ele><time>2026-04-11T15:07:48.999Z</time></trkpt><trkpt lat="43.27636715080031" lon="12.922595343336624"><ele>678.0</ele><time>2026-04-11T15:08:12.999Z</time></trkpt><trkpt lat="43.27630490556146" lon="12.922612693810992"><ele>678.0</ele><time>2026-04-11T15:08:13.999Z</time></trkpt><trkpt lat="43.276236220875674" lon="12.922598365405223"><ele>678.0</ele><time>2026-04-11T15:08:14.999Z</time></trkpt><trkpt lat="43.276152261124096" lon="12.92256941610104"><ele>685.5999999999999</ele><time>2026-04-11T15:08:15.999Z</time></trkpt><trkpt lat="43.276059853467444" lon="12.922558800268671"><ele>693.1999999999999</ele><time>2026-04-11T15:08:16.999Z</time></trkpt><trkpt lat="43.275963075978034" lon="12.922548153478223"><ele>700.8</ele><time>2026-04-11T15:08:17.999Z</time></trkpt><trkpt lat="43.275866062953604" lon="12.922529422020416"><ele>708.4</ele><time>2026-04-11T15:08:18.999Z</time></trkpt><trkpt lat="43.275785748583516" lon="12.92248240014026"><ele>716.0</ele><time>2026-04-11T15:08:19.999Z</time></trkpt><trkpt lat="43.2756942528236" lon="12.922432826952706"><ele>718.0</ele><time>2026-04-11T15:08:20.999Z</time></trkpt><trkpt lat="43.27560239034397" lon="12.922373545337829"><ele>720.0</ele><time>2026-04-11T15:08:21.999Z</time></trkpt><trkpt lat="43.275502263044444" lon="12.922328584680677"><ele>722.0</ele><time>2026-04-11T15:08:22.999Z</time></trkpt><trkpt lat="43.27543137100532" lon="12.922305485637981"><ele>724.0</ele><time>2026-04-11T15:08:23.999Z</time></trkpt><trkpt lat="43.275358515244946" lon="12.922352674215475"><ele>726.0</ele><time>2026-04-11T15:08:25.999Z</time></trkpt><trkpt lat="43.27528324613906" lon="12.922350807911412"><ele>728.0</ele><time>2026-04-11T15:08:27.999Z</time></trkpt><trkpt lat="43.27521011821283" lon="12.922353187460516"><ele>728.0</ele><time>2026-04-11T15:08:29.999Z</time></trkpt><trkpt lat="43.27514307264121" lon="12.922345860138591"><ele>728.0</ele><time>2026-04-11T15:08:41.999Z</time></trkpt><trkpt lat="43.27501514186706" lon="12.922351494455643"><ele>728.0</ele><time>2026-04-11T15:08:43.999Z</time></trkpt><trkpt lat="43.274939318658895" lon="12.922355775513346"><ele>728.0</ele><time>2026-04-11T15:08:44.999Z</time></trkpt><trkpt lat="43.274842624858586" lon="12.922371440106152"><ele>728.0</ele><time>2026-04-11T15:08:45.999Z</time></trkpt><trkpt lat="43.27474809334095" lon="12.922396407337017"><ele>729.5999999999999</ele><time>2026-04-11T15:08:46.999Z</time></trkpt><trkpt lat="43.27464938330199" lon="12.922426261045137"><ele>731.1999999999999</ele><time>2026-04-11T15:08:47.999Z</time></trkpt><trkpt lat="43.27454022274518" lon="12.922442726001108"><ele>732.8</ele><time>2026-04-11T15:08:48.999Z</time></trkpt><trkpt lat="43.274439191251744" lon="12.922482729156256"><ele>734.4</ele><time>2026-04-11T15:08:49.999Z</time></trkpt><trkpt lat="43.274326917254484" lon="12.922505343502989"><ele>736.0</ele><time>2026-04-11T15:08:50.999Z</time></trkpt><trkpt lat="43.27421503717495" lon="12.922503802118639"><ele>736.0</ele><time>2026-04-11T15:08:51.999Z</time></trkpt><trkpt lat="43.27410029567053" lon="12.922502002190162"><ele>736.0</ele><time>2026-04-11T15:08:52.999Z</time></trkpt><trkpt lat="43.27399318340017" lon="12.922505879401402"><ele>736.0</ele><time>2026-04-11T15:08:53.999Z</time></trkpt><trkpt lat="43.27390665179013" lon="12.922506669538214"><ele>736.0</ele><time>2026-04-11T15:08:54.999Z</time></trkpt><trkpt lat="43.273795741384525" lon="12.922490124679781"><ele>736.0</ele><time>2026-04-11T15:08:55.999Z</time></trkpt><trkpt lat="43.27371083723469" lon="12.922510738525038"><ele>737.8</ele><time>2026-04-11T15:08:56.999Z</time></trkpt><trkpt lat="43.27361083566289" lon="12.922538382976466"><ele>739.5999999999999</ele><time>2026-04-11T15:08:57.999Z</time></trkpt><trkpt lat="43.27351838214426" lon="12.922563528930016"><ele>741.4</ele><time>2026-04-11T15:08:58.999Z</time></trkpt><trkpt lat="43.273406037064866" lon="12.922578616059294"><ele>743.2</ele><time>2026-04-11T15:08:59.999Z</time></trkpt><trkpt lat="43.273294479107406" lon="12.92261034992201"><ele>745.0</ele><time>2026-04-11T15:09:00.999Z</time></trkpt><trkpt lat="43.27319248691838" lon="12.922634657356104"><ele>740.2</ele><time>2026-04-11T15:09:01.999Z</time></trkpt><trkpt lat="43.27308307621117" lon="12.922669715256307"><ele>735.4</ele><time>2026-04-11T15:09:02.999Z</time></trkpt><trkpt lat="43.272975404859174" lon="12.922719048481538"><ele>730.5999999999999</ele><time>2026-04-11T15:09:03.999Z</time></trkpt><trkpt lat="43.272864133709454" lon="12.922747222037398"><ele>725.8</ele><time>2026-04-11T15:09:04.998Z</time></trkpt><trkpt lat="43.27276399436635" lon="12.922790672137225"><ele>721.0</ele><time>2026-04-11T15:09:05.998Z</time></trkpt><trkpt lat="43.27268704681847" lon="12.922831881832069"><ele>721.0</ele><time>2026-04-11T15:09:06.998Z</time></trkpt><trkpt lat="43.27259115670579" lon="12.922890066967886"><ele>721.0</ele><time>2026-04-11T15:09:07.998Z</time></trkpt><trkpt lat="43.272480945308224" lon="12.92292046459915"><ele>721.0</ele><time>2026-04-11T15:09:08.998Z</time></trkpt><trkpt lat="43.2723684169399" lon="12.922960739999832"><ele>721.0</ele><time>2026-04-11T15:09:09.998Z</time></trkpt><trkpt lat="43.272282857141604" lon="12.922992764456918"><ele>721.0</ele><time>2026-04-11T15:09:10.998Z</time></trkpt><trkpt lat="43.27218838426179" lon="12.923039420357505"><ele>718.8333333333334</ele><time>2026-04-11T15:09:12.998Z</time></trkpt><trkpt lat="43.272100648448706" lon="12.92309641687405"><ele>716.6666666666667</ele><time>2026-04-11T15:09:15Z</time></trkpt><trkpt lat="43.272039989858506" lon="12.923156676118353"><ele>714.5</ele><time>2026-04-11T15:09:16Z</time></trkpt><trkpt lat="43.271973021532865" lon="12.92323378239972"><ele>712.3333333333334</ele><time>2026-04-11T15:09:17Z</time></trkpt><trkpt lat="43.27190753962864" lon="12.923317210790671"><ele>710.1666666666666</ele><time>2026-04-11T15:09:18Z</time></trkpt><trkpt lat="43.27185495050988" lon="12.923404589713446"><ele>708.0</ele><time>2026-04-11T15:09:19Z</time></trkpt><trkpt lat="43.271772546387666" lon="12.923533541298621"><ele>708.0</ele><time>2026-04-11T15:09:21Z</time></trkpt><trkpt lat="43.271702909196506" lon="12.92366416978417"><ele>708.0</ele><time>2026-04-11T15:09:23Z</time></trkpt><trkpt lat="43.27166872167185" lon="12.923763881391228"><ele>708.0</ele><time>2026-04-11T15:09:24Z</time></trkpt><trkpt lat="43.27156779064658" lon="12.923858658678403"><ele>708.0</ele><time>2026-04-11T15:09:26Z</time></trkpt><trkpt lat="43.27151842665559" lon="12.9239344072368"><ele>708.0</ele><time>2026-04-11T15:09:27Z</time></trkpt><trkpt lat="43.27144741386454" lon="12.923983916029893"><ele>709.5999999999999</ele><time>2026-04-11T15:09:28Z</time></trkpt><trkpt lat="43.27139529206532" lon="12.924048749614208"><ele>711.1999999999999</ele><time>2026-04-11T15:09:29Z</time></trkpt><trkpt lat="43.27131471221969" lon="12.92418029384816"><ele>712.8</ele><time>2026-04-11T15:09:31Z</time></trkpt><trkpt lat="43.27125452828649" lon="12.924274218330389"><ele>714.4</ele><time>2026-04-11T15:09:32Z</time></trkpt><trkpt lat="43.27120606180484" lon="12.924344248950666"><ele>716.0</ele><time>2026-04-11T15:09:33Z</time></trkpt><trkpt lat="43.27109952223075" lon="12.924468922974869"><ele>711.5</ele><time>2026-04-11T15:09:35Z</time></trkpt><trkpt lat="43.27104445209419" lon="12.924516017408925"><ele>707.0</ele><time>2026-04-11T15:09:36Z</time></trkpt><trkpt lat="43.270987389490536" lon="12.924570127595349"><ele>702.5</ele><time>2026-04-11T15:09:37Z</time></trkpt><trkpt lat="43.270910259192014" lon="12.924624300582375"><ele>698.0</ele><time>2026-04-11T15:09:38Z</time></trkpt><trkpt lat="43.27084392981425" lon="12.924657162288801"><ele>693.5</ele><time>2026-04-11T15:09:39Z</time></trkpt><trkpt lat="43.270796719935504" lon="12.924746119877167"><ele>689.0</ele><time>2026-04-11T15:09:41Z</time></trkpt><trkpt lat="43.27082877172622" lon="12.924862993379186"><ele>689.0</ele><time>2026-04-11T15:09:43Z</time></trkpt><trkpt lat="43.27086344964295" lon="12.925004386252102"><ele>689.0</ele><time>2026-04-11T15:09:45Z</time></trkpt><trkpt lat="43.27088445389333" lon="12.925130499932548"><ele>689.0</ele><time>2026-04-11T15:09:47Z</time></trkpt><trkpt lat="43.270825514568116" lon="12.925213872710815"><ele>689.0</ele><time>2026-04-11T15:09:47.999Z</time></trkpt><trkpt lat="43.2708095432356" lon="12.925338515573001"><ele>689.0</ele><time>2026-04-11T15:09:49.999Z</time></trkpt><trkpt lat="43.270797549383495" lon="12.925429740448697"><ele>689.0</ele><time>2026-04-11T15:09:51.999Z</time></trkpt><trkpt lat="43.27078050302654" lon="12.925549269989551"><ele>685.3333333333333</ele><time>2026-04-11T15:09:53.999Z</time></trkpt><trkpt lat="43.27077837360841" lon="12.925648179992251"><ele>681.6666666666666</ele><time>2026-04-11T15:09:55.999Z</time></trkpt><trkpt lat="43.27076877416779" lon="12.925789276509263"><ele>678.0</ele><time>2026-04-11T15:09:58.999Z</time></trkpt><trkpt lat="43.270772356321906" lon="12.925891568573366"><ele>674.3333333333334</ele><time>2026-04-11T15:10:00.999Z</time></trkpt><trkpt lat="43.270749842778464" lon="12.925978440507675"><ele>670.6666666666667</ele><time>2026-04-11T15:10:02.999Z</time></trkpt><trkpt lat="43.27075368172354" lon="12.926090500156265"><ele>667.0</ele><time>2026-04-11T15:10:04.999Z</time></trkpt><trkpt lat="43.27074916360737" lon="12.926241348710281"><ele>663.1666666666667</ele><time>2026-04-11T15:10:07.999Z</time></trkpt><trkpt lat="43.27072994421003" lon="12.926385287574346"><ele>659.3333333333334</ele><time>2026-04-11T15:10:11.999Z</time></trkpt><trkpt lat="43.27074483836562" lon="12.92650138561444"><ele>655.5</ele><time>2026-04-11T15:10:13.999Z</time></trkpt><trkpt lat="43.27072134276621" lon="12.926586365775899"><ele>651.6666666666666</ele><time>2026-04-11T15:10:15.999Z</time></trkpt><trkpt lat="43.27071516997096" lon="12.926706866857895"><ele>647.8333333333333</ele><time>2026-04-11T15:10:17.999Z</time></trkpt><trkpt lat="43.27064786071485" lon="12.926811898595323"><ele>644.0</ele><time>2026-04-11T15:10:20.999Z</time></trkpt><trkpt lat="43.270565335597794" lon="12.926855784177196"><ele>641.0</ele><time>2026-04-11T15:10:22.999Z</time></trkpt><trkpt lat="43.270443701265314" lon="12.926888762599686"><ele>638.0</ele><time>2026-04-11T15:10:24.999Z</time></trkpt><trkpt lat="43.270378906501584" lon="12.926914338283705"><ele>635.0</ele><time>2026-04-11T15:10:25.999Z</time></trkpt><trkpt lat="43.270288482644986" lon="12.926944671426522"><ele>632.0</ele><time>2026-04-11T15:10:27.999Z</time></trkpt><trkpt lat="43.270208242904005" lon="12.926984464655977"><ele>629.0</ele><time>2026-04-11T15:10:29.999Z</time></trkpt><trkpt lat="43.27014240139349" lon="12.92701845855331"><ele>626.0</ele><time>2026-04-11T15:10:31.999Z</time></trkpt><trkpt lat="43.27007808792902" lon="12.927052200788301"><ele>626.0</ele><time>2026-04-11T15:10:34.999Z</time></trkpt><trkpt lat="43.26997790312833" lon="12.927078455801789"><ele>626.0</ele><time>2026-04-11T15:10:45.999Z</time></trkpt><trkpt lat="43.26985135723874" lon="12.92706491732906"><ele>626.0</ele><time>2026-04-11T15:10:47.999Z</time></trkpt><trkpt lat="43.26976916091261" lon="12.927076519368876"><ele>626.0</ele><time>2026-04-11T15:10:48.999Z</time></trkpt><trkpt lat="43.269707061153134" lon="12.92709435302878"><ele>626.0</ele><time>2026-04-11T15:10:49.999Z</time></trkpt><trkpt lat="43.269643351524465" lon="12.927113402988669"><ele>626.0</ele><time>2026-04-11T15:10:50.999Z</time></trkpt><trkpt lat="43.26953981264167" lon="12.927099307857489"><ele>622.0</ele><time>2026-04-11T15:11:07.999Z</time></trkpt><trkpt lat="43.26944030425097" lon="12.927037997252082"><ele>618.0</ele><time>2026-04-11T15:11:09.999Z</time></trkpt><trkpt lat="43.26937247809696" lon="12.927020793349381"><ele>614.0</ele><time>2026-04-11T15:11:10.999Z</time></trkpt><trkpt lat="43.26931640761227" lon="12.927097160546912"><ele>610.0</ele><time>2026-04-11T15:11:12.999Z</time></trkpt><trkpt lat="43.269301407553016" lon="12.927202416464214"><ele>606.0</ele><time>2026-04-11T15:11:13.999Z</time></trkpt><trkpt lat="43.26927238496168" lon="12.92733435668135"><ele>602.0</ele><time>2026-04-11T15:11:14.999Z</time></trkpt><trkpt lat="43.269230998414095" lon="12.927434707906599"><ele>602.0</ele><time>2026-04-11T15:11:15.999Z</time></trkpt><trkpt lat="43.26917947268042" lon="12.927535666995956"><ele>602.0</ele><time>2026-04-11T15:11:16.998Z</time></trkpt><trkpt lat="43.269128889509666" lon="12.927680305790933"><ele>602.0</ele><time>2026-04-11T15:11:18.998Z</time></trkpt><trkpt lat="43.26907158920622" lon="12.92782124806879"><ele>602.0</ele><time>2026-04-11T15:11:21Z</time></trkpt><trkpt lat="43.269022968470914" lon="12.927889468806239"><ele>602.0</ele><time>2026-04-11T15:11:22Z</time></trkpt><trkpt lat="43.268975619577084" lon="12.927978875459951"><ele>602.1666666666666</ele><time>2026-04-11T15:11:23Z</time></trkpt><trkpt lat="43.268945783408604" lon="12.928076116423291"><ele>602.3333333333333</ele><time>2026-04-11T15:11:24Z</time></trkpt><trkpt lat="43.26893425566612" lon="12.928164323257924"><ele>602.5</ele><time>2026-04-11T15:11:25Z</time></trkpt><trkpt lat="43.268883143556984" lon="12.928332278166819"><ele>602.6666666666666</ele><time>2026-04-11T15:11:27Z</time></trkpt><trkpt lat="43.26886144311938" lon="12.928420968163945"><ele>602.8333333333334</ele><time>2026-04-11T15:11:28Z</time></trkpt><trkpt lat="43.268879524323005" lon="12.928564400569721"><ele>603.0</ele><time>2026-04-11T15:11:30Z</time></trkpt><trkpt lat="43.26885522104462" lon="12.928659693538103"><ele>596.0</ele><time>2026-04-11T15:11:31Z</time></trkpt><trkpt lat="43.2687978167945" lon="12.92875183595999"><ele>589.0</ele><time>2026-04-11T15:11:32Z</time></trkpt><trkpt lat="43.268749184035975" lon="12.928833674994264"><ele>582.0</ele><time>2026-04-11T15:11:33Z</time></trkpt><trkpt lat="43.26871825353861" lon="12.928928043694262"><ele>575.0</ele><time>2026-04-11T15:11:34Z</time></trkpt><trkpt lat="43.26869893292494" lon="12.929033568045739"><ele>568.0</ele><time>2026-04-11T15:11:35Z</time></trkpt><trkpt lat="43.26868229358723" lon="12.929140833010965"><ele>561.0</ele><time>2026-04-11T15:11:36Z</time></trkpt><trkpt lat="43.26866276819032" lon="12.929260994294582"><ele>559.6666666666666</ele><time>2026-04-11T15:11:37Z</time></trkpt><trkpt lat="43.26864004068264" lon="12.929357243265759"><ele>558.3333333333334</ele><time>2026-04-11T15:11:38Z</time></trkpt><trkpt lat="43.26861707064926" lon="12.929479964948982"><ele>557.0</ele><time>2026-04-11T15:11:39Z</time></trkpt><trkpt lat="43.26859918918595" lon="12.92958129331852"><ele>555.6666666666667</ele><time>2026-04-11T15:11:40Z</time></trkpt><trkpt lat="43.26857159215461" lon="12.929713620480419"><ele>554.3333333333334</ele><time>2026-04-11T15:11:41Z</time></trkpt><trkpt lat="43.26855628754574" lon="12.929818200558291"><ele>553.0</ele><time>2026-04-11T15:11:42Z</time></trkpt><trkpt lat="43.26853678638157" lon="12.929928690237753"><ele>553.0</ele><time>2026-04-11T15:11:43Z</time></trkpt><trkpt lat="43.26851540393558" lon="12.93005696337374"><ele>553.0</ele><time>2026-04-11T15:11:44Z</time></trkpt><trkpt lat="43.26849765233508" lon="12.930185363473017"><ele>553.0</ele><time>2026-04-11T15:11:45Z</time></trkpt><trkpt lat="43.26848470385147" lon="12.930308407547503"><ele>553.0</ele><time>2026-04-11T15:11:46Z</time></trkpt><trkpt lat="43.268470149126756" lon="12.93042874671233"><ele>553.0</ele><time>2026-04-11T15:11:47Z</time></trkpt><trkpt lat="43.268453124999446" lon="12.93055894005261"><ele>551.8333333333334</ele><time>2026-04-11T15:11:48Z</time></trkpt><trkpt lat="43.26844117752427" lon="12.930684449571146"><ele>550.6666666666667</ele><time>2026-04-11T15:11:49Z</time></trkpt><trkpt lat="43.26842213415701" lon="12.930791581301985"><ele>549.5</ele><time>2026-04-11T15:11:50Z</time></trkpt><trkpt lat="43.26839995460568" lon="12.930908423928612"><ele>548.3333333333334</ele><time>2026-04-11T15:11:51Z</time></trkpt><trkpt lat="43.268387171808804" lon="12.931025369202985"><ele>547.1666666666666</ele><time>2026-04-11T15:11:52Z</time></trkpt><trkpt lat="43.26836913942398" lon="12.931146206492615"><ele>546.0</ele><time>2026-04-11T15:11:53Z</time></trkpt><trkpt lat="43.26834840429519" lon="12.931268287698682"><ele>544.8</ele><time>2026-04-11T15:11:54Z</time></trkpt><trkpt lat="43.268318708270954" lon="12.93138221721976"><ele>543.6</ele><time>2026-04-11T15:11:55Z</time></trkpt><trkpt lat="43.26827990423583" lon="12.931498150388428"><ele>542.4</ele><time>2026-04-11T15:11:56Z</time></trkpt><trkpt lat="43.268246156647805" lon="12.931605881162895"><ele>541.2</ele><time>2026-04-11T15:11:56.999Z</time></trkpt><trkpt lat="43.26819957623771" lon="12.931738832083006"><ele>540.0</ele><time>2026-04-11T15:11:57.999Z</time></trkpt><trkpt lat="43.26815112889468" lon="12.931847655844024"><ele>533.2</ele><time>2026-04-11T15:11:58.999Z</time></trkpt><trkpt lat="43.268101550251586" lon="12.931968763393193"><ele>526.4</ele><time>2026-04-11T15:11:59.999Z</time></trkpt><trkpt lat="43.26804654410511" lon="12.932085129655977"><ele>519.6</ele><time>2026-04-11T15:12:00.999Z</time></trkpt><trkpt lat="43.267982324051246" lon="12.932193736099423"><ele>512.8</ele><time>2026-04-11T15:12:01.999Z</time></trkpt><trkpt lat="43.26792499053084" lon="12.93230773258359"><ele>506.0</ele><time>2026-04-11T15:12:02.999Z</time></trkpt><trkpt lat="43.267876845053166" lon="12.932438332251577"><ele>506.0</ele><time>2026-04-11T15:12:03.999Z</time></trkpt><trkpt lat="43.2678213287379" lon="12.932552695985347"><ele>506.0</ele><time>2026-04-11T15:12:04.999Z</time></trkpt><trkpt lat="43.26778207172942" lon="12.932660575864329"><ele>506.0</ele><time>2026-04-11T15:12:05.999Z</time></trkpt><trkpt lat="43.26766684115779" lon="12.932759679071033"><ele>506.0</ele><time>2026-04-11T15:12:06.999Z</time></trkpt><trkpt lat="43.267638227208664" lon="12.93285101066972"><ele>506.0</ele><time>2026-04-11T15:12:07.999Z</time></trkpt><trkpt lat="43.26760411836177" lon="12.932932324616699"><ele>506.4</ele><time>2026-04-11T15:12:08.999Z</time></trkpt><trkpt lat="43.26753848423992" lon="12.933048652060666"><ele>506.8</ele><time>2026-04-11T15:12:10.999Z</time></trkpt><trkpt lat="43.267428372503794" lon="12.933156825225337"><ele>507.19999999999993</ele><time>2026-04-11T15:12:12.999Z</time></trkpt><trkpt lat="43.267374242302765" lon="12.93320810363897"><ele>507.59999999999997</ele><time>2026-04-11T15:12:13.999Z</time></trkpt><trkpt lat="43.267325500423205" lon="12.933265805191608"><ele>508.0</ele><time>2026-04-11T15:12:14.999Z</time></trkpt><trkpt lat="43.26725058119301" lon="12.933335420170918"><ele>508.00000000000006</ele><time>2026-04-11T15:12:16.999Z</time></trkpt><trkpt lat="43.26726698944474" lon="12.933419166709314"><ele>508.0</ele><time>2026-04-11T15:12:34.999Z</time></trkpt><trkpt lat="43.267364180840985" lon="12.933459170306152"><ele>508.0</ele><time>2026-04-11T15:12:36.999Z</time></trkpt><trkpt lat="43.26744812551707" lon="12.933444034696635"><ele>508.0</ele><time>2026-04-11T15:12:38.999Z</time></trkpt><trkpt lat="43.267486452386535" lon="12.933516697190374"><ele>508.00000000000006</ele><time>2026-04-11T15:12:39.999Z</time></trkpt><trkpt lat="43.26754573433811" lon="12.933590335120343"><ele>508.0</ele><time>2026-04-11T15:12:41.999Z</time></trkpt><trkpt lat="43.26754199876516" lon="12.933678459525712"><ele>508.0</ele><time>2026-04-11T15:12:42.999Z</time></trkpt><trkpt lat="43.267447582285065" lon="12.933735008559452"><ele>507.99999999999994</ele><time>2026-04-11T15:12:43.999Z</time></trkpt><trkpt lat="43.267394436879876" lon="12.933850891480109"><ele>507.99999999999994</ele><time>2026-04-11T15:12:44.999Z</time></trkpt><trkpt lat="43.267339294301884" lon="12.93396857448026"><ele>508.0</ele><time>2026-04-11T15:12:45.999Z</time></trkpt><trkpt lat="43.267273167358" lon="12.934095845932605"><ele>508.0</ele><time>2026-04-11T15:12:46.999Z</time></trkpt><trkpt lat="43.26719546730164" lon="12.934235851883592"><ele>509.4</ele><time>2026-04-11T15:12:47.999Z</time></trkpt><trkpt lat="43.26716444914983" lon="12.934376058848537"><ele>510.79999999999995</ele><time>2026-04-11T15:12:48.999Z</time></trkpt><trkpt lat="43.2671199756332" lon="12.934525983277442"><ele>512.2</ele><time>2026-04-11T15:12:49.999Z</time></trkpt><trkpt lat="43.26709277967507" lon="12.93465124024953"><ele>513.6</ele><time>2026-04-11T15:12:50.999Z</time></trkpt><trkpt lat="43.26704792280487" lon="12.93480292828865"><ele>515.0</ele><time>2026-04-11T15:12:51.999Z</time></trkpt><trkpt lat="43.267003638206354" lon="12.93493938120825"><ele>518.75</ele><time>2026-04-11T15:12:52.999Z</time></trkpt><trkpt lat="43.26695203941336" lon="12.935080710691286"><ele>522.5</ele><time>2026-04-11T15:12:53.999Z</time></trkpt><trkpt lat="43.26689935012268" lon="12.935235318740588"><ele>526.25</ele><time>2026-04-11T15:12:54.999Z</time></trkpt><trkpt lat="43.26689296644451" lon="12.935400102956542"><ele>530.0</ele><time>2026-04-11T15:12:55.999Z</time></trkpt><trkpt lat="43.26690156825755" lon="12.935564475590034"><ele>530.0</ele><time>2026-04-11T15:12:56.999Z</time></trkpt><trkpt lat="43.266887772291334" lon="12.935743666564635"><ele>530.0</ele><time>2026-04-11T15:12:57.999Z</time></trkpt><trkpt lat="43.266890394459516" lon="12.935916502783769"><ele>530.0</ele><time>2026-04-11T15:12:58.999Z</time></trkpt><trkpt lat="43.26690785973414" lon="12.936125817765323"><ele>530.0</ele><time>2026-04-11T15:12:59.999Z</time></trkpt><trkpt lat="43.26691257797709" lon="12.936306092282551"><ele>533.0</ele><time>2026-04-11T15:13:00.999Z</time></trkpt><trkpt lat="43.266916447629214" lon="12.93648986908755"><ele>536.0</ele><time>2026-04-11T15:13:01.999Z</time></trkpt><trkpt lat="43.2669286188718" lon="12.936612626356958"><ele>539.0</ele><time>2026-04-11T15:13:02.999Z</time></trkpt><trkpt lat="43.26694564674475" lon="12.93673048709408"><ele>542.0</ele><time>2026-04-11T15:13:03.999Z</time></trkpt><trkpt lat="43.266954450127265" lon="12.936836023403165"><ele>545.0</ele><time>2026-04-11T15:13:04.999Z</time></trkpt><trkpt lat="43.26694966573089" lon="12.9369796844188"><ele>545.4</ele><time>2026-04-11T15:13:06.999Z</time></trkpt><trkpt lat="43.267060316368514" lon="12.937129826363064"><ele>545.8</ele><time>2026-04-11T15:13:08.999Z</time></trkpt><trkpt lat="43.2670810716742" lon="12.937301391371117"><ele>546.2</ele><time>2026-04-11T15:13:10.999Z</time></trkpt><trkpt lat="43.26709393164243" lon="12.937396468518433"><ele>546.6</ele><time>2026-04-11T15:13:11.999Z</time></trkpt><trkpt lat="43.26711011984235" lon="12.937491452549185"><ele>547.0</ele><time>2026-04-11T15:13:12.999Z</time></trkpt><trkpt lat="43.26712649515899" lon="12.937576497259647"><ele>546.1666666666667</ele><time>2026-04-11T15:13:13.999Z</time></trkpt><trkpt lat="43.26714638802834" lon="12.937710048547759"><ele>545.3333333333334</ele><time>2026-04-11T15:13:15.999Z</time></trkpt><trkpt lat="43.267139886519736" lon="12.937838750629778"><ele>544.5</ele><time>2026-04-11T15:13:17.999Z</time></trkpt><trkpt lat="43.267069120453506" lon="12.937892060738115"><ele>543.6666666666666</ele><time>2026-04-11T15:13:19.999Z</time></trkpt><trkpt lat="43.26698473108225" lon="12.937944306050014"><ele>542.8333333333333</ele><time>2026-04-11T15:13:21.999Z</time></trkpt><trkpt lat="43.266922162725926" lon="12.937980249946555"><ele>542.0</ele><time>2026-04-11T15:13:22.999Z</time></trkpt><trkpt lat="43.26681518114029" lon="12.938066193728387"><ele>542.0</ele><time>2026-04-11T15:13:24.998Z</time></trkpt><trkpt lat="43.266758188195055" lon="12.938137750368652"><ele>542.0</ele><time>2026-04-11T15:13:27Z</time></trkpt><trkpt lat="43.266705564827205" lon="12.938199767677704"><ele>542.0</ele><time>2026-04-11T15:13:30Z</time></trkpt><trkpt lat="43.26665585724293" lon="12.93809028750488"><ele>542.0</ele><time>2026-04-11T15:13:33Z</time></trkpt><trkpt lat="43.2665636115758" lon="12.938100592409736"><ele>542.0</ele><time>2026-04-11T15:13:36Z</time></trkpt><trkpt lat="43.26649274910184" lon="12.938093613856035"><ele>542.0</ele><time>2026-04-11T15:13:37Z</time></trkpt><trkpt lat="43.2663956835583" lon="12.9381726634427"><ele>539.0</ele><time>2026-04-11T15:13:39Z</time></trkpt><trkpt lat="43.26630278249563" lon="12.938226995868272"><ele>536.0</ele><time>2026-04-11T15:13:41Z</time></trkpt><trkpt lat="43.26617857935779" lon="12.9382727770828"><ele>533.0</ele><time>2026-04-11T15:13:43Z</time></trkpt><trkpt lat="43.26609761533741" lon="12.938314379848753"><ele>530.0</ele><time>2026-04-11T15:13:44Z</time></trkpt><trkpt lat="43.266010513244886" lon="12.93838232078645"><ele>527.0</ele><time>2026-04-11T15:13:45Z</time></trkpt><trkpt lat="43.26592303804769" lon="12.938444539938768"><ele>527.0</ele><time>2026-04-11T15:13:46Z</time></trkpt><trkpt lat="43.26583425097494" lon="12.938488059250698"><ele>527.0</ele><time>2026-04-11T15:13:47Z</time></trkpt><trkpt lat="43.26574707466127" lon="12.938586617436412"><ele>527.0</ele><time>2026-04-11T15:13:48Z</time></trkpt><trkpt lat="43.26568323089264" lon="12.938698234929259"><ele>527.0</ele><time>2026-04-11T15:13:49Z</time></trkpt><trkpt lat="43.265627857933254" lon="12.938815489188638"><ele>527.0</ele><time>2026-04-11T15:13:50Z</time></trkpt><trkpt lat="43.26559667426299" lon="12.938928013145174"><ele>526.0</ele><time>2026-04-11T15:13:51Z</time></trkpt><trkpt lat="43.265548013431186" lon="12.939032232301228"><ele>525.0</ele><time>2026-04-11T15:13:52Z</time></trkpt><trkpt lat="43.2655033606283" lon="12.939118217129241"><ele>524.0</ele><time>2026-04-11T15:13:53Z</time></trkpt><trkpt lat="43.26545927686977" lon="12.939199493896567"><ele>523.0</ele><time>2026-04-11T15:13:54Z</time></trkpt><trkpt lat="43.26542961623846" lon="12.939290611198414"><ele>522.0</ele><time>2026-04-11T15:13:55Z</time></trkpt><trkpt lat="43.26537725490478" lon="12.93934682479281"><ele>521.0</ele><time>2026-04-11T15:13:56Z</time></trkpt><trkpt lat="43.26530000982975" lon="12.939474867623879"><ele>521.0</ele><time>2026-04-11T15:13:58Z</time></trkpt><trkpt lat="43.265219076477464" lon="12.939605490236723"><ele>521.0</ele><time>2026-04-11T15:14:00Z</time></trkpt><trkpt lat="43.265175436832095" lon="12.939677906291253"><ele>521.0</ele><time>2026-04-11T15:14:01Z</time></trkpt><trkpt lat="43.26521946131466" lon="12.939833839252579"><ele>521.0</ele><time>2026-04-11T15:14:02Z</time></trkpt><trkpt lat="43.26519604471257" lon="12.939932232834037"><ele>521.0</ele><time>2026-04-11T15:14:03Z</time></trkpt><trkpt lat="43.265149922708815" lon="12.940033728933086"><ele>520.6666666666666</ele><time>2026-04-11T15:14:04Z</time></trkpt><trkpt lat="43.265112278002725" lon="12.940133394993703"><ele>520.3333333333333</ele><time>2026-04-11T15:14:05Z</time></trkpt><trkpt lat="43.26507409994617" lon="12.940229782157289"><ele>520.0</ele><time>2026-04-11T15:14:06Z</time></trkpt><trkpt lat="43.2650503216044" lon="12.94033258491583"><ele>519.6666666666666</ele><time>2026-04-11T15:14:07Z</time></trkpt><trkpt lat="43.26501035235843" lon="12.940434055691627"><ele>519.3333333333334</ele><time>2026-04-11T15:14:08Z</time></trkpt><trkpt lat="43.26497149786114" lon="12.940531268505618"><ele>519.0</ele><time>2026-04-11T15:14:09Z</time></trkpt><trkpt lat="43.264933761127395" lon="12.940623194969424"><ele>519.0</ele><time>2026-04-11T15:14:09.999Z</time></trkpt><trkpt lat="43.264901196872366" lon="12.940710146356846"><ele>519.0</ele><time>2026-04-11T15:14:10.999Z</time></trkpt><trkpt lat="43.2648497351761" lon="12.940815924170986"><ele>519.0</ele><time>2026-04-11T15:14:12.999Z</time></trkpt><trkpt lat="43.26479717186747" lon="12.940870685516174"><ele>519.0</ele><time>2026-04-11T15:14:14.999Z</time></trkpt><trkpt lat="43.26483657363735" lon="12.940795693031035"><ele>519.0</ele><time>2026-04-11T15:14:35.999Z</time></trkpt><trkpt lat="43.26473955689156" lon="12.94073624550072"><ele>519.0</ele><time>2026-04-11T15:14:41.999Z</time></trkpt><trkpt lat="43.26467517212561" lon="12.940743142734439"><ele>518.2</ele><time>2026-04-11T15:14:48.999Z</time></trkpt><trkpt lat="43.26465341018597" lon="12.9408803742337"><ele>517.4</ele><time>2026-04-11T15:14:52.999Z</time></trkpt><trkpt lat="43.264581184613014" lon="12.940937421110762"><ele>516.6</ele><time>2026-04-11T15:14:57.999Z</time></trkpt><trkpt lat="43.26451956061901" lon="12.941065189896376"><ele>515.8</ele><time>2026-04-11T15:14:59.999Z</time></trkpt><trkpt lat="43.26447778865739" lon="12.941151686019614"><ele>515.0</ele><time>2026-04-11T15:15:00.999Z</time></trkpt><trkpt lat="43.26442320089731" lon="12.941263710929773"><ele>515.0</ele><time>2026-04-11T15:15:01.999Z</time></trkpt><trkpt lat="43.26436538303032" lon="12.941381228036034"><ele>515.0</ele><time>2026-04-11T15:15:02.999Z</time></trkpt><trkpt lat="43.26429788161423" lon="12.941516460554752"><ele>515.0</ele><time>2026-04-11T15:15:03.999Z</time></trkpt><trkpt lat="43.26422243641396" lon="12.941663127997908"><ele>515.0</ele><time>2026-04-11T15:15:04.999Z</time></trkpt><trkpt lat="43.264138646991235" lon="12.941820298621773"><ele>518.5</ele><time>2026-04-11T15:15:05.999Z</time></trkpt><trkpt lat="43.264060652737435" lon="12.941963901009661"><ele>522.0</ele><time>2026-04-11T15:15:06.999Z</time></trkpt><trkpt lat="43.26398832266931" lon="12.942095303880029"><ele>525.5</ele><time>2026-04-11T15:15:07.999Z</time></trkpt><trkpt lat="43.26391964150047" lon="12.9422190302506"><ele>529.0</ele><time>2026-04-11T15:15:08.999Z</time></trkpt><trkpt lat="43.263850060741454" lon="12.942343540113546"><ele>525.25</ele><time>2026-04-11T15:15:09.999Z</time></trkpt><trkpt lat="43.263774360210554" lon="12.942471659812185"><ele>521.5</ele><time>2026-04-11T15:15:10.999Z</time></trkpt><trkpt lat="43.26369353831939" lon="12.942607110986582"><ele>517.75</ele><time>2026-04-11T15:15:11.999Z</time></trkpt><trkpt lat="43.26360895109143" lon="12.9427488725787"><ele>514.0</ele><time>2026-04-11T15:15:12.999Z</time></trkpt><trkpt lat="43.26352903119638" lon="12.942899147366376"><ele>514.0</ele><time>2026-04-11T15:15:13.999Z</time></trkpt><trkpt lat="43.26345280199269" lon="12.943054857196305"><ele>514.0</ele><time>2026-04-11T15:15:14.999Z</time></trkpt><trkpt lat="43.26338828535684" lon="12.943202540064622"><ele>514.0</ele><time>2026-04-11T15:15:15.999Z</time></trkpt><trkpt lat="43.26333634703407" lon="12.94333884766848"><ele>514.0</ele><time>2026-04-11T15:15:16.999Z</time></trkpt><trkpt lat="43.263298022039265" lon="12.943485131601415"><ele>514.8</ele><time>2026-04-11T15:15:17.999Z</time></trkpt><trkpt lat="43.263278220843056" lon="12.943629223544246"><ele>515.5999999999999</ele><time>2026-04-11T15:15:18.999Z</time></trkpt><trkpt lat="43.26326134103897" lon="12.943764174985267"><ele>516.4</ele><time>2026-04-11T15:15:19.999Z</time></trkpt><trkpt lat="43.26324984336728" lon="12.94390440868254"><ele>517.1999999999999</ele><time>2026-04-11T15:15:20.999Z</time></trkpt><trkpt lat="43.2632507639812" lon="12.944041896873113"><ele>518.0</ele><time>2026-04-11T15:15:21.999Z</time></trkpt><trkpt lat="43.26329288639458" lon="12.944180935324283"><ele>516.0</ele><time>2026-04-11T15:15:22.999Z</time></trkpt><trkpt lat="43.263312451131526" lon="12.944344929043531"><ele>514.0</ele><time>2026-04-11T15:15:23.999Z</time></trkpt><trkpt lat="43.263352400670776" lon="12.944509192263867"><ele>512.0</ele><time>2026-04-11T15:15:24.999Z</time></trkpt><trkpt lat="43.26339633461314" lon="12.944675157128387"><ele>510.0</ele><time>2026-04-11T15:15:25.999Z</time></trkpt><trkpt lat="43.26343954681459" lon="12.94482769279021"><ele>510.0</ele><time>2026-04-11T15:15:26.999Z</time></trkpt><trkpt lat="43.26348431106587" lon="12.944963282850209"><ele>510.0</ele><time>2026-04-11T15:15:27.999Z</time></trkpt><trkpt lat="43.26353571849784" lon="12.945086633987595"><ele>510.0</ele><time>2026-04-11T15:15:28.999Z</time></trkpt><trkpt lat="43.2635974780632" lon="12.945215896478187"><ele>510.0</ele><time>2026-04-11T15:15:29.999Z</time></trkpt><trkpt lat="43.263661134714326" lon="12.945364322728722"><ele>508.25</ele><time>2026-04-11T15:15:30.999Z</time></trkpt><trkpt lat="43.26371937447117" lon="12.9455122567454"><ele>506.5</ele><time>2026-04-11T15:15:32Z</time></trkpt><trkpt lat="43.263778797182454" lon="12.94566198638855"><ele>504.75</ele><time>2026-04-11T15:15:33Z</time></trkpt><trkpt lat="43.263840591990665" lon="12.945804981598137"><ele>503.0</ele><time>2026-04-11T15:15:34Z</time></trkpt><trkpt lat="43.263876449557294" lon="12.94591901734734"><ele>502.99999999999994</ele><time>2026-04-11T15:15:35Z</time></trkpt><trkpt lat="43.26389311288514" lon="12.946012560053617"><ele>503.0</ele><time>2026-04-11T15:15:36Z</time></trkpt><trkpt lat="43.26386987300136" lon="12.94615045736148"><ele>503.0</ele><time>2026-04-11T15:15:38Z</time></trkpt><trkpt lat="43.26376496294117" lon="12.94623820800553"><ele>503.0</ele><time>2026-04-11T15:15:40Z</time></trkpt><trkpt lat="43.263698555592754" lon="12.946262162156103"><ele>502.99999999999994</ele><time>2026-04-11T15:15:41Z</time></trkpt><trkpt lat="43.26363491776471" lon="12.946261844133144"><ele>503.0</ele><time>2026-04-11T15:15:42Z</time></trkpt><trkpt lat="43.263566736820636" lon="12.946269805691216"><ele>503.0</ele><time>2026-04-11T15:15:43Z</time></trkpt><trkpt lat="43.263475953069104" lon="12.94628107948319"><ele>502.99999999999994</ele><time>2026-04-11T15:15:44Z</time></trkpt><trkpt lat="43.26337344024292" lon="12.946300641037297"><ele>502.99999999999994</ele><time>2026-04-11T15:15:45Z</time></trkpt><trkpt lat="43.26326294945495" lon="12.946338201142659"><ele>503.0</ele><time>2026-04-11T15:15:46Z</time></trkpt><trkpt lat="43.263146829103015" lon="12.946380763839645"><ele>503.0</ele><time>2026-04-11T15:15:47Z</time></trkpt><trkpt lat="43.2630280809512" lon="12.946426488699975"><ele>499.75</ele><time>2026-04-11T15:15:48Z</time></trkpt><trkpt lat="43.26291100424996" lon="12.946468541800911"><ele>496.5</ele><time>2026-04-11T15:15:49Z</time></trkpt><trkpt lat="43.262793399268936" lon="12.946491878507745"><ele>493.25</ele><time>2026-04-11T15:15:50Z</time></trkpt><trkpt lat="43.262677224766435" lon="12.94649941150734"><ele>490.0</ele><time>2026-04-11T15:15:51Z</time></trkpt><trkpt lat="43.26256560298402" lon="12.946508601035987"><ele>490.00000000000006</ele><time>2026-04-11T15:15:52Z</time></trkpt><trkpt lat="43.26248230212764" lon="12.946508605460437"><ele>490.0</ele><time>2026-04-11T15:15:53Z</time></trkpt><trkpt lat="43.2624162493417" lon="12.946466166442871"><ele>490.0</ele><time>2026-04-11T15:15:54Z</time></trkpt><trkpt lat="43.26235013763562" lon="12.946396237022046"><ele>490.0</ele><time>2026-04-11T15:15:55Z</time></trkpt><trkpt lat="43.26228303008557" lon="12.94629242497753"><ele>490.00000000000006</ele><time>2026-04-11T15:15:56Z</time></trkpt><trkpt lat="43.262236337810386" lon="12.946184860511135"><ele>490.0</ele><time>2026-04-11T15:15:57Z</time></trkpt><trkpt lat="43.2622357878295" lon="12.946073841788131"><ele>487.83333333333337</ele><time>2026-04-11T15:15:58Z</time></trkpt><trkpt lat="43.26224461627622" lon="12.945940192548086"><ele>485.6666666666667</ele><time>2026-04-11T15:15:59Z</time></trkpt><trkpt lat="43.262239246491234" lon="12.945820750139655"><ele>483.5</ele><time>2026-04-11T15:16:00Z</time></trkpt><trkpt lat="43.262208183671575" lon="12.94571031200816"><ele>481.33333333333337</ele><time>2026-04-11T15:16:01Z</time></trkpt><trkpt lat="43.262158905447826" lon="12.94563961963849"><ele>479.1666666666667</ele><time>2026-04-11T15:16:02Z</time></trkpt><trkpt lat="43.262108140723385" lon="12.945580778255781"><ele>477.0</ele><time>2026-04-11T15:16:03Z</time></trkpt><trkpt lat="43.262026228519005" lon="12.945568957583548"><ele>475.25</ele><time>2026-04-11T15:16:04Z</time></trkpt><trkpt lat="43.26192679876823" lon="12.94562185506452"><ele>473.5</ele><time>2026-04-11T15:16:05Z</time></trkpt><trkpt lat="43.261831513625545" lon="12.945693576209916"><ele>471.75</ele><time>2026-04-11T15:16:06Z</time></trkpt><trkpt lat="43.26172579828869" lon="12.945774002768692"><ele>470.0</ele><time>2026-04-11T15:16:07Z</time></trkpt><trkpt lat="43.26160749504252" lon="12.945867242301913"><ele>468.5</ele><time>2026-04-11T15:16:08Z</time></trkpt><trkpt lat="43.261480170537084" lon="12.945969577149313"><ele>467.0</ele><time>2026-04-11T15:16:09Z</time></trkpt><trkpt lat="43.26135588812238" lon="12.946076687804272"><ele>465.5</ele><time>2026-04-11T15:16:10Z</time></trkpt><trkpt lat="43.261237516539126" lon="12.946185919957008"><ele>464.0</ele><time>2026-04-11T15:16:11Z</time></trkpt><trkpt lat="43.26112411249691" lon="12.946306585455869"><ele>464.0</ele><time>2026-04-11T15:16:12Z</time></trkpt><trkpt lat="43.26100777755112" lon="12.94639271738205"><ele>464.0</ele><time>2026-04-11T15:16:13Z</time></trkpt><trkpt lat="43.26088190825966" lon="12.946440253220144"><ele>464.0</ele><time>2026-04-11T15:16:14Z</time></trkpt><trkpt lat="43.26074857247337" lon="12.946491382045163"><ele>464.0</ele><time>2026-04-11T15:16:15Z</time></trkpt><trkpt lat="43.26062295283172" lon="12.946537271968928"><ele>463.25</ele><time>2026-04-11T15:16:16Z</time></trkpt><trkpt lat="43.26050267983736" lon="12.94658200042628"><ele>462.5</ele><time>2026-04-11T15:16:17Z</time></trkpt><trkpt lat="43.26039035463423" lon="12.946630108414924"><ele>461.75</ele><time>2026-04-11T15:16:18Z</time></trkpt><trkpt lat="43.26028181415827" lon="12.946678025172192"><ele>461.0</ele><time>2026-04-11T15:16:19Z</time></trkpt><trkpt lat="43.26018032322232" lon="12.946723238626646"><ele>461.0</ele><time>2026-04-11T15:16:20Z</time></trkpt><trkpt lat="43.260081295696196" lon="12.946767354676792"><ele>461.0</ele><time>2026-04-11T15:16:20.999Z</time></trkpt><trkpt lat="43.259985544178356" lon="12.946805752787514"><ele>461.0</ele><time>2026-04-11T15:16:21.999Z</time></trkpt><trkpt lat="43.25989054155433" lon="12.946847028379446"><ele>461.0</ele><time>2026-04-11T15:16:22.999Z</time></trkpt><trkpt lat="43.259801002800366" lon="12.946893749201708"><ele>461.0</ele><time>2026-04-11T15:16:23.999Z</time></trkpt><trkpt lat="43.25971239479279" lon="12.946946677246657"><ele>458.8</ele><time>2026-04-11T15:16:24.999Z</time></trkpt><trkpt lat="43.259627666255156" lon="12.946997656976292"><ele>456.6</ele><time>2026-04-11T15:16:25.999Z</time></trkpt><trkpt lat="43.25953702542553" lon="12.947049860783105"><ele>454.4</ele><time>2026-04-11T15:16:26.999Z</time></trkpt><trkpt lat="43.25944254198961" lon="12.947094394657968"><ele>452.2</ele><time>2026-04-11T15:16:27.999Z</time></trkpt><trkpt lat="43.259350569857965" lon="12.94713252596373"><ele>450.0</ele><time>2026-04-11T15:16:28.999Z</time></trkpt><trkpt lat="43.25925738101411" lon="12.947166150052075"><ele>450.0</ele><time>2026-04-11T15:16:29.999Z</time></trkpt><trkpt lat="43.25916089032466" lon="12.947200478879669"><ele>450.0</ele><time>2026-04-11T15:16:30.999Z</time></trkpt><trkpt lat="43.25906933435616" lon="12.94723586052313"><ele>450.0</ele><time>2026-04-11T15:16:31.999Z</time></trkpt><trkpt lat="43.258990611852745" lon="12.947249568323242"><ele>450.0</ele><time>2026-04-11T15:16:32.999Z</time></trkpt><trkpt lat="43.25889953957247" lon="12.947169073609825"><ele>450.0</ele><time>2026-04-11T15:16:34.999Z</time></trkpt><trkpt lat="43.25883532930928" lon="12.94706164240729"><ele>449.0</ele><time>2026-04-11T15:16:35.999Z</time></trkpt><trkpt lat="43.25873124432514" lon="12.947007886192145"><ele>448.0</ele><time>2026-04-11T15:16:36.999Z</time></trkpt><trkpt lat="43.258619656415426" lon="12.946967542042328"><ele>447.0</ele><time>2026-04-11T15:16:37.999Z</time></trkpt><trkpt lat="43.25849915461137" lon="12.946905108241635"><ele>446.0</ele><time>2026-04-11T15:16:38.999Z</time></trkpt><trkpt lat="43.258376993452" lon="12.946879947433361"><ele>446.0</ele><time>2026-04-11T15:16:39.999Z</time></trkpt><trkpt lat="43.25825251538985" lon="12.946879080925994"><ele>446.0</ele><time>2026-04-11T15:16:40.999Z</time></trkpt><trkpt lat="43.25813272041111" lon="12.946903420124796"><ele>446.0</ele><time>2026-04-11T15:16:41.999Z</time></trkpt><trkpt lat="43.25801129424964" lon="12.946934072942593"><ele>446.0</ele><time>2026-04-11T15:16:42.999Z</time></trkpt><trkpt lat="43.257892175207054" lon="12.946962288025619"><ele>445.75</ele><time>2026-04-11T15:16:43.999Z</time></trkpt><trkpt lat="43.257772308369425" lon="12.946973302619998"><ele>445.5</ele><time>2026-04-11T15:16:44.999Z</time></trkpt><trkpt lat="43.257654766196" lon="12.946975317921357"><ele>445.25</ele><time>2026-04-11T15:16:45.999Z</time></trkpt><trkpt lat="43.25754112153954" lon="12.946961269520243"><ele>445.0</ele><time>2026-04-11T15:16:46.999Z</time></trkpt><trkpt lat="43.25742816090713" lon="12.946973562468317"><ele>445.0</ele><time>2026-04-11T15:16:47.999Z</time></trkpt><trkpt lat="43.25730580239921" lon="12.947014994538144"><ele>445.0</ele><time>2026-04-11T15:16:48.999Z</time></trkpt><trkpt lat="43.257187456495856" lon="12.947108461300607"><ele>445.0</ele><time>2026-04-11T15:16:49.999Z</time></trkpt><trkpt lat="43.25706204578165" lon="12.947202640596208"><ele>445.0</ele><time>2026-04-11T15:16:50.999Z</time></trkpt><trkpt lat="43.25693139766719" lon="12.947298135615577"><ele>445.5</ele><time>2026-04-11T15:16:51.999Z</time></trkpt><trkpt lat="43.25680543580571" lon="12.947389478365945"><ele>446.0</ele><time>2026-04-11T15:16:52.999Z</time></trkpt><trkpt lat="43.25668518672429" lon="12.947475788042762"><ele>446.5</ele><time>2026-04-11T15:16:53.999Z</time></trkpt><trkpt lat="43.25657045037897" lon="12.947556468761476"><ele>447.0</ele><time>2026-04-11T15:16:54.999Z</time></trkpt><trkpt lat="43.25646960288788" lon="12.947627383043574"><ele>447.20000000000005</ele><time>2026-04-11T15:16:55.999Z</time></trkpt><trkpt lat="43.25637459907902" lon="12.947695767389657"><ele>447.40000000000003</ele><time>2026-04-11T15:16:56.999Z</time></trkpt><trkpt lat="43.25629221729482" lon="12.947778214966176"><ele>447.59999999999997</ele><time>2026-04-11T15:16:57.999Z</time></trkpt><trkpt lat="43.25619183576394" lon="12.947818794165611"><ele>447.79999999999995</ele><time>2026-04-11T15:16:58.999Z</time></trkpt><trkpt lat="43.25611005649762" lon="12.947847370511608"><ele>448.0</ele><time>2026-04-11T15:16:59.999Z</time></trkpt><trkpt lat="43.25596090528475" lon="12.947857957449262"><ele>448.0</ele><time>2026-04-11T15:17:01.999Z</time></trkpt><trkpt lat="43.2558811765819" lon="12.94786720149837"><ele>447.99999999999994</ele><time>2026-04-11T15:17:02.999Z</time></trkpt><trkpt lat="43.255795447911034" lon="12.947986355766457"><ele>447.99999999999994</ele><time>2026-04-11T15:17:03.999Z</time></trkpt><trkpt lat="43.25569719713187" lon="12.948036681061351"><ele>448.0</ele><time>2026-04-11T15:17:04.999Z</time></trkpt><trkpt lat="43.255594308463586" lon="12.948086599660884"><ele>448.0</ele><time>2026-04-11T15:17:05.999Z</time></trkpt><trkpt lat="43.25548381642248" lon="12.948141309666882"><ele>448.75</ele><time>2026-04-11T15:17:06.999Z</time></trkpt><trkpt lat="43.25535877438747" lon="12.948179835141119"><ele>449.5</ele><time>2026-04-11T15:17:07.999Z</time></trkpt><trkpt lat="43.25523284254662" lon="12.94823874952888"><ele>450.25</ele><time>2026-04-11T15:17:08.999Z</time></trkpt><trkpt lat="43.255102703157355" lon="12.94830052181998"><ele>451.0</ele><time>2026-04-11T15:17:09.999Z</time></trkpt><trkpt lat="43.25497029649016" lon="12.948363370334897"><ele>450.25</ele><time>2026-04-11T15:17:10.999Z</time></trkpt><trkpt lat="43.254837925683965" lon="12.94842695635482"><ele>449.5</ele><time>2026-04-11T15:17:11.999Z</time></trkpt><trkpt lat="43.25470741376513" lon="12.948491111981085"><ele>448.75</ele><time>2026-04-11T15:17:12.999Z</time></trkpt><trkpt lat="43.254591166354984" lon="12.948548255619235"><ele>448.0</ele><time>2026-04-11T15:17:13.999Z</time></trkpt><trkpt lat="43.254482646854406" lon="12.948601600461085"><ele>448.0</ele><time>2026-04-11T15:17:14.999Z</time></trkpt><trkpt lat="43.254382567371785" lon="12.948650796464076"><ele>447.99999999999994</ele><time>2026-04-11T15:17:15.999Z</time></trkpt><trkpt lat="43.25428209529873" lon="12.948700185577676"><ele>447.99999999999994</ele><time>2026-04-11T15:17:16.999Z</time></trkpt><trkpt lat="43.254184074516544" lon="12.948747879391204"><ele>448.0</ele><time>2026-04-11T15:17:17.999Z</time></trkpt><trkpt lat="43.254084276372296" lon="12.948795492361276"><ele>448.0</ele><time>2026-04-11T15:17:18.999Z</time></trkpt><trkpt lat="43.2539868791737" lon="12.948841746803762"><ele>448.0</ele><time>2026-04-11T15:17:19.999Z</time></trkpt><trkpt lat="43.25388925168559" lon="12.948892019886276"><ele>447.99999999999994</ele><time>2026-04-11T15:17:20.999Z</time></trkpt><trkpt lat="43.25379436764934" lon="12.948943925590159"><ele>447.99999999999994</ele><time>2026-04-11T15:17:21.999Z</time></trkpt><trkpt lat="43.25369691752698" lon="12.94899953319796"><ele>448.0</ele><time>2026-04-11T15:17:22.999Z</time></trkpt><trkpt lat="43.25360119147459" lon="12.949056099792214"><ele>448.0</ele><time>2026-04-11T15:17:23.999Z</time></trkpt><trkpt lat="43.253507084633505" lon="12.949113869051908"><ele>448.00000000000006</ele><time>2026-04-11T15:17:24.999Z</time></trkpt><trkpt lat="43.25342066568782" lon="12.949170038959267"><ele>448.0</ele><time>2026-04-11T15:17:25.999Z</time></trkpt><trkpt lat="43.25334597390695" lon="12.949218586581777"><ele>448.0</ele><time>2026-04-11T15:17:26.999Z</time></trkpt><trkpt lat="43.253271127019914" lon="12.949271206671325"><ele>448.0</ele><time>2026-04-11T15:17:27.999Z</time></trkpt><trkpt lat="43.25318639419862" lon="12.949362273392802"><ele>448.00000000000006</ele><time>2026-04-11T15:17:29.999Z</time></trkpt><trkpt lat="43.253115548184155" lon="12.949390809452224"><ele>448.0</ele><time>2026-04-11T15:17:32.999Z</time></trkpt><trkpt lat="43.25310725033594" lon="12.94928950347469"><ele>440.0</ele><time>2026-04-11T15:18:08Z</time></trkpt><trkpt lat="43.25310182289819" lon="12.94920197234012"><ele>446.0</ele><time>2026-04-11T15:18:11Z</time></trkpt><trkpt lat="43.25309815915912" lon="12.949291468939515"><ele>440.0</ele><time>2026-04-11T15:19:34.999Z</time></trkpt><trkpt lat="43.25310439783036" lon="12.949389561155172"><ele>440.0</ele><time>2026-04-11T15:20:04Z</time></trkpt></trkseg><trkseg><trkpt lat="43.253119656422164" lon="12.949169685492341"><ele>445.1428571428571</ele><time>2026-04-11T15:47:59.774Z</time></trkpt><trkpt lat="43.25309683066447" lon="12.949259007985523"><ele>444.2857142857143</ele><time>2026-04-11T15:53:40.999Z</time></trkpt><trkpt lat="43.253087978570704" lon="12.949348022940978"><ele>443.42857142857144</ele><time>2026-04-11T15:53:47.999Z</time></trkpt><trkpt lat="43.25306031453838" lon="12.949429999973002"><ele>442.57142857142856</ele><time>2026-04-11T15:53:59.999Z</time></trkpt><trkpt lat="43.25299377641133" lon="12.94945446393448"><ele>441.7142857142857</ele><time>2026-04-11T15:54:01.999Z</time></trkpt><trkpt lat="43.252901244351186" lon="12.9494922145101"><ele>440.85714285714283</ele><time>2026-04-11T15:54:03.999Z</time></trkpt><trkpt lat="43.25283398603466" lon="12.949521133033706"><ele>440.0</ele><time>2026-04-11T15:54:04.999Z</time></trkpt><trkpt lat="43.252762298256314" lon="12.949553994888664"><ele>439.99999999999994</ele><time>2026-04-11T15:54:05.999Z</time></trkpt><trkpt lat="43.252696878799945" lon="12.949581118643302"><ele>440.0</ele><time>2026-04-11T15:54:06.999Z</time></trkpt><trkpt lat="43.25263318372513" lon="12.949602524998154"><ele>440.0</ele><time>2026-04-11T15:54:07.998Z</time></trkpt><trkpt lat="43.252560839822415" lon="12.949612922007711"><ele>440.0</ele><time>2026-04-11T15:54:09.998Z</time></trkpt><trkpt lat="43.2524749673201" lon="12.949643154942635"><ele>439.99999999999994</ele><time>2026-04-11T15:54:12.998Z</time></trkpt><trkpt lat="43.252397550139435" lon="12.94965694290582"><ele>440.0</ele><time>2026-04-11T15:54:13.998Z</time></trkpt><trkpt lat="43.25230771959484" lon="12.949720379091044"><ele>439.2</ele><time>2026-04-11T15:54:14.998Z</time></trkpt><trkpt lat="43.252203808664234" lon="12.949755742408756"><ele>438.4</ele><time>2026-04-11T15:54:15.998Z</time></trkpt><trkpt lat="43.25210769526412" lon="12.949778718627263"><ele>437.6</ele><time>2026-04-11T15:54:16.998Z</time></trkpt><trkpt lat="43.25202144017068" lon="12.949778352079427"><ele>436.8</ele><time>2026-04-11T15:54:17.998Z</time></trkpt><trkpt lat="43.25192736014528" lon="12.949755291105795"><ele>436.0</ele><time>2026-04-11T15:54:18.998Z</time></trkpt><trkpt lat="43.251826240488924" lon="12.949678472079365"><ele>436.0</ele><time>2026-04-11T15:54:20Z</time></trkpt><trkpt lat="43.25171953290916" lon="12.949595437234443"><ele>436.0</ele><time>2026-04-11T15:54:21Z</time></trkpt><trkpt lat="43.25159880572769" lon="12.949546914904078"><ele>436.0</ele><time>2026-04-11T15:54:22Z</time></trkpt><trkpt lat="43.25147879677777" lon="12.949510503165403"><ele>436.0</ele><time>2026-04-11T15:54:23Z</time></trkpt><trkpt lat="43.251359496554336" lon="12.949546226295732"><ele>437.0</ele><time>2026-04-11T15:54:24Z</time></trkpt><trkpt lat="43.25127071321112" lon="12.94964430341131"><ele>438.0</ele><time>2026-04-11T15:54:25Z</time></trkpt><trkpt lat="43.251193418187135" lon="12.94974364037889"><ele>439.0</ele><time>2026-04-11T15:54:26Z</time></trkpt><trkpt lat="43.251144524052336" lon="12.949867642843639"><ele>440.0</ele><time>2026-04-11T15:54:27Z</time></trkpt><trkpt lat="43.25112883583913" lon="12.950027476927394"><ele>441.0</ele><time>2026-04-11T15:54:28Z</time></trkpt><trkpt lat="43.251146757164925" lon="12.950203103574307"><ele>441.25</ele><time>2026-04-11T15:54:29Z</time></trkpt><trkpt lat="43.251169197198145" lon="12.95040323550004"><ele>441.5</ele><time>2026-04-11T15:54:30Z</time></trkpt><trkpt lat="43.25117348709748" lon="12.950600047743187"><ele>441.75</ele><time>2026-04-11T15:54:31Z</time></trkpt><trkpt lat="43.25114857954248" lon="12.950795557838799"><ele>442.0</ele><time>2026-04-11T15:54:32Z</time></trkpt><trkpt lat="43.251112616432536" lon="12.95098858184755"><ele>441.5</ele><time>2026-04-11T15:54:33Z</time></trkpt><trkpt lat="43.2510795080494" lon="12.951176283430005"><ele>441.0</ele><time>2026-04-11T15:54:34Z</time></trkpt><trkpt lat="43.25105483892473" lon="12.951361582383077"><ele>440.5</ele><time>2026-04-11T15:54:35Z</time></trkpt><trkpt lat="43.25103142598786" lon="12.95153415723923"><ele>440.0</ele><time>2026-04-11T15:54:36Z</time></trkpt><trkpt lat="43.25101550148386" lon="12.951696799797746"><ele>439.5</ele><time>2026-04-11T15:54:37Z</time></trkpt><trkpt lat="43.25100162181696" lon="12.951849868508228"><ele>439.0</ele><time>2026-04-11T15:54:38Z</time></trkpt><trkpt lat="43.250982329033604" lon="12.952028524781515"><ele>438.5</ele><time>2026-04-11T15:54:39Z</time></trkpt><trkpt lat="43.2509609471553" lon="12.952228649375368"><ele>438.0</ele><time>2026-04-11T15:54:40Z</time></trkpt><trkpt lat="43.250928038963025" lon="12.952451702587346"><ele>436.66666666666663</ele><time>2026-04-11T15:54:41Z</time></trkpt><trkpt lat="43.25089081743907" lon="12.952684829133558"><ele>435.3333333333333</ele><time>2026-04-11T15:54:42Z</time></trkpt><trkpt lat="43.250858459476035" lon="12.952906691322077"><ele>434.0</ele><time>2026-04-11T15:54:43Z</time></trkpt><trkpt lat="43.250832342465316" lon="12.953105149878535"><ele>434.0</ele><time>2026-04-11T15:54:44Z</time></trkpt><trkpt lat="43.250840495230754" lon="12.953287940834969"><ele>434.0</ele><time>2026-04-11T15:54:45Z</time></trkpt><trkpt lat="43.25089320336157" lon="12.953477739260702"><ele>434.0</ele><time>2026-04-11T15:54:46Z</time></trkpt><trkpt lat="43.25098227013073" lon="12.953659211501305"><ele>434.0</ele><time>2026-04-11T15:54:47Z</time></trkpt><trkpt lat="43.25104542923126" lon="12.95386154854272"><ele>433.3333333333333</ele><time>2026-04-11T15:54:48Z</time></trkpt><trkpt lat="43.2510848340809" lon="12.954074187121577"><ele>432.66666666666663</ele><time>2026-04-11T15:54:49Z</time></trkpt><trkpt lat="43.25111132880331" lon="12.954301521099488"><ele>432.0</ele><time>2026-04-11T15:54:50Z</time></trkpt><trkpt lat="43.251121120178084" lon="12.954521008463784"><ele>431.66666666666663</ele><time>2026-04-11T15:54:51Z</time></trkpt><trkpt lat="43.25107241766668" lon="12.954730956892464"><ele>431.3333333333333</ele><time>2026-04-11T15:54:52Z</time></trkpt><trkpt lat="43.251028520051726" lon="12.954939206772627"><ele>431.0</ele><time>2026-04-11T15:54:53Z</time></trkpt><trkpt lat="43.2509930966633" lon="12.955140385265675"><ele>430.75</ele><time>2026-04-11T15:54:54Z</time></trkpt><trkpt lat="43.25099504064772" lon="12.955301700845368"><ele>430.5</ele><time>2026-04-11T15:54:55Z</time></trkpt><trkpt lat="43.251049541618414" lon="12.955441879804708"><ele>430.25</ele><time>2026-04-11T15:54:56Z</time></trkpt><trkpt lat="43.251131295215615" lon="12.95556488951061"><ele>430.0</ele><time>2026-04-11T15:54:57Z</time></trkpt><trkpt lat="43.251171194722126" lon="12.955702346689087"><ele>430.0</ele><time>2026-04-11T15:54:57.999Z</time></trkpt><trkpt lat="43.251202806020025" lon="12.955826519363196"><ele>430.0</ele><time>2026-04-11T15:54:58.999Z</time></trkpt><trkpt lat="43.25117239678537" lon="12.955967046617188"><ele>430.0</ele><time>2026-04-11T15:54:59.999Z</time></trkpt><trkpt lat="43.25106478143348" lon="12.9560435106206"><ele>430.0</ele><time>2026-04-11T15:55:00.999Z</time></trkpt><trkpt lat="43.25096661303779" lon="12.956154682626822"><ele>429.75</ele><time>2026-04-11T15:55:01.999Z</time></trkpt><trkpt lat="43.250844965788794" lon="12.956217826353527"><ele>429.5</ele><time>2026-04-11T15:55:02.999Z</time></trkpt><trkpt lat="43.25071721132656" lon="12.956341269667394"><ele>429.25</ele><time>2026-04-11T15:55:03.999Z</time></trkpt><trkpt lat="43.250592891894435" lon="12.956462852173015"><ele>429.0</ele><time>2026-04-11T15:55:04.999Z</time></trkpt><trkpt lat="43.25047517080448" lon="12.956588277047874"><ele>428.75</ele><time>2026-04-11T15:55:05.999Z</time></trkpt><trkpt lat="43.25036192068879" lon="12.956713774940154"><ele>428.5</ele><time>2026-04-11T15:55:06.999Z</time></trkpt><trkpt lat="43.250251443161105" lon="12.956830903229656"><ele>428.25</ele><time>2026-04-11T15:55:07.999Z</time></trkpt><trkpt lat="43.2501423251714" lon="12.956938507478448"><ele>428.0</ele><time>2026-04-11T15:55:08.999Z</time></trkpt><trkpt lat="43.25003259422759" lon="12.957050991193764"><ele>428.0</ele><time>2026-04-11T15:55:09.999Z</time></trkpt><trkpt lat="43.2499178885414" lon="12.957165962642248"><ele>428.0</ele><time>2026-04-11T15:55:10.999Z</time></trkpt><trkpt lat="43.24979685136986" lon="12.957276175121367"><ele>428.0</ele><time>2026-04-11T15:55:11.999Z</time></trkpt><trkpt lat="43.24966895072213" lon="12.957393333754794"><ele>428.0</ele><time>2026-04-11T15:55:12.999Z</time></trkpt><trkpt lat="43.249538618586904" lon="12.957510188417636"><ele>427.3333333333333</ele><time>2026-04-11T15:55:13.999Z</time></trkpt><trkpt lat="43.24940456375387" lon="12.957639477860837"><ele>426.66666666666663</ele><time>2026-04-11T15:55:14.999Z</time></trkpt><trkpt lat="43.24927745339876" lon="12.957759579542927"><ele>426.0</ele><time>2026-04-11T15:55:15.999Z</time></trkpt><trkpt lat="43.24914957695925" lon="12.957890786588868"><ele>426.0</ele><time>2026-04-11T15:55:16.999Z</time></trkpt><trkpt lat="43.24899368527377" lon="12.958009590747281"><ele>426.0</ele><time>2026-04-11T15:55:17.999Z</time></trkpt><trkpt lat="43.24884398452914" lon="12.958119129857131"><ele>426.0</ele><time>2026-04-11T15:55:18.999Z</time></trkpt><trkpt lat="43.24871209193917" lon="12.958212075965026"><ele>426.0</ele><time>2026-04-11T15:55:19.999Z</time></trkpt><trkpt lat="43.248569361916495" lon="12.958339223269205"><ele>426.0</ele><time>2026-04-11T15:55:20.999Z</time></trkpt><trkpt lat="43.24843325915506" lon="12.958472022217183"><ele>426.0</ele><time>2026-04-11T15:55:21.999Z</time></trkpt><trkpt lat="43.248298183474155" lon="12.958602475969174"><ele>426.0</ele><time>2026-04-11T15:55:22.999Z</time></trkpt><trkpt lat="43.24815689630995" lon="12.958698940851214"><ele>426.0</ele><time>2026-04-11T15:55:23.999Z</time></trkpt><trkpt lat="43.24800589105896" lon="12.958790804293821"><ele>426.0</ele><time>2026-04-11T15:55:24.999Z</time></trkpt><trkpt lat="43.24786244804457" lon="12.95886243496085"><ele>427.66666666666663</ele><time>2026-04-11T15:55:25.999Z</time></trkpt><trkpt lat="43.24771565356243" lon="12.95892713217431"><ele>429.3333333333333</ele><time>2026-04-11T15:55:26.999Z</time></trkpt><trkpt lat="43.24757085238576" lon="12.958988639908371"><ele>431.0</ele><time>2026-04-11T15:55:27.999Z</time></trkpt><trkpt lat="43.24742579338059" lon="12.959050257418976"><ele>430.75</ele><time>2026-04-11T15:55:28.999Z</time></trkpt><trkpt lat="43.24729369876177" lon="12.959105234949382"><ele>430.5</ele><time>2026-04-11T15:55:29.999Z</time></trkpt><trkpt lat="43.247152569206435" lon="12.959164076415478"><ele>430.25</ele><time>2026-04-11T15:55:30.999Z</time></trkpt><trkpt lat="43.24702453154201" lon="12.959217459270223"><ele>430.0</ele><time>2026-04-11T15:55:31.999Z</time></trkpt><trkpt lat="43.24691109626533" lon="12.959260699184869"><ele>430.0</ele><time>2026-04-11T15:55:32.999Z</time></trkpt><trkpt lat="43.24678517831466" lon="12.959288289708704"><ele>430.0</ele><time>2026-04-11T15:55:33.999Z</time></trkpt><trkpt lat="43.24665701407531" lon="12.959298545570045"><ele>430.0</ele><time>2026-04-11T15:55:34.999Z</time></trkpt><trkpt lat="43.24652644678994" lon="12.959299347768445"><ele>430.0</ele><time>2026-04-11T15:55:35.999Z</time></trkpt><trkpt lat="43.24639431681512" lon="12.95929844464911"><ele>430.2</ele><time>2026-04-11T15:55:36.999Z</time></trkpt><trkpt lat="43.24626913546605" lon="12.959295900502424"><ele>430.4</ele><time>2026-04-11T15:55:37.999Z</time></trkpt><trkpt lat="43.246154137559195" lon="12.959308106792674"><ele>430.6</ele><time>2026-04-11T15:55:38.999Z</time></trkpt><trkpt lat="43.24604599584216" lon="12.959309947620051"><ele>430.8</ele><time>2026-04-11T15:55:39.999Z</time></trkpt><trkpt lat="43.24594637171292" lon="12.95930868698567"><ele>431.0</ele><time>2026-04-11T15:55:40.999Z</time></trkpt><trkpt lat="43.24585276908126" lon="12.959307038678771"><ele>430.99999999999994</ele><time>2026-04-11T15:55:41.999Z</time></trkpt><trkpt lat="43.245767784531616" lon="12.95930839730785"><ele>431.0</ele><time>2026-04-11T15:55:42.999Z</time></trkpt><trkpt lat="43.24568980460716" lon="12.959321332622693"><ele>431.0</ele><time>2026-04-11T15:55:43.999Z</time></trkpt><trkpt lat="43.245617547086106" lon="12.95934147165761"><ele>431.0</ele><time>2026-04-11T15:55:44.999Z</time></trkpt><trkpt lat="43.24555392915058" lon="12.959356712801751"><ele>430.99999999999994</ele><time>2026-04-11T15:55:45.999Z</time></trkpt><trkpt lat="43.245433685518066" lon="12.959311068776506"><ele>431.0</ele><time>2026-04-11T15:55:47.999Z</time></trkpt><trkpt lat="43.24537181280514" lon="12.959224534623688"><ele>432.20000000000005</ele><time>2026-04-11T15:55:48.999Z</time></trkpt><trkpt lat="43.24529545498994" lon="12.959143498299756"><ele>433.40000000000003</ele><time>2026-04-11T15:55:49.999Z</time></trkpt><trkpt lat="43.245215770110384" lon="12.959058061784935"><ele>434.6</ele><time>2026-04-11T15:55:50.999Z</time></trkpt><trkpt lat="43.24513117417663" lon="12.958980530061835"><ele>435.8</ele><time>2026-04-11T15:55:51.999Z</time></trkpt><trkpt lat="43.24503487792391" lon="12.95890589529407"><ele>437.0</ele><time>2026-04-11T15:55:52.999Z</time></trkpt><trkpt lat="43.2449134585752" lon="12.958853695012946"><ele>439.0</ele><time>2026-04-11T15:55:53.999Z</time></trkpt><trkpt lat="43.24477819071889" lon="12.958804191253337"><ele>441.0</ele><time>2026-04-11T15:55:54.999Z</time></trkpt><trkpt lat="43.24462360194329" lon="12.958783226348359"><ele>443.0</ele><time>2026-04-11T15:55:55.999Z</time></trkpt><trkpt lat="43.24446660314731" lon="12.958783967231897"><ele>443.0</ele><time>2026-04-11T15:55:56.999Z</time></trkpt><trkpt lat="43.244305249323425" lon="12.958812751073221"><ele>443.0</ele><time>2026-04-11T15:55:57.999Z</time></trkpt><trkpt lat="43.244148776999204" lon="12.958862336221845"><ele>443.0</ele><time>2026-04-11T15:55:58.999Z</time></trkpt><trkpt lat="43.243981334955095" lon="12.958885977685632"><ele>445.0</ele><time>2026-04-11T15:55:59.999Z</time></trkpt><trkpt lat="43.24381406119875" lon="12.95887510287639"><ele>447.0</ele><time>2026-04-11T15:56:00.999Z</time></trkpt><trkpt lat="43.24363987021716" lon="12.958843262931945"><ele>449.0</ele><time>2026-04-11T15:56:01.999Z</time></trkpt><trkpt lat="43.243464738076455" lon="12.958791509133292"><ele>449.0</ele><time>2026-04-11T15:56:02.999Z</time></trkpt><trkpt lat="43.243287072663534" lon="12.95872007130603"><ele>449.0</ele><time>2026-04-11T15:56:03.999Z</time></trkpt><trkpt lat="43.24312461259615" lon="12.95861899596368"><ele>449.0</ele><time>2026-04-11T15:56:04.999Z</time></trkpt><trkpt lat="43.242972801282164" lon="12.95850375100977"><ele>450.3333333333333</ele><time>2026-04-11T15:56:05.999Z</time></trkpt><trkpt lat="43.24282014117191" lon="12.958382674473402"><ele>451.66666666666663</ele><time>2026-04-11T15:56:06.999Z</time></trkpt><trkpt lat="43.24267167400551" lon="12.958310137313621"><ele>453.0</ele><time>2026-04-11T15:56:07.999Z</time></trkpt><trkpt lat="43.24254237070778" lon="12.958260912172799"><ele>453.0</ele><time>2026-04-11T15:56:08.999Z</time></trkpt><trkpt lat="43.24242184956835" lon="12.95827685953557"><ele>453.0</ele><time>2026-04-11T15:56:09.999Z</time></trkpt><trkpt lat="43.24230977839851" lon="12.958359723845852"><ele>453.0</ele><time>2026-04-11T15:56:10.999Z</time></trkpt><trkpt lat="43.24220131173225" lon="12.958491020590532"><ele>453.0</ele><time>2026-04-11T15:56:11.999Z</time></trkpt><trkpt lat="43.24207890576834" lon="12.958626941062896"><ele>454.75</ele><time>2026-04-11T15:56:12.999Z</time></trkpt><trkpt lat="43.241960489382365" lon="12.958755122295212"><ele>456.5</ele><time>2026-04-11T15:56:13.999Z</time></trkpt><trkpt lat="43.241829386854974" lon="12.95882166353921"><ele>458.25</ele><time>2026-04-11T15:56:14.999Z</time></trkpt><trkpt lat="43.241714808008766" lon="12.958866421492969"><ele>460.0</ele><time>2026-04-11T15:56:15.999Z</time></trkpt><trkpt lat="43.24160619397161" lon="12.958911138970173"><ele>460.0</ele><time>2026-04-11T15:56:16.999Z</time></trkpt><trkpt lat="43.24148128972919" lon="12.958872817992939"><ele>460.0</ele><time>2026-04-11T15:56:17.999Z</time></trkpt><trkpt lat="43.241336208427654" lon="12.958851760962455"><ele>460.0</ele><time>2026-04-11T15:56:18.999Z</time></trkpt><trkpt lat="43.241200740279076" lon="12.95884856081609"><ele>460.0</ele><time>2026-04-11T15:56:19.999Z</time></trkpt><trkpt lat="43.24107824938224" lon="12.958839671706555"><ele>460.5</ele><time>2026-04-11T15:56:20.999Z</time></trkpt><trkpt lat="43.24096451754048" lon="12.958873504102158"><ele>461.0</ele><time>2026-04-11T15:56:21.999Z</time></trkpt><trkpt lat="43.24086275899594" lon="12.95898192637084"><ele>461.5</ele><time>2026-04-11T15:56:22.998Z</time></trkpt><trkpt lat="43.24076303064848" lon="12.959130457300287"><ele>462.0</ele><time>2026-04-11T15:56:23.998Z</time></trkpt><trkpt lat="43.24066853507166" lon="12.959288516715983"><ele>460.5</ele><time>2026-04-11T15:56:24.998Z</time></trkpt><trkpt lat="43.24057365529433" lon="12.959436594417863"><ele>459.0</ele><time>2026-04-11T15:56:26Z</time></trkpt><trkpt lat="43.240474398388756" lon="12.959575748872348"><ele>457.5</ele><time>2026-04-11T15:56:27Z</time></trkpt><trkpt lat="43.2403679628595" lon="12.959704508806379"><ele>456.0</ele><time>2026-04-11T15:56:28Z</time></trkpt><trkpt lat="43.24025820541264" lon="12.959800021718099"><ele>456.0</ele><time>2026-04-11T15:56:29Z</time></trkpt><trkpt lat="43.240149429015666" lon="12.95985989112435"><ele>456.0</ele><time>2026-04-11T15:56:30Z</time></trkpt><trkpt lat="43.2400388730846" lon="12.959844954762685"><ele>456.0</ele><time>2026-04-11T15:56:31Z</time></trkpt><trkpt lat="43.2399386633264" lon="12.959754598516863"><ele>456.0</ele><time>2026-04-11T15:56:32Z</time></trkpt><trkpt lat="43.2398604186385" lon="12.959647332678767"><ele>456.75</ele><time>2026-04-11T15:56:33Z</time></trkpt><trkpt lat="43.23977923655063" lon="12.959536444613109"><ele>457.5</ele><time>2026-04-11T15:56:34Z</time></trkpt><trkpt lat="43.23970032870978" lon="12.959415593431581"><ele>458.25</ele><time>2026-04-11T15:56:35Z</time></trkpt><trkpt lat="43.23960858765351" lon="12.959290978049758"><ele>459.0</ele><time>2026-04-11T15:56:36Z</time></trkpt><trkpt lat="43.23950793860296" lon="12.95917980856876"><ele>459.0</ele><time>2026-04-11T15:56:37Z</time></trkpt><trkpt lat="43.23939946500412" lon="12.959084727120207"><ele>459.0</ele><time>2026-04-11T15:56:38Z</time></trkpt><trkpt lat="43.23930812357904" lon="12.95901034539417"><ele>459.0</ele><time>2026-04-11T15:56:39Z</time></trkpt><trkpt lat="43.23922140324628" lon="12.958938762328742"><ele>459.0</ele><time>2026-04-11T15:56:40Z</time></trkpt><trkpt lat="43.239118983820795" lon="12.958851658702141"><ele>459.0</ele><time>2026-04-11T15:56:41Z</time></trkpt><trkpt lat="43.239003861359244" lon="12.958753514553813"><ele>459.0</ele><time>2026-04-11T15:56:42Z</time></trkpt><trkpt lat="43.23888073708631" lon="12.958648809032674"><ele>459.0</ele><time>2026-04-11T15:56:43Z</time></trkpt><trkpt lat="43.238745651486276" lon="12.958537929134254"><ele>459.0</ele><time>2026-04-11T15:56:44Z</time></trkpt><trkpt lat="43.2385992075608" lon="12.958433830344177"><ele>458.33333333333337</ele><time>2026-04-11T15:56:45Z</time></trkpt><trkpt lat="43.23843917691008" lon="12.95834285869811"><ele>457.6666666666667</ele><time>2026-04-11T15:56:46Z</time></trkpt><trkpt lat="43.23828109743448" lon="12.958266824089442"><ele>457.0</ele><time>2026-04-11T15:56:47Z</time></trkpt><trkpt lat="43.238128838054664" lon="12.958176566724232"><ele>457.0</ele><time>2026-04-11T15:56:48Z</time></trkpt><trkpt lat="43.23798201745827" lon="12.958053896849284"><ele>457.0</ele><time>2026-04-11T15:56:49Z</time></trkpt><trkpt lat="43.2378273115127" lon="12.957905041863862"><ele>457.0</ele><time>2026-04-11T15:56:50Z</time></trkpt><trkpt lat="43.23766602390614" lon="12.957756890206543"><ele>457.0</ele><time>2026-04-11T15:56:51Z</time></trkpt><trkpt lat="43.237507307985865" lon="12.957618375375628"><ele>457.0</ele><time>2026-04-11T15:56:52Z</time></trkpt><trkpt lat="43.23734311927529" lon="12.95748797217824"><ele>457.0</ele><time>2026-04-11T15:56:53Z</time></trkpt><trkpt lat="43.23716907491197" lon="12.957363547812495"><ele>458.0</ele><time>2026-04-11T15:56:54Z</time></trkpt><trkpt lat="43.23699203384576" lon="12.95725783351513"><ele>459.0</ele><time>2026-04-11T15:56:55Z</time></trkpt><trkpt lat="43.23683570871372" lon="12.957180495028267"><ele>460.0</ele><time>2026-04-11T15:56:56Z</time></trkpt><trkpt lat="43.236683360508664" lon="12.957101284035796"><ele>460.0</ele><time>2026-04-11T15:56:57Z</time></trkpt><trkpt lat="43.23654091434926" lon="12.957021302207817"><ele>460.0</ele><time>2026-04-11T15:56:58Z</time></trkpt><trkpt lat="43.236411200843726" lon="12.956954863670644"><ele>460.0</ele><time>2026-04-11T15:56:59Z</time></trkpt><trkpt lat="43.23629313539982" lon="12.956893978818744"><ele>460.0</ele><time>2026-04-11T15:57:00Z</time></trkpt><trkpt lat="43.23619935337791" lon="12.956845506865724"><ele>459.83333333333337</ele><time>2026-04-11T15:57:01Z</time></trkpt><trkpt lat="43.23612206628542" lon="12.95680556049819"><ele>459.6666666666667</ele><time>2026-04-11T15:57:02Z</time></trkpt><trkpt lat="43.23605399728955" lon="12.956770378498126"><ele>459.5</ele><time>2026-04-11T15:57:03Z</time></trkpt><trkpt lat="43.23594285970317" lon="12.956697730840805"><ele>459.33333333333337</ele><time>2026-04-11T15:57:05Z</time></trkpt><trkpt lat="43.23586768792325" lon="12.956642067789556"><ele>459.1666666666667</ele><time>2026-04-11T15:57:07Z</time></trkpt><trkpt lat="43.23578649365516" lon="12.956629625270311"><ele>459.0</ele><time>2026-04-11T15:57:09.999Z</time></trkpt><trkpt lat="43.235702007804655" lon="12.956577478372479"><ele>458.79999999999995</ele><time>2026-04-11T15:57:11.999Z</time></trkpt><trkpt lat="43.235607358708535" lon="12.956513849665109"><ele>458.59999999999997</ele><time>2026-04-11T15:57:13.999Z</time></trkpt><trkpt lat="43.23551459951263" lon="12.956448871455516"><ele>458.4</ele><time>2026-04-11T15:57:15.999Z</time></trkpt><trkpt lat="43.23542031080214" lon="12.956399525126235"><ele>458.2</ele><time>2026-04-11T15:57:17.999Z</time></trkpt><trkpt lat="43.235296442906176" lon="12.956365016236765"><ele>458.0</ele><time>2026-04-11T15:57:19.999Z</time></trkpt><trkpt lat="43.235186814374075" lon="12.956373223819913"><ele>457.99999999999994</ele><time>2026-04-11T15:57:20.999Z</time></trkpt><trkpt lat="43.23508054938837" lon="12.956386632229208"><ele>458.0</ele><time>2026-04-11T15:57:21.999Z</time></trkpt><trkpt lat="43.23498383625822" lon="12.95640845521446"><ele>458.0</ele><time>2026-04-11T15:57:22.999Z</time></trkpt><trkpt lat="43.23490307573877" lon="12.95644714084478"><ele>458.0</ele><time>2026-04-11T15:57:23.999Z</time></trkpt><trkpt lat="43.234844303621415" lon="12.956483958468308"><ele>457.99999999999994</ele><time>2026-04-11T15:57:24.999Z</time></trkpt><trkpt lat="43.23479218909789" lon="12.95653250263135"><ele>458.0</ele><time>2026-04-11T15:57:28.999Z</time></trkpt><trkpt lat="43.234793961782096" lon="12.956648961909872"><ele>459.4</ele><time>2026-04-11T15:57:48.999Z</time></trkpt><trkpt lat="43.23480374929495" lon="12.956770224329974"><ele>460.79999999999995</ele><time>2026-04-11T15:57:50.999Z</time></trkpt><trkpt lat="43.23481228705984" lon="12.956929741856486"><ele>462.2</ele><time>2026-04-11T15:57:52.999Z</time></trkpt><trkpt lat="43.23481661516584" lon="12.957029063432556"><ele>463.6</ele><time>2026-04-11T15:57:53.999Z</time></trkpt><trkpt lat="43.23482037704868" lon="12.95715163955392"><ele>465.0</ele><time>2026-04-11T15:57:54.999Z</time></trkpt><trkpt lat="43.234823628800164" lon="12.957295844596368"><ele>465.0</ele><time>2026-04-11T15:57:55.999Z</time></trkpt><trkpt lat="43.2348265711279" lon="12.957448531298295"><ele>465.0</ele><time>2026-04-11T15:57:56.999Z</time></trkpt><trkpt lat="43.23483036054952" lon="12.957614537805773"><ele>465.0</ele><time>2026-04-11T15:57:57.999Z</time></trkpt><trkpt lat="43.23482593106666" lon="12.95777700438653"><ele>465.0</ele><time>2026-04-11T15:57:58.999Z</time></trkpt><trkpt lat="43.2348299623724" lon="12.957952592168667"><ele>467.25</ele><time>2026-04-11T15:57:59.999Z</time></trkpt><trkpt lat="43.23484058515644" lon="12.958121603124846"><ele>469.5</ele><time>2026-04-11T15:58:00.999Z</time></trkpt><trkpt lat="43.234857494929315" lon="12.958300193986585"><ele>471.75</ele><time>2026-04-11T15:58:01.999Z</time></trkpt><trkpt lat="43.234886628025436" lon="12.958500395924023"><ele>474.0</ele><time>2026-04-11T15:58:02.999Z</time></trkpt><trkpt lat="43.23492636642376" lon="12.958702042605344"><ele>476.0</ele><time>2026-04-11T15:58:03.999Z</time></trkpt><trkpt lat="43.23496554525822" lon="12.958870448983209"><ele>478.0</ele><time>2026-04-11T15:58:04.999Z</time></trkpt><trkpt lat="43.234946132921635" lon="12.95904311266851"><ele>480.0</ele><time>2026-04-11T15:58:05.999Z</time></trkpt><trkpt lat="43.23492976362914" lon="12.959212392665291"><ele>482.0</ele><time>2026-04-11T15:58:06.999Z</time></trkpt><trkpt lat="43.23490013297119" lon="12.959375895327847"><ele>485.40000000000003</ele><time>2026-04-11T15:58:07.999Z</time></trkpt><trkpt lat="43.234874156952195" lon="12.959532938140388"><ele>488.80000000000007</ele><time>2026-04-11T15:58:08.999Z</time></trkpt><trkpt lat="43.23487311859141" lon="12.959673575568681"><ele>492.2</ele><time>2026-04-11T15:58:09.999Z</time></trkpt><trkpt lat="43.23485286743648" lon="12.959798300246325"><ele>495.6</ele><time>2026-04-11T15:58:10.999Z</time></trkpt><trkpt lat="43.23487089999807" lon="12.9598880333005"><ele>499.0</ele><time>2026-04-11T15:58:11.999Z</time></trkpt><trkpt lat="43.23493242278881" lon="12.960025283948001"><ele>501.33333333333337</ele><time>2026-04-11T15:58:13.999Z</time></trkpt><trkpt lat="43.23497724410526" lon="12.96009167387642"><ele>503.6666666666667</ele><time>2026-04-11T15:58:14.999Z</time></trkpt><trkpt lat="43.23504699878673" lon="12.9602060582362"><ele>506.0</ele><time>2026-04-11T15:58:16.999Z</time></trkpt><trkpt lat="43.23509551652903" lon="12.960266466610344"><ele>508.33333333333337</ele><time>2026-04-11T15:58:18.999Z</time></trkpt><trkpt lat="43.23516539527288" lon="12.960334121677269"><ele>510.6666666666667</ele><time>2026-04-11T15:59:03Z</time></trkpt><trkpt lat="43.23521984747403" lon="12.960423244507181"><ele>513.0</ele><time>2026-04-11T15:59:05Z</time></trkpt><trkpt lat="43.23529250516321" lon="12.960553411752823"><ele>513.0</ele><time>2026-04-11T15:59:07Z</time></trkpt><trkpt lat="43.23533002184446" lon="12.960635838698634"><ele>513.0</ele><time>2026-04-11T15:59:08Z</time></trkpt><trkpt lat="43.23536125020107" lon="12.960726009816812"><ele>513.0</ele><time>2026-04-11T15:59:09Z</time></trkpt><trkpt lat="43.23534105287155" lon="12.960931439003339"><ele>513.0</ele><time>2026-04-11T15:59:11Z</time></trkpt><trkpt lat="43.23531304195405" lon="12.961080731803035"><ele>513.0</ele><time>2026-04-11T15:59:12Z</time></trkpt><trkpt lat="43.23527970898402" lon="12.961240128025986"><ele>514.75</ele><time>2026-04-11T15:59:13Z</time></trkpt><trkpt lat="43.23525730431881" lon="12.961391807375955"><ele>516.5</ele><time>2026-04-11T15:59:14Z</time></trkpt><trkpt lat="43.23526443881716" lon="12.961569767651186"><ele>518.25</ele><time>2026-04-11T15:59:14.999Z</time></trkpt><trkpt lat="43.23528190852752" lon="12.961755179500548"><ele>520.0</ele><time>2026-04-11T15:59:15.999Z</time></trkpt><trkpt lat="43.23530471639039" lon="12.961965173591272"><ele>521.0</ele><time>2026-04-11T15:59:16.999Z</time></trkpt><trkpt lat="43.235330633218226" lon="12.962180770026498"><ele>522.0</ele><time>2026-04-11T15:59:17.999Z</time></trkpt><trkpt lat="43.23536148564638" lon="12.962408367472628"><ele>523.0</ele><time>2026-04-11T15:59:18.999Z</time></trkpt><trkpt lat="43.23539159704427" lon="12.962598683987638"><ele>523.5</ele><time>2026-04-11T15:59:19.999Z</time></trkpt><trkpt lat="43.235432446651316" lon="12.962764763284355"><ele>524.0</ele><time>2026-04-11T15:59:20.999Z</time></trkpt><trkpt lat="43.23544668301696" lon="12.962927538583962"><ele>524.5</ele><time>2026-04-11T15:59:21.999Z</time></trkpt><trkpt lat="43.23547087078015" lon="12.96307196085716"><ele>525.0</ele><time>2026-04-11T15:59:22.999Z</time></trkpt><trkpt lat="43.2354742973131" lon="12.963210512968276"><ele>525.0</ele><time>2026-04-11T15:59:23.999Z</time></trkpt><trkpt lat="43.23549797263653" lon="12.963338481871968"><ele>525.0</ele><time>2026-04-11T15:59:24.999Z</time></trkpt><trkpt lat="43.23550557228664" lon="12.96345198161104"><ele>525.0</ele><time>2026-04-11T15:59:25.999Z</time></trkpt><trkpt lat="43.23546822586795" lon="12.963584982394728"><ele>525.0</ele><time>2026-04-11T15:59:27.999Z</time></trkpt><trkpt lat="43.23534537785947" lon="12.963644251493083"><ele>525.0</ele><time>2026-04-11T15:59:29.999Z</time></trkpt><trkpt lat="43.235270367526" lon="12.963704053972615"><ele>523.3333333333334</ele><time>2026-04-11T15:59:30.999Z</time></trkpt><trkpt lat="43.23521185651587" lon="12.963762228821661"><ele>521.6666666666667</ele><time>2026-04-11T15:59:31.999Z</time></trkpt><trkpt lat="43.23509770822455" lon="12.964147051444334"><ele>520.0</ele><time>2026-04-11T15:59:32.999Z</time></trkpt><trkpt lat="43.234980464618026" lon="12.964136675705765"><ele>520.0</ele><time>2026-04-11T15:59:35.999Z</time></trkpt><trkpt lat="43.234856336942535" lon="12.964152484297694"><ele>520.0</ele><time>2026-04-11T15:59:37.999Z</time></trkpt><trkpt lat="43.234735439940046" lon="12.96414879561766"><ele>520.0</ele><time>2026-04-11T15:59:38.999Z</time></trkpt><trkpt lat="43.23466584806196" lon="12.964141051923722"><ele>520.0</ele><time>2026-04-11T15:59:39.999Z</time></trkpt><trkpt lat="43.23459666502185" lon="12.964115260810829"><ele>520.0</ele><time>2026-04-11T15:59:40.999Z</time></trkpt><trkpt lat="43.234517100936614" lon="12.964082620813912"><ele>530.0</ele><time>2026-04-11T15:59:41.999Z</time></trkpt><trkpt lat="43.23449734185172" lon="12.963163754502439"><ele>530.0</ele><time>2026-04-11T15:59:42.999Z</time></trkpt><trkpt lat="43.23443751666132" lon="12.963008312455605"><ele>530.0</ele><time>2026-04-11T15:59:43.999Z</time></trkpt><trkpt lat="43.234356579628994" lon="12.962835901774277"><ele>530.0</ele><time>2026-04-11T15:59:44.999Z</time></trkpt><trkpt lat="43.234282631257514" lon="12.962678341990639"><ele>530.0</ele><time>2026-04-11T15:59:45.999Z</time></trkpt><trkpt lat="43.23420907629127" lon="12.962522483730547"><ele>532.25</ele><time>2026-04-11T15:59:46.999Z</time></trkpt><trkpt lat="43.234132776729986" lon="12.962374878138283"><ele>534.5</ele><time>2026-04-11T15:59:47.999Z</time></trkpt><trkpt lat="43.234052202202065" lon="12.96221953599546"><ele>536.75</ele><time>2026-04-11T15:59:48.999Z</time></trkpt><trkpt lat="43.23397593172682" lon="12.962067251440889"><ele>539.0</ele><time>2026-04-11T15:59:49.999Z</time></trkpt><trkpt lat="43.23390028706432" lon="12.961920944723774"><ele>539.6</ele><time>2026-04-11T15:59:50.999Z</time></trkpt><trkpt lat="43.23382771803992" lon="12.961799404014137"><ele>540.2</ele><time>2026-04-11T15:59:51.999Z</time></trkpt><trkpt lat="43.23376890157071" lon="12.961716034347369"><ele>540.8000000000001</ele><time>2026-04-11T15:59:52.999Z</time></trkpt><trkpt lat="43.233700791267644" lon="12.961654230741207"><ele>541.4</ele><time>2026-04-11T15:59:53.999Z</time></trkpt><trkpt lat="43.233623272202514" lon="12.961615375924387"><ele>542.0</ele><time>2026-04-11T15:59:54.999Z</time></trkpt><trkpt lat="43.23351214593715" lon="12.961566756376323"><ele>545.8000000000001</ele><time>2026-04-11T15:59:55.999Z</time></trkpt><trkpt lat="43.233403798150704" lon="12.961512753830476"><ele>549.6</ele><time>2026-04-11T15:59:56.999Z</time></trkpt><trkpt lat="43.233323813017904" lon="12.961454359070645"><ele>553.4000000000001</ele><time>2026-04-11T15:59:57.999Z</time></trkpt><trkpt lat="43.23324051503418" lon="12.961414333512993"><ele>557.2</ele><time>2026-04-11T15:59:58.999Z</time></trkpt><trkpt lat="43.23315651857949" lon="12.961436753878203"><ele>561.0</ele><time>2026-04-11T15:59:59.999Z</time></trkpt><trkpt lat="43.23306526055883" lon="12.96150801200424"><ele>562.75</ele><time>2026-04-11T16:00:00.999Z</time></trkpt><trkpt lat="43.23293201442043" lon="12.961592726337209"><ele>564.5</ele><time>2026-04-11T16:00:01.999Z</time></trkpt><trkpt lat="43.23281752217591" lon="12.961623940880388"><ele>566.25</ele><time>2026-04-11T16:00:02.999Z</time></trkpt><trkpt lat="43.23271992993816" lon="12.961654998070136"><ele>568.0</ele><time>2026-04-11T16:00:03.999Z</time></trkpt><trkpt lat="43.23264051764665" lon="12.961709719389201"><ele>568.0</ele><time>2026-04-11T16:00:04.999Z</time></trkpt><trkpt lat="43.23254296178623" lon="12.961838745537166"><ele>568.0</ele><time>2026-04-11T16:00:05.999Z</time></trkpt><trkpt lat="43.23244865774197" lon="12.961985565087282"><ele>568.0</ele><time>2026-04-11T16:00:06.999Z</time></trkpt><trkpt lat="43.232362067080395" lon="12.962098671767187"><ele>568.0</ele><time>2026-04-11T16:00:07.999Z</time></trkpt><trkpt lat="43.23225830508869" lon="12.962217759371013"><ele>570.75</ele><time>2026-04-11T16:00:08.999Z</time></trkpt><trkpt lat="43.23215938541529" lon="12.962330102037113"><ele>573.5</ele><time>2026-04-11T16:00:09.999Z</time></trkpt><trkpt lat="43.23206336405077" lon="12.962419076284261"><ele>576.25</ele><time>2026-04-11T16:00:10.999Z</time></trkpt><trkpt lat="43.23197689078153" lon="12.96249708741001"><ele>579.0</ele><time>2026-04-11T16:00:11.999Z</time></trkpt><trkpt lat="43.231890274675365" lon="12.962582022284494"><ele>579.0</ele><time>2026-04-11T16:00:12.999Z</time></trkpt><trkpt lat="43.23179597711395" lon="12.962711616302675"><ele>579.0</ele><time>2026-04-11T16:00:13.999Z</time></trkpt><trkpt lat="43.231748713431315" lon="12.962867031768567"><ele>579.0</ele><time>2026-04-11T16:00:14.999Z</time></trkpt><trkpt lat="43.231686266897135" lon="12.962996552030727"><ele>579.0</ele><time>2026-04-11T16:00:15.999Z</time></trkpt><trkpt lat="43.231610477848925" lon="12.96310074941047"><ele>579.0</ele><time>2026-04-11T16:00:16.999Z</time></trkpt><trkpt lat="43.23149919139632" lon="12.963161788271302"><ele>579.0</ele><time>2026-04-11T16:00:17.999Z</time></trkpt><trkpt lat="43.23137278472199" lon="12.96320451412835"><ele>579.0</ele><time>2026-04-11T16:00:18.999Z</time></trkpt><trkpt lat="43.231265945273094" lon="12.963248782834158"><ele>579.0</ele><time>2026-04-11T16:00:19.999Z</time></trkpt><trkpt lat="43.23117498191933" lon="12.963329494861192"><ele>579.5</ele><time>2026-04-11T16:00:20.999Z</time></trkpt><trkpt lat="43.231067245275774" lon="12.963465473521929"><ele>580.0</ele><time>2026-04-11T16:00:21.999Z</time></trkpt><trkpt lat="43.23096764143414" lon="12.963571446545627"><ele>580.5</ele><time>2026-04-11T16:00:22.999Z</time></trkpt><trkpt lat="43.23089321183813" lon="12.96368038550647"><ele>581.0</ele><time>2026-04-11T16:00:23.999Z</time></trkpt><trkpt lat="43.23080005780763" lon="12.96375901665305"><ele>581.0</ele><time>2026-04-11T16:00:24.999Z</time></trkpt><trkpt lat="43.230726078006796" lon="12.96384782377544"><ele>581.0</ele><time>2026-04-11T16:00:25.999Z</time></trkpt><trkpt lat="43.23066956649186" lon="12.963962084941084"><ele>581.0</ele><time>2026-04-11T16:00:26.999Z</time></trkpt><trkpt lat="43.230592936670966" lon="12.964051195950217"><ele>581.0</ele><time>2026-04-11T16:00:27.999Z</time></trkpt><trkpt lat="43.230509780352506" lon="12.964079023762586"><ele>581.0</ele><time>2026-04-11T16:00:28.999Z</time></trkpt><trkpt lat="43.230459198251474" lon="12.964150350809124"><ele>581.0</ele><time>2026-04-11T16:00:31.999Z</time></trkpt><trkpt lat="43.230523018377944" lon="12.964243608935353"><ele>581.0</ele><time>2026-04-11T16:00:34.999Z</time></trkpt><trkpt lat="43.230671494046476" lon="12.964212430657714"><ele>581.0</ele><time>2026-04-11T16:00:36.999Z</time></trkpt><trkpt lat="43.23077594825776" lon="12.964211860738857"><ele>581.0</ele><time>2026-04-11T16:00:38Z</time></trkpt><trkpt lat="43.23085136689085" lon="12.964222153787778"><ele>581.0</ele><time>2026-04-11T16:00:39Z</time></trkpt><trkpt lat="43.23092134853944" lon="12.964195785183696"><ele>581.0</ele><time>2026-04-11T16:00:40Z</time></trkpt><trkpt lat="43.23099042493554" lon="12.964136775483738"><ele>581.0</ele><time>2026-04-11T16:00:41Z</time></trkpt><trkpt lat="43.231077299784936" lon="12.964096735727317"><ele>581.0</ele><time>2026-04-11T16:00:42Z</time></trkpt><trkpt lat="43.231163468896696" lon="12.96411305826385"><ele>581.0</ele><time>2026-04-11T16:00:43Z</time></trkpt><trkpt lat="43.231255945179306" lon="12.96418458982274"><ele>581.0</ele><time>2026-04-11T16:00:44Z</time></trkpt><trkpt lat="43.231339322597215" lon="12.96423212725575"><ele>578.0</ele><time>2026-04-11T16:00:45Z</time></trkpt><trkpt lat="43.2314119047047" lon="12.964230463411987"><ele>575.0</ele><time>2026-04-11T16:00:46Z</time></trkpt><trkpt lat="43.2314311750648" lon="12.964363367361093"><ele>572.0</ele><time>2026-04-11T16:00:50Z</time></trkpt><trkpt lat="43.23140010494911" lon="12.964483622387558"><ele>569.0</ele><time>2026-04-11T16:00:54Z</time></trkpt><trkpt lat="43.23138174566087" lon="12.964587598858024"><ele>566.0</ele><time>2026-04-11T16:00:56Z</time></trkpt><trkpt lat="43.23133387910863" lon="12.964689440037786"><ele>563.0</ele><time>2026-04-11T16:00:57Z</time></trkpt><trkpt lat="43.23126906527251" lon="12.964772541194392"><ele>563.0</ele><time>2026-04-11T16:00:58Z</time></trkpt><trkpt lat="43.231198396247585" lon="12.964827685272578"><ele>563.0</ele><time>2026-04-11T16:00:59Z</time></trkpt><trkpt lat="43.231091950673836" lon="12.96489325617767"><ele>563.0</ele><time>2026-04-11T16:01:00Z</time></trkpt><trkpt lat="43.23097708884759" lon="12.964938984779721"><ele>563.0</ele><time>2026-04-11T16:01:01Z</time></trkpt><trkpt lat="43.23088773042124" lon="12.96497949253911"><ele>563.0</ele><time>2026-04-11T16:01:02Z</time></trkpt><trkpt lat="43.23081731119909" lon="12.965023596848216"><ele>565.0</ele><time>2026-04-11T16:01:03Z</time></trkpt><trkpt lat="43.230759959727045" lon="12.965087633589247"><ele>567.0</ele><time>2026-04-11T16:01:04Z</time></trkpt><trkpt lat="43.23072803724734" lon="12.965193316240814"><ele>569.0</ele><time>2026-04-11T16:01:05Z</time></trkpt><trkpt lat="43.2306803452395" lon="12.965342376494183"><ele>571.0</ele><time>2026-04-11T16:01:06Z</time></trkpt><trkpt lat="43.23061757229453" lon="12.965465170114165"><ele>573.0</ele><time>2026-04-11T16:01:07Z</time></trkpt><trkpt lat="43.23057318339862" lon="12.965563921256392"><ele>573.0</ele><time>2026-04-11T16:01:08Z</time></trkpt><trkpt lat="43.23055129823065" lon="12.965693808519871"><ele>573.0</ele><time>2026-04-11T16:01:09Z</time></trkpt><trkpt lat="43.23054384673691" lon="12.965844355328604"><ele>573.0</ele><time>2026-04-11T16:01:10Z</time></trkpt><trkpt lat="43.23059672958922" lon="12.965986085481106"><ele>573.0</ele><time>2026-04-11T16:01:11Z</time></trkpt><trkpt lat="43.230677685151996" lon="12.96611413299767"><ele>573.0</ele><time>2026-04-11T16:01:12Z</time></trkpt><trkpt lat="43.23075901319797" lon="12.96622390617794"><ele>567.1999999999999</ele><time>2026-04-11T16:01:13Z</time></trkpt><trkpt lat="43.23080067196024" lon="12.966302878670872"><ele>561.4</ele><time>2026-04-11T16:01:14Z</time></trkpt><trkpt lat="43.23082651079299" lon="12.966398737155874"><ele>555.5999999999999</ele><time>2026-04-11T16:01:15Z</time></trkpt><trkpt lat="43.23084596412107" lon="12.966543331792115"><ele>549.8</ele><time>2026-04-11T16:01:16Z</time></trkpt><trkpt lat="43.2308653189865" lon="12.966686582327382"><ele>544.0</ele><time>2026-04-11T16:01:17Z</time></trkpt><trkpt lat="43.23087661964883" lon="12.966826195880161"><ele>542.0</ele><time>2026-04-11T16:01:18Z</time></trkpt><trkpt lat="43.230879741026875" lon="12.966928992633758"><ele>540.0</ele><time>2026-04-11T16:01:19Z</time></trkpt><trkpt lat="43.23088948415457" lon="12.967029161067071"><ele>538.0</ele><time>2026-04-11T16:01:20Z</time></trkpt><trkpt lat="43.230843960202655" lon="12.967206733167503"><ele>536.0</ele><time>2026-04-11T16:01:21.999Z</time></trkpt><trkpt lat="43.23081242839887" lon="12.967341802963215"><ele>534.0</ele><time>2026-04-11T16:01:22.999Z</time></trkpt><trkpt lat="43.23084063521943" lon="12.967474771171362"><ele>531.25</ele><time>2026-04-11T16:01:23.999Z</time></trkpt><trkpt lat="43.23090186303785" lon="12.967612453032553"><ele>528.5</ele><time>2026-04-11T16:01:24.999Z</time></trkpt><trkpt lat="43.23094708412432" lon="12.967768346588265"><ele>525.75</ele><time>2026-04-11T16:01:25.999Z</time></trkpt><trkpt lat="43.23097333845594" lon="12.967928435454283"><ele>523.0</ele><time>2026-04-11T16:01:26.999Z</time></trkpt><trkpt lat="43.230990427597376" lon="12.96810448047113"><ele>523.0</ele><time>2026-04-11T16:01:27.999Z</time></trkpt><trkpt lat="43.23100733513025" lon="12.968291328907886"><ele>523.0</ele><time>2026-04-11T16:01:28.999Z</time></trkpt><trkpt lat="43.23103285696469" lon="12.968477682726988"><ele>523.0</ele><time>2026-04-11T16:01:29.999Z</time></trkpt><trkpt lat="43.23105756674332" lon="12.968643043706686"><ele>523.0</ele><time>2026-04-11T16:01:30.999Z</time></trkpt><trkpt lat="43.23108458664637" lon="12.96877116494225"><ele>521.8</ele><time>2026-04-11T16:01:31.999Z</time></trkpt><trkpt lat="43.23111917516054" lon="12.968851034376852"><ele>520.5999999999999</ele><time>2026-04-11T16:01:32.999Z</time></trkpt><trkpt lat="43.23103069313018" lon="12.96885991867727"><ele>519.4000000000001</ele><time>2026-04-11T16:01:35.999Z</time></trkpt><trkpt lat="43.230951211472984" lon="12.968741847681102"><ele>518.2</ele><time>2026-04-11T16:01:37.999Z</time></trkpt><trkpt lat="43.23086874131377" lon="12.968651636747367"><ele>517.0</ele><time>2026-04-11T16:01:38.999Z</time></trkpt><trkpt lat="43.23079103864736" lon="12.968538667985493"><ele>517.0</ele><time>2026-04-11T16:01:39.999Z</time></trkpt><trkpt lat="43.230722713462946" lon="12.968430039675214"><ele>517.0</ele><time>2026-04-11T16:01:40.999Z</time></trkpt><trkpt lat="43.2306455452943" lon="12.968336474334448"><ele>517.0</ele><time>2026-04-11T16:01:41.999Z</time></trkpt><trkpt lat="43.230566466125495" lon="12.96825597714342"><ele>517.0</ele><time>2026-04-11T16:01:42.999Z</time></trkpt><trkpt lat="43.23047949519081" lon="12.968178477040821"><ele>517.0</ele><time>2026-04-11T16:01:43.999Z</time></trkpt><trkpt lat="43.230401136923234" lon="12.968093596182316"><ele>515.4</ele><time>2026-04-11T16:01:44.999Z</time></trkpt><trkpt lat="43.230326807078825" lon="12.967979261718684"><ele>513.8000000000001</ele><time>2026-04-11T16:01:45.999Z</time></trkpt><trkpt lat="43.23024102040473" lon="12.9678677415487"><ele>512.2</ele><time>2026-04-11T16:01:46.999Z</time></trkpt><trkpt lat="43.230149126214556" lon="12.967767874255118"><ele>510.6</ele><time>2026-04-11T16:01:47.999Z</time></trkpt><trkpt lat="43.23007100816703" lon="12.967698930749341"><ele>509.0</ele><time>2026-04-11T16:01:48.999Z</time></trkpt><trkpt lat="43.23000615375324" lon="12.967714164419883"><ele>509.0</ele><time>2026-04-11T16:01:50.999Z</time></trkpt><trkpt lat="43.229956480137886" lon="12.967868534510039"><ele>509.0</ele><time>2026-04-11T16:01:52.999Z</time></trkpt><trkpt lat="43.22989857273706" lon="12.967915116831515"><ele>509.0</ele><time>2026-04-11T16:01:54.999Z</time></trkpt><trkpt lat="43.22982807673697" lon="12.967983260419556"><ele>509.0</ele><time>2026-04-11T16:02:03.999Z</time></trkpt><trkpt lat="43.229773465291665" lon="12.96803763037538"><ele>509.0</ele><time>2026-04-11T16:02:04.999Z</time></trkpt><trkpt lat="43.22968038961814" lon="12.968116366902699"><ele>510.0</ele><time>2026-04-11T16:02:05.999Z</time></trkpt><trkpt lat="43.229600163628774" lon="12.968179415178595"><ele>511.0</ele><time>2026-04-11T16:02:06.999Z</time></trkpt><trkpt lat="43.229498586900924" lon="12.968273592627888"><ele>512.0</ele><time>2026-04-11T16:02:07.999Z</time></trkpt><trkpt lat="43.229370345925055" lon="12.96834017563433"><ele>513.0</ele><time>2026-04-11T16:02:08.999Z</time></trkpt><trkpt lat="43.22925387398352" lon="12.96833242845391"><ele>513.0</ele><time>2026-04-11T16:02:09.999Z</time></trkpt><trkpt lat="43.22914732665148" lon="12.968351038658863"><ele>513.0</ele><time>2026-04-11T16:02:10.999Z</time></trkpt><trkpt lat="43.22904468219156" lon="12.968412545598637"><ele>513.0</ele><time>2026-04-11T16:02:11.999Z</time></trkpt><trkpt lat="43.22893597741813" lon="12.968469255307777"><ele>513.0</ele><time>2026-04-11T16:02:12.999Z</time></trkpt><trkpt lat="43.22886192039399" lon="12.968505702620085"><ele>513.0</ele><time>2026-04-11T16:02:13.999Z</time></trkpt><trkpt lat="43.22872990736064" lon="12.968595399701373"><ele>510.4</ele><time>2026-04-11T16:02:14.999Z</time></trkpt><trkpt lat="43.228662610594306" lon="12.968746047384712"><ele>507.79999999999995</ele><time>2026-04-11T16:02:15.999Z</time></trkpt><trkpt lat="43.22858972986959" lon="12.968891126639758"><ele>505.2</ele><time>2026-04-11T16:02:16.999Z</time></trkpt><trkpt lat="43.2285329440467" lon="12.968946071246249"><ele>502.6</ele><time>2026-04-11T16:02:17.999Z</time></trkpt><trkpt lat="43.228460805380074" lon="12.968949369233874"><ele>500.0</ele><time>2026-04-11T16:02:18.999Z</time></trkpt><trkpt lat="43.228360458992064" lon="12.9688981603104"><ele>500.0</ele><time>2026-04-11T16:02:19.999Z</time></trkpt><trkpt lat="43.22825102301331" lon="12.968847117072256"><ele>500.0</ele><time>2026-04-11T16:02:20.999Z</time></trkpt><trkpt lat="43.228175026817816" lon="12.968827554021614"><ele>500.0</ele><time>2026-04-11T16:02:21.999Z</time></trkpt><trkpt lat="43.22810262869776" lon="12.968864436210797"><ele>500.0</ele><time>2026-04-11T16:02:22.999Z</time></trkpt><trkpt lat="43.228005741156935" lon="12.968863334829711"><ele>500.0</ele><time>2026-04-11T16:02:23.999Z</time></trkpt><trkpt lat="43.22788849239412" lon="12.968853371355804"><ele>499.0</ele><time>2026-04-11T16:02:24.999Z</time></trkpt><trkpt lat="43.227807514047065" lon="12.968858936237488"><ele>498.0</ele><time>2026-04-11T16:02:25.999Z</time></trkpt><trkpt lat="43.2276734935062" lon="12.968873157063035"><ele>497.0</ele><time>2026-04-11T16:02:26.999Z</time></trkpt><trkpt lat="43.22754580526898" lon="12.968909838801821"><ele>496.0</ele><time>2026-04-11T16:02:27.999Z</time></trkpt><trkpt lat="43.227434277994675" lon="12.968911629969961"><ele>494.25</ele><time>2026-04-11T16:02:28.999Z</time></trkpt><trkpt lat="43.22730026093156" lon="12.968953636571758"><ele>492.5</ele><time>2026-04-11T16:02:29.999Z</time></trkpt><trkpt lat="43.227163755007595" lon="12.968985751480961"><ele>490.75</ele><time>2026-04-11T16:02:30.999Z</time></trkpt><trkpt lat="43.22703029133055" lon="12.969012395352241"><ele>489.0</ele><time>2026-04-11T16:02:31.999Z</time></trkpt><trkpt lat="43.22691323580971" lon="12.969032403352111"><ele>489.0</ele><time>2026-04-11T16:02:32.999Z</time></trkpt><trkpt lat="43.22682071786288" lon="12.969063466624656"><ele>489.0</ele><time>2026-04-11T16:02:33.999Z</time></trkpt><trkpt lat="43.22675516634576" lon="12.969081390424975"><ele>489.0</ele><time>2026-04-11T16:02:34.999Z</time></trkpt><trkpt lat="43.22668910002047" lon="12.969043593230131"><ele>489.0</ele><time>2026-04-11T16:02:57Z</time></trkpt><trkpt lat="43.226607946024124" lon="12.968976929579057"><ele>489.0</ele><time>2026-04-11T16:02:59Z</time></trkpt><trkpt lat="43.226507142930956" lon="12.968965610318069"><ele>489.0</ele><time>2026-04-11T16:03:00Z</time></trkpt><trkpt lat="43.226429763876844" lon="12.968956457891347"><ele>493.5</ele><time>2026-04-11T16:03:01Z</time></trkpt><trkpt lat="43.22632704947132" lon="12.968959136990936"><ele>498.0</ele><time>2026-04-11T16:03:02Z</time></trkpt><trkpt lat="43.22620332492655" lon="12.968895457575897"><ele>502.5</ele><time>2026-04-11T16:03:03Z</time></trkpt><trkpt lat="43.226089249438886" lon="12.96883388519127"><ele>507.0</ele><time>2026-04-11T16:03:04Z</time></trkpt><trkpt lat="43.22597998954234" lon="12.968787579449184"><ele>507.0</ele><time>2026-04-11T16:03:05Z</time></trkpt><trkpt lat="43.225894178477226" lon="12.96874358272338"><ele>507.0</ele><time>2026-04-11T16:03:06Z</time></trkpt><trkpt lat="43.22583656849017" lon="12.968822312380853"><ele>507.0</ele><time>2026-04-11T16:03:15Z</time></trkpt><trkpt lat="43.22572266855879" lon="12.968871881814358"><ele>507.0</ele><time>2026-04-11T16:03:17Z</time></trkpt><trkpt lat="43.22565966886418" lon="12.968893666303677"><ele>507.0</ele><time>2026-04-11T16:03:18Z</time></trkpt><trkpt lat="43.22561039550803" lon="12.968970893708605"><ele>507.0</ele><time>2026-04-11T16:03:20Z</time></trkpt><trkpt lat="43.22558662840401" lon="12.969053162708429"><ele>511.40000000000003</ele><time>2026-04-11T16:03:22Z</time></trkpt><trkpt lat="43.22551321046206" lon="12.969104708868038"><ele>515.8000000000001</ele><time>2026-04-11T16:03:24Z</time></trkpt><trkpt lat="43.22546055763327" lon="12.96915271408989"><ele>520.2</ele><time>2026-04-11T16:03:26Z</time></trkpt><trkpt lat="43.22539694980023" lon="12.969257282943571"><ele>524.6</ele><time>2026-04-11T16:03:28Z</time></trkpt><trkpt lat="43.22538926045479" lon="12.969343766643199"><ele>529.0</ele><time>2026-04-11T16:03:30Z</time></trkpt><trkpt lat="43.22522369825614" lon="12.969557529017429"><ele>529.0</ele><time>2026-04-11T16:03:32Z</time></trkpt><trkpt lat="43.225170322455874" lon="12.969648451561278"><ele>529.0</ele><time>2026-04-11T16:03:33Z</time></trkpt><trkpt lat="43.22512779391029" lon="12.969734828706923"><ele>529.0</ele><time>2026-04-11T16:03:34Z</time></trkpt><trkpt lat="43.22509545685556" lon="12.969809446087922"><ele>529.0</ele><time>2026-04-11T16:03:35Z</time></trkpt><trkpt lat="43.22502176185471" lon="12.969936285155573"><ele>529.0</ele><time>2026-04-11T16:03:36.999Z</time></trkpt><trkpt lat="43.224979350911646" lon="12.970074300528347"><ele>528.2</ele><time>2026-04-11T16:03:38.999Z</time></trkpt><trkpt lat="43.22490516529316" lon="12.970186823008266"><ele>527.4</ele><time>2026-04-11T16:03:40.999Z</time></trkpt><trkpt lat="43.2248132408439" lon="12.970285693902397"><ele>526.6</ele><time>2026-04-11T16:03:42.999Z</time></trkpt><trkpt lat="43.22472773638332" lon="12.970378402295884"><ele>525.8</ele><time>2026-04-11T16:03:44.999Z</time></trkpt><trkpt lat="43.22466520902597" lon="12.970482351225998"><ele>525.0</ele><time>2026-04-11T16:03:46.999Z</time></trkpt><trkpt lat="43.22462700336807" lon="12.970615340293921"><ele>529.8</ele><time>2026-04-11T16:03:48.999Z</time></trkpt><trkpt lat="43.22459977659473" lon="12.97070933072379"><ele>534.6</ele><time>2026-04-11T16:03:49.999Z</time></trkpt><trkpt lat="43.2245753682118" lon="12.97083569746564"><ele>539.4</ele><time>2026-04-11T16:03:50.999Z</time></trkpt><trkpt lat="43.22457273032786" lon="12.97093768002696"><ele>544.2</ele><time>2026-04-11T16:03:51.999Z</time></trkpt><trkpt lat="43.224520463139704" lon="12.971054546373933"><ele>549.0</ele><time>2026-04-11T16:03:53.999Z</time></trkpt><trkpt lat="43.22446604681127" lon="12.971216429655751"><ele>549.0</ele><time>2026-04-11T16:03:55.999Z</time></trkpt><trkpt lat="43.22442524827457" lon="12.971324744038101"><ele>549.0</ele><time>2026-04-11T16:03:56.999Z</time></trkpt><trkpt lat="43.2243844359858" lon="12.971390543049965"><ele>549.0</ele><time>2026-04-11T16:03:57.999Z</time></trkpt><trkpt lat="43.22431939292226" lon="12.971470906981187"><ele>549.0</ele><time>2026-04-11T16:03:58.999Z</time></trkpt><trkpt lat="43.22425390217982" lon="12.971490191309709"><ele>549.0</ele><time>2026-04-11T16:03:59.999Z</time></trkpt><trkpt lat="43.22416008420399" lon="12.971534616337593"><ele>549.0</ele><time>2026-04-11T16:04:01.999Z</time></trkpt><trkpt lat="43.224104217347936" lon="12.971587933061677"><ele>548.6</ele><time>2026-04-11T16:04:03.999Z</time></trkpt><trkpt lat="43.224014616558975" lon="12.971691020191418"><ele>548.2</ele><time>2026-04-11T16:04:05.999Z</time></trkpt><trkpt lat="43.22392431250735" lon="12.971715103519"><ele>547.8000000000001</ele><time>2026-04-11T16:04:06.999Z</time></trkpt><trkpt lat="43.22384365385293" lon="12.97172650194201"><ele>547.4</ele><time>2026-04-11T16:04:07.999Z</time></trkpt><trkpt lat="43.223722812957384" lon="12.971732485030694"><ele>547.0</ele><time>2026-04-11T16:04:09.999Z</time></trkpt><trkpt lat="43.22364320125513" lon="12.971679649058126"><ele>547.0</ele><time>2026-04-11T16:04:10.999Z</time></trkpt><trkpt lat="43.22355384653088" lon="12.971645895675648"><ele>547.0</ele><time>2026-04-11T16:04:11.999Z</time></trkpt><trkpt lat="43.223475839547845" lon="12.97166311474248"><ele>547.0</ele><time>2026-04-11T16:04:12.999Z</time></trkpt><trkpt lat="43.223344382653394" lon="12.971641103909443"><ele>547.0</ele><time>2026-04-11T16:04:14.999Z</time></trkpt><trkpt lat="43.22327251982588" lon="12.971621797070647"><ele>547.0</ele><time>2026-04-11T16:04:15.999Z</time></trkpt><trkpt lat="43.22317768668979" lon="12.971603435610913"><ele>545.4</ele><time>2026-04-11T16:04:16.999Z</time></trkpt><trkpt lat="43.2230836185105" lon="12.971591091257537"><ele>543.8000000000001</ele><time>2026-04-11T16:04:17.999Z</time></trkpt><trkpt lat="43.22300881043859" lon="12.971524823137365"><ele>542.2</ele><time>2026-04-11T16:04:18.999Z</time></trkpt><trkpt lat="43.22293228793815" lon="12.971455056030793"><ele>540.6</ele><time>2026-04-11T16:04:19.999Z</time></trkpt><trkpt lat="43.22281208380371" lon="12.971356325872325"><ele>539.0</ele><time>2026-04-11T16:04:21.999Z</time></trkpt><trkpt lat="43.22269444372428" lon="12.971282044735752"><ele>539.0</ele><time>2026-04-11T16:04:22.999Z</time></trkpt><trkpt lat="43.222611347516604" lon="12.971254705778964"><ele>539.0</ele><time>2026-04-11T16:04:23.999Z</time></trkpt><trkpt lat="43.22254469879625" lon="12.971260609918895"><ele>539.0</ele><time>2026-04-11T16:04:24.999Z</time></trkpt><trkpt lat="43.22247304284459" lon="12.97123508308834"><ele>539.0</ele><time>2026-04-11T16:04:25.999Z</time></trkpt><trkpt lat="43.22238599274074" lon="12.971236477070352"><ele>539.0</ele><time>2026-04-11T16:04:26.999Z</time></trkpt><trkpt lat="43.222290085786405" lon="12.971211185562423"><ele>539.0</ele><time>2026-04-11T16:04:27.999Z</time></trkpt><trkpt lat="43.22221631017806" lon="12.971180802518216"><ele>540.2</ele><time>2026-04-11T16:04:28.999Z</time></trkpt><trkpt lat="43.22208452860724" lon="12.9712069027616"><ele>541.4</ele><time>2026-04-11T16:04:30.999Z</time></trkpt><trkpt lat="43.22200396381165" lon="12.971226574113999"><ele>542.6</ele><time>2026-04-11T16:04:31.999Z</time></trkpt><trkpt lat="43.22194030166346" lon="12.971239118301753"><ele>543.8</ele><time>2026-04-11T16:04:32.999Z</time></trkpt><trkpt lat="43.22183643656347" lon="12.971259643318021"><ele>545.0</ele><time>2026-04-11T16:04:34.999Z</time></trkpt><trkpt lat="43.22175431329359" lon="12.971293641056299"><ele>545.0</ele><time>2026-04-11T16:04:35.999Z</time></trkpt><trkpt lat="43.22167618429446" lon="12.971306597944878"><ele>545.0</ele><time>2026-04-11T16:04:36.999Z</time></trkpt><trkpt lat="43.221596530958344" lon="12.971352024702053"><ele>545.0</ele><time>2026-04-11T16:04:37.999Z</time></trkpt><trkpt lat="43.221506658416274" lon="12.971390177863086"><ele>545.0</ele><time>2026-04-11T16:04:38.999Z</time></trkpt><trkpt lat="43.221403577464564" lon="12.97143893863083"><ele>545.0</ele><time>2026-04-11T16:04:39.999Z</time></trkpt><trkpt lat="43.221313748764885" lon="12.971460543510256"><ele>546.2</ele><time>2026-04-11T16:04:40.999Z</time></trkpt><trkpt lat="43.22124075103992" lon="12.97147289178906"><ele>547.4</ele><time>2026-04-11T16:04:41.999Z</time></trkpt><trkpt lat="43.221162577905574" lon="12.971493318128795"><ele>548.6</ele><time>2026-04-11T16:04:42.999Z</time></trkpt><trkpt lat="43.22103001331872" lon="12.971500844127885"><ele>549.8</ele><time>2026-04-11T16:04:44.999Z</time></trkpt><trkpt lat="43.22094989511285" lon="12.97155872332754"><ele>551.0</ele><time>2026-04-11T16:04:45.999Z</time></trkpt><trkpt lat="43.2208745786456" lon="12.97162682454133"><ele>552.2</ele><time>2026-04-11T16:04:46.999Z</time></trkpt><trkpt lat="43.220814787686386" lon="12.97169296631608"><ele>553.4000000000001</ele><time>2026-04-11T16:04:47.999Z</time></trkpt><trkpt lat="43.22066399988307" lon="12.971699253423768"><ele>554.6</ele><time>2026-04-11T16:04:50Z</time></trkpt><trkpt lat="43.22058270813917" lon="12.971681496752412"><ele>555.8000000000001</ele><time>2026-04-11T16:04:51Z</time></trkpt><trkpt lat="43.22052099156029" lon="12.97165132305378"><ele>557.0</ele><time>2026-04-11T16:04:52Z</time></trkpt><trkpt lat="43.2204032071755" lon="12.971576611566658"><ele>557.0</ele><time>2026-04-11T16:04:54Z</time></trkpt><trkpt lat="43.22031255695555" lon="12.971545210318395"><ele>557.0</ele><time>2026-04-11T16:04:55Z</time></trkpt><trkpt lat="43.2202343938795" lon="12.97155117330349"><ele>557.0</ele><time>2026-04-11T16:04:56Z</time></trkpt><trkpt lat="43.220149049012484" lon="12.971579226453345"><ele>557.0</ele><time>2026-04-11T16:04:57Z</time></trkpt><trkpt lat="43.22008681064084" lon="12.971595236231638"><ele>557.0</ele><time>2026-04-11T16:04:58Z</time></trkpt><trkpt lat="43.22001691692019" lon="12.971620479873506"><ele>557.0</ele><time>2026-04-11T16:04:59Z</time></trkpt><trkpt lat="43.219915382925215" lon="12.971714226557761"><ele>554.8333333333333</ele><time>2026-04-11T16:05:01Z</time></trkpt><trkpt lat="43.2198535686717" lon="12.971796833508119"><ele>552.6666666666666</ele><time>2026-04-11T16:05:02Z</time></trkpt><trkpt lat="43.21981139514564" lon="12.971896537273418"><ele>550.5</ele><time>2026-04-11T16:05:04Z</time></trkpt><trkpt lat="43.21987437067805" lon="12.971986928547182"><ele>548.3333333333334</ele><time>2026-04-11T16:05:07Z</time></trkpt><trkpt lat="43.21993429212086" lon="12.972045434576229"><ele>546.1666666666667</ele><time>2026-04-11T16:05:26Z</time></trkpt><trkpt lat="43.219988368831864" lon="12.972145120801718"><ele>544.0</ele><time>2026-04-11T16:05:28Z</time></trkpt><trkpt lat="43.220009671767635" lon="12.972243055186201"><ele>544.0</ele><time>2026-04-11T16:05:29Z</time></trkpt><trkpt lat="43.22002697872003" lon="12.972350234537423"><ele>544.0</ele><time>2026-04-11T16:05:30Z</time></trkpt><trkpt lat="43.220061763334435" lon="12.972485746702773"><ele>544.0</ele><time>2026-04-11T16:05:31Z</time></trkpt><trkpt lat="43.2200698204722" lon="12.972590979303257"><ele>544.0</ele><time>2026-04-11T16:05:32Z</time></trkpt><trkpt lat="43.22010706821143" lon="12.972700930466331"><ele>544.0</ele><time>2026-04-11T16:05:33Z</time></trkpt><trkpt lat="43.22013550265388" lon="12.972826819224876"><ele>544.0</ele><time>2026-04-11T16:05:34Z</time></trkpt><trkpt lat="43.220163770909586" lon="12.972937424154015"><ele>544.8</ele><time>2026-04-11T16:05:35Z</time></trkpt><trkpt lat="43.22022133798064" lon="12.973045747990557"><ele>545.5999999999999</ele><time>2026-04-11T16:05:36Z</time></trkpt><trkpt lat="43.22029418893029" lon="12.973142964491709"><ele>546.4</ele><time>2026-04-11T16:05:37Z</time></trkpt><trkpt lat="43.2203461680201" lon="12.973254291257238"><ele>547.1999999999999</ele><time>2026-04-11T16:05:38Z</time></trkpt><trkpt lat="43.22041133600458" lon="12.973367503012945"><ele>548.0</ele><time>2026-04-11T16:05:39Z</time></trkpt><trkpt lat="43.220467183131426" lon="12.973481663150965"><ele>548.5</ele><time>2026-04-11T16:05:40Z</time></trkpt><trkpt lat="43.220534516398885" lon="12.973562614200457"><ele>549.0</ele><time>2026-04-11T16:05:41Z</time></trkpt><trkpt lat="43.220596854342" lon="12.973615750720136"><ele>549.5</ele><time>2026-04-11T16:05:42Z</time></trkpt><trkpt lat="43.220671319700664" lon="12.973648047387387"><ele>550.0</ele><time>2026-04-11T16:05:43Z</time></trkpt><trkpt lat="43.220683168540184" lon="12.97373441167955"><ele>550.5</ele><time>2026-04-11T16:05:47Z</time></trkpt><trkpt lat="43.220654831849075" lon="12.973837944086693"><ele>551.0</ele><time>2026-04-11T16:05:52.999Z</time></trkpt><trkpt lat="43.22062777124069" lon="12.973959362301796"><ele>551.0</ele><time>2026-04-11T16:05:54.999Z</time></trkpt><trkpt lat="43.22062424068508" lon="12.974053688162288"><ele>551.0</ele><time>2026-04-11T16:05:55.999Z</time></trkpt><trkpt lat="43.22063509277322" lon="12.974173791901894"><ele>551.0</ele><time>2026-04-11T16:05:56.999Z</time></trkpt><trkpt lat="43.220650467482905" lon="12.974334793441479"><ele>551.0</ele><time>2026-04-11T16:05:57.999Z</time></trkpt><trkpt lat="43.2206752563337" lon="12.974461463701344"><ele>551.0</ele><time>2026-04-11T16:05:58.999Z</time></trkpt><trkpt lat="43.22065403422743" lon="12.974555603193965"><ele>551.0</ele><time>2026-04-11T16:05:59.999Z</time></trkpt><trkpt lat="43.22057867237799" lon="12.974705177924097"><ele>550.8571428571428</ele><time>2026-04-11T16:06:01.999Z</time></trkpt><trkpt lat="43.22054023740032" lon="12.974777873798676"><ele>550.7142857142857</ele><time>2026-04-11T16:06:02.999Z</time></trkpt><trkpt lat="43.220504143908144" lon="12.974855236728645"><ele>550.5714285714286</ele><time>2026-04-11T16:06:03.999Z</time></trkpt><trkpt lat="43.22048688785795" lon="12.974963418563453"><ele>550.4285714285713</ele><time>2026-04-11T16:06:05.999Z</time></trkpt><trkpt lat="43.22046208345884" lon="12.975050020850698"><ele>550.2857142857142</ele><time>2026-04-11T16:06:07.999Z</time></trkpt><trkpt lat="43.22045313028917" lon="12.975141459963426"><ele>550.1428571428571</ele><time>2026-04-11T16:06:08.999Z</time></trkpt><trkpt lat="43.22046216738528" lon="12.975232574320897"><ele>550.0</ele><time>2026-04-11T16:06:09.999Z</time></trkpt><trkpt lat="43.22046766600444" lon="12.97532013179496"><ele>550.0</ele><time>2026-04-11T16:06:10.999Z</time></trkpt><trkpt lat="43.22049141025006" lon="12.975472415214128"><ele>550.0</ele><time>2026-04-11T16:06:12.999Z</time></trkpt><trkpt lat="43.22051929850822" lon="12.97560640577189"><ele>550.0</ele><time>2026-04-11T16:06:13.999Z</time></trkpt><trkpt lat="43.220515458405906" lon="12.975709160351348"><ele>550.0</ele><time>2026-04-11T16:06:14.999Z</time></trkpt><trkpt lat="43.22045839228602" lon="12.97587932130941"><ele>550.0</ele><time>2026-04-11T16:06:16.999Z</time></trkpt><trkpt lat="43.22041093396469" lon="12.97596421460228"><ele>549.4</ele><time>2026-04-11T16:06:18.999Z</time></trkpt><trkpt lat="43.220416368416785" lon="12.976110062023027"><ele>548.8</ele><time>2026-04-11T16:06:21.999Z</time></trkpt><trkpt lat="43.22041641368233" lon="12.97625407208869"><ele>548.2</ele><time>2026-04-11T16:06:23.999Z</time></trkpt><trkpt lat="43.22047238434223" lon="12.976328737919482"><ele>547.6</ele><time>2026-04-11T16:06:25.999Z</time></trkpt><trkpt lat="43.220469842370534" lon="12.976466849436092"><ele>547.0</ele><time>2026-04-11T16:06:28.999Z</time></trkpt><trkpt lat="43.220445249664515" lon="12.976562384256404"><ele>547.0</ele><time>2026-04-11T16:06:30.999Z</time></trkpt><trkpt lat="43.22043583846924" lon="12.976673770987528"><ele>547.0</ele><time>2026-04-11T16:06:32.999Z</time></trkpt><trkpt lat="43.22040157558759" lon="12.976746268239333"><ele>547.0</ele><time>2026-04-11T16:06:34.999Z</time></trkpt><trkpt lat="43.22037104133045" lon="12.976948659535054"><ele>547.0</ele><time>2026-04-11T16:06:36.999Z</time></trkpt><trkpt lat="43.220399905672494" lon="12.977049555825989"><ele>547.0</ele><time>2026-04-11T16:06:38.999Z</time></trkpt><trkpt lat="43.22042245256296" lon="12.97717564389549"><ele>546.6666666666667</ele><time>2026-04-11T16:06:40.999Z</time></trkpt><trkpt lat="43.22044422235097" lon="12.977271121380344"><ele>546.3333333333334</ele><time>2026-04-11T16:06:43.999Z</time></trkpt><trkpt lat="43.22051553541591" lon="12.977297573662138"><ele>546.0</ele><time>2026-04-11T16:06:46.999Z</time></trkpt><trkpt lat="43.22058131149356" lon="12.977259954466822"><ele>545.6666666666666</ele><time>2026-04-11T16:06:47.999Z</time></trkpt><trkpt lat="43.22067295604484" lon="12.977173174413744"><ele>545.3333333333333</ele><time>2026-04-11T16:06:49.999Z</time></trkpt><trkpt lat="43.22074439719519" lon="12.977121208836207"><ele>545.0</ele><time>2026-04-11T16:06:50.999Z</time></trkpt><trkpt lat="43.22079663414665" lon="12.977060866130511"><ele>540.5</ele><time>2026-04-11T16:06:51.999Z</time></trkpt><trkpt lat="43.220819779125804" lon="12.976963537108977"><ele>536.0</ele><time>2026-04-11T16:06:53.999Z</time></trkpt><trkpt lat="43.220836520783116" lon="12.976830224666688"><ele>531.5</ele><time>2026-04-11T16:06:56Z</time></trkpt><trkpt lat="43.22091081721681" lon="12.976745651722599"><ele>527.0</ele><time>2026-04-11T16:06:58Z</time></trkpt><trkpt lat="43.220978289548896" lon="12.976684570354895"><ele>522.5</ele><time>2026-04-11T16:07:02Z</time></trkpt><trkpt lat="43.221003114011936" lon="12.976574037852137"><ele>518.0</ele><time>2026-04-11T16:07:04Z</time></trkpt><trkpt lat="43.22106658612604" lon="12.976544795814922"><ele>518.0</ele><time>2026-04-11T16:07:06Z</time></trkpt><trkpt lat="43.221153324896754" lon="12.97643359225195"><ele>518.0</ele><time>2026-04-11T16:07:09Z</time></trkpt><trkpt lat="43.221236932562036" lon="12.97633856686801"><ele>518.0</ele><time>2026-04-11T16:07:11Z</time></trkpt><trkpt lat="43.221326768936365" lon="12.976277364859138"><ele>518.0</ele><time>2026-04-11T16:07:13Z</time></trkpt><trkpt lat="43.22140292957872" lon="12.976170787187602"><ele>518.0</ele><time>2026-04-11T16:07:15Z</time></trkpt><trkpt lat="43.22143025618621" lon="12.97605900389406"><ele>518.0</ele><time>2026-04-11T16:07:18Z</time></trkpt><trkpt lat="43.22149076754633" lon="12.976007849544033"><ele>518.0</ele><time>2026-04-11T16:07:20Z</time></trkpt><trkpt lat="43.221481855848744" lon="12.976154936866255"><ele>518.0</ele><time>2026-04-11T16:07:23Z</time></trkpt><trkpt lat="43.221456608557084" lon="12.976252030331086"><ele>518.0</ele><time>2026-04-11T16:07:24Z</time></trkpt><trkpt lat="43.221427698251" lon="12.976355614594477"><ele>518.0</ele><time>2026-04-11T16:07:25Z</time></trkpt><trkpt lat="43.22140131058573" lon="12.976469633576908"><ele>518.0</ele><time>2026-04-11T16:07:26Z</time></trkpt><trkpt lat="43.22137198147103" lon="12.976573249405073"><ele>517.0</ele><time>2026-04-11T16:07:27Z</time></trkpt><trkpt lat="43.22133600754889" lon="12.976701286896306"><ele>516.0</ele><time>2026-04-11T16:07:28Z</time></trkpt><trkpt lat="43.22130187037724" lon="12.976849515535264"><ele>515.0</ele><time>2026-04-11T16:07:29Z</time></trkpt><trkpt lat="43.22128456968574" lon="12.976971677876877"><ele>514.0</ele><time>2026-04-11T16:07:30Z</time></trkpt><trkpt lat="43.221250179938004" lon="12.977099542404625"><ele>513.0</ele><time>2026-04-11T16:07:31Z</time></trkpt><trkpt lat="43.221196255438365" lon="12.977220826146697"><ele>513.0</ele><time>2026-04-11T16:07:32Z</time></trkpt><trkpt lat="43.22113222618438" lon="12.977345537036623"><ele>513.0</ele><time>2026-04-11T16:07:33Z</time></trkpt><trkpt lat="43.22105182697681" lon="12.977434255804626"><ele>513.0</ele><time>2026-04-11T16:07:34Z</time></trkpt><trkpt lat="43.22098317130147" lon="12.977505105446024"><ele>513.0</ele><time>2026-04-11T16:07:35Z</time></trkpt><trkpt lat="43.220917561935124" lon="12.977597689665647"><ele>513.0</ele><time>2026-04-11T16:07:36Z</time></trkpt><trkpt lat="43.22087439647129" lon="12.977700772593654"><ele>510.4</ele><time>2026-04-11T16:07:37Z</time></trkpt><trkpt lat="43.220800197466495" lon="12.977789785413375"><ele>507.79999999999995</ele><time>2026-04-11T16:07:38Z</time></trkpt><trkpt lat="43.22073016951748" lon="12.977905586220775"><ele>505.2</ele><time>2026-04-11T16:07:39Z</time></trkpt><trkpt lat="43.220670184467615" lon="12.977991628154882"><ele>502.6</ele><time>2026-04-11T16:07:40Z</time></trkpt><trkpt lat="43.22061212085271" lon="12.978103938237611"><ele>500.0</ele><time>2026-04-11T16:07:41Z</time></trkpt><trkpt lat="43.220553823831864" lon="12.978214423599873"><ele>502.66666666666663</ele><time>2026-04-11T16:07:42Z</time></trkpt><trkpt lat="43.220512939028346" lon="12.978324898933922"><ele>505.3333333333333</ele><time>2026-04-11T16:07:43Z</time></trkpt><trkpt lat="43.22046507099299" lon="12.97841770522144"><ele>508.0</ele><time>2026-04-11T16:07:44Z</time></trkpt><trkpt lat="43.22038981453224" lon="12.978493763306156"><ele>510.66666666666663</ele><time>2026-04-11T16:07:45Z</time></trkpt><trkpt lat="43.22032795325519" lon="12.97854752551565"><ele>513.3333333333334</ele><time>2026-04-11T16:07:46Z</time></trkpt><trkpt lat="43.22026739584465" lon="12.978612894421662"><ele>516.0</ele><time>2026-04-11T16:07:47Z</time></trkpt><trkpt lat="43.220208791936344" lon="12.978707246693778"><ele>516.0</ele><time>2026-04-11T16:07:48Z</time></trkpt><trkpt lat="43.220142700067825" lon="12.978815660821011"><ele>516.0</ele><time>2026-04-11T16:07:49Z</time></trkpt><trkpt lat="43.22005040150938" lon="12.978935073964246"><ele>516.0</ele><time>2026-04-11T16:07:50Z</time></trkpt><trkpt lat="43.219976370941" lon="12.97905446536076"><ele>516.0</ele><time>2026-04-11T16:07:51Z</time></trkpt><trkpt lat="43.219907517963044" lon="12.979157707396183"><ele>516.0</ele><time>2026-04-11T16:07:52Z</time></trkpt><trkpt lat="43.21986391237739" lon="12.979227720047547"><ele>514.2</ele><time>2026-04-11T16:07:53Z</time></trkpt><trkpt lat="43.219823113286665" lon="12.979316027653093"><ele>512.4000000000001</ele><time>2026-04-11T16:07:54Z</time></trkpt><trkpt lat="43.21975446247069" lon="12.979433092109629"><ele>510.6</ele><time>2026-04-11T16:07:55Z</time></trkpt><trkpt lat="43.219671713770374" lon="12.979518875211316"><ele>508.8</ele><time>2026-04-11T16:07:56Z</time></trkpt><trkpt lat="43.2196105348929" lon="12.979623535689795"><ele>507.0</ele><time>2026-04-11T16:07:57Z</time></trkpt><trkpt lat="43.21955528888677" lon="12.97974201822106"><ele>510.40000000000003</ele><time>2026-04-11T16:07:58Z</time></trkpt><trkpt lat="43.219495535438824" lon="12.979873573038093"><ele>513.8000000000001</ele><time>2026-04-11T16:07:59Z</time></trkpt><trkpt lat="43.21944708436351" lon="12.979985772086122"><ele>517.2</ele><time>2026-04-11T16:08:00Z</time></trkpt><trkpt lat="43.21940427695471" lon="12.980095246636424"><ele>520.6</ele><time>2026-04-11T16:08:01Z</time></trkpt><trkpt lat="43.219323982370355" lon="12.980188012255736"><ele>524.0</ele><time>2026-04-11T16:08:02Z</time></trkpt><trkpt lat="43.21924576827154" lon="12.980282897627088"><ele>524.0</ele><time>2026-04-11T16:08:03Z</time></trkpt><trkpt lat="43.219184029040804" lon="12.98038679592767"><ele>524.0</ele><time>2026-04-11T16:08:03.999Z</time></trkpt><trkpt lat="43.219146313466" lon="12.980473218840432"><ele>524.0</ele><time>2026-04-11T16:08:04.999Z</time></trkpt><trkpt lat="43.21912312495931" lon="12.980558941618341"><ele>524.0</ele><time>2026-04-11T16:08:05.999Z</time></trkpt><trkpt lat="43.21910488183599" lon="12.980673808763415"><ele>524.0</ele><time>2026-04-11T16:08:06.999Z</time></trkpt><trkpt lat="43.21907226465359" lon="12.980780081602544"><ele>524.0</ele><time>2026-04-11T16:08:07.999Z</time></trkpt><trkpt lat="43.21901448090943" lon="12.980894757809043"><ele>522.8333333333333</ele><time>2026-04-11T16:08:08.999Z</time></trkpt><trkpt lat="43.21900820040303" lon="12.980993503001528"><ele>521.6666666666666</ele><time>2026-04-11T16:08:09.999Z</time></trkpt><trkpt lat="43.219003932201765" lon="12.981092791846901"><ele>520.5</ele><time>2026-04-11T16:08:10.999Z</time></trkpt><trkpt lat="43.21896329656994" lon="12.981178387228963"><ele>519.3333333333334</ele><time>2026-04-11T16:08:11.999Z</time></trkpt><trkpt lat="43.21890032969567" lon="12.981275088914138"><ele>518.1666666666667</ele><time>2026-04-11T16:08:12.999Z</time></trkpt><trkpt lat="43.21883408345781" lon="12.98136567643893"><ele>517.0</ele><time>2026-04-11T16:08:13.999Z</time></trkpt><trkpt lat="43.21873587098721" lon="12.981493402412436"><ele>519.6666666666667</ele><time>2026-04-11T16:08:15.999Z</time></trkpt><trkpt lat="43.21867196930269" lon="12.981588096263232"><ele>522.3333333333334</ele><time>2026-04-11T16:08:16.999Z</time></trkpt><trkpt lat="43.21861051548651" lon="12.981659986465235"><ele>525.0</ele><time>2026-04-11T16:08:17.999Z</time></trkpt><trkpt lat="43.2185551889199" lon="12.981705214817374"><ele>527.6666666666666</ele><time>2026-04-11T16:08:18.999Z</time></trkpt><trkpt lat="43.21848828338972" lon="12.98177820303965"><ele>530.3333333333333</ele><time>2026-04-11T16:08:19.999Z</time></trkpt><trkpt lat="43.218426760281886" lon="12.981883463368622"><ele>533.0</ele><time>2026-04-11T16:08:21.999Z</time></trkpt><trkpt lat="43.218341133827956" lon="12.981914312598153"><ele>533.0</ele><time>2026-04-11T16:08:25.999Z</time></trkpt><trkpt lat="43.21835268142925" lon="12.981816655392374"><ele>533.0</ele><time>2026-04-11T16:08:27.999Z</time></trkpt><trkpt lat="43.21827555300163" lon="12.981807132724354"><ele>533.0</ele><time>2026-04-11T16:08:30.999Z</time></trkpt><trkpt lat="43.21823795660623" lon="12.981910178779469"><ele>533.0</ele><time>2026-04-11T16:08:42.999Z</time></trkpt><trkpt lat="43.218189164714055" lon="12.982015741266961"><ele>533.0</ele><time>2026-04-11T16:08:45.999Z</time></trkpt><trkpt lat="43.21818244612329" lon="12.982125346465391"><ele>533.0</ele><time>2026-04-11T16:08:46.999Z</time></trkpt><trkpt lat="43.21814633239294" lon="12.9822959840854"><ele>534.0</ele><time>2026-04-11T16:08:48.999Z</time></trkpt><trkpt lat="43.21812036556726" lon="12.982414622221025"><ele>535.0</ele><time>2026-04-11T16:08:50.999Z</time></trkpt><trkpt lat="43.21812937447955" lon="12.98251340693795"><ele>536.0</ele><time>2026-04-11T16:08:52.999Z</time></trkpt><trkpt lat="43.218171987424135" lon="12.982613490058313"><ele>537.0</ele><time>2026-04-11T16:08:57.999Z</time></trkpt><trkpt lat="43.21822516811277" lon="12.982763749681888"><ele>538.0</ele><time>2026-04-11T16:08:59.999Z</time></trkpt><trkpt lat="43.21823456768039" lon="12.982852280832732"><ele>539.0</ele><time>2026-04-11T16:09:00.999Z</time></trkpt><trkpt lat="43.21822185076481" lon="12.982946248690443"><ele>539.0</ele><time>2026-04-11T16:09:02Z</time></trkpt><trkpt lat="43.21819385740153" lon="12.983033528508665"><ele>539.0</ele><time>2026-04-11T16:09:03Z</time></trkpt><trkpt lat="43.218136375644534" lon="12.98314932607776"><ele>539.0</ele><time>2026-04-11T16:09:05Z</time></trkpt><trkpt lat="43.218089802627134" lon="12.983233726966171"><ele>539.0</ele><time>2026-04-11T16:09:06Z</time></trkpt><trkpt lat="43.21800978403207" lon="12.983238106191632"><ele>539.0</ele><time>2026-04-11T16:09:07Z</time></trkpt><trkpt lat="43.21791890423165" lon="12.983215670217703"><ele>539.0</ele><time>2026-04-11T16:09:08Z</time></trkpt><trkpt lat="43.21782745607034" lon="12.983145566338315"><ele>540.2</ele><time>2026-04-11T16:09:09Z</time></trkpt><trkpt lat="43.21772559308137" lon="12.983109388997434"><ele>541.4</ele><time>2026-04-11T16:09:10Z</time></trkpt><trkpt lat="43.217620597228276" lon="12.983122687851182"><ele>542.6</ele><time>2026-04-11T16:09:11Z</time></trkpt><trkpt lat="43.21751027437829" lon="12.983172818845912"><ele>543.8</ele><time>2026-04-11T16:09:12Z</time></trkpt><trkpt lat="43.21741564945325" lon="12.98322514964733"><ele>545.0</ele><time>2026-04-11T16:09:13Z</time></trkpt><trkpt lat="43.21732055603242" lon="12.983236246390407"><ele>545.0</ele><time>2026-04-11T16:09:14Z</time></trkpt><trkpt lat="43.21724878304684" lon="12.983244005423282"><ele>545.0</ele><time>2026-04-11T16:09:15Z</time></trkpt><trkpt lat="43.217121855967925" lon="12.983275959895886"><ele>545.0</ele><time>2026-04-11T16:09:17Z</time></trkpt><trkpt lat="43.21704008655654" lon="12.983292907249655"><ele>545.0</ele><time>2026-04-11T16:09:18Z</time></trkpt><trkpt lat="43.21693471462415" lon="12.983287009091521"><ele>545.0</ele><time>2026-04-11T16:09:19Z</time></trkpt><trkpt lat="43.21681831482958" lon="12.983278221994533"><ele>545.0</ele><time>2026-04-11T16:09:20Z</time></trkpt><trkpt lat="43.216695818332916" lon="12.983277535344214"><ele>545.0</ele><time>2026-04-11T16:09:21Z</time></trkpt><trkpt lat="43.216574353218164" lon="12.983259008387032"><ele>545.0</ele><time>2026-04-11T16:09:22Z</time></trkpt><trkpt lat="43.21646187886966" lon="12.983247027542705"><ele>545.0</ele><time>2026-04-11T16:09:23Z</time></trkpt><trkpt lat="43.216357801158935" lon="12.983235934496145"><ele>545.5</ele><time>2026-04-11T16:09:24Z</time></trkpt><trkpt lat="43.21626070525002" lon="12.983233155428035"><ele>546.0</ele><time>2026-04-11T16:09:25Z</time></trkpt><trkpt lat="43.216165346630426" lon="12.983223498976846"><ele>546.5</ele><time>2026-04-11T16:09:26Z</time></trkpt><trkpt lat="43.21608587449936" lon="12.983209058639925"><ele>547.0</ele><time>2026-04-11T16:09:27Z</time></trkpt><trkpt lat="43.21602505960517" lon="12.983180070802247"><ele>547.5</ele><time>2026-04-11T16:09:28Z</time></trkpt><trkpt lat="43.215976907611" lon="12.983123655907296"><ele>548.0</ele><time>2026-04-11T16:09:30Z</time></trkpt><trkpt lat="43.21591043469396" lon="12.983081137259802"><ele>548.0</ele><time>2026-04-11T16:09:32Z</time></trkpt><trkpt lat="43.21579594752824" lon="12.983051376634789"><ele>548.0</ele><time>2026-04-11T16:09:34Z</time></trkpt><trkpt lat="43.215685945685145" lon="12.98304796192362"><ele>548.0</ele><time>2026-04-11T16:09:35Z</time></trkpt><trkpt lat="43.21556896289263" lon="12.983033127093769"><ele>548.0</ele><time>2026-04-11T16:09:36Z</time></trkpt><trkpt lat="43.21545839270469" lon="12.983012353601245"><ele>550.6</ele><time>2026-04-11T16:09:37Z</time></trkpt><trkpt lat="43.21536891088739" lon="12.98298028289815"><ele>553.1999999999999</ele><time>2026-04-11T16:09:38Z</time></trkpt><trkpt lat="43.21527661760806" lon="12.983027632529616"><ele>555.8</ele><time>2026-04-11T16:09:40Z</time></trkpt><trkpt lat="43.21523400186271" lon="12.983208814643435"><ele>558.4</ele><time>2026-04-11T16:09:42Z</time></trkpt><trkpt lat="43.21521096630348" lon="12.983301423886731"><ele>561.0</ele><time>2026-04-11T16:09:43Z</time></trkpt><trkpt lat="43.21514828871882" lon="12.983414754325912"><ele>561.0</ele><time>2026-04-11T16:09:45Z</time></trkpt><trkpt lat="43.21505847435797" lon="12.983327599623452"><ele>561.0</ele><time>2026-04-11T16:09:47Z</time></trkpt><trkpt lat="43.21499102397532" lon="12.983256974874697"><ele>561.0</ele><time>2026-04-11T16:09:48Z</time></trkpt><trkpt lat="43.214914088900734" lon="12.983121590640616"><ele>561.0</ele><time>2026-04-11T16:09:50Z</time></trkpt><trkpt lat="43.21482816561279" lon="12.983103878375642"><ele>561.0</ele><time>2026-04-11T16:09:51Z</time></trkpt><trkpt lat="43.2147321992515" lon="12.983057875220434"><ele>565.5</ele><time>2026-04-11T16:09:52Z</time></trkpt><trkpt lat="43.214552328163975" lon="12.982923669280247"><ele>570.0</ele><time>2026-04-11T16:09:54Z</time></trkpt><trkpt lat="43.21444313986445" lon="12.982814837252068"><ele>574.5</ele><time>2026-04-11T16:09:55Z</time></trkpt><trkpt lat="43.21436198909294" lon="12.982729708560713"><ele>579.0</ele><time>2026-04-11T16:09:56Z</time></trkpt><trkpt lat="43.21425566180887" lon="12.982672231302457"><ele>579.0</ele><time>2026-04-11T16:09:57Z</time></trkpt><trkpt lat="43.21413987365354" lon="12.98260843924347"><ele>579.0</ele><time>2026-04-11T16:09:58Z</time></trkpt><trkpt lat="43.21403956308218" lon="12.982534485463939"><ele>579.0</ele><time>2026-04-11T16:09:59Z</time></trkpt><trkpt lat="43.213895644203276" lon="12.982457472496895"><ele>579.0</ele><time>2026-04-11T16:10:00Z</time></trkpt><trkpt lat="43.213795503003155" lon="12.982374295270986"><ele>581.0</ele><time>2026-04-11T16:10:01Z</time></trkpt><trkpt lat="43.21368614485708" lon="12.982285952786796"><ele>583.0</ele><time>2026-04-11T16:10:02Z</time></trkpt><trkpt lat="43.213562060788085" lon="12.982181118191576"><ele>585.0</ele><time>2026-04-11T16:10:03Z</time></trkpt><trkpt lat="43.21343962437158" lon="12.982061497679247"><ele>587.0</ele><time>2026-04-11T16:10:04Z</time></trkpt><trkpt lat="43.21330949696867" lon="12.981925571379255"><ele>587.0</ele><time>2026-04-11T16:10:05Z</time></trkpt><trkpt lat="43.213202992287464" lon="12.981802643515408"><ele>587.0</ele><time>2026-04-11T16:10:06Z</time></trkpt><trkpt lat="43.213120604740006" lon="12.981651251723955"><ele>587.0</ele><time>2026-04-11T16:10:07Z</time></trkpt><trkpt lat="43.21305101507513" lon="12.981483643897386"><ele>587.0</ele><time>2026-04-11T16:10:08Z</time></trkpt><trkpt lat="43.21299179035201" lon="12.981350172793153"><ele>593.0</ele><time>2026-04-11T16:10:09Z</time></trkpt><trkpt lat="43.21292390107034" lon="12.981210255559864"><ele>599.0</ele><time>2026-04-11T16:10:09.999Z</time></trkpt><trkpt lat="43.21284736503575" lon="12.981070451671165"><ele>605.0</ele><time>2026-04-11T16:10:10.999Z</time></trkpt><trkpt lat="43.21277612419215" lon="12.98092953467024"><ele>611.0</ele><time>2026-04-11T16:10:11.999Z</time></trkpt><trkpt lat="43.21272459818852" lon="12.980819028292892"><ele>611.0</ele><time>2026-04-11T16:10:12.999Z</time></trkpt><trkpt lat="43.2127001177085" lon="12.980733445775247"><ele>611.0</ele><time>2026-04-11T16:10:14.999Z</time></trkpt><trkpt lat="43.21267132187817" lon="12.980624184880352"><ele>611.0</ele><time>2026-04-11T16:11:01.999Z</time></trkpt><trkpt lat="43.21262685490458" lon="12.980481863615019"><ele>611.0</ele><time>2026-04-11T16:11:03.999Z</time></trkpt><trkpt lat="43.21257656631965" lon="12.980368144346155"><ele>611.0</ele><time>2026-04-11T16:11:05.999Z</time></trkpt><trkpt lat="43.21252799752546" lon="12.980303661227866"><ele>611.0</ele><time>2026-04-11T16:11:06.999Z</time></trkpt><trkpt lat="43.212445665839766" lon="12.980230238978677"><ele>611.0</ele><time>2026-04-11T16:11:08Z</time></trkpt><trkpt lat="43.21238048707974" lon="12.980139923125826"><ele>611.0</ele><time>2026-04-11T16:11:09Z</time></trkpt><trkpt lat="43.212352142496" lon="12.980057938397062"><ele>611.0</ele><time>2026-04-11T16:11:10Z</time></trkpt><trkpt lat="43.2123460605512" lon="12.979876913015886"><ele>611.0</ele><time>2026-04-11T16:11:12Z</time></trkpt><trkpt lat="43.21231975433655" lon="12.979790676063356"><ele>611.0</ele><time>2026-04-11T16:11:13Z</time></trkpt><trkpt lat="43.21221978286694" lon="12.97965150984075"><ele>616.0</ele><time>2026-04-11T16:11:15Z</time></trkpt><trkpt lat="43.21216193670242" lon="12.979536139102997"><ele>621.0</ele><time>2026-04-11T16:11:16Z</time></trkpt><trkpt lat="43.21209417300093" lon="12.979437294667994"><ele>626.0</ele><time>2026-04-11T16:11:17Z</time></trkpt><trkpt lat="43.21203889026836" lon="12.979337217413617"><ele>631.0</ele><time>2026-04-11T16:11:18Z</time></trkpt><trkpt lat="43.21197879866735" lon="12.979230723495176"><ele>636.0</ele><time>2026-04-11T16:11:19Z</time></trkpt><trkpt lat="43.21192963113578" lon="12.979169304133237"><ele>636.0</ele><time>2026-04-11T16:11:20Z</time></trkpt><trkpt lat="43.21185961983925" lon="12.979108411927035"><ele>636.0</ele><time>2026-04-11T16:11:21Z</time></trkpt><trkpt lat="43.211786906566736" lon="12.97907413862231"><ele>636.0</ele><time>2026-04-11T16:11:22Z</time></trkpt><trkpt lat="43.21174793531665" lon="12.978956701336525"><ele>636.0</ele><time>2026-04-11T16:11:24Z</time></trkpt><trkpt lat="43.21171538940977" lon="12.97885944732779"><ele>636.0</ele><time>2026-04-11T16:11:25Z</time></trkpt><trkpt lat="43.21165459062585" lon="12.978777918968609"><ele>636.0</ele><time>2026-04-11T16:11:26Z</time></trkpt><trkpt lat="43.21159149979002" lon="12.978671970046587"><ele>636.0</ele><time>2026-04-11T16:11:27Z</time></trkpt><trkpt lat="43.211532102349935" lon="12.978575270757963"><ele>636.0</ele><time>2026-04-11T16:11:28Z</time></trkpt><trkpt lat="43.21145266685913" lon="12.978462088830343"><ele>636.0</ele><time>2026-04-11T16:11:29Z</time></trkpt><trkpt lat="43.21136783451202" lon="12.978373856594557"><ele>636.0</ele><time>2026-04-11T16:11:30Z</time></trkpt><trkpt lat="43.21127260109267" lon="12.978297533273194"><ele>636.0</ele><time>2026-04-11T16:11:31Z</time></trkpt><trkpt lat="43.21119560285088" lon="12.978233794544934"><ele>640.5</ele><time>2026-04-11T16:11:32Z</time></trkpt><trkpt lat="43.211110344230676" lon="12.978229123780286"><ele>645.0</ele><time>2026-04-11T16:11:33Z</time></trkpt><trkpt lat="43.211009041384266" lon="12.978206072883705"><ele>649.5</ele><time>2026-04-11T16:11:34Z</time></trkpt><trkpt lat="43.2109269957112" lon="12.978171514157012"><ele>654.0</ele><time>2026-04-11T16:11:35Z</time></trkpt><trkpt lat="43.210850336455124" lon="12.978157134222045"><ele>658.5</ele><time>2026-04-11T16:11:36Z</time></trkpt><trkpt lat="43.21077428399743" lon="12.9781414404309"><ele>663.0</ele><time>2026-04-11T16:11:38Z</time></trkpt><trkpt lat="43.21068003774949" lon="12.978166058522962"><ele>669.2</ele><time>2026-04-11T16:11:40Z</time></trkpt><trkpt lat="43.21056686504841" lon="12.978132130686832"><ele>675.4</ele><time>2026-04-11T16:11:42Z</time></trkpt><trkpt lat="43.21046909503794" lon="12.978010422065626"><ele>681.6</ele><time>2026-04-11T16:11:44Z</time></trkpt><trkpt lat="43.21035464231471" lon="12.977986281874198"><ele>687.8000000000001</ele><time>2026-04-11T16:11:46Z</time></trkpt><trkpt lat="43.210296348932935" lon="12.978023849918372"><ele>694.0</ele><time>2026-04-11T16:11:47Z</time></trkpt><trkpt lat="43.21022405275323" lon="12.978064934325413"><ele>694.0</ele><time>2026-04-11T16:11:48Z</time></trkpt><trkpt lat="43.21015360575701" lon="12.978086331215394"><ele>694.0</ele><time>2026-04-11T16:11:49Z</time></trkpt><trkpt lat="43.2100817811828" lon="12.978120923301514"><ele>694.0</ele><time>2026-04-11T16:11:50Z</time></trkpt><trkpt lat="43.20996223899287" lon="12.978188650282767"><ele>694.0</ele><time>2026-04-11T16:11:52Z</time></trkpt><trkpt lat="43.209935631939466" lon="12.9782853917703"><ele>694.0</ele><time>2026-04-11T16:11:53Z</time></trkpt><trkpt lat="43.20983117484939" lon="12.97838567143649"><ele>700.0</ele><time>2026-04-11T16:11:55Z</time></trkpt><trkpt lat="43.20977600377424" lon="12.978453621164729"><ele>706.0</ele><time>2026-04-11T16:11:56Z</time></trkpt><trkpt lat="43.20975447803747" lon="12.978544325155127"><ele>712.0</ele><time>2026-04-11T16:11:57Z</time></trkpt><trkpt lat="43.20979281239581" lon="12.978673498654862"><ele>718.0</ele><time>2026-04-11T16:11:59Z</time></trkpt><trkpt lat="43.20970310186442" lon="12.978764682813981"><ele>724.0</ele><time>2026-04-11T16:12:01Z</time></trkpt><trkpt lat="43.20961838752821" lon="12.9788314919105"><ele>724.0</ele><time>2026-04-11T16:12:03Z</time></trkpt><trkpt lat="43.20954044285982" lon="12.978917900294036"><ele>724.0</ele><time>2026-04-11T16:12:05Z</time></trkpt><trkpt lat="43.209451616778956" lon="12.97888332009088"><ele>724.0</ele><time>2026-04-11T16:12:07Z</time></trkpt><trkpt lat="43.209363111749894" lon="12.978752904447859"><ele>724.0</ele><time>2026-04-11T16:12:09Z</time></trkpt><trkpt lat="43.209296652007104" lon="12.978713000380454"><ele>724.0</ele><time>2026-04-11T16:12:10Z</time></trkpt><trkpt lat="43.209227131402194" lon="12.978696989406375"><ele>724.0</ele><time>2026-04-11T16:12:11Z</time></trkpt><trkpt lat="43.2091523790797" lon="12.97869853292959"><ele>724.0</ele><time>2026-04-11T16:12:12Z</time></trkpt><trkpt lat="43.209092287042026" lon="12.978789116146375"><ele>724.0</ele><time>2026-04-11T16:12:14Z</time></trkpt><trkpt lat="43.20905695747115" lon="12.97886381945712"><ele>724.0</ele><time>2026-04-11T16:12:15Z</time></trkpt><trkpt lat="43.20894648414469" lon="12.978930581831072"><ele>724.0</ele><time>2026-04-11T16:12:17Z</time></trkpt><trkpt lat="43.20887638884251" lon="12.978886733673404"><ele>724.0</ele><time>2026-04-11T16:12:18Z</time></trkpt><trkpt lat="43.20880302263066" lon="12.978745392579205"><ele>729.4000000000001</ele><time>2026-04-11T16:12:20Z</time></trkpt><trkpt lat="43.208678818671295" lon="12.97876999163389"><ele>734.8</ele><time>2026-04-11T16:12:22Z</time></trkpt><trkpt lat="43.20860187163883" lon="12.978870768581052"><ele>740.2</ele><time>2026-04-11T16:12:24Z</time></trkpt><trkpt lat="43.208546697783994" lon="12.978918635191947"><ele>745.5999999999999</ele><time>2026-04-11T16:12:25Z</time></trkpt><trkpt lat="43.20850192134041" lon="12.97898429468888"><ele>751.0</ele><time>2026-04-11T16:12:26Z</time></trkpt><trkpt lat="43.20852870861159" lon="12.979117391773256"><ele>754.5</ele><time>2026-04-11T16:12:28Z</time></trkpt><trkpt lat="43.20854725668066" lon="12.979212184944013"><ele>758.0</ele><time>2026-04-11T16:12:28.999Z</time></trkpt><trkpt lat="43.208535174005426" lon="12.979298310467087"><ele>761.5</ele><time>2026-04-11T16:12:29.999Z</time></trkpt><trkpt lat="43.208423558839506" lon="12.97933505379819"><ele>765.0</ele><time>2026-04-11T16:12:31.999Z</time></trkpt><trkpt lat="43.20833990813071" lon="12.9793520157855"><ele>768.4999999999999</ele><time>2026-04-11T16:12:32.999Z</time></trkpt><trkpt lat="43.208254963231724" lon="12.979371094471839"><ele>772.0</ele><time>2026-04-11T16:12:33.999Z</time></trkpt><trkpt lat="43.20816954846876" lon="12.979385635465967"><ele>774.3333333333333</ele><time>2026-04-11T16:12:34.999Z</time></trkpt><trkpt lat="43.20809070092365" lon="12.979380204059263"><ele>776.6666666666666</ele><time>2026-04-11T16:12:35.999Z</time></trkpt><trkpt lat="43.20801937424935" lon="12.979355122193649"><ele>779.0</ele><time>2026-04-11T16:12:36.999Z</time></trkpt><trkpt lat="43.20796799117459" lon="12.979411262873466"><ele>781.3333333333333</ele><time>2026-04-11T16:12:38.999Z</time></trkpt><trkpt lat="43.2079562363288" lon="12.979541015268186"><ele>783.6666666666666</ele><time>2026-04-11T16:12:40.999Z</time></trkpt><trkpt lat="43.207968813025396" lon="12.979638941660257"><ele>786.0</ele><time>2026-04-11T16:13:01.999Z</time></trkpt><trkpt lat="43.2080657157832" lon="12.979690481793254"><ele>783.1999999999999</ele><time>2026-04-11T16:13:04.999Z</time></trkpt><trkpt lat="43.20819128997019" lon="12.979676912231078"><ele>780.4</ele><time>2026-04-11T16:13:06.999Z</time></trkpt><trkpt lat="43.208265432640744" lon="12.979681774183668"><ele>777.6</ele><time>2026-04-11T16:13:07.999Z</time></trkpt><trkpt lat="43.20835598094251" lon="12.979714517805432"><ele>774.8</ele><time>2026-04-11T16:13:08.999Z</time></trkpt><trkpt lat="43.20841882775759" lon="12.979793222242085"><ele>772.0</ele><time>2026-04-11T16:13:09.999Z</time></trkpt><trkpt lat="43.20848241289575" lon="12.979893932509984"><ele>776.0</ele><time>2026-04-11T16:13:10.999Z</time></trkpt><trkpt lat="43.20856055748633" lon="12.980022213885595"><ele>780.0</ele><time>2026-04-11T16:13:11.999Z</time></trkpt><trkpt lat="43.208638182357625" lon="12.980126201166083"><ele>784.0</ele><time>2026-04-11T16:13:12.999Z</time></trkpt><trkpt lat="43.20871743634636" lon="12.980219326523683"><ele>788.0</ele><time>2026-04-11T16:13:14Z</time></trkpt><trkpt lat="43.208800470920444" lon="12.980241782330921"><ele>792.0</ele><time>2026-04-11T16:13:15Z</time></trkpt><trkpt lat="43.20887840303412" lon="12.980263590826855"><ele>792.0</ele><time>2026-04-11T16:13:16Z</time></trkpt><trkpt lat="43.20895561045978" lon="12.98031682185971"><ele>792.0</ele><time>2026-04-11T16:13:17Z</time></trkpt><trkpt lat="43.20900081481609" lon="12.980415892868107"><ele>792.0</ele><time>2026-04-11T16:13:18Z</time></trkpt><trkpt lat="43.209006190371326" lon="12.98054638342609"><ele>792.0</ele><time>2026-04-11T16:13:19Z</time></trkpt><trkpt lat="43.20900034330946" lon="12.98069552595203"><ele>792.0</ele><time>2026-04-11T16:13:20Z</time></trkpt><trkpt lat="43.208994255157684" lon="12.980830876170447"><ele>783.25</ele><time>2026-04-11T16:13:21Z</time></trkpt><trkpt lat="43.20900435501105" lon="12.980984142704223"><ele>774.5</ele><time>2026-04-11T16:13:22Z</time></trkpt><trkpt lat="43.209008995552935" lon="12.981155359096242"><ele>765.75</ele><time>2026-04-11T16:13:23Z</time></trkpt><trkpt lat="43.2090174828559" lon="12.9813132012024"><ele>757.0</ele><time>2026-04-11T16:13:24Z</time></trkpt><trkpt lat="43.20900027178878" lon="12.981444586090666"><ele>758.25</ele><time>2026-04-11T16:13:25Z</time></trkpt><trkpt lat="43.2089804265091" lon="12.981598101065021"><ele>759.5</ele><time>2026-04-11T16:13:26Z</time></trkpt><trkpt lat="43.20892542823467" lon="12.9817191782436"><ele>760.75</ele><time>2026-04-11T16:13:27Z</time></trkpt><trkpt lat="43.20886995872064" lon="12.981864374175796"><ele>762.0</ele><time>2026-04-11T16:13:28Z</time></trkpt><trkpt lat="43.2087915325405" lon="12.981988087750166"><ele>762.0</ele><time>2026-04-11T16:13:29Z</time></trkpt><trkpt lat="43.20870208372787" lon="12.982089928926891"><ele>762.0</ele><time>2026-04-11T16:13:30Z</time></trkpt><trkpt lat="43.208610289209204" lon="12.982199574797141"><ele>762.0</ele><time>2026-04-11T16:13:31Z</time></trkpt><trkpt lat="43.20850926072653" lon="12.982315623570893"><ele>762.0</ele><time>2026-04-11T16:13:32Z</time></trkpt><trkpt lat="43.20840355506414" lon="12.982449967585152"><ele>758.75</ele><time>2026-04-11T16:13:33Z</time></trkpt><trkpt lat="43.208296080987125" lon="12.982566242556759"><ele>755.5</ele><time>2026-04-11T16:13:34Z</time></trkpt><trkpt lat="43.20819658931295" lon="12.98267198341967"><ele>752.25</ele><time>2026-04-11T16:13:35Z</time></trkpt><trkpt lat="43.2081000638384" lon="12.982776774341811"><ele>749.0</ele><time>2026-04-11T16:13:36Z</time></trkpt><trkpt lat="43.20802551087052" lon="12.982886334918252"><ele>757.2</ele><time>2026-04-11T16:13:37Z</time></trkpt><trkpt lat="43.20797205787799" lon="12.983009934386828"><ele>765.4000000000001</ele><time>2026-04-11T16:13:38Z</time></trkpt><trkpt lat="43.207950327436926" lon="12.983151699074229"><ele>773.6</ele><time>2026-04-11T16:13:39Z</time></trkpt><trkpt lat="43.20796622040975" lon="12.983294789047717"><ele>781.8</ele><time>2026-04-11T16:13:40Z</time></trkpt><trkpt lat="43.208028799078114" lon="12.983439493055869"><ele>790.0</ele><time>2026-04-11T16:13:41Z</time></trkpt><trkpt lat="43.20811080994696" lon="12.983564522819789"><ele>782.5</ele><time>2026-04-11T16:13:42Z</time></trkpt><trkpt lat="43.20819111750742" lon="12.983687397107282"><ele>775.0</ele><time>2026-04-11T16:13:43Z</time></trkpt><trkpt lat="43.20827387548006" lon="12.983874282336643"><ele>767.5</ele><time>2026-04-11T16:13:44Z</time></trkpt><trkpt lat="43.208361494148726" lon="12.984031045142586"><ele>760.0</ele><time>2026-04-11T16:13:45Z</time></trkpt><trkpt lat="43.20842734571328" lon="12.984197445167366"><ele>760.0</ele><time>2026-04-11T16:13:46Z</time></trkpt><trkpt lat="43.2084757817017" lon="12.984349694703063"><ele>760.0</ele><time>2026-04-11T16:13:47Z</time></trkpt><trkpt lat="43.2085338987086" lon="12.984490779958938"><ele>760.0</ele><time>2026-04-11T16:13:48Z</time></trkpt><trkpt lat="43.208601840401755" lon="12.984623078953383"><ele>760.0</ele><time>2026-04-11T16:13:49Z</time></trkpt><trkpt lat="43.208659956035355" lon="12.984760197627892"><ele>760.0</ele><time>2026-04-11T16:13:50Z</time></trkpt><trkpt lat="43.20871414603577" lon="12.984900317383246"><ele>760.0</ele><time>2026-04-11T16:13:51Z</time></trkpt><trkpt lat="43.20874944465597" lon="12.985045754020675"><ele>760.0</ele><time>2026-04-11T16:13:52Z</time></trkpt><trkpt lat="43.20876208333951" lon="12.985144643067846"><ele>760.0</ele><time>2026-04-11T16:13:53Z</time></trkpt><trkpt lat="43.208796194179975" lon="12.985236408905969"><ele>760.0</ele><time>2026-04-11T16:13:54Z</time></trkpt><trkpt lat="43.20884894258657" lon="12.985354609258355"><ele>759.5</ele><time>2026-04-11T16:13:56Z</time></trkpt><trkpt lat="43.20890165633886" lon="12.98548916016352"><ele>759.0</ele><time>2026-04-11T16:13:58Z</time></trkpt><trkpt lat="43.20893873570653" lon="12.985654451312294"><ele>758.5</ele><time>2026-04-11T16:14:00Z</time></trkpt><trkpt lat="43.20895082662867" lon="12.985752065386023"><ele>758.0</ele><time>2026-04-11T16:14:01Z</time></trkpt><trkpt lat="43.208949659783336" lon="12.98584873593946"><ele>757.5</ele><time>2026-04-11T16:14:02Z</time></trkpt><trkpt lat="43.20896304540987" lon="12.985937263057497"><ele>757.0</ele><time>2026-04-11T16:14:03Z</time></trkpt><trkpt lat="43.20898425096837" lon="12.986049398404921"><ele>753.6</ele><time>2026-04-11T16:14:05Z</time></trkpt><trkpt lat="43.20895414607262" lon="12.986186050267179"><ele>750.2</ele><time>2026-04-11T16:14:08Z</time></trkpt><trkpt lat="43.2088903382979" lon="12.986267556940554"><ele>746.8</ele><time>2026-04-11T16:14:09Z</time></trkpt><trkpt lat="43.208800671925886" lon="12.986346530948694"><ele>743.4</ele><time>2026-04-11T16:14:10Z</time></trkpt><trkpt lat="43.20869290140225" lon="12.986418120873799"><ele>740.0</ele><time>2026-04-11T16:14:11Z</time></trkpt><trkpt lat="43.20858713583407" lon="12.986509945195744"><ele>740.0</ele><time>2026-04-11T16:14:12Z</time></trkpt><trkpt lat="43.20848000919001" lon="12.986623242219466"><ele>740.0</ele><time>2026-04-11T16:14:13Z</time></trkpt><trkpt lat="43.20833754125845" lon="12.986735792825769"><ele>740.0</ele><time>2026-04-11T16:14:14Z</time></trkpt><trkpt lat="43.20820123838047" lon="12.986868665105426"><ele>742.3333333333333</ele><time>2026-04-11T16:14:15Z</time></trkpt><trkpt lat="43.20806746116322" lon="12.987005320767645"><ele>744.6666666666666</ele><time>2026-04-11T16:14:16Z</time></trkpt><trkpt lat="43.20794941683819" lon="12.987123932689746"><ele>747.0</ele><time>2026-04-11T16:14:17Z</time></trkpt><trkpt lat="43.207831349370885" lon="12.987263848865243"><ele>747.0</ele><time>2026-04-11T16:14:18Z</time></trkpt><trkpt lat="43.20771238222001" lon="12.98740892180647"><ele>747.0</ele><time>2026-04-11T16:14:19Z</time></trkpt><trkpt lat="43.207589031926425" lon="12.987579601879336"><ele>747.0</ele><time>2026-04-11T16:14:20Z</time></trkpt><trkpt lat="43.20747697005174" lon="12.98773812102649"><ele>751.3333333333334</ele><time>2026-04-11T16:14:21Z</time></trkpt><trkpt lat="43.207374276687254" lon="12.98789786855435"><ele>755.6666666666667</ele><time>2026-04-11T16:14:22Z</time></trkpt><trkpt lat="43.20727122843754" lon="12.988040061378198"><ele>760.0</ele><time>2026-04-11T16:14:23Z</time></trkpt><trkpt lat="43.20715117107208" lon="12.98817389755421"><ele>760.0</ele><time>2026-04-11T16:14:24Z</time></trkpt><trkpt lat="43.207017976332494" lon="12.988317020243871"><ele>760.0</ele><time>2026-04-11T16:14:25Z</time></trkpt><trkpt lat="43.20688999896784" lon="12.98844511405551"><ele>760.0</ele><time>2026-04-11T16:14:26Z</time></trkpt><trkpt lat="43.206771202194396" lon="12.988566181496358"><ele>755.5</ele><time>2026-04-11T16:14:27Z</time></trkpt><trkpt lat="43.20664348458348" lon="12.988673353653525"><ele>751.0</ele><time>2026-04-11T16:14:28Z</time></trkpt><trkpt lat="43.20651677898023" lon="12.988753160851159"><ele>746.5</ele><time>2026-04-11T16:14:29Z</time></trkpt><trkpt lat="43.2063937819392" lon="12.988815296362711"><ele>742.0</ele><time>2026-04-11T16:14:30Z</time></trkpt><trkpt lat="43.20626547364927" lon="12.988841947981978"><ele>742.0</ele><time>2026-04-11T16:14:31Z</time></trkpt><trkpt lat="43.206128024088045" lon="12.988841799946348"><ele>742.0</ele><time>2026-04-11T16:14:32Z</time></trkpt><trkpt lat="43.205998775873134" lon="12.988823693101912"><ele>742.0</ele><time>2026-04-11T16:14:32.999Z</time></trkpt><trkpt lat="43.20588760475285" lon="12.988785245774912"><ele>742.0</ele><time>2026-04-11T16:14:33.999Z</time></trkpt><trkpt lat="43.20576384611656" lon="12.988725151612416"><ele>742.0</ele><time>2026-04-11T16:14:34.999Z</time></trkpt><trkpt lat="43.205683734969696" lon="12.988648710823012"><ele>742.0</ele><time>2026-04-11T16:14:35.999Z</time></trkpt><trkpt lat="43.20559933503207" lon="12.988533171409772"><ele>742.0</ele><time>2026-04-11T16:14:36.999Z</time></trkpt><trkpt lat="43.20552219524108" lon="12.988398723419085"><ele>742.0</ele><time>2026-04-11T16:14:37.999Z</time></trkpt><trkpt lat="43.20542048530787" lon="12.988237392655709"><ele>745.2</ele><time>2026-04-11T16:14:38.999Z</time></trkpt><trkpt lat="43.20533994472503" lon="12.988098900867154"><ele>748.4000000000001</ele><time>2026-04-11T16:14:39.999Z</time></trkpt><trkpt lat="43.205276620487254" lon="12.987970925494613"><ele>751.5999999999999</ele><time>2026-04-11T16:14:40.999Z</time></trkpt><trkpt lat="43.205215916790664" lon="12.987845044214758"><ele>754.8</ele><time>2026-04-11T16:14:41.999Z</time></trkpt><trkpt lat="43.20516271708081" lon="12.987733078110267"><ele>758.0</ele><time>2026-04-11T16:14:42.999Z</time></trkpt><trkpt lat="43.20511899636794" lon="12.987630685555327"><ele>758.0</ele><time>2026-04-11T16:14:43.999Z</time></trkpt><trkpt lat="43.20507245634484" lon="12.987526524979124"><ele>758.0</ele><time>2026-04-11T16:14:44.999Z</time></trkpt><trkpt lat="43.20503452433806" lon="12.987456747159328"><ele>758.0</ele><time>2026-04-11T16:14:45.999Z</time></trkpt><trkpt lat="43.20499475888875" lon="12.987371628360997"><ele>758.0</ele><time>2026-04-11T16:14:46.999Z</time></trkpt><trkpt lat="43.20494087211444" lon="12.98729959523801"><ele>758.0</ele><time>2026-04-11T16:14:47.999Z</time></trkpt><trkpt lat="43.20487946778935" lon="12.987215390399104"><ele>758.0</ele><time>2026-04-11T16:14:48.999Z</time></trkpt><trkpt lat="43.204831168509266" lon="12.987140795553046"><ele>761.25</ele><time>2026-04-11T16:14:49.999Z</time></trkpt><trkpt lat="43.20478253940989" lon="12.987049600251643"><ele>764.5</ele><time>2026-04-11T16:14:50.999Z</time></trkpt><trkpt lat="43.20471660917333" lon="12.986924397928583"><ele>767.75</ele><time>2026-04-11T16:14:51.999Z</time></trkpt><trkpt lat="43.2046327896875" lon="12.986790564245272"><ele>771.0</ele><time>2026-04-11T16:14:52.999Z</time></trkpt><trkpt lat="43.204530931585666" lon="12.986660145158021"><ele>776.25</ele><time>2026-04-11T16:14:53.999Z</time></trkpt><trkpt lat="43.20443366040515" lon="12.98654820419017"><ele>781.5</ele><time>2026-04-11T16:14:54.999Z</time></trkpt><trkpt lat="43.20432523635668" lon="12.986471428104585"><ele>786.75</ele><time>2026-04-11T16:14:55.999Z</time></trkpt><trkpt lat="43.20421435142226" lon="12.986421443995994"><ele>792.0</ele><time>2026-04-11T16:14:56.999Z</time></trkpt><trkpt lat="43.20413237059487" lon="12.98638590486213"><ele>792.0</ele><time>2026-04-11T16:14:57.999Z</time></trkpt><trkpt lat="43.20406231913587" lon="12.986351966970537"><ele>792.0</ele><time>2026-04-11T16:14:58.999Z</time></trkpt><trkpt lat="43.20401387099071" lon="12.986277730366277"><ele>792.0</ele><time>2026-04-11T16:15:01.999Z</time></trkpt><trkpt lat="43.203974321439894" lon="12.986169577373298"><ele>792.0</ele><time>2026-04-11T16:15:11.999Z</time></trkpt><trkpt lat="43.20395487533749" lon="12.98608637421448"><ele>792.0</ele><time>2026-04-11T16:15:13.999Z</time></trkpt><trkpt lat="43.20393885289858" lon="12.985987451488896"><ele>792.0</ele><time>2026-04-11T16:15:16.999Z</time></trkpt><trkpt lat="43.203916906419316" lon="12.985853768116186"><ele>793.1666666666666</ele><time>2026-04-11T16:15:18.999Z</time></trkpt><trkpt lat="43.20390473440221" lon="12.985758090335816"><ele>794.3333333333333</ele><time>2026-04-11T16:15:20Z</time></trkpt><trkpt lat="43.20386762659309" lon="12.985683570399445"><ele>795.5</ele><time>2026-04-11T16:15:21Z</time></trkpt><trkpt lat="43.203805172660466" lon="12.985601682004049"><ele>796.6666666666666</ele><time>2026-04-11T16:15:22Z</time></trkpt><trkpt lat="43.20372898905822" lon="12.98555190993561"><ele>797.8333333333333</ele><time>2026-04-11T16:15:23Z</time></trkpt><trkpt lat="43.20364493448502" lon="12.985525848042329"><ele>799.0</ele><time>2026-04-11T16:15:24Z</time></trkpt><trkpt lat="43.20354629827976" lon="12.985536937122635"><ele>799.0</ele><time>2026-04-11T16:15:25Z</time></trkpt><trkpt lat="43.20343880793809" lon="12.985563396228452"><ele>799.0</ele><time>2026-04-11T16:15:26Z</time></trkpt><trkpt lat="43.203348161216994" lon="12.985594016686568"><ele>799.0</ele><time>2026-04-11T16:15:27Z</time></trkpt><trkpt lat="43.20325228748489" lon="12.985606932469992"><ele>799.0</ele><time>2026-04-11T16:15:28Z</time></trkpt><trkpt lat="43.203152046679286" lon="12.985595416168037"><ele>799.0</ele><time>2026-04-11T16:15:29Z</time></trkpt><trkpt lat="43.20306367054475" lon="12.985563937125457"><ele>798.4000000000001</ele><time>2026-04-11T16:15:30Z</time></trkpt><trkpt lat="43.202991202917474" lon="12.98555850904594"><ele>797.8</ele><time>2026-04-11T16:15:31Z</time></trkpt><trkpt lat="43.20288496885477" lon="12.98564269148958"><ele>797.2</ele><time>2026-04-11T16:15:33Z</time></trkpt><trkpt lat="43.20284347819009" lon="12.98573912866643"><ele>796.5999999999999</ele><time>2026-04-11T16:15:34Z</time></trkpt><trkpt lat="43.20279455144018" lon="12.98586860531276"><ele>796.0</ele><time>2026-04-11T16:15:35Z</time></trkpt><trkpt lat="43.20276934808095" lon="12.986020817962189"><ele>796.0</ele><time>2026-04-11T16:15:36Z</time></trkpt><trkpt lat="43.20274447988841" lon="12.986160186219921"><ele>796.0</ele><time>2026-04-11T16:15:37Z</time></trkpt><trkpt lat="43.20272277376983" lon="12.986297977239486"><ele>796.0</ele><time>2026-04-11T16:15:38Z</time></trkpt><trkpt lat="43.20271335778574" lon="12.98640245717835"><ele>796.0</ele><time>2026-04-11T16:15:39Z</time></trkpt><trkpt lat="43.202672223473584" lon="12.986495994344137"><ele>796.0</ele><time>2026-04-11T16:15:40Z</time></trkpt><trkpt lat="43.20260857872119" lon="12.986592832778282"><ele>796.75</ele><time>2026-04-11T16:15:41Z</time></trkpt><trkpt lat="43.20252479304232" lon="12.98672920763048"><ele>797.5</ele><time>2026-04-11T16:15:42Z</time></trkpt><trkpt lat="43.20243886572789" lon="12.986893531950974"><ele>798.25</ele><time>2026-04-11T16:15:43Z</time></trkpt><trkpt lat="43.20237413192741" lon="12.98702309572179"><ele>799.0</ele><time>2026-04-11T16:15:44Z</time></trkpt><trkpt lat="43.20231269756066" lon="12.98717652383798"><ele>799.0</ele><time>2026-04-11T16:15:45Z</time></trkpt><trkpt lat="43.20226007028026" lon="12.987310807881256"><ele>799.0</ele><time>2026-04-11T16:15:46Z</time></trkpt><trkpt lat="43.20220960837312" lon="12.98742284111617"><ele>799.0</ele><time>2026-04-11T16:15:47Z</time></trkpt><trkpt lat="43.202153416290216" lon="12.987544403022502"><ele>799.0</ele><time>2026-04-11T16:15:48Z</time></trkpt><trkpt lat="43.20207201624832" lon="12.987670984011674"><ele>799.0</ele><time>2026-04-11T16:15:49Z</time></trkpt><trkpt lat="43.20199096281326" lon="12.987810051548909"><ele>790.5</ele><time>2026-04-11T16:15:50Z</time></trkpt><trkpt lat="43.2019076550607" lon="12.987951894002972"><ele>782.0</ele><time>2026-04-11T16:15:51Z</time></trkpt><trkpt lat="43.201833074645094" lon="12.988091169143967"><ele>773.5</ele><time>2026-04-11T16:15:52Z</time></trkpt><trkpt lat="43.2017740642424" lon="12.988220314007147"><ele>765.0</ele><time>2026-04-11T16:15:53Z</time></trkpt><trkpt lat="43.20173494367369" lon="12.988319078775156"><ele>759.8</ele><time>2026-04-11T16:15:54Z</time></trkpt><trkpt lat="43.201688875333296" lon="12.98839316862368"><ele>754.6</ele><time>2026-04-11T16:15:55Z</time></trkpt><trkpt lat="43.20162520859174" lon="12.98847784257046"><ele>749.4000000000001</ele><time>2026-04-11T16:15:56Z</time></trkpt><trkpt lat="43.201538041852785" lon="12.988538937740863"><ele>744.2</ele><time>2026-04-11T16:15:57Z</time></trkpt><trkpt lat="43.20144072419534" lon="12.988591702918967"><ele>739.0</ele><time>2026-04-11T16:15:58Z</time></trkpt><trkpt lat="43.201348310346866" lon="12.98862931620524"><ele>739.0</ele><time>2026-04-11T16:15:59Z</time></trkpt><trkpt lat="43.201249947273624" lon="12.9886653932267"><ele>739.0</ele><time>2026-04-11T16:16:00Z</time></trkpt><trkpt lat="43.20113805411611" lon="12.988707916153835"><ele>739.0</ele><time>2026-04-11T16:16:01Z</time></trkpt><trkpt lat="43.20102171049761" lon="12.98876731598045"><ele>739.0</ele><time>2026-04-11T16:16:02Z</time></trkpt><trkpt lat="43.200895367839834" lon="12.988841147885411"><ele>739.0</ele><time>2026-04-11T16:16:03Z</time></trkpt><trkpt lat="43.20075553056188" lon="12.988934949326207"><ele>739.0</ele><time>2026-04-11T16:16:04Z</time></trkpt><trkpt lat="43.20063694805646" lon="12.989024976964389"><ele>739.0</ele><time>2026-04-11T16:16:05Z</time></trkpt><trkpt lat="43.20053842661278" lon="12.989116739693157"><ele>739.0</ele><time>2026-04-11T16:16:06Z</time></trkpt><trkpt lat="43.20044507502377" lon="12.989228780748888"><ele>740.0</ele><time>2026-04-11T16:16:07Z</time></trkpt><trkpt lat="43.20036147135349" lon="12.989366098331194"><ele>741.0</ele><time>2026-04-11T16:16:08Z</time></trkpt><trkpt lat="43.20027296173005" lon="12.989569817855337"><ele>742.0</ele><time>2026-04-11T16:16:09Z</time></trkpt><trkpt lat="43.20018463547173" lon="12.98979285318197"><ele>742.0</ele><time>2026-04-11T16:16:10Z</time></trkpt><trkpt lat="43.200108075251464" lon="12.989936887406056"><ele>742.0</ele><time>2026-04-11T16:16:11Z</time></trkpt><trkpt lat="43.200039694428924" lon="12.99006526644338"><ele>742.0</ele><time>2026-04-11T16:16:12Z</time></trkpt><trkpt lat="43.19997346506485" lon="12.99017615079498"><ele>742.0</ele><time>2026-04-11T16:16:13Z</time></trkpt><trkpt lat="43.19992015696209" lon="12.990230233948246"><ele>742.0</ele><time>2026-04-11T16:16:14Z</time></trkpt><trkpt lat="43.19983492397733" lon="12.990285755532282"><ele>744.25</ele><time>2026-04-11T16:16:15Z</time></trkpt><trkpt lat="43.19973353745761" lon="12.990350355633607"><ele>746.5</ele><time>2026-04-11T16:16:16Z</time></trkpt><trkpt lat="43.19964008348248" lon="12.990419317581908"><ele>748.75</ele><time>2026-04-11T16:16:17Z</time></trkpt><trkpt lat="43.19956067618714" lon="12.990527879498245"><ele>751.0</ele><time>2026-04-11T16:16:18Z</time></trkpt><trkpt lat="43.199468252269654" lon="12.990680034131133"><ele>751.0</ele><time>2026-04-11T16:16:19Z</time></trkpt><trkpt lat="43.199412465480904" lon="12.990826447377108"><ele>751.0</ele><time>2026-04-11T16:16:20Z</time></trkpt><trkpt lat="43.199382665089786" lon="12.99097953261911"><ele>751.0</ele><time>2026-04-11T16:16:21Z</time></trkpt><trkpt lat="43.19938157476671" lon="12.991103078667638"><ele>751.0</ele><time>2026-04-11T16:16:22Z</time></trkpt><trkpt lat="43.19938660527767" lon="12.991228625131802"><ele>751.0</ele><time>2026-04-11T16:16:23Z</time></trkpt><trkpt lat="43.19935697838904" lon="12.991371332283919"><ele>744.75</ele><time>2026-04-11T16:16:24Z</time></trkpt><trkpt lat="43.19931979796112" lon="12.991538348671831"><ele>738.5</ele><time>2026-04-11T16:16:25Z</time></trkpt><trkpt lat="43.19925735122572" lon="12.991708868606551"><ele>732.25</ele><time>2026-04-11T16:16:26Z</time></trkpt><trkpt lat="43.19917111673812" lon="12.991876442940317"><ele>726.0</ele><time>2026-04-11T16:16:27Z</time></trkpt><trkpt lat="43.19908493877283" lon="12.99204849062988"><ele>727.5</ele><time>2026-04-11T16:16:28Z</time></trkpt><trkpt lat="43.19898783986833" lon="12.992211999132397"><ele>729.0</ele><time>2026-04-11T16:16:29Z</time></trkpt><trkpt lat="43.19888927920383" lon="12.992357641166723"><ele>730.5</ele><time>2026-04-11T16:16:30Z</time></trkpt><trkpt lat="43.19879536482712" lon="12.992486766091476"><ele>732.0</ele><time>2026-04-11T16:16:31Z</time></trkpt><trkpt lat="43.198703526658974" lon="12.99259641077636"><ele>724.75</ele><time>2026-04-11T16:16:32Z</time></trkpt><trkpt lat="43.198603675089984" lon="12.992709912209385"><ele>717.5</ele><time>2026-04-11T16:16:33Z</time></trkpt><trkpt lat="43.198489055220044" lon="12.992842283350276"><ele>710.25</ele><time>2026-04-11T16:16:34Z</time></trkpt><trkpt lat="43.19839776467795" lon="12.992937226400475"><ele>703.0</ele><time>2026-04-11T16:16:35Z</time></trkpt><trkpt lat="43.198301741918606" lon="12.993023813678036"><ele>703.0</ele><time>2026-04-11T16:16:36Z</time></trkpt><trkpt lat="43.19819603969514" lon="12.993088044583608"><ele>703.0</ele><time>2026-04-11T16:16:37Z</time></trkpt><trkpt lat="43.19809488378324" lon="12.99318744113064"><ele>703.0</ele><time>2026-04-11T16:16:38Z</time></trkpt><trkpt lat="43.19801990221916" lon="12.993320142624803"><ele>703.0</ele><time>2026-04-11T16:16:39Z</time></trkpt><trkpt lat="43.19797157705642" lon="12.993473261768491"><ele>702.8</ele><time>2026-04-11T16:16:40Z</time></trkpt><trkpt lat="43.197940126787465" lon="12.993598402633882"><ele>702.5999999999999</ele><time>2026-04-11T16:16:41Z</time></trkpt><trkpt lat="43.197875496228214" lon="12.993719843320632"><ele>702.4000000000001</ele><time>2026-04-11T16:16:43Z</time></trkpt><trkpt lat="43.197827595855834" lon="12.99378627860124"><ele>702.2</ele><time>2026-04-11T16:16:44Z</time></trkpt><trkpt lat="43.197750656653206" lon="12.993878144571314"><ele>702.0</ele><time>2026-04-11T16:16:45Z</time></trkpt><trkpt lat="43.19767027345177" lon="12.993998604048958"><ele>702.0</ele><time>2026-04-11T16:16:46Z</time></trkpt><trkpt lat="43.19761682004698" lon="12.994116126640622"><ele>702.0</ele><time>2026-04-11T16:16:47Z</time></trkpt><trkpt lat="43.19755978954169" lon="12.994239834712205"><ele>702.0</ele><time>2026-04-11T16:16:48Z</time></trkpt><trkpt lat="43.197506088194274" lon="12.994364960729813"><ele>702.0</ele><time>2026-04-11T16:16:49Z</time></trkpt><trkpt lat="43.19744833797943" lon="12.994463549144873"><ele>702.0</ele><time>2026-04-11T16:16:49.999Z</time></trkpt><trkpt lat="43.19736996739195" lon="12.994579223800653"><ele>704.75</ele><time>2026-04-11T16:16:50.999Z</time></trkpt><trkpt lat="43.19728681627036" lon="12.994681240921981"><ele>707.5</ele><time>2026-04-11T16:16:51.999Z</time></trkpt><trkpt lat="43.19720550471437" lon="12.99479779103527"><ele>710.25</ele><time>2026-04-11T16:16:52.999Z</time></trkpt><trkpt lat="43.1971289632004" lon="12.994979675312488"><ele>713.0</ele><time>2026-04-11T16:16:53.999Z</time></trkpt><trkpt lat="43.197034831730356" lon="12.995166913699203"><ele>706.5</ele><time>2026-04-11T16:16:54.999Z</time></trkpt><trkpt lat="43.19697110979476" lon="12.995349009312772"><ele>700.0</ele><time>2026-04-11T16:16:55.999Z</time></trkpt><trkpt lat="43.196931447769934" lon="12.995522176403044"><ele>693.5</ele><time>2026-04-11T16:16:56.999Z</time></trkpt><trkpt lat="43.19689180196917" lon="12.995672590296847"><ele>687.0</ele><time>2026-04-11T16:16:57.999Z</time></trkpt><trkpt lat="43.19681350187018" lon="12.99580724872742"><ele>680.3333333333334</ele><time>2026-04-11T16:16:58.999Z</time></trkpt><trkpt lat="43.19668244392623" lon="12.99594386447021"><ele>673.6666666666667</ele><time>2026-04-11T16:16:59.999Z</time></trkpt><trkpt lat="43.19652935872545" lon="12.99610711017982"><ele>667.0</ele><time>2026-04-11T16:17:00.999Z</time></trkpt><trkpt lat="43.19639057568485" lon="12.9963007749601"><ele>676.6666666666667</ele><time>2026-04-11T16:17:01.999Z</time></trkpt><trkpt lat="43.19629128258812" lon="12.99650396838726"><ele>686.3333333333334</ele><time>2026-04-11T16:17:02.999Z</time></trkpt><trkpt lat="43.19621255301643" lon="12.996720679298333"><ele>696.0</ele><time>2026-04-11T16:17:03.999Z</time></trkpt><trkpt lat="43.19615910481387" lon="12.99693628956029"><ele>696.0</ele><time>2026-04-11T16:17:04.999Z</time></trkpt><trkpt lat="43.196108785095866" lon="12.997113164792527"><ele>696.0</ele><time>2026-04-11T16:17:05.999Z</time></trkpt><trkpt lat="43.19607242791622" lon="12.997297705661795"><ele>696.0</ele><time>2026-04-11T16:17:06.999Z</time></trkpt><trkpt lat="43.19604023506187" lon="12.997455812370196"><ele>696.0</ele><time>2026-04-11T16:17:07.999Z</time></trkpt><trkpt lat="43.196009481558015" lon="12.997593192409612"><ele>692.75</ele><time>2026-04-11T16:17:08.999Z</time></trkpt><trkpt lat="43.19597267257285" lon="12.997717695113202"><ele>689.5</ele><time>2026-04-11T16:17:09.999Z</time></trkpt><trkpt lat="43.19589396256883" lon="12.997826179886337"><ele>686.25</ele><time>2026-04-11T16:17:10.999Z</time></trkpt><trkpt lat="43.19579613067698" lon="12.997950985432308"><ele>683.0</ele><time>2026-04-11T16:17:11.999Z</time></trkpt><trkpt lat="43.19570710590024" lon="12.998072878389042"><ele>683.3333333333333</ele><time>2026-04-11T16:17:12.999Z</time></trkpt><trkpt lat="43.195634771086084" lon="12.998163352297023"><ele>683.6666666666666</ele><time>2026-04-11T16:17:13.999Z</time></trkpt><trkpt lat="43.195589106045546" lon="12.998236630356146"><ele>684.0</ele><time>2026-04-11T16:17:14.999Z</time></trkpt><trkpt lat="43.19554552977284" lon="12.998338281368902"><ele>684.3333333333334</ele><time>2026-04-11T16:17:15.999Z</time></trkpt><trkpt lat="43.1955140405664" lon="12.998431935372121"><ele>684.6666666666667</ele><time>2026-04-11T16:17:16.999Z</time></trkpt><trkpt lat="43.19547654522548" lon="12.99855866667702"><ele>685.0</ele><time>2026-04-11T16:17:17.999Z</time></trkpt><trkpt lat="43.195428319309194" lon="12.998683869779363"><ele>685.0</ele><time>2026-04-11T16:17:18.999Z</time></trkpt><trkpt lat="43.1953792193241" lon="12.998784381567466"><ele>685.0</ele><time>2026-04-11T16:17:19.999Z</time></trkpt><trkpt lat="43.19529209877064" lon="12.998880470942558"><ele>685.0</ele><time>2026-04-11T16:17:21.999Z</time></trkpt><trkpt lat="43.19522185409892" lon="12.99891254445581"><ele>685.0</ele><time>2026-04-11T16:17:32Z</time></trkpt><trkpt lat="43.195139723301736" lon="12.998932839837153"><ele>685.0</ele><time>2026-04-11T16:17:35Z</time></trkpt><trkpt lat="43.195076069638496" lon="12.998917676645826"><ele>685.0</ele><time>2026-04-11T16:17:37Z</time></trkpt><trkpt lat="43.1949710891455" lon="12.998910271570658"><ele>685.0</ele><time>2026-04-11T16:17:39Z</time></trkpt><trkpt lat="43.19490070497128" lon="12.998908171258115"><ele>685.0</ele><time>2026-04-11T16:17:40Z</time></trkpt><trkpt lat="43.19483029785575" lon="12.998908142912748"><ele>685.0</ele><time>2026-04-11T16:17:41Z</time></trkpt><trkpt lat="43.194745989863975" lon="12.99890992900113"><ele>685.0</ele><time>2026-04-11T16:17:42Z</time></trkpt><trkpt lat="43.19465915852658" lon="12.998907709691832"><ele>685.0</ele><time>2026-04-11T16:17:43Z</time></trkpt><trkpt lat="43.19457027869787" lon="12.998913694347506"><ele>685.0</ele><time>2026-04-11T16:17:44Z</time></trkpt><trkpt lat="43.19448057585391" lon="12.998941375255974"><ele>686.5</ele><time>2026-04-11T16:17:45Z</time></trkpt><trkpt lat="43.194387534036316" lon="12.99900661899257"><ele>688.0</ele><time>2026-04-11T16:17:46Z</time></trkpt><trkpt lat="43.194293017981344" lon="12.99912915834178"><ele>689.5</ele><time>2026-04-11T16:17:47Z</time></trkpt><trkpt lat="43.19419902968946" lon="12.99928622031355"><ele>691.0</ele><time>2026-04-11T16:17:48Z</time></trkpt><trkpt lat="43.19411516331836" lon="12.999419574709501"><ele>691.0</ele><time>2026-04-11T16:17:49Z</time></trkpt><trkpt lat="43.19405391257551" lon="12.999521141285221"><ele>691.0</ele><time>2026-04-11T16:17:50Z</time></trkpt><trkpt lat="43.19398821087104" lon="12.999611609604562"><ele>691.0</ele><time>2026-04-11T16:17:51Z</time></trkpt><trkpt lat="43.19392775061276" lon="12.999681783203936"><ele>691.0</ele><time>2026-04-11T16:17:52Z</time></trkpt><trkpt lat="43.19386750870957" lon="12.99972679965157"><ele>691.0</ele><time>2026-04-11T16:17:53Z</time></trkpt><trkpt lat="43.19380123841521" lon="12.999735978415917"><ele>691.0</ele><time>2026-04-11T16:17:54Z</time></trkpt><trkpt lat="43.19373055920676" lon="12.999709591147205"><ele>693.5999999999999</ele><time>2026-04-11T16:17:55Z</time></trkpt><trkpt lat="43.193675507423045" lon="12.999661768370304"><ele>696.2</ele><time>2026-04-11T16:17:56Z</time></trkpt><trkpt lat="43.193587450881594" lon="12.999655858946554"><ele>698.8</ele><time>2026-04-11T16:17:58Z</time></trkpt><trkpt lat="43.193538906054606" lon="12.999735962582266"><ele>701.4000000000001</ele><time>2026-04-11T16:17:59Z</time></trkpt><trkpt lat="43.193481246020184" lon="12.999881224491842"><ele>704.0</ele><time>2026-04-11T16:18:00Z</time></trkpt><trkpt lat="43.19342097868353" lon="13.000006007859698"><ele>704.0</ele><time>2026-04-11T16:18:01Z</time></trkpt><trkpt lat="43.19337385411287" lon="13.0001349272536"><ele>704.0</ele><time>2026-04-11T16:18:02Z</time></trkpt><trkpt lat="43.19331339355135" lon="13.000234790028252"><ele>704.0</ele><time>2026-04-11T16:18:03Z</time></trkpt><trkpt lat="43.193241497376924" lon="13.00029720760542"><ele>704.0</ele><time>2026-04-11T16:18:04Z</time></trkpt><trkpt lat="43.19315610262375" lon="13.0003129770855"><ele>704.0</ele><time>2026-04-11T16:18:05Z</time></trkpt><trkpt lat="43.1930346833912" lon="13.000327055447231"><ele>707.25</ele><time>2026-04-11T16:18:06Z</time></trkpt><trkpt lat="43.19290667412221" lon="13.000319595998025"><ele>710.5</ele><time>2026-04-11T16:18:07Z</time></trkpt><trkpt lat="43.19278107471384" lon="13.000283852177459"><ele>713.75</ele><time>2026-04-11T16:18:08Z</time></trkpt><trkpt lat="43.19264005530011" lon="13.00026604830945"><ele>717.0</ele><time>2026-04-11T16:18:09Z</time></trkpt><trkpt lat="43.19252025508159" lon="13.000273644596543"><ele>717.0</ele><time>2026-04-11T16:18:10Z</time></trkpt><trkpt lat="43.19238684486385" lon="13.000322933502993"><ele>717.0</ele><time>2026-04-11T16:18:11Z</time></trkpt><trkpt lat="43.19227158316787" lon="13.000388525234031"><ele>717.0</ele><time>2026-04-11T16:18:12Z</time></trkpt><trkpt lat="43.19216893675091" lon="13.000476185711499"><ele>717.0</ele><time>2026-04-11T16:18:13Z</time></trkpt><trkpt lat="43.192087486451726" lon="13.000543183440417"><ele>718.6</ele><time>2026-04-11T16:18:14Z</time></trkpt><trkpt lat="43.19200874384755" lon="13.000649260843089"><ele>720.2</ele><time>2026-04-11T16:18:15Z</time></trkpt><trkpt lat="43.19191413559104" lon="13.000757221105028"><ele>721.8</ele><time>2026-04-11T16:18:16Z</time></trkpt><trkpt lat="43.19181751861013" lon="13.000827371558508"><ele>723.4</ele><time>2026-04-11T16:18:17Z</time></trkpt><trkpt lat="43.191725789642526" lon="13.00087181567752"><ele>725.0</ele><time>2026-04-11T16:18:18Z</time></trkpt><trkpt lat="43.19164265213957" lon="13.000923732718094"><ele>723.8</ele><time>2026-04-11T16:18:19Z</time></trkpt><trkpt lat="43.191565828341325" lon="13.000989551712063"><ele>722.6</ele><time>2026-04-11T16:18:20Z</time></trkpt><trkpt lat="43.19146752169046" lon="13.00106539690483"><ele>721.4000000000001</ele><time>2026-04-11T16:18:21Z</time></trkpt><trkpt lat="43.19137299211363" lon="13.001125839313675"><ele>720.2</ele><time>2026-04-11T16:18:22Z</time></trkpt><trkpt lat="43.19128073867499" lon="13.00116050313569"><ele>719.0</ele><time>2026-04-11T16:18:23Z</time></trkpt><trkpt lat="43.19120134003709" lon="13.001188734607766"><ele>719.0</ele><time>2026-04-11T16:18:24Z</time></trkpt><trkpt lat="43.19113010993828" lon="13.001204747045204"><ele>719.0</ele><time>2026-04-11T16:18:25Z</time></trkpt><trkpt lat="43.19106522608726" lon="13.001156893964572"><ele>719.0</ele><time>2026-04-11T16:18:26Z</time></trkpt><trkpt lat="43.19096341832482" lon="13.001049061194124"><ele>719.0</ele><time>2026-04-11T16:18:27Z</time></trkpt><trkpt lat="43.19088062516901" lon="13.000979112250187"><ele>719.0</ele><time>2026-04-11T16:18:28Z</time></trkpt><trkpt lat="43.19077703594104" lon="13.000932313915293"><ele>719.2</ele><time>2026-04-11T16:18:30Z</time></trkpt><trkpt lat="43.190656512325695" lon="13.000825490035593"><ele>719.4000000000001</ele><time>2026-04-11T16:18:32Z</time></trkpt><trkpt lat="43.19056847287083" lon="13.000831589609076"><ele>719.6</ele><time>2026-04-11T16:18:33Z</time></trkpt><trkpt lat="43.19048676856772" lon="13.00083590596444"><ele>719.8</ele><time>2026-04-11T16:18:34Z</time></trkpt><trkpt lat="43.19041308627856" lon="13.000854685253456"><ele>720.0</ele><time>2026-04-11T16:18:35Z</time></trkpt><trkpt lat="43.19033456667021" lon="13.000890281612783"><ele>720.0</ele><time>2026-04-11T16:18:36Z</time></trkpt><trkpt lat="43.19025535653423" lon="13.000926290684129"><ele>720.0</ele><time>2026-04-11T16:18:37Z</time></trkpt><trkpt lat="43.190181797479376" lon="13.000956049737697"><ele>720.0</ele><time>2026-04-11T16:18:38Z</time></trkpt><trkpt lat="43.19009329565088" lon="13.000986863207164"><ele>720.0</ele><time>2026-04-11T16:18:39Z</time></trkpt><trkpt lat="43.190008582906" lon="13.001015176763651"><ele>720.0</ele><time>2026-04-11T16:18:40Z</time></trkpt><trkpt lat="43.18991649756894" lon="13.001019732476498"><ele>720.0</ele><time>2026-04-11T16:18:41Z</time></trkpt><trkpt lat="43.18982574769383" lon="13.001020464237762"><ele>719.6</ele><time>2026-04-11T16:18:42Z</time></trkpt><trkpt lat="43.189736357644136" lon="13.00105084094919"><ele>719.2</ele><time>2026-04-11T16:18:43Z</time></trkpt><trkpt lat="43.18963596136468" lon="13.001087026320812"><ele>718.8</ele><time>2026-04-11T16:18:44Z</time></trkpt><trkpt lat="43.189527538348685" lon="13.00113183501799"><ele>718.4</ele><time>2026-04-11T16:18:45Z</time></trkpt><trkpt lat="43.18943172756806" lon="13.001194534273013"><ele>718.0</ele><time>2026-04-11T16:18:46Z</time></trkpt><trkpt lat="43.1893575393392" lon="13.001256229654995"><ele>718.0</ele><time>2026-04-11T16:18:47Z</time></trkpt><trkpt lat="43.18929643609681" lon="13.001309501190308"><ele>718.0</ele><time>2026-04-11T16:18:48Z</time></trkpt><trkpt lat="43.18916482006709" lon="13.001396728981465"><ele>718.0</ele><time>2026-04-11T16:18:50Z</time></trkpt><trkpt lat="43.18909688588302" lon="13.001402882992826"><ele>718.0</ele><time>2026-04-11T16:18:51Z</time></trkpt><trkpt lat="43.189033396015255" lon="13.001335135435328"><ele>718.0</ele><time>2026-04-11T16:18:53Z</time></trkpt><trkpt lat="43.18897126436105" lon="13.001277105140893"><ele>718.0</ele><time>2026-04-11T16:18:55Z</time></trkpt><trkpt lat="43.188916526469086" lon="13.00119349387127"><ele>716.8333333333334</ele><time>2026-04-11T16:18:56.999Z</time></trkpt><trkpt lat="43.188858505247836" lon="13.001120453500402"><ele>715.6666666666667</ele><time>2026-04-11T16:18:59.999Z</time></trkpt><trkpt lat="43.18880077028512" lon="13.001164942859823"><ele>714.5</ele><time>2026-04-11T16:19:03.999Z</time></trkpt><trkpt lat="43.188726386106815" lon="13.001204534888402"><ele>713.3333333333334</ele><time>2026-04-11T16:19:06.999Z</time></trkpt><trkpt lat="43.18863413273346" lon="13.001244665392733"><ele>712.1666666666666</ele><time>2026-04-11T16:19:08.999Z</time></trkpt><trkpt lat="43.18854587011757" lon="13.001329067424248"><ele>711.0</ele><time>2026-04-11T16:19:10.999Z</time></trkpt><trkpt lat="43.18842213435232" lon="13.001398802720281"><ele>711.0</ele><time>2026-04-11T16:19:12.999Z</time></trkpt><trkpt lat="43.188346571745136" lon="13.001440780305206"><ele>711.0</ele><time>2026-04-11T16:19:13.999Z</time></trkpt><trkpt lat="43.18826902402118" lon="13.001498253619253"><ele>711.0</ele><time>2026-04-11T16:19:14.999Z</time></trkpt><trkpt lat="43.188206593589605" lon="13.00158636298952"><ele>711.0</ele><time>2026-04-11T16:19:15.999Z</time></trkpt><trkpt lat="43.1881706006869" lon="13.001686156801535"><ele>711.0</ele><time>2026-04-11T16:19:16.999Z</time></trkpt><trkpt lat="43.18815804315236" lon="13.00180043530437"><ele>711.0</ele><time>2026-04-11T16:19:17.999Z</time></trkpt><trkpt lat="43.188149949945426" lon="13.001922609347607"><ele>708.0</ele><time>2026-04-11T16:19:18.999Z</time></trkpt><trkpt lat="43.18814358617632" lon="13.00203449216165"><ele>705.0</ele><time>2026-04-11T16:19:19.999Z</time></trkpt><trkpt lat="43.18817464007259" lon="13.002171090491167"><ele>702.0</ele><time>2026-04-11T16:19:20.999Z</time></trkpt><trkpt lat="43.188215407908565" lon="13.00229434795926"><ele>699.0</ele><time>2026-04-11T16:19:21.999Z</time></trkpt><trkpt lat="43.18826061955822" lon="13.002432985607111"><ele>696.0</ele><time>2026-04-11T16:19:22.999Z</time></trkpt><trkpt lat="43.18828493736072" lon="13.002547450719465"><ele>693.6666666666666</ele><time>2026-04-11T16:19:23.999Z</time></trkpt><trkpt lat="43.18833850080815" lon="13.002613078133955"><ele>691.3333333333334</ele><time>2026-04-11T16:19:24.999Z</time></trkpt><trkpt lat="43.18841950345216" lon="13.002675762389572"><ele>689.0</ele><time>2026-04-11T16:19:25.999Z</time></trkpt><trkpt lat="43.18849129341021" lon="13.002771095860863"><ele>686.6666666666667</ele><time>2026-04-11T16:19:26.999Z</time></trkpt><trkpt lat="43.18855385769838" lon="13.002872328443452"><ele>684.3333333333334</ele><time>2026-04-11T16:19:27.999Z</time></trkpt><trkpt lat="43.18860013235512" lon="13.002949423536101"><ele>682.0</ele><time>2026-04-11T16:19:28.999Z</time></trkpt><trkpt lat="43.1886767165408" lon="13.003003684340205"><ele>682.0</ele><time>2026-04-11T16:19:29.999Z</time></trkpt><trkpt lat="43.18874983628926" lon="13.003064728576044"><ele>682.0</ele><time>2026-04-11T16:19:31Z</time></trkpt><trkpt lat="43.188812268261955" lon="13.00314623656181"><ele>682.0</ele><time>2026-04-11T16:19:32Z</time></trkpt><trkpt lat="43.188892011381256" lon="13.00320829297037"><ele>682.0</ele><time>2026-04-11T16:19:33Z</time></trkpt><trkpt lat="43.18898091413733" lon="13.00323688557714"><ele>682.0</ele><time>2026-04-11T16:19:34Z</time></trkpt><trkpt lat="43.189062181195695" lon="13.003268362839504"><ele>682.0</ele><time>2026-04-11T16:19:35Z</time></trkpt><trkpt lat="43.18915423319185" lon="13.003308910757184"><ele>678.1666666666667</ele><time>2026-04-11T16:19:36Z</time></trkpt><trkpt lat="43.1892153581397" lon="13.003352638520035"><ele>674.3333333333334</ele><time>2026-04-11T16:19:37Z</time></trkpt><trkpt lat="43.189281147626446" lon="13.003392615158752"><ele>670.5</ele><time>2026-04-11T16:19:38Z</time></trkpt><trkpt lat="43.1893396424203" lon="13.003445783146947"><ele>666.6666666666666</ele><time>2026-04-11T16:19:39Z</time></trkpt><trkpt lat="43.18937060651996" lon="13.003532390941547"><ele>662.8333333333333</ele><time>2026-04-11T16:19:41Z</time></trkpt><trkpt lat="43.189350267159945" lon="13.003622251265304"><ele>659.0</ele><time>2026-04-11T16:19:42Z</time></trkpt><trkpt lat="43.189360400454795" lon="13.003768223204961"><ele>659.0</ele><time>2026-04-11T16:19:44Z</time></trkpt><trkpt lat="43.18942447035381" lon="13.00387059117811"><ele>659.0</ele><time>2026-04-11T16:19:46Z</time></trkpt><trkpt lat="43.1894859519411" lon="13.003991346617134"><ele>659.0</ele><time>2026-04-11T16:19:47Z</time></trkpt><trkpt lat="43.18952435478435" lon="13.004089903231048"><ele>659.0</ele><time>2026-04-11T16:19:48Z</time></trkpt><trkpt lat="43.189559162278925" lon="13.004228874115947"><ele>659.0</ele><time>2026-04-11T16:19:50Z</time></trkpt><trkpt lat="43.189586047594126" lon="13.004401628024429"><ele>655.3333333333333</ele><time>2026-04-11T16:19:52Z</time></trkpt><trkpt lat="43.189592242880785" lon="13.004506475933523"><ele>651.6666666666666</ele><time>2026-04-11T16:19:53Z</time></trkpt><trkpt lat="43.18959747837038" lon="13.004594224428166"><ele>648.0</ele><time>2026-04-11T16:19:54Z</time></trkpt><trkpt lat="43.18953745463023" lon="13.00465056398228"><ele>644.3333333333334</ele><time>2026-04-11T16:19:56Z</time></trkpt><trkpt lat="43.18947236139148" lon="13.004615803397407"><ele>640.6666666666667</ele><time>2026-04-11T16:19:57Z</time></trkpt><trkpt lat="43.189376682864555" lon="13.004573572599362"><ele>637.0</ele><time>2026-04-11T16:19:58Z</time></trkpt><trkpt lat="43.1892951192222" lon="13.004513251190776"><ele>637.0</ele><time>2026-04-11T16:19:59Z</time></trkpt><trkpt lat="43.18918429034885" lon="13.004461968820973"><ele>637.0</ele><time>2026-04-11T16:20:00Z</time></trkpt><trkpt lat="43.18907479862475" lon="13.004430131868899"><ele>637.0</ele><time>2026-04-11T16:20:01Z</time></trkpt><trkpt lat="43.18895712400128" lon="13.00440206682666"><ele>637.0</ele><time>2026-04-11T16:20:02Z</time></trkpt><trkpt lat="43.188842695070264" lon="13.004384147157971"><ele>635.8000000000001</ele><time>2026-04-11T16:20:03Z</time></trkpt><trkpt lat="43.18873601342758" lon="13.004391490035903"><ele>634.6</ele><time>2026-04-11T16:20:04Z</time></trkpt><trkpt lat="43.18863530065228" lon="13.004421310684"><ele>633.4000000000001</ele><time>2026-04-11T16:20:05Z</time></trkpt><trkpt lat="43.1885375390892" lon="13.004447937282414"><ele>632.2</ele><time>2026-04-11T16:20:06Z</time></trkpt><trkpt lat="43.188439603278276" lon="13.0044525270085"><ele>631.0</ele><time>2026-04-11T16:20:07Z</time></trkpt><trkpt lat="43.18834147637796" lon="13.004464092626332"><ele>631.0</ele><time>2026-04-11T16:20:08Z</time></trkpt><trkpt lat="43.18824048074897" lon="13.004479505129583"><ele>631.0</ele><time>2026-04-11T16:20:09Z</time></trkpt><trkpt lat="43.188142459610766" lon="13.004497388856356"><ele>631.0</ele><time>2026-04-11T16:20:10Z</time></trkpt><trkpt lat="43.188052211972476" lon="13.004529758745688"><ele>631.0</ele><time>2026-04-11T16:20:11Z</time></trkpt><trkpt lat="43.18795181256769" lon="13.004509368896443"><ele>631.0</ele><time>2026-04-11T16:20:12Z</time></trkpt><trkpt lat="43.18785469224138" lon="13.004516131515551"><ele>629.3333333333334</ele><time>2026-04-11T16:20:13Z</time></trkpt><trkpt lat="43.187764875652135" lon="13.004529011055723"><ele>627.6666666666667</ele><time>2026-04-11T16:20:14Z</time></trkpt><trkpt lat="43.1876768610159" lon="13.004543061018751"><ele>626.0</ele><time>2026-04-11T16:20:15Z</time></trkpt><trkpt lat="43.18760984182129" lon="13.00456847988697"><ele>624.3333333333334</ele><time>2026-04-11T16:20:16Z</time></trkpt><trkpt lat="43.18763542297694" lon="13.004659125559305"><ele>622.6666666666666</ele><time>2026-04-11T16:20:19Z</time></trkpt><trkpt lat="43.18768219827077" lon="13.004743540319204"><ele>621.0</ele><time>2026-04-11T16:20:20Z</time></trkpt><trkpt lat="43.18775823243119" lon="13.004830720275946"><ele>621.0</ele><time>2026-04-11T16:20:21Z</time></trkpt><trkpt lat="43.18784413285106" lon="13.004933404592945"><ele>621.0</ele><time>2026-04-11T16:20:22Z</time></trkpt><trkpt lat="43.187925297480405" lon="13.005054063350999"><ele>621.0</ele><time>2026-04-11T16:20:23Z</time></trkpt><trkpt lat="43.18800950150593" lon="13.005187471294924"><ele>621.0</ele><time>2026-04-11T16:20:24Z</time></trkpt><trkpt lat="43.18809034071611" lon="13.005318942381523"><ele>619.4</ele><time>2026-04-11T16:20:25Z</time></trkpt><trkpt lat="43.18816710879078" lon="13.005439124229056"><ele>617.8</ele><time>2026-04-11T16:20:26Z</time></trkpt><trkpt lat="43.188240201720966" lon="13.005544002837478"><ele>616.1999999999999</ele><time>2026-04-11T16:20:27Z</time></trkpt><trkpt lat="43.188320571903276" lon="13.005631452819769"><ele>614.6</ele><time>2026-04-11T16:20:28Z</time></trkpt><trkpt lat="43.18840717548308" lon="13.005692058697043"><ele>613.0</ele><time>2026-04-11T16:20:29Z</time></trkpt><trkpt lat="43.18849091432141" lon="13.005740201882682"><ele>613.0</ele><time>2026-04-11T16:20:30Z</time></trkpt><trkpt lat="43.18857574447313" lon="13.00578971383121"><ele>613.0</ele><time>2026-04-11T16:20:31Z</time></trkpt><trkpt lat="43.18865499413989" lon="13.00582910105912"><ele>613.0</ele><time>2026-04-11T16:20:32Z</time></trkpt><trkpt lat="43.1887233828282" lon="13.005863426800538"><ele>613.0</ele><time>2026-04-11T16:20:33Z</time></trkpt><trkpt lat="43.18878583407925" lon="13.005895508260867"><ele>613.0</ele><time>2026-04-11T16:20:34Z</time></trkpt><trkpt lat="43.18887462738738" lon="13.005941483209046"><ele>613.0</ele><time>2026-04-11T16:20:36Z</time></trkpt><trkpt lat="43.18895605764728" lon="13.005969569176074"><ele>611.6</ele><time>2026-04-11T16:20:38Z</time></trkpt><trkpt lat="43.18904997546398" lon="13.006036173544125"><ele>610.1999999999999</ele><time>2026-04-11T16:20:40Z</time></trkpt><trkpt lat="43.189129986122346" lon="13.0061034712619"><ele>608.8</ele><time>2026-04-11T16:20:41.999Z</time></trkpt><trkpt lat="43.18908412246106" lon="13.00617252347823"><ele>607.4</ele><time>2026-04-11T16:20:43.999Z</time></trkpt><trkpt lat="43.1889853614113" lon="13.006250631310929"><ele>606.0</ele><time>2026-04-11T16:20:45.999Z</time></trkpt><trkpt lat="43.188876848708475" lon="13.006245058248867"><ele>604.6666666666666</ele><time>2026-04-11T16:20:47.999Z</time></trkpt><trkpt lat="43.18876386567764" lon="13.006281515149054"><ele>603.3333333333334</ele><time>2026-04-11T16:20:49.999Z</time></trkpt><trkpt lat="43.18874339897408" lon="13.006418623225489"><ele>602.0</ele><time>2026-04-11T16:20:51.999Z</time></trkpt><trkpt lat="43.18876789031389" lon="13.006499015065195"><ele>600.6666666666667</ele><time>2026-04-11T16:20:53.999Z</time></trkpt><trkpt lat="43.188797264370294" lon="13.006583798347714"><ele>599.3333333333334</ele><time>2026-04-11T16:20:56.999Z</time></trkpt><trkpt lat="43.18882053747947" lon="13.006693099881193"><ele>598.0</ele><time>2026-04-11T16:20:58.999Z</time></trkpt><trkpt lat="43.18884176300728" lon="13.006818093237003"><ele>593.6</ele><time>2026-04-11T16:20:59.999Z</time></trkpt><trkpt lat="43.18884814084221" lon="13.006941528458785"><ele>589.1999999999999</ele><time>2026-04-11T16:21:00.999Z</time></trkpt><trkpt lat="43.18887389762828" lon="13.007070903951933"><ele>584.8</ele><time>2026-04-11T16:21:01.999Z</time></trkpt><trkpt lat="43.18893096706966" lon="13.007230016896905"><ele>580.4</ele><time>2026-04-11T16:21:02.999Z</time></trkpt><trkpt lat="43.18897584949722" lon="13.007392613170557"><ele>576.0</ele><time>2026-04-11T16:21:03.999Z</time></trkpt><trkpt lat="43.18902461272483" lon="13.007538950776295"><ele>574.4</ele><time>2026-04-11T16:21:04.999Z</time></trkpt><trkpt lat="43.189049829122425" lon="13.007659261800155"><ele>572.8</ele><time>2026-04-11T16:21:05.999Z</time></trkpt><trkpt lat="43.18907118575358" lon="13.00777128975194"><ele>571.1999999999999</ele><time>2026-04-11T16:21:06.999Z</time></trkpt><trkpt lat="43.189117076679736" lon="13.00789689138652"><ele>569.6</ele><time>2026-04-11T16:21:07.998Z</time></trkpt><trkpt lat="43.18916051068504" lon="13.00802251712468"><ele>568.0</ele><time>2026-04-11T16:21:08.998Z</time></trkpt><trkpt lat="43.18918412439178" lon="13.008131634864583"><ele>568.0</ele><time>2026-04-11T16:21:09.998Z</time></trkpt><trkpt lat="43.18920020387551" lon="13.008241216307482"><ele>568.0</ele><time>2026-04-11T16:21:10.998Z</time></trkpt><trkpt lat="43.18921172327035" lon="13.008328018209802"><ele>568.0</ele><time>2026-04-11T16:21:11.998Z</time></trkpt><trkpt lat="43.189212819892866" lon="13.008429573176779"><ele>568.0</ele><time>2026-04-11T16:21:12.998Z</time></trkpt><trkpt lat="43.189197218280476" lon="13.008528393833343"><ele>568.0</ele><time>2026-04-11T16:21:13.998Z</time></trkpt><trkpt lat="43.189190169769006" lon="13.008642824061742"><ele>568.0</ele><time>2026-04-11T16:21:14.998Z</time></trkpt><trkpt lat="43.189242121254686" lon="13.008808729981924"><ele>565.5</ele><time>2026-04-11T16:21:16.998Z</time></trkpt><trkpt lat="43.189262704311126" lon="13.008914247872855"><ele>563.0</ele><time>2026-04-11T16:21:17.998Z</time></trkpt><trkpt lat="43.189286518032226" lon="13.009000084555634"><ele>560.5</ele><time>2026-04-11T16:21:18.998Z</time></trkpt><trkpt lat="43.18934699975643" lon="13.009136179936089"><ele>558.0</ele><time>2026-04-11T16:21:20.998Z</time></trkpt><trkpt lat="43.18936227577446" lon="13.009225173507826"><ele>555.5</ele><time>2026-04-11T16:21:21.998Z</time></trkpt><trkpt lat="43.18935888477214" lon="13.009330642117561"><ele>553.0</ele><time>2026-04-11T16:21:22.998Z</time></trkpt><trkpt lat="43.189370823118054" lon="13.00943267723582"><ele>550.5</ele><time>2026-04-11T16:21:23.998Z</time></trkpt><trkpt lat="43.18939432046558" lon="13.00955149142844"><ele>548.0</ele><time>2026-04-11T16:21:24.998Z</time></trkpt><trkpt lat="43.18941770034207" lon="13.00965322067404"><ele>545.5</ele><time>2026-04-11T16:21:25.998Z</time></trkpt><trkpt lat="43.18945608660183" lon="13.009763083602925"><ele>543.0</ele><time>2026-04-11T16:21:26.998Z</time></trkpt><trkpt lat="43.18949161584238" lon="13.009882391547967"><ele>540.5</ele><time>2026-04-11T16:21:27.998Z</time></trkpt><trkpt lat="43.18951245751979" lon="13.009996470500836"><ele>538.0</ele><time>2026-04-11T16:21:28.998Z</time></trkpt><trkpt lat="43.18954631412725" lon="13.010107355895501"><ele>534.1999999999999</ele><time>2026-04-11T16:21:29.998Z</time></trkpt><trkpt lat="43.18958305481761" lon="13.010249720344147"><ele>530.4</ele><time>2026-04-11T16:21:30.998Z</time></trkpt><trkpt lat="43.18959839411911" lon="13.010362586484767"><ele>526.5999999999999</ele><time>2026-04-11T16:21:31.998Z</time></trkpt><trkpt lat="43.189630255145026" lon="13.010495162294239"><ele>522.8</ele><time>2026-04-11T16:21:33.998Z</time></trkpt><trkpt lat="43.18967818749239" lon="13.010565291185797"><ele>519.0</ele><time>2026-04-11T16:21:34.998Z</time></trkpt><trkpt lat="43.18967616827751" lon="13.010708933182695"><ele>519.0</ele><time>2026-04-11T16:21:37Z</time></trkpt><trkpt lat="43.189652074963014" lon="13.010806184286489"><ele>519.0</ele><time>2026-04-11T16:21:38Z</time></trkpt><trkpt lat="43.18963910119589" lon="13.01093821658193"><ele>519.0</ele><time>2026-04-11T16:21:39Z</time></trkpt><trkpt lat="43.18960872950554" lon="13.011116785067102"><ele>519.0</ele><time>2026-04-11T16:21:41Z</time></trkpt><trkpt lat="43.18957226438564" lon="13.011220487973885"><ele>519.0</ele><time>2026-04-11T16:21:42Z</time></trkpt><trkpt lat="43.18955163784204" lon="13.011356124647058"><ele>516.8333333333334</ele><time>2026-04-11T16:21:44Z</time></trkpt><trkpt lat="43.189509133269766" lon="13.011488754868347"><ele>514.6666666666666</ele><time>2026-04-11T16:21:46Z</time></trkpt><trkpt lat="43.18949461870613" lon="13.011581682342456"><ele>512.5</ele><time>2026-04-11T16:21:47Z</time></trkpt><trkpt lat="43.18950678218714" lon="13.011688349567214"><ele>510.3333333333333</ele><time>2026-04-11T16:21:48Z</time></trkpt><trkpt lat="43.18953856395797" lon="13.011791763857842"><ele>508.16666666666663</ele><time>2026-04-11T16:21:49Z</time></trkpt><trkpt lat="43.189569027906614" lon="13.011897912078686"><ele>506.0</ele><time>2026-04-11T16:21:50Z</time></trkpt><trkpt lat="43.18959604566435" lon="13.012016193728105"><ele>503.8</ele><time>2026-04-11T16:21:51Z</time></trkpt><trkpt lat="43.18962430034735" lon="13.012132101131371"><ele>501.6</ele><time>2026-04-11T16:21:52Z</time></trkpt><trkpt lat="43.1896526421798" lon="13.012248365810423"><ele>499.4</ele><time>2026-04-11T16:21:53Z</time></trkpt><trkpt lat="43.189674036454804" lon="13.012370559386879"><ele>497.2</ele><time>2026-04-11T16:21:54Z</time></trkpt><trkpt lat="43.18971504747679" lon="13.012480826775231"><ele>495.0</ele><time>2026-04-11T16:21:54.999Z</time></trkpt><trkpt lat="43.189782141620206" lon="13.012567122630031"><ele>493.1666666666667</ele><time>2026-04-11T16:21:55.999Z</time></trkpt><trkpt lat="43.189863674493445" lon="13.012621613537306"><ele>491.33333333333337</ele><time>2026-04-11T16:21:56.999Z</time></trkpt><trkpt lat="43.18994384730911" lon="13.012675790099431"><ele>489.5</ele><time>2026-04-11T16:21:57.999Z</time></trkpt><trkpt lat="43.190021268819166" lon="13.012731114334347"><ele>487.6666666666667</ele><time>2026-04-11T16:21:58.999Z</time></trkpt><trkpt lat="43.1900920261607" lon="13.012779143738321"><ele>485.83333333333337</ele><time>2026-04-11T16:21:59.999Z</time></trkpt><trkpt lat="43.19016948826945" lon="13.012831806672983"><ele>484.0</ele><time>2026-04-11T16:22:00.999Z</time></trkpt><trkpt lat="43.190233042001395" lon="13.012897064929636"><ele>484.00000000000006</ele><time>2026-04-11T16:22:01.999Z</time></trkpt><trkpt lat="43.19028074827534" lon="13.012993340449851"><ele>484.0</ele><time>2026-04-11T16:22:02.999Z</time></trkpt><trkpt lat="43.19031367606746" lon="13.013107604919277"><ele>484.0</ele><time>2026-04-11T16:22:03.999Z</time></trkpt><trkpt lat="43.190332725771476" lon="13.013197744351451"><ele>484.0</ele><time>2026-04-11T16:22:04.999Z</time></trkpt><trkpt lat="43.1903703745696" lon="13.013348293060528"><ele>484.00000000000006</ele><time>2026-04-11T16:22:06.999Z</time></trkpt><trkpt lat="43.190378478496285" lon="13.013434737350323"><ele>484.0</ele><time>2026-04-11T16:22:07.999Z</time></trkpt><trkpt lat="43.190384479202805" lon="13.013532844056288"><ele>482.00000000000006</ele><time>2026-04-11T16:22:08.999Z</time></trkpt><trkpt lat="43.19038543754151" lon="13.013637348939323"><ele>480.0</ele><time>2026-04-11T16:22:09.999Z</time></trkpt><trkpt lat="43.19038957660257" lon="13.013741337120903"><ele>478.0</ele><time>2026-04-11T16:22:10.999Z</time></trkpt><trkpt lat="43.19039605743014" lon="13.013846596351694"><ele>476.0</ele><time>2026-04-11T16:22:11.999Z</time></trkpt><trkpt lat="43.19040544288388" lon="13.013955681147621"><ele>474.00000000000006</ele><time>2026-04-11T16:22:12.999Z</time></trkpt><trkpt lat="43.19041063951786" lon="13.014076251625232"><ele>472.0</ele><time>2026-04-11T16:22:13.999Z</time></trkpt><trkpt lat="43.190417256173" lon="13.014219861599724"><ele>470.0</ele><time>2026-04-11T16:22:14.999Z</time></trkpt><trkpt lat="43.19040633884968" lon="13.014367866236036"><ele>468.00000000000006</ele><time>2026-04-11T16:22:15.999Z</time></trkpt><trkpt lat="43.19039893684419" lon="13.014515051808225"><ele>466.00000000000006</ele><time>2026-04-11T16:22:16.999Z</time></trkpt><trkpt lat="43.19038969453855" lon="13.01465894937944"><ele>464.0</ele><time>2026-04-11T16:22:17.999Z</time></trkpt><trkpt lat="43.19038058233878" lon="13.014810792888802"><ele>462.0</ele><time>2026-04-11T16:22:18.999Z</time></trkpt><trkpt lat="43.190369298624134" lon="13.014960611201026"><ele>459.75</ele><time>2026-04-11T16:22:19.999Z</time></trkpt><trkpt lat="43.19035279906134" lon="13.015107706019478"><ele>457.5</ele><time>2026-04-11T16:22:20.999Z</time></trkpt><trkpt lat="43.19033041634616" lon="13.01526000002006"><ele>455.25</ele><time>2026-04-11T16:22:21.999Z</time></trkpt><trkpt lat="43.19030055884261" lon="13.015415314844088"><ele>453.0</ele><time>2026-04-11T16:22:22.999Z</time></trkpt><trkpt lat="43.1902616657815" lon="13.015568577851539"><ele>453.0</ele><time>2026-04-11T16:22:23.999Z</time></trkpt><trkpt lat="43.19021761253219" lon="13.015723454563364"><ele>453.0</ele><time>2026-04-11T16:22:24.999Z</time></trkpt><trkpt lat="43.190173566203576" lon="13.015877438365944"><ele>453.0</ele><time>2026-04-11T16:22:25.999Z</time></trkpt><trkpt lat="43.19012927772147" lon="13.016037519690316"><ele>453.0</ele><time>2026-04-11T16:22:26.999Z</time></trkpt><trkpt lat="43.190089045961535" lon="13.016198967645522"><ele>451.75</ele><time>2026-04-11T16:22:27.999Z</time></trkpt><trkpt lat="43.1900491221172" lon="13.016366443236539"><ele>450.5</ele><time>2026-04-11T16:22:28.999Z</time></trkpt><trkpt lat="43.19000809070482" lon="13.016529385971365"><ele>449.25</ele><time>2026-04-11T16:22:29.999Z</time></trkpt><trkpt lat="43.18996580494543" lon="13.01669702841948"><ele>448.0</ele><time>2026-04-11T16:22:30.999Z</time></trkpt><trkpt lat="43.18993156965665" lon="13.016855948925663"><ele>446.75</ele><time>2026-04-11T16:22:31.999Z</time></trkpt><trkpt lat="43.1899154206674" lon="13.017018061995843"><ele>445.5</ele><time>2026-04-11T16:22:32.999Z</time></trkpt><trkpt lat="43.18991581725138" lon="13.017193925424529"><ele>444.25</ele><time>2026-04-11T16:22:33.999Z</time></trkpt><trkpt lat="43.18992446697957" lon="13.017362251508583"><ele>443.0</ele><time>2026-04-11T16:22:34.999Z</time></trkpt><trkpt lat="43.18992310624618" lon="13.017506658461155"><ele>441.4</ele><time>2026-04-11T16:22:35.999Z</time></trkpt><trkpt lat="43.18989447964027" lon="13.017621489600415"><ele>439.79999999999995</ele><time>2026-04-11T16:22:36.999Z</time></trkpt><trkpt lat="43.18982781724553" lon="13.017690449644352"><ele>438.2</ele><time>2026-04-11T16:22:37.999Z</time></trkpt><trkpt lat="43.18972339754666" lon="13.017708862994667"><ele>436.6</ele><time>2026-04-11T16:22:38.999Z</time></trkpt><trkpt lat="43.18959975065982" lon="13.017677482717694"><ele>435.0</ele><time>2026-04-11T16:22:39.999Z</time></trkpt><trkpt lat="43.189489306181805" lon="13.017635567875908"><ele>434.4</ele><time>2026-04-11T16:22:40.999Z</time></trkpt><trkpt lat="43.189398915220664" lon="13.017631620722266"><ele>433.8</ele><time>2026-04-11T16:22:41.999Z</time></trkpt><trkpt lat="43.18932008950955" lon="13.017680779029657"><ele>433.20000000000005</ele><time>2026-04-11T16:22:42.999Z</time></trkpt><trkpt lat="43.189244189000654" lon="13.017774431061396"><ele>432.6</ele><time>2026-04-11T16:22:43.999Z</time></trkpt><trkpt lat="43.189197432144354" lon="13.017912379607344"><ele>432.0</ele><time>2026-04-11T16:22:44.999Z</time></trkpt><trkpt lat="43.18917364144898" lon="13.01806750740844"><ele>432.0</ele><time>2026-04-11T16:22:45.999Z</time></trkpt><trkpt lat="43.18916341015349" lon="13.018212630896802"><ele>432.0</ele><time>2026-04-11T16:22:46.999Z</time></trkpt><trkpt lat="43.18913378749228" lon="13.018353044653765"><ele>432.0</ele><time>2026-04-11T16:22:47.999Z</time></trkpt><trkpt lat="43.18906880405831" lon="13.018489795602665"><ele>432.0</ele><time>2026-04-11T16:22:48.999Z</time></trkpt><trkpt lat="43.188976552010956" lon="13.018594315068672"><ele>428.0</ele><time>2026-04-11T16:22:49.999Z</time></trkpt><trkpt lat="43.18887533916074" lon="13.018671493704604"><ele>424.0</ele><time>2026-04-11T16:22:50.999Z</time></trkpt><trkpt lat="43.18878802150119" lon="13.018772674594981"><ele>420.0</ele><time>2026-04-11T16:22:51.999Z</time></trkpt><trkpt lat="43.18871352230748" lon="13.018881950291396"><ele>416.0</ele><time>2026-04-11T16:22:52.999Z</time></trkpt><trkpt lat="43.18863747346335" lon="13.019001574224626"><ele>416.0</ele><time>2026-04-11T16:22:53.999Z</time></trkpt><trkpt lat="43.18855908621076" lon="13.019110891423415"><ele>416.0</ele><time>2026-04-11T16:22:54.999Z</time></trkpt><trkpt lat="43.18848047926765" lon="13.01921846925894"><ele>416.0</ele><time>2026-04-11T16:22:55.999Z</time></trkpt><trkpt lat="43.18839066525656" lon="13.01931135237957"><ele>416.0</ele><time>2026-04-11T16:22:56.999Z</time></trkpt><trkpt lat="43.18827564270494" lon="13.019339829337344"><ele>414.0</ele><time>2026-04-11T16:22:57.999Z</time></trkpt><trkpt lat="43.188163891116794" lon="13.01933975777028"><ele>412.0</ele><time>2026-04-11T16:22:58.999Z</time></trkpt><trkpt lat="43.18805535123244" lon="13.019351481853793"><ele>410.0</ele><time>2026-04-11T16:22:59.999Z</time></trkpt><trkpt lat="43.1879425874315" lon="13.019381305769603"><ele>408.0</ele><time>2026-04-11T16:23:00.999Z</time></trkpt><trkpt lat="43.18783563006928" lon="13.019419902943321"><ele>406.0</ele><time>2026-04-11T16:23:01.999Z</time></trkpt><trkpt lat="43.187739723605006" lon="13.019425152802226"><ele>406.0</ele><time>2026-04-11T16:23:02.999Z</time></trkpt><trkpt lat="43.18764149821776" lon="13.01945802245991"><ele>406.0</ele><time>2026-04-11T16:23:03.999Z</time></trkpt><trkpt lat="43.18751612344672" lon="13.019480853341783"><ele>406.0</ele><time>2026-04-11T16:23:04.999Z</time></trkpt><trkpt lat="43.18737238183156" lon="13.019485882489786"><ele>406.0</ele><time>2026-04-11T16:23:05.999Z</time></trkpt><trkpt lat="43.18725396113113" lon="13.019490487084768"><ele>404.25</ele><time>2026-04-11T16:23:06.999Z</time></trkpt><trkpt lat="43.18712231034173" lon="13.019514769282631"><ele>402.5</ele><time>2026-04-11T16:23:07.999Z</time></trkpt><trkpt lat="43.18698840069238" lon="13.019535153894138"><ele>400.75</ele><time>2026-04-11T16:23:08.999Z</time></trkpt><trkpt lat="43.18686322763192" lon="13.01955512341298"><ele>399.0</ele><time>2026-04-11T16:23:09.999Z</time></trkpt><trkpt lat="43.186760790759614" lon="13.019578776279774"><ele>399.0</ele><time>2026-04-11T16:23:10.999Z</time></trkpt><trkpt lat="43.18668070886259" lon="13.019644108648391"><ele>399.0</ele><time>2026-04-11T16:23:11.999Z</time></trkpt><trkpt lat="43.186619694449604" lon="13.019751960628522"><ele>399.0</ele><time>2026-04-11T16:23:12.999Z</time></trkpt><trkpt lat="43.18658768320393" lon="13.01989745607657"><ele>399.0</ele><time>2026-04-11T16:23:13.999Z</time></trkpt><trkpt lat="43.18658368458791" lon="13.020058810106557"><ele>399.0</ele><time>2026-04-11T16:23:14.999Z</time></trkpt><trkpt lat="43.18659246289879" lon="13.02022690474401"><ele>397.25</ele><time>2026-04-11T16:23:15.999Z</time></trkpt><trkpt lat="43.18661292248549" lon="13.02040087205801"><ele>395.5</ele><time>2026-04-11T16:23:16.999Z</time></trkpt><trkpt lat="43.18664489062023" lon="13.020586912025639"><ele>393.75</ele><time>2026-04-11T16:23:17.999Z</time></trkpt><trkpt lat="43.186651640928595" lon="13.020756435204358"><ele>392.0</ele><time>2026-04-11T16:23:18.998Z</time></trkpt><trkpt lat="43.186635924746525" lon="13.020891665584259"><ele>391.20000000000005</ele><time>2026-04-11T16:23:19.998Z</time></trkpt><trkpt lat="43.18662614509432" lon="13.021018860966532"><ele>390.4</ele><time>2026-04-11T16:23:20.998Z</time></trkpt><trkpt lat="43.186577305064674" lon="13.021103193176998"><ele>389.6</ele><time>2026-04-11T16:23:21.998Z</time></trkpt><trkpt lat="43.18651546187131" lon="13.021158519033564"><ele>388.79999999999995</ele><time>2026-04-11T16:23:22.998Z</time></trkpt><trkpt lat="43.18651781964008" lon="13.021318328931214"><ele>388.0</ele><time>2026-04-11T16:23:24.998Z</time></trkpt><trkpt lat="43.18657605023245" lon="13.02140782580016"><ele>388.0</ele><time>2026-04-11T16:23:25.998Z</time></trkpt><trkpt lat="43.18664191367097" lon="13.021527615462382"><ele>388.0</ele><time>2026-04-11T16:23:26.998Z</time></trkpt><trkpt lat="43.18669195074526" lon="13.021656711881866"><ele>388.0</ele><time>2026-04-11T16:23:27.998Z</time></trkpt><trkpt lat="43.1867201672001" lon="13.021775995766282"><ele>388.0</ele><time>2026-04-11T16:23:28.998Z</time></trkpt><trkpt lat="43.18671646357919" lon="13.021898621354794"><ele>388.0</ele><time>2026-04-11T16:23:29.998Z</time></trkpt><trkpt lat="43.18667215411786" lon="13.022016294774078"><ele>387.5</ele><time>2026-04-11T16:23:30.998Z</time></trkpt><trkpt lat="43.186619131567674" lon="13.022144242279438"><ele>387.0</ele><time>2026-04-11T16:23:31.998Z</time></trkpt><trkpt lat="43.18656901869588" lon="13.022304266165369"><ele>386.5</ele><time>2026-04-11T16:23:32.998Z</time></trkpt><trkpt lat="43.186515288084884" lon="13.022468386887384"><ele>386.0</ele><time>2026-04-11T16:23:33.998Z</time></trkpt><trkpt lat="43.18647048465519" lon="13.022630496787706"><ele>384.0</ele><time>2026-04-11T16:23:34.998Z</time></trkpt><trkpt lat="43.18642659140203" lon="13.022802086542159"><ele>382.0</ele><time>2026-04-11T16:23:35.998Z</time></trkpt><trkpt lat="43.18638229130363" lon="13.02294519723086"><ele>380.0</ele><time>2026-04-11T16:23:36.998Z</time></trkpt><trkpt lat="43.18634251418386" lon="13.023092609641033"><ele>378.0</ele><time>2026-04-11T16:23:37.998Z</time></trkpt><trkpt lat="43.186309419089575" lon="13.023228954873938"><ele>376.2</ele><time>2026-04-11T16:23:38.998Z</time></trkpt><trkpt lat="43.18628322808631" lon="13.023364316760349"><ele>374.4</ele><time>2026-04-11T16:23:39.998Z</time></trkpt><trkpt lat="43.18626150027216" lon="13.023492756964092"><ele>372.59999999999997</ele><time>2026-04-11T16:23:40.998Z</time></trkpt><trkpt lat="43.18626324183377" lon="13.02362317284597"><ele>370.79999999999995</ele><time>2026-04-11T16:23:41.998Z</time></trkpt><trkpt lat="43.186276481733636" lon="13.023741505346225"><ele>369.0</ele><time>2026-04-11T16:23:43Z</time></trkpt><trkpt lat="43.186295424941086" lon="13.023842018654467"><ele>369.0</ele><time>2026-04-11T16:23:44Z</time></trkpt><trkpt lat="43.18632196650903" lon="13.023959227412156"><ele>369.0</ele><time>2026-04-11T16:23:45Z</time></trkpt><trkpt lat="43.18634765507411" lon="13.024078761124773"><ele>369.0</ele><time>2026-04-11T16:23:46Z</time></trkpt><trkpt lat="43.186372012945185" lon="13.024193167054023"><ele>369.0</ele><time>2026-04-11T16:23:47Z</time></trkpt><trkpt lat="43.18639942746174" lon="13.024300525622808"><ele>369.0</ele><time>2026-04-11T16:23:48Z</time></trkpt><trkpt lat="43.18643311861618" lon="13.024437711869135"><ele>368.25</ele><time>2026-04-11T16:23:49Z</time></trkpt><trkpt lat="43.18647535342751" lon="13.024608721744956"><ele>367.5</ele><time>2026-04-11T16:23:50Z</time></trkpt><trkpt lat="43.18651251021693" lon="13.024782961020946"><ele>366.75</ele><time>2026-04-11T16:23:51Z</time></trkpt><trkpt lat="43.1865386395469" lon="13.024952450228312"><ele>366.0</ele><time>2026-04-11T16:23:52Z</time></trkpt><trkpt lat="43.18656308030757" lon="13.02510854073239"><ele>364.5</ele><time>2026-04-11T16:23:53Z</time></trkpt><trkpt lat="43.186582847217274" lon="13.025274798762652"><ele>363.0</ele><time>2026-04-11T16:23:54Z</time></trkpt><trkpt lat="43.18660267509511" lon="13.0254393478953"><ele>361.5</ele><time>2026-04-11T16:23:55Z</time></trkpt><trkpt lat="43.186627692352275" lon="13.025601904221203"><ele>360.0</ele><time>2026-04-11T16:23:56Z</time></trkpt><trkpt lat="43.186645668504255" lon="13.025771144944988"><ele>357.25</ele><time>2026-04-11T16:23:57Z</time></trkpt><trkpt lat="43.186658176158424" lon="13.025938364178952"><ele>354.5</ele><time>2026-04-11T16:23:58Z</time></trkpt><trkpt lat="43.186673396171216" lon="13.026107748207602"><ele>351.75</ele><time>2026-04-11T16:23:59Z</time></trkpt><trkpt lat="43.18668658272476" lon="13.026259498731287"><ele>349.0</ele><time>2026-04-11T16:24:00Z</time></trkpt><trkpt lat="43.18669524903728" lon="13.026397190532087"><ele>349.0</ele><time>2026-04-11T16:24:01Z</time></trkpt><trkpt lat="43.18670028460019" lon="13.026515244453476"><ele>349.0</ele><time>2026-04-11T16:24:02Z</time></trkpt><trkpt lat="43.18668814381198" lon="13.02661980080981"><ele>349.0</ele><time>2026-04-11T16:24:03.999Z</time></trkpt><trkpt lat="43.18661670241159" lon="13.026640919484175"><ele>349.0</ele><time>2026-04-11T16:24:05.999Z</time></trkpt><trkpt lat="43.18649564242483" lon="13.026681056668627"><ele>349.0</ele><time>2026-04-11T16:24:07.999Z</time></trkpt><trkpt lat="43.18642259367238" lon="13.026762503404417"><ele>347.66666666666663</ele><time>2026-04-11T16:24:08.999Z</time></trkpt><trkpt lat="43.18636788645067" lon="13.026841771587693"><ele>346.3333333333333</ele><time>2026-04-11T16:24:09.999Z</time></trkpt><trkpt lat="43.186301894533464" lon="13.026917334082007"><ele>345.0</ele><time>2026-04-11T16:24:10.999Z</time></trkpt><trkpt lat="43.1862262483983" lon="13.026994005196503"><ele>343.6666666666667</ele><time>2026-04-11T16:24:11.999Z</time></trkpt><trkpt lat="43.186160157787604" lon="13.027058809249802"><ele>342.33333333333337</ele><time>2026-04-11T16:24:12.999Z</time></trkpt><trkpt lat="43.18607870695803" lon="13.027143033386727"><ele>341.0</ele><time>2026-04-11T16:24:13.999Z</time></trkpt><trkpt lat="43.185993544629575" lon="13.027239661825284"><ele>341.0</ele><time>2026-04-11T16:24:14.999Z</time></trkpt><trkpt lat="43.18591558591462" lon="13.02731531259075"><ele>341.0</ele><time>2026-04-11T16:24:15.999Z</time></trkpt><trkpt lat="43.18583740285255" lon="13.027369003484871"><ele>341.0</ele><time>2026-04-11T16:24:16.999Z</time></trkpt><trkpt lat="43.185757578360956" lon="13.027382687706607"><ele>341.0</ele><time>2026-04-11T16:24:17.999Z</time></trkpt><trkpt lat="43.18567098862337" lon="13.02733984833677"><ele>341.0</ele><time>2026-04-11T16:24:18.999Z</time></trkpt><trkpt lat="43.18558606519679" lon="13.027257998428002"><ele>341.0</ele><time>2026-04-11T16:24:19.999Z</time></trkpt><trkpt lat="43.185502405815136" lon="13.027128437802132"><ele>341.0</ele><time>2026-04-11T16:24:20.999Z</time></trkpt><trkpt lat="43.18542325790647" lon="13.026967299129286"><ele>341.0</ele><time>2026-04-11T16:24:21.999Z</time></trkpt><trkpt lat="43.185342282125575" lon="13.026781514164414"><ele>341.0</ele><time>2026-04-11T16:24:22.999Z</time></trkpt><trkpt lat="43.18525365211388" lon="13.026595920933344"><ele>340.33333333333337</ele><time>2026-04-11T16:24:23.999Z</time></trkpt><trkpt lat="43.185158302993834" lon="13.026394435966443"><ele>339.6666666666667</ele><time>2026-04-11T16:24:24.999Z</time></trkpt><trkpt lat="43.18506605212696" lon="13.026195787180853"><ele>339.0</ele><time>2026-04-11T16:24:25.999Z</time></trkpt><trkpt lat="43.184963989541345" lon="13.025977833931957"><ele>340.0</ele><time>2026-04-11T16:24:26.999Z</time></trkpt><trkpt lat="43.184849646699995" lon="13.025737674083825"><ele>341.0</ele><time>2026-04-11T16:24:27.999Z</time></trkpt><trkpt lat="43.18472837627434" lon="13.025479967737054"><ele>342.0</ele><time>2026-04-11T16:24:28.999Z</time></trkpt><trkpt lat="43.18460861857136" lon="13.025217488236512"><ele>342.0</ele><time>2026-04-11T16:24:29.999Z</time></trkpt><trkpt lat="43.18448786194435" lon="13.024936435741859"><ele>342.0</ele><time>2026-04-11T16:24:30.999Z</time></trkpt><trkpt lat="43.18436859400909" lon="13.024642236233026"><ele>342.0</ele><time>2026-04-11T16:24:31.999Z</time></trkpt><trkpt lat="43.18426449817556" lon="13.02436221667075"><ele>342.0</ele><time>2026-04-11T16:24:32.999Z</time></trkpt><trkpt lat="43.18417990715336" lon="13.024111583288706"><ele>342.0</ele><time>2026-04-11T16:24:33.999Z</time></trkpt><trkpt lat="43.1841058565211" lon="13.023880808266435"><ele>342.0</ele><time>2026-04-11T16:24:34.999Z</time></trkpt><trkpt lat="43.18403133531418" lon="13.0236746681984"><ele>342.0</ele><time>2026-04-11T16:24:35.999Z</time></trkpt><trkpt lat="43.183981859011695" lon="13.023492292872668"><ele>342.0</ele><time>2026-04-11T16:24:36.999Z</time></trkpt><trkpt lat="43.183955287244586" lon="13.023324584739012"><ele>342.0</ele><time>2026-04-11T16:24:37.999Z</time></trkpt><trkpt lat="43.183932703141885" lon="13.023162317411206"><ele>343.0</ele><time>2026-04-11T16:24:38.999Z</time></trkpt><trkpt lat="43.18390864105994" lon="13.02299799662133"><ele>344.0</ele><time>2026-04-11T16:24:39.999Z</time></trkpt><trkpt lat="43.183878437113435" lon="13.022827480792683"><ele>345.0</ele><time>2026-04-11T16:24:40.999Z</time></trkpt><trkpt lat="43.18385331314149" lon="13.02267953571773"><ele>346.0</ele><time>2026-04-11T16:24:41.999Z</time></trkpt><trkpt lat="43.18381680702247" lon="13.022530586327646"><ele>346.4</ele><time>2026-04-11T16:24:42.999Z</time></trkpt><trkpt lat="43.18377279786029" lon="13.022401003444392"><ele>346.8</ele><time>2026-04-11T16:24:43.999Z</time></trkpt><trkpt lat="43.18372097078515" lon="13.022287948450932"><ele>347.2</ele><time>2026-04-11T16:24:44.999Z</time></trkpt><trkpt lat="43.18366238353155" lon="13.022179716399807"><ele>347.59999999999997</ele><time>2026-04-11T16:24:45.999Z</time></trkpt><trkpt lat="43.1835686896651" lon="13.022078365419226"><ele>348.0</ele><time>2026-04-11T16:24:46.999Z</time></trkpt><trkpt lat="43.18345442411001" lon="13.021980736468432"><ele>348.0</ele><time>2026-04-11T16:24:47.999Z</time></trkpt><trkpt lat="43.18340122587173" lon="13.021895215656759"><ele>348.0</ele><time>2026-04-11T16:24:48.999Z</time></trkpt><trkpt lat="43.18339777905171" lon="13.021727791558547"><ele>348.0</ele><time>2026-04-11T16:24:50.999Z</time></trkpt><trkpt lat="43.18339777905171" lon="13.021727791558547"><ele>348.0</ele><time>2026-04-11T16:24:50.999Z</time></trkpt><trkpt lat="43.18339777905171" lon="13.021727791558547"><ele>348.0</ele><time>2026-04-11T16:24:50.999Z</time></trkpt><trkpt lat="43.18339777905171" lon="13.021727791558547"><ele>348.0</ele><time>2026-04-11T16:24:50.999Z</time></trkpt><trkpt lat="43.18339777905171" lon="13.021727791558547"><ele>348.0</ele><time>2026-04-11T16:24:50.999Z</time></trkpt><trkpt lat="43.18339777905171" lon="13.021727791558547"><ele>348.0</ele><time>2026-04-11T16:24:50.999Z</time></trkpt><trkpt lat="43.18339777905171" lon="13.021727791558547"><ele>348.0</ele><time>2026-04-11T16:24:50.999Z</time></trkpt><trkpt lat="43.18339777905171" lon="13.021727791558547"><ele>348.0</ele><time>2026-04-11T16:24:50.999Z</time></trkpt><trkpt lat="43.18339777905171" lon="13.021727791558547"><ele>348.0</ele><time>2026-04-11T16:24:50.999Z</time></trkpt><trkpt lat="43.18339777905171" lon="13.021727791558547"><ele>348.0</ele><time>2026-04-11T16:24:50.999Z</time></trkpt></trkseg></trk></gpx>